<?xml version="1.0" encoding="UTF-8" standalone="no" ?>
<gpx xmlns="http://www.topografix.com/GPX/1/1" xmlns:xsi="http://www.w3.org/2001/XMLSchema-instance" xsi:schemaLocation="http://www.topografix.com/GPX/1/1 http://www.topografix.com/GPX/1/1/gpx.xsd" version="1.1" creator="VisuGPX - https://www.visugpx.com">
  <metadata>
    <name>La Vertaco 2019</name>
    <desc><![CDATA[
]]></desc>
  </metadata>
  <trk>
    <name><![CDATA[La Vertaco 2019_1]]></name>
    <trkseg>
      <trkpt lat="44.9676" lon="5.41559">
        <ele>891</ele>
        <time>2019-06-15T06:59:30.000Z</time>
      </trkpt>
      <trkpt lat="44.9676" lon="5.41559">
        <ele>891</ele>
        <time>2019-06-15T06:59:31.000Z</time>
      </trkpt>
      <trkpt lat="44.9676" lon="5.41558">
        <ele>891</ele>
        <time>2019-06-15T06:59:32.000Z</time>
      </trkpt>
      <trkpt lat="44.9676" lon="5.41558">
        <ele>891</ele>
        <time>2019-06-15T06:59:33.000Z</time>
      </trkpt>
      <trkpt lat="44.96759" lon="5.41557">
        <ele>891</ele>
        <time>2019-06-15T06:59:34.000Z</time>
      </trkpt>
      <trkpt lat="44.96759" lon="5.41556">
        <ele>891</ele>
        <time>2019-06-15T06:59:35.000Z</time>
      </trkpt>
      <trkpt lat="44.96759" lon="5.41555">
        <ele>891</ele>
        <time>2019-06-15T06:59:36.000Z</time>
      </trkpt>
      <trkpt lat="44.96758" lon="5.41554">
        <ele>891</ele>
        <time>2019-06-15T06:59:37.000Z</time>
      </trkpt>
      <trkpt lat="44.96758" lon="5.41554">
        <ele>891</ele>
        <time>2019-06-15T06:59:38.000Z</time>
      </trkpt>
      <trkpt lat="44.96758" lon="5.41553">
        <ele>891</ele>
        <time>2019-06-15T06:59:39.000Z</time>
      </trkpt>
      <trkpt lat="44.96758" lon="5.41552">
        <ele>891</ele>
        <time>2019-06-15T06:59:40.000Z</time>
      </trkpt>
      <trkpt lat="44.96757" lon="5.41551">
        <ele>891</ele>
        <time>2019-06-15T06:59:41.000Z</time>
      </trkpt>
      <trkpt lat="44.96757" lon="5.4155">
        <ele>891</ele>
        <time>2019-06-15T06:59:42.000Z</time>
      </trkpt>
      <trkpt lat="44.96757" lon="5.41548">
        <ele>892</ele>
        <time>2019-06-15T06:59:43.000Z</time>
      </trkpt>
      <trkpt lat="44.96758" lon="5.41546">
        <ele>892</ele>
        <time>2019-06-15T06:59:44.000Z</time>
      </trkpt>
      <trkpt lat="44.96759" lon="5.41543">
        <ele>893</ele>
        <time>2019-06-15T06:59:45.000Z</time>
      </trkpt>
      <trkpt lat="44.9676" lon="5.4154">
        <ele>893</ele>
        <time>2019-06-15T06:59:46.000Z</time>
      </trkpt>
      <trkpt lat="44.96762" lon="5.41537">
        <ele>894</ele>
        <time>2019-06-15T06:59:47.000Z</time>
      </trkpt>
      <trkpt lat="44.96762" lon="5.41534">
        <ele>893</ele>
        <time>2019-06-15T06:59:48.000Z</time>
      </trkpt>
      <trkpt lat="44.96762" lon="5.41531">
        <ele>893</ele>
        <time>2019-06-15T06:59:49.000Z</time>
      </trkpt>
      <trkpt lat="44.96763" lon="5.41528">
        <ele>893</ele>
        <time>2019-06-15T06:59:50.000Z</time>
      </trkpt>
      <trkpt lat="44.96764" lon="5.41525">
        <ele>893</ele>
        <time>2019-06-15T06:59:51.000Z</time>
      </trkpt>
      <trkpt lat="44.96764" lon="5.41522">
        <ele>893</ele>
        <time>2019-06-15T06:59:52.000Z</time>
      </trkpt>
      <trkpt lat="44.96765" lon="5.41519">
        <ele>893</ele>
        <time>2019-06-15T06:59:53.000Z</time>
      </trkpt>
      <trkpt lat="44.96766" lon="5.41515">
        <ele>893</ele>
        <time>2019-06-15T06:59:54.000Z</time>
      </trkpt>
      <trkpt lat="44.96766" lon="5.41512">
        <ele>893</ele>
        <time>2019-06-15T06:59:55.000Z</time>
      </trkpt>
      <trkpt lat="44.96767" lon="5.41509">
        <ele>892</ele>
        <time>2019-06-15T06:59:56.000Z</time>
      </trkpt>
      <trkpt lat="44.96768" lon="5.41505">
        <ele>892</ele>
        <time>2019-06-15T06:59:57.000Z</time>
      </trkpt>
      <trkpt lat="44.9677" lon="5.41502">
        <ele>891</ele>
        <time>2019-06-15T06:59:58.000Z</time>
      </trkpt>
      <trkpt lat="44.96771" lon="5.41498">
        <ele>891</ele>
        <time>2019-06-15T06:59:59.000Z</time>
      </trkpt>
      <trkpt lat="44.96771" lon="5.41495">
        <ele>891</ele>
        <time>2019-06-15T07:00:00.000Z</time>
      </trkpt>
      <trkpt lat="44.96772" lon="5.41492">
        <ele>891</ele>
        <time>2019-06-15T07:00:01.000Z</time>
      </trkpt>
      <trkpt lat="44.96772" lon="5.41488">
        <ele>890</ele>
        <time>2019-06-15T07:00:02.000Z</time>
      </trkpt>
      <trkpt lat="44.96772" lon="5.41485">
        <ele>890</ele>
        <time>2019-06-15T07:00:03.000Z</time>
      </trkpt>
      <trkpt lat="44.96773" lon="5.41481">
        <ele>890</ele>
        <time>2019-06-15T07:00:04.000Z</time>
      </trkpt>
      <trkpt lat="44.96774" lon="5.41478">
        <ele>891</ele>
        <time>2019-06-15T07:00:05.000Z</time>
      </trkpt>
      <trkpt lat="44.96774" lon="5.41475">
        <ele>891</ele>
        <time>2019-06-15T07:00:06.000Z</time>
      </trkpt>
      <trkpt lat="44.96774" lon="5.41471">
        <ele>890</ele>
        <time>2019-06-15T07:00:07.000Z</time>
      </trkpt>
      <trkpt lat="44.96775" lon="5.41468">
        <ele>891</ele>
        <time>2019-06-15T07:00:08.000Z</time>
      </trkpt>
      <trkpt lat="44.96776" lon="5.41465">
        <ele>891</ele>
        <time>2019-06-15T07:00:09.000Z</time>
      </trkpt>
      <trkpt lat="44.96776" lon="5.41462">
        <ele>891</ele>
        <time>2019-06-15T07:00:10.000Z</time>
      </trkpt>
      <trkpt lat="44.96777" lon="5.41458">
        <ele>891</ele>
        <time>2019-06-15T07:00:11.000Z</time>
      </trkpt>
      <trkpt lat="44.96778" lon="5.41455">
        <ele>891</ele>
        <time>2019-06-15T07:00:12.000Z</time>
      </trkpt>
      <trkpt lat="44.96779" lon="5.41451">
        <ele>891</ele>
        <time>2019-06-15T07:00:13.000Z</time>
      </trkpt>
      <trkpt lat="44.9678" lon="5.41448">
        <ele>891</ele>
        <time>2019-06-15T07:00:14.000Z</time>
      </trkpt>
      <trkpt lat="44.96781" lon="5.41444">
        <ele>891</ele>
        <time>2019-06-15T07:00:15.000Z</time>
      </trkpt>
      <trkpt lat="44.96781" lon="5.41441">
        <ele>891</ele>
        <time>2019-06-15T07:00:16.000Z</time>
      </trkpt>
      <trkpt lat="44.96782" lon="5.41437">
        <ele>891</ele>
        <time>2019-06-15T07:00:17.000Z</time>
      </trkpt>
      <trkpt lat="44.96783" lon="5.41434">
        <ele>891</ele>
        <time>2019-06-15T07:00:18.000Z</time>
      </trkpt>
      <trkpt lat="44.96785" lon="5.41429">
        <ele>891</ele>
        <time>2019-06-15T07:00:19.000Z</time>
      </trkpt>
      <trkpt lat="44.96788" lon="5.41425">
        <ele>889</ele>
        <time>2019-06-15T07:00:20.000Z</time>
      </trkpt>
      <trkpt lat="44.96791" lon="5.4142">
        <ele>889</ele>
        <time>2019-06-15T07:00:21.000Z</time>
      </trkpt>
      <trkpt lat="44.96793" lon="5.41416">
        <ele>888</ele>
        <time>2019-06-15T07:00:22.000Z</time>
      </trkpt>
      <trkpt lat="44.96794" lon="5.41412">
        <ele>887</ele>
        <time>2019-06-15T07:00:23.000Z</time>
      </trkpt>
      <trkpt lat="44.96796" lon="5.41407">
        <ele>887</ele>
        <time>2019-06-15T07:00:24.000Z</time>
      </trkpt>
      <trkpt lat="44.96797" lon="5.41403">
        <ele>886</ele>
        <time>2019-06-15T07:00:25.000Z</time>
      </trkpt>
      <trkpt lat="44.96798" lon="5.41398">
        <ele>886</ele>
        <time>2019-06-15T07:00:26.000Z</time>
      </trkpt>
      <trkpt lat="44.96799" lon="5.41394">
        <ele>886</ele>
        <time>2019-06-15T07:00:27.000Z</time>
      </trkpt>
      <trkpt lat="44.96801" lon="5.41389">
        <ele>886</ele>
        <time>2019-06-15T07:00:28.000Z</time>
      </trkpt>
      <trkpt lat="44.96802" lon="5.41385">
        <ele>886</ele>
        <time>2019-06-15T07:00:29.000Z</time>
      </trkpt>
      <trkpt lat="44.96803" lon="5.4138">
        <ele>887</ele>
        <time>2019-06-15T07:00:30.000Z</time>
      </trkpt>
      <trkpt lat="44.96804" lon="5.41376">
        <ele>887</ele>
        <time>2019-06-15T07:00:31.000Z</time>
      </trkpt>
      <trkpt lat="44.96805" lon="5.41371">
        <ele>887</ele>
        <time>2019-06-15T07:00:32.000Z</time>
      </trkpt>
      <trkpt lat="44.96806" lon="5.41367">
        <ele>887</ele>
        <time>2019-06-15T07:00:33.000Z</time>
      </trkpt>
      <trkpt lat="44.96807" lon="5.41362">
        <ele>887</ele>
        <time>2019-06-15T07:00:34.000Z</time>
      </trkpt>
      <trkpt lat="44.96808" lon="5.41357">
        <ele>887</ele>
        <time>2019-06-15T07:00:35.000Z</time>
      </trkpt>
      <trkpt lat="44.9681" lon="5.41353">
        <ele>887</ele>
        <time>2019-06-15T07:00:36.000Z</time>
      </trkpt>
      <trkpt lat="44.96811" lon="5.41348">
        <ele>887</ele>
        <time>2019-06-15T07:00:37.000Z</time>
      </trkpt>
      <trkpt lat="44.96813" lon="5.41344">
        <ele>887</ele>
        <time>2019-06-15T07:00:38.000Z</time>
      </trkpt>
      <trkpt lat="44.96814" lon="5.41339">
        <ele>887</ele>
        <time>2019-06-15T07:00:39.000Z</time>
      </trkpt>
      <trkpt lat="44.96815" lon="5.41334">
        <ele>887</ele>
        <time>2019-06-15T07:00:40.000Z</time>
      </trkpt>
      <trkpt lat="44.96815" lon="5.41329">
        <ele>887</ele>
        <time>2019-06-15T07:00:41.000Z</time>
      </trkpt>
      <trkpt lat="44.96816" lon="5.41324">
        <ele>887</ele>
        <time>2019-06-15T07:00:42.000Z</time>
      </trkpt>
      <trkpt lat="44.96817" lon="5.41319">
        <ele>887</ele>
        <time>2019-06-15T07:00:43.000Z</time>
      </trkpt>
      <trkpt lat="44.96817" lon="5.41314">
        <ele>887</ele>
        <time>2019-06-15T07:00:44.000Z</time>
      </trkpt>
      <trkpt lat="44.96817" lon="5.4131">
        <ele>888</ele>
        <time>2019-06-15T07:00:45.000Z</time>
      </trkpt>
      <trkpt lat="44.96816" lon="5.41306">
        <ele>887</ele>
        <time>2019-06-15T07:00:46.000Z</time>
      </trkpt>
      <trkpt lat="44.96815" lon="5.41302">
        <ele>885</ele>
        <time>2019-06-15T07:00:47.000Z</time>
      </trkpt>
      <trkpt lat="44.96813" lon="5.41298">
        <ele>885</ele>
        <time>2019-06-15T07:00:48.000Z</time>
      </trkpt>
      <trkpt lat="44.96812" lon="5.41294">
        <ele>885</ele>
        <time>2019-06-15T07:00:49.000Z</time>
      </trkpt>
      <trkpt lat="44.96811" lon="5.41291">
        <ele>885</ele>
        <time>2019-06-15T07:00:50.000Z</time>
      </trkpt>
      <trkpt lat="44.9681" lon="5.41287">
        <ele>884</ele>
        <time>2019-06-15T07:00:51.000Z</time>
      </trkpt>
      <trkpt lat="44.96809" lon="5.41284">
        <ele>884</ele>
        <time>2019-06-15T07:00:52.000Z</time>
      </trkpt>
      <trkpt lat="44.96807" lon="5.4128">
        <ele>883</ele>
        <time>2019-06-15T07:00:53.000Z</time>
      </trkpt>
      <trkpt lat="44.96806" lon="5.41277">
        <ele>883</ele>
        <time>2019-06-15T07:00:54.000Z</time>
      </trkpt>
      <trkpt lat="44.96804" lon="5.41273">
        <ele>882</ele>
        <time>2019-06-15T07:00:55.000Z</time>
      </trkpt>
      <trkpt lat="44.96803" lon="5.41269">
        <ele>882</ele>
        <time>2019-06-15T07:00:56.000Z</time>
      </trkpt>
      <trkpt lat="44.96802" lon="5.41265">
        <ele>880</ele>
        <time>2019-06-15T07:00:57.000Z</time>
      </trkpt>
      <trkpt lat="44.96801" lon="5.41262">
        <ele>879</ele>
        <time>2019-06-15T07:00:58.000Z</time>
      </trkpt>
      <trkpt lat="44.96801" lon="5.41258">
        <ele>877</ele>
        <time>2019-06-15T07:00:59.000Z</time>
      </trkpt>
      <trkpt lat="44.968" lon="5.41254">
        <ele>877</ele>
        <time>2019-06-15T07:01:00.000Z</time>
      </trkpt>
      <trkpt lat="44.96798" lon="5.41251">
        <ele>877</ele>
        <time>2019-06-15T07:01:01.000Z</time>
      </trkpt>
      <trkpt lat="44.96797" lon="5.41246">
        <ele>878</ele>
        <time>2019-06-15T07:01:02.000Z</time>
      </trkpt>
      <trkpt lat="44.96795" lon="5.41242">
        <ele>878</ele>
        <time>2019-06-15T07:01:03.000Z</time>
      </trkpt>
      <trkpt lat="44.96794" lon="5.41237">
        <ele>878</ele>
        <time>2019-06-15T07:01:04.000Z</time>
      </trkpt>
      <trkpt lat="44.96792" lon="5.41233">
        <ele>877</ele>
        <time>2019-06-15T07:01:05.000Z</time>
      </trkpt>
      <trkpt lat="44.96789" lon="5.41229">
        <ele>877</ele>
        <time>2019-06-15T07:01:06.000Z</time>
      </trkpt>
      <trkpt lat="44.96787" lon="5.41226">
        <ele>877</ele>
        <time>2019-06-15T07:01:07.000Z</time>
      </trkpt>
      <trkpt lat="44.96785" lon="5.41222">
        <ele>877</ele>
        <time>2019-06-15T07:01:08.000Z</time>
      </trkpt>
      <trkpt lat="44.96783" lon="5.4122">
        <ele>876</ele>
        <time>2019-06-15T07:01:09.000Z</time>
      </trkpt>
      <trkpt lat="44.9678" lon="5.41217">
        <ele>876</ele>
        <time>2019-06-15T07:01:10.000Z</time>
      </trkpt>
      <trkpt lat="44.96778" lon="5.41215">
        <ele>877</ele>
        <time>2019-06-15T07:01:11.000Z</time>
      </trkpt>
      <trkpt lat="44.96776" lon="5.41212">
        <ele>876</ele>
        <time>2019-06-15T07:01:12.000Z</time>
      </trkpt>
      <trkpt lat="44.96774" lon="5.41209">
        <ele>876</ele>
        <time>2019-06-15T07:01:13.000Z</time>
      </trkpt>
      <trkpt lat="44.96773" lon="5.41206">
        <ele>875</ele>
        <time>2019-06-15T07:01:14.000Z</time>
      </trkpt>
      <trkpt lat="44.96772" lon="5.41203">
        <ele>875</ele>
        <time>2019-06-15T07:01:15.000Z</time>
      </trkpt>
      <trkpt lat="44.96771" lon="5.41199">
        <ele>874</ele>
        <time>2019-06-15T07:01:16.000Z</time>
      </trkpt>
      <trkpt lat="44.96771" lon="5.41195">
        <ele>874</ele>
        <time>2019-06-15T07:01:17.000Z</time>
      </trkpt>
      <trkpt lat="44.96772" lon="5.4119">
        <ele>873</ele>
        <time>2019-06-15T07:01:18.000Z</time>
      </trkpt>
      <trkpt lat="44.96772" lon="5.41186">
        <ele>872</ele>
        <time>2019-06-15T07:01:19.000Z</time>
      </trkpt>
      <trkpt lat="44.96773" lon="5.41183">
        <ele>872</ele>
        <time>2019-06-15T07:01:20.000Z</time>
      </trkpt>
      <trkpt lat="44.96774" lon="5.41179">
        <ele>872</ele>
        <time>2019-06-15T07:01:21.000Z</time>
      </trkpt>
      <trkpt lat="44.96775" lon="5.41176">
        <ele>872</ele>
        <time>2019-06-15T07:01:22.000Z</time>
      </trkpt>
      <trkpt lat="44.96776" lon="5.41173">
        <ele>872</ele>
        <time>2019-06-15T07:01:23.000Z</time>
      </trkpt>
      <trkpt lat="44.96777" lon="5.4117">
        <ele>872</ele>
        <time>2019-06-15T07:01:24.000Z</time>
      </trkpt>
      <trkpt lat="44.96778" lon="5.41167">
        <ele>872</ele>
        <time>2019-06-15T07:01:25.000Z</time>
      </trkpt>
      <trkpt lat="44.96779" lon="5.41163">
        <ele>872</ele>
        <time>2019-06-15T07:01:26.000Z</time>
      </trkpt>
      <trkpt lat="44.96779" lon="5.41161">
        <ele>872</ele>
        <time>2019-06-15T07:01:27.000Z</time>
      </trkpt>
      <trkpt lat="44.9678" lon="5.41158">
        <ele>872</ele>
        <time>2019-06-15T07:01:28.000Z</time>
      </trkpt>
      <trkpt lat="44.9678" lon="5.41157">
        <ele>872</ele>
        <time>2019-06-15T07:01:29.000Z</time>
      </trkpt>
      <trkpt lat="44.96781" lon="5.41155">
        <ele>872</ele>
        <time>2019-06-15T07:01:30.000Z</time>
      </trkpt>
      <trkpt lat="44.96781" lon="5.41153">
        <ele>872</ele>
        <time>2019-06-15T07:01:31.000Z</time>
      </trkpt>
      <trkpt lat="44.96782" lon="5.41151">
        <ele>872</ele>
        <time>2019-06-15T07:01:32.000Z</time>
      </trkpt>
      <trkpt lat="44.96782" lon="5.41149">
        <ele>872</ele>
        <time>2019-06-15T07:01:33.000Z</time>
      </trkpt>
      <trkpt lat="44.96782" lon="5.41146">
        <ele>872</ele>
        <time>2019-06-15T07:01:34.000Z</time>
      </trkpt>
      <trkpt lat="44.96783" lon="5.41144">
        <ele>872</ele>
        <time>2019-06-15T07:01:35.000Z</time>
      </trkpt>
      <trkpt lat="44.96784" lon="5.41141">
        <ele>873</ele>
        <time>2019-06-15T07:01:36.000Z</time>
      </trkpt>
      <trkpt lat="44.96785" lon="5.41139">
        <ele>874</ele>
        <time>2019-06-15T07:01:37.000Z</time>
      </trkpt>
      <trkpt lat="44.96786" lon="5.41136">
        <ele>874</ele>
        <time>2019-06-15T07:01:38.000Z</time>
      </trkpt>
      <trkpt lat="44.96786" lon="5.41133">
        <ele>874</ele>
        <time>2019-06-15T07:01:39.000Z</time>
      </trkpt>
      <trkpt lat="44.96787" lon="5.41131">
        <ele>874</ele>
        <time>2019-06-15T07:01:40.000Z</time>
      </trkpt>
      <trkpt lat="44.96788" lon="5.41129">
        <ele>874</ele>
        <time>2019-06-15T07:01:41.000Z</time>
      </trkpt>
      <trkpt lat="44.96788" lon="5.41128">
        <ele>874</ele>
        <time>2019-06-15T07:01:42.000Z</time>
      </trkpt>
      <trkpt lat="44.96788" lon="5.41127">
        <ele>874</ele>
        <time>2019-06-15T07:01:43.000Z</time>
      </trkpt>
      <trkpt lat="44.96788" lon="5.41126">
        <ele>874</ele>
        <time>2019-06-15T07:01:44.000Z</time>
      </trkpt>
      <trkpt lat="44.96789" lon="5.41124">
        <ele>874</ele>
        <time>2019-06-15T07:01:45.000Z</time>
      </trkpt>
      <trkpt lat="44.96789" lon="5.41122">
        <ele>874</ele>
        <time>2019-06-15T07:01:46.000Z</time>
      </trkpt>
      <trkpt lat="44.96789" lon="5.4112">
        <ele>875</ele>
        <time>2019-06-15T07:01:47.000Z</time>
      </trkpt>
      <trkpt lat="44.9679" lon="5.41117">
        <ele>875</ele>
        <time>2019-06-15T07:01:48.000Z</time>
      </trkpt>
      <trkpt lat="44.9679" lon="5.41114">
        <ele>874</ele>
        <time>2019-06-15T07:01:49.000Z</time>
      </trkpt>
      <trkpt lat="44.96791" lon="5.41111">
        <ele>874</ele>
        <time>2019-06-15T07:01:50.000Z</time>
      </trkpt>
      <trkpt lat="44.96791" lon="5.41107">
        <ele>874</ele>
        <time>2019-06-15T07:01:51.000Z</time>
      </trkpt>
      <trkpt lat="44.96792" lon="5.41103">
        <ele>874</ele>
        <time>2019-06-15T07:01:52.000Z</time>
      </trkpt>
      <trkpt lat="44.96793" lon="5.41098">
        <ele>875</ele>
        <time>2019-06-15T07:01:53.000Z</time>
      </trkpt>
      <trkpt lat="44.96793" lon="5.41093">
        <ele>875</ele>
        <time>2019-06-15T07:01:54.000Z</time>
      </trkpt>
      <trkpt lat="44.96794" lon="5.41089">
        <ele>875</ele>
        <time>2019-06-15T07:01:55.000Z</time>
      </trkpt>
      <trkpt lat="44.96795" lon="5.41085">
        <ele>875</ele>
        <time>2019-06-15T07:01:56.000Z</time>
      </trkpt>
      <trkpt lat="44.96796" lon="5.4108">
        <ele>875</ele>
        <time>2019-06-15T07:01:57.000Z</time>
      </trkpt>
      <trkpt lat="44.96797" lon="5.41076">
        <ele>875</ele>
        <time>2019-06-15T07:01:58.000Z</time>
      </trkpt>
      <trkpt lat="44.96798" lon="5.41072">
        <ele>875</ele>
        <time>2019-06-15T07:01:59.000Z</time>
      </trkpt>
      <trkpt lat="44.96799" lon="5.41068">
        <ele>875</ele>
        <time>2019-06-15T07:02:00.000Z</time>
      </trkpt>
      <trkpt lat="44.96799" lon="5.41063">
        <ele>876</ele>
        <time>2019-06-15T07:02:01.000Z</time>
      </trkpt>
      <trkpt lat="44.968" lon="5.41059">
        <ele>876</ele>
        <time>2019-06-15T07:02:02.000Z</time>
      </trkpt>
      <trkpt lat="44.968" lon="5.41055">
        <ele>877</ele>
        <time>2019-06-15T07:02:03.000Z</time>
      </trkpt>
      <trkpt lat="44.968" lon="5.41051">
        <ele>876</ele>
        <time>2019-06-15T07:02:04.000Z</time>
      </trkpt>
      <trkpt lat="44.968" lon="5.41047">
        <ele>877</ele>
        <time>2019-06-15T07:02:05.000Z</time>
      </trkpt>
      <trkpt lat="44.96799" lon="5.41044">
        <ele>877</ele>
        <time>2019-06-15T07:02:06.000Z</time>
      </trkpt>
      <trkpt lat="44.96799" lon="5.4104">
        <ele>877</ele>
        <time>2019-06-15T07:02:07.000Z</time>
      </trkpt>
      <trkpt lat="44.96799" lon="5.41037">
        <ele>877</ele>
        <time>2019-06-15T07:02:08.000Z</time>
      </trkpt>
      <trkpt lat="44.96798" lon="5.41033">
        <ele>877</ele>
        <time>2019-06-15T07:02:09.000Z</time>
      </trkpt>
      <trkpt lat="44.96798" lon="5.4103">
        <ele>876</ele>
        <time>2019-06-15T07:02:10.000Z</time>
      </trkpt>
      <trkpt lat="44.96797" lon="5.41027">
        <ele>877</ele>
        <time>2019-06-15T07:02:11.000Z</time>
      </trkpt>
      <trkpt lat="44.96796" lon="5.41024">
        <ele>877</ele>
        <time>2019-06-15T07:02:12.000Z</time>
      </trkpt>
      <trkpt lat="44.96796" lon="5.41021">
        <ele>878</ele>
        <time>2019-06-15T07:02:13.000Z</time>
      </trkpt>
      <trkpt lat="44.96795" lon="5.41018">
        <ele>878</ele>
        <time>2019-06-15T07:02:14.000Z</time>
      </trkpt>
      <trkpt lat="44.96794" lon="5.41015">
        <ele>879</ele>
        <time>2019-06-15T07:02:15.000Z</time>
      </trkpt>
      <trkpt lat="44.96793" lon="5.41012">
        <ele>879</ele>
        <time>2019-06-15T07:02:16.000Z</time>
      </trkpt>
      <trkpt lat="44.96792" lon="5.41009">
        <ele>880</ele>
        <time>2019-06-15T07:02:17.000Z</time>
      </trkpt>
      <trkpt lat="44.96792" lon="5.41006">
        <ele>879</ele>
        <time>2019-06-15T07:02:18.000Z</time>
      </trkpt>
      <trkpt lat="44.96791" lon="5.41003">
        <ele>879</ele>
        <time>2019-06-15T07:02:19.000Z</time>
      </trkpt>
      <trkpt lat="44.96791" lon="5.41">
        <ele>879</ele>
        <time>2019-06-15T07:02:20.000Z</time>
      </trkpt>
      <trkpt lat="44.9679" lon="5.40998">
        <ele>880</ele>
        <time>2019-06-15T07:02:21.000Z</time>
      </trkpt>
      <trkpt lat="44.96789" lon="5.40995">
        <ele>880</ele>
        <time>2019-06-15T07:02:22.000Z</time>
      </trkpt>
      <trkpt lat="44.96788" lon="5.40993">
        <ele>880</ele>
        <time>2019-06-15T07:02:23.000Z</time>
      </trkpt>
      <trkpt lat="44.96788" lon="5.4099">
        <ele>881</ele>
        <time>2019-06-15T07:02:24.000Z</time>
      </trkpt>
      <trkpt lat="44.96787" lon="5.40987">
        <ele>881</ele>
        <time>2019-06-15T07:02:25.000Z</time>
      </trkpt>
      <trkpt lat="44.96787" lon="5.40984">
        <ele>880</ele>
        <time>2019-06-15T07:02:26.000Z</time>
      </trkpt>
      <trkpt lat="44.96786" lon="5.40981">
        <ele>880</ele>
        <time>2019-06-15T07:02:27.000Z</time>
      </trkpt>
      <trkpt lat="44.96786" lon="5.40978">
        <ele>880</ele>
        <time>2019-06-15T07:02:28.000Z</time>
      </trkpt>
      <trkpt lat="44.96786" lon="5.40975">
        <ele>880</ele>
        <time>2019-06-15T07:02:29.000Z</time>
      </trkpt>
      <trkpt lat="44.96786" lon="5.40972">
        <ele>879</ele>
        <time>2019-06-15T07:02:30.000Z</time>
      </trkpt>
      <trkpt lat="44.96785" lon="5.40969">
        <ele>879</ele>
        <time>2019-06-15T07:02:31.000Z</time>
      </trkpt>
      <trkpt lat="44.96786" lon="5.40965">
        <ele>879</ele>
        <time>2019-06-15T07:02:32.000Z</time>
      </trkpt>
      <trkpt lat="44.96786" lon="5.40962">
        <ele>878</ele>
        <time>2019-06-15T07:02:33.000Z</time>
      </trkpt>
      <trkpt lat="44.96787" lon="5.40959">
        <ele>878</ele>
        <time>2019-06-15T07:02:34.000Z</time>
      </trkpt>
      <trkpt lat="44.96788" lon="5.40956">
        <ele>878</ele>
        <time>2019-06-15T07:02:35.000Z</time>
      </trkpt>
      <trkpt lat="44.96789" lon="5.40953">
        <ele>878</ele>
        <time>2019-06-15T07:02:36.000Z</time>
      </trkpt>
      <trkpt lat="44.9679" lon="5.4095">
        <ele>878</ele>
        <time>2019-06-15T07:02:37.000Z</time>
      </trkpt>
      <trkpt lat="44.96791" lon="5.40947">
        <ele>878</ele>
        <time>2019-06-15T07:02:38.000Z</time>
      </trkpt>
      <trkpt lat="44.96793" lon="5.40944">
        <ele>878</ele>
        <time>2019-06-15T07:02:39.000Z</time>
      </trkpt>
      <trkpt lat="44.96794" lon="5.4094">
        <ele>879</ele>
        <time>2019-06-15T07:02:40.000Z</time>
      </trkpt>
      <trkpt lat="44.96794" lon="5.40937">
        <ele>879</ele>
        <time>2019-06-15T07:02:41.000Z</time>
      </trkpt>
      <trkpt lat="44.96795" lon="5.40933">
        <ele>878</ele>
        <time>2019-06-15T07:02:42.000Z</time>
      </trkpt>
      <trkpt lat="44.96796" lon="5.40929">
        <ele>878</ele>
        <time>2019-06-15T07:02:43.000Z</time>
      </trkpt>
      <trkpt lat="44.96797" lon="5.40926">
        <ele>878</ele>
        <time>2019-06-15T07:02:44.000Z</time>
      </trkpt>
      <trkpt lat="44.96798" lon="5.40923">
        <ele>878</ele>
        <time>2019-06-15T07:02:45.000Z</time>
      </trkpt>
      <trkpt lat="44.96798" lon="5.4092">
        <ele>879</ele>
        <time>2019-06-15T07:02:46.000Z</time>
      </trkpt>
      <trkpt lat="44.96798" lon="5.40917">
        <ele>878</ele>
        <time>2019-06-15T07:02:47.000Z</time>
      </trkpt>
      <trkpt lat="44.96798" lon="5.40915">
        <ele>878</ele>
        <time>2019-06-15T07:02:48.000Z</time>
      </trkpt>
      <trkpt lat="44.96799" lon="5.40912">
        <ele>879</ele>
        <time>2019-06-15T07:02:49.000Z</time>
      </trkpt>
      <trkpt lat="44.96799" lon="5.40909">
        <ele>879</ele>
        <time>2019-06-15T07:02:50.000Z</time>
      </trkpt>
      <trkpt lat="44.96799" lon="5.40907">
        <ele>878</ele>
        <time>2019-06-15T07:02:51.000Z</time>
      </trkpt>
      <trkpt lat="44.968" lon="5.40905">
        <ele>878</ele>
        <time>2019-06-15T07:02:52.000Z</time>
      </trkpt>
      <trkpt lat="44.96801" lon="5.40903">
        <ele>878</ele>
        <time>2019-06-15T07:02:53.000Z</time>
      </trkpt>
      <trkpt lat="44.96801" lon="5.409">
        <ele>878</ele>
        <time>2019-06-15T07:02:54.000Z</time>
      </trkpt>
      <trkpt lat="44.96802" lon="5.40897">
        <ele>878</ele>
        <time>2019-06-15T07:02:55.000Z</time>
      </trkpt>
      <trkpt lat="44.96802" lon="5.40895">
        <ele>878</ele>
        <time>2019-06-15T07:02:56.000Z</time>
      </trkpt>
      <trkpt lat="44.96803" lon="5.40892">
        <ele>877</ele>
        <time>2019-06-15T07:02:57.000Z</time>
      </trkpt>
      <trkpt lat="44.96803" lon="5.4089">
        <ele>878</ele>
        <time>2019-06-15T07:02:58.000Z</time>
      </trkpt>
      <trkpt lat="44.96803" lon="5.40887">
        <ele>877</ele>
        <time>2019-06-15T07:02:59.000Z</time>
      </trkpt>
      <trkpt lat="44.96803" lon="5.40883">
        <ele>878</ele>
        <time>2019-06-15T07:03:00.000Z</time>
      </trkpt>
      <trkpt lat="44.96803" lon="5.4088">
        <ele>877</ele>
        <time>2019-06-15T07:03:01.000Z</time>
      </trkpt>
      <trkpt lat="44.96804" lon="5.40876">
        <ele>877</ele>
        <time>2019-06-15T07:03:02.000Z</time>
      </trkpt>
      <trkpt lat="44.96804" lon="5.40874">
        <ele>877</ele>
        <time>2019-06-15T07:03:03.000Z</time>
      </trkpt>
      <trkpt lat="44.96804" lon="5.40871">
        <ele>877</ele>
        <time>2019-06-15T07:03:04.000Z</time>
      </trkpt>
      <trkpt lat="44.96804" lon="5.40869">
        <ele>877</ele>
        <time>2019-06-15T07:03:05.000Z</time>
      </trkpt>
      <trkpt lat="44.96804" lon="5.40867">
        <ele>877</ele>
        <time>2019-06-15T07:03:06.000Z</time>
      </trkpt>
      <trkpt lat="44.96804" lon="5.40866">
        <ele>877</ele>
        <time>2019-06-15T07:03:07.000Z</time>
      </trkpt>
      <trkpt lat="44.96804" lon="5.40864">
        <ele>876</ele>
        <time>2019-06-15T07:03:08.000Z</time>
      </trkpt>
      <trkpt lat="44.96805" lon="5.40862">
        <ele>876</ele>
        <time>2019-06-15T07:03:09.000Z</time>
      </trkpt>
      <trkpt lat="44.96805" lon="5.4086">
        <ele>877</ele>
        <time>2019-06-15T07:03:10.000Z</time>
      </trkpt>
      <trkpt lat="44.96805" lon="5.40859">
        <ele>876</ele>
        <time>2019-06-15T07:03:11.000Z</time>
      </trkpt>
      <trkpt lat="44.96805" lon="5.40857">
        <ele>876</ele>
        <time>2019-06-15T07:03:12.000Z</time>
      </trkpt>
      <trkpt lat="44.96806" lon="5.40855">
        <ele>876</ele>
        <time>2019-06-15T07:03:13.000Z</time>
      </trkpt>
      <trkpt lat="44.96806" lon="5.40854">
        <ele>876</ele>
        <time>2019-06-15T07:03:14.000Z</time>
      </trkpt>
      <trkpt lat="44.96806" lon="5.40852">
        <ele>876</ele>
        <time>2019-06-15T07:03:15.000Z</time>
      </trkpt>
      <trkpt lat="44.96807" lon="5.4085">
        <ele>876</ele>
        <time>2019-06-15T07:03:16.000Z</time>
      </trkpt>
      <trkpt lat="44.96807" lon="5.40848">
        <ele>875</ele>
        <time>2019-06-15T07:03:17.000Z</time>
      </trkpt>
      <trkpt lat="44.96808" lon="5.40846">
        <ele>875</ele>
        <time>2019-06-15T07:03:18.000Z</time>
      </trkpt>
      <trkpt lat="44.96808" lon="5.40844">
        <ele>874</ele>
        <time>2019-06-15T07:03:19.000Z</time>
      </trkpt>
      <trkpt lat="44.96808" lon="5.40842">
        <ele>874</ele>
        <time>2019-06-15T07:03:20.000Z</time>
      </trkpt>
      <trkpt lat="44.96809" lon="5.4084">
        <ele>873</ele>
        <time>2019-06-15T07:03:21.000Z</time>
      </trkpt>
      <trkpt lat="44.96809" lon="5.40839">
        <ele>873</ele>
        <time>2019-06-15T07:03:22.000Z</time>
      </trkpt>
      <trkpt lat="44.9681" lon="5.40837">
        <ele>872</ele>
        <time>2019-06-15T07:03:23.000Z</time>
      </trkpt>
      <trkpt lat="44.9681" lon="5.40835">
        <ele>872</ele>
        <time>2019-06-15T07:03:24.000Z</time>
      </trkpt>
      <trkpt lat="44.96811" lon="5.40834">
        <ele>871</ele>
        <time>2019-06-15T07:03:25.000Z</time>
      </trkpt>
      <trkpt lat="44.96811" lon="5.40832">
        <ele>871</ele>
        <time>2019-06-15T07:03:26.000Z</time>
      </trkpt>
      <trkpt lat="44.96812" lon="5.4083">
        <ele>870</ele>
        <time>2019-06-15T07:03:27.000Z</time>
      </trkpt>
      <trkpt lat="44.96812" lon="5.40828">
        <ele>870</ele>
        <time>2019-06-15T07:03:28.000Z</time>
      </trkpt>
      <trkpt lat="44.96813" lon="5.40826">
        <ele>869</ele>
        <time>2019-06-15T07:03:29.000Z</time>
      </trkpt>
      <trkpt lat="44.96814" lon="5.40824">
        <ele>868</ele>
        <time>2019-06-15T07:03:30.000Z</time>
      </trkpt>
      <trkpt lat="44.96814" lon="5.40821">
        <ele>867</ele>
        <time>2019-06-15T07:03:31.000Z</time>
      </trkpt>
      <trkpt lat="44.96814" lon="5.40819">
        <ele>866</ele>
        <time>2019-06-15T07:03:32.000Z</time>
      </trkpt>
      <trkpt lat="44.96813" lon="5.40816">
        <ele>866</ele>
        <time>2019-06-15T07:03:33.000Z</time>
      </trkpt>
      <trkpt lat="44.96813" lon="5.40812">
        <ele>866</ele>
        <time>2019-06-15T07:03:34.000Z</time>
      </trkpt>
      <trkpt lat="44.96812" lon="5.40809">
        <ele>866</ele>
        <time>2019-06-15T07:03:35.000Z</time>
      </trkpt>
      <trkpt lat="44.9681" lon="5.40806">
        <ele>864</ele>
        <time>2019-06-15T07:03:36.000Z</time>
      </trkpt>
      <trkpt lat="44.96809" lon="5.40803">
        <ele>864</ele>
        <time>2019-06-15T07:03:37.000Z</time>
      </trkpt>
      <trkpt lat="44.96807" lon="5.40801">
        <ele>863</ele>
        <time>2019-06-15T07:03:38.000Z</time>
      </trkpt>
      <trkpt lat="44.96805" lon="5.40799">
        <ele>863</ele>
        <time>2019-06-15T07:03:39.000Z</time>
      </trkpt>
      <trkpt lat="44.96803" lon="5.40797">
        <ele>862</ele>
        <time>2019-06-15T07:03:40.000Z</time>
      </trkpt>
      <trkpt lat="44.968" lon="5.40795">
        <ele>862</ele>
        <time>2019-06-15T07:03:41.000Z</time>
      </trkpt>
      <trkpt lat="44.96798" lon="5.40792">
        <ele>862</ele>
        <time>2019-06-15T07:03:42.000Z</time>
      </trkpt>
      <trkpt lat="44.96796" lon="5.4079">
        <ele>862</ele>
        <time>2019-06-15T07:03:43.000Z</time>
      </trkpt>
      <trkpt lat="44.96794" lon="5.40787">
        <ele>862</ele>
        <time>2019-06-15T07:03:44.000Z</time>
      </trkpt>
      <trkpt lat="44.96792" lon="5.40786">
        <ele>861</ele>
        <time>2019-06-15T07:03:45.000Z</time>
      </trkpt>
      <trkpt lat="44.9679" lon="5.40784">
        <ele>861</ele>
        <time>2019-06-15T07:03:46.000Z</time>
      </trkpt>
      <trkpt lat="44.96788" lon="5.40783">
        <ele>862</ele>
        <time>2019-06-15T07:03:47.000Z</time>
      </trkpt>
      <trkpt lat="44.96785" lon="5.40781">
        <ele>863</ele>
        <time>2019-06-15T07:03:48.000Z</time>
      </trkpt>
      <trkpt lat="44.96783" lon="5.40779">
        <ele>863</ele>
        <time>2019-06-15T07:03:49.000Z</time>
      </trkpt>
      <trkpt lat="44.96781" lon="5.40778">
        <ele>862</ele>
        <time>2019-06-15T07:03:50.000Z</time>
      </trkpt>
      <trkpt lat="44.96779" lon="5.40776">
        <ele>862</ele>
        <time>2019-06-15T07:03:51.000Z</time>
      </trkpt>
      <trkpt lat="44.96777" lon="5.40775">
        <ele>862</ele>
        <time>2019-06-15T07:03:52.000Z</time>
      </trkpt>
      <trkpt lat="44.96774" lon="5.40773">
        <ele>862</ele>
        <time>2019-06-15T07:03:53.000Z</time>
      </trkpt>
      <trkpt lat="44.96772" lon="5.40771">
        <ele>861</ele>
        <time>2019-06-15T07:03:54.000Z</time>
      </trkpt>
      <trkpt lat="44.9677" lon="5.4077">
        <ele>861</ele>
        <time>2019-06-15T07:03:55.000Z</time>
      </trkpt>
      <trkpt lat="44.96767" lon="5.40769">
        <ele>860</ele>
        <time>2019-06-15T07:03:56.000Z</time>
      </trkpt>
      <trkpt lat="44.96765" lon="5.40768">
        <ele>860</ele>
        <time>2019-06-15T07:03:57.000Z</time>
      </trkpt>
      <trkpt lat="44.96763" lon="5.40768">
        <ele>859</ele>
        <time>2019-06-15T07:03:58.000Z</time>
      </trkpt>
      <trkpt lat="44.96761" lon="5.40767">
        <ele>858</ele>
        <time>2019-06-15T07:03:59.000Z</time>
      </trkpt>
      <trkpt lat="44.96759" lon="5.40766">
        <ele>858</ele>
        <time>2019-06-15T07:04:00.000Z</time>
      </trkpt>
      <trkpt lat="44.96756" lon="5.40765">
        <ele>857</ele>
        <time>2019-06-15T07:04:01.000Z</time>
      </trkpt>
      <trkpt lat="44.96754" lon="5.40764">
        <ele>856</ele>
        <time>2019-06-15T07:04:02.000Z</time>
      </trkpt>
      <trkpt lat="44.96752" lon="5.40762">
        <ele>854</ele>
        <time>2019-06-15T07:04:03.000Z</time>
      </trkpt>
      <trkpt lat="44.96749" lon="5.4076">
        <ele>853</ele>
        <time>2019-06-15T07:04:04.000Z</time>
      </trkpt>
      <trkpt lat="44.96747" lon="5.40758">
        <ele>852</ele>
        <time>2019-06-15T07:04:05.000Z</time>
      </trkpt>
      <trkpt lat="44.96744" lon="5.40756">
        <ele>853</ele>
        <time>2019-06-15T07:04:06.000Z</time>
      </trkpt>
      <trkpt lat="44.9674" lon="5.40754">
        <ele>852</ele>
        <time>2019-06-15T07:04:07.000Z</time>
      </trkpt>
      <trkpt lat="44.96736" lon="5.40752">
        <ele>851</ele>
        <time>2019-06-15T07:04:08.000Z</time>
      </trkpt>
      <trkpt lat="44.96732" lon="5.4075">
        <ele>851</ele>
        <time>2019-06-15T07:04:09.000Z</time>
      </trkpt>
      <trkpt lat="44.96728" lon="5.40748">
        <ele>850</ele>
        <time>2019-06-15T07:04:10.000Z</time>
      </trkpt>
      <trkpt lat="44.96725" lon="5.40746">
        <ele>850</ele>
        <time>2019-06-15T07:04:11.000Z</time>
      </trkpt>
      <trkpt lat="44.96722" lon="5.40744">
        <ele>850</ele>
        <time>2019-06-15T07:04:12.000Z</time>
      </trkpt>
      <trkpt lat="44.96719" lon="5.40741">
        <ele>850</ele>
        <time>2019-06-15T07:04:13.000Z</time>
      </trkpt>
      <trkpt lat="44.96716" lon="5.40739">
        <ele>849</ele>
        <time>2019-06-15T07:04:14.000Z</time>
      </trkpt>
      <trkpt lat="44.96713" lon="5.40736">
        <ele>849</ele>
        <time>2019-06-15T07:04:15.000Z</time>
      </trkpt>
      <trkpt lat="44.9671" lon="5.40732">
        <ele>851</ele>
        <time>2019-06-15T07:04:16.000Z</time>
      </trkpt>
      <trkpt lat="44.96707" lon="5.40729">
        <ele>852</ele>
        <time>2019-06-15T07:04:17.000Z</time>
      </trkpt>
      <trkpt lat="44.96703" lon="5.40725">
        <ele>853</ele>
        <time>2019-06-15T07:04:18.000Z</time>
      </trkpt>
      <trkpt lat="44.967" lon="5.40721">
        <ele>852</ele>
        <time>2019-06-15T07:04:19.000Z</time>
      </trkpt>
      <trkpt lat="44.96697" lon="5.40717">
        <ele>852</ele>
        <time>2019-06-15T07:04:20.000Z</time>
      </trkpt>
      <trkpt lat="44.96694" lon="5.40712">
        <ele>853</ele>
        <time>2019-06-15T07:04:21.000Z</time>
      </trkpt>
      <trkpt lat="44.96691" lon="5.40708">
        <ele>852</ele>
        <time>2019-06-15T07:04:22.000Z</time>
      </trkpt>
      <trkpt lat="44.96688" lon="5.40703">
        <ele>853</ele>
        <time>2019-06-15T07:04:23.000Z</time>
      </trkpt>
      <trkpt lat="44.96685" lon="5.40699">
        <ele>852</ele>
        <time>2019-06-15T07:04:24.000Z</time>
      </trkpt>
      <trkpt lat="44.96682" lon="5.40694">
        <ele>852</ele>
        <time>2019-06-15T07:04:25.000Z</time>
      </trkpt>
      <trkpt lat="44.96679" lon="5.4069">
        <ele>853</ele>
        <time>2019-06-15T07:04:26.000Z</time>
      </trkpt>
      <trkpt lat="44.96676" lon="5.40687">
        <ele>853</ele>
        <time>2019-06-15T07:04:27.000Z</time>
      </trkpt>
      <trkpt lat="44.96673" lon="5.40684">
        <ele>852</ele>
        <time>2019-06-15T07:04:28.000Z</time>
      </trkpt>
      <trkpt lat="44.9667" lon="5.40681">
        <ele>852</ele>
        <time>2019-06-15T07:04:29.000Z</time>
      </trkpt>
      <trkpt lat="44.96667" lon="5.40679">
        <ele>851</ele>
        <time>2019-06-15T07:04:30.000Z</time>
      </trkpt>
      <trkpt lat="44.96664" lon="5.40676">
        <ele>851</ele>
        <time>2019-06-15T07:04:31.000Z</time>
      </trkpt>
      <trkpt lat="44.96661" lon="5.40674">
        <ele>851</ele>
        <time>2019-06-15T07:04:32.000Z</time>
      </trkpt>
      <trkpt lat="44.96657" lon="5.40671">
        <ele>851</ele>
        <time>2019-06-15T07:04:33.000Z</time>
      </trkpt>
      <trkpt lat="44.96654" lon="5.40669">
        <ele>850</ele>
        <time>2019-06-15T07:04:34.000Z</time>
      </trkpt>
      <trkpt lat="44.96651" lon="5.40667">
        <ele>850</ele>
        <time>2019-06-15T07:04:35.000Z</time>
      </trkpt>
      <trkpt lat="44.96648" lon="5.40664">
        <ele>849</ele>
        <time>2019-06-15T07:04:36.000Z</time>
      </trkpt>
      <trkpt lat="44.96645" lon="5.40662">
        <ele>849</ele>
        <time>2019-06-15T07:04:37.000Z</time>
      </trkpt>
      <trkpt lat="44.96642" lon="5.40659">
        <ele>849</ele>
        <time>2019-06-15T07:04:38.000Z</time>
      </trkpt>
      <trkpt lat="44.96639" lon="5.40657">
        <ele>850</ele>
        <time>2019-06-15T07:04:39.000Z</time>
      </trkpt>
      <trkpt lat="44.96636" lon="5.40655">
        <ele>849</ele>
        <time>2019-06-15T07:04:40.000Z</time>
      </trkpt>
      <trkpt lat="44.96633" lon="5.40652">
        <ele>849</ele>
        <time>2019-06-15T07:04:41.000Z</time>
      </trkpt>
      <trkpt lat="44.96631" lon="5.40649">
        <ele>847</ele>
        <time>2019-06-15T07:04:42.000Z</time>
      </trkpt>
      <trkpt lat="44.96629" lon="5.40645">
        <ele>846</ele>
        <time>2019-06-15T07:04:43.000Z</time>
      </trkpt>
      <trkpt lat="44.96629" lon="5.40641">
        <ele>845</ele>
        <time>2019-06-15T07:04:44.000Z</time>
      </trkpt>
      <trkpt lat="44.9663" lon="5.40637">
        <ele>843</ele>
        <time>2019-06-15T07:04:45.000Z</time>
      </trkpt>
      <trkpt lat="44.9663" lon="5.40632">
        <ele>842</ele>
        <time>2019-06-15T07:04:46.000Z</time>
      </trkpt>
      <trkpt lat="44.9663" lon="5.40628">
        <ele>841</ele>
        <time>2019-06-15T07:04:47.000Z</time>
      </trkpt>
      <trkpt lat="44.96631" lon="5.40623">
        <ele>841</ele>
        <time>2019-06-15T07:04:48.000Z</time>
      </trkpt>
      <trkpt lat="44.96631" lon="5.40617">
        <ele>841</ele>
        <time>2019-06-15T07:04:49.000Z</time>
      </trkpt>
      <trkpt lat="44.96631" lon="5.40612">
        <ele>842</ele>
        <time>2019-06-15T07:04:50.000Z</time>
      </trkpt>
      <trkpt lat="44.96632" lon="5.40606">
        <ele>842</ele>
        <time>2019-06-15T07:04:51.000Z</time>
      </trkpt>
      <trkpt lat="44.96632" lon="5.406">
        <ele>843</ele>
        <time>2019-06-15T07:04:52.000Z</time>
      </trkpt>
      <trkpt lat="44.96633" lon="5.40594">
        <ele>843</ele>
        <time>2019-06-15T07:04:53.000Z</time>
      </trkpt>
      <trkpt lat="44.96633" lon="5.40589">
        <ele>843</ele>
        <time>2019-06-15T07:04:54.000Z</time>
      </trkpt>
      <trkpt lat="44.96633" lon="5.40584">
        <ele>843</ele>
        <time>2019-06-15T07:04:55.000Z</time>
      </trkpt>
      <trkpt lat="44.96634" lon="5.40578">
        <ele>843</ele>
        <time>2019-06-15T07:04:56.000Z</time>
      </trkpt>
      <trkpt lat="44.96634" lon="5.40573">
        <ele>843</ele>
        <time>2019-06-15T07:04:57.000Z</time>
      </trkpt>
      <trkpt lat="44.96635" lon="5.40568">
        <ele>843</ele>
        <time>2019-06-15T07:04:58.000Z</time>
      </trkpt>
      <trkpt lat="44.96635" lon="5.40563">
        <ele>843</ele>
        <time>2019-06-15T07:04:59.000Z</time>
      </trkpt>
      <trkpt lat="44.96635" lon="5.40558">
        <ele>843</ele>
        <time>2019-06-15T07:05:00.000Z</time>
      </trkpt>
      <trkpt lat="44.96636" lon="5.40554">
        <ele>843</ele>
        <time>2019-06-15T07:05:01.000Z</time>
      </trkpt>
      <trkpt lat="44.96636" lon="5.40549">
        <ele>843</ele>
        <time>2019-06-15T07:05:02.000Z</time>
      </trkpt>
      <trkpt lat="44.96636" lon="5.40544">
        <ele>843</ele>
        <time>2019-06-15T07:05:03.000Z</time>
      </trkpt>
      <trkpt lat="44.96636" lon="5.40538">
        <ele>843</ele>
        <time>2019-06-15T07:05:04.000Z</time>
      </trkpt>
      <trkpt lat="44.96636" lon="5.40533">
        <ele>843</ele>
        <time>2019-06-15T07:05:05.000Z</time>
      </trkpt>
      <trkpt lat="44.96637" lon="5.40527">
        <ele>843</ele>
        <time>2019-06-15T07:05:06.000Z</time>
      </trkpt>
      <trkpt lat="44.96636" lon="5.40522">
        <ele>842</ele>
        <time>2019-06-15T07:05:07.000Z</time>
      </trkpt>
      <trkpt lat="44.96636" lon="5.40516">
        <ele>842</ele>
        <time>2019-06-15T07:05:08.000Z</time>
      </trkpt>
      <trkpt lat="44.96636" lon="5.4051">
        <ele>842</ele>
        <time>2019-06-15T07:05:09.000Z</time>
      </trkpt>
      <trkpt lat="44.96637" lon="5.40504">
        <ele>841</ele>
        <time>2019-06-15T07:05:10.000Z</time>
      </trkpt>
      <trkpt lat="44.96637" lon="5.40498">
        <ele>841</ele>
        <time>2019-06-15T07:05:11.000Z</time>
      </trkpt>
      <trkpt lat="44.96637" lon="5.40492">
        <ele>841</ele>
        <time>2019-06-15T07:05:12.000Z</time>
      </trkpt>
      <trkpt lat="44.96637" lon="5.40487">
        <ele>841</ele>
        <time>2019-06-15T07:05:13.000Z</time>
      </trkpt>
      <trkpt lat="44.96637" lon="5.40481">
        <ele>841</ele>
        <time>2019-06-15T07:05:14.000Z</time>
      </trkpt>
      <trkpt lat="44.96638" lon="5.40476">
        <ele>841</ele>
        <time>2019-06-15T07:05:15.000Z</time>
      </trkpt>
      <trkpt lat="44.96638" lon="5.40471">
        <ele>840</ele>
        <time>2019-06-15T07:05:16.000Z</time>
      </trkpt>
      <trkpt lat="44.96638" lon="5.40466">
        <ele>840</ele>
        <time>2019-06-15T07:05:17.000Z</time>
      </trkpt>
      <trkpt lat="44.96638" lon="5.40461">
        <ele>840</ele>
        <time>2019-06-15T07:05:18.000Z</time>
      </trkpt>
      <trkpt lat="44.96638" lon="5.40456">
        <ele>840</ele>
        <time>2019-06-15T07:05:19.000Z</time>
      </trkpt>
      <trkpt lat="44.96638" lon="5.40451">
        <ele>840</ele>
        <time>2019-06-15T07:05:20.000Z</time>
      </trkpt>
      <trkpt lat="44.96638" lon="5.40446">
        <ele>840</ele>
        <time>2019-06-15T07:05:21.000Z</time>
      </trkpt>
      <trkpt lat="44.96639" lon="5.40441">
        <ele>840</ele>
        <time>2019-06-15T07:05:22.000Z</time>
      </trkpt>
      <trkpt lat="44.96639" lon="5.40436">
        <ele>840</ele>
        <time>2019-06-15T07:05:23.000Z</time>
      </trkpt>
      <trkpt lat="44.96639" lon="5.40431">
        <ele>840</ele>
        <time>2019-06-15T07:05:24.000Z</time>
      </trkpt>
      <trkpt lat="44.96639" lon="5.40427">
        <ele>840</ele>
        <time>2019-06-15T07:05:25.000Z</time>
      </trkpt>
      <trkpt lat="44.9664" lon="5.40422">
        <ele>839</ele>
        <time>2019-06-15T07:05:26.000Z</time>
      </trkpt>
      <trkpt lat="44.9664" lon="5.40418">
        <ele>839</ele>
        <time>2019-06-15T07:05:27.000Z</time>
      </trkpt>
      <trkpt lat="44.9664" lon="5.40414">
        <ele>839</ele>
        <time>2019-06-15T07:05:28.000Z</time>
      </trkpt>
      <trkpt lat="44.9664" lon="5.4041">
        <ele>840</ele>
        <time>2019-06-15T07:05:29.000Z</time>
      </trkpt>
      <trkpt lat="44.9664" lon="5.40406">
        <ele>840</ele>
        <time>2019-06-15T07:05:30.000Z</time>
      </trkpt>
      <trkpt lat="44.9664" lon="5.40402">
        <ele>839</ele>
        <time>2019-06-15T07:05:31.000Z</time>
      </trkpt>
      <trkpt lat="44.9664" lon="5.40398">
        <ele>839</ele>
        <time>2019-06-15T07:05:32.000Z</time>
      </trkpt>
      <trkpt lat="44.9664" lon="5.40393">
        <ele>839</ele>
        <time>2019-06-15T07:05:33.000Z</time>
      </trkpt>
      <trkpt lat="44.9664" lon="5.40389">
        <ele>839</ele>
        <time>2019-06-15T07:05:34.000Z</time>
      </trkpt>
      <trkpt lat="44.9664" lon="5.40385">
        <ele>839</ele>
        <time>2019-06-15T07:05:35.000Z</time>
      </trkpt>
      <trkpt lat="44.9664" lon="5.40381">
        <ele>838</ele>
        <time>2019-06-15T07:05:36.000Z</time>
      </trkpt>
      <trkpt lat="44.9664" lon="5.40377">
        <ele>838</ele>
        <time>2019-06-15T07:05:37.000Z</time>
      </trkpt>
      <trkpt lat="44.96639" lon="5.40373">
        <ele>838</ele>
        <time>2019-06-15T07:05:38.000Z</time>
      </trkpt>
      <trkpt lat="44.96639" lon="5.40369">
        <ele>838</ele>
        <time>2019-06-15T07:05:39.000Z</time>
      </trkpt>
      <trkpt lat="44.96639" lon="5.40365">
        <ele>838</ele>
        <time>2019-06-15T07:05:40.000Z</time>
      </trkpt>
      <trkpt lat="44.9664" lon="5.40361">
        <ele>838</ele>
        <time>2019-06-15T07:05:41.000Z</time>
      </trkpt>
      <trkpt lat="44.9664" lon="5.40357">
        <ele>838</ele>
        <time>2019-06-15T07:05:42.000Z</time>
      </trkpt>
      <trkpt lat="44.9664" lon="5.40352">
        <ele>838</ele>
        <time>2019-06-15T07:05:43.000Z</time>
      </trkpt>
      <trkpt lat="44.9664" lon="5.40348">
        <ele>837</ele>
        <time>2019-06-15T07:05:44.000Z</time>
      </trkpt>
      <trkpt lat="44.96639" lon="5.40344">
        <ele>838</ele>
        <time>2019-06-15T07:05:45.000Z</time>
      </trkpt>
      <trkpt lat="44.96639" lon="5.40341">
        <ele>838</ele>
        <time>2019-06-15T07:05:46.000Z</time>
      </trkpt>
      <trkpt lat="44.96639" lon="5.40337">
        <ele>837</ele>
        <time>2019-06-15T07:05:47.000Z</time>
      </trkpt>
      <trkpt lat="44.9664" lon="5.40333">
        <ele>837</ele>
        <time>2019-06-15T07:05:48.000Z</time>
      </trkpt>
      <trkpt lat="44.9664" lon="5.40329">
        <ele>838</ele>
        <time>2019-06-15T07:05:49.000Z</time>
      </trkpt>
      <trkpt lat="44.9664" lon="5.40325">
        <ele>838</ele>
        <time>2019-06-15T07:05:50.000Z</time>
      </trkpt>
      <trkpt lat="44.9664" lon="5.4032">
        <ele>838</ele>
        <time>2019-06-15T07:05:51.000Z</time>
      </trkpt>
      <trkpt lat="44.9664" lon="5.40315">
        <ele>839</ele>
        <time>2019-06-15T07:05:52.000Z</time>
      </trkpt>
      <trkpt lat="44.9664" lon="5.40311">
        <ele>838</ele>
        <time>2019-06-15T07:05:53.000Z</time>
      </trkpt>
      <trkpt lat="44.9664" lon="5.40307">
        <ele>838</ele>
        <time>2019-06-15T07:05:54.000Z</time>
      </trkpt>
      <trkpt lat="44.9664" lon="5.40303">
        <ele>838</ele>
        <time>2019-06-15T07:05:55.000Z</time>
      </trkpt>
      <trkpt lat="44.96641" lon="5.40298">
        <ele>838</ele>
        <time>2019-06-15T07:05:56.000Z</time>
      </trkpt>
      <trkpt lat="44.96641" lon="5.40294">
        <ele>838</ele>
        <time>2019-06-15T07:05:57.000Z</time>
      </trkpt>
      <trkpt lat="44.96641" lon="5.4029">
        <ele>839</ele>
        <time>2019-06-15T07:05:58.000Z</time>
      </trkpt>
      <trkpt lat="44.96641" lon="5.40285">
        <ele>838</ele>
        <time>2019-06-15T07:05:59.000Z</time>
      </trkpt>
      <trkpt lat="44.96641" lon="5.40281">
        <ele>838</ele>
        <time>2019-06-15T07:06:00.000Z</time>
      </trkpt>
      <trkpt lat="44.96642" lon="5.40277">
        <ele>838</ele>
        <time>2019-06-15T07:06:01.000Z</time>
      </trkpt>
      <trkpt lat="44.96642" lon="5.40272">
        <ele>838</ele>
        <time>2019-06-15T07:06:02.000Z</time>
      </trkpt>
      <trkpt lat="44.96642" lon="5.40268">
        <ele>838</ele>
        <time>2019-06-15T07:06:03.000Z</time>
      </trkpt>
      <trkpt lat="44.96642" lon="5.40263">
        <ele>838</ele>
        <time>2019-06-15T07:06:04.000Z</time>
      </trkpt>
      <trkpt lat="44.96642" lon="5.40259">
        <ele>838</ele>
        <time>2019-06-15T07:06:05.000Z</time>
      </trkpt>
      <trkpt lat="44.96642" lon="5.40255">
        <ele>837</ele>
        <time>2019-06-15T07:06:06.000Z</time>
      </trkpt>
      <trkpt lat="44.96643" lon="5.4025">
        <ele>837</ele>
        <time>2019-06-15T07:06:07.000Z</time>
      </trkpt>
      <trkpt lat="44.96643" lon="5.40246">
        <ele>837</ele>
        <time>2019-06-15T07:06:08.000Z</time>
      </trkpt>
      <trkpt lat="44.96643" lon="5.40242">
        <ele>836</ele>
        <time>2019-06-15T07:06:09.000Z</time>
      </trkpt>
      <trkpt lat="44.96643" lon="5.40238">
        <ele>837</ele>
        <time>2019-06-15T07:06:10.000Z</time>
      </trkpt>
      <trkpt lat="44.96643" lon="5.40234">
        <ele>836</ele>
        <time>2019-06-15T07:06:11.000Z</time>
      </trkpt>
      <trkpt lat="44.96643" lon="5.40229">
        <ele>837</ele>
        <time>2019-06-15T07:06:12.000Z</time>
      </trkpt>
      <trkpt lat="44.96643" lon="5.40226">
        <ele>836</ele>
        <time>2019-06-15T07:06:13.000Z</time>
      </trkpt>
      <trkpt lat="44.96643" lon="5.40222">
        <ele>836</ele>
        <time>2019-06-15T07:06:14.000Z</time>
      </trkpt>
      <trkpt lat="44.96644" lon="5.40218">
        <ele>836</ele>
        <time>2019-06-15T07:06:15.000Z</time>
      </trkpt>
      <trkpt lat="44.96644" lon="5.40213">
        <ele>836</ele>
        <time>2019-06-15T07:06:16.000Z</time>
      </trkpt>
      <trkpt lat="44.96644" lon="5.40209">
        <ele>836</ele>
        <time>2019-06-15T07:06:17.000Z</time>
      </trkpt>
      <trkpt lat="44.96645" lon="5.40204">
        <ele>836</ele>
        <time>2019-06-15T07:06:18.000Z</time>
      </trkpt>
      <trkpt lat="44.96645" lon="5.40199">
        <ele>835</ele>
        <time>2019-06-15T07:06:19.000Z</time>
      </trkpt>
      <trkpt lat="44.96645" lon="5.40194">
        <ele>836</ele>
        <time>2019-06-15T07:06:20.000Z</time>
      </trkpt>
      <trkpt lat="44.96645" lon="5.40189">
        <ele>835</ele>
        <time>2019-06-15T07:06:21.000Z</time>
      </trkpt>
      <trkpt lat="44.96646" lon="5.40184">
        <ele>836</ele>
        <time>2019-06-15T07:06:22.000Z</time>
      </trkpt>
      <trkpt lat="44.96646" lon="5.40179">
        <ele>835</ele>
        <time>2019-06-15T07:06:23.000Z</time>
      </trkpt>
      <trkpt lat="44.96645" lon="5.40174">
        <ele>836</ele>
        <time>2019-06-15T07:06:24.000Z</time>
      </trkpt>
      <trkpt lat="44.96646" lon="5.40169">
        <ele>835</ele>
        <time>2019-06-15T07:06:25.000Z</time>
      </trkpt>
      <trkpt lat="44.96646" lon="5.40164">
        <ele>835</ele>
        <time>2019-06-15T07:06:26.000Z</time>
      </trkpt>
      <trkpt lat="44.96647" lon="5.4016">
        <ele>836</ele>
        <time>2019-06-15T07:06:27.000Z</time>
      </trkpt>
      <trkpt lat="44.96647" lon="5.40156">
        <ele>836</ele>
        <time>2019-06-15T07:06:28.000Z</time>
      </trkpt>
      <trkpt lat="44.96648" lon="5.40151">
        <ele>836</ele>
        <time>2019-06-15T07:06:29.000Z</time>
      </trkpt>
      <trkpt lat="44.96648" lon="5.40147">
        <ele>837</ele>
        <time>2019-06-15T07:06:30.000Z</time>
      </trkpt>
      <trkpt lat="44.96649" lon="5.40142">
        <ele>836</ele>
        <time>2019-06-15T07:06:31.000Z</time>
      </trkpt>
      <trkpt lat="44.96649" lon="5.40138">
        <ele>837</ele>
        <time>2019-06-15T07:06:32.000Z</time>
      </trkpt>
      <trkpt lat="44.9665" lon="5.40134">
        <ele>837</ele>
        <time>2019-06-15T07:06:33.000Z</time>
      </trkpt>
      <trkpt lat="44.96652" lon="5.4013">
        <ele>838</ele>
        <time>2019-06-15T07:06:34.000Z</time>
      </trkpt>
      <trkpt lat="44.96654" lon="5.40127">
        <ele>836</ele>
        <time>2019-06-15T07:06:35.000Z</time>
      </trkpt>
      <trkpt lat="44.96657" lon="5.40126">
        <ele>836</ele>
        <time>2019-06-15T07:06:36.000Z</time>
      </trkpt>
      <trkpt lat="44.96661" lon="5.40125">
        <ele>836</ele>
        <time>2019-06-15T07:06:37.000Z</time>
      </trkpt>
      <trkpt lat="44.96665" lon="5.40125">
        <ele>836</ele>
        <time>2019-06-15T07:06:38.000Z</time>
      </trkpt>
      <trkpt lat="44.96668" lon="5.40125">
        <ele>836</ele>
        <time>2019-06-15T07:06:39.000Z</time>
      </trkpt>
      <trkpt lat="44.96672" lon="5.40125">
        <ele>835</ele>
        <time>2019-06-15T07:06:40.000Z</time>
      </trkpt>
      <trkpt lat="44.96675" lon="5.40125">
        <ele>835</ele>
        <time>2019-06-15T07:06:41.000Z</time>
      </trkpt>
      <trkpt lat="44.96678" lon="5.40125">
        <ele>835</ele>
        <time>2019-06-15T07:06:42.000Z</time>
      </trkpt>
      <trkpt lat="44.96682" lon="5.40125">
        <ele>835</ele>
        <time>2019-06-15T07:06:43.000Z</time>
      </trkpt>
      <trkpt lat="44.96685" lon="5.40125">
        <ele>834</ele>
        <time>2019-06-15T07:06:44.000Z</time>
      </trkpt>
      <trkpt lat="44.96688" lon="5.40125">
        <ele>834</ele>
        <time>2019-06-15T07:06:45.000Z</time>
      </trkpt>
      <trkpt lat="44.96692" lon="5.40125">
        <ele>834</ele>
        <time>2019-06-15T07:06:46.000Z</time>
      </trkpt>
      <trkpt lat="44.96695" lon="5.40125">
        <ele>834</ele>
        <time>2019-06-15T07:06:47.000Z</time>
      </trkpt>
      <trkpt lat="44.96698" lon="5.40125">
        <ele>834</ele>
        <time>2019-06-15T07:06:48.000Z</time>
      </trkpt>
      <trkpt lat="44.96702" lon="5.40124">
        <ele>834</ele>
        <time>2019-06-15T07:06:49.000Z</time>
      </trkpt>
      <trkpt lat="44.96705" lon="5.40124">
        <ele>834</ele>
        <time>2019-06-15T07:06:50.000Z</time>
      </trkpt>
      <trkpt lat="44.96708" lon="5.40124">
        <ele>834</ele>
        <time>2019-06-15T07:06:51.000Z</time>
      </trkpt>
      <trkpt lat="44.96711" lon="5.40124">
        <ele>834</ele>
        <time>2019-06-15T07:06:52.000Z</time>
      </trkpt>
      <trkpt lat="44.96715" lon="5.40123">
        <ele>834</ele>
        <time>2019-06-15T07:06:53.000Z</time>
      </trkpt>
      <trkpt lat="44.96718" lon="5.40123">
        <ele>834</ele>
        <time>2019-06-15T07:06:54.000Z</time>
      </trkpt>
      <trkpt lat="44.96721" lon="5.40122">
        <ele>834</ele>
        <time>2019-06-15T07:06:55.000Z</time>
      </trkpt>
      <trkpt lat="44.96724" lon="5.40122">
        <ele>834</ele>
        <time>2019-06-15T07:06:56.000Z</time>
      </trkpt>
      <trkpt lat="44.96727" lon="5.40121">
        <ele>834</ele>
        <time>2019-06-15T07:06:57.000Z</time>
      </trkpt>
      <trkpt lat="44.9673" lon="5.40121">
        <ele>834</ele>
        <time>2019-06-15T07:06:58.000Z</time>
      </trkpt>
      <trkpt lat="44.96734" lon="5.4012">
        <ele>834</ele>
        <time>2019-06-15T07:06:59.000Z</time>
      </trkpt>
      <trkpt lat="44.96737" lon="5.40119">
        <ele>833</ele>
        <time>2019-06-15T07:07:00.000Z</time>
      </trkpt>
      <trkpt lat="44.96741" lon="5.40119">
        <ele>834</ele>
        <time>2019-06-15T07:07:01.000Z</time>
      </trkpt>
      <trkpt lat="44.96744" lon="5.40118">
        <ele>834</ele>
        <time>2019-06-15T07:07:02.000Z</time>
      </trkpt>
      <trkpt lat="44.96747" lon="5.40117">
        <ele>834</ele>
        <time>2019-06-15T07:07:03.000Z</time>
      </trkpt>
      <trkpt lat="44.9675" lon="5.40116">
        <ele>834</ele>
        <time>2019-06-15T07:07:04.000Z</time>
      </trkpt>
      <trkpt lat="44.96754" lon="5.40115">
        <ele>834</ele>
        <time>2019-06-15T07:07:05.000Z</time>
      </trkpt>
      <trkpt lat="44.96757" lon="5.40114">
        <ele>834</ele>
        <time>2019-06-15T07:07:06.000Z</time>
      </trkpt>
      <trkpt lat="44.9676" lon="5.40113">
        <ele>834</ele>
        <time>2019-06-15T07:07:07.000Z</time>
      </trkpt>
      <trkpt lat="44.96763" lon="5.40112">
        <ele>835</ele>
        <time>2019-06-15T07:07:08.000Z</time>
      </trkpt>
      <trkpt lat="44.96766" lon="5.40111">
        <ele>835</ele>
        <time>2019-06-15T07:07:09.000Z</time>
      </trkpt>
      <trkpt lat="44.96769" lon="5.40111">
        <ele>836</ele>
        <time>2019-06-15T07:07:10.000Z</time>
      </trkpt>
      <trkpt lat="44.96772" lon="5.4011">
        <ele>836</ele>
        <time>2019-06-15T07:07:11.000Z</time>
      </trkpt>
      <trkpt lat="44.96775" lon="5.40109">
        <ele>836</ele>
        <time>2019-06-15T07:07:12.000Z</time>
      </trkpt>
      <trkpt lat="44.96779" lon="5.40108">
        <ele>836</ele>
        <time>2019-06-15T07:07:13.000Z</time>
      </trkpt>
      <trkpt lat="44.96782" lon="5.40108">
        <ele>836</ele>
        <time>2019-06-15T07:07:14.000Z</time>
      </trkpt>
      <trkpt lat="44.96785" lon="5.40107">
        <ele>837</ele>
        <time>2019-06-15T07:07:15.000Z</time>
      </trkpt>
      <trkpt lat="44.96789" lon="5.40107">
        <ele>837</ele>
        <time>2019-06-15T07:07:16.000Z</time>
      </trkpt>
      <trkpt lat="44.96792" lon="5.40106">
        <ele>837</ele>
        <time>2019-06-15T07:07:17.000Z</time>
      </trkpt>
      <trkpt lat="44.96796" lon="5.40106">
        <ele>837</ele>
        <time>2019-06-15T07:07:18.000Z</time>
      </trkpt>
      <trkpt lat="44.96799" lon="5.40105">
        <ele>837</ele>
        <time>2019-06-15T07:07:19.000Z</time>
      </trkpt>
      <trkpt lat="44.96803" lon="5.40105">
        <ele>837</ele>
        <time>2019-06-15T07:07:20.000Z</time>
      </trkpt>
      <trkpt lat="44.96806" lon="5.40105">
        <ele>837</ele>
        <time>2019-06-15T07:07:21.000Z</time>
      </trkpt>
      <trkpt lat="44.9681" lon="5.40105">
        <ele>837</ele>
        <time>2019-06-15T07:07:22.000Z</time>
      </trkpt>
      <trkpt lat="44.96813" lon="5.40105">
        <ele>837</ele>
        <time>2019-06-15T07:07:23.000Z</time>
      </trkpt>
      <trkpt lat="44.96817" lon="5.40105">
        <ele>836</ele>
        <time>2019-06-15T07:07:24.000Z</time>
      </trkpt>
      <trkpt lat="44.9682" lon="5.40104">
        <ele>836</ele>
        <time>2019-06-15T07:07:25.000Z</time>
      </trkpt>
      <trkpt lat="44.96823" lon="5.40104">
        <ele>836</ele>
        <time>2019-06-15T07:07:26.000Z</time>
      </trkpt>
      <trkpt lat="44.96827" lon="5.40104">
        <ele>837</ele>
        <time>2019-06-15T07:07:27.000Z</time>
      </trkpt>
      <trkpt lat="44.9683" lon="5.40103">
        <ele>836</ele>
        <time>2019-06-15T07:07:28.000Z</time>
      </trkpt>
      <trkpt lat="44.96834" lon="5.40103">
        <ele>836</ele>
        <time>2019-06-15T07:07:29.000Z</time>
      </trkpt>
      <trkpt lat="44.96837" lon="5.40102">
        <ele>836</ele>
        <time>2019-06-15T07:07:30.000Z</time>
      </trkpt>
      <trkpt lat="44.9684" lon="5.40101">
        <ele>836</ele>
        <time>2019-06-15T07:07:31.000Z</time>
      </trkpt>
      <trkpt lat="44.96843" lon="5.401">
        <ele>836</ele>
        <time>2019-06-15T07:07:32.000Z</time>
      </trkpt>
      <trkpt lat="44.96846" lon="5.40099">
        <ele>837</ele>
        <time>2019-06-15T07:07:33.000Z</time>
      </trkpt>
      <trkpt lat="44.96849" lon="5.40098">
        <ele>836</ele>
        <time>2019-06-15T07:07:34.000Z</time>
      </trkpt>
      <trkpt lat="44.96852" lon="5.40097">
        <ele>836</ele>
        <time>2019-06-15T07:07:35.000Z</time>
      </trkpt>
      <trkpt lat="44.96855" lon="5.40097">
        <ele>836</ele>
        <time>2019-06-15T07:07:36.000Z</time>
      </trkpt>
      <trkpt lat="44.96859" lon="5.40096">
        <ele>836</ele>
        <time>2019-06-15T07:07:37.000Z</time>
      </trkpt>
      <trkpt lat="44.96862" lon="5.40096">
        <ele>836</ele>
        <time>2019-06-15T07:07:38.000Z</time>
      </trkpt>
      <trkpt lat="44.96865" lon="5.40096">
        <ele>836</ele>
        <time>2019-06-15T07:07:39.000Z</time>
      </trkpt>
      <trkpt lat="44.96868" lon="5.40096">
        <ele>836</ele>
        <time>2019-06-15T07:07:40.000Z</time>
      </trkpt>
      <trkpt lat="44.96872" lon="5.40095">
        <ele>835</ele>
        <time>2019-06-15T07:07:41.000Z</time>
      </trkpt>
      <trkpt lat="44.96875" lon="5.40095">
        <ele>835</ele>
        <time>2019-06-15T07:07:42.000Z</time>
      </trkpt>
      <trkpt lat="44.96879" lon="5.40095">
        <ele>835</ele>
        <time>2019-06-15T07:07:43.000Z</time>
      </trkpt>
      <trkpt lat="44.96882" lon="5.40095">
        <ele>835</ele>
        <time>2019-06-15T07:07:44.000Z</time>
      </trkpt>
      <trkpt lat="44.96886" lon="5.40095">
        <ele>835</ele>
        <time>2019-06-15T07:07:45.000Z</time>
      </trkpt>
      <trkpt lat="44.96889" lon="5.40095">
        <ele>835</ele>
        <time>2019-06-15T07:07:46.000Z</time>
      </trkpt>
      <trkpt lat="44.96893" lon="5.40095">
        <ele>834</ele>
        <time>2019-06-15T07:07:47.000Z</time>
      </trkpt>
      <trkpt lat="44.96896" lon="5.40096">
        <ele>834</ele>
        <time>2019-06-15T07:07:48.000Z</time>
      </trkpt>
      <trkpt lat="44.969" lon="5.40096">
        <ele>834</ele>
        <time>2019-06-15T07:07:49.000Z</time>
      </trkpt>
      <trkpt lat="44.96903" lon="5.40097">
        <ele>835</ele>
        <time>2019-06-15T07:07:50.000Z</time>
      </trkpt>
      <trkpt lat="44.96907" lon="5.40097">
        <ele>835</ele>
        <time>2019-06-15T07:07:51.000Z</time>
      </trkpt>
      <trkpt lat="44.96911" lon="5.40097">
        <ele>835</ele>
        <time>2019-06-15T07:07:52.000Z</time>
      </trkpt>
      <trkpt lat="44.96914" lon="5.40097">
        <ele>835</ele>
        <time>2019-06-15T07:07:53.000Z</time>
      </trkpt>
      <trkpt lat="44.96918" lon="5.40097">
        <ele>835</ele>
        <time>2019-06-15T07:07:54.000Z</time>
      </trkpt>
      <trkpt lat="44.96921" lon="5.40097">
        <ele>835</ele>
        <time>2019-06-15T07:07:55.000Z</time>
      </trkpt>
      <trkpt lat="44.96924" lon="5.40097">
        <ele>835</ele>
        <time>2019-06-15T07:07:56.000Z</time>
      </trkpt>
      <trkpt lat="44.96928" lon="5.40096">
        <ele>835</ele>
        <time>2019-06-15T07:07:57.000Z</time>
      </trkpt>
      <trkpt lat="44.96931" lon="5.40097">
        <ele>835</ele>
        <time>2019-06-15T07:07:58.000Z</time>
      </trkpt>
      <trkpt lat="44.96934" lon="5.40097">
        <ele>834</ele>
        <time>2019-06-15T07:07:59.000Z</time>
      </trkpt>
      <trkpt lat="44.96938" lon="5.40097">
        <ele>834</ele>
        <time>2019-06-15T07:08:00.000Z</time>
      </trkpt>
      <trkpt lat="44.96941" lon="5.40098">
        <ele>834</ele>
        <time>2019-06-15T07:08:01.000Z</time>
      </trkpt>
      <trkpt lat="44.96944" lon="5.40098">
        <ele>834</ele>
        <time>2019-06-15T07:08:02.000Z</time>
      </trkpt>
      <trkpt lat="44.96947" lon="5.40098">
        <ele>834</ele>
        <time>2019-06-15T07:08:03.000Z</time>
      </trkpt>
      <trkpt lat="44.9695" lon="5.40098">
        <ele>834</ele>
        <time>2019-06-15T07:08:04.000Z</time>
      </trkpt>
      <trkpt lat="44.96953" lon="5.40098">
        <ele>834</ele>
        <time>2019-06-15T07:08:05.000Z</time>
      </trkpt>
      <trkpt lat="44.96956" lon="5.40099">
        <ele>834</ele>
        <time>2019-06-15T07:08:06.000Z</time>
      </trkpt>
      <trkpt lat="44.96959" lon="5.40099">
        <ele>833</ele>
        <time>2019-06-15T07:08:07.000Z</time>
      </trkpt>
      <trkpt lat="44.96962" lon="5.401">
        <ele>833</ele>
        <time>2019-06-15T07:08:08.000Z</time>
      </trkpt>
      <trkpt lat="44.96965" lon="5.401">
        <ele>833</ele>
        <time>2019-06-15T07:08:09.000Z</time>
      </trkpt>
      <trkpt lat="44.96969" lon="5.40101">
        <ele>833</ele>
        <time>2019-06-15T07:08:10.000Z</time>
      </trkpt>
      <trkpt lat="44.96972" lon="5.40102">
        <ele>833</ele>
        <time>2019-06-15T07:08:11.000Z</time>
      </trkpt>
      <trkpt lat="44.96975" lon="5.40102">
        <ele>832</ele>
        <time>2019-06-15T07:08:12.000Z</time>
      </trkpt>
      <trkpt lat="44.96978" lon="5.40103">
        <ele>832</ele>
        <time>2019-06-15T07:08:13.000Z</time>
      </trkpt>
      <trkpt lat="44.96982" lon="5.40103">
        <ele>832</ele>
        <time>2019-06-15T07:08:14.000Z</time>
      </trkpt>
      <trkpt lat="44.96985" lon="5.40104">
        <ele>832</ele>
        <time>2019-06-15T07:08:15.000Z</time>
      </trkpt>
      <trkpt lat="44.96988" lon="5.40105">
        <ele>832</ele>
        <time>2019-06-15T07:08:16.000Z</time>
      </trkpt>
      <trkpt lat="44.96992" lon="5.40106">
        <ele>832</ele>
        <time>2019-06-15T07:08:17.000Z</time>
      </trkpt>
      <trkpt lat="44.96995" lon="5.40106">
        <ele>832</ele>
        <time>2019-06-15T07:08:18.000Z</time>
      </trkpt>
      <trkpt lat="44.96999" lon="5.40107">
        <ele>832</ele>
        <time>2019-06-15T07:08:19.000Z</time>
      </trkpt>
      <trkpt lat="44.97002" lon="5.40108">
        <ele>832</ele>
        <time>2019-06-15T07:08:20.000Z</time>
      </trkpt>
      <trkpt lat="44.97005" lon="5.40109">
        <ele>832</ele>
        <time>2019-06-15T07:08:21.000Z</time>
      </trkpt>
      <trkpt lat="44.97009" lon="5.4011">
        <ele>831</ele>
        <time>2019-06-15T07:08:22.000Z</time>
      </trkpt>
      <trkpt lat="44.97012" lon="5.40111">
        <ele>832</ele>
        <time>2019-06-15T07:08:23.000Z</time>
      </trkpt>
      <trkpt lat="44.97016" lon="5.40111">
        <ele>832</ele>
        <time>2019-06-15T07:08:24.000Z</time>
      </trkpt>
      <trkpt lat="44.97019" lon="5.40112">
        <ele>832</ele>
        <time>2019-06-15T07:08:25.000Z</time>
      </trkpt>
      <trkpt lat="44.97023" lon="5.40113">
        <ele>832</ele>
        <time>2019-06-15T07:08:26.000Z</time>
      </trkpt>
      <trkpt lat="44.97025" lon="5.40113">
        <ele>832</ele>
        <time>2019-06-15T07:08:27.000Z</time>
      </trkpt>
      <trkpt lat="44.97028" lon="5.40113">
        <ele>832</ele>
        <time>2019-06-15T07:08:28.000Z</time>
      </trkpt>
      <trkpt lat="44.9703" lon="5.40113">
        <ele>832</ele>
        <time>2019-06-15T07:08:29.000Z</time>
      </trkpt>
      <trkpt lat="44.97033" lon="5.40113">
        <ele>832</ele>
        <time>2019-06-15T07:08:30.000Z</time>
      </trkpt>
      <trkpt lat="44.97036" lon="5.40114">
        <ele>832</ele>
        <time>2019-06-15T07:08:31.000Z</time>
      </trkpt>
      <trkpt lat="44.97039" lon="5.40115">
        <ele>832</ele>
        <time>2019-06-15T07:08:32.000Z</time>
      </trkpt>
      <trkpt lat="44.97042" lon="5.40115">
        <ele>833</ele>
        <time>2019-06-15T07:08:33.000Z</time>
      </trkpt>
      <trkpt lat="44.97045" lon="5.40115">
        <ele>832</ele>
        <time>2019-06-15T07:08:34.000Z</time>
      </trkpt>
      <trkpt lat="44.97048" lon="5.40115">
        <ele>832</ele>
        <time>2019-06-15T07:08:35.000Z</time>
      </trkpt>
      <trkpt lat="44.97051" lon="5.40116">
        <ele>832</ele>
        <time>2019-06-15T07:08:36.000Z</time>
      </trkpt>
      <trkpt lat="44.97055" lon="5.40116">
        <ele>832</ele>
        <time>2019-06-15T07:08:37.000Z</time>
      </trkpt>
      <trkpt lat="44.97058" lon="5.40117">
        <ele>832</ele>
        <time>2019-06-15T07:08:38.000Z</time>
      </trkpt>
      <trkpt lat="44.97061" lon="5.40118">
        <ele>832</ele>
        <time>2019-06-15T07:08:39.000Z</time>
      </trkpt>
      <trkpt lat="44.97063" lon="5.40119">
        <ele>834</ele>
        <time>2019-06-15T07:08:40.000Z</time>
      </trkpt>
      <trkpt lat="44.97065" lon="5.40119">
        <ele>833</ele>
        <time>2019-06-15T07:08:41.000Z</time>
      </trkpt>
      <trkpt lat="44.97066" lon="5.4012">
        <ele>833</ele>
        <time>2019-06-15T07:08:42.000Z</time>
      </trkpt>
      <trkpt lat="44.97068" lon="5.4012">
        <ele>833</ele>
        <time>2019-06-15T07:08:43.000Z</time>
      </trkpt>
      <trkpt lat="44.9707" lon="5.40121">
        <ele>833</ele>
        <time>2019-06-15T07:08:44.000Z</time>
      </trkpt>
      <trkpt lat="44.97072" lon="5.40122">
        <ele>832</ele>
        <time>2019-06-15T07:08:45.000Z</time>
      </trkpt>
      <trkpt lat="44.97074" lon="5.40123">
        <ele>832</ele>
        <time>2019-06-15T07:08:46.000Z</time>
      </trkpt>
      <trkpt lat="44.97076" lon="5.40123">
        <ele>832</ele>
        <time>2019-06-15T07:08:47.000Z</time>
      </trkpt>
      <trkpt lat="44.97079" lon="5.40124">
        <ele>831</ele>
        <time>2019-06-15T07:08:48.000Z</time>
      </trkpt>
      <trkpt lat="44.97081" lon="5.40125">
        <ele>831</ele>
        <time>2019-06-15T07:08:49.000Z</time>
      </trkpt>
      <trkpt lat="44.97083" lon="5.40124">
        <ele>830</ele>
        <time>2019-06-15T07:08:50.000Z</time>
      </trkpt>
      <trkpt lat="44.97085" lon="5.40124">
        <ele>830</ele>
        <time>2019-06-15T07:08:51.000Z</time>
      </trkpt>
      <trkpt lat="44.97087" lon="5.40122">
        <ele>830</ele>
        <time>2019-06-15T07:08:52.000Z</time>
      </trkpt>
      <trkpt lat="44.97088" lon="5.40119">
        <ele>828</ele>
        <time>2019-06-15T07:08:53.000Z</time>
      </trkpt>
      <trkpt lat="44.97089" lon="5.40115">
        <ele>827</ele>
        <time>2019-06-15T07:08:54.000Z</time>
      </trkpt>
      <trkpt lat="44.97089" lon="5.4011">
        <ele>827</ele>
        <time>2019-06-15T07:08:55.000Z</time>
      </trkpt>
      <trkpt lat="44.9709" lon="5.40105">
        <ele>827</ele>
        <time>2019-06-15T07:08:56.000Z</time>
      </trkpt>
      <trkpt lat="44.9709" lon="5.401">
        <ele>827</ele>
        <time>2019-06-15T07:08:57.000Z</time>
      </trkpt>
      <trkpt lat="44.97091" lon="5.40095">
        <ele>827</ele>
        <time>2019-06-15T07:08:58.000Z</time>
      </trkpt>
      <trkpt lat="44.97091" lon="5.40091">
        <ele>828</ele>
        <time>2019-06-15T07:08:59.000Z</time>
      </trkpt>
      <trkpt lat="44.97092" lon="5.40086">
        <ele>827</ele>
        <time>2019-06-15T07:09:00.000Z</time>
      </trkpt>
      <trkpt lat="44.97093" lon="5.40082">
        <ele>827</ele>
        <time>2019-06-15T07:09:01.000Z</time>
      </trkpt>
      <trkpt lat="44.97095" lon="5.40077">
        <ele>827</ele>
        <time>2019-06-15T07:09:02.000Z</time>
      </trkpt>
      <trkpt lat="44.97096" lon="5.40073">
        <ele>828</ele>
        <time>2019-06-15T07:09:03.000Z</time>
      </trkpt>
      <trkpt lat="44.97097" lon="5.40069">
        <ele>828</ele>
        <time>2019-06-15T07:09:04.000Z</time>
      </trkpt>
      <trkpt lat="44.97099" lon="5.40065">
        <ele>829</ele>
        <time>2019-06-15T07:09:05.000Z</time>
      </trkpt>
      <trkpt lat="44.971" lon="5.40061">
        <ele>829</ele>
        <time>2019-06-15T07:09:06.000Z</time>
      </trkpt>
      <trkpt lat="44.97101" lon="5.40057">
        <ele>829</ele>
        <time>2019-06-15T07:09:07.000Z</time>
      </trkpt>
      <trkpt lat="44.97103" lon="5.40052">
        <ele>829</ele>
        <time>2019-06-15T07:09:08.000Z</time>
      </trkpt>
      <trkpt lat="44.97104" lon="5.40048">
        <ele>830</ele>
        <time>2019-06-15T07:09:09.000Z</time>
      </trkpt>
      <trkpt lat="44.97105" lon="5.40044">
        <ele>830</ele>
        <time>2019-06-15T07:09:10.000Z</time>
      </trkpt>
      <trkpt lat="44.97106" lon="5.4004">
        <ele>830</ele>
        <time>2019-06-15T07:09:11.000Z</time>
      </trkpt>
      <trkpt lat="44.97107" lon="5.40037">
        <ele>830</ele>
        <time>2019-06-15T07:09:12.000Z</time>
      </trkpt>
      <trkpt lat="44.97108" lon="5.40033">
        <ele>830</ele>
        <time>2019-06-15T07:09:13.000Z</time>
      </trkpt>
      <trkpt lat="44.9711" lon="5.40029">
        <ele>831</ele>
        <time>2019-06-15T07:09:14.000Z</time>
      </trkpt>
      <trkpt lat="44.97111" lon="5.40025">
        <ele>831</ele>
        <time>2019-06-15T07:09:15.000Z</time>
      </trkpt>
      <trkpt lat="44.97112" lon="5.40021">
        <ele>831</ele>
        <time>2019-06-15T07:09:16.000Z</time>
      </trkpt>
      <trkpt lat="44.97113" lon="5.40017">
        <ele>831</ele>
        <time>2019-06-15T07:09:17.000Z</time>
      </trkpt>
      <trkpt lat="44.97114" lon="5.40013">
        <ele>832</ele>
        <time>2019-06-15T07:09:18.000Z</time>
      </trkpt>
      <trkpt lat="44.97116" lon="5.40009">
        <ele>832</ele>
        <time>2019-06-15T07:09:19.000Z</time>
      </trkpt>
      <trkpt lat="44.97117" lon="5.40006">
        <ele>832</ele>
        <time>2019-06-15T07:09:20.000Z</time>
      </trkpt>
      <trkpt lat="44.97118" lon="5.40002">
        <ele>832</ele>
        <time>2019-06-15T07:09:21.000Z</time>
      </trkpt>
      <trkpt lat="44.97119" lon="5.39998">
        <ele>832</ele>
        <time>2019-06-15T07:09:22.000Z</time>
      </trkpt>
      <trkpt lat="44.97121" lon="5.39994">
        <ele>832</ele>
        <time>2019-06-15T07:09:23.000Z</time>
      </trkpt>
      <trkpt lat="44.97122" lon="5.3999">
        <ele>832</ele>
        <time>2019-06-15T07:09:24.000Z</time>
      </trkpt>
      <trkpt lat="44.97123" lon="5.39987">
        <ele>832</ele>
        <time>2019-06-15T07:09:25.000Z</time>
      </trkpt>
      <trkpt lat="44.97124" lon="5.39983">
        <ele>832</ele>
        <time>2019-06-15T07:09:26.000Z</time>
      </trkpt>
      <trkpt lat="44.97125" lon="5.39979">
        <ele>832</ele>
        <time>2019-06-15T07:09:27.000Z</time>
      </trkpt>
      <trkpt lat="44.97125" lon="5.39976">
        <ele>833</ele>
        <time>2019-06-15T07:09:28.000Z</time>
      </trkpt>
      <trkpt lat="44.97126" lon="5.39972">
        <ele>833</ele>
        <time>2019-06-15T07:09:29.000Z</time>
      </trkpt>
      <trkpt lat="44.97127" lon="5.39968">
        <ele>833</ele>
        <time>2019-06-15T07:09:30.000Z</time>
      </trkpt>
      <trkpt lat="44.97128" lon="5.39965">
        <ele>833</ele>
        <time>2019-06-15T07:09:31.000Z</time>
      </trkpt>
      <trkpt lat="44.97129" lon="5.39962">
        <ele>833</ele>
        <time>2019-06-15T07:09:32.000Z</time>
      </trkpt>
      <trkpt lat="44.9713" lon="5.39958">
        <ele>832</ele>
        <time>2019-06-15T07:09:33.000Z</time>
      </trkpt>
      <trkpt lat="44.97131" lon="5.39956">
        <ele>833</ele>
        <time>2019-06-15T07:09:34.000Z</time>
      </trkpt>
      <trkpt lat="44.97132" lon="5.39953">
        <ele>833</ele>
        <time>2019-06-15T07:09:35.000Z</time>
      </trkpt>
      <trkpt lat="44.97133" lon="5.3995">
        <ele>834</ele>
        <time>2019-06-15T07:09:36.000Z</time>
      </trkpt>
      <trkpt lat="44.97134" lon="5.39948">
        <ele>834</ele>
        <time>2019-06-15T07:09:37.000Z</time>
      </trkpt>
      <trkpt lat="44.97135" lon="5.39945">
        <ele>834</ele>
        <time>2019-06-15T07:09:38.000Z</time>
      </trkpt>
      <trkpt lat="44.97136" lon="5.39943">
        <ele>834</ele>
        <time>2019-06-15T07:09:39.000Z</time>
      </trkpt>
      <trkpt lat="44.97137" lon="5.3994">
        <ele>834</ele>
        <time>2019-06-15T07:09:40.000Z</time>
      </trkpt>
      <trkpt lat="44.97138" lon="5.39938">
        <ele>835</ele>
        <time>2019-06-15T07:09:41.000Z</time>
      </trkpt>
      <trkpt lat="44.97139" lon="5.39936">
        <ele>834</ele>
        <time>2019-06-15T07:09:42.000Z</time>
      </trkpt>
      <trkpt lat="44.9714" lon="5.39934">
        <ele>833</ele>
        <time>2019-06-15T07:09:43.000Z</time>
      </trkpt>
      <trkpt lat="44.97141" lon="5.39933">
        <ele>834</ele>
        <time>2019-06-15T07:09:44.000Z</time>
      </trkpt>
      <trkpt lat="44.97142" lon="5.39931">
        <ele>833</ele>
        <time>2019-06-15T07:09:45.000Z</time>
      </trkpt>
      <trkpt lat="44.97143" lon="5.3993">
        <ele>833</ele>
        <time>2019-06-15T07:09:46.000Z</time>
      </trkpt>
      <trkpt lat="44.97144" lon="5.39928">
        <ele>833</ele>
        <time>2019-06-15T07:09:47.000Z</time>
      </trkpt>
      <trkpt lat="44.97144" lon="5.39927">
        <ele>832</ele>
        <time>2019-06-15T07:09:48.000Z</time>
      </trkpt>
      <trkpt lat="44.97145" lon="5.39926">
        <ele>832</ele>
        <time>2019-06-15T07:09:49.000Z</time>
      </trkpt>
      <trkpt lat="44.97146" lon="5.39925">
        <ele>832</ele>
        <time>2019-06-15T07:09:50.000Z</time>
      </trkpt>
      <trkpt lat="44.97147" lon="5.39925">
        <ele>831</ele>
        <time>2019-06-15T07:09:51.000Z</time>
      </trkpt>
      <trkpt lat="44.97148" lon="5.39924">
        <ele>832</ele>
        <time>2019-06-15T07:09:52.000Z</time>
      </trkpt>
      <trkpt lat="44.97149" lon="5.39924">
        <ele>831</ele>
        <time>2019-06-15T07:09:53.000Z</time>
      </trkpt>
      <trkpt lat="44.9715" lon="5.39923">
        <ele>831</ele>
        <time>2019-06-15T07:09:54.000Z</time>
      </trkpt>
      <trkpt lat="44.97151" lon="5.39922">
        <ele>832</ele>
        <time>2019-06-15T07:09:55.000Z</time>
      </trkpt>
      <trkpt lat="44.97153" lon="5.39921">
        <ele>832</ele>
        <time>2019-06-15T07:09:56.000Z</time>
      </trkpt>
      <trkpt lat="44.97154" lon="5.3992">
        <ele>832</ele>
        <time>2019-06-15T07:09:57.000Z</time>
      </trkpt>
      <trkpt lat="44.97156" lon="5.3992">
        <ele>833</ele>
        <time>2019-06-15T07:09:58.000Z</time>
      </trkpt>
      <trkpt lat="44.97157" lon="5.3992">
        <ele>834</ele>
        <time>2019-06-15T07:09:59.000Z</time>
      </trkpt>
      <trkpt lat="44.97159" lon="5.39919">
        <ele>835</ele>
        <time>2019-06-15T07:10:00.000Z</time>
      </trkpt>
      <trkpt lat="44.9716" lon="5.39919">
        <ele>836</ele>
        <time>2019-06-15T07:10:01.000Z</time>
      </trkpt>
      <trkpt lat="44.97162" lon="5.39919">
        <ele>836</ele>
        <time>2019-06-15T07:10:02.000Z</time>
      </trkpt>
      <trkpt lat="44.97163" lon="5.39919">
        <ele>838</ele>
        <time>2019-06-15T07:10:03.000Z</time>
      </trkpt>
      <trkpt lat="44.97164" lon="5.39919">
        <ele>838</ele>
        <time>2019-06-15T07:10:04.000Z</time>
      </trkpt>
      <trkpt lat="44.97166" lon="5.39918">
        <ele>840</ele>
        <time>2019-06-15T07:10:05.000Z</time>
      </trkpt>
      <trkpt lat="44.97167" lon="5.39918">
        <ele>842</ele>
        <time>2019-06-15T07:10:06.000Z</time>
      </trkpt>
      <trkpt lat="44.97169" lon="5.39917">
        <ele>842</ele>
        <time>2019-06-15T07:10:07.000Z</time>
      </trkpt>
      <trkpt lat="44.97171" lon="5.39916">
        <ele>843</ele>
        <time>2019-06-15T07:10:08.000Z</time>
      </trkpt>
      <trkpt lat="44.97172" lon="5.39915">
        <ele>844</ele>
        <time>2019-06-15T07:10:09.000Z</time>
      </trkpt>
      <trkpt lat="44.97173" lon="5.39914">
        <ele>844</ele>
        <time>2019-06-15T07:10:10.000Z</time>
      </trkpt>
      <trkpt lat="44.97174" lon="5.39914">
        <ele>845</ele>
        <time>2019-06-15T07:10:11.000Z</time>
      </trkpt>
      <trkpt lat="44.97176" lon="5.39913">
        <ele>845</ele>
        <time>2019-06-15T07:10:12.000Z</time>
      </trkpt>
      <trkpt lat="44.97178" lon="5.39912">
        <ele>845</ele>
        <time>2019-06-15T07:10:13.000Z</time>
      </trkpt>
      <trkpt lat="44.9718" lon="5.39911">
        <ele>844</ele>
        <time>2019-06-15T07:10:14.000Z</time>
      </trkpt>
      <trkpt lat="44.97182" lon="5.39909">
        <ele>844</ele>
        <time>2019-06-15T07:10:15.000Z</time>
      </trkpt>
      <trkpt lat="44.97184" lon="5.39907">
        <ele>844</ele>
        <time>2019-06-15T07:10:16.000Z</time>
      </trkpt>
      <trkpt lat="44.97186" lon="5.39905">
        <ele>844</ele>
        <time>2019-06-15T07:10:17.000Z</time>
      </trkpt>
      <trkpt lat="44.97188" lon="5.39904">
        <ele>845</ele>
        <time>2019-06-15T07:10:18.000Z</time>
      </trkpt>
      <trkpt lat="44.97189" lon="5.39903">
        <ele>847</ele>
        <time>2019-06-15T07:10:19.000Z</time>
      </trkpt>
      <trkpt lat="44.97191" lon="5.39903">
        <ele>847</ele>
        <time>2019-06-15T07:10:20.000Z</time>
      </trkpt>
      <trkpt lat="44.97192" lon="5.39903">
        <ele>848</ele>
        <time>2019-06-15T07:10:21.000Z</time>
      </trkpt>
      <trkpt lat="44.97194" lon="5.39902">
        <ele>849</ele>
        <time>2019-06-15T07:10:22.000Z</time>
      </trkpt>
      <trkpt lat="44.97195" lon="5.39901">
        <ele>848</ele>
        <time>2019-06-15T07:10:23.000Z</time>
      </trkpt>
      <trkpt lat="44.97196" lon="5.399">
        <ele>848</ele>
        <time>2019-06-15T07:10:24.000Z</time>
      </trkpt>
      <trkpt lat="44.97198" lon="5.39899">
        <ele>850</ele>
        <time>2019-06-15T07:10:25.000Z</time>
      </trkpt>
      <trkpt lat="44.97199" lon="5.39898">
        <ele>850</ele>
        <time>2019-06-15T07:10:26.000Z</time>
      </trkpt>
      <trkpt lat="44.972" lon="5.39895">
        <ele>848</ele>
        <time>2019-06-15T07:10:27.000Z</time>
      </trkpt>
      <trkpt lat="44.97202" lon="5.39893">
        <ele>847</ele>
        <time>2019-06-15T07:10:28.000Z</time>
      </trkpt>
      <trkpt lat="44.97203" lon="5.3989">
        <ele>848</ele>
        <time>2019-06-15T07:10:29.000Z</time>
      </trkpt>
      <trkpt lat="44.97204" lon="5.39889">
        <ele>849</ele>
        <time>2019-06-15T07:10:30.000Z</time>
      </trkpt>
      <trkpt lat="44.97204" lon="5.39888">
        <ele>849</ele>
        <time>2019-06-15T07:10:31.000Z</time>
      </trkpt>
      <trkpt lat="44.97204" lon="5.39887">
        <ele>850</ele>
        <time>2019-06-15T07:10:32.000Z</time>
      </trkpt>
      <trkpt lat="44.97204" lon="5.39886">
        <ele>850</ele>
        <time>2019-06-15T07:10:33.000Z</time>
      </trkpt>
      <trkpt lat="44.97204" lon="5.39885">
        <ele>850</ele>
        <time>2019-06-15T07:10:34.000Z</time>
      </trkpt>
      <trkpt lat="44.97203" lon="5.39885">
        <ele>851</ele>
        <time>2019-06-15T07:10:35.000Z</time>
      </trkpt>
      <trkpt lat="44.97203" lon="5.39884">
        <ele>850</ele>
        <time>2019-06-15T07:10:36.000Z</time>
      </trkpt>
      <trkpt lat="44.97202" lon="5.39883">
        <ele>850</ele>
        <time>2019-06-15T07:10:37.000Z</time>
      </trkpt>
      <trkpt lat="44.97203" lon="5.39882">
        <ele>849</ele>
        <time>2019-06-15T07:10:38.000Z</time>
      </trkpt>
      <trkpt lat="44.97203" lon="5.3988">
        <ele>850</ele>
        <time>2019-06-15T07:10:39.000Z</time>
      </trkpt>
      <trkpt lat="44.97203" lon="5.39879">
        <ele>850</ele>
        <time>2019-06-15T07:10:40.000Z</time>
      </trkpt>
      <trkpt lat="44.97204" lon="5.39877">
        <ele>851</ele>
        <time>2019-06-15T07:10:41.000Z</time>
      </trkpt>
      <trkpt lat="44.97204" lon="5.39876">
        <ele>852</ele>
        <time>2019-06-15T07:10:42.000Z</time>
      </trkpt>
      <trkpt lat="44.97205" lon="5.39875">
        <ele>852</ele>
        <time>2019-06-15T07:10:43.000Z</time>
      </trkpt>
      <trkpt lat="44.97206" lon="5.39875">
        <ele>852</ele>
        <time>2019-06-15T07:10:44.000Z</time>
      </trkpt>
      <trkpt lat="44.97207" lon="5.39874">
        <ele>853</ele>
        <time>2019-06-15T07:10:45.000Z</time>
      </trkpt>
      <trkpt lat="44.97208" lon="5.39873">
        <ele>853</ele>
        <time>2019-06-15T07:10:46.000Z</time>
      </trkpt>
      <trkpt lat="44.97209" lon="5.39872">
        <ele>853</ele>
        <time>2019-06-15T07:10:47.000Z</time>
      </trkpt>
      <trkpt lat="44.9721" lon="5.39871">
        <ele>853</ele>
        <time>2019-06-15T07:10:48.000Z</time>
      </trkpt>
      <trkpt lat="44.97211" lon="5.39869">
        <ele>854</ele>
        <time>2019-06-15T07:10:49.000Z</time>
      </trkpt>
      <trkpt lat="44.97212" lon="5.39868">
        <ele>855</ele>
        <time>2019-06-15T07:10:50.000Z</time>
      </trkpt>
      <trkpt lat="44.97213" lon="5.39866">
        <ele>854</ele>
        <time>2019-06-15T07:10:51.000Z</time>
      </trkpt>
      <trkpt lat="44.97214" lon="5.39864">
        <ele>854</ele>
        <time>2019-06-15T07:10:52.000Z</time>
      </trkpt>
      <trkpt lat="44.97214" lon="5.39862">
        <ele>854</ele>
        <time>2019-06-15T07:10:53.000Z</time>
      </trkpt>
      <trkpt lat="44.97215" lon="5.3986">
        <ele>855</ele>
        <time>2019-06-15T07:10:54.000Z</time>
      </trkpt>
      <trkpt lat="44.97215" lon="5.39858">
        <ele>856</ele>
        <time>2019-06-15T07:10:55.000Z</time>
      </trkpt>
      <trkpt lat="44.97214" lon="5.39857">
        <ele>856</ele>
        <time>2019-06-15T07:10:56.000Z</time>
      </trkpt>
      <trkpt lat="44.97214" lon="5.39856">
        <ele>857</ele>
        <time>2019-06-15T07:10:57.000Z</time>
      </trkpt>
      <trkpt lat="44.97214" lon="5.39855">
        <ele>858</ele>
        <time>2019-06-15T07:10:58.000Z</time>
      </trkpt>
      <trkpt lat="44.97213" lon="5.39855">
        <ele>859</ele>
        <time>2019-06-15T07:10:59.000Z</time>
      </trkpt>
      <trkpt lat="44.97213" lon="5.39855">
        <ele>860</ele>
        <time>2019-06-15T07:11:00.000Z</time>
      </trkpt>
      <trkpt lat="44.97212" lon="5.39855">
        <ele>860</ele>
        <time>2019-06-15T07:11:01.000Z</time>
      </trkpt>
      <trkpt lat="44.97211" lon="5.39855">
        <ele>861</ele>
        <time>2019-06-15T07:11:02.000Z</time>
      </trkpt>
      <trkpt lat="44.97211" lon="5.39855">
        <ele>860</ele>
        <time>2019-06-15T07:11:03.000Z</time>
      </trkpt>
      <trkpt lat="44.9721" lon="5.39854">
        <ele>860</ele>
        <time>2019-06-15T07:11:04.000Z</time>
      </trkpt>
      <trkpt lat="44.97209" lon="5.39853">
        <ele>860</ele>
        <time>2019-06-15T07:11:05.000Z</time>
      </trkpt>
      <trkpt lat="44.97208" lon="5.39853">
        <ele>861</ele>
        <time>2019-06-15T07:11:06.000Z</time>
      </trkpt>
      <trkpt lat="44.97207" lon="5.39852">
        <ele>860</ele>
        <time>2019-06-15T07:11:07.000Z</time>
      </trkpt>
      <trkpt lat="44.97206" lon="5.39852">
        <ele>861</ele>
        <time>2019-06-15T07:11:08.000Z</time>
      </trkpt>
      <trkpt lat="44.97206" lon="5.39851">
        <ele>861</ele>
        <time>2019-06-15T07:11:09.000Z</time>
      </trkpt>
      <trkpt lat="44.97205" lon="5.3985">
        <ele>862</ele>
        <time>2019-06-15T07:11:10.000Z</time>
      </trkpt>
      <trkpt lat="44.97204" lon="5.39849">
        <ele>862</ele>
        <time>2019-06-15T07:11:11.000Z</time>
      </trkpt>
      <trkpt lat="44.97203" lon="5.39848">
        <ele>863</ele>
        <time>2019-06-15T07:11:12.000Z</time>
      </trkpt>
      <trkpt lat="44.97201" lon="5.39848">
        <ele>862</ele>
        <time>2019-06-15T07:11:13.000Z</time>
      </trkpt>
      <trkpt lat="44.972" lon="5.39846">
        <ele>862</ele>
        <time>2019-06-15T07:11:14.000Z</time>
      </trkpt>
      <trkpt lat="44.97199" lon="5.39845">
        <ele>863</ele>
        <time>2019-06-15T07:11:15.000Z</time>
      </trkpt>
      <trkpt lat="44.97197" lon="5.39844">
        <ele>863</ele>
        <time>2019-06-15T07:11:16.000Z</time>
      </trkpt>
      <trkpt lat="44.97196" lon="5.39843">
        <ele>863</ele>
        <time>2019-06-15T07:11:17.000Z</time>
      </trkpt>
      <trkpt lat="44.97195" lon="5.39841">
        <ele>862</ele>
        <time>2019-06-15T07:11:18.000Z</time>
      </trkpt>
      <trkpt lat="44.97194" lon="5.3984">
        <ele>863</ele>
        <time>2019-06-15T07:11:19.000Z</time>
      </trkpt>
      <trkpt lat="44.97194" lon="5.39838">
        <ele>864</ele>
        <time>2019-06-15T07:11:20.000Z</time>
      </trkpt>
      <trkpt lat="44.97194" lon="5.39837">
        <ele>865</ele>
        <time>2019-06-15T07:11:21.000Z</time>
      </trkpt>
      <trkpt lat="44.97194" lon="5.39836">
        <ele>866</ele>
        <time>2019-06-15T07:11:22.000Z</time>
      </trkpt>
      <trkpt lat="44.97194" lon="5.39836">
        <ele>866</ele>
        <time>2019-06-15T07:11:23.000Z</time>
      </trkpt>
      <trkpt lat="44.97194" lon="5.39836">
        <ele>867</ele>
        <time>2019-06-15T07:11:24.000Z</time>
      </trkpt>
      <trkpt lat="44.97195" lon="5.39835">
        <ele>867</ele>
        <time>2019-06-15T07:11:25.000Z</time>
      </trkpt>
      <trkpt lat="44.97195" lon="5.39834">
        <ele>868</ele>
        <time>2019-06-15T07:11:26.000Z</time>
      </trkpt>
      <trkpt lat="44.97195" lon="5.39834">
        <ele>869</ele>
        <time>2019-06-15T07:11:27.000Z</time>
      </trkpt>
      <trkpt lat="44.97195" lon="5.39833">
        <ele>869</ele>
        <time>2019-06-15T07:11:28.000Z</time>
      </trkpt>
      <trkpt lat="44.97196" lon="5.39833">
        <ele>870</ele>
        <time>2019-06-15T07:11:29.000Z</time>
      </trkpt>
      <trkpt lat="44.97196" lon="5.39832">
        <ele>870</ele>
        <time>2019-06-15T07:11:30.000Z</time>
      </trkpt>
      <trkpt lat="44.97197" lon="5.39831">
        <ele>871</ele>
        <time>2019-06-15T07:11:31.000Z</time>
      </trkpt>
      <trkpt lat="44.97197" lon="5.39831">
        <ele>872</ele>
        <time>2019-06-15T07:11:32.000Z</time>
      </trkpt>
      <trkpt lat="44.97198" lon="5.3983">
        <ele>872</ele>
        <time>2019-06-15T07:11:33.000Z</time>
      </trkpt>
      <trkpt lat="44.97198" lon="5.3983">
        <ele>872</ele>
        <time>2019-06-15T07:11:34.000Z</time>
      </trkpt>
      <trkpt lat="44.97198" lon="5.39829">
        <ele>873</ele>
        <time>2019-06-15T07:11:35.000Z</time>
      </trkpt>
      <trkpt lat="44.97199" lon="5.39829">
        <ele>873</ele>
        <time>2019-06-15T07:11:36.000Z</time>
      </trkpt>
      <trkpt lat="44.972" lon="5.39829">
        <ele>873</ele>
        <time>2019-06-15T07:11:37.000Z</time>
      </trkpt>
      <trkpt lat="44.972" lon="5.39828">
        <ele>874</ele>
        <time>2019-06-15T07:11:38.000Z</time>
      </trkpt>
      <trkpt lat="44.97201" lon="5.39827">
        <ele>874</ele>
        <time>2019-06-15T07:11:39.000Z</time>
      </trkpt>
      <trkpt lat="44.97202" lon="5.39827">
        <ele>874</ele>
        <time>2019-06-15T07:11:40.000Z</time>
      </trkpt>
      <trkpt lat="44.97202" lon="5.39826">
        <ele>874</ele>
        <time>2019-06-15T07:11:41.000Z</time>
      </trkpt>
      <trkpt lat="44.97203" lon="5.39824">
        <ele>875</ele>
        <time>2019-06-15T07:11:42.000Z</time>
      </trkpt>
      <trkpt lat="44.97204" lon="5.39823">
        <ele>875</ele>
        <time>2019-06-15T07:11:43.000Z</time>
      </trkpt>
      <trkpt lat="44.97205" lon="5.39822">
        <ele>874</ele>
        <time>2019-06-15T07:11:44.000Z</time>
      </trkpt>
      <trkpt lat="44.97206" lon="5.3982">
        <ele>874</ele>
        <time>2019-06-15T07:11:45.000Z</time>
      </trkpt>
      <trkpt lat="44.97206" lon="5.39819">
        <ele>874</ele>
        <time>2019-06-15T07:11:46.000Z</time>
      </trkpt>
      <trkpt lat="44.97207" lon="5.39818">
        <ele>874</ele>
        <time>2019-06-15T07:11:47.000Z</time>
      </trkpt>
      <trkpt lat="44.97208" lon="5.39817">
        <ele>874</ele>
        <time>2019-06-15T07:11:48.000Z</time>
      </trkpt>
      <trkpt lat="44.97209" lon="5.39817">
        <ele>874</ele>
        <time>2019-06-15T07:11:49.000Z</time>
      </trkpt>
      <trkpt lat="44.97209" lon="5.39816">
        <ele>874</ele>
        <time>2019-06-15T07:11:50.000Z</time>
      </trkpt>
      <trkpt lat="44.9721" lon="5.39814">
        <ele>873</ele>
        <time>2019-06-15T07:11:51.000Z</time>
      </trkpt>
      <trkpt lat="44.97211" lon="5.39813">
        <ele>874</ele>
        <time>2019-06-15T07:11:52.000Z</time>
      </trkpt>
      <trkpt lat="44.97212" lon="5.39812">
        <ele>875</ele>
        <time>2019-06-15T07:11:53.000Z</time>
      </trkpt>
      <trkpt lat="44.97213" lon="5.39811">
        <ele>875</ele>
        <time>2019-06-15T07:11:54.000Z</time>
      </trkpt>
      <trkpt lat="44.97215" lon="5.3981">
        <ele>874</ele>
        <time>2019-06-15T07:11:55.000Z</time>
      </trkpt>
      <trkpt lat="44.97216" lon="5.39808">
        <ele>875</ele>
        <time>2019-06-15T07:11:56.000Z</time>
      </trkpt>
      <trkpt lat="44.97218" lon="5.39806">
        <ele>876</ele>
        <time>2019-06-15T07:11:57.000Z</time>
      </trkpt>
      <trkpt lat="44.9722" lon="5.39805">
        <ele>877</ele>
        <time>2019-06-15T07:11:58.000Z</time>
      </trkpt>
      <trkpt lat="44.97222" lon="5.39804">
        <ele>878</ele>
        <time>2019-06-15T07:11:59.000Z</time>
      </trkpt>
      <trkpt lat="44.97223" lon="5.39803">
        <ele>879</ele>
        <time>2019-06-15T07:12:00.000Z</time>
      </trkpt>
      <trkpt lat="44.97224" lon="5.39803">
        <ele>879</ele>
        <time>2019-06-15T07:12:01.000Z</time>
      </trkpt>
      <trkpt lat="44.97225" lon="5.39802">
        <ele>879</ele>
        <time>2019-06-15T07:12:02.000Z</time>
      </trkpt>
      <trkpt lat="44.97227" lon="5.39801">
        <ele>879</ele>
        <time>2019-06-15T07:12:03.000Z</time>
      </trkpt>
      <trkpt lat="44.97228" lon="5.39801">
        <ele>880</ele>
        <time>2019-06-15T07:12:04.000Z</time>
      </trkpt>
      <trkpt lat="44.9723" lon="5.398">
        <ele>880</ele>
        <time>2019-06-15T07:12:05.000Z</time>
      </trkpt>
      <trkpt lat="44.97231" lon="5.398">
        <ele>881</ele>
        <time>2019-06-15T07:12:06.000Z</time>
      </trkpt>
      <trkpt lat="44.97232" lon="5.39799">
        <ele>881</ele>
        <time>2019-06-15T07:12:07.000Z</time>
      </trkpt>
      <trkpt lat="44.97233" lon="5.39798">
        <ele>882</ele>
        <time>2019-06-15T07:12:08.000Z</time>
      </trkpt>
      <trkpt lat="44.97234" lon="5.39797">
        <ele>881</ele>
        <time>2019-06-15T07:12:09.000Z</time>
      </trkpt>
      <trkpt lat="44.97236" lon="5.39796">
        <ele>882</ele>
        <time>2019-06-15T07:12:10.000Z</time>
      </trkpt>
      <trkpt lat="44.97237" lon="5.39795">
        <ele>883</ele>
        <time>2019-06-15T07:12:11.000Z</time>
      </trkpt>
      <trkpt lat="44.97238" lon="5.39794">
        <ele>883</ele>
        <time>2019-06-15T07:12:12.000Z</time>
      </trkpt>
      <trkpt lat="44.9724" lon="5.39793">
        <ele>883</ele>
        <time>2019-06-15T07:12:13.000Z</time>
      </trkpt>
      <trkpt lat="44.97241" lon="5.39792">
        <ele>883</ele>
        <time>2019-06-15T07:12:14.000Z</time>
      </trkpt>
      <trkpt lat="44.97243" lon="5.39791">
        <ele>883</ele>
        <time>2019-06-15T07:12:15.000Z</time>
      </trkpt>
      <trkpt lat="44.97244" lon="5.39791">
        <ele>884</ele>
        <time>2019-06-15T07:12:16.000Z</time>
      </trkpt>
      <trkpt lat="44.97246" lon="5.3979">
        <ele>884</ele>
        <time>2019-06-15T07:12:17.000Z</time>
      </trkpt>
      <trkpt lat="44.97247" lon="5.3979">
        <ele>884</ele>
        <time>2019-06-15T07:12:18.000Z</time>
      </trkpt>
      <trkpt lat="44.97249" lon="5.39789">
        <ele>883</ele>
        <time>2019-06-15T07:12:19.000Z</time>
      </trkpt>
      <trkpt lat="44.97251" lon="5.39788">
        <ele>882</ele>
        <time>2019-06-15T07:12:20.000Z</time>
      </trkpt>
      <trkpt lat="44.97253" lon="5.39787">
        <ele>881</ele>
        <time>2019-06-15T07:12:21.000Z</time>
      </trkpt>
      <trkpt lat="44.97255" lon="5.39787">
        <ele>882</ele>
        <time>2019-06-15T07:12:22.000Z</time>
      </trkpt>
      <trkpt lat="44.97257" lon="5.39786">
        <ele>882</ele>
        <time>2019-06-15T07:12:23.000Z</time>
      </trkpt>
      <trkpt lat="44.97259" lon="5.39786">
        <ele>882</ele>
        <time>2019-06-15T07:12:24.000Z</time>
      </trkpt>
      <trkpt lat="44.97261" lon="5.39786">
        <ele>883</ele>
        <time>2019-06-15T07:12:25.000Z</time>
      </trkpt>
      <trkpt lat="44.97263" lon="5.39786">
        <ele>884</ele>
        <time>2019-06-15T07:12:26.000Z</time>
      </trkpt>
      <trkpt lat="44.97264" lon="5.39786">
        <ele>886</ele>
        <time>2019-06-15T07:12:27.000Z</time>
      </trkpt>
      <trkpt lat="44.97266" lon="5.39786">
        <ele>886</ele>
        <time>2019-06-15T07:12:28.000Z</time>
      </trkpt>
      <trkpt lat="44.97268" lon="5.39786">
        <ele>886</ele>
        <time>2019-06-15T07:12:29.000Z</time>
      </trkpt>
      <trkpt lat="44.9727" lon="5.39786">
        <ele>887</ele>
        <time>2019-06-15T07:12:30.000Z</time>
      </trkpt>
      <trkpt lat="44.97273" lon="5.39786">
        <ele>887</ele>
        <time>2019-06-15T07:12:31.000Z</time>
      </trkpt>
      <trkpt lat="44.97275" lon="5.39787">
        <ele>887</ele>
        <time>2019-06-15T07:12:32.000Z</time>
      </trkpt>
      <trkpt lat="44.97277" lon="5.39787">
        <ele>886</ele>
        <time>2019-06-15T07:12:33.000Z</time>
      </trkpt>
      <trkpt lat="44.97279" lon="5.39788">
        <ele>887</ele>
        <time>2019-06-15T07:12:34.000Z</time>
      </trkpt>
      <trkpt lat="44.97281" lon="5.39788">
        <ele>888</ele>
        <time>2019-06-15T07:12:35.000Z</time>
      </trkpt>
      <trkpt lat="44.97283" lon="5.39788">
        <ele>887</ele>
        <time>2019-06-15T07:12:36.000Z</time>
      </trkpt>
      <trkpt lat="44.97285" lon="5.39788">
        <ele>887</ele>
        <time>2019-06-15T07:12:37.000Z</time>
      </trkpt>
      <trkpt lat="44.97287" lon="5.39788">
        <ele>887</ele>
        <time>2019-06-15T07:12:38.000Z</time>
      </trkpt>
      <trkpt lat="44.97288" lon="5.39788">
        <ele>887</ele>
        <time>2019-06-15T07:12:39.000Z</time>
      </trkpt>
      <trkpt lat="44.9729" lon="5.39788">
        <ele>888</ele>
        <time>2019-06-15T07:12:40.000Z</time>
      </trkpt>
      <trkpt lat="44.97292" lon="5.39788">
        <ele>889</ele>
        <time>2019-06-15T07:12:41.000Z</time>
      </trkpt>
      <trkpt lat="44.97294" lon="5.39789">
        <ele>890</ele>
        <time>2019-06-15T07:12:42.000Z</time>
      </trkpt>
      <trkpt lat="44.97295" lon="5.39789">
        <ele>890</ele>
        <time>2019-06-15T07:12:43.000Z</time>
      </trkpt>
      <trkpt lat="44.97296" lon="5.39789">
        <ele>891</ele>
        <time>2019-06-15T07:12:44.000Z</time>
      </trkpt>
      <trkpt lat="44.97297" lon="5.39789">
        <ele>892</ele>
        <time>2019-06-15T07:12:45.000Z</time>
      </trkpt>
      <trkpt lat="44.97299" lon="5.39789">
        <ele>892</ele>
        <time>2019-06-15T07:12:46.000Z</time>
      </trkpt>
      <trkpt lat="44.97301" lon="5.3979">
        <ele>893</ele>
        <time>2019-06-15T07:12:47.000Z</time>
      </trkpt>
      <trkpt lat="44.97302" lon="5.3979">
        <ele>892</ele>
        <time>2019-06-15T07:12:48.000Z</time>
      </trkpt>
      <trkpt lat="44.97304" lon="5.3979">
        <ele>893</ele>
        <time>2019-06-15T07:12:49.000Z</time>
      </trkpt>
      <trkpt lat="44.97306" lon="5.3979">
        <ele>893</ele>
        <time>2019-06-15T07:12:50.000Z</time>
      </trkpt>
      <trkpt lat="44.97308" lon="5.3979">
        <ele>893</ele>
        <time>2019-06-15T07:12:51.000Z</time>
      </trkpt>
      <trkpt lat="44.97309" lon="5.3979">
        <ele>893</ele>
        <time>2019-06-15T07:12:52.000Z</time>
      </trkpt>
      <trkpt lat="44.97311" lon="5.3979">
        <ele>894</ele>
        <time>2019-06-15T07:12:53.000Z</time>
      </trkpt>
      <trkpt lat="44.97313" lon="5.3979">
        <ele>894</ele>
        <time>2019-06-15T07:12:54.000Z</time>
      </trkpt>
      <trkpt lat="44.97315" lon="5.3979">
        <ele>895</ele>
        <time>2019-06-15T07:12:55.000Z</time>
      </trkpt>
      <trkpt lat="44.97317" lon="5.39789">
        <ele>895</ele>
        <time>2019-06-15T07:12:56.000Z</time>
      </trkpt>
      <trkpt lat="44.97319" lon="5.39789">
        <ele>896</ele>
        <time>2019-06-15T07:12:57.000Z</time>
      </trkpt>
      <trkpt lat="44.97321" lon="5.39789">
        <ele>896</ele>
        <time>2019-06-15T07:12:58.000Z</time>
      </trkpt>
      <trkpt lat="44.97324" lon="5.39788">
        <ele>896</ele>
        <time>2019-06-15T07:12:59.000Z</time>
      </trkpt>
      <trkpt lat="44.97326" lon="5.39787">
        <ele>896</ele>
        <time>2019-06-15T07:13:00.000Z</time>
      </trkpt>
      <trkpt lat="44.97328" lon="5.39787">
        <ele>896</ele>
        <time>2019-06-15T07:13:01.000Z</time>
      </trkpt>
      <trkpt lat="44.9733" lon="5.39785">
        <ele>896</ele>
        <time>2019-06-15T07:13:02.000Z</time>
      </trkpt>
      <trkpt lat="44.97332" lon="5.39784">
        <ele>896</ele>
        <time>2019-06-15T07:13:03.000Z</time>
      </trkpt>
      <trkpt lat="44.97334" lon="5.39783">
        <ele>897</ele>
        <time>2019-06-15T07:13:04.000Z</time>
      </trkpt>
      <trkpt lat="44.97336" lon="5.39781">
        <ele>896</ele>
        <time>2019-06-15T07:13:05.000Z</time>
      </trkpt>
      <trkpt lat="44.97338" lon="5.39779">
        <ele>896</ele>
        <time>2019-06-15T07:13:06.000Z</time>
      </trkpt>
      <trkpt lat="44.9734" lon="5.39777">
        <ele>896</ele>
        <time>2019-06-15T07:13:07.000Z</time>
      </trkpt>
      <trkpt lat="44.97342" lon="5.39775">
        <ele>895</ele>
        <time>2019-06-15T07:13:08.000Z</time>
      </trkpt>
      <trkpt lat="44.97344" lon="5.39773">
        <ele>895</ele>
        <time>2019-06-15T07:13:09.000Z</time>
      </trkpt>
      <trkpt lat="44.97346" lon="5.39771">
        <ele>895</ele>
        <time>2019-06-15T07:13:10.000Z</time>
      </trkpt>
      <trkpt lat="44.97347" lon="5.3977">
        <ele>896</ele>
        <time>2019-06-15T07:13:11.000Z</time>
      </trkpt>
      <trkpt lat="44.97348" lon="5.39768">
        <ele>896</ele>
        <time>2019-06-15T07:13:12.000Z</time>
      </trkpt>
      <trkpt lat="44.9735" lon="5.39766">
        <ele>897</ele>
        <time>2019-06-15T07:13:13.000Z</time>
      </trkpt>
      <trkpt lat="44.97351" lon="5.39765">
        <ele>897</ele>
        <time>2019-06-15T07:13:14.000Z</time>
      </trkpt>
      <trkpt lat="44.97353" lon="5.39764">
        <ele>897</ele>
        <time>2019-06-15T07:13:15.000Z</time>
      </trkpt>
      <trkpt lat="44.97355" lon="5.39762">
        <ele>898</ele>
        <time>2019-06-15T07:13:16.000Z</time>
      </trkpt>
      <trkpt lat="44.97357" lon="5.39761">
        <ele>898</ele>
        <time>2019-06-15T07:13:17.000Z</time>
      </trkpt>
      <trkpt lat="44.97359" lon="5.3976">
        <ele>899</ele>
        <time>2019-06-15T07:13:18.000Z</time>
      </trkpt>
      <trkpt lat="44.9736" lon="5.3976">
        <ele>900</ele>
        <time>2019-06-15T07:13:19.000Z</time>
      </trkpt>
      <trkpt lat="44.97362" lon="5.39759">
        <ele>901</ele>
        <time>2019-06-15T07:13:20.000Z</time>
      </trkpt>
      <trkpt lat="44.97363" lon="5.39758">
        <ele>901</ele>
        <time>2019-06-15T07:13:21.000Z</time>
      </trkpt>
      <trkpt lat="44.97365" lon="5.39757">
        <ele>901</ele>
        <time>2019-06-15T07:13:22.000Z</time>
      </trkpt>
      <trkpt lat="44.97366" lon="5.39757">
        <ele>902</ele>
        <time>2019-06-15T07:13:23.000Z</time>
      </trkpt>
      <trkpt lat="44.97367" lon="5.39756">
        <ele>902</ele>
        <time>2019-06-15T07:13:24.000Z</time>
      </trkpt>
      <trkpt lat="44.97369" lon="5.39756">
        <ele>902</ele>
        <time>2019-06-15T07:13:25.000Z</time>
      </trkpt>
      <trkpt lat="44.9737" lon="5.39755">
        <ele>903</ele>
        <time>2019-06-15T07:13:26.000Z</time>
      </trkpt>
      <trkpt lat="44.97371" lon="5.39755">
        <ele>903</ele>
        <time>2019-06-15T07:13:27.000Z</time>
      </trkpt>
      <trkpt lat="44.97373" lon="5.39755">
        <ele>904</ele>
        <time>2019-06-15T07:13:28.000Z</time>
      </trkpt>
      <trkpt lat="44.97374" lon="5.39755">
        <ele>904</ele>
        <time>2019-06-15T07:13:29.000Z</time>
      </trkpt>
      <trkpt lat="44.97376" lon="5.39755">
        <ele>905</ele>
        <time>2019-06-15T07:13:30.000Z</time>
      </trkpt>
      <trkpt lat="44.97378" lon="5.39754">
        <ele>905</ele>
        <time>2019-06-15T07:13:31.000Z</time>
      </trkpt>
      <trkpt lat="44.9738" lon="5.39753">
        <ele>905</ele>
        <time>2019-06-15T07:13:32.000Z</time>
      </trkpt>
      <trkpt lat="44.97382" lon="5.39752">
        <ele>904</ele>
        <time>2019-06-15T07:13:33.000Z</time>
      </trkpt>
      <trkpt lat="44.97386" lon="5.39751">
        <ele>904</ele>
        <time>2019-06-15T07:13:34.000Z</time>
      </trkpt>
      <trkpt lat="44.97389" lon="5.3975">
        <ele>903</ele>
        <time>2019-06-15T07:13:35.000Z</time>
      </trkpt>
      <trkpt lat="44.97392" lon="5.39749">
        <ele>903</ele>
        <time>2019-06-15T07:13:36.000Z</time>
      </trkpt>
      <trkpt lat="44.97395" lon="5.39748">
        <ele>902</ele>
        <time>2019-06-15T07:13:37.000Z</time>
      </trkpt>
      <trkpt lat="44.97399" lon="5.39746">
        <ele>903</ele>
        <time>2019-06-15T07:13:38.000Z</time>
      </trkpt>
      <trkpt lat="44.97402" lon="5.39745">
        <ele>903</ele>
        <time>2019-06-15T07:13:39.000Z</time>
      </trkpt>
      <trkpt lat="44.97404" lon="5.39744">
        <ele>903</ele>
        <time>2019-06-15T07:13:40.000Z</time>
      </trkpt>
      <trkpt lat="44.97407" lon="5.39744">
        <ele>903</ele>
        <time>2019-06-15T07:13:41.000Z</time>
      </trkpt>
      <trkpt lat="44.97409" lon="5.39743">
        <ele>903</ele>
        <time>2019-06-15T07:13:42.000Z</time>
      </trkpt>
      <trkpt lat="44.97412" lon="5.39741">
        <ele>903</ele>
        <time>2019-06-15T07:13:43.000Z</time>
      </trkpt>
      <trkpt lat="44.97415" lon="5.39741">
        <ele>903</ele>
        <time>2019-06-15T07:13:44.000Z</time>
      </trkpt>
      <trkpt lat="44.97417" lon="5.39741">
        <ele>904</ele>
        <time>2019-06-15T07:13:45.000Z</time>
      </trkpt>
      <trkpt lat="44.97419" lon="5.39741">
        <ele>904</ele>
        <time>2019-06-15T07:13:46.000Z</time>
      </trkpt>
      <trkpt lat="44.97422" lon="5.39741">
        <ele>904</ele>
        <time>2019-06-15T07:13:47.000Z</time>
      </trkpt>
      <trkpt lat="44.97424" lon="5.3974">
        <ele>905</ele>
        <time>2019-06-15T07:13:48.000Z</time>
      </trkpt>
      <trkpt lat="44.97427" lon="5.3974">
        <ele>906</ele>
        <time>2019-06-15T07:13:49.000Z</time>
      </trkpt>
      <trkpt lat="44.9743" lon="5.39739">
        <ele>907</ele>
        <time>2019-06-15T07:13:50.000Z</time>
      </trkpt>
      <trkpt lat="44.97433" lon="5.39738">
        <ele>907</ele>
        <time>2019-06-15T07:13:51.000Z</time>
      </trkpt>
      <trkpt lat="44.97435" lon="5.39738">
        <ele>908</ele>
        <time>2019-06-15T07:13:52.000Z</time>
      </trkpt>
      <trkpt lat="44.97437" lon="5.39737">
        <ele>909</ele>
        <time>2019-06-15T07:13:53.000Z</time>
      </trkpt>
      <trkpt lat="44.97439" lon="5.39736">
        <ele>910</ele>
        <time>2019-06-15T07:13:54.000Z</time>
      </trkpt>
      <trkpt lat="44.97441" lon="5.39735">
        <ele>910</ele>
        <time>2019-06-15T07:13:55.000Z</time>
      </trkpt>
      <trkpt lat="44.97444" lon="5.39735">
        <ele>910</ele>
        <time>2019-06-15T07:13:56.000Z</time>
      </trkpt>
      <trkpt lat="44.97446" lon="5.39735">
        <ele>911</ele>
        <time>2019-06-15T07:13:57.000Z</time>
      </trkpt>
      <trkpt lat="44.97448" lon="5.39734">
        <ele>911</ele>
        <time>2019-06-15T07:13:58.000Z</time>
      </trkpt>
      <trkpt lat="44.9745" lon="5.39733">
        <ele>911</ele>
        <time>2019-06-15T07:13:59.000Z</time>
      </trkpt>
      <trkpt lat="44.97452" lon="5.39732">
        <ele>912</ele>
        <time>2019-06-15T07:14:00.000Z</time>
      </trkpt>
      <trkpt lat="44.97454" lon="5.39731">
        <ele>913</ele>
        <time>2019-06-15T07:14:01.000Z</time>
      </trkpt>
      <trkpt lat="44.97457" lon="5.3973">
        <ele>913</ele>
        <time>2019-06-15T07:14:02.000Z</time>
      </trkpt>
      <trkpt lat="44.97459" lon="5.39729">
        <ele>914</ele>
        <time>2019-06-15T07:14:03.000Z</time>
      </trkpt>
      <trkpt lat="44.97461" lon="5.39729">
        <ele>914</ele>
        <time>2019-06-15T07:14:04.000Z</time>
      </trkpt>
      <trkpt lat="44.97463" lon="5.39728">
        <ele>914</ele>
        <time>2019-06-15T07:14:05.000Z</time>
      </trkpt>
      <trkpt lat="44.97464" lon="5.39727">
        <ele>915</ele>
        <time>2019-06-15T07:14:06.000Z</time>
      </trkpt>
      <trkpt lat="44.97466" lon="5.39726">
        <ele>915</ele>
        <time>2019-06-15T07:14:07.000Z</time>
      </trkpt>
      <trkpt lat="44.97468" lon="5.39726">
        <ele>915</ele>
        <time>2019-06-15T07:14:08.000Z</time>
      </trkpt>
      <trkpt lat="44.9747" lon="5.39725">
        <ele>915</ele>
        <time>2019-06-15T07:14:09.000Z</time>
      </trkpt>
      <trkpt lat="44.97472" lon="5.39723">
        <ele>915</ele>
        <time>2019-06-15T07:14:10.000Z</time>
      </trkpt>
      <trkpt lat="44.97473" lon="5.39722">
        <ele>915</ele>
        <time>2019-06-15T07:14:11.000Z</time>
      </trkpt>
      <trkpt lat="44.97475" lon="5.39721">
        <ele>915</ele>
        <time>2019-06-15T07:14:12.000Z</time>
      </trkpt>
      <trkpt lat="44.97477" lon="5.3972">
        <ele>915</ele>
        <time>2019-06-15T07:14:13.000Z</time>
      </trkpt>
      <trkpt lat="44.97479" lon="5.39719">
        <ele>915</ele>
        <time>2019-06-15T07:14:14.000Z</time>
      </trkpt>
      <trkpt lat="44.9748" lon="5.39717">
        <ele>915</ele>
        <time>2019-06-15T07:14:15.000Z</time>
      </trkpt>
      <trkpt lat="44.97482" lon="5.39717">
        <ele>916</ele>
        <time>2019-06-15T07:14:16.000Z</time>
      </trkpt>
      <trkpt lat="44.97483" lon="5.39716">
        <ele>916</ele>
        <time>2019-06-15T07:14:17.000Z</time>
      </trkpt>
      <trkpt lat="44.97485" lon="5.39716">
        <ele>917</ele>
        <time>2019-06-15T07:14:18.000Z</time>
      </trkpt>
      <trkpt lat="44.97487" lon="5.39716">
        <ele>917</ele>
        <time>2019-06-15T07:14:19.000Z</time>
      </trkpt>
      <trkpt lat="44.97488" lon="5.39715">
        <ele>917</ele>
        <time>2019-06-15T07:14:20.000Z</time>
      </trkpt>
      <trkpt lat="44.97489" lon="5.39715">
        <ele>918</ele>
        <time>2019-06-15T07:14:21.000Z</time>
      </trkpt>
      <trkpt lat="44.97491" lon="5.39715">
        <ele>918</ele>
        <time>2019-06-15T07:14:22.000Z</time>
      </trkpt>
      <trkpt lat="44.97492" lon="5.39714">
        <ele>918</ele>
        <time>2019-06-15T07:14:23.000Z</time>
      </trkpt>
      <trkpt lat="44.97494" lon="5.39713">
        <ele>918</ele>
        <time>2019-06-15T07:14:24.000Z</time>
      </trkpt>
      <trkpt lat="44.97496" lon="5.39712">
        <ele>918</ele>
        <time>2019-06-15T07:14:25.000Z</time>
      </trkpt>
      <trkpt lat="44.97497" lon="5.39712">
        <ele>919</ele>
        <time>2019-06-15T07:14:26.000Z</time>
      </trkpt>
      <trkpt lat="44.97499" lon="5.39711">
        <ele>920</ele>
        <time>2019-06-15T07:14:27.000Z</time>
      </trkpt>
      <trkpt lat="44.97501" lon="5.39711">
        <ele>920</ele>
        <time>2019-06-15T07:14:28.000Z</time>
      </trkpt>
      <trkpt lat="44.97503" lon="5.3971">
        <ele>921</ele>
        <time>2019-06-15T07:14:29.000Z</time>
      </trkpt>
      <trkpt lat="44.97505" lon="5.3971">
        <ele>921</ele>
        <time>2019-06-15T07:14:30.000Z</time>
      </trkpt>
      <trkpt lat="44.97507" lon="5.39709">
        <ele>921</ele>
        <time>2019-06-15T07:14:31.000Z</time>
      </trkpt>
      <trkpt lat="44.97508" lon="5.39709">
        <ele>922</ele>
        <time>2019-06-15T07:14:32.000Z</time>
      </trkpt>
      <trkpt lat="44.9751" lon="5.39709">
        <ele>922</ele>
        <time>2019-06-15T07:14:33.000Z</time>
      </trkpt>
      <trkpt lat="44.97511" lon="5.39709">
        <ele>923</ele>
        <time>2019-06-15T07:14:34.000Z</time>
      </trkpt>
      <trkpt lat="44.97514" lon="5.39709">
        <ele>924</ele>
        <time>2019-06-15T07:14:35.000Z</time>
      </trkpt>
      <trkpt lat="44.97516" lon="5.39709">
        <ele>924</ele>
        <time>2019-06-15T07:14:36.000Z</time>
      </trkpt>
      <trkpt lat="44.97517" lon="5.39708">
        <ele>925</ele>
        <time>2019-06-15T07:14:37.000Z</time>
      </trkpt>
      <trkpt lat="44.97519" lon="5.39707">
        <ele>925</ele>
        <time>2019-06-15T07:14:38.000Z</time>
      </trkpt>
      <trkpt lat="44.97521" lon="5.39706">
        <ele>925</ele>
        <time>2019-06-15T07:14:39.000Z</time>
      </trkpt>
      <trkpt lat="44.97523" lon="5.39705">
        <ele>926</ele>
        <time>2019-06-15T07:14:40.000Z</time>
      </trkpt>
      <trkpt lat="44.97525" lon="5.39704">
        <ele>926</ele>
        <time>2019-06-15T07:14:41.000Z</time>
      </trkpt>
      <trkpt lat="44.97526" lon="5.39703">
        <ele>926</ele>
        <time>2019-06-15T07:14:42.000Z</time>
      </trkpt>
      <trkpt lat="44.97528" lon="5.39703">
        <ele>926</ele>
        <time>2019-06-15T07:14:43.000Z</time>
      </trkpt>
      <trkpt lat="44.9753" lon="5.39702">
        <ele>926</ele>
        <time>2019-06-15T07:14:44.000Z</time>
      </trkpt>
      <trkpt lat="44.97531" lon="5.397">
        <ele>926</ele>
        <time>2019-06-15T07:14:45.000Z</time>
      </trkpt>
      <trkpt lat="44.97533" lon="5.39699">
        <ele>926</ele>
        <time>2019-06-15T07:14:46.000Z</time>
      </trkpt>
      <trkpt lat="44.97535" lon="5.39698">
        <ele>926</ele>
        <time>2019-06-15T07:14:47.000Z</time>
      </trkpt>
      <trkpt lat="44.97537" lon="5.39697">
        <ele>926</ele>
        <time>2019-06-15T07:14:48.000Z</time>
      </trkpt>
      <trkpt lat="44.97539" lon="5.39696">
        <ele>925</ele>
        <time>2019-06-15T07:14:49.000Z</time>
      </trkpt>
      <trkpt lat="44.97541" lon="5.39695">
        <ele>925</ele>
        <time>2019-06-15T07:14:50.000Z</time>
      </trkpt>
      <trkpt lat="44.97542" lon="5.39694">
        <ele>924</ele>
        <time>2019-06-15T07:14:51.000Z</time>
      </trkpt>
      <trkpt lat="44.97544" lon="5.39692">
        <ele>924</ele>
        <time>2019-06-15T07:14:52.000Z</time>
      </trkpt>
      <trkpt lat="44.97545" lon="5.3969">
        <ele>925</ele>
        <time>2019-06-15T07:14:53.000Z</time>
      </trkpt>
      <trkpt lat="44.97546" lon="5.3969">
        <ele>926</ele>
        <time>2019-06-15T07:14:54.000Z</time>
      </trkpt>
      <trkpt lat="44.97545" lon="5.3969">
        <ele>927</ele>
        <time>2019-06-15T07:14:55.000Z</time>
      </trkpt>
      <trkpt lat="44.97544" lon="5.3969">
        <ele>927</ele>
        <time>2019-06-15T07:14:56.000Z</time>
      </trkpt>
      <trkpt lat="44.97543" lon="5.39689">
        <ele>927</ele>
        <time>2019-06-15T07:14:57.000Z</time>
      </trkpt>
      <trkpt lat="44.97542" lon="5.39689">
        <ele>926</ele>
        <time>2019-06-15T07:14:58.000Z</time>
      </trkpt>
      <trkpt lat="44.97541" lon="5.39688">
        <ele>926</ele>
        <time>2019-06-15T07:14:59.000Z</time>
      </trkpt>
      <trkpt lat="44.9754" lon="5.39688">
        <ele>927</ele>
        <time>2019-06-15T07:15:00.000Z</time>
      </trkpt>
      <trkpt lat="44.97538" lon="5.39688">
        <ele>927</ele>
        <time>2019-06-15T07:15:01.000Z</time>
      </trkpt>
      <trkpt lat="44.97538" lon="5.39687">
        <ele>928</ele>
        <time>2019-06-15T07:15:02.000Z</time>
      </trkpt>
      <trkpt lat="44.97537" lon="5.39687">
        <ele>928</ele>
        <time>2019-06-15T07:15:03.000Z</time>
      </trkpt>
      <trkpt lat="44.97536" lon="5.39687">
        <ele>928</ele>
        <time>2019-06-15T07:15:04.000Z</time>
      </trkpt>
      <trkpt lat="44.97535" lon="5.39687">
        <ele>929</ele>
        <time>2019-06-15T07:15:05.000Z</time>
      </trkpt>
      <trkpt lat="44.97534" lon="5.39687">
        <ele>930</ele>
        <time>2019-06-15T07:15:06.000Z</time>
      </trkpt>
      <trkpt lat="44.97533" lon="5.39687">
        <ele>930</ele>
        <time>2019-06-15T07:15:07.000Z</time>
      </trkpt>
      <trkpt lat="44.97532" lon="5.39687">
        <ele>931</ele>
        <time>2019-06-15T07:15:08.000Z</time>
      </trkpt>
      <trkpt lat="44.97531" lon="5.39686">
        <ele>930</ele>
        <time>2019-06-15T07:15:09.000Z</time>
      </trkpt>
      <trkpt lat="44.9753" lon="5.39686">
        <ele>931</ele>
        <time>2019-06-15T07:15:10.000Z</time>
      </trkpt>
      <trkpt lat="44.97529" lon="5.39685">
        <ele>931</ele>
        <time>2019-06-15T07:15:11.000Z</time>
      </trkpt>
      <trkpt lat="44.97527" lon="5.39684">
        <ele>931</ele>
        <time>2019-06-15T07:15:12.000Z</time>
      </trkpt>
      <trkpt lat="44.97526" lon="5.39684">
        <ele>931</ele>
        <time>2019-06-15T07:15:13.000Z</time>
      </trkpt>
      <trkpt lat="44.97525" lon="5.39683">
        <ele>932</ele>
        <time>2019-06-15T07:15:14.000Z</time>
      </trkpt>
      <trkpt lat="44.97524" lon="5.39683">
        <ele>932</ele>
        <time>2019-06-15T07:15:15.000Z</time>
      </trkpt>
      <trkpt lat="44.97522" lon="5.39683">
        <ele>932</ele>
        <time>2019-06-15T07:15:16.000Z</time>
      </trkpt>
      <trkpt lat="44.97521" lon="5.39682">
        <ele>932</ele>
        <time>2019-06-15T07:15:17.000Z</time>
      </trkpt>
      <trkpt lat="44.9752" lon="5.39682">
        <ele>932</ele>
        <time>2019-06-15T07:15:18.000Z</time>
      </trkpt>
      <trkpt lat="44.97519" lon="5.39682">
        <ele>932</ele>
        <time>2019-06-15T07:15:19.000Z</time>
      </trkpt>
      <trkpt lat="44.97518" lon="5.39682">
        <ele>932</ele>
        <time>2019-06-15T07:15:20.000Z</time>
      </trkpt>
      <trkpt lat="44.97517" lon="5.39682">
        <ele>932</ele>
        <time>2019-06-15T07:15:21.000Z</time>
      </trkpt>
      <trkpt lat="44.97515" lon="5.39681">
        <ele>932</ele>
        <time>2019-06-15T07:15:22.000Z</time>
      </trkpt>
      <trkpt lat="44.97513" lon="5.39681">
        <ele>933</ele>
        <time>2019-06-15T07:15:23.000Z</time>
      </trkpt>
      <trkpt lat="44.97512" lon="5.39681">
        <ele>933</ele>
        <time>2019-06-15T07:15:24.000Z</time>
      </trkpt>
      <trkpt lat="44.97511" lon="5.3968">
        <ele>933</ele>
        <time>2019-06-15T07:15:25.000Z</time>
      </trkpt>
      <trkpt lat="44.9751" lon="5.3968">
        <ele>934</ele>
        <time>2019-06-15T07:15:26.000Z</time>
      </trkpt>
      <trkpt lat="44.97509" lon="5.3968">
        <ele>934</ele>
        <time>2019-06-15T07:15:27.000Z</time>
      </trkpt>
      <trkpt lat="44.97508" lon="5.39679">
        <ele>934</ele>
        <time>2019-06-15T07:15:28.000Z</time>
      </trkpt>
      <trkpt lat="44.97507" lon="5.39679">
        <ele>935</ele>
        <time>2019-06-15T07:15:29.000Z</time>
      </trkpt>
      <trkpt lat="44.97507" lon="5.39679">
        <ele>935</ele>
        <time>2019-06-15T07:15:30.000Z</time>
      </trkpt>
      <trkpt lat="44.97506" lon="5.39679">
        <ele>936</ele>
        <time>2019-06-15T07:15:31.000Z</time>
      </trkpt>
      <trkpt lat="44.97505" lon="5.39678">
        <ele>936</ele>
        <time>2019-06-15T07:15:32.000Z</time>
      </trkpt>
      <trkpt lat="44.97504" lon="5.39678">
        <ele>937</ele>
        <time>2019-06-15T07:15:33.000Z</time>
      </trkpt>
      <trkpt lat="44.97503" lon="5.39677">
        <ele>937</ele>
        <time>2019-06-15T07:15:34.000Z</time>
      </trkpt>
      <trkpt lat="44.97503" lon="5.39676">
        <ele>937</ele>
        <time>2019-06-15T07:15:35.000Z</time>
      </trkpt>
      <trkpt lat="44.97502" lon="5.39676">
        <ele>938</ele>
        <time>2019-06-15T07:15:36.000Z</time>
      </trkpt>
      <trkpt lat="44.97501" lon="5.39675">
        <ele>938</ele>
        <time>2019-06-15T07:15:37.000Z</time>
      </trkpt>
      <trkpt lat="44.975" lon="5.39675">
        <ele>938</ele>
        <time>2019-06-15T07:15:38.000Z</time>
      </trkpt>
      <trkpt lat="44.975" lon="5.39675">
        <ele>938</ele>
        <time>2019-06-15T07:15:39.000Z</time>
      </trkpt>
      <trkpt lat="44.97499" lon="5.39675">
        <ele>939</ele>
        <time>2019-06-15T07:15:40.000Z</time>
      </trkpt>
      <trkpt lat="44.97498" lon="5.39675">
        <ele>940</ele>
        <time>2019-06-15T07:15:41.000Z</time>
      </trkpt>
      <trkpt lat="44.97498" lon="5.39676">
        <ele>941</ele>
        <time>2019-06-15T07:15:42.000Z</time>
      </trkpt>
      <trkpt lat="44.97497" lon="5.39676">
        <ele>941</ele>
        <time>2019-06-15T07:15:43.000Z</time>
      </trkpt>
      <trkpt lat="44.97496" lon="5.39676">
        <ele>942</ele>
        <time>2019-06-15T07:15:44.000Z</time>
      </trkpt>
      <trkpt lat="44.97495" lon="5.39675">
        <ele>942</ele>
        <time>2019-06-15T07:15:45.000Z</time>
      </trkpt>
      <trkpt lat="44.97493" lon="5.39674">
        <ele>942</ele>
        <time>2019-06-15T07:15:46.000Z</time>
      </trkpt>
      <trkpt lat="44.97491" lon="5.39673">
        <ele>942</ele>
        <time>2019-06-15T07:15:47.000Z</time>
      </trkpt>
      <trkpt lat="44.9749" lon="5.39673">
        <ele>942</ele>
        <time>2019-06-15T07:15:48.000Z</time>
      </trkpt>
      <trkpt lat="44.97488" lon="5.39672">
        <ele>943</ele>
        <time>2019-06-15T07:15:49.000Z</time>
      </trkpt>
      <trkpt lat="44.97487" lon="5.39672">
        <ele>943</ele>
        <time>2019-06-15T07:15:50.000Z</time>
      </trkpt>
      <trkpt lat="44.97486" lon="5.39672">
        <ele>943</ele>
        <time>2019-06-15T07:15:51.000Z</time>
      </trkpt>
      <trkpt lat="44.97484" lon="5.39672">
        <ele>944</ele>
        <time>2019-06-15T07:15:52.000Z</time>
      </trkpt>
      <trkpt lat="44.97483" lon="5.39671">
        <ele>944</ele>
        <time>2019-06-15T07:15:53.000Z</time>
      </trkpt>
      <trkpt lat="44.97481" lon="5.39671">
        <ele>944</ele>
        <time>2019-06-15T07:15:54.000Z</time>
      </trkpt>
      <trkpt lat="44.9748" lon="5.39671">
        <ele>945</ele>
        <time>2019-06-15T07:15:55.000Z</time>
      </trkpt>
      <trkpt lat="44.97479" lon="5.39671">
        <ele>945</ele>
        <time>2019-06-15T07:15:56.000Z</time>
      </trkpt>
      <trkpt lat="44.97478" lon="5.39671">
        <ele>945</ele>
        <time>2019-06-15T07:15:57.000Z</time>
      </trkpt>
      <trkpt lat="44.97477" lon="5.39671">
        <ele>946</ele>
        <time>2019-06-15T07:15:58.000Z</time>
      </trkpt>
      <trkpt lat="44.97476" lon="5.39671">
        <ele>946</ele>
        <time>2019-06-15T07:15:59.000Z</time>
      </trkpt>
      <trkpt lat="44.97475" lon="5.39671">
        <ele>947</ele>
        <time>2019-06-15T07:16:00.000Z</time>
      </trkpt>
      <trkpt lat="44.97473" lon="5.39671">
        <ele>948</ele>
        <time>2019-06-15T07:16:01.000Z</time>
      </trkpt>
      <trkpt lat="44.97473" lon="5.3967">
        <ele>948</ele>
        <time>2019-06-15T07:16:02.000Z</time>
      </trkpt>
      <trkpt lat="44.97472" lon="5.3967">
        <ele>949</ele>
        <time>2019-06-15T07:16:03.000Z</time>
      </trkpt>
      <trkpt lat="44.97471" lon="5.3967">
        <ele>950</ele>
        <time>2019-06-15T07:16:04.000Z</time>
      </trkpt>
      <trkpt lat="44.97469" lon="5.3967">
        <ele>949</ele>
        <time>2019-06-15T07:16:05.000Z</time>
      </trkpt>
      <trkpt lat="44.97468" lon="5.39669">
        <ele>950</ele>
        <time>2019-06-15T07:16:06.000Z</time>
      </trkpt>
      <trkpt lat="44.97467" lon="5.39669">
        <ele>950</ele>
        <time>2019-06-15T07:16:07.000Z</time>
      </trkpt>
      <trkpt lat="44.97466" lon="5.39668">
        <ele>950</ele>
        <time>2019-06-15T07:16:08.000Z</time>
      </trkpt>
      <trkpt lat="44.97465" lon="5.39667">
        <ele>950</ele>
        <time>2019-06-15T07:16:09.000Z</time>
      </trkpt>
      <trkpt lat="44.97464" lon="5.39666">
        <ele>950</ele>
        <time>2019-06-15T07:16:10.000Z</time>
      </trkpt>
      <trkpt lat="44.97463" lon="5.39665">
        <ele>951</ele>
        <time>2019-06-15T07:16:11.000Z</time>
      </trkpt>
      <trkpt lat="44.97462" lon="5.39665">
        <ele>951</ele>
        <time>2019-06-15T07:16:12.000Z</time>
      </trkpt>
      <trkpt lat="44.97461" lon="5.39664">
        <ele>952</ele>
        <time>2019-06-15T07:16:13.000Z</time>
      </trkpt>
      <trkpt lat="44.9746" lon="5.39664">
        <ele>952</ele>
        <time>2019-06-15T07:16:14.000Z</time>
      </trkpt>
      <trkpt lat="44.97459" lon="5.39664">
        <ele>953</ele>
        <time>2019-06-15T07:16:15.000Z</time>
      </trkpt>
      <trkpt lat="44.97458" lon="5.39663">
        <ele>952</ele>
        <time>2019-06-15T07:16:16.000Z</time>
      </trkpt>
      <trkpt lat="44.97457" lon="5.39663">
        <ele>952</ele>
        <time>2019-06-15T07:16:17.000Z</time>
      </trkpt>
      <trkpt lat="44.97456" lon="5.39662">
        <ele>952</ele>
        <time>2019-06-15T07:16:18.000Z</time>
      </trkpt>
      <trkpt lat="44.97455" lon="5.39662">
        <ele>952</ele>
        <time>2019-06-15T07:16:19.000Z</time>
      </trkpt>
      <trkpt lat="44.97454" lon="5.39661">
        <ele>952</ele>
        <time>2019-06-15T07:16:20.000Z</time>
      </trkpt>
      <trkpt lat="44.97454" lon="5.3966">
        <ele>952</ele>
        <time>2019-06-15T07:16:21.000Z</time>
      </trkpt>
      <trkpt lat="44.97453" lon="5.39659">
        <ele>952</ele>
        <time>2019-06-15T07:16:22.000Z</time>
      </trkpt>
      <trkpt lat="44.97452" lon="5.39658">
        <ele>952</ele>
        <time>2019-06-15T07:16:23.000Z</time>
      </trkpt>
      <trkpt lat="44.97451" lon="5.39657">
        <ele>953</ele>
        <time>2019-06-15T07:16:24.000Z</time>
      </trkpt>
      <trkpt lat="44.9745" lon="5.39657">
        <ele>953</ele>
        <time>2019-06-15T07:16:25.000Z</time>
      </trkpt>
      <trkpt lat="44.97449" lon="5.39656">
        <ele>954</ele>
        <time>2019-06-15T07:16:26.000Z</time>
      </trkpt>
      <trkpt lat="44.97448" lon="5.39655">
        <ele>954</ele>
        <time>2019-06-15T07:16:27.000Z</time>
      </trkpt>
      <trkpt lat="44.97446" lon="5.39654">
        <ele>955</ele>
        <time>2019-06-15T07:16:28.000Z</time>
      </trkpt>
      <trkpt lat="44.97445" lon="5.39653">
        <ele>955</ele>
        <time>2019-06-15T07:16:29.000Z</time>
      </trkpt>
      <trkpt lat="44.97443" lon="5.39651">
        <ele>955</ele>
        <time>2019-06-15T07:16:30.000Z</time>
      </trkpt>
      <trkpt lat="44.97442" lon="5.3965">
        <ele>954</ele>
        <time>2019-06-15T07:16:31.000Z</time>
      </trkpt>
      <trkpt lat="44.97441" lon="5.39648">
        <ele>955</ele>
        <time>2019-06-15T07:16:32.000Z</time>
      </trkpt>
      <trkpt lat="44.97439" lon="5.39646">
        <ele>954</ele>
        <time>2019-06-15T07:16:33.000Z</time>
      </trkpt>
      <trkpt lat="44.97438" lon="5.39645">
        <ele>954</ele>
        <time>2019-06-15T07:16:34.000Z</time>
      </trkpt>
      <trkpt lat="44.97437" lon="5.39643">
        <ele>954</ele>
        <time>2019-06-15T07:16:35.000Z</time>
      </trkpt>
      <trkpt lat="44.97436" lon="5.39642">
        <ele>954</ele>
        <time>2019-06-15T07:16:36.000Z</time>
      </trkpt>
      <trkpt lat="44.97435" lon="5.39641">
        <ele>955</ele>
        <time>2019-06-15T07:16:37.000Z</time>
      </trkpt>
      <trkpt lat="44.97434" lon="5.3964">
        <ele>955</ele>
        <time>2019-06-15T07:16:38.000Z</time>
      </trkpt>
      <trkpt lat="44.97433" lon="5.39639">
        <ele>956</ele>
        <time>2019-06-15T07:16:39.000Z</time>
      </trkpt>
      <trkpt lat="44.97432" lon="5.39638">
        <ele>956</ele>
        <time>2019-06-15T07:16:40.000Z</time>
      </trkpt>
      <trkpt lat="44.97431" lon="5.39637">
        <ele>956</ele>
        <time>2019-06-15T07:16:41.000Z</time>
      </trkpt>
      <trkpt lat="44.9743" lon="5.39636">
        <ele>956</ele>
        <time>2019-06-15T07:16:42.000Z</time>
      </trkpt>
      <trkpt lat="44.97429" lon="5.39636">
        <ele>956</ele>
        <time>2019-06-15T07:16:43.000Z</time>
      </trkpt>
      <trkpt lat="44.97428" lon="5.39636">
        <ele>957</ele>
        <time>2019-06-15T07:16:44.000Z</time>
      </trkpt>
      <trkpt lat="44.97428" lon="5.39635">
        <ele>957</ele>
        <time>2019-06-15T07:16:45.000Z</time>
      </trkpt>
      <trkpt lat="44.97427" lon="5.39634">
        <ele>958</ele>
        <time>2019-06-15T07:16:46.000Z</time>
      </trkpt>
      <trkpt lat="44.97426" lon="5.39634">
        <ele>958</ele>
        <time>2019-06-15T07:16:47.000Z</time>
      </trkpt>
      <trkpt lat="44.97425" lon="5.39633">
        <ele>958</ele>
        <time>2019-06-15T07:16:48.000Z</time>
      </trkpt>
      <trkpt lat="44.97424" lon="5.39632">
        <ele>958</ele>
        <time>2019-06-15T07:16:49.000Z</time>
      </trkpt>
      <trkpt lat="44.97424" lon="5.39631">
        <ele>958</ele>
        <time>2019-06-15T07:16:50.000Z</time>
      </trkpt>
      <trkpt lat="44.97422" lon="5.39631">
        <ele>959</ele>
        <time>2019-06-15T07:16:51.000Z</time>
      </trkpt>
      <trkpt lat="44.97421" lon="5.3963">
        <ele>959</ele>
        <time>2019-06-15T07:16:52.000Z</time>
      </trkpt>
      <trkpt lat="44.9742" lon="5.3963">
        <ele>959</ele>
        <time>2019-06-15T07:16:53.000Z</time>
      </trkpt>
      <trkpt lat="44.97419" lon="5.3963">
        <ele>959</ele>
        <time>2019-06-15T07:16:54.000Z</time>
      </trkpt>
      <trkpt lat="44.97417" lon="5.3963">
        <ele>959</ele>
        <time>2019-06-15T07:16:55.000Z</time>
      </trkpt>
      <trkpt lat="44.97416" lon="5.3963">
        <ele>958</ele>
        <time>2019-06-15T07:16:56.000Z</time>
      </trkpt>
      <trkpt lat="44.97414" lon="5.3963">
        <ele>958</ele>
        <time>2019-06-15T07:16:57.000Z</time>
      </trkpt>
      <trkpt lat="44.97412" lon="5.3963">
        <ele>958</ele>
        <time>2019-06-15T07:16:58.000Z</time>
      </trkpt>
      <trkpt lat="44.97411" lon="5.39629">
        <ele>958</ele>
        <time>2019-06-15T07:16:59.000Z</time>
      </trkpt>
      <trkpt lat="44.97409" lon="5.39629">
        <ele>957</ele>
        <time>2019-06-15T07:17:00.000Z</time>
      </trkpt>
      <trkpt lat="44.97408" lon="5.39629">
        <ele>957</ele>
        <time>2019-06-15T07:17:01.000Z</time>
      </trkpt>
      <trkpt lat="44.97406" lon="5.39629">
        <ele>957</ele>
        <time>2019-06-15T07:17:02.000Z</time>
      </trkpt>
      <trkpt lat="44.97404" lon="5.39629">
        <ele>956</ele>
        <time>2019-06-15T07:17:03.000Z</time>
      </trkpt>
      <trkpt lat="44.97402" lon="5.39628">
        <ele>955</ele>
        <time>2019-06-15T07:17:04.000Z</time>
      </trkpt>
      <trkpt lat="44.974" lon="5.39627">
        <ele>956</ele>
        <time>2019-06-15T07:17:05.000Z</time>
      </trkpt>
      <trkpt lat="44.97399" lon="5.39626">
        <ele>957</ele>
        <time>2019-06-15T07:17:06.000Z</time>
      </trkpt>
      <trkpt lat="44.97398" lon="5.39626">
        <ele>956</ele>
        <time>2019-06-15T07:17:07.000Z</time>
      </trkpt>
      <trkpt lat="44.97397" lon="5.39626">
        <ele>957</ele>
        <time>2019-06-15T07:17:08.000Z</time>
      </trkpt>
      <trkpt lat="44.97396" lon="5.39626">
        <ele>957</ele>
        <time>2019-06-15T07:17:09.000Z</time>
      </trkpt>
      <trkpt lat="44.97395" lon="5.39626">
        <ele>957</ele>
        <time>2019-06-15T07:17:10.000Z</time>
      </trkpt>
      <trkpt lat="44.97394" lon="5.39626">
        <ele>958</ele>
        <time>2019-06-15T07:17:11.000Z</time>
      </trkpt>
      <trkpt lat="44.97393" lon="5.39626">
        <ele>958</ele>
        <time>2019-06-15T07:17:12.000Z</time>
      </trkpt>
      <trkpt lat="44.97392" lon="5.39626">
        <ele>958</ele>
        <time>2019-06-15T07:17:13.000Z</time>
      </trkpt>
      <trkpt lat="44.9739" lon="5.39627">
        <ele>958</ele>
        <time>2019-06-15T07:17:14.000Z</time>
      </trkpt>
      <trkpt lat="44.97389" lon="5.39627">
        <ele>958</ele>
        <time>2019-06-15T07:17:15.000Z</time>
      </trkpt>
      <trkpt lat="44.97387" lon="5.39627">
        <ele>958</ele>
        <time>2019-06-15T07:17:16.000Z</time>
      </trkpt>
      <trkpt lat="44.97386" lon="5.39627">
        <ele>958</ele>
        <time>2019-06-15T07:17:17.000Z</time>
      </trkpt>
      <trkpt lat="44.97385" lon="5.39627">
        <ele>958</ele>
        <time>2019-06-15T07:17:18.000Z</time>
      </trkpt>
      <trkpt lat="44.97384" lon="5.39627">
        <ele>959</ele>
        <time>2019-06-15T07:17:19.000Z</time>
      </trkpt>
      <trkpt lat="44.97382" lon="5.39627">
        <ele>959</ele>
        <time>2019-06-15T07:17:20.000Z</time>
      </trkpt>
      <trkpt lat="44.9738" lon="5.39627">
        <ele>960</ele>
        <time>2019-06-15T07:17:21.000Z</time>
      </trkpt>
      <trkpt lat="44.97378" lon="5.39627">
        <ele>960</ele>
        <time>2019-06-15T07:17:22.000Z</time>
      </trkpt>
      <trkpt lat="44.97377" lon="5.39627">
        <ele>960</ele>
        <time>2019-06-15T07:17:23.000Z</time>
      </trkpt>
      <trkpt lat="44.97375" lon="5.39627">
        <ele>960</ele>
        <time>2019-06-15T07:17:24.000Z</time>
      </trkpt>
      <trkpt lat="44.97373" lon="5.39627">
        <ele>960</ele>
        <time>2019-06-15T07:17:25.000Z</time>
      </trkpt>
      <trkpt lat="44.97371" lon="5.39628">
        <ele>961</ele>
        <time>2019-06-15T07:17:26.000Z</time>
      </trkpt>
      <trkpt lat="44.97369" lon="5.39628">
        <ele>963</ele>
        <time>2019-06-15T07:17:27.000Z</time>
      </trkpt>
      <trkpt lat="44.97368" lon="5.39629">
        <ele>965</ele>
        <time>2019-06-15T07:17:28.000Z</time>
      </trkpt>
      <trkpt lat="44.97366" lon="5.3963">
        <ele>966</ele>
        <time>2019-06-15T07:17:29.000Z</time>
      </trkpt>
      <trkpt lat="44.97365" lon="5.39631">
        <ele>966</ele>
        <time>2019-06-15T07:17:30.000Z</time>
      </trkpt>
      <trkpt lat="44.97363" lon="5.39632">
        <ele>967</ele>
        <time>2019-06-15T07:17:31.000Z</time>
      </trkpt>
      <trkpt lat="44.97362" lon="5.39633">
        <ele>967</ele>
        <time>2019-06-15T07:17:32.000Z</time>
      </trkpt>
      <trkpt lat="44.97361" lon="5.39634">
        <ele>968</ele>
        <time>2019-06-15T07:17:33.000Z</time>
      </trkpt>
      <trkpt lat="44.9736" lon="5.39635">
        <ele>969</ele>
        <time>2019-06-15T07:17:34.000Z</time>
      </trkpt>
      <trkpt lat="44.97359" lon="5.39636">
        <ele>970</ele>
        <time>2019-06-15T07:17:35.000Z</time>
      </trkpt>
      <trkpt lat="44.97357" lon="5.39636">
        <ele>970</ele>
        <time>2019-06-15T07:17:36.000Z</time>
      </trkpt>
      <trkpt lat="44.97356" lon="5.39637">
        <ele>971</ele>
        <time>2019-06-15T07:17:37.000Z</time>
      </trkpt>
      <trkpt lat="44.97355" lon="5.39637">
        <ele>971</ele>
        <time>2019-06-15T07:17:38.000Z</time>
      </trkpt>
      <trkpt lat="44.97355" lon="5.39638">
        <ele>972</ele>
        <time>2019-06-15T07:17:39.000Z</time>
      </trkpt>
      <trkpt lat="44.97354" lon="5.39638">
        <ele>973</ele>
        <time>2019-06-15T07:17:40.000Z</time>
      </trkpt>
      <trkpt lat="44.97352" lon="5.39638">
        <ele>974</ele>
        <time>2019-06-15T07:17:41.000Z</time>
      </trkpt>
      <trkpt lat="44.97351" lon="5.39638">
        <ele>974</ele>
        <time>2019-06-15T07:17:42.000Z</time>
      </trkpt>
      <trkpt lat="44.97349" lon="5.39637">
        <ele>974</ele>
        <time>2019-06-15T07:17:43.000Z</time>
      </trkpt>
      <trkpt lat="44.97347" lon="5.39637">
        <ele>974</ele>
        <time>2019-06-15T07:17:44.000Z</time>
      </trkpt>
      <trkpt lat="44.97346" lon="5.39636">
        <ele>974</ele>
        <time>2019-06-15T07:17:45.000Z</time>
      </trkpt>
      <trkpt lat="44.97344" lon="5.39636">
        <ele>975</ele>
        <time>2019-06-15T07:17:46.000Z</time>
      </trkpt>
      <trkpt lat="44.97342" lon="5.39636">
        <ele>975</ele>
        <time>2019-06-15T07:17:47.000Z</time>
      </trkpt>
      <trkpt lat="44.97341" lon="5.39635">
        <ele>976</ele>
        <time>2019-06-15T07:17:48.000Z</time>
      </trkpt>
      <trkpt lat="44.9734" lon="5.39635">
        <ele>976</ele>
        <time>2019-06-15T07:17:49.000Z</time>
      </trkpt>
      <trkpt lat="44.97338" lon="5.39634">
        <ele>975</ele>
        <time>2019-06-15T07:17:50.000Z</time>
      </trkpt>
      <trkpt lat="44.97336" lon="5.39633">
        <ele>975</ele>
        <time>2019-06-15T07:17:51.000Z</time>
      </trkpt>
      <trkpt lat="44.97334" lon="5.39631">
        <ele>975</ele>
        <time>2019-06-15T07:17:52.000Z</time>
      </trkpt>
      <trkpt lat="44.97332" lon="5.3963">
        <ele>974</ele>
        <time>2019-06-15T07:17:53.000Z</time>
      </trkpt>
      <trkpt lat="44.9733" lon="5.3963">
        <ele>974</ele>
        <time>2019-06-15T07:17:54.000Z</time>
      </trkpt>
      <trkpt lat="44.97328" lon="5.39629">
        <ele>974</ele>
        <time>2019-06-15T07:17:55.000Z</time>
      </trkpt>
      <trkpt lat="44.97326" lon="5.39628">
        <ele>974</ele>
        <time>2019-06-15T07:17:56.000Z</time>
      </trkpt>
      <trkpt lat="44.97324" lon="5.39626">
        <ele>975</ele>
        <time>2019-06-15T07:17:57.000Z</time>
      </trkpt>
      <trkpt lat="44.97322" lon="5.39625">
        <ele>975</ele>
        <time>2019-06-15T07:17:58.000Z</time>
      </trkpt>
      <trkpt lat="44.9732" lon="5.39624">
        <ele>975</ele>
        <time>2019-06-15T07:17:59.000Z</time>
      </trkpt>
      <trkpt lat="44.97319" lon="5.39623">
        <ele>975</ele>
        <time>2019-06-15T07:18:00.000Z</time>
      </trkpt>
      <trkpt lat="44.97316" lon="5.39622">
        <ele>974</ele>
        <time>2019-06-15T07:18:01.000Z</time>
      </trkpt>
      <trkpt lat="44.97314" lon="5.39621">
        <ele>975</ele>
        <time>2019-06-15T07:18:02.000Z</time>
      </trkpt>
      <trkpt lat="44.97311" lon="5.3962">
        <ele>976</ele>
        <time>2019-06-15T07:18:03.000Z</time>
      </trkpt>
      <trkpt lat="44.97308" lon="5.39619">
        <ele>976</ele>
        <time>2019-06-15T07:18:04.000Z</time>
      </trkpt>
      <trkpt lat="44.97306" lon="5.39619">
        <ele>977</ele>
        <time>2019-06-15T07:18:05.000Z</time>
      </trkpt>
      <trkpt lat="44.97304" lon="5.39618">
        <ele>978</ele>
        <time>2019-06-15T07:18:06.000Z</time>
      </trkpt>
      <trkpt lat="44.97302" lon="5.39618">
        <ele>978</ele>
        <time>2019-06-15T07:18:07.000Z</time>
      </trkpt>
      <trkpt lat="44.97301" lon="5.39617">
        <ele>979</ele>
        <time>2019-06-15T07:18:08.000Z</time>
      </trkpt>
      <trkpt lat="44.97299" lon="5.39616">
        <ele>980</ele>
        <time>2019-06-15T07:18:09.000Z</time>
      </trkpt>
      <trkpt lat="44.97299" lon="5.39615">
        <ele>981</ele>
        <time>2019-06-15T07:18:10.000Z</time>
      </trkpt>
      <trkpt lat="44.97298" lon="5.39614">
        <ele>981</ele>
        <time>2019-06-15T07:18:11.000Z</time>
      </trkpt>
      <trkpt lat="44.97296" lon="5.39613">
        <ele>982</ele>
        <time>2019-06-15T07:18:12.000Z</time>
      </trkpt>
      <trkpt lat="44.97295" lon="5.39613">
        <ele>982</ele>
        <time>2019-06-15T07:18:13.000Z</time>
      </trkpt>
      <trkpt lat="44.97294" lon="5.39612">
        <ele>982</ele>
        <time>2019-06-15T07:18:14.000Z</time>
      </trkpt>
      <trkpt lat="44.97292" lon="5.39611">
        <ele>983</ele>
        <time>2019-06-15T07:18:15.000Z</time>
      </trkpt>
      <trkpt lat="44.97291" lon="5.3961">
        <ele>983</ele>
        <time>2019-06-15T07:18:16.000Z</time>
      </trkpt>
      <trkpt lat="44.9729" lon="5.39609">
        <ele>983</ele>
        <time>2019-06-15T07:18:17.000Z</time>
      </trkpt>
      <trkpt lat="44.97289" lon="5.39608">
        <ele>984</ele>
        <time>2019-06-15T07:18:18.000Z</time>
      </trkpt>
      <trkpt lat="44.97288" lon="5.39607">
        <ele>984</ele>
        <time>2019-06-15T07:18:19.000Z</time>
      </trkpt>
      <trkpt lat="44.97288" lon="5.39606">
        <ele>985</ele>
        <time>2019-06-15T07:18:20.000Z</time>
      </trkpt>
      <trkpt lat="44.97287" lon="5.39605">
        <ele>985</ele>
        <time>2019-06-15T07:18:21.000Z</time>
      </trkpt>
      <trkpt lat="44.97286" lon="5.39604">
        <ele>986</ele>
        <time>2019-06-15T07:18:22.000Z</time>
      </trkpt>
      <trkpt lat="44.97286" lon="5.39603">
        <ele>986</ele>
        <time>2019-06-15T07:18:23.000Z</time>
      </trkpt>
      <trkpt lat="44.97285" lon="5.39602">
        <ele>986</ele>
        <time>2019-06-15T07:18:24.000Z</time>
      </trkpt>
      <trkpt lat="44.97284" lon="5.396">
        <ele>986</ele>
        <time>2019-06-15T07:18:25.000Z</time>
      </trkpt>
      <trkpt lat="44.97284" lon="5.39599">
        <ele>987</ele>
        <time>2019-06-15T07:18:26.000Z</time>
      </trkpt>
      <trkpt lat="44.97283" lon="5.39598">
        <ele>987</ele>
        <time>2019-06-15T07:18:27.000Z</time>
      </trkpt>
      <trkpt lat="44.97283" lon="5.39596">
        <ele>987</ele>
        <time>2019-06-15T07:18:28.000Z</time>
      </trkpt>
      <trkpt lat="44.97283" lon="5.39595">
        <ele>987</ele>
        <time>2019-06-15T07:18:29.000Z</time>
      </trkpt>
      <trkpt lat="44.97283" lon="5.39593">
        <ele>987</ele>
        <time>2019-06-15T07:18:30.000Z</time>
      </trkpt>
      <trkpt lat="44.97284" lon="5.39593">
        <ele>987</ele>
        <time>2019-06-15T07:18:31.000Z</time>
      </trkpt>
      <trkpt lat="44.97285" lon="5.39593">
        <ele>987</ele>
        <time>2019-06-15T07:18:32.000Z</time>
      </trkpt>
      <trkpt lat="44.97286" lon="5.39593">
        <ele>987</ele>
        <time>2019-06-15T07:18:33.000Z</time>
      </trkpt>
      <trkpt lat="44.97287" lon="5.39593">
        <ele>987</ele>
        <time>2019-06-15T07:18:34.000Z</time>
      </trkpt>
      <trkpt lat="44.97289" lon="5.39594">
        <ele>987</ele>
        <time>2019-06-15T07:18:35.000Z</time>
      </trkpt>
      <trkpt lat="44.9729" lon="5.39594">
        <ele>987</ele>
        <time>2019-06-15T07:18:36.000Z</time>
      </trkpt>
      <trkpt lat="44.97292" lon="5.39595">
        <ele>988</ele>
        <time>2019-06-15T07:18:37.000Z</time>
      </trkpt>
      <trkpt lat="44.97294" lon="5.39595">
        <ele>988</ele>
        <time>2019-06-15T07:18:38.000Z</time>
      </trkpt>
      <trkpt lat="44.97296" lon="5.39594">
        <ele>989</ele>
        <time>2019-06-15T07:18:39.000Z</time>
      </trkpt>
      <trkpt lat="44.97298" lon="5.39594">
        <ele>989</ele>
        <time>2019-06-15T07:18:40.000Z</time>
      </trkpt>
      <trkpt lat="44.97301" lon="5.39594">
        <ele>988</ele>
        <time>2019-06-15T07:18:41.000Z</time>
      </trkpt>
      <trkpt lat="44.97303" lon="5.39593">
        <ele>988</ele>
        <time>2019-06-15T07:18:42.000Z</time>
      </trkpt>
      <trkpt lat="44.97304" lon="5.39592">
        <ele>988</ele>
        <time>2019-06-15T07:18:43.000Z</time>
      </trkpt>
      <trkpt lat="44.97305" lon="5.39591">
        <ele>988</ele>
        <time>2019-06-15T07:18:44.000Z</time>
      </trkpt>
      <trkpt lat="44.97307" lon="5.39589">
        <ele>988</ele>
        <time>2019-06-15T07:18:45.000Z</time>
      </trkpt>
      <trkpt lat="44.97308" lon="5.39588">
        <ele>988</ele>
        <time>2019-06-15T07:18:46.000Z</time>
      </trkpt>
      <trkpt lat="44.9731" lon="5.39587">
        <ele>988</ele>
        <time>2019-06-15T07:18:47.000Z</time>
      </trkpt>
      <trkpt lat="44.97311" lon="5.39585">
        <ele>989</ele>
        <time>2019-06-15T07:18:48.000Z</time>
      </trkpt>
      <trkpt lat="44.97313" lon="5.39583">
        <ele>989</ele>
        <time>2019-06-15T07:18:49.000Z</time>
      </trkpt>
      <trkpt lat="44.97314" lon="5.39581">
        <ele>988</ele>
        <time>2019-06-15T07:18:50.000Z</time>
      </trkpt>
      <trkpt lat="44.97315" lon="5.39579">
        <ele>987</ele>
        <time>2019-06-15T07:18:51.000Z</time>
      </trkpt>
      <trkpt lat="44.97316" lon="5.39577">
        <ele>987</ele>
        <time>2019-06-15T07:18:52.000Z</time>
      </trkpt>
      <trkpt lat="44.97316" lon="5.39575">
        <ele>987</ele>
        <time>2019-06-15T07:18:53.000Z</time>
      </trkpt>
      <trkpt lat="44.97317" lon="5.39573">
        <ele>987</ele>
        <time>2019-06-15T07:18:54.000Z</time>
      </trkpt>
      <trkpt lat="44.97318" lon="5.39571">
        <ele>986</ele>
        <time>2019-06-15T07:18:55.000Z</time>
      </trkpt>
      <trkpt lat="44.97318" lon="5.39569">
        <ele>986</ele>
        <time>2019-06-15T07:18:56.000Z</time>
      </trkpt>
      <trkpt lat="44.97319" lon="5.39568">
        <ele>987</ele>
        <time>2019-06-15T07:18:57.000Z</time>
      </trkpt>
      <trkpt lat="44.97319" lon="5.39566">
        <ele>986</ele>
        <time>2019-06-15T07:18:58.000Z</time>
      </trkpt>
      <trkpt lat="44.9732" lon="5.39565">
        <ele>987</ele>
        <time>2019-06-15T07:18:59.000Z</time>
      </trkpt>
      <trkpt lat="44.9732" lon="5.39562">
        <ele>987</ele>
        <time>2019-06-15T07:19:00.000Z</time>
      </trkpt>
      <trkpt lat="44.97321" lon="5.3956">
        <ele>987</ele>
        <time>2019-06-15T07:19:01.000Z</time>
      </trkpt>
      <trkpt lat="44.97321" lon="5.39556">
        <ele>987</ele>
        <time>2019-06-15T07:19:02.000Z</time>
      </trkpt>
      <trkpt lat="44.97322" lon="5.39553">
        <ele>987</ele>
        <time>2019-06-15T07:19:03.000Z</time>
      </trkpt>
      <trkpt lat="44.97323" lon="5.39551">
        <ele>987</ele>
        <time>2019-06-15T07:19:04.000Z</time>
      </trkpt>
      <trkpt lat="44.97323" lon="5.39549">
        <ele>988</ele>
        <time>2019-06-15T07:19:05.000Z</time>
      </trkpt>
      <trkpt lat="44.97324" lon="5.39547">
        <ele>988</ele>
        <time>2019-06-15T07:19:06.000Z</time>
      </trkpt>
      <trkpt lat="44.97325" lon="5.39544">
        <ele>988</ele>
        <time>2019-06-15T07:19:07.000Z</time>
      </trkpt>
      <trkpt lat="44.97326" lon="5.39542">
        <ele>989</ele>
        <time>2019-06-15T07:19:08.000Z</time>
      </trkpt>
      <trkpt lat="44.97327" lon="5.3954">
        <ele>989</ele>
        <time>2019-06-15T07:19:09.000Z</time>
      </trkpt>
      <trkpt lat="44.97329" lon="5.39538">
        <ele>989</ele>
        <time>2019-06-15T07:19:10.000Z</time>
      </trkpt>
      <trkpt lat="44.9733" lon="5.39535">
        <ele>990</ele>
        <time>2019-06-15T07:19:11.000Z</time>
      </trkpt>
      <trkpt lat="44.97331" lon="5.39533">
        <ele>990</ele>
        <time>2019-06-15T07:19:12.000Z</time>
      </trkpt>
      <trkpt lat="44.97332" lon="5.39531">
        <ele>991</ele>
        <time>2019-06-15T07:19:13.000Z</time>
      </trkpt>
      <trkpt lat="44.97333" lon="5.39529">
        <ele>991</ele>
        <time>2019-06-15T07:19:14.000Z</time>
      </trkpt>
      <trkpt lat="44.97334" lon="5.39527">
        <ele>992</ele>
        <time>2019-06-15T07:19:15.000Z</time>
      </trkpt>
      <trkpt lat="44.97335" lon="5.39525">
        <ele>993</ele>
        <time>2019-06-15T07:19:16.000Z</time>
      </trkpt>
      <trkpt lat="44.97336" lon="5.39523">
        <ele>993</ele>
        <time>2019-06-15T07:19:17.000Z</time>
      </trkpt>
      <trkpt lat="44.97336" lon="5.39521">
        <ele>994</ele>
        <time>2019-06-15T07:19:18.000Z</time>
      </trkpt>
      <trkpt lat="44.97337" lon="5.39518">
        <ele>994</ele>
        <time>2019-06-15T07:19:19.000Z</time>
      </trkpt>
      <trkpt lat="44.97337" lon="5.39515">
        <ele>994</ele>
        <time>2019-06-15T07:19:20.000Z</time>
      </trkpt>
      <trkpt lat="44.97336" lon="5.39513">
        <ele>994</ele>
        <time>2019-06-15T07:19:21.000Z</time>
      </trkpt>
      <trkpt lat="44.97336" lon="5.3951">
        <ele>994</ele>
        <time>2019-06-15T07:19:22.000Z</time>
      </trkpt>
      <trkpt lat="44.97335" lon="5.39508">
        <ele>995</ele>
        <time>2019-06-15T07:19:23.000Z</time>
      </trkpt>
      <trkpt lat="44.97335" lon="5.39506">
        <ele>995</ele>
        <time>2019-06-15T07:19:24.000Z</time>
      </trkpt>
      <trkpt lat="44.97334" lon="5.39504">
        <ele>996</ele>
        <time>2019-06-15T07:19:25.000Z</time>
      </trkpt>
      <trkpt lat="44.97334" lon="5.39503">
        <ele>996</ele>
        <time>2019-06-15T07:19:26.000Z</time>
      </trkpt>
      <trkpt lat="44.97333" lon="5.395">
        <ele>996</ele>
        <time>2019-06-15T07:19:27.000Z</time>
      </trkpt>
      <trkpt lat="44.97332" lon="5.39498">
        <ele>997</ele>
        <time>2019-06-15T07:19:28.000Z</time>
      </trkpt>
      <trkpt lat="44.97331" lon="5.39495">
        <ele>997</ele>
        <time>2019-06-15T07:19:29.000Z</time>
      </trkpt>
      <trkpt lat="44.9733" lon="5.39493">
        <ele>998</ele>
        <time>2019-06-15T07:19:30.000Z</time>
      </trkpt>
      <trkpt lat="44.97328" lon="5.3949">
        <ele>998</ele>
        <time>2019-06-15T07:19:31.000Z</time>
      </trkpt>
      <trkpt lat="44.97327" lon="5.39488">
        <ele>998</ele>
        <time>2019-06-15T07:19:32.000Z</time>
      </trkpt>
      <trkpt lat="44.97326" lon="5.39485">
        <ele>998</ele>
        <time>2019-06-15T07:19:33.000Z</time>
      </trkpt>
      <trkpt lat="44.97325" lon="5.39483">
        <ele>999</ele>
        <time>2019-06-15T07:19:34.000Z</time>
      </trkpt>
      <trkpt lat="44.97324" lon="5.39481">
        <ele>999</ele>
        <time>2019-06-15T07:19:35.000Z</time>
      </trkpt>
      <trkpt lat="44.97323" lon="5.39479">
        <ele>999</ele>
        <time>2019-06-15T07:19:36.000Z</time>
      </trkpt>
      <trkpt lat="44.97322" lon="5.39477">
        <ele>999</ele>
        <time>2019-06-15T07:19:37.000Z</time>
      </trkpt>
      <trkpt lat="44.9732" lon="5.39475">
        <ele>998</ele>
        <time>2019-06-15T07:19:38.000Z</time>
      </trkpt>
      <trkpt lat="44.97319" lon="5.39474">
        <ele>998</ele>
        <time>2019-06-15T07:19:39.000Z</time>
      </trkpt>
      <trkpt lat="44.97317" lon="5.39473">
        <ele>998</ele>
        <time>2019-06-15T07:19:40.000Z</time>
      </trkpt>
      <trkpt lat="44.97315" lon="5.39472">
        <ele>998</ele>
        <time>2019-06-15T07:19:41.000Z</time>
      </trkpt>
      <trkpt lat="44.97313" lon="5.39471">
        <ele>997</ele>
        <time>2019-06-15T07:19:42.000Z</time>
      </trkpt>
      <trkpt lat="44.97311" lon="5.3947">
        <ele>997</ele>
        <time>2019-06-15T07:19:43.000Z</time>
      </trkpt>
      <trkpt lat="44.97309" lon="5.39469">
        <ele>998</ele>
        <time>2019-06-15T07:19:44.000Z</time>
      </trkpt>
      <trkpt lat="44.97308" lon="5.39467">
        <ele>998</ele>
        <time>2019-06-15T07:19:45.000Z</time>
      </trkpt>
      <trkpt lat="44.97306" lon="5.39466">
        <ele>998</ele>
        <time>2019-06-15T07:19:46.000Z</time>
      </trkpt>
      <trkpt lat="44.97304" lon="5.39464">
        <ele>998</ele>
        <time>2019-06-15T07:19:47.000Z</time>
      </trkpt>
      <trkpt lat="44.97302" lon="5.39463">
        <ele>998</ele>
        <time>2019-06-15T07:19:48.000Z</time>
      </trkpt>
      <trkpt lat="44.973" lon="5.39461">
        <ele>998</ele>
        <time>2019-06-15T07:19:49.000Z</time>
      </trkpt>
      <trkpt lat="44.97298" lon="5.3946">
        <ele>999</ele>
        <time>2019-06-15T07:19:50.000Z</time>
      </trkpt>
      <trkpt lat="44.97296" lon="5.39459">
        <ele>1000</ele>
        <time>2019-06-15T07:19:51.000Z</time>
      </trkpt>
      <trkpt lat="44.97294" lon="5.39457">
        <ele>1001</ele>
        <time>2019-06-15T07:19:52.000Z</time>
      </trkpt>
      <trkpt lat="44.97292" lon="5.39456">
        <ele>1001</ele>
        <time>2019-06-15T07:19:53.000Z</time>
      </trkpt>
      <trkpt lat="44.9729" lon="5.39454">
        <ele>1001</ele>
        <time>2019-06-15T07:19:54.000Z</time>
      </trkpt>
      <trkpt lat="44.97289" lon="5.39451">
        <ele>1002</ele>
        <time>2019-06-15T07:19:55.000Z</time>
      </trkpt>
      <trkpt lat="44.97288" lon="5.39448">
        <ele>1001</ele>
        <time>2019-06-15T07:19:56.000Z</time>
      </trkpt>
      <trkpt lat="44.97287" lon="5.39446">
        <ele>1000</ele>
        <time>2019-06-15T07:19:57.000Z</time>
      </trkpt>
      <trkpt lat="44.97286" lon="5.39444">
        <ele>999</ele>
        <time>2019-06-15T07:19:58.000Z</time>
      </trkpt>
      <trkpt lat="44.97285" lon="5.39442">
        <ele>999</ele>
        <time>2019-06-15T07:19:59.000Z</time>
      </trkpt>
      <trkpt lat="44.97284" lon="5.39439">
        <ele>999</ele>
        <time>2019-06-15T07:20:00.000Z</time>
      </trkpt>
      <trkpt lat="44.97283" lon="5.39437">
        <ele>1000</ele>
        <time>2019-06-15T07:20:01.000Z</time>
      </trkpt>
      <trkpt lat="44.97282" lon="5.39434">
        <ele>1000</ele>
        <time>2019-06-15T07:20:02.000Z</time>
      </trkpt>
      <trkpt lat="44.9728" lon="5.39432">
        <ele>1000</ele>
        <time>2019-06-15T07:20:03.000Z</time>
      </trkpt>
      <trkpt lat="44.97279" lon="5.39429">
        <ele>1002</ele>
        <time>2019-06-15T07:20:04.000Z</time>
      </trkpt>
      <trkpt lat="44.97277" lon="5.39425">
        <ele>1002</ele>
        <time>2019-06-15T07:20:05.000Z</time>
      </trkpt>
      <trkpt lat="44.97275" lon="5.39422">
        <ele>1002</ele>
        <time>2019-06-15T07:20:06.000Z</time>
      </trkpt>
      <trkpt lat="44.97274" lon="5.39419">
        <ele>1002</ele>
        <time>2019-06-15T07:20:07.000Z</time>
      </trkpt>
      <trkpt lat="44.97273" lon="5.39417">
        <ele>1002</ele>
        <time>2019-06-15T07:20:08.000Z</time>
      </trkpt>
      <trkpt lat="44.97272" lon="5.39414">
        <ele>1003</ele>
        <time>2019-06-15T07:20:09.000Z</time>
      </trkpt>
      <trkpt lat="44.97271" lon="5.39411">
        <ele>1003</ele>
        <time>2019-06-15T07:20:10.000Z</time>
      </trkpt>
      <trkpt lat="44.9727" lon="5.39409">
        <ele>1004</ele>
        <time>2019-06-15T07:20:11.000Z</time>
      </trkpt>
      <trkpt lat="44.9727" lon="5.39406">
        <ele>1004</ele>
        <time>2019-06-15T07:20:12.000Z</time>
      </trkpt>
      <trkpt lat="44.97269" lon="5.39404">
        <ele>1004</ele>
        <time>2019-06-15T07:20:13.000Z</time>
      </trkpt>
      <trkpt lat="44.97267" lon="5.39401">
        <ele>1005</ele>
        <time>2019-06-15T07:20:14.000Z</time>
      </trkpt>
      <trkpt lat="44.97266" lon="5.39399">
        <ele>1006</ele>
        <time>2019-06-15T07:20:15.000Z</time>
      </trkpt>
      <trkpt lat="44.97265" lon="5.39396">
        <ele>1007</ele>
        <time>2019-06-15T07:20:16.000Z</time>
      </trkpt>
      <trkpt lat="44.97263" lon="5.39394">
        <ele>1008</ele>
        <time>2019-06-15T07:20:17.000Z</time>
      </trkpt>
      <trkpt lat="44.97261" lon="5.39391">
        <ele>1009</ele>
        <time>2019-06-15T07:20:18.000Z</time>
      </trkpt>
      <trkpt lat="44.9726" lon="5.39389">
        <ele>1008</ele>
        <time>2019-06-15T07:20:19.000Z</time>
      </trkpt>
      <trkpt lat="44.97258" lon="5.39387">
        <ele>1007</ele>
        <time>2019-06-15T07:20:20.000Z</time>
      </trkpt>
      <trkpt lat="44.97256" lon="5.39384">
        <ele>1007</ele>
        <time>2019-06-15T07:20:21.000Z</time>
      </trkpt>
      <trkpt lat="44.97255" lon="5.39381">
        <ele>1007</ele>
        <time>2019-06-15T07:20:22.000Z</time>
      </trkpt>
      <trkpt lat="44.97255" lon="5.39379">
        <ele>1006</ele>
        <time>2019-06-15T07:20:23.000Z</time>
      </trkpt>
      <trkpt lat="44.97254" lon="5.39377">
        <ele>1006</ele>
        <time>2019-06-15T07:20:24.000Z</time>
      </trkpt>
      <trkpt lat="44.97254" lon="5.39375">
        <ele>1006</ele>
        <time>2019-06-15T07:20:25.000Z</time>
      </trkpt>
      <trkpt lat="44.97253" lon="5.39373">
        <ele>1006</ele>
        <time>2019-06-15T07:20:26.000Z</time>
      </trkpt>
      <trkpt lat="44.97252" lon="5.39371">
        <ele>1006</ele>
        <time>2019-06-15T07:20:27.000Z</time>
      </trkpt>
      <trkpt lat="44.97251" lon="5.39368">
        <ele>1006</ele>
        <time>2019-06-15T07:20:28.000Z</time>
      </trkpt>
      <trkpt lat="44.97251" lon="5.39366">
        <ele>1006</ele>
        <time>2019-06-15T07:20:29.000Z</time>
      </trkpt>
      <trkpt lat="44.9725" lon="5.39364">
        <ele>1006</ele>
        <time>2019-06-15T07:20:30.000Z</time>
      </trkpt>
      <trkpt lat="44.97249" lon="5.39362">
        <ele>1006</ele>
        <time>2019-06-15T07:20:31.000Z</time>
      </trkpt>
      <trkpt lat="44.97247" lon="5.3936">
        <ele>1006</ele>
        <time>2019-06-15T07:20:32.000Z</time>
      </trkpt>
      <trkpt lat="44.97246" lon="5.39358">
        <ele>1006</ele>
        <time>2019-06-15T07:20:33.000Z</time>
      </trkpt>
      <trkpt lat="44.97244" lon="5.39356">
        <ele>1007</ele>
        <time>2019-06-15T07:20:34.000Z</time>
      </trkpt>
      <trkpt lat="44.97244" lon="5.39354">
        <ele>1007</ele>
        <time>2019-06-15T07:20:35.000Z</time>
      </trkpt>
      <trkpt lat="44.97243" lon="5.39352">
        <ele>1007</ele>
        <time>2019-06-15T07:20:36.000Z</time>
      </trkpt>
      <trkpt lat="44.97242" lon="5.3935">
        <ele>1007</ele>
        <time>2019-06-15T07:20:37.000Z</time>
      </trkpt>
      <trkpt lat="44.97242" lon="5.39348">
        <ele>1007</ele>
        <time>2019-06-15T07:20:38.000Z</time>
      </trkpt>
      <trkpt lat="44.97241" lon="5.39346">
        <ele>1008</ele>
        <time>2019-06-15T07:20:39.000Z</time>
      </trkpt>
      <trkpt lat="44.9724" lon="5.39343">
        <ele>1008</ele>
        <time>2019-06-15T07:20:40.000Z</time>
      </trkpt>
      <trkpt lat="44.97239" lon="5.39341">
        <ele>1009</ele>
        <time>2019-06-15T07:20:41.000Z</time>
      </trkpt>
      <trkpt lat="44.97237" lon="5.39338">
        <ele>1010</ele>
        <time>2019-06-15T07:20:42.000Z</time>
      </trkpt>
      <trkpt lat="44.97237" lon="5.39336">
        <ele>1010</ele>
        <time>2019-06-15T07:20:43.000Z</time>
      </trkpt>
      <trkpt lat="44.97236" lon="5.39335">
        <ele>1010</ele>
        <time>2019-06-15T07:20:44.000Z</time>
      </trkpt>
      <trkpt lat="44.97235" lon="5.39333">
        <ele>1010</ele>
        <time>2019-06-15T07:20:45.000Z</time>
      </trkpt>
      <trkpt lat="44.97234" lon="5.39331">
        <ele>1010</ele>
        <time>2019-06-15T07:20:46.000Z</time>
      </trkpt>
      <trkpt lat="44.97233" lon="5.39329">
        <ele>1010</ele>
        <time>2019-06-15T07:20:47.000Z</time>
      </trkpt>
      <trkpt lat="44.97232" lon="5.39327">
        <ele>1010</ele>
        <time>2019-06-15T07:20:48.000Z</time>
      </trkpt>
      <trkpt lat="44.9723" lon="5.39324">
        <ele>1011</ele>
        <time>2019-06-15T07:20:49.000Z</time>
      </trkpt>
      <trkpt lat="44.97229" lon="5.39322">
        <ele>1010</ele>
        <time>2019-06-15T07:20:50.000Z</time>
      </trkpt>
      <trkpt lat="44.97228" lon="5.3932">
        <ele>1010</ele>
        <time>2019-06-15T07:20:51.000Z</time>
      </trkpt>
      <trkpt lat="44.97227" lon="5.39319">
        <ele>1011</ele>
        <time>2019-06-15T07:20:52.000Z</time>
      </trkpt>
      <trkpt lat="44.97225" lon="5.39317">
        <ele>1011</ele>
        <time>2019-06-15T07:20:53.000Z</time>
      </trkpt>
      <trkpt lat="44.97224" lon="5.39316">
        <ele>1012</ele>
        <time>2019-06-15T07:20:54.000Z</time>
      </trkpt>
      <trkpt lat="44.97222" lon="5.39315">
        <ele>1012</ele>
        <time>2019-06-15T07:20:55.000Z</time>
      </trkpt>
      <trkpt lat="44.97221" lon="5.39313">
        <ele>1013</ele>
        <time>2019-06-15T07:20:56.000Z</time>
      </trkpt>
      <trkpt lat="44.9722" lon="5.39311">
        <ele>1013</ele>
        <time>2019-06-15T07:20:57.000Z</time>
      </trkpt>
      <trkpt lat="44.97219" lon="5.3931">
        <ele>1013</ele>
        <time>2019-06-15T07:20:58.000Z</time>
      </trkpt>
      <trkpt lat="44.97218" lon="5.39307">
        <ele>1013</ele>
        <time>2019-06-15T07:20:59.000Z</time>
      </trkpt>
      <trkpt lat="44.97216" lon="5.39304">
        <ele>1012</ele>
        <time>2019-06-15T07:21:00.000Z</time>
      </trkpt>
      <trkpt lat="44.97215" lon="5.393">
        <ele>1012</ele>
        <time>2019-06-15T07:21:01.000Z</time>
      </trkpt>
      <trkpt lat="44.97213" lon="5.39297">
        <ele>1012</ele>
        <time>2019-06-15T07:21:02.000Z</time>
      </trkpt>
      <trkpt lat="44.97212" lon="5.39295">
        <ele>1013</ele>
        <time>2019-06-15T07:21:03.000Z</time>
      </trkpt>
      <trkpt lat="44.97211" lon="5.39293">
        <ele>1013</ele>
        <time>2019-06-15T07:21:04.000Z</time>
      </trkpt>
      <trkpt lat="44.97209" lon="5.3929">
        <ele>1013</ele>
        <time>2019-06-15T07:21:05.000Z</time>
      </trkpt>
      <trkpt lat="44.97208" lon="5.39288">
        <ele>1014</ele>
        <time>2019-06-15T07:21:06.000Z</time>
      </trkpt>
      <trkpt lat="44.97206" lon="5.39286">
        <ele>1014</ele>
        <time>2019-06-15T07:21:07.000Z</time>
      </trkpt>
      <trkpt lat="44.97204" lon="5.39285">
        <ele>1014</ele>
        <time>2019-06-15T07:21:08.000Z</time>
      </trkpt>
      <trkpt lat="44.97201" lon="5.39283">
        <ele>1014</ele>
        <time>2019-06-15T07:21:09.000Z</time>
      </trkpt>
      <trkpt lat="44.97199" lon="5.39281">
        <ele>1014</ele>
        <time>2019-06-15T07:21:10.000Z</time>
      </trkpt>
      <trkpt lat="44.97197" lon="5.39278">
        <ele>1015</ele>
        <time>2019-06-15T07:21:11.000Z</time>
      </trkpt>
      <trkpt lat="44.97196" lon="5.39275">
        <ele>1014</ele>
        <time>2019-06-15T07:21:12.000Z</time>
      </trkpt>
      <trkpt lat="44.97194" lon="5.39272">
        <ele>1014</ele>
        <time>2019-06-15T07:21:13.000Z</time>
      </trkpt>
      <trkpt lat="44.97192" lon="5.39268">
        <ele>1013</ele>
        <time>2019-06-15T07:21:14.000Z</time>
      </trkpt>
      <trkpt lat="44.9719" lon="5.39265">
        <ele>1014</ele>
        <time>2019-06-15T07:21:15.000Z</time>
      </trkpt>
      <trkpt lat="44.97188" lon="5.39263">
        <ele>1014</ele>
        <time>2019-06-15T07:21:16.000Z</time>
      </trkpt>
      <trkpt lat="44.97187" lon="5.3926">
        <ele>1015</ele>
        <time>2019-06-15T07:21:17.000Z</time>
      </trkpt>
      <trkpt lat="44.97185" lon="5.39258">
        <ele>1015</ele>
        <time>2019-06-15T07:21:18.000Z</time>
      </trkpt>
      <trkpt lat="44.97183" lon="5.39256">
        <ele>1015</ele>
        <time>2019-06-15T07:21:19.000Z</time>
      </trkpt>
      <trkpt lat="44.97181" lon="5.39254">
        <ele>1015</ele>
        <time>2019-06-15T07:21:20.000Z</time>
      </trkpt>
      <trkpt lat="44.9718" lon="5.39251">
        <ele>1015</ele>
        <time>2019-06-15T07:21:21.000Z</time>
      </trkpt>
      <trkpt lat="44.97179" lon="5.39248">
        <ele>1016</ele>
        <time>2019-06-15T07:21:22.000Z</time>
      </trkpt>
      <trkpt lat="44.97178" lon="5.39246">
        <ele>1016</ele>
        <time>2019-06-15T07:21:23.000Z</time>
      </trkpt>
      <trkpt lat="44.97176" lon="5.39244">
        <ele>1016</ele>
        <time>2019-06-15T07:21:24.000Z</time>
      </trkpt>
      <trkpt lat="44.97174" lon="5.39242">
        <ele>1017</ele>
        <time>2019-06-15T07:21:25.000Z</time>
      </trkpt>
      <trkpt lat="44.97172" lon="5.3924">
        <ele>1017</ele>
        <time>2019-06-15T07:21:26.000Z</time>
      </trkpt>
      <trkpt lat="44.9717" lon="5.39238">
        <ele>1016</ele>
        <time>2019-06-15T07:21:27.000Z</time>
      </trkpt>
      <trkpt lat="44.97169" lon="5.39235">
        <ele>1016</ele>
        <time>2019-06-15T07:21:28.000Z</time>
      </trkpt>
      <trkpt lat="44.97168" lon="5.39232">
        <ele>1015</ele>
        <time>2019-06-15T07:21:29.000Z</time>
      </trkpt>
      <trkpt lat="44.97167" lon="5.39229">
        <ele>1015</ele>
        <time>2019-06-15T07:21:30.000Z</time>
      </trkpt>
      <trkpt lat="44.97167" lon="5.39227">
        <ele>1015</ele>
        <time>2019-06-15T07:21:31.000Z</time>
      </trkpt>
      <trkpt lat="44.97166" lon="5.39225">
        <ele>1015</ele>
        <time>2019-06-15T07:21:32.000Z</time>
      </trkpt>
      <trkpt lat="44.97165" lon="5.39223">
        <ele>1015</ele>
        <time>2019-06-15T07:21:33.000Z</time>
      </trkpt>
      <trkpt lat="44.97164" lon="5.39221">
        <ele>1016</ele>
        <time>2019-06-15T07:21:34.000Z</time>
      </trkpt>
      <trkpt lat="44.97163" lon="5.39218">
        <ele>1016</ele>
        <time>2019-06-15T07:21:35.000Z</time>
      </trkpt>
      <trkpt lat="44.97162" lon="5.39215">
        <ele>1017</ele>
        <time>2019-06-15T07:21:36.000Z</time>
      </trkpt>
      <trkpt lat="44.9716" lon="5.39213">
        <ele>1017</ele>
        <time>2019-06-15T07:21:37.000Z</time>
      </trkpt>
      <trkpt lat="44.97159" lon="5.39211">
        <ele>1018</ele>
        <time>2019-06-15T07:21:38.000Z</time>
      </trkpt>
      <trkpt lat="44.97158" lon="5.39208">
        <ele>1019</ele>
        <time>2019-06-15T07:21:39.000Z</time>
      </trkpt>
      <trkpt lat="44.97158" lon="5.39206">
        <ele>1020</ele>
        <time>2019-06-15T07:21:40.000Z</time>
      </trkpt>
      <trkpt lat="44.97157" lon="5.39204">
        <ele>1020</ele>
        <time>2019-06-15T07:21:41.000Z</time>
      </trkpt>
      <trkpt lat="44.97156" lon="5.39203">
        <ele>1021</ele>
        <time>2019-06-15T07:21:42.000Z</time>
      </trkpt>
      <trkpt lat="44.97155" lon="5.39201">
        <ele>1021</ele>
        <time>2019-06-15T07:21:43.000Z</time>
      </trkpt>
      <trkpt lat="44.97154" lon="5.39199">
        <ele>1021</ele>
        <time>2019-06-15T07:21:44.000Z</time>
      </trkpt>
      <trkpt lat="44.97153" lon="5.39197">
        <ele>1021</ele>
        <time>2019-06-15T07:21:45.000Z</time>
      </trkpt>
      <trkpt lat="44.97152" lon="5.39195">
        <ele>1022</ele>
        <time>2019-06-15T07:21:46.000Z</time>
      </trkpt>
      <trkpt lat="44.97151" lon="5.39193">
        <ele>1023</ele>
        <time>2019-06-15T07:21:47.000Z</time>
      </trkpt>
      <trkpt lat="44.97149" lon="5.39191">
        <ele>1024</ele>
        <time>2019-06-15T07:21:48.000Z</time>
      </trkpt>
      <trkpt lat="44.97148" lon="5.39189">
        <ele>1024</ele>
        <time>2019-06-15T07:21:49.000Z</time>
      </trkpt>
      <trkpt lat="44.97146" lon="5.39187">
        <ele>1025</ele>
        <time>2019-06-15T07:21:50.000Z</time>
      </trkpt>
      <trkpt lat="44.97145" lon="5.39185">
        <ele>1025</ele>
        <time>2019-06-15T07:21:51.000Z</time>
      </trkpt>
      <trkpt lat="44.97144" lon="5.39183">
        <ele>1026</ele>
        <time>2019-06-15T07:21:52.000Z</time>
      </trkpt>
      <trkpt lat="44.97143" lon="5.39181">
        <ele>1026</ele>
        <time>2019-06-15T07:21:53.000Z</time>
      </trkpt>
      <trkpt lat="44.97142" lon="5.39179">
        <ele>1025</ele>
        <time>2019-06-15T07:21:54.000Z</time>
      </trkpt>
      <trkpt lat="44.97141" lon="5.39177">
        <ele>1024</ele>
        <time>2019-06-15T07:21:55.000Z</time>
      </trkpt>
      <trkpt lat="44.97141" lon="5.39173">
        <ele>1024</ele>
        <time>2019-06-15T07:21:56.000Z</time>
      </trkpt>
      <trkpt lat="44.9714" lon="5.3917">
        <ele>1025</ele>
        <time>2019-06-15T07:21:57.000Z</time>
      </trkpt>
      <trkpt lat="44.9714" lon="5.39167">
        <ele>1025</ele>
        <time>2019-06-15T07:21:58.000Z</time>
      </trkpt>
      <trkpt lat="44.97139" lon="5.39166">
        <ele>1025</ele>
        <time>2019-06-15T07:21:59.000Z</time>
      </trkpt>
      <trkpt lat="44.97138" lon="5.39164">
        <ele>1025</ele>
        <time>2019-06-15T07:22:00.000Z</time>
      </trkpt>
      <trkpt lat="44.97138" lon="5.39162">
        <ele>1025</ele>
        <time>2019-06-15T07:22:01.000Z</time>
      </trkpt>
      <trkpt lat="44.97137" lon="5.39159">
        <ele>1025</ele>
        <time>2019-06-15T07:22:02.000Z</time>
      </trkpt>
      <trkpt lat="44.97136" lon="5.39156">
        <ele>1026</ele>
        <time>2019-06-15T07:22:03.000Z</time>
      </trkpt>
      <trkpt lat="44.97135" lon="5.39153">
        <ele>1026</ele>
        <time>2019-06-15T07:22:04.000Z</time>
      </trkpt>
      <trkpt lat="44.97135" lon="5.39151">
        <ele>1026</ele>
        <time>2019-06-15T07:22:05.000Z</time>
      </trkpt>
      <trkpt lat="44.97134" lon="5.3915">
        <ele>1027</ele>
        <time>2019-06-15T07:22:06.000Z</time>
      </trkpt>
      <trkpt lat="44.97133" lon="5.39148">
        <ele>1027</ele>
        <time>2019-06-15T07:22:07.000Z</time>
      </trkpt>
      <trkpt lat="44.97132" lon="5.39147">
        <ele>1028</ele>
        <time>2019-06-15T07:22:08.000Z</time>
      </trkpt>
      <trkpt lat="44.97132" lon="5.39145">
        <ele>1028</ele>
        <time>2019-06-15T07:22:09.000Z</time>
      </trkpt>
      <trkpt lat="44.97131" lon="5.39144">
        <ele>1029</ele>
        <time>2019-06-15T07:22:10.000Z</time>
      </trkpt>
      <trkpt lat="44.9713" lon="5.39142">
        <ele>1029</ele>
        <time>2019-06-15T07:22:11.000Z</time>
      </trkpt>
      <trkpt lat="44.9713" lon="5.3914">
        <ele>1029</ele>
        <time>2019-06-15T07:22:12.000Z</time>
      </trkpt>
      <trkpt lat="44.97128" lon="5.39139">
        <ele>1030</ele>
        <time>2019-06-15T07:22:13.000Z</time>
      </trkpt>
      <trkpt lat="44.97127" lon="5.39138">
        <ele>1030</ele>
        <time>2019-06-15T07:22:14.000Z</time>
      </trkpt>
      <trkpt lat="44.97126" lon="5.39136">
        <ele>1030</ele>
        <time>2019-06-15T07:22:15.000Z</time>
      </trkpt>
      <trkpt lat="44.97125" lon="5.39135">
        <ele>1031</ele>
        <time>2019-06-15T07:22:16.000Z</time>
      </trkpt>
      <trkpt lat="44.97123" lon="5.39133">
        <ele>1031</ele>
        <time>2019-06-15T07:22:17.000Z</time>
      </trkpt>
      <trkpt lat="44.97122" lon="5.39131">
        <ele>1032</ele>
        <time>2019-06-15T07:22:18.000Z</time>
      </trkpt>
      <trkpt lat="44.97121" lon="5.39128">
        <ele>1033</ele>
        <time>2019-06-15T07:22:19.000Z</time>
      </trkpt>
      <trkpt lat="44.9712" lon="5.39125">
        <ele>1033</ele>
        <time>2019-06-15T07:22:20.000Z</time>
      </trkpt>
      <trkpt lat="44.97119" lon="5.39123">
        <ele>1033</ele>
        <time>2019-06-15T07:22:21.000Z</time>
      </trkpt>
      <trkpt lat="44.97118" lon="5.3912">
        <ele>1033</ele>
        <time>2019-06-15T07:22:22.000Z</time>
      </trkpt>
      <trkpt lat="44.97118" lon="5.39117">
        <ele>1033</ele>
        <time>2019-06-15T07:22:23.000Z</time>
      </trkpt>
      <trkpt lat="44.97116" lon="5.39114">
        <ele>1033</ele>
        <time>2019-06-15T07:22:24.000Z</time>
      </trkpt>
      <trkpt lat="44.97115" lon="5.39112">
        <ele>1034</ele>
        <time>2019-06-15T07:22:25.000Z</time>
      </trkpt>
      <trkpt lat="44.97114" lon="5.39109">
        <ele>1034</ele>
        <time>2019-06-15T07:22:26.000Z</time>
      </trkpt>
      <trkpt lat="44.97113" lon="5.39105">
        <ele>1034</ele>
        <time>2019-06-15T07:22:27.000Z</time>
      </trkpt>
      <trkpt lat="44.97111" lon="5.39102">
        <ele>1034</ele>
        <time>2019-06-15T07:22:28.000Z</time>
      </trkpt>
      <trkpt lat="44.9711" lon="5.391">
        <ele>1035</ele>
        <time>2019-06-15T07:22:29.000Z</time>
      </trkpt>
      <trkpt lat="44.97109" lon="5.39098">
        <ele>1035</ele>
        <time>2019-06-15T07:22:30.000Z</time>
      </trkpt>
      <trkpt lat="44.97108" lon="5.39095">
        <ele>1036</ele>
        <time>2019-06-15T07:22:31.000Z</time>
      </trkpt>
      <trkpt lat="44.97107" lon="5.39093">
        <ele>1036</ele>
        <time>2019-06-15T07:22:32.000Z</time>
      </trkpt>
      <trkpt lat="44.97105" lon="5.39091">
        <ele>1036</ele>
        <time>2019-06-15T07:22:33.000Z</time>
      </trkpt>
      <trkpt lat="44.97104" lon="5.39089">
        <ele>1037</ele>
        <time>2019-06-15T07:22:34.000Z</time>
      </trkpt>
      <trkpt lat="44.97103" lon="5.39087">
        <ele>1037</ele>
        <time>2019-06-15T07:22:35.000Z</time>
      </trkpt>
      <trkpt lat="44.97102" lon="5.39085">
        <ele>1037</ele>
        <time>2019-06-15T07:22:36.000Z</time>
      </trkpt>
      <trkpt lat="44.97101" lon="5.39082">
        <ele>1037</ele>
        <time>2019-06-15T07:22:37.000Z</time>
      </trkpt>
      <trkpt lat="44.971" lon="5.39079">
        <ele>1036</ele>
        <time>2019-06-15T07:22:38.000Z</time>
      </trkpt>
      <trkpt lat="44.971" lon="5.39076">
        <ele>1036</ele>
        <time>2019-06-15T07:22:39.000Z</time>
      </trkpt>
      <trkpt lat="44.97101" lon="5.39073">
        <ele>1036</ele>
        <time>2019-06-15T07:22:40.000Z</time>
      </trkpt>
      <trkpt lat="44.97101" lon="5.3907">
        <ele>1035</ele>
        <time>2019-06-15T07:22:41.000Z</time>
      </trkpt>
      <trkpt lat="44.97101" lon="5.39068">
        <ele>1035</ele>
        <time>2019-06-15T07:22:42.000Z</time>
      </trkpt>
      <trkpt lat="44.97101" lon="5.39065">
        <ele>1036</ele>
        <time>2019-06-15T07:22:43.000Z</time>
      </trkpt>
      <trkpt lat="44.97101" lon="5.39062">
        <ele>1036</ele>
        <time>2019-06-15T07:22:44.000Z</time>
      </trkpt>
      <trkpt lat="44.971" lon="5.39059">
        <ele>1036</ele>
        <time>2019-06-15T07:22:45.000Z</time>
      </trkpt>
      <trkpt lat="44.97099" lon="5.39056">
        <ele>1036</ele>
        <time>2019-06-15T07:22:46.000Z</time>
      </trkpt>
      <trkpt lat="44.97098" lon="5.39053">
        <ele>1037</ele>
        <time>2019-06-15T07:22:47.000Z</time>
      </trkpt>
      <trkpt lat="44.97098" lon="5.3905">
        <ele>1038</ele>
        <time>2019-06-15T07:22:48.000Z</time>
      </trkpt>
      <trkpt lat="44.97097" lon="5.39048">
        <ele>1039</ele>
        <time>2019-06-15T07:22:49.000Z</time>
      </trkpt>
      <trkpt lat="44.97096" lon="5.39046">
        <ele>1039</ele>
        <time>2019-06-15T07:22:50.000Z</time>
      </trkpt>
      <trkpt lat="44.97094" lon="5.39044">
        <ele>1040</ele>
        <time>2019-06-15T07:22:51.000Z</time>
      </trkpt>
      <trkpt lat="44.97093" lon="5.39042">
        <ele>1040</ele>
        <time>2019-06-15T07:22:52.000Z</time>
      </trkpt>
      <trkpt lat="44.97092" lon="5.3904">
        <ele>1041</ele>
        <time>2019-06-15T07:22:53.000Z</time>
      </trkpt>
      <trkpt lat="44.97091" lon="5.39038">
        <ele>1042</ele>
        <time>2019-06-15T07:22:54.000Z</time>
      </trkpt>
      <trkpt lat="44.9709" lon="5.39037">
        <ele>1042</ele>
        <time>2019-06-15T07:22:55.000Z</time>
      </trkpt>
      <trkpt lat="44.97089" lon="5.39035">
        <ele>1043</ele>
        <time>2019-06-15T07:22:56.000Z</time>
      </trkpt>
      <trkpt lat="44.97087" lon="5.39033">
        <ele>1043</ele>
        <time>2019-06-15T07:22:57.000Z</time>
      </trkpt>
      <trkpt lat="44.97086" lon="5.39031">
        <ele>1044</ele>
        <time>2019-06-15T07:22:58.000Z</time>
      </trkpt>
      <trkpt lat="44.97085" lon="5.3903">
        <ele>1044</ele>
        <time>2019-06-15T07:22:59.000Z</time>
      </trkpt>
      <trkpt lat="44.97084" lon="5.39029">
        <ele>1044</ele>
        <time>2019-06-15T07:23:00.000Z</time>
      </trkpt>
      <trkpt lat="44.97083" lon="5.39028">
        <ele>1044</ele>
        <time>2019-06-15T07:23:01.000Z</time>
      </trkpt>
      <trkpt lat="44.97081" lon="5.39026">
        <ele>1044</ele>
        <time>2019-06-15T07:23:02.000Z</time>
      </trkpt>
      <trkpt lat="44.9708" lon="5.39024">
        <ele>1044</ele>
        <time>2019-06-15T07:23:03.000Z</time>
      </trkpt>
      <trkpt lat="44.9708" lon="5.39021">
        <ele>1044</ele>
        <time>2019-06-15T07:23:04.000Z</time>
      </trkpt>
      <trkpt lat="44.9708" lon="5.39018">
        <ele>1044</ele>
        <time>2019-06-15T07:23:05.000Z</time>
      </trkpt>
      <trkpt lat="44.97079" lon="5.39016">
        <ele>1044</ele>
        <time>2019-06-15T07:23:06.000Z</time>
      </trkpt>
      <trkpt lat="44.97079" lon="5.39013">
        <ele>1044</ele>
        <time>2019-06-15T07:23:07.000Z</time>
      </trkpt>
      <trkpt lat="44.97079" lon="5.3901">
        <ele>1045</ele>
        <time>2019-06-15T07:23:08.000Z</time>
      </trkpt>
      <trkpt lat="44.97078" lon="5.39008">
        <ele>1045</ele>
        <time>2019-06-15T07:23:09.000Z</time>
      </trkpt>
      <trkpt lat="44.97077" lon="5.39005">
        <ele>1044</ele>
        <time>2019-06-15T07:23:10.000Z</time>
      </trkpt>
      <trkpt lat="44.97077" lon="5.39002">
        <ele>1045</ele>
        <time>2019-06-15T07:23:11.000Z</time>
      </trkpt>
      <trkpt lat="44.97076" lon="5.39">
        <ele>1045</ele>
        <time>2019-06-15T07:23:12.000Z</time>
      </trkpt>
      <trkpt lat="44.97076" lon="5.38997">
        <ele>1045</ele>
        <time>2019-06-15T07:23:13.000Z</time>
      </trkpt>
      <trkpt lat="44.97076" lon="5.38994">
        <ele>1045</ele>
        <time>2019-06-15T07:23:14.000Z</time>
      </trkpt>
      <trkpt lat="44.97077" lon="5.38992">
        <ele>1045</ele>
        <time>2019-06-15T07:23:15.000Z</time>
      </trkpt>
      <trkpt lat="44.97077" lon="5.3899">
        <ele>1045</ele>
        <time>2019-06-15T07:23:16.000Z</time>
      </trkpt>
      <trkpt lat="44.97077" lon="5.38988">
        <ele>1045</ele>
        <time>2019-06-15T07:23:17.000Z</time>
      </trkpt>
      <trkpt lat="44.97077" lon="5.38986">
        <ele>1045</ele>
        <time>2019-06-15T07:23:18.000Z</time>
      </trkpt>
      <trkpt lat="44.97077" lon="5.38984">
        <ele>1045</ele>
        <time>2019-06-15T07:23:19.000Z</time>
      </trkpt>
      <trkpt lat="44.97077" lon="5.38981">
        <ele>1046</ele>
        <time>2019-06-15T07:23:20.000Z</time>
      </trkpt>
      <trkpt lat="44.97077" lon="5.38978">
        <ele>1046</ele>
        <time>2019-06-15T07:23:21.000Z</time>
      </trkpt>
      <trkpt lat="44.97077" lon="5.38975">
        <ele>1046</ele>
        <time>2019-06-15T07:23:22.000Z</time>
      </trkpt>
      <trkpt lat="44.97077" lon="5.38972">
        <ele>1046</ele>
        <time>2019-06-15T07:23:23.000Z</time>
      </trkpt>
      <trkpt lat="44.97077" lon="5.3897">
        <ele>1047</ele>
        <time>2019-06-15T07:23:24.000Z</time>
      </trkpt>
      <trkpt lat="44.97077" lon="5.38966">
        <ele>1047</ele>
        <time>2019-06-15T07:23:25.000Z</time>
      </trkpt>
      <trkpt lat="44.97076" lon="5.38963">
        <ele>1047</ele>
        <time>2019-06-15T07:23:26.000Z</time>
      </trkpt>
      <trkpt lat="44.97076" lon="5.3896">
        <ele>1047</ele>
        <time>2019-06-15T07:23:27.000Z</time>
      </trkpt>
      <trkpt lat="44.97076" lon="5.38956">
        <ele>1047</ele>
        <time>2019-06-15T07:23:28.000Z</time>
      </trkpt>
      <trkpt lat="44.97077" lon="5.38953">
        <ele>1047</ele>
        <time>2019-06-15T07:23:29.000Z</time>
      </trkpt>
      <trkpt lat="44.97077" lon="5.38949">
        <ele>1046</ele>
        <time>2019-06-15T07:23:30.000Z</time>
      </trkpt>
      <trkpt lat="44.97078" lon="5.38946">
        <ele>1047</ele>
        <time>2019-06-15T07:23:31.000Z</time>
      </trkpt>
      <trkpt lat="44.97078" lon="5.38943">
        <ele>1047</ele>
        <time>2019-06-15T07:23:32.000Z</time>
      </trkpt>
      <trkpt lat="44.97079" lon="5.3894">
        <ele>1047</ele>
        <time>2019-06-15T07:23:33.000Z</time>
      </trkpt>
      <trkpt lat="44.97079" lon="5.38937">
        <ele>1048</ele>
        <time>2019-06-15T07:23:34.000Z</time>
      </trkpt>
      <trkpt lat="44.9708" lon="5.38934">
        <ele>1048</ele>
        <time>2019-06-15T07:23:35.000Z</time>
      </trkpt>
      <trkpt lat="44.9708" lon="5.38931">
        <ele>1048</ele>
        <time>2019-06-15T07:23:36.000Z</time>
      </trkpt>
      <trkpt lat="44.97081" lon="5.38929">
        <ele>1048</ele>
        <time>2019-06-15T07:23:37.000Z</time>
      </trkpt>
      <trkpt lat="44.97081" lon="5.38926">
        <ele>1049</ele>
        <time>2019-06-15T07:23:38.000Z</time>
      </trkpt>
      <trkpt lat="44.97082" lon="5.38924">
        <ele>1049</ele>
        <time>2019-06-15T07:23:39.000Z</time>
      </trkpt>
      <trkpt lat="44.97082" lon="5.38921">
        <ele>1050</ele>
        <time>2019-06-15T07:23:40.000Z</time>
      </trkpt>
      <trkpt lat="44.97082" lon="5.38919">
        <ele>1050</ele>
        <time>2019-06-15T07:23:41.000Z</time>
      </trkpt>
      <trkpt lat="44.97083" lon="5.38916">
        <ele>1051</ele>
        <time>2019-06-15T07:23:42.000Z</time>
      </trkpt>
      <trkpt lat="44.97083" lon="5.38914">
        <ele>1051</ele>
        <time>2019-06-15T07:23:43.000Z</time>
      </trkpt>
      <trkpt lat="44.97083" lon="5.38912">
        <ele>1051</ele>
        <time>2019-06-15T07:23:44.000Z</time>
      </trkpt>
      <trkpt lat="44.97083" lon="5.38909">
        <ele>1052</ele>
        <time>2019-06-15T07:23:45.000Z</time>
      </trkpt>
      <trkpt lat="44.97082" lon="5.38906">
        <ele>1052</ele>
        <time>2019-06-15T07:23:46.000Z</time>
      </trkpt>
      <trkpt lat="44.97082" lon="5.38903">
        <ele>1052</ele>
        <time>2019-06-15T07:23:47.000Z</time>
      </trkpt>
      <trkpt lat="44.97082" lon="5.389">
        <ele>1052</ele>
        <time>2019-06-15T07:23:48.000Z</time>
      </trkpt>
      <trkpt lat="44.97081" lon="5.38897">
        <ele>1052</ele>
        <time>2019-06-15T07:23:49.000Z</time>
      </trkpt>
      <trkpt lat="44.97081" lon="5.38894">
        <ele>1052</ele>
        <time>2019-06-15T07:23:50.000Z</time>
      </trkpt>
      <trkpt lat="44.9708" lon="5.3889">
        <ele>1052</ele>
        <time>2019-06-15T07:23:51.000Z</time>
      </trkpt>
      <trkpt lat="44.97079" lon="5.38887">
        <ele>1052</ele>
        <time>2019-06-15T07:23:52.000Z</time>
      </trkpt>
      <trkpt lat="44.97079" lon="5.38884">
        <ele>1053</ele>
        <time>2019-06-15T07:23:53.000Z</time>
      </trkpt>
      <trkpt lat="44.97079" lon="5.38881">
        <ele>1053</ele>
        <time>2019-06-15T07:23:54.000Z</time>
      </trkpt>
      <trkpt lat="44.97078" lon="5.38878">
        <ele>1053</ele>
        <time>2019-06-15T07:23:55.000Z</time>
      </trkpt>
      <trkpt lat="44.97077" lon="5.38875">
        <ele>1053</ele>
        <time>2019-06-15T07:23:56.000Z</time>
      </trkpt>
      <trkpt lat="44.97076" lon="5.38873">
        <ele>1054</ele>
        <time>2019-06-15T07:23:57.000Z</time>
      </trkpt>
      <trkpt lat="44.97075" lon="5.38869">
        <ele>1054</ele>
        <time>2019-06-15T07:23:58.000Z</time>
      </trkpt>
      <trkpt lat="44.97074" lon="5.38866">
        <ele>1054</ele>
        <time>2019-06-15T07:23:59.000Z</time>
      </trkpt>
      <trkpt lat="44.97073" lon="5.38862">
        <ele>1054</ele>
        <time>2019-06-15T07:24:00.000Z</time>
      </trkpt>
      <trkpt lat="44.97072" lon="5.38859">
        <ele>1054</ele>
        <time>2019-06-15T07:24:01.000Z</time>
      </trkpt>
      <trkpt lat="44.9707" lon="5.38856">
        <ele>1054</ele>
        <time>2019-06-15T07:24:02.000Z</time>
      </trkpt>
      <trkpt lat="44.97069" lon="5.38853">
        <ele>1054</ele>
        <time>2019-06-15T07:24:03.000Z</time>
      </trkpt>
      <trkpt lat="44.97067" lon="5.3885">
        <ele>1054</ele>
        <time>2019-06-15T07:24:04.000Z</time>
      </trkpt>
      <trkpt lat="44.97066" lon="5.38846">
        <ele>1054</ele>
        <time>2019-06-15T07:24:05.000Z</time>
      </trkpt>
      <trkpt lat="44.97064" lon="5.38843">
        <ele>1054</ele>
        <time>2019-06-15T07:24:06.000Z</time>
      </trkpt>
      <trkpt lat="44.97062" lon="5.38841">
        <ele>1055</ele>
        <time>2019-06-15T07:24:07.000Z</time>
      </trkpt>
      <trkpt lat="44.9706" lon="5.38838">
        <ele>1055</ele>
        <time>2019-06-15T07:24:08.000Z</time>
      </trkpt>
      <trkpt lat="44.97059" lon="5.38835">
        <ele>1055</ele>
        <time>2019-06-15T07:24:09.000Z</time>
      </trkpt>
      <trkpt lat="44.97057" lon="5.38831">
        <ele>1055</ele>
        <time>2019-06-15T07:24:10.000Z</time>
      </trkpt>
      <trkpt lat="44.97056" lon="5.38828">
        <ele>1055</ele>
        <time>2019-06-15T07:24:11.000Z</time>
      </trkpt>
      <trkpt lat="44.97055" lon="5.38824">
        <ele>1055</ele>
        <time>2019-06-15T07:24:12.000Z</time>
      </trkpt>
      <trkpt lat="44.97054" lon="5.38821">
        <ele>1055</ele>
        <time>2019-06-15T07:24:13.000Z</time>
      </trkpt>
      <trkpt lat="44.97054" lon="5.38818">
        <ele>1055</ele>
        <time>2019-06-15T07:24:14.000Z</time>
      </trkpt>
      <trkpt lat="44.97053" lon="5.38815">
        <ele>1055</ele>
        <time>2019-06-15T07:24:15.000Z</time>
      </trkpt>
      <trkpt lat="44.97052" lon="5.38813">
        <ele>1055</ele>
        <time>2019-06-15T07:24:16.000Z</time>
      </trkpt>
      <trkpt lat="44.97052" lon="5.38811">
        <ele>1055</ele>
        <time>2019-06-15T07:24:17.000Z</time>
      </trkpt>
      <trkpt lat="44.97051" lon="5.38809">
        <ele>1055</ele>
        <time>2019-06-15T07:24:18.000Z</time>
      </trkpt>
      <trkpt lat="44.9705" lon="5.38806">
        <ele>1056</ele>
        <time>2019-06-15T07:24:19.000Z</time>
      </trkpt>
      <trkpt lat="44.97048" lon="5.38803">
        <ele>1056</ele>
        <time>2019-06-15T07:24:20.000Z</time>
      </trkpt>
      <trkpt lat="44.97047" lon="5.388">
        <ele>1056</ele>
        <time>2019-06-15T07:24:21.000Z</time>
      </trkpt>
      <trkpt lat="44.97045" lon="5.38796">
        <ele>1056</ele>
        <time>2019-06-15T07:24:22.000Z</time>
      </trkpt>
      <trkpt lat="44.97043" lon="5.38793">
        <ele>1056</ele>
        <time>2019-06-15T07:24:23.000Z</time>
      </trkpt>
      <trkpt lat="44.97042" lon="5.3879">
        <ele>1056</ele>
        <time>2019-06-15T07:24:24.000Z</time>
      </trkpt>
      <trkpt lat="44.9704" lon="5.38786">
        <ele>1055</ele>
        <time>2019-06-15T07:24:25.000Z</time>
      </trkpt>
      <trkpt lat="44.97038" lon="5.38783">
        <ele>1055</ele>
        <time>2019-06-15T07:24:26.000Z</time>
      </trkpt>
      <trkpt lat="44.97037" lon="5.3878">
        <ele>1055</ele>
        <time>2019-06-15T07:24:27.000Z</time>
      </trkpt>
      <trkpt lat="44.97036" lon="5.38777">
        <ele>1055</ele>
        <time>2019-06-15T07:24:28.000Z</time>
      </trkpt>
      <trkpt lat="44.97035" lon="5.38774">
        <ele>1055</ele>
        <time>2019-06-15T07:24:29.000Z</time>
      </trkpt>
      <trkpt lat="44.97033" lon="5.38771">
        <ele>1055</ele>
        <time>2019-06-15T07:24:30.000Z</time>
      </trkpt>
      <trkpt lat="44.97032" lon="5.38767">
        <ele>1055</ele>
        <time>2019-06-15T07:24:31.000Z</time>
      </trkpt>
      <trkpt lat="44.97031" lon="5.38763">
        <ele>1055</ele>
        <time>2019-06-15T07:24:32.000Z</time>
      </trkpt>
      <trkpt lat="44.97029" lon="5.3876">
        <ele>1055</ele>
        <time>2019-06-15T07:24:33.000Z</time>
      </trkpt>
      <trkpt lat="44.97027" lon="5.38756">
        <ele>1055</ele>
        <time>2019-06-15T07:24:34.000Z</time>
      </trkpt>
      <trkpt lat="44.97026" lon="5.38753">
        <ele>1055</ele>
        <time>2019-06-15T07:24:35.000Z</time>
      </trkpt>
      <trkpt lat="44.97024" lon="5.38749">
        <ele>1055</ele>
        <time>2019-06-15T07:24:36.000Z</time>
      </trkpt>
      <trkpt lat="44.97023" lon="5.38745">
        <ele>1054</ele>
        <time>2019-06-15T07:24:37.000Z</time>
      </trkpt>
      <trkpt lat="44.97022" lon="5.38739">
        <ele>1053</ele>
        <time>2019-06-15T07:24:38.000Z</time>
      </trkpt>
      <trkpt lat="44.97023" lon="5.38734">
        <ele>1052</ele>
        <time>2019-06-15T07:24:39.000Z</time>
      </trkpt>
      <trkpt lat="44.97025" lon="5.38729">
        <ele>1052</ele>
        <time>2019-06-15T07:24:40.000Z</time>
      </trkpt>
      <trkpt lat="44.97026" lon="5.38724">
        <ele>1052</ele>
        <time>2019-06-15T07:24:41.000Z</time>
      </trkpt>
      <trkpt lat="44.97026" lon="5.3872">
        <ele>1052</ele>
        <time>2019-06-15T07:24:42.000Z</time>
      </trkpt>
      <trkpt lat="44.97027" lon="5.38715">
        <ele>1051</ele>
        <time>2019-06-15T07:24:43.000Z</time>
      </trkpt>
      <trkpt lat="44.97028" lon="5.38711">
        <ele>1051</ele>
        <time>2019-06-15T07:24:44.000Z</time>
      </trkpt>
      <trkpt lat="44.97029" lon="5.38707">
        <ele>1050</ele>
        <time>2019-06-15T07:24:45.000Z</time>
      </trkpt>
      <trkpt lat="44.9703" lon="5.38703">
        <ele>1050</ele>
        <time>2019-06-15T07:24:46.000Z</time>
      </trkpt>
      <trkpt lat="44.97031" lon="5.38698">
        <ele>1050</ele>
        <time>2019-06-15T07:24:47.000Z</time>
      </trkpt>
      <trkpt lat="44.97033" lon="5.38693">
        <ele>1050</ele>
        <time>2019-06-15T07:24:48.000Z</time>
      </trkpt>
      <trkpt lat="44.97034" lon="5.38689">
        <ele>1050</ele>
        <time>2019-06-15T07:24:49.000Z</time>
      </trkpt>
      <trkpt lat="44.97036" lon="5.38684">
        <ele>1050</ele>
        <time>2019-06-15T07:24:50.000Z</time>
      </trkpt>
      <trkpt lat="44.97037" lon="5.38679">
        <ele>1050</ele>
        <time>2019-06-15T07:24:51.000Z</time>
      </trkpt>
      <trkpt lat="44.97039" lon="5.38674">
        <ele>1049</ele>
        <time>2019-06-15T07:24:52.000Z</time>
      </trkpt>
      <trkpt lat="44.9704" lon="5.3867">
        <ele>1049</ele>
        <time>2019-06-15T07:24:53.000Z</time>
      </trkpt>
      <trkpt lat="44.97041" lon="5.38665">
        <ele>1049</ele>
        <time>2019-06-15T07:24:54.000Z</time>
      </trkpt>
      <trkpt lat="44.97043" lon="5.38661">
        <ele>1049</ele>
        <time>2019-06-15T07:24:55.000Z</time>
      </trkpt>
      <trkpt lat="44.97045" lon="5.38657">
        <ele>1048</ele>
        <time>2019-06-15T07:24:56.000Z</time>
      </trkpt>
      <trkpt lat="44.97048" lon="5.38654">
        <ele>1048</ele>
        <time>2019-06-15T07:24:57.000Z</time>
      </trkpt>
      <trkpt lat="44.9705" lon="5.3865">
        <ele>1048</ele>
        <time>2019-06-15T07:24:58.000Z</time>
      </trkpt>
      <trkpt lat="44.97051" lon="5.38647">
        <ele>1048</ele>
        <time>2019-06-15T07:24:59.000Z</time>
      </trkpt>
      <trkpt lat="44.97053" lon="5.38645">
        <ele>1048</ele>
        <time>2019-06-15T07:25:00.000Z</time>
      </trkpt>
      <trkpt lat="44.97055" lon="5.38642">
        <ele>1048</ele>
        <time>2019-06-15T07:25:01.000Z</time>
      </trkpt>
      <trkpt lat="44.97056" lon="5.38639">
        <ele>1047</ele>
        <time>2019-06-15T07:25:02.000Z</time>
      </trkpt>
      <trkpt lat="44.97059" lon="5.38636">
        <ele>1046</ele>
        <time>2019-06-15T07:25:03.000Z</time>
      </trkpt>
      <trkpt lat="44.97061" lon="5.38632">
        <ele>1045</ele>
        <time>2019-06-15T07:25:04.000Z</time>
      </trkpt>
      <trkpt lat="44.97063" lon="5.38627">
        <ele>1044</ele>
        <time>2019-06-15T07:25:05.000Z</time>
      </trkpt>
      <trkpt lat="44.97064" lon="5.38623">
        <ele>1044</ele>
        <time>2019-06-15T07:25:06.000Z</time>
      </trkpt>
      <trkpt lat="44.97066" lon="5.38619">
        <ele>1043</ele>
        <time>2019-06-15T07:25:07.000Z</time>
      </trkpt>
      <trkpt lat="44.97067" lon="5.38615">
        <ele>1043</ele>
        <time>2019-06-15T07:25:08.000Z</time>
      </trkpt>
      <trkpt lat="44.97067" lon="5.38611">
        <ele>1043</ele>
        <time>2019-06-15T07:25:09.000Z</time>
      </trkpt>
      <trkpt lat="44.97067" lon="5.38609">
        <ele>1043</ele>
        <time>2019-06-15T07:25:10.000Z</time>
      </trkpt>
      <trkpt lat="44.97065" lon="5.38607">
        <ele>1042</ele>
        <time>2019-06-15T07:25:11.000Z</time>
      </trkpt>
      <trkpt lat="44.97064" lon="5.38607">
        <ele>1042</ele>
        <time>2019-06-15T07:25:12.000Z</time>
      </trkpt>
      <trkpt lat="44.97062" lon="5.38607">
        <ele>1042</ele>
        <time>2019-06-15T07:25:13.000Z</time>
      </trkpt>
      <trkpt lat="44.9706" lon="5.38606">
        <ele>1042</ele>
        <time>2019-06-15T07:25:14.000Z</time>
      </trkpt>
      <trkpt lat="44.97058" lon="5.38606">
        <ele>1041</ele>
        <time>2019-06-15T07:25:15.000Z</time>
      </trkpt>
      <trkpt lat="44.97056" lon="5.38605">
        <ele>1040</ele>
        <time>2019-06-15T07:25:16.000Z</time>
      </trkpt>
      <trkpt lat="44.97054" lon="5.38603">
        <ele>1040</ele>
        <time>2019-06-15T07:25:17.000Z</time>
      </trkpt>
      <trkpt lat="44.97052" lon="5.38602">
        <ele>1040</ele>
        <time>2019-06-15T07:25:18.000Z</time>
      </trkpt>
      <trkpt lat="44.9705" lon="5.38602">
        <ele>1039</ele>
        <time>2019-06-15T07:25:19.000Z</time>
      </trkpt>
      <trkpt lat="44.97048" lon="5.38603">
        <ele>1039</ele>
        <time>2019-06-15T07:25:20.000Z</time>
      </trkpt>
      <trkpt lat="44.97045" lon="5.38604">
        <ele>1038</ele>
        <time>2019-06-15T07:25:21.000Z</time>
      </trkpt>
      <trkpt lat="44.97042" lon="5.38603">
        <ele>1037</ele>
        <time>2019-06-15T07:25:22.000Z</time>
      </trkpt>
      <trkpt lat="44.9704" lon="5.38602">
        <ele>1037</ele>
        <time>2019-06-15T07:25:23.000Z</time>
      </trkpt>
      <trkpt lat="44.97038" lon="5.38601">
        <ele>1036</ele>
        <time>2019-06-15T07:25:24.000Z</time>
      </trkpt>
      <trkpt lat="44.97036" lon="5.38598">
        <ele>1035</ele>
        <time>2019-06-15T07:25:25.000Z</time>
      </trkpt>
      <trkpt lat="44.97033" lon="5.38596">
        <ele>1034</ele>
        <time>2019-06-15T07:25:26.000Z</time>
      </trkpt>
      <trkpt lat="44.9703" lon="5.38593">
        <ele>1033</ele>
        <time>2019-06-15T07:25:27.000Z</time>
      </trkpt>
      <trkpt lat="44.97027" lon="5.38591">
        <ele>1032</ele>
        <time>2019-06-15T07:25:28.000Z</time>
      </trkpt>
      <trkpt lat="44.97024" lon="5.38589">
        <ele>1031</ele>
        <time>2019-06-15T07:25:29.000Z</time>
      </trkpt>
      <trkpt lat="44.97021" lon="5.38587">
        <ele>1029</ele>
        <time>2019-06-15T07:25:30.000Z</time>
      </trkpt>
      <trkpt lat="44.97017" lon="5.38585">
        <ele>1028</ele>
        <time>2019-06-15T07:25:31.000Z</time>
      </trkpt>
      <trkpt lat="44.97014" lon="5.38583">
        <ele>1027</ele>
        <time>2019-06-15T07:25:32.000Z</time>
      </trkpt>
      <trkpt lat="44.9701" lon="5.38582">
        <ele>1025</ele>
        <time>2019-06-15T07:25:33.000Z</time>
      </trkpt>
      <trkpt lat="44.97007" lon="5.38581">
        <ele>1023</ele>
        <time>2019-06-15T07:25:34.000Z</time>
      </trkpt>
      <trkpt lat="44.97004" lon="5.38579">
        <ele>1022</ele>
        <time>2019-06-15T07:25:35.000Z</time>
      </trkpt>
      <trkpt lat="44.97002" lon="5.38578">
        <ele>1021</ele>
        <time>2019-06-15T07:25:36.000Z</time>
      </trkpt>
      <trkpt lat="44.96999" lon="5.38575">
        <ele>1021</ele>
        <time>2019-06-15T07:25:37.000Z</time>
      </trkpt>
      <trkpt lat="44.96997" lon="5.38572">
        <ele>1021</ele>
        <time>2019-06-15T07:25:38.000Z</time>
      </trkpt>
      <trkpt lat="44.96995" lon="5.38568">
        <ele>1021</ele>
        <time>2019-06-15T07:25:39.000Z</time>
      </trkpt>
      <trkpt lat="44.96993" lon="5.38563">
        <ele>1021</ele>
        <time>2019-06-15T07:25:40.000Z</time>
      </trkpt>
      <trkpt lat="44.9699" lon="5.38558">
        <ele>1021</ele>
        <time>2019-06-15T07:25:41.000Z</time>
      </trkpt>
      <trkpt lat="44.96987" lon="5.38553">
        <ele>1021</ele>
        <time>2019-06-15T07:25:42.000Z</time>
      </trkpt>
      <trkpt lat="44.96984" lon="5.38549">
        <ele>1019</ele>
        <time>2019-06-15T07:25:43.000Z</time>
      </trkpt>
      <trkpt lat="44.96982" lon="5.38544">
        <ele>1019</ele>
        <time>2019-06-15T07:25:44.000Z</time>
      </trkpt>
      <trkpt lat="44.96979" lon="5.3854">
        <ele>1020</ele>
        <time>2019-06-15T07:25:45.000Z</time>
      </trkpt>
      <trkpt lat="44.96976" lon="5.38536">
        <ele>1021</ele>
        <time>2019-06-15T07:25:46.000Z</time>
      </trkpt>
      <trkpt lat="44.96974" lon="5.38532">
        <ele>1021</ele>
        <time>2019-06-15T07:25:47.000Z</time>
      </trkpt>
      <trkpt lat="44.96971" lon="5.38527">
        <ele>1023</ele>
        <time>2019-06-15T07:25:48.000Z</time>
      </trkpt>
      <trkpt lat="44.96968" lon="5.38523">
        <ele>1024</ele>
        <time>2019-06-15T07:25:49.000Z</time>
      </trkpt>
      <trkpt lat="44.96965" lon="5.38518">
        <ele>1025</ele>
        <time>2019-06-15T07:25:50.000Z</time>
      </trkpt>
      <trkpt lat="44.96962" lon="5.38513">
        <ele>1024</ele>
        <time>2019-06-15T07:25:51.000Z</time>
      </trkpt>
      <trkpt lat="44.96961" lon="5.38509">
        <ele>1022</ele>
        <time>2019-06-15T07:25:52.000Z</time>
      </trkpt>
      <trkpt lat="44.96959" lon="5.38504">
        <ele>1022</ele>
        <time>2019-06-15T07:25:53.000Z</time>
      </trkpt>
      <trkpt lat="44.96959" lon="5.38499">
        <ele>1018</ele>
        <time>2019-06-15T07:25:54.000Z</time>
      </trkpt>
      <trkpt lat="44.96958" lon="5.38494">
        <ele>1017</ele>
        <time>2019-06-15T07:25:55.000Z</time>
      </trkpt>
      <trkpt lat="44.96957" lon="5.38489">
        <ele>1017</ele>
        <time>2019-06-15T07:25:56.000Z</time>
      </trkpt>
      <trkpt lat="44.96956" lon="5.38484">
        <ele>1016</ele>
        <time>2019-06-15T07:25:57.000Z</time>
      </trkpt>
      <trkpt lat="44.96954" lon="5.38479">
        <ele>1017</ele>
        <time>2019-06-15T07:25:58.000Z</time>
      </trkpt>
      <trkpt lat="44.96951" lon="5.38474">
        <ele>1018</ele>
        <time>2019-06-15T07:25:59.000Z</time>
      </trkpt>
      <trkpt lat="44.96949" lon="5.3847">
        <ele>1017</ele>
        <time>2019-06-15T07:26:00.000Z</time>
      </trkpt>
      <trkpt lat="44.96946" lon="5.38465">
        <ele>1016</ele>
        <time>2019-06-15T07:26:01.000Z</time>
      </trkpt>
      <trkpt lat="44.96945" lon="5.38461">
        <ele>1016</ele>
        <time>2019-06-15T07:26:02.000Z</time>
      </trkpt>
      <trkpt lat="44.96943" lon="5.38456">
        <ele>1015</ele>
        <time>2019-06-15T07:26:03.000Z</time>
      </trkpt>
      <trkpt lat="44.96941" lon="5.38452">
        <ele>1015</ele>
        <time>2019-06-15T07:26:04.000Z</time>
      </trkpt>
      <trkpt lat="44.9694" lon="5.38447">
        <ele>1014</ele>
        <time>2019-06-15T07:26:05.000Z</time>
      </trkpt>
      <trkpt lat="44.96939" lon="5.38442">
        <ele>1014</ele>
        <time>2019-06-15T07:26:06.000Z</time>
      </trkpt>
      <trkpt lat="44.96938" lon="5.38437">
        <ele>1014</ele>
        <time>2019-06-15T07:26:07.000Z</time>
      </trkpt>
      <trkpt lat="44.96937" lon="5.38433">
        <ele>1014</ele>
        <time>2019-06-15T07:26:08.000Z</time>
      </trkpt>
      <trkpt lat="44.96936" lon="5.38428">
        <ele>1014</ele>
        <time>2019-06-15T07:26:09.000Z</time>
      </trkpt>
      <trkpt lat="44.96936" lon="5.38423">
        <ele>1014</ele>
        <time>2019-06-15T07:26:10.000Z</time>
      </trkpt>
      <trkpt lat="44.96935" lon="5.38419">
        <ele>1014</ele>
        <time>2019-06-15T07:26:11.000Z</time>
      </trkpt>
      <trkpt lat="44.96934" lon="5.38414">
        <ele>1014</ele>
        <time>2019-06-15T07:26:12.000Z</time>
      </trkpt>
      <trkpt lat="44.96933" lon="5.3841">
        <ele>1015</ele>
        <time>2019-06-15T07:26:13.000Z</time>
      </trkpt>
      <trkpt lat="44.96932" lon="5.38405">
        <ele>1014</ele>
        <time>2019-06-15T07:26:14.000Z</time>
      </trkpt>
      <trkpt lat="44.96931" lon="5.38401">
        <ele>1014</ele>
        <time>2019-06-15T07:26:15.000Z</time>
      </trkpt>
      <trkpt lat="44.9693" lon="5.38396">
        <ele>1014</ele>
        <time>2019-06-15T07:26:16.000Z</time>
      </trkpt>
      <trkpt lat="44.96929" lon="5.38392">
        <ele>1014</ele>
        <time>2019-06-15T07:26:17.000Z</time>
      </trkpt>
      <trkpt lat="44.96928" lon="5.38388">
        <ele>1014</ele>
        <time>2019-06-15T07:26:18.000Z</time>
      </trkpt>
      <trkpt lat="44.96927" lon="5.38384">
        <ele>1013</ele>
        <time>2019-06-15T07:26:19.000Z</time>
      </trkpt>
      <trkpt lat="44.96925" lon="5.3838">
        <ele>1013</ele>
        <time>2019-06-15T07:26:20.000Z</time>
      </trkpt>
      <trkpt lat="44.96924" lon="5.38376">
        <ele>1012</ele>
        <time>2019-06-15T07:26:21.000Z</time>
      </trkpt>
      <trkpt lat="44.96922" lon="5.38372">
        <ele>1012</ele>
        <time>2019-06-15T07:26:22.000Z</time>
      </trkpt>
      <trkpt lat="44.9692" lon="5.38368">
        <ele>1012</ele>
        <time>2019-06-15T07:26:23.000Z</time>
      </trkpt>
      <trkpt lat="44.96918" lon="5.38365">
        <ele>1011</ele>
        <time>2019-06-15T07:26:24.000Z</time>
      </trkpt>
      <trkpt lat="44.96916" lon="5.38361">
        <ele>1011</ele>
        <time>2019-06-15T07:26:25.000Z</time>
      </trkpt>
      <trkpt lat="44.96914" lon="5.38357">
        <ele>1011</ele>
        <time>2019-06-15T07:26:26.000Z</time>
      </trkpt>
      <trkpt lat="44.96912" lon="5.38353">
        <ele>1011</ele>
        <time>2019-06-15T07:26:27.000Z</time>
      </trkpt>
      <trkpt lat="44.9691" lon="5.38349">
        <ele>1010</ele>
        <time>2019-06-15T07:26:28.000Z</time>
      </trkpt>
      <trkpt lat="44.96908" lon="5.38345">
        <ele>1010</ele>
        <time>2019-06-15T07:26:29.000Z</time>
      </trkpt>
      <trkpt lat="44.96906" lon="5.38341">
        <ele>1010</ele>
        <time>2019-06-15T07:26:30.000Z</time>
      </trkpt>
      <trkpt lat="44.96904" lon="5.38337">
        <ele>1010</ele>
        <time>2019-06-15T07:26:31.000Z</time>
      </trkpt>
      <trkpt lat="44.96902" lon="5.38334">
        <ele>1010</ele>
        <time>2019-06-15T07:26:32.000Z</time>
      </trkpt>
      <trkpt lat="44.969" lon="5.3833">
        <ele>1010</ele>
        <time>2019-06-15T07:26:33.000Z</time>
      </trkpt>
      <trkpt lat="44.96899" lon="5.38326">
        <ele>1010</ele>
        <time>2019-06-15T07:26:34.000Z</time>
      </trkpt>
      <trkpt lat="44.96897" lon="5.38322">
        <ele>1011</ele>
        <time>2019-06-15T07:26:35.000Z</time>
      </trkpt>
      <trkpt lat="44.96895" lon="5.38318">
        <ele>1010</ele>
        <time>2019-06-15T07:26:36.000Z</time>
      </trkpt>
      <trkpt lat="44.96893" lon="5.38314">
        <ele>1010</ele>
        <time>2019-06-15T07:26:37.000Z</time>
      </trkpt>
      <trkpt lat="44.96891" lon="5.3831">
        <ele>1010</ele>
        <time>2019-06-15T07:26:38.000Z</time>
      </trkpt>
      <trkpt lat="44.96889" lon="5.38306">
        <ele>1010</ele>
        <time>2019-06-15T07:26:39.000Z</time>
      </trkpt>
      <trkpt lat="44.96888" lon="5.38302">
        <ele>1010</ele>
        <time>2019-06-15T07:26:40.000Z</time>
      </trkpt>
      <trkpt lat="44.96886" lon="5.38299">
        <ele>1010</ele>
        <time>2019-06-15T07:26:41.000Z</time>
      </trkpt>
      <trkpt lat="44.96884" lon="5.38295">
        <ele>1011</ele>
        <time>2019-06-15T07:26:42.000Z</time>
      </trkpt>
      <trkpt lat="44.96883" lon="5.38291">
        <ele>1011</ele>
        <time>2019-06-15T07:26:43.000Z</time>
      </trkpt>
      <trkpt lat="44.96881" lon="5.38287">
        <ele>1011</ele>
        <time>2019-06-15T07:26:44.000Z</time>
      </trkpt>
      <trkpt lat="44.96879" lon="5.38283">
        <ele>1011</ele>
        <time>2019-06-15T07:26:45.000Z</time>
      </trkpt>
      <trkpt lat="44.96877" lon="5.38279">
        <ele>1010</ele>
        <time>2019-06-15T07:26:46.000Z</time>
      </trkpt>
      <trkpt lat="44.96876" lon="5.38276">
        <ele>1010</ele>
        <time>2019-06-15T07:26:47.000Z</time>
      </trkpt>
      <trkpt lat="44.96874" lon="5.38272">
        <ele>1011</ele>
        <time>2019-06-15T07:26:48.000Z</time>
      </trkpt>
      <trkpt lat="44.96872" lon="5.38268">
        <ele>1011</ele>
        <time>2019-06-15T07:26:49.000Z</time>
      </trkpt>
      <trkpt lat="44.96871" lon="5.38264">
        <ele>1011</ele>
        <time>2019-06-15T07:26:50.000Z</time>
      </trkpt>
      <trkpt lat="44.96869" lon="5.3826">
        <ele>1011</ele>
        <time>2019-06-15T07:26:51.000Z</time>
      </trkpt>
      <trkpt lat="44.96868" lon="5.38256">
        <ele>1011</ele>
        <time>2019-06-15T07:26:52.000Z</time>
      </trkpt>
      <trkpt lat="44.96866" lon="5.38252">
        <ele>1011</ele>
        <time>2019-06-15T07:26:53.000Z</time>
      </trkpt>
      <trkpt lat="44.96865" lon="5.38248">
        <ele>1010</ele>
        <time>2019-06-15T07:26:54.000Z</time>
      </trkpt>
      <trkpt lat="44.96863" lon="5.38244">
        <ele>1010</ele>
        <time>2019-06-15T07:26:55.000Z</time>
      </trkpt>
      <trkpt lat="44.96862" lon="5.3824">
        <ele>1010</ele>
        <time>2019-06-15T07:26:56.000Z</time>
      </trkpt>
      <trkpt lat="44.9686" lon="5.38236">
        <ele>1011</ele>
        <time>2019-06-15T07:26:57.000Z</time>
      </trkpt>
      <trkpt lat="44.96859" lon="5.38233">
        <ele>1011</ele>
        <time>2019-06-15T07:26:58.000Z</time>
      </trkpt>
      <trkpt lat="44.96857" lon="5.38229">
        <ele>1011</ele>
        <time>2019-06-15T07:26:59.000Z</time>
      </trkpt>
      <trkpt lat="44.96856" lon="5.38225">
        <ele>1011</ele>
        <time>2019-06-15T07:27:00.000Z</time>
      </trkpt>
      <trkpt lat="44.96855" lon="5.38221">
        <ele>1011</ele>
        <time>2019-06-15T07:27:01.000Z</time>
      </trkpt>
      <trkpt lat="44.96853" lon="5.38217">
        <ele>1011</ele>
        <time>2019-06-15T07:27:02.000Z</time>
      </trkpt>
      <trkpt lat="44.96852" lon="5.38214">
        <ele>1011</ele>
        <time>2019-06-15T07:27:03.000Z</time>
      </trkpt>
      <trkpt lat="44.9685" lon="5.3821">
        <ele>1011</ele>
        <time>2019-06-15T07:27:04.000Z</time>
      </trkpt>
      <trkpt lat="44.96849" lon="5.38206">
        <ele>1011</ele>
        <time>2019-06-15T07:27:05.000Z</time>
      </trkpt>
      <trkpt lat="44.96848" lon="5.38203">
        <ele>1011</ele>
        <time>2019-06-15T07:27:06.000Z</time>
      </trkpt>
      <trkpt lat="44.96846" lon="5.38199">
        <ele>1010</ele>
        <time>2019-06-15T07:27:07.000Z</time>
      </trkpt>
      <trkpt lat="44.96845" lon="5.38195">
        <ele>1010</ele>
        <time>2019-06-15T07:27:08.000Z</time>
      </trkpt>
      <trkpt lat="44.96844" lon="5.38192">
        <ele>1010</ele>
        <time>2019-06-15T07:27:09.000Z</time>
      </trkpt>
      <trkpt lat="44.96842" lon="5.38188">
        <ele>1010</ele>
        <time>2019-06-15T07:27:10.000Z</time>
      </trkpt>
      <trkpt lat="44.96841" lon="5.38185">
        <ele>1010</ele>
        <time>2019-06-15T07:27:11.000Z</time>
      </trkpt>
      <trkpt lat="44.96839" lon="5.38181">
        <ele>1010</ele>
        <time>2019-06-15T07:27:12.000Z</time>
      </trkpt>
      <trkpt lat="44.96838" lon="5.38177">
        <ele>1010</ele>
        <time>2019-06-15T07:27:13.000Z</time>
      </trkpt>
      <trkpt lat="44.96836" lon="5.38173">
        <ele>1010</ele>
        <time>2019-06-15T07:27:14.000Z</time>
      </trkpt>
      <trkpt lat="44.96835" lon="5.3817">
        <ele>1010</ele>
        <time>2019-06-15T07:27:15.000Z</time>
      </trkpt>
      <trkpt lat="44.96833" lon="5.38166">
        <ele>1010</ele>
        <time>2019-06-15T07:27:16.000Z</time>
      </trkpt>
      <trkpt lat="44.96831" lon="5.38163">
        <ele>1010</ele>
        <time>2019-06-15T07:27:17.000Z</time>
      </trkpt>
      <trkpt lat="44.9683" lon="5.3816">
        <ele>1010</ele>
        <time>2019-06-15T07:27:18.000Z</time>
      </trkpt>
      <trkpt lat="44.96828" lon="5.38157">
        <ele>1010</ele>
        <time>2019-06-15T07:27:19.000Z</time>
      </trkpt>
      <trkpt lat="44.96826" lon="5.38154">
        <ele>1009</ele>
        <time>2019-06-15T07:27:20.000Z</time>
      </trkpt>
      <trkpt lat="44.96824" lon="5.3815">
        <ele>1010</ele>
        <time>2019-06-15T07:27:21.000Z</time>
      </trkpt>
      <trkpt lat="44.96822" lon="5.38147">
        <ele>1010</ele>
        <time>2019-06-15T07:27:22.000Z</time>
      </trkpt>
      <trkpt lat="44.9682" lon="5.38144">
        <ele>1010</ele>
        <time>2019-06-15T07:27:23.000Z</time>
      </trkpt>
      <trkpt lat="44.96818" lon="5.38141">
        <ele>1010</ele>
        <time>2019-06-15T07:27:24.000Z</time>
      </trkpt>
      <trkpt lat="44.96816" lon="5.38138">
        <ele>1010</ele>
        <time>2019-06-15T07:27:25.000Z</time>
      </trkpt>
      <trkpt lat="44.96814" lon="5.38136">
        <ele>1010</ele>
        <time>2019-06-15T07:27:26.000Z</time>
      </trkpt>
      <trkpt lat="44.96811" lon="5.38133">
        <ele>1010</ele>
        <time>2019-06-15T07:27:27.000Z</time>
      </trkpt>
      <trkpt lat="44.96809" lon="5.3813">
        <ele>1011</ele>
        <time>2019-06-15T07:27:28.000Z</time>
      </trkpt>
      <trkpt lat="44.96807" lon="5.38127">
        <ele>1011</ele>
        <time>2019-06-15T07:27:29.000Z</time>
      </trkpt>
      <trkpt lat="44.96805" lon="5.38124">
        <ele>1011</ele>
        <time>2019-06-15T07:27:30.000Z</time>
      </trkpt>
      <trkpt lat="44.96803" lon="5.38121">
        <ele>1011</ele>
        <time>2019-06-15T07:27:31.000Z</time>
      </trkpt>
      <trkpt lat="44.96801" lon="5.38118">
        <ele>1012</ele>
        <time>2019-06-15T07:27:32.000Z</time>
      </trkpt>
      <trkpt lat="44.96799" lon="5.38116">
        <ele>1012</ele>
        <time>2019-06-15T07:27:33.000Z</time>
      </trkpt>
      <trkpt lat="44.96796" lon="5.38113">
        <ele>1012</ele>
        <time>2019-06-15T07:27:34.000Z</time>
      </trkpt>
      <trkpt lat="44.96794" lon="5.3811">
        <ele>1012</ele>
        <time>2019-06-15T07:27:35.000Z</time>
      </trkpt>
      <trkpt lat="44.96792" lon="5.38107">
        <ele>1012</ele>
        <time>2019-06-15T07:27:36.000Z</time>
      </trkpt>
      <trkpt lat="44.9679" lon="5.38104">
        <ele>1012</ele>
        <time>2019-06-15T07:27:37.000Z</time>
      </trkpt>
      <trkpt lat="44.96788" lon="5.38101">
        <ele>1012</ele>
        <time>2019-06-15T07:27:38.000Z</time>
      </trkpt>
      <trkpt lat="44.96786" lon="5.38098">
        <ele>1012</ele>
        <time>2019-06-15T07:27:39.000Z</time>
      </trkpt>
      <trkpt lat="44.96784" lon="5.38095">
        <ele>1012</ele>
        <time>2019-06-15T07:27:40.000Z</time>
      </trkpt>
      <trkpt lat="44.96782" lon="5.38092">
        <ele>1012</ele>
        <time>2019-06-15T07:27:41.000Z</time>
      </trkpt>
      <trkpt lat="44.9678" lon="5.38089">
        <ele>1013</ele>
        <time>2019-06-15T07:27:42.000Z</time>
      </trkpt>
      <trkpt lat="44.96778" lon="5.38086">
        <ele>1012</ele>
        <time>2019-06-15T07:27:43.000Z</time>
      </trkpt>
      <trkpt lat="44.96776" lon="5.38083">
        <ele>1013</ele>
        <time>2019-06-15T07:27:44.000Z</time>
      </trkpt>
      <trkpt lat="44.96774" lon="5.3808">
        <ele>1013</ele>
        <time>2019-06-15T07:27:45.000Z</time>
      </trkpt>
      <trkpt lat="44.96772" lon="5.38077">
        <ele>1013</ele>
        <time>2019-06-15T07:27:46.000Z</time>
      </trkpt>
      <trkpt lat="44.9677" lon="5.38074">
        <ele>1013</ele>
        <time>2019-06-15T07:27:47.000Z</time>
      </trkpt>
      <trkpt lat="44.96769" lon="5.38071">
        <ele>1014</ele>
        <time>2019-06-15T07:27:48.000Z</time>
      </trkpt>
      <trkpt lat="44.96767" lon="5.38068">
        <ele>1013</ele>
        <time>2019-06-15T07:27:49.000Z</time>
      </trkpt>
      <trkpt lat="44.96765" lon="5.38065">
        <ele>1014</ele>
        <time>2019-06-15T07:27:50.000Z</time>
      </trkpt>
      <trkpt lat="44.96763" lon="5.38062">
        <ele>1015</ele>
        <time>2019-06-15T07:27:51.000Z</time>
      </trkpt>
      <trkpt lat="44.96762" lon="5.38059">
        <ele>1015</ele>
        <time>2019-06-15T07:27:52.000Z</time>
      </trkpt>
      <trkpt lat="44.9676" lon="5.38056">
        <ele>1016</ele>
        <time>2019-06-15T07:27:53.000Z</time>
      </trkpt>
      <trkpt lat="44.96758" lon="5.38053">
        <ele>1016</ele>
        <time>2019-06-15T07:27:54.000Z</time>
      </trkpt>
      <trkpt lat="44.96757" lon="5.3805">
        <ele>1016</ele>
        <time>2019-06-15T07:27:55.000Z</time>
      </trkpt>
      <trkpt lat="44.96755" lon="5.38047">
        <ele>1016</ele>
        <time>2019-06-15T07:27:56.000Z</time>
      </trkpt>
      <trkpt lat="44.96753" lon="5.38044">
        <ele>1016</ele>
        <time>2019-06-15T07:27:57.000Z</time>
      </trkpt>
      <trkpt lat="44.96751" lon="5.38041">
        <ele>1016</ele>
        <time>2019-06-15T07:27:58.000Z</time>
      </trkpt>
      <trkpt lat="44.96749" lon="5.38038">
        <ele>1016</ele>
        <time>2019-06-15T07:27:59.000Z</time>
      </trkpt>
      <trkpt lat="44.96747" lon="5.38035">
        <ele>1016</ele>
        <time>2019-06-15T07:28:00.000Z</time>
      </trkpt>
      <trkpt lat="44.96745" lon="5.38031">
        <ele>1016</ele>
        <time>2019-06-15T07:28:01.000Z</time>
      </trkpt>
      <trkpt lat="44.96743" lon="5.38028">
        <ele>1016</ele>
        <time>2019-06-15T07:28:02.000Z</time>
      </trkpt>
      <trkpt lat="44.96741" lon="5.38025">
        <ele>1016</ele>
        <time>2019-06-15T07:28:03.000Z</time>
      </trkpt>
      <trkpt lat="44.96739" lon="5.38022">
        <ele>1016</ele>
        <time>2019-06-15T07:28:04.000Z</time>
      </trkpt>
      <trkpt lat="44.96737" lon="5.38019">
        <ele>1016</ele>
        <time>2019-06-15T07:28:05.000Z</time>
      </trkpt>
      <trkpt lat="44.96736" lon="5.38016">
        <ele>1016</ele>
        <time>2019-06-15T07:28:06.000Z</time>
      </trkpt>
      <trkpt lat="44.96734" lon="5.38012">
        <ele>1015</ele>
        <time>2019-06-15T07:28:07.000Z</time>
      </trkpt>
      <trkpt lat="44.96732" lon="5.38009">
        <ele>1015</ele>
        <time>2019-06-15T07:28:08.000Z</time>
      </trkpt>
      <trkpt lat="44.9673" lon="5.38006">
        <ele>1015</ele>
        <time>2019-06-15T07:28:09.000Z</time>
      </trkpt>
      <trkpt lat="44.96728" lon="5.38003">
        <ele>1015</ele>
        <time>2019-06-15T07:28:10.000Z</time>
      </trkpt>
      <trkpt lat="44.96726" lon="5.38">
        <ele>1014</ele>
        <time>2019-06-15T07:28:11.000Z</time>
      </trkpt>
      <trkpt lat="44.96724" lon="5.37996">
        <ele>1014</ele>
        <time>2019-06-15T07:28:12.000Z</time>
      </trkpt>
      <trkpt lat="44.96722" lon="5.37993">
        <ele>1014</ele>
        <time>2019-06-15T07:28:13.000Z</time>
      </trkpt>
      <trkpt lat="44.9672" lon="5.3799">
        <ele>1014</ele>
        <time>2019-06-15T07:28:14.000Z</time>
      </trkpt>
      <trkpt lat="44.96718" lon="5.37987">
        <ele>1014</ele>
        <time>2019-06-15T07:28:15.000Z</time>
      </trkpt>
      <trkpt lat="44.96716" lon="5.37984">
        <ele>1014</ele>
        <time>2019-06-15T07:28:16.000Z</time>
      </trkpt>
      <trkpt lat="44.96714" lon="5.37981">
        <ele>1014</ele>
        <time>2019-06-15T07:28:17.000Z</time>
      </trkpt>
      <trkpt lat="44.96712" lon="5.37978">
        <ele>1014</ele>
        <time>2019-06-15T07:28:18.000Z</time>
      </trkpt>
      <trkpt lat="44.9671" lon="5.37975">
        <ele>1014</ele>
        <time>2019-06-15T07:28:19.000Z</time>
      </trkpt>
      <trkpt lat="44.96709" lon="5.37971">
        <ele>1014</ele>
        <time>2019-06-15T07:28:20.000Z</time>
      </trkpt>
      <trkpt lat="44.96707" lon="5.37968">
        <ele>1014</ele>
        <time>2019-06-15T07:28:21.000Z</time>
      </trkpt>
      <trkpt lat="44.96705" lon="5.37965">
        <ele>1014</ele>
        <time>2019-06-15T07:28:22.000Z</time>
      </trkpt>
      <trkpt lat="44.96703" lon="5.37961">
        <ele>1014</ele>
        <time>2019-06-15T07:28:23.000Z</time>
      </trkpt>
      <trkpt lat="44.96702" lon="5.37958">
        <ele>1014</ele>
        <time>2019-06-15T07:28:24.000Z</time>
      </trkpt>
      <trkpt lat="44.967" lon="5.37954">
        <ele>1013</ele>
        <time>2019-06-15T07:28:25.000Z</time>
      </trkpt>
      <trkpt lat="44.96699" lon="5.3795">
        <ele>1013</ele>
        <time>2019-06-15T07:28:26.000Z</time>
      </trkpt>
      <trkpt lat="44.96697" lon="5.37947">
        <ele>1013</ele>
        <time>2019-06-15T07:28:27.000Z</time>
      </trkpt>
      <trkpt lat="44.96696" lon="5.37943">
        <ele>1013</ele>
        <time>2019-06-15T07:28:28.000Z</time>
      </trkpt>
      <trkpt lat="44.96694" lon="5.37939">
        <ele>1013</ele>
        <time>2019-06-15T07:28:29.000Z</time>
      </trkpt>
      <trkpt lat="44.96693" lon="5.37935">
        <ele>1012</ele>
        <time>2019-06-15T07:28:30.000Z</time>
      </trkpt>
      <trkpt lat="44.96691" lon="5.37932">
        <ele>1012</ele>
        <time>2019-06-15T07:28:31.000Z</time>
      </trkpt>
      <trkpt lat="44.96689" lon="5.37928">
        <ele>1013</ele>
        <time>2019-06-15T07:28:32.000Z</time>
      </trkpt>
      <trkpt lat="44.96687" lon="5.37925">
        <ele>1013</ele>
        <time>2019-06-15T07:28:33.000Z</time>
      </trkpt>
      <trkpt lat="44.96685" lon="5.37922">
        <ele>1013</ele>
        <time>2019-06-15T07:28:34.000Z</time>
      </trkpt>
      <trkpt lat="44.96683" lon="5.37918">
        <ele>1013</ele>
        <time>2019-06-15T07:28:35.000Z</time>
      </trkpt>
      <trkpt lat="44.96681" lon="5.37915">
        <ele>1013</ele>
        <time>2019-06-15T07:28:36.000Z</time>
      </trkpt>
      <trkpt lat="44.96679" lon="5.37912">
        <ele>1013</ele>
        <time>2019-06-15T07:28:37.000Z</time>
      </trkpt>
      <trkpt lat="44.96677" lon="5.37908">
        <ele>1013</ele>
        <time>2019-06-15T07:28:38.000Z</time>
      </trkpt>
      <trkpt lat="44.96676" lon="5.37905">
        <ele>1014</ele>
        <time>2019-06-15T07:28:39.000Z</time>
      </trkpt>
      <trkpt lat="44.96674" lon="5.37902">
        <ele>1014</ele>
        <time>2019-06-15T07:28:40.000Z</time>
      </trkpt>
      <trkpt lat="44.96673" lon="5.37899">
        <ele>1014</ele>
        <time>2019-06-15T07:28:41.000Z</time>
      </trkpt>
      <trkpt lat="44.96671" lon="5.37895">
        <ele>1016</ele>
        <time>2019-06-15T07:28:42.000Z</time>
      </trkpt>
      <trkpt lat="44.9667" lon="5.37893">
        <ele>1016</ele>
        <time>2019-06-15T07:28:43.000Z</time>
      </trkpt>
      <trkpt lat="44.96668" lon="5.3789">
        <ele>1016</ele>
        <time>2019-06-15T07:28:44.000Z</time>
      </trkpt>
      <trkpt lat="44.96666" lon="5.37887">
        <ele>1016</ele>
        <time>2019-06-15T07:28:45.000Z</time>
      </trkpt>
      <trkpt lat="44.96665" lon="5.37884">
        <ele>1016</ele>
        <time>2019-06-15T07:28:46.000Z</time>
      </trkpt>
      <trkpt lat="44.96663" lon="5.37881">
        <ele>1017</ele>
        <time>2019-06-15T07:28:47.000Z</time>
      </trkpt>
      <trkpt lat="44.96662" lon="5.37878">
        <ele>1017</ele>
        <time>2019-06-15T07:28:48.000Z</time>
      </trkpt>
      <trkpt lat="44.9666" lon="5.37875">
        <ele>1017</ele>
        <time>2019-06-15T07:28:49.000Z</time>
      </trkpt>
      <trkpt lat="44.96659" lon="5.37871">
        <ele>1016</ele>
        <time>2019-06-15T07:28:50.000Z</time>
      </trkpt>
      <trkpt lat="44.96657" lon="5.37868">
        <ele>1017</ele>
        <time>2019-06-15T07:28:51.000Z</time>
      </trkpt>
      <trkpt lat="44.96656" lon="5.37865">
        <ele>1017</ele>
        <time>2019-06-15T07:28:52.000Z</time>
      </trkpt>
      <trkpt lat="44.96654" lon="5.37861">
        <ele>1017</ele>
        <time>2019-06-15T07:28:53.000Z</time>
      </trkpt>
      <trkpt lat="44.96653" lon="5.37858">
        <ele>1018</ele>
        <time>2019-06-15T07:28:54.000Z</time>
      </trkpt>
      <trkpt lat="44.96652" lon="5.37855">
        <ele>1017</ele>
        <time>2019-06-15T07:28:55.000Z</time>
      </trkpt>
      <trkpt lat="44.9665" lon="5.37851">
        <ele>1017</ele>
        <time>2019-06-15T07:28:56.000Z</time>
      </trkpt>
      <trkpt lat="44.96649" lon="5.37847">
        <ele>1017</ele>
        <time>2019-06-15T07:28:57.000Z</time>
      </trkpt>
      <trkpt lat="44.96647" lon="5.37844">
        <ele>1016</ele>
        <time>2019-06-15T07:28:58.000Z</time>
      </trkpt>
      <trkpt lat="44.96646" lon="5.3784">
        <ele>1017</ele>
        <time>2019-06-15T07:28:59.000Z</time>
      </trkpt>
      <trkpt lat="44.96645" lon="5.37836">
        <ele>1017</ele>
        <time>2019-06-15T07:29:00.000Z</time>
      </trkpt>
      <trkpt lat="44.96643" lon="5.37833">
        <ele>1017</ele>
        <time>2019-06-15T07:29:01.000Z</time>
      </trkpt>
      <trkpt lat="44.96642" lon="5.37829">
        <ele>1017</ele>
        <time>2019-06-15T07:29:02.000Z</time>
      </trkpt>
      <trkpt lat="44.9664" lon="5.37826">
        <ele>1017</ele>
        <time>2019-06-15T07:29:03.000Z</time>
      </trkpt>
      <trkpt lat="44.96639" lon="5.37822">
        <ele>1016</ele>
        <time>2019-06-15T07:29:04.000Z</time>
      </trkpt>
      <trkpt lat="44.96638" lon="5.37819">
        <ele>1016</ele>
        <time>2019-06-15T07:29:05.000Z</time>
      </trkpt>
      <trkpt lat="44.96636" lon="5.37815">
        <ele>1016</ele>
        <time>2019-06-15T07:29:06.000Z</time>
      </trkpt>
      <trkpt lat="44.96635" lon="5.37812">
        <ele>1016</ele>
        <time>2019-06-15T07:29:07.000Z</time>
      </trkpt>
      <trkpt lat="44.96633" lon="5.37808">
        <ele>1017</ele>
        <time>2019-06-15T07:29:08.000Z</time>
      </trkpt>
      <trkpt lat="44.96632" lon="5.37805">
        <ele>1016</ele>
        <time>2019-06-15T07:29:09.000Z</time>
      </trkpt>
      <trkpt lat="44.9663" lon="5.37801">
        <ele>1017</ele>
        <time>2019-06-15T07:29:10.000Z</time>
      </trkpt>
      <trkpt lat="44.96628" lon="5.37798">
        <ele>1017</ele>
        <time>2019-06-15T07:29:11.000Z</time>
      </trkpt>
      <trkpt lat="44.96627" lon="5.37795">
        <ele>1017</ele>
        <time>2019-06-15T07:29:12.000Z</time>
      </trkpt>
      <trkpt lat="44.96625" lon="5.37791">
        <ele>1017</ele>
        <time>2019-06-15T07:29:13.000Z</time>
      </trkpt>
      <trkpt lat="44.96624" lon="5.37788">
        <ele>1017</ele>
        <time>2019-06-15T07:29:14.000Z</time>
      </trkpt>
      <trkpt lat="44.96622" lon="5.37785">
        <ele>1017</ele>
        <time>2019-06-15T07:29:15.000Z</time>
      </trkpt>
      <trkpt lat="44.96621" lon="5.37782">
        <ele>1018</ele>
        <time>2019-06-15T07:29:16.000Z</time>
      </trkpt>
      <trkpt lat="44.96619" lon="5.37779">
        <ele>1018</ele>
        <time>2019-06-15T07:29:17.000Z</time>
      </trkpt>
      <trkpt lat="44.96617" lon="5.37776">
        <ele>1018</ele>
        <time>2019-06-15T07:29:18.000Z</time>
      </trkpt>
      <trkpt lat="44.96616" lon="5.37773">
        <ele>1018</ele>
        <time>2019-06-15T07:29:19.000Z</time>
      </trkpt>
      <trkpt lat="44.96615" lon="5.37771">
        <ele>1018</ele>
        <time>2019-06-15T07:29:20.000Z</time>
      </trkpt>
      <trkpt lat="44.96613" lon="5.37768">
        <ele>1018</ele>
        <time>2019-06-15T07:29:21.000Z</time>
      </trkpt>
      <trkpt lat="44.96612" lon="5.37766">
        <ele>1018</ele>
        <time>2019-06-15T07:29:22.000Z</time>
      </trkpt>
      <trkpt lat="44.96611" lon="5.37764">
        <ele>1018</ele>
        <time>2019-06-15T07:29:23.000Z</time>
      </trkpt>
      <trkpt lat="44.96609" lon="5.37761">
        <ele>1019</ele>
        <time>2019-06-15T07:29:24.000Z</time>
      </trkpt>
      <trkpt lat="44.96608" lon="5.37758">
        <ele>1019</ele>
        <time>2019-06-15T07:29:25.000Z</time>
      </trkpt>
      <trkpt lat="44.96608" lon="5.37755">
        <ele>1019</ele>
        <time>2019-06-15T07:29:26.000Z</time>
      </trkpt>
      <trkpt lat="44.96607" lon="5.37752">
        <ele>1019</ele>
        <time>2019-06-15T07:29:27.000Z</time>
      </trkpt>
      <trkpt lat="44.96605" lon="5.37749">
        <ele>1019</ele>
        <time>2019-06-15T07:29:28.000Z</time>
      </trkpt>
      <trkpt lat="44.96604" lon="5.37746">
        <ele>1019</ele>
        <time>2019-06-15T07:29:29.000Z</time>
      </trkpt>
      <trkpt lat="44.96602" lon="5.37744">
        <ele>1020</ele>
        <time>2019-06-15T07:29:30.000Z</time>
      </trkpt>
      <trkpt lat="44.96599" lon="5.37743">
        <ele>1020</ele>
        <time>2019-06-15T07:29:31.000Z</time>
      </trkpt>
      <trkpt lat="44.96597" lon="5.37742">
        <ele>1020</ele>
        <time>2019-06-15T07:29:32.000Z</time>
      </trkpt>
      <trkpt lat="44.96595" lon="5.37741">
        <ele>1020</ele>
        <time>2019-06-15T07:29:33.000Z</time>
      </trkpt>
      <trkpt lat="44.96592" lon="5.3774">
        <ele>1020</ele>
        <time>2019-06-15T07:29:34.000Z</time>
      </trkpt>
      <trkpt lat="44.9659" lon="5.37739">
        <ele>1020</ele>
        <time>2019-06-15T07:29:35.000Z</time>
      </trkpt>
      <trkpt lat="44.96588" lon="5.37738">
        <ele>1020</ele>
        <time>2019-06-15T07:29:36.000Z</time>
      </trkpt>
      <trkpt lat="44.96585" lon="5.37737">
        <ele>1020</ele>
        <time>2019-06-15T07:29:37.000Z</time>
      </trkpt>
      <trkpt lat="44.96583" lon="5.37736">
        <ele>1020</ele>
        <time>2019-06-15T07:29:38.000Z</time>
      </trkpt>
      <trkpt lat="44.9658" lon="5.37735">
        <ele>1021</ele>
        <time>2019-06-15T07:29:39.000Z</time>
      </trkpt>
      <trkpt lat="44.96578" lon="5.37734">
        <ele>1021</ele>
        <time>2019-06-15T07:29:40.000Z</time>
      </trkpt>
      <trkpt lat="44.96575" lon="5.37733">
        <ele>1021</ele>
        <time>2019-06-15T07:29:41.000Z</time>
      </trkpt>
      <trkpt lat="44.96573" lon="5.37732">
        <ele>1021</ele>
        <time>2019-06-15T07:29:42.000Z</time>
      </trkpt>
      <trkpt lat="44.9657" lon="5.3773">
        <ele>1022</ele>
        <time>2019-06-15T07:29:43.000Z</time>
      </trkpt>
      <trkpt lat="44.96568" lon="5.37729">
        <ele>1022</ele>
        <time>2019-06-15T07:29:44.000Z</time>
      </trkpt>
      <trkpt lat="44.96566" lon="5.37727">
        <ele>1023</ele>
        <time>2019-06-15T07:29:45.000Z</time>
      </trkpt>
      <trkpt lat="44.96564" lon="5.37725">
        <ele>1023</ele>
        <time>2019-06-15T07:29:46.000Z</time>
      </trkpt>
      <trkpt lat="44.96562" lon="5.37723">
        <ele>1023</ele>
        <time>2019-06-15T07:29:47.000Z</time>
      </trkpt>
      <trkpt lat="44.96561" lon="5.37721">
        <ele>1023</ele>
        <time>2019-06-15T07:29:48.000Z</time>
      </trkpt>
      <trkpt lat="44.96559" lon="5.37719">
        <ele>1023</ele>
        <time>2019-06-15T07:29:49.000Z</time>
      </trkpt>
      <trkpt lat="44.96558" lon="5.37717">
        <ele>1023</ele>
        <time>2019-06-15T07:29:50.000Z</time>
      </trkpt>
      <trkpt lat="44.96556" lon="5.37714">
        <ele>1024</ele>
        <time>2019-06-15T07:29:51.000Z</time>
      </trkpt>
      <trkpt lat="44.96555" lon="5.37712">
        <ele>1024</ele>
        <time>2019-06-15T07:29:52.000Z</time>
      </trkpt>
      <trkpt lat="44.96554" lon="5.3771">
        <ele>1024</ele>
        <time>2019-06-15T07:29:53.000Z</time>
      </trkpt>
      <trkpt lat="44.96552" lon="5.37707">
        <ele>1025</ele>
        <time>2019-06-15T07:29:54.000Z</time>
      </trkpt>
      <trkpt lat="44.96551" lon="5.37705">
        <ele>1024</ele>
        <time>2019-06-15T07:29:55.000Z</time>
      </trkpt>
      <trkpt lat="44.9655" lon="5.37703">
        <ele>1025</ele>
        <time>2019-06-15T07:29:56.000Z</time>
      </trkpt>
      <trkpt lat="44.96549" lon="5.37701">
        <ele>1025</ele>
        <time>2019-06-15T07:29:57.000Z</time>
      </trkpt>
      <trkpt lat="44.96549" lon="5.37699">
        <ele>1025</ele>
        <time>2019-06-15T07:29:58.000Z</time>
      </trkpt>
      <trkpt lat="44.96548" lon="5.37697">
        <ele>1026</ele>
        <time>2019-06-15T07:29:59.000Z</time>
      </trkpt>
      <trkpt lat="44.96547" lon="5.37694">
        <ele>1026</ele>
        <time>2019-06-15T07:30:00.000Z</time>
      </trkpt>
      <trkpt lat="44.96546" lon="5.37692">
        <ele>1027</ele>
        <time>2019-06-15T07:30:01.000Z</time>
      </trkpt>
      <trkpt lat="44.96546" lon="5.3769">
        <ele>1027</ele>
        <time>2019-06-15T07:30:02.000Z</time>
      </trkpt>
      <trkpt lat="44.96545" lon="5.37689">
        <ele>1027</ele>
        <time>2019-06-15T07:30:03.000Z</time>
      </trkpt>
      <trkpt lat="44.96545" lon="5.37687">
        <ele>1028</ele>
        <time>2019-06-15T07:30:04.000Z</time>
      </trkpt>
      <trkpt lat="44.96544" lon="5.37685">
        <ele>1028</ele>
        <time>2019-06-15T07:30:05.000Z</time>
      </trkpt>
      <trkpt lat="44.96543" lon="5.37684">
        <ele>1029</ele>
        <time>2019-06-15T07:30:06.000Z</time>
      </trkpt>
      <trkpt lat="44.96543" lon="5.37682">
        <ele>1029</ele>
        <time>2019-06-15T07:30:07.000Z</time>
      </trkpt>
      <trkpt lat="44.96542" lon="5.3768">
        <ele>1029</ele>
        <time>2019-06-15T07:30:08.000Z</time>
      </trkpt>
      <trkpt lat="44.96541" lon="5.37679">
        <ele>1028</ele>
        <time>2019-06-15T07:30:09.000Z</time>
      </trkpt>
      <trkpt lat="44.9654" lon="5.37677">
        <ele>1029</ele>
        <time>2019-06-15T07:30:10.000Z</time>
      </trkpt>
      <trkpt lat="44.96539" lon="5.37676">
        <ele>1028</ele>
        <time>2019-06-15T07:30:11.000Z</time>
      </trkpt>
      <trkpt lat="44.96538" lon="5.37674">
        <ele>1028</ele>
        <time>2019-06-15T07:30:12.000Z</time>
      </trkpt>
      <trkpt lat="44.96537" lon="5.37673">
        <ele>1028</ele>
        <time>2019-06-15T07:30:13.000Z</time>
      </trkpt>
      <trkpt lat="44.96536" lon="5.37671">
        <ele>1029</ele>
        <time>2019-06-15T07:30:14.000Z</time>
      </trkpt>
      <trkpt lat="44.96535" lon="5.3767">
        <ele>1030</ele>
        <time>2019-06-15T07:30:15.000Z</time>
      </trkpt>
      <trkpt lat="44.96534" lon="5.37668">
        <ele>1031</ele>
        <time>2019-06-15T07:30:16.000Z</time>
      </trkpt>
      <trkpt lat="44.96533" lon="5.37667">
        <ele>1031</ele>
        <time>2019-06-15T07:30:17.000Z</time>
      </trkpt>
      <trkpt lat="44.96532" lon="5.37665">
        <ele>1031</ele>
        <time>2019-06-15T07:30:18.000Z</time>
      </trkpt>
      <trkpt lat="44.96531" lon="5.37663">
        <ele>1032</ele>
        <time>2019-06-15T07:30:19.000Z</time>
      </trkpt>
      <trkpt lat="44.9653" lon="5.37662">
        <ele>1032</ele>
        <time>2019-06-15T07:30:20.000Z</time>
      </trkpt>
      <trkpt lat="44.9653" lon="5.3766">
        <ele>1032</ele>
        <time>2019-06-15T07:30:21.000Z</time>
      </trkpt>
      <trkpt lat="44.96529" lon="5.37658">
        <ele>1033</ele>
        <time>2019-06-15T07:30:22.000Z</time>
      </trkpt>
      <trkpt lat="44.96528" lon="5.37657">
        <ele>1033</ele>
        <time>2019-06-15T07:30:23.000Z</time>
      </trkpt>
      <trkpt lat="44.96528" lon="5.37655">
        <ele>1033</ele>
        <time>2019-06-15T07:30:24.000Z</time>
      </trkpt>
      <trkpt lat="44.96527" lon="5.37654">
        <ele>1034</ele>
        <time>2019-06-15T07:30:25.000Z</time>
      </trkpt>
      <trkpt lat="44.96527" lon="5.37652">
        <ele>1034</ele>
        <time>2019-06-15T07:30:26.000Z</time>
      </trkpt>
      <trkpt lat="44.96526" lon="5.37651">
        <ele>1034</ele>
        <time>2019-06-15T07:30:27.000Z</time>
      </trkpt>
      <trkpt lat="44.96526" lon="5.37649">
        <ele>1035</ele>
        <time>2019-06-15T07:30:28.000Z</time>
      </trkpt>
      <trkpt lat="44.96525" lon="5.37648">
        <ele>1035</ele>
        <time>2019-06-15T07:30:29.000Z</time>
      </trkpt>
      <trkpt lat="44.96525" lon="5.37646">
        <ele>1035</ele>
        <time>2019-06-15T07:30:30.000Z</time>
      </trkpt>
      <trkpt lat="44.96524" lon="5.37645">
        <ele>1035</ele>
        <time>2019-06-15T07:30:31.000Z</time>
      </trkpt>
      <trkpt lat="44.96523" lon="5.37643">
        <ele>1035</ele>
        <time>2019-06-15T07:30:32.000Z</time>
      </trkpt>
      <trkpt lat="44.96522" lon="5.37642">
        <ele>1036</ele>
        <time>2019-06-15T07:30:33.000Z</time>
      </trkpt>
      <trkpt lat="44.96522" lon="5.3764">
        <ele>1036</ele>
        <time>2019-06-15T07:30:34.000Z</time>
      </trkpt>
      <trkpt lat="44.96521" lon="5.37639">
        <ele>1036</ele>
        <time>2019-06-15T07:30:35.000Z</time>
      </trkpt>
      <trkpt lat="44.9652" lon="5.37637">
        <ele>1037</ele>
        <time>2019-06-15T07:30:36.000Z</time>
      </trkpt>
      <trkpt lat="44.9652" lon="5.37636">
        <ele>1037</ele>
        <time>2019-06-15T07:30:37.000Z</time>
      </trkpt>
      <trkpt lat="44.96519" lon="5.37634">
        <ele>1037</ele>
        <time>2019-06-15T07:30:38.000Z</time>
      </trkpt>
      <trkpt lat="44.96517" lon="5.37632">
        <ele>1038</ele>
        <time>2019-06-15T07:30:39.000Z</time>
      </trkpt>
      <trkpt lat="44.96516" lon="5.3763">
        <ele>1038</ele>
        <time>2019-06-15T07:30:40.000Z</time>
      </trkpt>
      <trkpt lat="44.96515" lon="5.37628">
        <ele>1038</ele>
        <time>2019-06-15T07:30:41.000Z</time>
      </trkpt>
      <trkpt lat="44.96514" lon="5.37626">
        <ele>1038</ele>
        <time>2019-06-15T07:30:42.000Z</time>
      </trkpt>
      <trkpt lat="44.96513" lon="5.37625">
        <ele>1038</ele>
        <time>2019-06-15T07:30:43.000Z</time>
      </trkpt>
      <trkpt lat="44.96513" lon="5.37623">
        <ele>1038</ele>
        <time>2019-06-15T07:30:44.000Z</time>
      </trkpt>
      <trkpt lat="44.96512" lon="5.37621">
        <ele>1039</ele>
        <time>2019-06-15T07:30:45.000Z</time>
      </trkpt>
      <trkpt lat="44.96511" lon="5.37619">
        <ele>1039</ele>
        <time>2019-06-15T07:30:46.000Z</time>
      </trkpt>
      <trkpt lat="44.9651" lon="5.37618">
        <ele>1039</ele>
        <time>2019-06-15T07:30:47.000Z</time>
      </trkpt>
      <trkpt lat="44.96509" lon="5.37616">
        <ele>1039</ele>
        <time>2019-06-15T07:30:48.000Z</time>
      </trkpt>
      <trkpt lat="44.96508" lon="5.37614">
        <ele>1039</ele>
        <time>2019-06-15T07:30:49.000Z</time>
      </trkpt>
      <trkpt lat="44.96507" lon="5.37613">
        <ele>1040</ele>
        <time>2019-06-15T07:30:50.000Z</time>
      </trkpt>
      <trkpt lat="44.96506" lon="5.37612">
        <ele>1040</ele>
        <time>2019-06-15T07:30:51.000Z</time>
      </trkpt>
      <trkpt lat="44.96506" lon="5.3761">
        <ele>1040</ele>
        <time>2019-06-15T07:30:52.000Z</time>
      </trkpt>
      <trkpt lat="44.96505" lon="5.37609">
        <ele>1041</ele>
        <time>2019-06-15T07:30:53.000Z</time>
      </trkpt>
      <trkpt lat="44.96504" lon="5.37608">
        <ele>1041</ele>
        <time>2019-06-15T07:30:54.000Z</time>
      </trkpt>
      <trkpt lat="44.96503" lon="5.37606">
        <ele>1041</ele>
        <time>2019-06-15T07:30:55.000Z</time>
      </trkpt>
      <trkpt lat="44.96502" lon="5.37605">
        <ele>1042</ele>
        <time>2019-06-15T07:30:56.000Z</time>
      </trkpt>
      <trkpt lat="44.96501" lon="5.37603">
        <ele>1042</ele>
        <time>2019-06-15T07:30:57.000Z</time>
      </trkpt>
      <trkpt lat="44.965" lon="5.37602">
        <ele>1042</ele>
        <time>2019-06-15T07:30:58.000Z</time>
      </trkpt>
      <trkpt lat="44.96498" lon="5.37601">
        <ele>1042</ele>
        <time>2019-06-15T07:30:59.000Z</time>
      </trkpt>
      <trkpt lat="44.96497" lon="5.37599">
        <ele>1043</ele>
        <time>2019-06-15T07:31:00.000Z</time>
      </trkpt>
      <trkpt lat="44.96496" lon="5.37598">
        <ele>1042</ele>
        <time>2019-06-15T07:31:01.000Z</time>
      </trkpt>
      <trkpt lat="44.96495" lon="5.37597">
        <ele>1042</ele>
        <time>2019-06-15T07:31:02.000Z</time>
      </trkpt>
      <trkpt lat="44.96494" lon="5.37596">
        <ele>1043</ele>
        <time>2019-06-15T07:31:03.000Z</time>
      </trkpt>
      <trkpt lat="44.96493" lon="5.37595">
        <ele>1043</ele>
        <time>2019-06-15T07:31:04.000Z</time>
      </trkpt>
      <trkpt lat="44.96492" lon="5.37593">
        <ele>1043</ele>
        <time>2019-06-15T07:31:05.000Z</time>
      </trkpt>
      <trkpt lat="44.96492" lon="5.37592">
        <ele>1044</ele>
        <time>2019-06-15T07:31:06.000Z</time>
      </trkpt>
      <trkpt lat="44.96491" lon="5.37591">
        <ele>1044</ele>
        <time>2019-06-15T07:31:07.000Z</time>
      </trkpt>
      <trkpt lat="44.9649" lon="5.3759">
        <ele>1045</ele>
        <time>2019-06-15T07:31:08.000Z</time>
      </trkpt>
      <trkpt lat="44.96489" lon="5.37589">
        <ele>1045</ele>
        <time>2019-06-15T07:31:09.000Z</time>
      </trkpt>
      <trkpt lat="44.96488" lon="5.37587">
        <ele>1046</ele>
        <time>2019-06-15T07:31:10.000Z</time>
      </trkpt>
      <trkpt lat="44.96487" lon="5.37586">
        <ele>1046</ele>
        <time>2019-06-15T07:31:11.000Z</time>
      </trkpt>
      <trkpt lat="44.96487" lon="5.37585">
        <ele>1046</ele>
        <time>2019-06-15T07:31:12.000Z</time>
      </trkpt>
      <trkpt lat="44.96486" lon="5.37583">
        <ele>1046</ele>
        <time>2019-06-15T07:31:13.000Z</time>
      </trkpt>
      <trkpt lat="44.96486" lon="5.37582">
        <ele>1046</ele>
        <time>2019-06-15T07:31:14.000Z</time>
      </trkpt>
      <trkpt lat="44.96485" lon="5.3758">
        <ele>1046</ele>
        <time>2019-06-15T07:31:15.000Z</time>
      </trkpt>
      <trkpt lat="44.96485" lon="5.37579">
        <ele>1046</ele>
        <time>2019-06-15T07:31:16.000Z</time>
      </trkpt>
      <trkpt lat="44.96484" lon="5.37577">
        <ele>1046</ele>
        <time>2019-06-15T07:31:17.000Z</time>
      </trkpt>
      <trkpt lat="44.96484" lon="5.37576">
        <ele>1047</ele>
        <time>2019-06-15T07:31:18.000Z</time>
      </trkpt>
      <trkpt lat="44.96483" lon="5.37574">
        <ele>1047</ele>
        <time>2019-06-15T07:31:19.000Z</time>
      </trkpt>
      <trkpt lat="44.96483" lon="5.37573">
        <ele>1047</ele>
        <time>2019-06-15T07:31:20.000Z</time>
      </trkpt>
      <trkpt lat="44.96482" lon="5.37572">
        <ele>1048</ele>
        <time>2019-06-15T07:31:21.000Z</time>
      </trkpt>
      <trkpt lat="44.96482" lon="5.37571">
        <ele>1048</ele>
        <time>2019-06-15T07:31:22.000Z</time>
      </trkpt>
      <trkpt lat="44.96481" lon="5.3757">
        <ele>1048</ele>
        <time>2019-06-15T07:31:23.000Z</time>
      </trkpt>
      <trkpt lat="44.9648" lon="5.37569">
        <ele>1048</ele>
        <time>2019-06-15T07:31:24.000Z</time>
      </trkpt>
      <trkpt lat="44.9648" lon="5.37567">
        <ele>1048</ele>
        <time>2019-06-15T07:31:25.000Z</time>
      </trkpt>
      <trkpt lat="44.96479" lon="5.37566">
        <ele>1049</ele>
        <time>2019-06-15T07:31:26.000Z</time>
      </trkpt>
      <trkpt lat="44.96478" lon="5.37565">
        <ele>1049</ele>
        <time>2019-06-15T07:31:27.000Z</time>
      </trkpt>
      <trkpt lat="44.96477" lon="5.37563">
        <ele>1049</ele>
        <time>2019-06-15T07:31:28.000Z</time>
      </trkpt>
      <trkpt lat="44.96476" lon="5.37562">
        <ele>1049</ele>
        <time>2019-06-15T07:31:29.000Z</time>
      </trkpt>
      <trkpt lat="44.96475" lon="5.3756">
        <ele>1050</ele>
        <time>2019-06-15T07:31:30.000Z</time>
      </trkpt>
      <trkpt lat="44.96474" lon="5.37558">
        <ele>1050</ele>
        <time>2019-06-15T07:31:31.000Z</time>
      </trkpt>
      <trkpt lat="44.96474" lon="5.37557">
        <ele>1050</ele>
        <time>2019-06-15T07:31:32.000Z</time>
      </trkpt>
      <trkpt lat="44.96473" lon="5.37555">
        <ele>1051</ele>
        <time>2019-06-15T07:31:33.000Z</time>
      </trkpt>
      <trkpt lat="44.96473" lon="5.37554">
        <ele>1051</ele>
        <time>2019-06-15T07:31:34.000Z</time>
      </trkpt>
      <trkpt lat="44.96472" lon="5.37552">
        <ele>1051</ele>
        <time>2019-06-15T07:31:35.000Z</time>
      </trkpt>
      <trkpt lat="44.96471" lon="5.37551">
        <ele>1051</ele>
        <time>2019-06-15T07:31:36.000Z</time>
      </trkpt>
      <trkpt lat="44.96471" lon="5.37549">
        <ele>1052</ele>
        <time>2019-06-15T07:31:37.000Z</time>
      </trkpt>
      <trkpt lat="44.9647" lon="5.37548">
        <ele>1052</ele>
        <time>2019-06-15T07:31:38.000Z</time>
      </trkpt>
      <trkpt lat="44.9647" lon="5.37546">
        <ele>1052</ele>
        <time>2019-06-15T07:31:39.000Z</time>
      </trkpt>
      <trkpt lat="44.96469" lon="5.37545">
        <ele>1052</ele>
        <time>2019-06-15T07:31:40.000Z</time>
      </trkpt>
      <trkpt lat="44.96469" lon="5.37543">
        <ele>1053</ele>
        <time>2019-06-15T07:31:41.000Z</time>
      </trkpt>
      <trkpt lat="44.96469" lon="5.37542">
        <ele>1052</ele>
        <time>2019-06-15T07:31:42.000Z</time>
      </trkpt>
      <trkpt lat="44.96468" lon="5.3754">
        <ele>1053</ele>
        <time>2019-06-15T07:31:43.000Z</time>
      </trkpt>
      <trkpt lat="44.96468" lon="5.37539">
        <ele>1053</ele>
        <time>2019-06-15T07:31:44.000Z</time>
      </trkpt>
      <trkpt lat="44.96467" lon="5.37537">
        <ele>1052</ele>
        <time>2019-06-15T07:31:45.000Z</time>
      </trkpt>
      <trkpt lat="44.96467" lon="5.37536">
        <ele>1053</ele>
        <time>2019-06-15T07:31:46.000Z</time>
      </trkpt>
      <trkpt lat="44.96467" lon="5.37534">
        <ele>1053</ele>
        <time>2019-06-15T07:31:47.000Z</time>
      </trkpt>
      <trkpt lat="44.96466" lon="5.37533">
        <ele>1053</ele>
        <time>2019-06-15T07:31:48.000Z</time>
      </trkpt>
      <trkpt lat="44.96465" lon="5.37531">
        <ele>1053</ele>
        <time>2019-06-15T07:31:49.000Z</time>
      </trkpt>
      <trkpt lat="44.96464" lon="5.37529">
        <ele>1053</ele>
        <time>2019-06-15T07:31:50.000Z</time>
      </trkpt>
      <trkpt lat="44.96463" lon="5.37528">
        <ele>1053</ele>
        <time>2019-06-15T07:31:51.000Z</time>
      </trkpt>
      <trkpt lat="44.96462" lon="5.37527">
        <ele>1053</ele>
        <time>2019-06-15T07:31:52.000Z</time>
      </trkpt>
      <trkpt lat="44.96461" lon="5.37525">
        <ele>1053</ele>
        <time>2019-06-15T07:31:53.000Z</time>
      </trkpt>
      <trkpt lat="44.96461" lon="5.37523">
        <ele>1053</ele>
        <time>2019-06-15T07:31:54.000Z</time>
      </trkpt>
      <trkpt lat="44.9646" lon="5.37521">
        <ele>1054</ele>
        <time>2019-06-15T07:31:55.000Z</time>
      </trkpt>
      <trkpt lat="44.9646" lon="5.3752">
        <ele>1054</ele>
        <time>2019-06-15T07:31:56.000Z</time>
      </trkpt>
      <trkpt lat="44.96459" lon="5.37519">
        <ele>1055</ele>
        <time>2019-06-15T07:31:57.000Z</time>
      </trkpt>
      <trkpt lat="44.96459" lon="5.37517">
        <ele>1055</ele>
        <time>2019-06-15T07:31:58.000Z</time>
      </trkpt>
      <trkpt lat="44.96458" lon="5.37516">
        <ele>1055</ele>
        <time>2019-06-15T07:31:59.000Z</time>
      </trkpt>
      <trkpt lat="44.96458" lon="5.37515">
        <ele>1055</ele>
        <time>2019-06-15T07:32:00.000Z</time>
      </trkpt>
      <trkpt lat="44.96458" lon="5.37513">
        <ele>1055</ele>
        <time>2019-06-15T07:32:01.000Z</time>
      </trkpt>
      <trkpt lat="44.96457" lon="5.37512">
        <ele>1055</ele>
        <time>2019-06-15T07:32:02.000Z</time>
      </trkpt>
      <trkpt lat="44.96457" lon="5.3751">
        <ele>1056</ele>
        <time>2019-06-15T07:32:03.000Z</time>
      </trkpt>
      <trkpt lat="44.96456" lon="5.37508">
        <ele>1057</ele>
        <time>2019-06-15T07:32:04.000Z</time>
      </trkpt>
      <trkpt lat="44.96455" lon="5.37507">
        <ele>1058</ele>
        <time>2019-06-15T07:32:05.000Z</time>
      </trkpt>
      <trkpt lat="44.96454" lon="5.37505">
        <ele>1059</ele>
        <time>2019-06-15T07:32:06.000Z</time>
      </trkpt>
      <trkpt lat="44.96453" lon="5.37503">
        <ele>1059</ele>
        <time>2019-06-15T07:32:07.000Z</time>
      </trkpt>
      <trkpt lat="44.96453" lon="5.37501">
        <ele>1059</ele>
        <time>2019-06-15T07:32:08.000Z</time>
      </trkpt>
      <trkpt lat="44.96452" lon="5.37499">
        <ele>1059</ele>
        <time>2019-06-15T07:32:09.000Z</time>
      </trkpt>
      <trkpt lat="44.96452" lon="5.37498">
        <ele>1060</ele>
        <time>2019-06-15T07:32:10.000Z</time>
      </trkpt>
      <trkpt lat="44.96451" lon="5.37496">
        <ele>1060</ele>
        <time>2019-06-15T07:32:11.000Z</time>
      </trkpt>
      <trkpt lat="44.9645" lon="5.37495">
        <ele>1061</ele>
        <time>2019-06-15T07:32:12.000Z</time>
      </trkpt>
      <trkpt lat="44.96449" lon="5.37493">
        <ele>1061</ele>
        <time>2019-06-15T07:32:13.000Z</time>
      </trkpt>
      <trkpt lat="44.96448" lon="5.37491">
        <ele>1062</ele>
        <time>2019-06-15T07:32:14.000Z</time>
      </trkpt>
      <trkpt lat="44.96448" lon="5.3749">
        <ele>1063</ele>
        <time>2019-06-15T07:32:15.000Z</time>
      </trkpt>
      <trkpt lat="44.96447" lon="5.37489">
        <ele>1063</ele>
        <time>2019-06-15T07:32:16.000Z</time>
      </trkpt>
      <trkpt lat="44.96446" lon="5.37487">
        <ele>1063</ele>
        <time>2019-06-15T07:32:17.000Z</time>
      </trkpt>
      <trkpt lat="44.96446" lon="5.37486">
        <ele>1063</ele>
        <time>2019-06-15T07:32:18.000Z</time>
      </trkpt>
      <trkpt lat="44.96445" lon="5.37485">
        <ele>1063</ele>
        <time>2019-06-15T07:32:19.000Z</time>
      </trkpt>
      <trkpt lat="44.96444" lon="5.37484">
        <ele>1064</ele>
        <time>2019-06-15T07:32:20.000Z</time>
      </trkpt>
      <trkpt lat="44.96443" lon="5.37483">
        <ele>1064</ele>
        <time>2019-06-15T07:32:21.000Z</time>
      </trkpt>
      <trkpt lat="44.96442" lon="5.37481">
        <ele>1063</ele>
        <time>2019-06-15T07:32:22.000Z</time>
      </trkpt>
      <trkpt lat="44.9644" lon="5.3748">
        <ele>1063</ele>
        <time>2019-06-15T07:32:23.000Z</time>
      </trkpt>
      <trkpt lat="44.96439" lon="5.37479">
        <ele>1063</ele>
        <time>2019-06-15T07:32:24.000Z</time>
      </trkpt>
      <trkpt lat="44.96438" lon="5.37477">
        <ele>1063</ele>
        <time>2019-06-15T07:32:25.000Z</time>
      </trkpt>
      <trkpt lat="44.96437" lon="5.37476">
        <ele>1064</ele>
        <time>2019-06-15T07:32:26.000Z</time>
      </trkpt>
      <trkpt lat="44.96436" lon="5.37474">
        <ele>1064</ele>
        <time>2019-06-15T07:32:27.000Z</time>
      </trkpt>
      <trkpt lat="44.96435" lon="5.37473">
        <ele>1064</ele>
        <time>2019-06-15T07:32:28.000Z</time>
      </trkpt>
      <trkpt lat="44.96434" lon="5.37471">
        <ele>1064</ele>
        <time>2019-06-15T07:32:29.000Z</time>
      </trkpt>
      <trkpt lat="44.96433" lon="5.3747">
        <ele>1064</ele>
        <time>2019-06-15T07:32:30.000Z</time>
      </trkpt>
      <trkpt lat="44.96432" lon="5.37468">
        <ele>1064</ele>
        <time>2019-06-15T07:32:31.000Z</time>
      </trkpt>
      <trkpt lat="44.96431" lon="5.37466">
        <ele>1064</ele>
        <time>2019-06-15T07:32:32.000Z</time>
      </trkpt>
      <trkpt lat="44.9643" lon="5.37465">
        <ele>1064</ele>
        <time>2019-06-15T07:32:33.000Z</time>
      </trkpt>
      <trkpt lat="44.96429" lon="5.37463">
        <ele>1065</ele>
        <time>2019-06-15T07:32:34.000Z</time>
      </trkpt>
      <trkpt lat="44.96428" lon="5.37462">
        <ele>1065</ele>
        <time>2019-06-15T07:32:35.000Z</time>
      </trkpt>
      <trkpt lat="44.96427" lon="5.3746">
        <ele>1066</ele>
        <time>2019-06-15T07:32:36.000Z</time>
      </trkpt>
      <trkpt lat="44.96427" lon="5.37459">
        <ele>1066</ele>
        <time>2019-06-15T07:32:37.000Z</time>
      </trkpt>
      <trkpt lat="44.96426" lon="5.37457">
        <ele>1067</ele>
        <time>2019-06-15T07:32:38.000Z</time>
      </trkpt>
      <trkpt lat="44.96425" lon="5.37455">
        <ele>1067</ele>
        <time>2019-06-15T07:32:39.000Z</time>
      </trkpt>
      <trkpt lat="44.96424" lon="5.37454">
        <ele>1068</ele>
        <time>2019-06-15T07:32:40.000Z</time>
      </trkpt>
      <trkpt lat="44.96423" lon="5.37453">
        <ele>1069</ele>
        <time>2019-06-15T07:32:41.000Z</time>
      </trkpt>
      <trkpt lat="44.96423" lon="5.37451">
        <ele>1070</ele>
        <time>2019-06-15T07:32:42.000Z</time>
      </trkpt>
      <trkpt lat="44.96422" lon="5.3745">
        <ele>1070</ele>
        <time>2019-06-15T07:32:43.000Z</time>
      </trkpt>
      <trkpt lat="44.96421" lon="5.37449">
        <ele>1071</ele>
        <time>2019-06-15T07:32:44.000Z</time>
      </trkpt>
      <trkpt lat="44.9642" lon="5.37448">
        <ele>1071</ele>
        <time>2019-06-15T07:32:45.000Z</time>
      </trkpt>
      <trkpt lat="44.9642" lon="5.37447">
        <ele>1072</ele>
        <time>2019-06-15T07:32:46.000Z</time>
      </trkpt>
      <trkpt lat="44.96419" lon="5.37446">
        <ele>1073</ele>
        <time>2019-06-15T07:32:47.000Z</time>
      </trkpt>
      <trkpt lat="44.96418" lon="5.37444">
        <ele>1073</ele>
        <time>2019-06-15T07:32:48.000Z</time>
      </trkpt>
      <trkpt lat="44.96417" lon="5.37443">
        <ele>1073</ele>
        <time>2019-06-15T07:32:49.000Z</time>
      </trkpt>
      <trkpt lat="44.96416" lon="5.37441">
        <ele>1073</ele>
        <time>2019-06-15T07:32:50.000Z</time>
      </trkpt>
      <trkpt lat="44.96415" lon="5.3744">
        <ele>1073</ele>
        <time>2019-06-15T07:32:51.000Z</time>
      </trkpt>
      <trkpt lat="44.96414" lon="5.37438">
        <ele>1073</ele>
        <time>2019-06-15T07:32:52.000Z</time>
      </trkpt>
      <trkpt lat="44.96413" lon="5.37437">
        <ele>1074</ele>
        <time>2019-06-15T07:32:53.000Z</time>
      </trkpt>
      <trkpt lat="44.96412" lon="5.37436">
        <ele>1074</ele>
        <time>2019-06-15T07:32:54.000Z</time>
      </trkpt>
      <trkpt lat="44.96411" lon="5.37435">
        <ele>1075</ele>
        <time>2019-06-15T07:32:55.000Z</time>
      </trkpt>
      <trkpt lat="44.9641" lon="5.37434">
        <ele>1075</ele>
        <time>2019-06-15T07:32:56.000Z</time>
      </trkpt>
      <trkpt lat="44.96409" lon="5.37433">
        <ele>1075</ele>
        <time>2019-06-15T07:32:57.000Z</time>
      </trkpt>
      <trkpt lat="44.96408" lon="5.37431">
        <ele>1074</ele>
        <time>2019-06-15T07:32:58.000Z</time>
      </trkpt>
      <trkpt lat="44.96407" lon="5.3743">
        <ele>1075</ele>
        <time>2019-06-15T07:32:59.000Z</time>
      </trkpt>
      <trkpt lat="44.96405" lon="5.37429">
        <ele>1075</ele>
        <time>2019-06-15T07:33:00.000Z</time>
      </trkpt>
      <trkpt lat="44.96405" lon="5.37427">
        <ele>1075</ele>
        <time>2019-06-15T07:33:01.000Z</time>
      </trkpt>
      <trkpt lat="44.96404" lon="5.37425">
        <ele>1075</ele>
        <time>2019-06-15T07:33:02.000Z</time>
      </trkpt>
      <trkpt lat="44.96403" lon="5.37424">
        <ele>1076</ele>
        <time>2019-06-15T07:33:03.000Z</time>
      </trkpt>
      <trkpt lat="44.96402" lon="5.37423">
        <ele>1075</ele>
        <time>2019-06-15T07:33:04.000Z</time>
      </trkpt>
      <trkpt lat="44.96402" lon="5.37421">
        <ele>1075</ele>
        <time>2019-06-15T07:33:05.000Z</time>
      </trkpt>
      <trkpt lat="44.96401" lon="5.3742">
        <ele>1075</ele>
        <time>2019-06-15T07:33:06.000Z</time>
      </trkpt>
      <trkpt lat="44.964" lon="5.37419">
        <ele>1075</ele>
        <time>2019-06-15T07:33:07.000Z</time>
      </trkpt>
      <trkpt lat="44.96399" lon="5.37417">
        <ele>1075</ele>
        <time>2019-06-15T07:33:08.000Z</time>
      </trkpt>
      <trkpt lat="44.96399" lon="5.37416">
        <ele>1075</ele>
        <time>2019-06-15T07:33:09.000Z</time>
      </trkpt>
      <trkpt lat="44.96398" lon="5.37415">
        <ele>1076</ele>
        <time>2019-06-15T07:33:10.000Z</time>
      </trkpt>
      <trkpt lat="44.96397" lon="5.37414">
        <ele>1076</ele>
        <time>2019-06-15T07:33:11.000Z</time>
      </trkpt>
      <trkpt lat="44.96396" lon="5.37412">
        <ele>1076</ele>
        <time>2019-06-15T07:33:12.000Z</time>
      </trkpt>
      <trkpt lat="44.96396" lon="5.37411">
        <ele>1076</ele>
        <time>2019-06-15T07:33:13.000Z</time>
      </trkpt>
      <trkpt lat="44.96395" lon="5.3741">
        <ele>1076</ele>
        <time>2019-06-15T07:33:14.000Z</time>
      </trkpt>
      <trkpt lat="44.96394" lon="5.37409">
        <ele>1077</ele>
        <time>2019-06-15T07:33:15.000Z</time>
      </trkpt>
      <trkpt lat="44.96393" lon="5.37408">
        <ele>1077</ele>
        <time>2019-06-15T07:33:16.000Z</time>
      </trkpt>
      <trkpt lat="44.96392" lon="5.37407">
        <ele>1077</ele>
        <time>2019-06-15T07:33:17.000Z</time>
      </trkpt>
      <trkpt lat="44.96391" lon="5.37406">
        <ele>1077</ele>
        <time>2019-06-15T07:33:18.000Z</time>
      </trkpt>
      <trkpt lat="44.96391" lon="5.37405">
        <ele>1077</ele>
        <time>2019-06-15T07:33:19.000Z</time>
      </trkpt>
      <trkpt lat="44.9639" lon="5.37403">
        <ele>1078</ele>
        <time>2019-06-15T07:33:20.000Z</time>
      </trkpt>
      <trkpt lat="44.96389" lon="5.37402">
        <ele>1079</ele>
        <time>2019-06-15T07:33:21.000Z</time>
      </trkpt>
      <trkpt lat="44.96388" lon="5.37401">
        <ele>1079</ele>
        <time>2019-06-15T07:33:22.000Z</time>
      </trkpt>
      <trkpt lat="44.96387" lon="5.37399">
        <ele>1079</ele>
        <time>2019-06-15T07:33:23.000Z</time>
      </trkpt>
      <trkpt lat="44.96386" lon="5.37398">
        <ele>1080</ele>
        <time>2019-06-15T07:33:24.000Z</time>
      </trkpt>
      <trkpt lat="44.96385" lon="5.37397">
        <ele>1080</ele>
        <time>2019-06-15T07:33:25.000Z</time>
      </trkpt>
      <trkpt lat="44.96384" lon="5.37396">
        <ele>1080</ele>
        <time>2019-06-15T07:33:26.000Z</time>
      </trkpt>
      <trkpt lat="44.96383" lon="5.37395">
        <ele>1080</ele>
        <time>2019-06-15T07:33:27.000Z</time>
      </trkpt>
      <trkpt lat="44.96382" lon="5.37394">
        <ele>1080</ele>
        <time>2019-06-15T07:33:28.000Z</time>
      </trkpt>
      <trkpt lat="44.96381" lon="5.37393">
        <ele>1081</ele>
        <time>2019-06-15T07:33:29.000Z</time>
      </trkpt>
      <trkpt lat="44.96381" lon="5.37391">
        <ele>1081</ele>
        <time>2019-06-15T07:33:30.000Z</time>
      </trkpt>
      <trkpt lat="44.9638" lon="5.3739">
        <ele>1082</ele>
        <time>2019-06-15T07:33:31.000Z</time>
      </trkpt>
      <trkpt lat="44.96379" lon="5.37389">
        <ele>1082</ele>
        <time>2019-06-15T07:33:32.000Z</time>
      </trkpt>
      <trkpt lat="44.96378" lon="5.37388">
        <ele>1082</ele>
        <time>2019-06-15T07:33:33.000Z</time>
      </trkpt>
      <trkpt lat="44.96377" lon="5.37386">
        <ele>1083</ele>
        <time>2019-06-15T07:33:34.000Z</time>
      </trkpt>
      <trkpt lat="44.96375" lon="5.37385">
        <ele>1083</ele>
        <time>2019-06-15T07:33:35.000Z</time>
      </trkpt>
      <trkpt lat="44.96374" lon="5.37383">
        <ele>1083</ele>
        <time>2019-06-15T07:33:36.000Z</time>
      </trkpt>
      <trkpt lat="44.96373" lon="5.37382">
        <ele>1083</ele>
        <time>2019-06-15T07:33:37.000Z</time>
      </trkpt>
      <trkpt lat="44.96372" lon="5.37381">
        <ele>1083</ele>
        <time>2019-06-15T07:33:38.000Z</time>
      </trkpt>
      <trkpt lat="44.96371" lon="5.37379">
        <ele>1083</ele>
        <time>2019-06-15T07:33:39.000Z</time>
      </trkpt>
      <trkpt lat="44.9637" lon="5.37378">
        <ele>1083</ele>
        <time>2019-06-15T07:33:40.000Z</time>
      </trkpt>
      <trkpt lat="44.9637" lon="5.37376">
        <ele>1083</ele>
        <time>2019-06-15T07:33:41.000Z</time>
      </trkpt>
      <trkpt lat="44.96371" lon="5.37374">
        <ele>1083</ele>
        <time>2019-06-15T07:33:42.000Z</time>
      </trkpt>
      <trkpt lat="44.96371" lon="5.37373">
        <ele>1084</ele>
        <time>2019-06-15T07:33:43.000Z</time>
      </trkpt>
      <trkpt lat="44.96371" lon="5.37371">
        <ele>1084</ele>
        <time>2019-06-15T07:33:44.000Z</time>
      </trkpt>
      <trkpt lat="44.96371" lon="5.3737">
        <ele>1084</ele>
        <time>2019-06-15T07:33:45.000Z</time>
      </trkpt>
      <trkpt lat="44.96372" lon="5.37369">
        <ele>1084</ele>
        <time>2019-06-15T07:33:46.000Z</time>
      </trkpt>
      <trkpt lat="44.96372" lon="5.37368">
        <ele>1084</ele>
        <time>2019-06-15T07:33:47.000Z</time>
      </trkpt>
      <trkpt lat="44.96373" lon="5.37367">
        <ele>1084</ele>
        <time>2019-06-15T07:33:48.000Z</time>
      </trkpt>
      <trkpt lat="44.96373" lon="5.37366">
        <ele>1084</ele>
        <time>2019-06-15T07:33:49.000Z</time>
      </trkpt>
      <trkpt lat="44.96374" lon="5.37365">
        <ele>1084</ele>
        <time>2019-06-15T07:33:50.000Z</time>
      </trkpt>
      <trkpt lat="44.96374" lon="5.37364">
        <ele>1085</ele>
        <time>2019-06-15T07:33:51.000Z</time>
      </trkpt>
      <trkpt lat="44.96374" lon="5.37363">
        <ele>1085</ele>
        <time>2019-06-15T07:33:52.000Z</time>
      </trkpt>
      <trkpt lat="44.96375" lon="5.37362">
        <ele>1086</ele>
        <time>2019-06-15T07:33:53.000Z</time>
      </trkpt>
      <trkpt lat="44.96376" lon="5.3736">
        <ele>1087</ele>
        <time>2019-06-15T07:33:54.000Z</time>
      </trkpt>
      <trkpt lat="44.96377" lon="5.37359">
        <ele>1088</ele>
        <time>2019-06-15T07:33:55.000Z</time>
      </trkpt>
      <trkpt lat="44.96378" lon="5.37358">
        <ele>1088</ele>
        <time>2019-06-15T07:33:56.000Z</time>
      </trkpt>
      <trkpt lat="44.96379" lon="5.37357">
        <ele>1089</ele>
        <time>2019-06-15T07:33:57.000Z</time>
      </trkpt>
      <trkpt lat="44.96381" lon="5.37357">
        <ele>1089</ele>
        <time>2019-06-15T07:33:58.000Z</time>
      </trkpt>
      <trkpt lat="44.96383" lon="5.37357">
        <ele>1088</ele>
        <time>2019-06-15T07:33:59.000Z</time>
      </trkpt>
      <trkpt lat="44.96385" lon="5.37358">
        <ele>1089</ele>
        <time>2019-06-15T07:34:00.000Z</time>
      </trkpt>
      <trkpt lat="44.96387" lon="5.37358">
        <ele>1089</ele>
        <time>2019-06-15T07:34:01.000Z</time>
      </trkpt>
      <trkpt lat="44.96389" lon="5.37358">
        <ele>1090</ele>
        <time>2019-06-15T07:34:02.000Z</time>
      </trkpt>
      <trkpt lat="44.96391" lon="5.37359">
        <ele>1090</ele>
        <time>2019-06-15T07:34:03.000Z</time>
      </trkpt>
      <trkpt lat="44.96392" lon="5.37359">
        <ele>1091</ele>
        <time>2019-06-15T07:34:04.000Z</time>
      </trkpt>
      <trkpt lat="44.96394" lon="5.37359">
        <ele>1091</ele>
        <time>2019-06-15T07:34:05.000Z</time>
      </trkpt>
      <trkpt lat="44.96396" lon="5.37359">
        <ele>1092</ele>
        <time>2019-06-15T07:34:06.000Z</time>
      </trkpt>
      <trkpt lat="44.96399" lon="5.37359">
        <ele>1092</ele>
        <time>2019-06-15T07:34:07.000Z</time>
      </trkpt>
      <trkpt lat="44.96401" lon="5.3736">
        <ele>1092</ele>
        <time>2019-06-15T07:34:08.000Z</time>
      </trkpt>
      <trkpt lat="44.96403" lon="5.3736">
        <ele>1092</ele>
        <time>2019-06-15T07:34:09.000Z</time>
      </trkpt>
      <trkpt lat="44.96405" lon="5.3736">
        <ele>1093</ele>
        <time>2019-06-15T07:34:10.000Z</time>
      </trkpt>
      <trkpt lat="44.96407" lon="5.3736">
        <ele>1093</ele>
        <time>2019-06-15T07:34:11.000Z</time>
      </trkpt>
      <trkpt lat="44.96408" lon="5.3736">
        <ele>1094</ele>
        <time>2019-06-15T07:34:12.000Z</time>
      </trkpt>
      <trkpt lat="44.9641" lon="5.3736">
        <ele>1094</ele>
        <time>2019-06-15T07:34:13.000Z</time>
      </trkpt>
      <trkpt lat="44.96412" lon="5.3736">
        <ele>1094</ele>
        <time>2019-06-15T07:34:14.000Z</time>
      </trkpt>
      <trkpt lat="44.96414" lon="5.37359">
        <ele>1094</ele>
        <time>2019-06-15T07:34:15.000Z</time>
      </trkpt>
      <trkpt lat="44.96416" lon="5.37359">
        <ele>1095</ele>
        <time>2019-06-15T07:34:16.000Z</time>
      </trkpt>
      <trkpt lat="44.96418" lon="5.37359">
        <ele>1094</ele>
        <time>2019-06-15T07:34:17.000Z</time>
      </trkpt>
      <trkpt lat="44.96419" lon="5.37359">
        <ele>1093</ele>
        <time>2019-06-15T07:34:18.000Z</time>
      </trkpt>
      <trkpt lat="44.96421" lon="5.37358">
        <ele>1094</ele>
        <time>2019-06-15T07:34:19.000Z</time>
      </trkpt>
      <trkpt lat="44.96423" lon="5.37358">
        <ele>1094</ele>
        <time>2019-06-15T07:34:20.000Z</time>
      </trkpt>
      <trkpt lat="44.96425" lon="5.37357">
        <ele>1093</ele>
        <time>2019-06-15T07:34:21.000Z</time>
      </trkpt>
      <trkpt lat="44.96427" lon="5.37355">
        <ele>1093</ele>
        <time>2019-06-15T07:34:22.000Z</time>
      </trkpt>
      <trkpt lat="44.96428" lon="5.37354">
        <ele>1093</ele>
        <time>2019-06-15T07:34:23.000Z</time>
      </trkpt>
      <trkpt lat="44.9643" lon="5.37352">
        <ele>1093</ele>
        <time>2019-06-15T07:34:24.000Z</time>
      </trkpt>
      <trkpt lat="44.96431" lon="5.37351">
        <ele>1093</ele>
        <time>2019-06-15T07:34:25.000Z</time>
      </trkpt>
      <trkpt lat="44.96433" lon="5.37349">
        <ele>1093</ele>
        <time>2019-06-15T07:34:26.000Z</time>
      </trkpt>
      <trkpt lat="44.96434" lon="5.37347">
        <ele>1093</ele>
        <time>2019-06-15T07:34:27.000Z</time>
      </trkpt>
      <trkpt lat="44.96435" lon="5.37344">
        <ele>1093</ele>
        <time>2019-06-15T07:34:28.000Z</time>
      </trkpt>
      <trkpt lat="44.96437" lon="5.37342">
        <ele>1093</ele>
        <time>2019-06-15T07:34:29.000Z</time>
      </trkpt>
      <trkpt lat="44.96438" lon="5.37339">
        <ele>1093</ele>
        <time>2019-06-15T07:34:30.000Z</time>
      </trkpt>
      <trkpt lat="44.96439" lon="5.37337">
        <ele>1092</ele>
        <time>2019-06-15T07:34:31.000Z</time>
      </trkpt>
      <trkpt lat="44.9644" lon="5.37335">
        <ele>1092</ele>
        <time>2019-06-15T07:34:32.000Z</time>
      </trkpt>
      <trkpt lat="44.96442" lon="5.37333">
        <ele>1092</ele>
        <time>2019-06-15T07:34:33.000Z</time>
      </trkpt>
      <trkpt lat="44.96443" lon="5.37332">
        <ele>1093</ele>
        <time>2019-06-15T07:34:34.000Z</time>
      </trkpt>
      <trkpt lat="44.96445" lon="5.3733">
        <ele>1093</ele>
        <time>2019-06-15T07:34:35.000Z</time>
      </trkpt>
      <trkpt lat="44.96446" lon="5.37329">
        <ele>1093</ele>
        <time>2019-06-15T07:34:36.000Z</time>
      </trkpt>
      <trkpt lat="44.96447" lon="5.37328">
        <ele>1094</ele>
        <time>2019-06-15T07:34:37.000Z</time>
      </trkpt>
      <trkpt lat="44.96449" lon="5.37327">
        <ele>1094</ele>
        <time>2019-06-15T07:34:38.000Z</time>
      </trkpt>
      <trkpt lat="44.9645" lon="5.37325">
        <ele>1093</ele>
        <time>2019-06-15T07:34:39.000Z</time>
      </trkpt>
      <trkpt lat="44.96452" lon="5.37324">
        <ele>1093</ele>
        <time>2019-06-15T07:34:40.000Z</time>
      </trkpt>
      <trkpt lat="44.96453" lon="5.37323">
        <ele>1094</ele>
        <time>2019-06-15T07:34:41.000Z</time>
      </trkpt>
      <trkpt lat="44.96455" lon="5.37321">
        <ele>1095</ele>
        <time>2019-06-15T07:34:42.000Z</time>
      </trkpt>
      <trkpt lat="44.96457" lon="5.3732">
        <ele>1095</ele>
        <time>2019-06-15T07:34:43.000Z</time>
      </trkpt>
      <trkpt lat="44.96458" lon="5.37318">
        <ele>1095</ele>
        <time>2019-06-15T07:34:44.000Z</time>
      </trkpt>
      <trkpt lat="44.9646" lon="5.37317">
        <ele>1095</ele>
        <time>2019-06-15T07:34:45.000Z</time>
      </trkpt>
      <trkpt lat="44.96461" lon="5.37315">
        <ele>1095</ele>
        <time>2019-06-15T07:34:46.000Z</time>
      </trkpt>
      <trkpt lat="44.96463" lon="5.37314">
        <ele>1095</ele>
        <time>2019-06-15T07:34:47.000Z</time>
      </trkpt>
      <trkpt lat="44.96464" lon="5.37312">
        <ele>1095</ele>
        <time>2019-06-15T07:34:48.000Z</time>
      </trkpt>
      <trkpt lat="44.96466" lon="5.37311">
        <ele>1095</ele>
        <time>2019-06-15T07:34:49.000Z</time>
      </trkpt>
      <trkpt lat="44.96467" lon="5.37309">
        <ele>1095</ele>
        <time>2019-06-15T07:34:50.000Z</time>
      </trkpt>
      <trkpt lat="44.96468" lon="5.37307">
        <ele>1094</ele>
        <time>2019-06-15T07:34:51.000Z</time>
      </trkpt>
      <trkpt lat="44.9647" lon="5.37304">
        <ele>1093</ele>
        <time>2019-06-15T07:34:52.000Z</time>
      </trkpt>
      <trkpt lat="44.9647" lon="5.37302">
        <ele>1094</ele>
        <time>2019-06-15T07:34:53.000Z</time>
      </trkpt>
      <trkpt lat="44.96471" lon="5.37299">
        <ele>1094</ele>
        <time>2019-06-15T07:34:54.000Z</time>
      </trkpt>
      <trkpt lat="44.96472" lon="5.37297">
        <ele>1094</ele>
        <time>2019-06-15T07:34:55.000Z</time>
      </trkpt>
      <trkpt lat="44.96473" lon="5.37294">
        <ele>1093</ele>
        <time>2019-06-15T07:34:56.000Z</time>
      </trkpt>
      <trkpt lat="44.96475" lon="5.37292">
        <ele>1093</ele>
        <time>2019-06-15T07:34:57.000Z</time>
      </trkpt>
      <trkpt lat="44.96476" lon="5.3729">
        <ele>1093</ele>
        <time>2019-06-15T07:34:58.000Z</time>
      </trkpt>
      <trkpt lat="44.96476" lon="5.37288">
        <ele>1093</ele>
        <time>2019-06-15T07:34:59.000Z</time>
      </trkpt>
      <trkpt lat="44.96478" lon="5.37286">
        <ele>1093</ele>
        <time>2019-06-15T07:35:00.000Z</time>
      </trkpt>
      <trkpt lat="44.96479" lon="5.37283">
        <ele>1094</ele>
        <time>2019-06-15T07:35:01.000Z</time>
      </trkpt>
      <trkpt lat="44.9648" lon="5.37281">
        <ele>1094</ele>
        <time>2019-06-15T07:35:02.000Z</time>
      </trkpt>
      <trkpt lat="44.9648" lon="5.37279">
        <ele>1095</ele>
        <time>2019-06-15T07:35:03.000Z</time>
      </trkpt>
      <trkpt lat="44.96481" lon="5.37276">
        <ele>1096</ele>
        <time>2019-06-15T07:35:04.000Z</time>
      </trkpt>
      <trkpt lat="44.96481" lon="5.37273">
        <ele>1096</ele>
        <time>2019-06-15T07:35:05.000Z</time>
      </trkpt>
      <trkpt lat="44.96481" lon="5.37271">
        <ele>1097</ele>
        <time>2019-06-15T07:35:06.000Z</time>
      </trkpt>
      <trkpt lat="44.96482" lon="5.37268">
        <ele>1097</ele>
        <time>2019-06-15T07:35:07.000Z</time>
      </trkpt>
      <trkpt lat="44.96483" lon="5.37265">
        <ele>1097</ele>
        <time>2019-06-15T07:35:08.000Z</time>
      </trkpt>
      <trkpt lat="44.96484" lon="5.37262">
        <ele>1096</ele>
        <time>2019-06-15T07:35:09.000Z</time>
      </trkpt>
      <trkpt lat="44.96486" lon="5.37259">
        <ele>1096</ele>
        <time>2019-06-15T07:35:10.000Z</time>
      </trkpt>
      <trkpt lat="44.96487" lon="5.37256">
        <ele>1096</ele>
        <time>2019-06-15T07:35:11.000Z</time>
      </trkpt>
      <trkpt lat="44.96488" lon="5.37253">
        <ele>1096</ele>
        <time>2019-06-15T07:35:12.000Z</time>
      </trkpt>
      <trkpt lat="44.96489" lon="5.37251">
        <ele>1096</ele>
        <time>2019-06-15T07:35:13.000Z</time>
      </trkpt>
      <trkpt lat="44.9649" lon="5.37248">
        <ele>1096</ele>
        <time>2019-06-15T07:35:14.000Z</time>
      </trkpt>
      <trkpt lat="44.96492" lon="5.37246">
        <ele>1097</ele>
        <time>2019-06-15T07:35:15.000Z</time>
      </trkpt>
      <trkpt lat="44.96493" lon="5.37244">
        <ele>1097</ele>
        <time>2019-06-15T07:35:16.000Z</time>
      </trkpt>
      <trkpt lat="44.96494" lon="5.37241">
        <ele>1098</ele>
        <time>2019-06-15T07:35:17.000Z</time>
      </trkpt>
      <trkpt lat="44.96495" lon="5.37239">
        <ele>1098</ele>
        <time>2019-06-15T07:35:18.000Z</time>
      </trkpt>
      <trkpt lat="44.96496" lon="5.37236">
        <ele>1099</ele>
        <time>2019-06-15T07:35:19.000Z</time>
      </trkpt>
      <trkpt lat="44.96497" lon="5.37234">
        <ele>1099</ele>
        <time>2019-06-15T07:35:20.000Z</time>
      </trkpt>
      <trkpt lat="44.96499" lon="5.37231">
        <ele>1099</ele>
        <time>2019-06-15T07:35:21.000Z</time>
      </trkpt>
      <trkpt lat="44.965" lon="5.37229">
        <ele>1099</ele>
        <time>2019-06-15T07:35:22.000Z</time>
      </trkpt>
      <trkpt lat="44.96501" lon="5.37226">
        <ele>1099</ele>
        <time>2019-06-15T07:35:23.000Z</time>
      </trkpt>
      <trkpt lat="44.96503" lon="5.37224">
        <ele>1098</ele>
        <time>2019-06-15T07:35:24.000Z</time>
      </trkpt>
      <trkpt lat="44.96504" lon="5.37221">
        <ele>1098</ele>
        <time>2019-06-15T07:35:25.000Z</time>
      </trkpt>
      <trkpt lat="44.96506" lon="5.37218">
        <ele>1098</ele>
        <time>2019-06-15T07:35:26.000Z</time>
      </trkpt>
      <trkpt lat="44.96507" lon="5.37216">
        <ele>1098</ele>
        <time>2019-06-15T07:35:27.000Z</time>
      </trkpt>
      <trkpt lat="44.96508" lon="5.37214">
        <ele>1098</ele>
        <time>2019-06-15T07:35:28.000Z</time>
      </trkpt>
      <trkpt lat="44.96509" lon="5.37211">
        <ele>1098</ele>
        <time>2019-06-15T07:35:29.000Z</time>
      </trkpt>
      <trkpt lat="44.96511" lon="5.37209">
        <ele>1098</ele>
        <time>2019-06-15T07:35:30.000Z</time>
      </trkpt>
      <trkpt lat="44.96512" lon="5.37207">
        <ele>1099</ele>
        <time>2019-06-15T07:35:31.000Z</time>
      </trkpt>
      <trkpt lat="44.96514" lon="5.37205">
        <ele>1099</ele>
        <time>2019-06-15T07:35:32.000Z</time>
      </trkpt>
      <trkpt lat="44.96515" lon="5.37203">
        <ele>1099</ele>
        <time>2019-06-15T07:35:33.000Z</time>
      </trkpt>
      <trkpt lat="44.96516" lon="5.37201">
        <ele>1099</ele>
        <time>2019-06-15T07:35:34.000Z</time>
      </trkpt>
      <trkpt lat="44.96518" lon="5.37199">
        <ele>1099</ele>
        <time>2019-06-15T07:35:35.000Z</time>
      </trkpt>
      <trkpt lat="44.96519" lon="5.37198">
        <ele>1099</ele>
        <time>2019-06-15T07:35:36.000Z</time>
      </trkpt>
      <trkpt lat="44.9652" lon="5.37197">
        <ele>1101</ele>
        <time>2019-06-15T07:35:37.000Z</time>
      </trkpt>
      <trkpt lat="44.96521" lon="5.37196">
        <ele>1102</ele>
        <time>2019-06-15T07:35:38.000Z</time>
      </trkpt>
      <trkpt lat="44.96523" lon="5.37195">
        <ele>1103</ele>
        <time>2019-06-15T07:35:39.000Z</time>
      </trkpt>
      <trkpt lat="44.96524" lon="5.37194">
        <ele>1104</ele>
        <time>2019-06-15T07:35:40.000Z</time>
      </trkpt>
      <trkpt lat="44.96525" lon="5.37193">
        <ele>1105</ele>
        <time>2019-06-15T07:35:41.000Z</time>
      </trkpt>
      <trkpt lat="44.96526" lon="5.37192">
        <ele>1106</ele>
        <time>2019-06-15T07:35:42.000Z</time>
      </trkpt>
      <trkpt lat="44.96528" lon="5.37191">
        <ele>1106</ele>
        <time>2019-06-15T07:35:43.000Z</time>
      </trkpt>
      <trkpt lat="44.9653" lon="5.3719">
        <ele>1106</ele>
        <time>2019-06-15T07:35:44.000Z</time>
      </trkpt>
      <trkpt lat="44.96532" lon="5.37189">
        <ele>1108</ele>
        <time>2019-06-15T07:35:45.000Z</time>
      </trkpt>
      <trkpt lat="44.96534" lon="5.37188">
        <ele>1109</ele>
        <time>2019-06-15T07:35:46.000Z</time>
      </trkpt>
      <trkpt lat="44.96536" lon="5.37187">
        <ele>1109</ele>
        <time>2019-06-15T07:35:47.000Z</time>
      </trkpt>
      <trkpt lat="44.96538" lon="5.37186">
        <ele>1110</ele>
        <time>2019-06-15T07:35:48.000Z</time>
      </trkpt>
      <trkpt lat="44.9654" lon="5.37185">
        <ele>1110</ele>
        <time>2019-06-15T07:35:49.000Z</time>
      </trkpt>
      <trkpt lat="44.96542" lon="5.37183">
        <ele>1110</ele>
        <time>2019-06-15T07:35:50.000Z</time>
      </trkpt>
      <trkpt lat="44.96544" lon="5.37183">
        <ele>1110</ele>
        <time>2019-06-15T07:35:51.000Z</time>
      </trkpt>
      <trkpt lat="44.96546" lon="5.37182">
        <ele>1110</ele>
        <time>2019-06-15T07:35:52.000Z</time>
      </trkpt>
      <trkpt lat="44.96549" lon="5.37181">
        <ele>1110</ele>
        <time>2019-06-15T07:35:53.000Z</time>
      </trkpt>
      <trkpt lat="44.96551" lon="5.37179">
        <ele>1109</ele>
        <time>2019-06-15T07:35:54.000Z</time>
      </trkpt>
      <trkpt lat="44.96554" lon="5.37177">
        <ele>1108</ele>
        <time>2019-06-15T07:35:55.000Z</time>
      </trkpt>
      <trkpt lat="44.96557" lon="5.37175">
        <ele>1108</ele>
        <time>2019-06-15T07:35:56.000Z</time>
      </trkpt>
      <trkpt lat="44.9656" lon="5.37173">
        <ele>1108</ele>
        <time>2019-06-15T07:35:57.000Z</time>
      </trkpt>
      <trkpt lat="44.96563" lon="5.37171">
        <ele>1108</ele>
        <time>2019-06-15T07:35:58.000Z</time>
      </trkpt>
      <trkpt lat="44.96565" lon="5.3717">
        <ele>1108</ele>
        <time>2019-06-15T07:35:59.000Z</time>
      </trkpt>
      <trkpt lat="44.96567" lon="5.37168">
        <ele>1108</ele>
        <time>2019-06-15T07:36:00.000Z</time>
      </trkpt>
      <trkpt lat="44.96569" lon="5.37167">
        <ele>1108</ele>
        <time>2019-06-15T07:36:01.000Z</time>
      </trkpt>
      <trkpt lat="44.96571" lon="5.37166">
        <ele>1109</ele>
        <time>2019-06-15T07:36:02.000Z</time>
      </trkpt>
      <trkpt lat="44.96574" lon="5.37165">
        <ele>1108</ele>
        <time>2019-06-15T07:36:03.000Z</time>
      </trkpt>
      <trkpt lat="44.96575" lon="5.37164">
        <ele>1108</ele>
        <time>2019-06-15T07:36:04.000Z</time>
      </trkpt>
      <trkpt lat="44.96577" lon="5.37163">
        <ele>1108</ele>
        <time>2019-06-15T07:36:05.000Z</time>
      </trkpt>
      <trkpt lat="44.96579" lon="5.37162">
        <ele>1108</ele>
        <time>2019-06-15T07:36:06.000Z</time>
      </trkpt>
      <trkpt lat="44.9658" lon="5.3716">
        <ele>1108</ele>
        <time>2019-06-15T07:36:07.000Z</time>
      </trkpt>
      <trkpt lat="44.96582" lon="5.37158">
        <ele>1107</ele>
        <time>2019-06-15T07:36:08.000Z</time>
      </trkpt>
      <trkpt lat="44.96584" lon="5.37157">
        <ele>1108</ele>
        <time>2019-06-15T07:36:09.000Z</time>
      </trkpt>
      <trkpt lat="44.96586" lon="5.37155">
        <ele>1108</ele>
        <time>2019-06-15T07:36:10.000Z</time>
      </trkpt>
      <trkpt lat="44.96588" lon="5.37154">
        <ele>1108</ele>
        <time>2019-06-15T07:36:11.000Z</time>
      </trkpt>
      <trkpt lat="44.9659" lon="5.37153">
        <ele>1109</ele>
        <time>2019-06-15T07:36:12.000Z</time>
      </trkpt>
      <trkpt lat="44.96592" lon="5.37152">
        <ele>1109</ele>
        <time>2019-06-15T07:36:13.000Z</time>
      </trkpt>
      <trkpt lat="44.96594" lon="5.37151">
        <ele>1108</ele>
        <time>2019-06-15T07:36:14.000Z</time>
      </trkpt>
      <trkpt lat="44.96596" lon="5.3715">
        <ele>1109</ele>
        <time>2019-06-15T07:36:15.000Z</time>
      </trkpt>
      <trkpt lat="44.96597" lon="5.37149">
        <ele>1110</ele>
        <time>2019-06-15T07:36:16.000Z</time>
      </trkpt>
      <trkpt lat="44.96599" lon="5.37147">
        <ele>1110</ele>
        <time>2019-06-15T07:36:17.000Z</time>
      </trkpt>
      <trkpt lat="44.96601" lon="5.37146">
        <ele>1110</ele>
        <time>2019-06-15T07:36:18.000Z</time>
      </trkpt>
      <trkpt lat="44.96603" lon="5.37144">
        <ele>1110</ele>
        <time>2019-06-15T07:36:19.000Z</time>
      </trkpt>
      <trkpt lat="44.96604" lon="5.37142">
        <ele>1110</ele>
        <time>2019-06-15T07:36:20.000Z</time>
      </trkpt>
      <trkpt lat="44.96606" lon="5.3714">
        <ele>1109</ele>
        <time>2019-06-15T07:36:21.000Z</time>
      </trkpt>
      <trkpt lat="44.96608" lon="5.37138">
        <ele>1110</ele>
        <time>2019-06-15T07:36:22.000Z</time>
      </trkpt>
      <trkpt lat="44.9661" lon="5.37136">
        <ele>1111</ele>
        <time>2019-06-15T07:36:23.000Z</time>
      </trkpt>
      <trkpt lat="44.96612" lon="5.37134">
        <ele>1111</ele>
        <time>2019-06-15T07:36:24.000Z</time>
      </trkpt>
      <trkpt lat="44.96614" lon="5.37131">
        <ele>1111</ele>
        <time>2019-06-15T07:36:25.000Z</time>
      </trkpt>
      <trkpt lat="44.96616" lon="5.37129">
        <ele>1111</ele>
        <time>2019-06-15T07:36:26.000Z</time>
      </trkpt>
      <trkpt lat="44.96618" lon="5.37127">
        <ele>1111</ele>
        <time>2019-06-15T07:36:27.000Z</time>
      </trkpt>
      <trkpt lat="44.9662" lon="5.37125">
        <ele>1112</ele>
        <time>2019-06-15T07:36:28.000Z</time>
      </trkpt>
      <trkpt lat="44.96621" lon="5.37123">
        <ele>1112</ele>
        <time>2019-06-15T07:36:29.000Z</time>
      </trkpt>
      <trkpt lat="44.96623" lon="5.37121">
        <ele>1112</ele>
        <time>2019-06-15T07:36:30.000Z</time>
      </trkpt>
      <trkpt lat="44.96624" lon="5.3712">
        <ele>1112</ele>
        <time>2019-06-15T07:36:31.000Z</time>
      </trkpt>
      <trkpt lat="44.96626" lon="5.37118">
        <ele>1112</ele>
        <time>2019-06-15T07:36:32.000Z</time>
      </trkpt>
      <trkpt lat="44.96627" lon="5.37116">
        <ele>1112</ele>
        <time>2019-06-15T07:36:33.000Z</time>
      </trkpt>
      <trkpt lat="44.96629" lon="5.37115">
        <ele>1112</ele>
        <time>2019-06-15T07:36:34.000Z</time>
      </trkpt>
      <trkpt lat="44.96632" lon="5.37113">
        <ele>1112</ele>
        <time>2019-06-15T07:36:35.000Z</time>
      </trkpt>
      <trkpt lat="44.96634" lon="5.37112">
        <ele>1113</ele>
        <time>2019-06-15T07:36:36.000Z</time>
      </trkpt>
      <trkpt lat="44.96636" lon="5.3711">
        <ele>1114</ele>
        <time>2019-06-15T07:36:37.000Z</time>
      </trkpt>
      <trkpt lat="44.96639" lon="5.37108">
        <ele>1114</ele>
        <time>2019-06-15T07:36:38.000Z</time>
      </trkpt>
      <trkpt lat="44.96642" lon="5.37107">
        <ele>1114</ele>
        <time>2019-06-15T07:36:39.000Z</time>
      </trkpt>
      <trkpt lat="44.96645" lon="5.37105">
        <ele>1117</ele>
        <time>2019-06-15T07:36:40.000Z</time>
      </trkpt>
      <trkpt lat="44.96649" lon="5.37103">
        <ele>1118</ele>
        <time>2019-06-15T07:36:41.000Z</time>
      </trkpt>
      <trkpt lat="44.96652" lon="5.37102">
        <ele>1119</ele>
        <time>2019-06-15T07:36:42.000Z</time>
      </trkpt>
      <trkpt lat="44.96655" lon="5.37101">
        <ele>1120</ele>
        <time>2019-06-15T07:36:43.000Z</time>
      </trkpt>
      <trkpt lat="44.96658" lon="5.37099">
        <ele>1120</ele>
        <time>2019-06-15T07:36:44.000Z</time>
      </trkpt>
      <trkpt lat="44.96661" lon="5.37098">
        <ele>1121</ele>
        <time>2019-06-15T07:36:45.000Z</time>
      </trkpt>
      <trkpt lat="44.96664" lon="5.37097">
        <ele>1121</ele>
        <time>2019-06-15T07:36:46.000Z</time>
      </trkpt>
      <trkpt lat="44.96666" lon="5.37095">
        <ele>1120</ele>
        <time>2019-06-15T07:36:47.000Z</time>
      </trkpt>
      <trkpt lat="44.96669" lon="5.37094">
        <ele>1121</ele>
        <time>2019-06-15T07:36:48.000Z</time>
      </trkpt>
      <trkpt lat="44.96671" lon="5.37092">
        <ele>1121</ele>
        <time>2019-06-15T07:36:49.000Z</time>
      </trkpt>
      <trkpt lat="44.96674" lon="5.3709">
        <ele>1121</ele>
        <time>2019-06-15T07:36:50.000Z</time>
      </trkpt>
      <trkpt lat="44.96676" lon="5.37088">
        <ele>1121</ele>
        <time>2019-06-15T07:36:51.000Z</time>
      </trkpt>
      <trkpt lat="44.96678" lon="5.37086">
        <ele>1121</ele>
        <time>2019-06-15T07:36:52.000Z</time>
      </trkpt>
      <trkpt lat="44.96679" lon="5.37083">
        <ele>1121</ele>
        <time>2019-06-15T07:36:53.000Z</time>
      </trkpt>
      <trkpt lat="44.96681" lon="5.37081">
        <ele>1121</ele>
        <time>2019-06-15T07:36:54.000Z</time>
      </trkpt>
      <trkpt lat="44.96683" lon="5.37079">
        <ele>1122</ele>
        <time>2019-06-15T07:36:55.000Z</time>
      </trkpt>
      <trkpt lat="44.96685" lon="5.37077">
        <ele>1122</ele>
        <time>2019-06-15T07:36:56.000Z</time>
      </trkpt>
      <trkpt lat="44.96687" lon="5.37076">
        <ele>1122</ele>
        <time>2019-06-15T07:36:57.000Z</time>
      </trkpt>
      <trkpt lat="44.96688" lon="5.37075">
        <ele>1121</ele>
        <time>2019-06-15T07:36:58.000Z</time>
      </trkpt>
      <trkpt lat="44.9669" lon="5.37074">
        <ele>1122</ele>
        <time>2019-06-15T07:36:59.000Z</time>
      </trkpt>
      <trkpt lat="44.96692" lon="5.37074">
        <ele>1120</ele>
        <time>2019-06-15T07:37:00.000Z</time>
      </trkpt>
      <trkpt lat="44.96694" lon="5.37074">
        <ele>1118</ele>
        <time>2019-06-15T07:37:01.000Z</time>
      </trkpt>
      <trkpt lat="44.96696" lon="5.37075">
        <ele>1118</ele>
        <time>2019-06-15T07:37:02.000Z</time>
      </trkpt>
      <trkpt lat="44.96697" lon="5.37076">
        <ele>1118</ele>
        <time>2019-06-15T07:37:03.000Z</time>
      </trkpt>
      <trkpt lat="44.96699" lon="5.37077">
        <ele>1118</ele>
        <time>2019-06-15T07:37:04.000Z</time>
      </trkpt>
      <trkpt lat="44.96701" lon="5.37079">
        <ele>1119</ele>
        <time>2019-06-15T07:37:05.000Z</time>
      </trkpt>
      <trkpt lat="44.96703" lon="5.3708">
        <ele>1119</ele>
        <time>2019-06-15T07:37:06.000Z</time>
      </trkpt>
      <trkpt lat="44.96706" lon="5.37081">
        <ele>1120</ele>
        <time>2019-06-15T07:37:07.000Z</time>
      </trkpt>
      <trkpt lat="44.96709" lon="5.37081">
        <ele>1120</ele>
        <time>2019-06-15T07:37:08.000Z</time>
      </trkpt>
      <trkpt lat="44.96711" lon="5.3708">
        <ele>1120</ele>
        <time>2019-06-15T07:37:09.000Z</time>
      </trkpt>
      <trkpt lat="44.96714" lon="5.37079">
        <ele>1120</ele>
        <time>2019-06-15T07:37:10.000Z</time>
      </trkpt>
      <trkpt lat="44.96716" lon="5.37078">
        <ele>1120</ele>
        <time>2019-06-15T07:37:11.000Z</time>
      </trkpt>
      <trkpt lat="44.96718" lon="5.37077">
        <ele>1119</ele>
        <time>2019-06-15T07:37:12.000Z</time>
      </trkpt>
      <trkpt lat="44.96721" lon="5.37076">
        <ele>1119</ele>
        <time>2019-06-15T07:37:13.000Z</time>
      </trkpt>
      <trkpt lat="44.96723" lon="5.37075">
        <ele>1118</ele>
        <time>2019-06-15T07:37:14.000Z</time>
      </trkpt>
      <trkpt lat="44.96726" lon="5.37074">
        <ele>1117</ele>
        <time>2019-06-15T07:37:15.000Z</time>
      </trkpt>
      <trkpt lat="44.96728" lon="5.37072">
        <ele>1117</ele>
        <time>2019-06-15T07:37:16.000Z</time>
      </trkpt>
      <trkpt lat="44.96731" lon="5.3707">
        <ele>1116</ele>
        <time>2019-06-15T07:37:17.000Z</time>
      </trkpt>
      <trkpt lat="44.96733" lon="5.37069">
        <ele>1116</ele>
        <time>2019-06-15T07:37:18.000Z</time>
      </trkpt>
      <trkpt lat="44.96736" lon="5.37067">
        <ele>1116</ele>
        <time>2019-06-15T07:37:19.000Z</time>
      </trkpt>
      <trkpt lat="44.96738" lon="5.37065">
        <ele>1116</ele>
        <time>2019-06-15T07:37:20.000Z</time>
      </trkpt>
      <trkpt lat="44.9674" lon="5.37063">
        <ele>1116</ele>
        <time>2019-06-15T07:37:21.000Z</time>
      </trkpt>
      <trkpt lat="44.96742" lon="5.37061">
        <ele>1115</ele>
        <time>2019-06-15T07:37:22.000Z</time>
      </trkpt>
      <trkpt lat="44.96744" lon="5.37059">
        <ele>1115</ele>
        <time>2019-06-15T07:37:23.000Z</time>
      </trkpt>
      <trkpt lat="44.96746" lon="5.37057">
        <ele>1116</ele>
        <time>2019-06-15T07:37:24.000Z</time>
      </trkpt>
      <trkpt lat="44.96749" lon="5.37055">
        <ele>1117</ele>
        <time>2019-06-15T07:37:25.000Z</time>
      </trkpt>
      <trkpt lat="44.96752" lon="5.37053">
        <ele>1120</ele>
        <time>2019-06-15T07:37:26.000Z</time>
      </trkpt>
      <trkpt lat="44.96756" lon="5.37051">
        <ele>1122</ele>
        <time>2019-06-15T07:37:27.000Z</time>
      </trkpt>
      <trkpt lat="44.96759" lon="5.37048">
        <ele>1122</ele>
        <time>2019-06-15T07:37:28.000Z</time>
      </trkpt>
      <trkpt lat="44.96762" lon="5.37046">
        <ele>1122</ele>
        <time>2019-06-15T07:37:29.000Z</time>
      </trkpt>
      <trkpt lat="44.96764" lon="5.37043">
        <ele>1122</ele>
        <time>2019-06-15T07:37:30.000Z</time>
      </trkpt>
      <trkpt lat="44.96767" lon="5.37041">
        <ele>1123</ele>
        <time>2019-06-15T07:37:31.000Z</time>
      </trkpt>
      <trkpt lat="44.9677" lon="5.37038">
        <ele>1123</ele>
        <time>2019-06-15T07:37:32.000Z</time>
      </trkpt>
      <trkpt lat="44.96773" lon="5.37036">
        <ele>1123</ele>
        <time>2019-06-15T07:37:33.000Z</time>
      </trkpt>
      <trkpt lat="44.96775" lon="5.37034">
        <ele>1124</ele>
        <time>2019-06-15T07:37:34.000Z</time>
      </trkpt>
      <trkpt lat="44.96777" lon="5.37032">
        <ele>1124</ele>
        <time>2019-06-15T07:37:35.000Z</time>
      </trkpt>
      <trkpt lat="44.9678" lon="5.3703">
        <ele>1124</ele>
        <time>2019-06-15T07:37:36.000Z</time>
      </trkpt>
      <trkpt lat="44.96782" lon="5.37028">
        <ele>1124</ele>
        <time>2019-06-15T07:37:37.000Z</time>
      </trkpt>
      <trkpt lat="44.96784" lon="5.37026">
        <ele>1125</ele>
        <time>2019-06-15T07:37:38.000Z</time>
      </trkpt>
      <trkpt lat="44.96786" lon="5.37024">
        <ele>1125</ele>
        <time>2019-06-15T07:37:39.000Z</time>
      </trkpt>
      <trkpt lat="44.96789" lon="5.37022">
        <ele>1125</ele>
        <time>2019-06-15T07:37:40.000Z</time>
      </trkpt>
      <trkpt lat="44.96791" lon="5.37021">
        <ele>1126</ele>
        <time>2019-06-15T07:37:41.000Z</time>
      </trkpt>
      <trkpt lat="44.96793" lon="5.37018">
        <ele>1125</ele>
        <time>2019-06-15T07:37:42.000Z</time>
      </trkpt>
      <trkpt lat="44.96794" lon="5.37015">
        <ele>1125</ele>
        <time>2019-06-15T07:37:43.000Z</time>
      </trkpt>
      <trkpt lat="44.96796" lon="5.37013">
        <ele>1125</ele>
        <time>2019-06-15T07:37:44.000Z</time>
      </trkpt>
      <trkpt lat="44.96798" lon="5.3701">
        <ele>1126</ele>
        <time>2019-06-15T07:37:45.000Z</time>
      </trkpt>
      <trkpt lat="44.968" lon="5.37007">
        <ele>1126</ele>
        <time>2019-06-15T07:37:46.000Z</time>
      </trkpt>
      <trkpt lat="44.96801" lon="5.37004">
        <ele>1127</ele>
        <time>2019-06-15T07:37:47.000Z</time>
      </trkpt>
      <trkpt lat="44.96803" lon="5.37">
        <ele>1127</ele>
        <time>2019-06-15T07:37:48.000Z</time>
      </trkpt>
      <trkpt lat="44.96804" lon="5.36996">
        <ele>1127</ele>
        <time>2019-06-15T07:37:49.000Z</time>
      </trkpt>
      <trkpt lat="44.96806" lon="5.36993">
        <ele>1127</ele>
        <time>2019-06-15T07:37:50.000Z</time>
      </trkpt>
      <trkpt lat="44.96808" lon="5.36989">
        <ele>1126</ele>
        <time>2019-06-15T07:37:51.000Z</time>
      </trkpt>
      <trkpt lat="44.9681" lon="5.36986">
        <ele>1125</ele>
        <time>2019-06-15T07:37:52.000Z</time>
      </trkpt>
      <trkpt lat="44.96811" lon="5.36983">
        <ele>1125</ele>
        <time>2019-06-15T07:37:53.000Z</time>
      </trkpt>
      <trkpt lat="44.96813" lon="5.3698">
        <ele>1124</ele>
        <time>2019-06-15T07:37:54.000Z</time>
      </trkpt>
      <trkpt lat="44.96815" lon="5.36976">
        <ele>1123</ele>
        <time>2019-06-15T07:37:55.000Z</time>
      </trkpt>
      <trkpt lat="44.96816" lon="5.36973">
        <ele>1124</ele>
        <time>2019-06-15T07:37:56.000Z</time>
      </trkpt>
      <trkpt lat="44.96817" lon="5.3697">
        <ele>1123</ele>
        <time>2019-06-15T07:37:57.000Z</time>
      </trkpt>
      <trkpt lat="44.96817" lon="5.36966">
        <ele>1123</ele>
        <time>2019-06-15T07:37:58.000Z</time>
      </trkpt>
      <trkpt lat="44.96818" lon="5.36963">
        <ele>1123</ele>
        <time>2019-06-15T07:37:59.000Z</time>
      </trkpt>
      <trkpt lat="44.96819" lon="5.36959">
        <ele>1122</ele>
        <time>2019-06-15T07:38:00.000Z</time>
      </trkpt>
      <trkpt lat="44.9682" lon="5.36955">
        <ele>1122</ele>
        <time>2019-06-15T07:38:01.000Z</time>
      </trkpt>
      <trkpt lat="44.96821" lon="5.36951">
        <ele>1121</ele>
        <time>2019-06-15T07:38:02.000Z</time>
      </trkpt>
      <trkpt lat="44.96823" lon="5.36947">
        <ele>1121</ele>
        <time>2019-06-15T07:38:03.000Z</time>
      </trkpt>
      <trkpt lat="44.96824" lon="5.36943">
        <ele>1120</ele>
        <time>2019-06-15T07:38:04.000Z</time>
      </trkpt>
      <trkpt lat="44.96826" lon="5.3694">
        <ele>1119</ele>
        <time>2019-06-15T07:38:05.000Z</time>
      </trkpt>
      <trkpt lat="44.96827" lon="5.36936">
        <ele>1118</ele>
        <time>2019-06-15T07:38:06.000Z</time>
      </trkpt>
      <trkpt lat="44.96828" lon="5.36932">
        <ele>1118</ele>
        <time>2019-06-15T07:38:07.000Z</time>
      </trkpt>
      <trkpt lat="44.9683" lon="5.36929">
        <ele>1117</ele>
        <time>2019-06-15T07:38:08.000Z</time>
      </trkpt>
      <trkpt lat="44.96832" lon="5.36927">
        <ele>1117</ele>
        <time>2019-06-15T07:38:09.000Z</time>
      </trkpt>
      <trkpt lat="44.96834" lon="5.36926">
        <ele>1119</ele>
        <time>2019-06-15T07:38:10.000Z</time>
      </trkpt>
      <trkpt lat="44.96836" lon="5.36926">
        <ele>1118</ele>
        <time>2019-06-15T07:38:11.000Z</time>
      </trkpt>
      <trkpt lat="44.96838" lon="5.36925">
        <ele>1117</ele>
        <time>2019-06-15T07:38:12.000Z</time>
      </trkpt>
      <trkpt lat="44.9684" lon="5.36925">
        <ele>1118</ele>
        <time>2019-06-15T07:38:13.000Z</time>
      </trkpt>
      <trkpt lat="44.96842" lon="5.36924">
        <ele>1117</ele>
        <time>2019-06-15T07:38:14.000Z</time>
      </trkpt>
      <trkpt lat="44.96845" lon="5.36923">
        <ele>1116</ele>
        <time>2019-06-15T07:38:15.000Z</time>
      </trkpt>
      <trkpt lat="44.96847" lon="5.36922">
        <ele>1116</ele>
        <time>2019-06-15T07:38:16.000Z</time>
      </trkpt>
      <trkpt lat="44.96849" lon="5.36922">
        <ele>1116</ele>
        <time>2019-06-15T07:38:17.000Z</time>
      </trkpt>
      <trkpt lat="44.96851" lon="5.36921">
        <ele>1115</ele>
        <time>2019-06-15T07:38:18.000Z</time>
      </trkpt>
      <trkpt lat="44.96854" lon="5.36921">
        <ele>1116</ele>
        <time>2019-06-15T07:38:19.000Z</time>
      </trkpt>
      <trkpt lat="44.96857" lon="5.36921">
        <ele>1116</ele>
        <time>2019-06-15T07:38:20.000Z</time>
      </trkpt>
      <trkpt lat="44.9686" lon="5.3692">
        <ele>1115</ele>
        <time>2019-06-15T07:38:21.000Z</time>
      </trkpt>
      <trkpt lat="44.96862" lon="5.3692">
        <ele>1115</ele>
        <time>2019-06-15T07:38:22.000Z</time>
      </trkpt>
      <trkpt lat="44.96865" lon="5.36919">
        <ele>1114</ele>
        <time>2019-06-15T07:38:23.000Z</time>
      </trkpt>
      <trkpt lat="44.96868" lon="5.36917">
        <ele>1114</ele>
        <time>2019-06-15T07:38:24.000Z</time>
      </trkpt>
      <trkpt lat="44.96871" lon="5.36916">
        <ele>1114</ele>
        <time>2019-06-15T07:38:25.000Z</time>
      </trkpt>
      <trkpt lat="44.96874" lon="5.36915">
        <ele>1113</ele>
        <time>2019-06-15T07:38:26.000Z</time>
      </trkpt>
      <trkpt lat="44.96877" lon="5.36913">
        <ele>1112</ele>
        <time>2019-06-15T07:38:27.000Z</time>
      </trkpt>
      <trkpt lat="44.9688" lon="5.36911">
        <ele>1111</ele>
        <time>2019-06-15T07:38:28.000Z</time>
      </trkpt>
      <trkpt lat="44.96884" lon="5.36908">
        <ele>1110</ele>
        <time>2019-06-15T07:38:29.000Z</time>
      </trkpt>
      <trkpt lat="44.96887" lon="5.36905">
        <ele>1109</ele>
        <time>2019-06-15T07:38:30.000Z</time>
      </trkpt>
      <trkpt lat="44.9689" lon="5.36901">
        <ele>1108</ele>
        <time>2019-06-15T07:38:31.000Z</time>
      </trkpt>
      <trkpt lat="44.96893" lon="5.36899">
        <ele>1107</ele>
        <time>2019-06-15T07:38:32.000Z</time>
      </trkpt>
      <trkpt lat="44.96895" lon="5.36896">
        <ele>1107</ele>
        <time>2019-06-15T07:38:33.000Z</time>
      </trkpt>
      <trkpt lat="44.96897" lon="5.36893">
        <ele>1106</ele>
        <time>2019-06-15T07:38:34.000Z</time>
      </trkpt>
      <trkpt lat="44.96899" lon="5.36891">
        <ele>1105</ele>
        <time>2019-06-15T07:38:35.000Z</time>
      </trkpt>
      <trkpt lat="44.96901" lon="5.36889">
        <ele>1105</ele>
        <time>2019-06-15T07:38:36.000Z</time>
      </trkpt>
      <trkpt lat="44.96903" lon="5.36886">
        <ele>1105</ele>
        <time>2019-06-15T07:38:37.000Z</time>
      </trkpt>
      <trkpt lat="44.96905" lon="5.36884">
        <ele>1106</ele>
        <time>2019-06-15T07:38:38.000Z</time>
      </trkpt>
      <trkpt lat="44.96908" lon="5.36883">
        <ele>1107</ele>
        <time>2019-06-15T07:38:39.000Z</time>
      </trkpt>
      <trkpt lat="44.96911" lon="5.36881">
        <ele>1108</ele>
        <time>2019-06-15T07:38:40.000Z</time>
      </trkpt>
      <trkpt lat="44.96914" lon="5.3688">
        <ele>1108</ele>
        <time>2019-06-15T07:38:41.000Z</time>
      </trkpt>
      <trkpt lat="44.96917" lon="5.36879">
        <ele>1108</ele>
        <time>2019-06-15T07:38:42.000Z</time>
      </trkpt>
      <trkpt lat="44.96919" lon="5.36879">
        <ele>1108</ele>
        <time>2019-06-15T07:38:43.000Z</time>
      </trkpt>
      <trkpt lat="44.96922" lon="5.3688">
        <ele>1109</ele>
        <time>2019-06-15T07:38:44.000Z</time>
      </trkpt>
      <trkpt lat="44.96925" lon="5.3688">
        <ele>1108</ele>
        <time>2019-06-15T07:38:45.000Z</time>
      </trkpt>
      <trkpt lat="44.96928" lon="5.3688">
        <ele>1109</ele>
        <time>2019-06-15T07:38:46.000Z</time>
      </trkpt>
      <trkpt lat="44.9693" lon="5.3688">
        <ele>1109</ele>
        <time>2019-06-15T07:38:47.000Z</time>
      </trkpt>
      <trkpt lat="44.96933" lon="5.3688">
        <ele>1110</ele>
        <time>2019-06-15T07:38:48.000Z</time>
      </trkpt>
      <trkpt lat="44.96936" lon="5.36881">
        <ele>1111</ele>
        <time>2019-06-15T07:38:49.000Z</time>
      </trkpt>
      <trkpt lat="44.96938" lon="5.36881">
        <ele>1111</ele>
        <time>2019-06-15T07:38:50.000Z</time>
      </trkpt>
      <trkpt lat="44.96942" lon="5.36881">
        <ele>1110</ele>
        <time>2019-06-15T07:38:51.000Z</time>
      </trkpt>
      <trkpt lat="44.96945" lon="5.36881">
        <ele>1110</ele>
        <time>2019-06-15T07:38:52.000Z</time>
      </trkpt>
      <trkpt lat="44.96948" lon="5.36881">
        <ele>1111</ele>
        <time>2019-06-15T07:38:53.000Z</time>
      </trkpt>
      <trkpt lat="44.96951" lon="5.36882">
        <ele>1112</ele>
        <time>2019-06-15T07:38:54.000Z</time>
      </trkpt>
      <trkpt lat="44.96954" lon="5.36882">
        <ele>1112</ele>
        <time>2019-06-15T07:38:55.000Z</time>
      </trkpt>
      <trkpt lat="44.96958" lon="5.36882">
        <ele>1112</ele>
        <time>2019-06-15T07:38:56.000Z</time>
      </trkpt>
      <trkpt lat="44.96961" lon="5.36882">
        <ele>1113</ele>
        <time>2019-06-15T07:38:57.000Z</time>
      </trkpt>
      <trkpt lat="44.96963" lon="5.36882">
        <ele>1114</ele>
        <time>2019-06-15T07:38:58.000Z</time>
      </trkpt>
      <trkpt lat="44.96966" lon="5.36882">
        <ele>1114</ele>
        <time>2019-06-15T07:38:59.000Z</time>
      </trkpt>
      <trkpt lat="44.96969" lon="5.36882">
        <ele>1114</ele>
        <time>2019-06-15T07:39:00.000Z</time>
      </trkpt>
      <trkpt lat="44.96972" lon="5.36882">
        <ele>1115</ele>
        <time>2019-06-15T07:39:01.000Z</time>
      </trkpt>
      <trkpt lat="44.96975" lon="5.36883">
        <ele>1115</ele>
        <time>2019-06-15T07:39:02.000Z</time>
      </trkpt>
      <trkpt lat="44.96978" lon="5.36882">
        <ele>1115</ele>
        <time>2019-06-15T07:39:03.000Z</time>
      </trkpt>
      <trkpt lat="44.96982" lon="5.36881">
        <ele>1115</ele>
        <time>2019-06-15T07:39:04.000Z</time>
      </trkpt>
      <trkpt lat="44.96985" lon="5.36881">
        <ele>1115</ele>
        <time>2019-06-15T07:39:05.000Z</time>
      </trkpt>
      <trkpt lat="44.96989" lon="5.3688">
        <ele>1116</ele>
        <time>2019-06-15T07:39:06.000Z</time>
      </trkpt>
      <trkpt lat="44.96993" lon="5.36878">
        <ele>1117</ele>
        <time>2019-06-15T07:39:07.000Z</time>
      </trkpt>
      <trkpt lat="44.96996" lon="5.36877">
        <ele>1117</ele>
        <time>2019-06-15T07:39:08.000Z</time>
      </trkpt>
      <trkpt lat="44.96999" lon="5.36875">
        <ele>1116</ele>
        <time>2019-06-15T07:39:09.000Z</time>
      </trkpt>
      <trkpt lat="44.97002" lon="5.36873">
        <ele>1116</ele>
        <time>2019-06-15T07:39:10.000Z</time>
      </trkpt>
      <trkpt lat="44.97006" lon="5.3687">
        <ele>1116</ele>
        <time>2019-06-15T07:39:11.000Z</time>
      </trkpt>
      <trkpt lat="44.9701" lon="5.36867">
        <ele>1116</ele>
        <time>2019-06-15T07:39:12.000Z</time>
      </trkpt>
      <trkpt lat="44.97014" lon="5.36865">
        <ele>1115</ele>
        <time>2019-06-15T07:39:13.000Z</time>
      </trkpt>
      <trkpt lat="44.97017" lon="5.36863">
        <ele>1114</ele>
        <time>2019-06-15T07:39:14.000Z</time>
      </trkpt>
      <trkpt lat="44.97019" lon="5.36861">
        <ele>1114</ele>
        <time>2019-06-15T07:39:15.000Z</time>
      </trkpt>
      <trkpt lat="44.97022" lon="5.36859">
        <ele>1113</ele>
        <time>2019-06-15T07:39:16.000Z</time>
      </trkpt>
      <trkpt lat="44.97025" lon="5.36856">
        <ele>1112</ele>
        <time>2019-06-15T07:39:17.000Z</time>
      </trkpt>
      <trkpt lat="44.97027" lon="5.36854">
        <ele>1112</ele>
        <time>2019-06-15T07:39:18.000Z</time>
      </trkpt>
      <trkpt lat="44.97029" lon="5.36851">
        <ele>1112</ele>
        <time>2019-06-15T07:39:19.000Z</time>
      </trkpt>
      <trkpt lat="44.97032" lon="5.36849">
        <ele>1112</ele>
        <time>2019-06-15T07:39:20.000Z</time>
      </trkpt>
      <trkpt lat="44.97035" lon="5.36847">
        <ele>1112</ele>
        <time>2019-06-15T07:39:21.000Z</time>
      </trkpt>
      <trkpt lat="44.97038" lon="5.36845">
        <ele>1112</ele>
        <time>2019-06-15T07:39:22.000Z</time>
      </trkpt>
      <trkpt lat="44.97041" lon="5.36845">
        <ele>1111</ele>
        <time>2019-06-15T07:39:23.000Z</time>
      </trkpt>
      <trkpt lat="44.97044" lon="5.36845">
        <ele>1110</ele>
        <time>2019-06-15T07:39:24.000Z</time>
      </trkpt>
      <trkpt lat="44.97048" lon="5.36846">
        <ele>1110</ele>
        <time>2019-06-15T07:39:25.000Z</time>
      </trkpt>
      <trkpt lat="44.9705" lon="5.36846">
        <ele>1111</ele>
        <time>2019-06-15T07:39:26.000Z</time>
      </trkpt>
      <trkpt lat="44.97053" lon="5.36846">
        <ele>1110</ele>
        <time>2019-06-15T07:39:27.000Z</time>
      </trkpt>
      <trkpt lat="44.97055" lon="5.36846">
        <ele>1110</ele>
        <time>2019-06-15T07:39:28.000Z</time>
      </trkpt>
      <trkpt lat="44.97059" lon="5.36847">
        <ele>1108</ele>
        <time>2019-06-15T07:39:29.000Z</time>
      </trkpt>
      <trkpt lat="44.97063" lon="5.36848">
        <ele>1107</ele>
        <time>2019-06-15T07:39:30.000Z</time>
      </trkpt>
      <trkpt lat="44.97067" lon="5.36849">
        <ele>1107</ele>
        <time>2019-06-15T07:39:31.000Z</time>
      </trkpt>
      <trkpt lat="44.9707" lon="5.36849">
        <ele>1108</ele>
        <time>2019-06-15T07:39:32.000Z</time>
      </trkpt>
      <trkpt lat="44.97074" lon="5.3685">
        <ele>1108</ele>
        <time>2019-06-15T07:39:33.000Z</time>
      </trkpt>
      <trkpt lat="44.97077" lon="5.3685">
        <ele>1108</ele>
        <time>2019-06-15T07:39:34.000Z</time>
      </trkpt>
      <trkpt lat="44.97081" lon="5.36851">
        <ele>1108</ele>
        <time>2019-06-15T07:39:35.000Z</time>
      </trkpt>
      <trkpt lat="44.97083" lon="5.36852">
        <ele>1108</ele>
        <time>2019-06-15T07:39:36.000Z</time>
      </trkpt>
      <trkpt lat="44.97086" lon="5.36853">
        <ele>1108</ele>
        <time>2019-06-15T07:39:37.000Z</time>
      </trkpt>
      <trkpt lat="44.97089" lon="5.36854">
        <ele>1108</ele>
        <time>2019-06-15T07:39:38.000Z</time>
      </trkpt>
      <trkpt lat="44.97092" lon="5.36854">
        <ele>1107</ele>
        <time>2019-06-15T07:39:39.000Z</time>
      </trkpt>
      <trkpt lat="44.97095" lon="5.36854">
        <ele>1107</ele>
        <time>2019-06-15T07:39:40.000Z</time>
      </trkpt>
      <trkpt lat="44.97097" lon="5.36853">
        <ele>1107</ele>
        <time>2019-06-15T07:39:41.000Z</time>
      </trkpt>
      <trkpt lat="44.971" lon="5.36852">
        <ele>1107</ele>
        <time>2019-06-15T07:39:42.000Z</time>
      </trkpt>
      <trkpt lat="44.97103" lon="5.36851">
        <ele>1107</ele>
        <time>2019-06-15T07:39:43.000Z</time>
      </trkpt>
      <trkpt lat="44.97106" lon="5.3685">
        <ele>1107</ele>
        <time>2019-06-15T07:39:44.000Z</time>
      </trkpt>
      <trkpt lat="44.97109" lon="5.36849">
        <ele>1106</ele>
        <time>2019-06-15T07:39:45.000Z</time>
      </trkpt>
      <trkpt lat="44.97111" lon="5.36848">
        <ele>1106</ele>
        <time>2019-06-15T07:39:46.000Z</time>
      </trkpt>
      <trkpt lat="44.97114" lon="5.36848">
        <ele>1105</ele>
        <time>2019-06-15T07:39:47.000Z</time>
      </trkpt>
      <trkpt lat="44.97117" lon="5.36848">
        <ele>1105</ele>
        <time>2019-06-15T07:39:48.000Z</time>
      </trkpt>
      <trkpt lat="44.9712" lon="5.36849">
        <ele>1105</ele>
        <time>2019-06-15T07:39:49.000Z</time>
      </trkpt>
      <trkpt lat="44.97123" lon="5.3685">
        <ele>1104</ele>
        <time>2019-06-15T07:39:50.000Z</time>
      </trkpt>
      <trkpt lat="44.97126" lon="5.36852">
        <ele>1104</ele>
        <time>2019-06-15T07:39:51.000Z</time>
      </trkpt>
      <trkpt lat="44.97129" lon="5.36853">
        <ele>1102</ele>
        <time>2019-06-15T07:39:52.000Z</time>
      </trkpt>
      <trkpt lat="44.97131" lon="5.36854">
        <ele>1102</ele>
        <time>2019-06-15T07:39:53.000Z</time>
      </trkpt>
      <trkpt lat="44.97132" lon="5.36856">
        <ele>1101</ele>
        <time>2019-06-15T07:39:54.000Z</time>
      </trkpt>
      <trkpt lat="44.97134" lon="5.36859">
        <ele>1101</ele>
        <time>2019-06-15T07:39:55.000Z</time>
      </trkpt>
      <trkpt lat="44.97135" lon="5.36861">
        <ele>1101</ele>
        <time>2019-06-15T07:39:56.000Z</time>
      </trkpt>
      <trkpt lat="44.97137" lon="5.36864">
        <ele>1101</ele>
        <time>2019-06-15T07:39:57.000Z</time>
      </trkpt>
      <trkpt lat="44.97139" lon="5.36867">
        <ele>1101</ele>
        <time>2019-06-15T07:39:58.000Z</time>
      </trkpt>
      <trkpt lat="44.97141" lon="5.3687">
        <ele>1101</ele>
        <time>2019-06-15T07:39:59.000Z</time>
      </trkpt>
      <trkpt lat="44.97143" lon="5.36872">
        <ele>1101</ele>
        <time>2019-06-15T07:40:00.000Z</time>
      </trkpt>
      <trkpt lat="44.97146" lon="5.36874">
        <ele>1101</ele>
        <time>2019-06-15T07:40:01.000Z</time>
      </trkpt>
      <trkpt lat="44.97148" lon="5.36877">
        <ele>1101</ele>
        <time>2019-06-15T07:40:02.000Z</time>
      </trkpt>
      <trkpt lat="44.97151" lon="5.36879">
        <ele>1100</ele>
        <time>2019-06-15T07:40:03.000Z</time>
      </trkpt>
      <trkpt lat="44.97153" lon="5.36881">
        <ele>1100</ele>
        <time>2019-06-15T07:40:04.000Z</time>
      </trkpt>
      <trkpt lat="44.97157" lon="5.36882">
        <ele>1100</ele>
        <time>2019-06-15T07:40:05.000Z</time>
      </trkpt>
      <trkpt lat="44.9716" lon="5.36884">
        <ele>1100</ele>
        <time>2019-06-15T07:40:06.000Z</time>
      </trkpt>
      <trkpt lat="44.97164" lon="5.36885">
        <ele>1099</ele>
        <time>2019-06-15T07:40:07.000Z</time>
      </trkpt>
      <trkpt lat="44.97167" lon="5.36886">
        <ele>1099</ele>
        <time>2019-06-15T07:40:08.000Z</time>
      </trkpt>
      <trkpt lat="44.97171" lon="5.36887">
        <ele>1099</ele>
        <time>2019-06-15T07:40:09.000Z</time>
      </trkpt>
      <trkpt lat="44.97175" lon="5.36888">
        <ele>1098</ele>
        <time>2019-06-15T07:40:10.000Z</time>
      </trkpt>
      <trkpt lat="44.97178" lon="5.3689">
        <ele>1098</ele>
        <time>2019-06-15T07:40:11.000Z</time>
      </trkpt>
      <trkpt lat="44.97182" lon="5.36891">
        <ele>1098</ele>
        <time>2019-06-15T07:40:12.000Z</time>
      </trkpt>
      <trkpt lat="44.97186" lon="5.36891">
        <ele>1097</ele>
        <time>2019-06-15T07:40:13.000Z</time>
      </trkpt>
      <trkpt lat="44.9719" lon="5.36891">
        <ele>1096</ele>
        <time>2019-06-15T07:40:14.000Z</time>
      </trkpt>
      <trkpt lat="44.97195" lon="5.3689">
        <ele>1096</ele>
        <time>2019-06-15T07:40:15.000Z</time>
      </trkpt>
      <trkpt lat="44.97199" lon="5.3689">
        <ele>1096</ele>
        <time>2019-06-15T07:40:16.000Z</time>
      </trkpt>
      <trkpt lat="44.97202" lon="5.3689">
        <ele>1095</ele>
        <time>2019-06-15T07:40:17.000Z</time>
      </trkpt>
      <trkpt lat="44.97205" lon="5.3689">
        <ele>1094</ele>
        <time>2019-06-15T07:40:18.000Z</time>
      </trkpt>
      <trkpt lat="44.97209" lon="5.36889">
        <ele>1093</ele>
        <time>2019-06-15T07:40:19.000Z</time>
      </trkpt>
      <trkpt lat="44.97211" lon="5.36888">
        <ele>1093</ele>
        <time>2019-06-15T07:40:20.000Z</time>
      </trkpt>
      <trkpt lat="44.97213" lon="5.36889">
        <ele>1093</ele>
        <time>2019-06-15T07:40:21.000Z</time>
      </trkpt>
      <trkpt lat="44.97216" lon="5.36889">
        <ele>1093</ele>
        <time>2019-06-15T07:40:22.000Z</time>
      </trkpt>
      <trkpt lat="44.97218" lon="5.3689">
        <ele>1092</ele>
        <time>2019-06-15T07:40:23.000Z</time>
      </trkpt>
      <trkpt lat="44.97221" lon="5.3689">
        <ele>1092</ele>
        <time>2019-06-15T07:40:24.000Z</time>
      </trkpt>
      <trkpt lat="44.97224" lon="5.36891">
        <ele>1092</ele>
        <time>2019-06-15T07:40:25.000Z</time>
      </trkpt>
      <trkpt lat="44.97228" lon="5.36891">
        <ele>1092</ele>
        <time>2019-06-15T07:40:26.000Z</time>
      </trkpt>
      <trkpt lat="44.97231" lon="5.36891">
        <ele>1091</ele>
        <time>2019-06-15T07:40:27.000Z</time>
      </trkpt>
      <trkpt lat="44.97235" lon="5.3689">
        <ele>1091</ele>
        <time>2019-06-15T07:40:28.000Z</time>
      </trkpt>
      <trkpt lat="44.97238" lon="5.36889">
        <ele>1091</ele>
        <time>2019-06-15T07:40:29.000Z</time>
      </trkpt>
      <trkpt lat="44.97242" lon="5.36888">
        <ele>1090</ele>
        <time>2019-06-15T07:40:30.000Z</time>
      </trkpt>
      <trkpt lat="44.97246" lon="5.36887">
        <ele>1090</ele>
        <time>2019-06-15T07:40:31.000Z</time>
      </trkpt>
      <trkpt lat="44.97249" lon="5.36885">
        <ele>1090</ele>
        <time>2019-06-15T07:40:32.000Z</time>
      </trkpt>
      <trkpt lat="44.97252" lon="5.36884">
        <ele>1090</ele>
        <time>2019-06-15T07:40:33.000Z</time>
      </trkpt>
      <trkpt lat="44.97256" lon="5.36883">
        <ele>1089</ele>
        <time>2019-06-15T07:40:34.000Z</time>
      </trkpt>
      <trkpt lat="44.9726" lon="5.36882">
        <ele>1088</ele>
        <time>2019-06-15T07:40:35.000Z</time>
      </trkpt>
      <trkpt lat="44.97265" lon="5.36882">
        <ele>1088</ele>
        <time>2019-06-15T07:40:36.000Z</time>
      </trkpt>
      <trkpt lat="44.97269" lon="5.36882">
        <ele>1087</ele>
        <time>2019-06-15T07:40:37.000Z</time>
      </trkpt>
      <trkpt lat="44.97273" lon="5.36883">
        <ele>1085</ele>
        <time>2019-06-15T07:40:38.000Z</time>
      </trkpt>
      <trkpt lat="44.97277" lon="5.36885">
        <ele>1083</ele>
        <time>2019-06-15T07:40:39.000Z</time>
      </trkpt>
      <trkpt lat="44.97281" lon="5.36887">
        <ele>1082</ele>
        <time>2019-06-15T07:40:40.000Z</time>
      </trkpt>
      <trkpt lat="44.97285" lon="5.36888">
        <ele>1081</ele>
        <time>2019-06-15T07:40:41.000Z</time>
      </trkpt>
      <trkpt lat="44.97289" lon="5.36889">
        <ele>1081</ele>
        <time>2019-06-15T07:40:42.000Z</time>
      </trkpt>
      <trkpt lat="44.97293" lon="5.36891">
        <ele>1081</ele>
        <time>2019-06-15T07:40:43.000Z</time>
      </trkpt>
      <trkpt lat="44.97298" lon="5.36893">
        <ele>1080</ele>
        <time>2019-06-15T07:40:44.000Z</time>
      </trkpt>
      <trkpt lat="44.97303" lon="5.36895">
        <ele>1080</ele>
        <time>2019-06-15T07:40:45.000Z</time>
      </trkpt>
      <trkpt lat="44.97308" lon="5.36897">
        <ele>1080</ele>
        <time>2019-06-15T07:40:46.000Z</time>
      </trkpt>
      <trkpt lat="44.97312" lon="5.369">
        <ele>1080</ele>
        <time>2019-06-15T07:40:47.000Z</time>
      </trkpt>
      <trkpt lat="44.97316" lon="5.36903">
        <ele>1079</ele>
        <time>2019-06-15T07:40:48.000Z</time>
      </trkpt>
      <trkpt lat="44.97319" lon="5.36907">
        <ele>1079</ele>
        <time>2019-06-15T07:40:49.000Z</time>
      </trkpt>
      <trkpt lat="44.97321" lon="5.3691">
        <ele>1078</ele>
        <time>2019-06-15T07:40:50.000Z</time>
      </trkpt>
      <trkpt lat="44.97323" lon="5.36913">
        <ele>1078</ele>
        <time>2019-06-15T07:40:51.000Z</time>
      </trkpt>
      <trkpt lat="44.97325" lon="5.36916">
        <ele>1078</ele>
        <time>2019-06-15T07:40:52.000Z</time>
      </trkpt>
      <trkpt lat="44.97328" lon="5.36918">
        <ele>1078</ele>
        <time>2019-06-15T07:40:53.000Z</time>
      </trkpt>
      <trkpt lat="44.97331" lon="5.3692">
        <ele>1079</ele>
        <time>2019-06-15T07:40:54.000Z</time>
      </trkpt>
      <trkpt lat="44.97334" lon="5.36923">
        <ele>1079</ele>
        <time>2019-06-15T07:40:55.000Z</time>
      </trkpt>
      <trkpt lat="44.97337" lon="5.36926">
        <ele>1079</ele>
        <time>2019-06-15T07:40:56.000Z</time>
      </trkpt>
      <trkpt lat="44.9734" lon="5.36929">
        <ele>1079</ele>
        <time>2019-06-15T07:40:57.000Z</time>
      </trkpt>
      <trkpt lat="44.97342" lon="5.36932">
        <ele>1079</ele>
        <time>2019-06-15T07:40:58.000Z</time>
      </trkpt>
      <trkpt lat="44.97345" lon="5.36935">
        <ele>1079</ele>
        <time>2019-06-15T07:40:59.000Z</time>
      </trkpt>
      <trkpt lat="44.97347" lon="5.36939">
        <ele>1078</ele>
        <time>2019-06-15T07:41:00.000Z</time>
      </trkpt>
      <trkpt lat="44.9735" lon="5.36942">
        <ele>1078</ele>
        <time>2019-06-15T07:41:01.000Z</time>
      </trkpt>
      <trkpt lat="44.97353" lon="5.36945">
        <ele>1078</ele>
        <time>2019-06-15T07:41:02.000Z</time>
      </trkpt>
      <trkpt lat="44.97356" lon="5.36947">
        <ele>1078</ele>
        <time>2019-06-15T07:41:03.000Z</time>
      </trkpt>
      <trkpt lat="44.97358" lon="5.3695">
        <ele>1078</ele>
        <time>2019-06-15T07:41:04.000Z</time>
      </trkpt>
      <trkpt lat="44.97361" lon="5.36952">
        <ele>1078</ele>
        <time>2019-06-15T07:41:05.000Z</time>
      </trkpt>
      <trkpt lat="44.97364" lon="5.36953">
        <ele>1078</ele>
        <time>2019-06-15T07:41:06.000Z</time>
      </trkpt>
      <trkpt lat="44.97368" lon="5.36954">
        <ele>1078</ele>
        <time>2019-06-15T07:41:07.000Z</time>
      </trkpt>
      <trkpt lat="44.97371" lon="5.36955">
        <ele>1079</ele>
        <time>2019-06-15T07:41:08.000Z</time>
      </trkpt>
      <trkpt lat="44.97374" lon="5.36956">
        <ele>1079</ele>
        <time>2019-06-15T07:41:09.000Z</time>
      </trkpt>
      <trkpt lat="44.97377" lon="5.36957">
        <ele>1078</ele>
        <time>2019-06-15T07:41:10.000Z</time>
      </trkpt>
      <trkpt lat="44.9738" lon="5.36957">
        <ele>1078</ele>
        <time>2019-06-15T07:41:11.000Z</time>
      </trkpt>
      <trkpt lat="44.97383" lon="5.36957">
        <ele>1078</ele>
        <time>2019-06-15T07:41:12.000Z</time>
      </trkpt>
      <trkpt lat="44.97386" lon="5.36956">
        <ele>1077</ele>
        <time>2019-06-15T07:41:13.000Z</time>
      </trkpt>
      <trkpt lat="44.97388" lon="5.36955">
        <ele>1077</ele>
        <time>2019-06-15T07:41:14.000Z</time>
      </trkpt>
      <trkpt lat="44.97391" lon="5.36953">
        <ele>1077</ele>
        <time>2019-06-15T07:41:15.000Z</time>
      </trkpt>
      <trkpt lat="44.97394" lon="5.36953">
        <ele>1077</ele>
        <time>2019-06-15T07:41:16.000Z</time>
      </trkpt>
      <trkpt lat="44.97397" lon="5.36952">
        <ele>1076</ele>
        <time>2019-06-15T07:41:17.000Z</time>
      </trkpt>
      <trkpt lat="44.974" lon="5.36951">
        <ele>1076</ele>
        <time>2019-06-15T07:41:18.000Z</time>
      </trkpt>
      <trkpt lat="44.97402" lon="5.36948">
        <ele>1075</ele>
        <time>2019-06-15T07:41:19.000Z</time>
      </trkpt>
      <trkpt lat="44.97405" lon="5.36945">
        <ele>1074</ele>
        <time>2019-06-15T07:41:20.000Z</time>
      </trkpt>
      <trkpt lat="44.97407" lon="5.36942">
        <ele>1074</ele>
        <time>2019-06-15T07:41:21.000Z</time>
      </trkpt>
      <trkpt lat="44.9741" lon="5.36938">
        <ele>1074</ele>
        <time>2019-06-15T07:41:22.000Z</time>
      </trkpt>
      <trkpt lat="44.97412" lon="5.36935">
        <ele>1074</ele>
        <time>2019-06-15T07:41:23.000Z</time>
      </trkpt>
      <trkpt lat="44.97413" lon="5.36933">
        <ele>1073</ele>
        <time>2019-06-15T07:41:24.000Z</time>
      </trkpt>
      <trkpt lat="44.97415" lon="5.36931">
        <ele>1072</ele>
        <time>2019-06-15T07:41:25.000Z</time>
      </trkpt>
      <trkpt lat="44.97417" lon="5.36929">
        <ele>1072</ele>
        <time>2019-06-15T07:41:26.000Z</time>
      </trkpt>
      <trkpt lat="44.9742" lon="5.36928">
        <ele>1071</ele>
        <time>2019-06-15T07:41:27.000Z</time>
      </trkpt>
      <trkpt lat="44.97422" lon="5.36925">
        <ele>1071</ele>
        <time>2019-06-15T07:41:28.000Z</time>
      </trkpt>
      <trkpt lat="44.97425" lon="5.36921">
        <ele>1071</ele>
        <time>2019-06-15T07:41:29.000Z</time>
      </trkpt>
      <trkpt lat="44.97427" lon="5.36917">
        <ele>1071</ele>
        <time>2019-06-15T07:41:30.000Z</time>
      </trkpt>
      <trkpt lat="44.9743" lon="5.36913">
        <ele>1072</ele>
        <time>2019-06-15T07:41:31.000Z</time>
      </trkpt>
      <trkpt lat="44.97433" lon="5.36909">
        <ele>1072</ele>
        <time>2019-06-15T07:41:32.000Z</time>
      </trkpt>
      <trkpt lat="44.97436" lon="5.36906">
        <ele>1071</ele>
        <time>2019-06-15T07:41:33.000Z</time>
      </trkpt>
      <trkpt lat="44.97439" lon="5.36903">
        <ele>1071</ele>
        <time>2019-06-15T07:41:34.000Z</time>
      </trkpt>
      <trkpt lat="44.97441" lon="5.36901">
        <ele>1070</ele>
        <time>2019-06-15T07:41:35.000Z</time>
      </trkpt>
      <trkpt lat="44.97444" lon="5.36899">
        <ele>1070</ele>
        <time>2019-06-15T07:41:36.000Z</time>
      </trkpt>
      <trkpt lat="44.97448" lon="5.36897">
        <ele>1069</ele>
        <time>2019-06-15T07:41:37.000Z</time>
      </trkpt>
      <trkpt lat="44.97451" lon="5.36896">
        <ele>1068</ele>
        <time>2019-06-15T07:41:38.000Z</time>
      </trkpt>
      <trkpt lat="44.97455" lon="5.36895">
        <ele>1068</ele>
        <time>2019-06-15T07:41:39.000Z</time>
      </trkpt>
      <trkpt lat="44.97459" lon="5.36894">
        <ele>1068</ele>
        <time>2019-06-15T07:41:40.000Z</time>
      </trkpt>
      <trkpt lat="44.97462" lon="5.36893">
        <ele>1068</ele>
        <time>2019-06-15T07:41:41.000Z</time>
      </trkpt>
      <trkpt lat="44.97465" lon="5.36892">
        <ele>1068</ele>
        <time>2019-06-15T07:41:42.000Z</time>
      </trkpt>
      <trkpt lat="44.97468" lon="5.36891">
        <ele>1067</ele>
        <time>2019-06-15T07:41:43.000Z</time>
      </trkpt>
      <trkpt lat="44.97471" lon="5.36889">
        <ele>1067</ele>
        <time>2019-06-15T07:41:44.000Z</time>
      </trkpt>
      <trkpt lat="44.97474" lon="5.36887">
        <ele>1067</ele>
        <time>2019-06-15T07:41:45.000Z</time>
      </trkpt>
      <trkpt lat="44.97476" lon="5.36885">
        <ele>1066</ele>
        <time>2019-06-15T07:41:46.000Z</time>
      </trkpt>
      <trkpt lat="44.97479" lon="5.36882">
        <ele>1067</ele>
        <time>2019-06-15T07:41:47.000Z</time>
      </trkpt>
      <trkpt lat="44.97483" lon="5.3688">
        <ele>1067</ele>
        <time>2019-06-15T07:41:48.000Z</time>
      </trkpt>
      <trkpt lat="44.97486" lon="5.36878">
        <ele>1067</ele>
        <time>2019-06-15T07:41:49.000Z</time>
      </trkpt>
      <trkpt lat="44.9749" lon="5.36876">
        <ele>1067</ele>
        <time>2019-06-15T07:41:50.000Z</time>
      </trkpt>
      <trkpt lat="44.97494" lon="5.36875">
        <ele>1066</ele>
        <time>2019-06-15T07:41:51.000Z</time>
      </trkpt>
      <trkpt lat="44.97497" lon="5.36873">
        <ele>1067</ele>
        <time>2019-06-15T07:41:52.000Z</time>
      </trkpt>
      <trkpt lat="44.97501" lon="5.36871">
        <ele>1067</ele>
        <time>2019-06-15T07:41:53.000Z</time>
      </trkpt>
      <trkpt lat="44.97504" lon="5.3687">
        <ele>1066</ele>
        <time>2019-06-15T07:41:54.000Z</time>
      </trkpt>
      <trkpt lat="44.97508" lon="5.36868">
        <ele>1066</ele>
        <time>2019-06-15T07:41:55.000Z</time>
      </trkpt>
      <trkpt lat="44.97511" lon="5.36867">
        <ele>1066</ele>
        <time>2019-06-15T07:41:56.000Z</time>
      </trkpt>
      <trkpt lat="44.97514" lon="5.36866">
        <ele>1066</ele>
        <time>2019-06-15T07:41:57.000Z</time>
      </trkpt>
      <trkpt lat="44.97518" lon="5.36864">
        <ele>1066</ele>
        <time>2019-06-15T07:41:58.000Z</time>
      </trkpt>
      <trkpt lat="44.97521" lon="5.36863">
        <ele>1065</ele>
        <time>2019-06-15T07:41:59.000Z</time>
      </trkpt>
      <trkpt lat="44.97524" lon="5.36862">
        <ele>1065</ele>
        <time>2019-06-15T07:42:00.000Z</time>
      </trkpt>
      <trkpt lat="44.97528" lon="5.3686">
        <ele>1065</ele>
        <time>2019-06-15T07:42:01.000Z</time>
      </trkpt>
      <trkpt lat="44.97531" lon="5.36859">
        <ele>1064</ele>
        <time>2019-06-15T07:42:02.000Z</time>
      </trkpt>
      <trkpt lat="44.97534" lon="5.36859">
        <ele>1064</ele>
        <time>2019-06-15T07:42:03.000Z</time>
      </trkpt>
      <trkpt lat="44.97538" lon="5.36858">
        <ele>1064</ele>
        <time>2019-06-15T07:42:04.000Z</time>
      </trkpt>
      <trkpt lat="44.97541" lon="5.36858">
        <ele>1064</ele>
        <time>2019-06-15T07:42:05.000Z</time>
      </trkpt>
      <trkpt lat="44.97545" lon="5.36857">
        <ele>1063</ele>
        <time>2019-06-15T07:42:06.000Z</time>
      </trkpt>
      <trkpt lat="44.97548" lon="5.36856">
        <ele>1063</ele>
        <time>2019-06-15T07:42:07.000Z</time>
      </trkpt>
      <trkpt lat="44.97552" lon="5.36855">
        <ele>1063</ele>
        <time>2019-06-15T07:42:08.000Z</time>
      </trkpt>
      <trkpt lat="44.97555" lon="5.36853">
        <ele>1063</ele>
        <time>2019-06-15T07:42:09.000Z</time>
      </trkpt>
      <trkpt lat="44.97558" lon="5.36852">
        <ele>1062</ele>
        <time>2019-06-15T07:42:10.000Z</time>
      </trkpt>
      <trkpt lat="44.97562" lon="5.36851">
        <ele>1062</ele>
        <time>2019-06-15T07:42:11.000Z</time>
      </trkpt>
      <trkpt lat="44.97565" lon="5.36849">
        <ele>1061</ele>
        <time>2019-06-15T07:42:12.000Z</time>
      </trkpt>
      <trkpt lat="44.97569" lon="5.36848">
        <ele>1060</ele>
        <time>2019-06-15T07:42:13.000Z</time>
      </trkpt>
      <trkpt lat="44.97573" lon="5.36846">
        <ele>1060</ele>
        <time>2019-06-15T07:42:14.000Z</time>
      </trkpt>
      <trkpt lat="44.97576" lon="5.36844">
        <ele>1060</ele>
        <time>2019-06-15T07:42:15.000Z</time>
      </trkpt>
      <trkpt lat="44.9758" lon="5.36842">
        <ele>1059</ele>
        <time>2019-06-15T07:42:16.000Z</time>
      </trkpt>
      <trkpt lat="44.97583" lon="5.36839">
        <ele>1059</ele>
        <time>2019-06-15T07:42:17.000Z</time>
      </trkpt>
      <trkpt lat="44.97586" lon="5.36837">
        <ele>1059</ele>
        <time>2019-06-15T07:42:18.000Z</time>
      </trkpt>
      <trkpt lat="44.9759" lon="5.36834">
        <ele>1059</ele>
        <time>2019-06-15T07:42:19.000Z</time>
      </trkpt>
      <trkpt lat="44.97593" lon="5.36833">
        <ele>1058</ele>
        <time>2019-06-15T07:42:20.000Z</time>
      </trkpt>
      <trkpt lat="44.97596" lon="5.36831">
        <ele>1058</ele>
        <time>2019-06-15T07:42:21.000Z</time>
      </trkpt>
      <trkpt lat="44.97599" lon="5.36829">
        <ele>1058</ele>
        <time>2019-06-15T07:42:22.000Z</time>
      </trkpt>
      <trkpt lat="44.97603" lon="5.36827">
        <ele>1057</ele>
        <time>2019-06-15T07:42:23.000Z</time>
      </trkpt>
      <trkpt lat="44.97605" lon="5.36825">
        <ele>1058</ele>
        <time>2019-06-15T07:42:24.000Z</time>
      </trkpt>
      <trkpt lat="44.97608" lon="5.36822">
        <ele>1057</ele>
        <time>2019-06-15T07:42:25.000Z</time>
      </trkpt>
      <trkpt lat="44.97611" lon="5.3682">
        <ele>1058</ele>
        <time>2019-06-15T07:42:26.000Z</time>
      </trkpt>
      <trkpt lat="44.97613" lon="5.36817">
        <ele>1058</ele>
        <time>2019-06-15T07:42:27.000Z</time>
      </trkpt>
      <trkpt lat="44.97615" lon="5.36814">
        <ele>1058</ele>
        <time>2019-06-15T07:42:28.000Z</time>
      </trkpt>
      <trkpt lat="44.97617" lon="5.36811">
        <ele>1058</ele>
        <time>2019-06-15T07:42:29.000Z</time>
      </trkpt>
      <trkpt lat="44.97619" lon="5.36807">
        <ele>1058</ele>
        <time>2019-06-15T07:42:30.000Z</time>
      </trkpt>
      <trkpt lat="44.97621" lon="5.36804">
        <ele>1058</ele>
        <time>2019-06-15T07:42:31.000Z</time>
      </trkpt>
      <trkpt lat="44.97623" lon="5.368">
        <ele>1058</ele>
        <time>2019-06-15T07:42:32.000Z</time>
      </trkpt>
      <trkpt lat="44.97624" lon="5.36796">
        <ele>1058</ele>
        <time>2019-06-15T07:42:33.000Z</time>
      </trkpt>
      <trkpt lat="44.97626" lon="5.36793">
        <ele>1058</ele>
        <time>2019-06-15T07:42:34.000Z</time>
      </trkpt>
      <trkpt lat="44.97628" lon="5.3679">
        <ele>1058</ele>
        <time>2019-06-15T07:42:35.000Z</time>
      </trkpt>
      <trkpt lat="44.9763" lon="5.36787">
        <ele>1058</ele>
        <time>2019-06-15T07:42:36.000Z</time>
      </trkpt>
      <trkpt lat="44.97632" lon="5.36785">
        <ele>1058</ele>
        <time>2019-06-15T07:42:37.000Z</time>
      </trkpt>
      <trkpt lat="44.97634" lon="5.36782">
        <ele>1058</ele>
        <time>2019-06-15T07:42:38.000Z</time>
      </trkpt>
      <trkpt lat="44.97636" lon="5.3678">
        <ele>1058</ele>
        <time>2019-06-15T07:42:39.000Z</time>
      </trkpt>
      <trkpt lat="44.97638" lon="5.36778">
        <ele>1059</ele>
        <time>2019-06-15T07:42:40.000Z</time>
      </trkpt>
      <trkpt lat="44.9764" lon="5.36776">
        <ele>1060</ele>
        <time>2019-06-15T07:42:41.000Z</time>
      </trkpt>
      <trkpt lat="44.97642" lon="5.36775">
        <ele>1060</ele>
        <time>2019-06-15T07:42:42.000Z</time>
      </trkpt>
      <trkpt lat="44.97644" lon="5.36774">
        <ele>1060</ele>
        <time>2019-06-15T07:42:43.000Z</time>
      </trkpt>
      <trkpt lat="44.97646" lon="5.36773">
        <ele>1060</ele>
        <time>2019-06-15T07:42:44.000Z</time>
      </trkpt>
      <trkpt lat="44.97648" lon="5.36771">
        <ele>1060</ele>
        <time>2019-06-15T07:42:45.000Z</time>
      </trkpt>
      <trkpt lat="44.9765" lon="5.3677">
        <ele>1060</ele>
        <time>2019-06-15T07:42:46.000Z</time>
      </trkpt>
      <trkpt lat="44.97652" lon="5.36769">
        <ele>1060</ele>
        <time>2019-06-15T07:42:47.000Z</time>
      </trkpt>
      <trkpt lat="44.97654" lon="5.36767">
        <ele>1060</ele>
        <time>2019-06-15T07:42:48.000Z</time>
      </trkpt>
      <trkpt lat="44.97656" lon="5.36766">
        <ele>1061</ele>
        <time>2019-06-15T07:42:49.000Z</time>
      </trkpt>
      <trkpt lat="44.97658" lon="5.36765">
        <ele>1061</ele>
        <time>2019-06-15T07:42:50.000Z</time>
      </trkpt>
      <trkpt lat="44.9766" lon="5.36764">
        <ele>1061</ele>
        <time>2019-06-15T07:42:51.000Z</time>
      </trkpt>
      <trkpt lat="44.97662" lon="5.36763">
        <ele>1061</ele>
        <time>2019-06-15T07:42:52.000Z</time>
      </trkpt>
      <trkpt lat="44.97663" lon="5.36761">
        <ele>1061</ele>
        <time>2019-06-15T07:42:53.000Z</time>
      </trkpt>
      <trkpt lat="44.97665" lon="5.36761">
        <ele>1061</ele>
        <time>2019-06-15T07:42:54.000Z</time>
      </trkpt>
      <trkpt lat="44.97667" lon="5.3676">
        <ele>1062</ele>
        <time>2019-06-15T07:42:55.000Z</time>
      </trkpt>
      <trkpt lat="44.97669" lon="5.36759">
        <ele>1062</ele>
        <time>2019-06-15T07:42:56.000Z</time>
      </trkpt>
      <trkpt lat="44.97671" lon="5.36759">
        <ele>1062</ele>
        <time>2019-06-15T07:42:57.000Z</time>
      </trkpt>
      <trkpt lat="44.97673" lon="5.36759">
        <ele>1062</ele>
        <time>2019-06-15T07:42:58.000Z</time>
      </trkpt>
      <trkpt lat="44.97675" lon="5.36759">
        <ele>1062</ele>
        <time>2019-06-15T07:42:59.000Z</time>
      </trkpt>
      <trkpt lat="44.97677" lon="5.36759">
        <ele>1063</ele>
        <time>2019-06-15T07:43:00.000Z</time>
      </trkpt>
      <trkpt lat="44.97679" lon="5.36759">
        <ele>1062</ele>
        <time>2019-06-15T07:43:01.000Z</time>
      </trkpt>
      <trkpt lat="44.97681" lon="5.3676">
        <ele>1062</ele>
        <time>2019-06-15T07:43:02.000Z</time>
      </trkpt>
      <trkpt lat="44.97683" lon="5.3676">
        <ele>1063</ele>
        <time>2019-06-15T07:43:03.000Z</time>
      </trkpt>
      <trkpt lat="44.97685" lon="5.36761">
        <ele>1063</ele>
        <time>2019-06-15T07:43:04.000Z</time>
      </trkpt>
      <trkpt lat="44.97687" lon="5.36761">
        <ele>1063</ele>
        <time>2019-06-15T07:43:05.000Z</time>
      </trkpt>
      <trkpt lat="44.9769" lon="5.36762">
        <ele>1063</ele>
        <time>2019-06-15T07:43:06.000Z</time>
      </trkpt>
      <trkpt lat="44.97692" lon="5.36762">
        <ele>1063</ele>
        <time>2019-06-15T07:43:07.000Z</time>
      </trkpt>
      <trkpt lat="44.97693" lon="5.36763">
        <ele>1064</ele>
        <time>2019-06-15T07:43:08.000Z</time>
      </trkpt>
      <trkpt lat="44.97695" lon="5.36763">
        <ele>1064</ele>
        <time>2019-06-15T07:43:09.000Z</time>
      </trkpt>
      <trkpt lat="44.97697" lon="5.36763">
        <ele>1065</ele>
        <time>2019-06-15T07:43:10.000Z</time>
      </trkpt>
      <trkpt lat="44.97699" lon="5.36763">
        <ele>1065</ele>
        <time>2019-06-15T07:43:11.000Z</time>
      </trkpt>
      <trkpt lat="44.97701" lon="5.36763">
        <ele>1066</ele>
        <time>2019-06-15T07:43:12.000Z</time>
      </trkpt>
      <trkpt lat="44.97703" lon="5.36763">
        <ele>1066</ele>
        <time>2019-06-15T07:43:13.000Z</time>
      </trkpt>
      <trkpt lat="44.97705" lon="5.36762">
        <ele>1066</ele>
        <time>2019-06-15T07:43:14.000Z</time>
      </trkpt>
      <trkpt lat="44.97708" lon="5.36761">
        <ele>1066</ele>
        <time>2019-06-15T07:43:15.000Z</time>
      </trkpt>
      <trkpt lat="44.9771" lon="5.36761">
        <ele>1067</ele>
        <time>2019-06-15T07:43:16.000Z</time>
      </trkpt>
      <trkpt lat="44.97713" lon="5.3676">
        <ele>1067</ele>
        <time>2019-06-15T07:43:17.000Z</time>
      </trkpt>
      <trkpt lat="44.97714" lon="5.36759">
        <ele>1068</ele>
        <time>2019-06-15T07:43:18.000Z</time>
      </trkpt>
      <trkpt lat="44.97716" lon="5.36758">
        <ele>1068</ele>
        <time>2019-06-15T07:43:19.000Z</time>
      </trkpt>
      <trkpt lat="44.97718" lon="5.36757">
        <ele>1068</ele>
        <time>2019-06-15T07:43:20.000Z</time>
      </trkpt>
      <trkpt lat="44.9772" lon="5.36756">
        <ele>1068</ele>
        <time>2019-06-15T07:43:21.000Z</time>
      </trkpt>
      <trkpt lat="44.97721" lon="5.36754">
        <ele>1069</ele>
        <time>2019-06-15T07:43:22.000Z</time>
      </trkpt>
      <trkpt lat="44.97723" lon="5.36752">
        <ele>1068</ele>
        <time>2019-06-15T07:43:23.000Z</time>
      </trkpt>
      <trkpt lat="44.97725" lon="5.3675">
        <ele>1068</ele>
        <time>2019-06-15T07:43:24.000Z</time>
      </trkpt>
      <trkpt lat="44.97727" lon="5.36748">
        <ele>1068</ele>
        <time>2019-06-15T07:43:25.000Z</time>
      </trkpt>
      <trkpt lat="44.97729" lon="5.36746">
        <ele>1069</ele>
        <time>2019-06-15T07:43:26.000Z</time>
      </trkpt>
      <trkpt lat="44.97731" lon="5.36745">
        <ele>1069</ele>
        <time>2019-06-15T07:43:27.000Z</time>
      </trkpt>
      <trkpt lat="44.97732" lon="5.36744">
        <ele>1070</ele>
        <time>2019-06-15T07:43:28.000Z</time>
      </trkpt>
      <trkpt lat="44.97734" lon="5.36742">
        <ele>1070</ele>
        <time>2019-06-15T07:43:29.000Z</time>
      </trkpt>
      <trkpt lat="44.97735" lon="5.36741">
        <ele>1070</ele>
        <time>2019-06-15T07:43:30.000Z</time>
      </trkpt>
      <trkpt lat="44.97737" lon="5.36739">
        <ele>1071</ele>
        <time>2019-06-15T07:43:31.000Z</time>
      </trkpt>
      <trkpt lat="44.97738" lon="5.36737">
        <ele>1071</ele>
        <time>2019-06-15T07:43:32.000Z</time>
      </trkpt>
      <trkpt lat="44.9774" lon="5.36734">
        <ele>1071</ele>
        <time>2019-06-15T07:43:33.000Z</time>
      </trkpt>
      <trkpt lat="44.97742" lon="5.36732">
        <ele>1070</ele>
        <time>2019-06-15T07:43:34.000Z</time>
      </trkpt>
      <trkpt lat="44.97743" lon="5.3673">
        <ele>1070</ele>
        <time>2019-06-15T07:43:35.000Z</time>
      </trkpt>
      <trkpt lat="44.97745" lon="5.36729">
        <ele>1070</ele>
        <time>2019-06-15T07:43:36.000Z</time>
      </trkpt>
      <trkpt lat="44.97746" lon="5.36727">
        <ele>1070</ele>
        <time>2019-06-15T07:43:37.000Z</time>
      </trkpt>
      <trkpt lat="44.97747" lon="5.36725">
        <ele>1069</ele>
        <time>2019-06-15T07:43:38.000Z</time>
      </trkpt>
      <trkpt lat="44.97749" lon="5.36723">
        <ele>1069</ele>
        <time>2019-06-15T07:43:39.000Z</time>
      </trkpt>
      <trkpt lat="44.9775" lon="5.36722">
        <ele>1070</ele>
        <time>2019-06-15T07:43:40.000Z</time>
      </trkpt>
      <trkpt lat="44.97751" lon="5.3672">
        <ele>1070</ele>
        <time>2019-06-15T07:43:41.000Z</time>
      </trkpt>
      <trkpt lat="44.97752" lon="5.36719">
        <ele>1070</ele>
        <time>2019-06-15T07:43:42.000Z</time>
      </trkpt>
      <trkpt lat="44.97754" lon="5.36717">
        <ele>1069</ele>
        <time>2019-06-15T07:43:43.000Z</time>
      </trkpt>
      <trkpt lat="44.97755" lon="5.36716">
        <ele>1069</ele>
        <time>2019-06-15T07:43:44.000Z</time>
      </trkpt>
      <trkpt lat="44.97757" lon="5.36714">
        <ele>1069</ele>
        <time>2019-06-15T07:43:45.000Z</time>
      </trkpt>
      <trkpt lat="44.97758" lon="5.36713">
        <ele>1070</ele>
        <time>2019-06-15T07:43:46.000Z</time>
      </trkpt>
      <trkpt lat="44.9776" lon="5.36711">
        <ele>1070</ele>
        <time>2019-06-15T07:43:47.000Z</time>
      </trkpt>
      <trkpt lat="44.97762" lon="5.3671">
        <ele>1071</ele>
        <time>2019-06-15T07:43:48.000Z</time>
      </trkpt>
      <trkpt lat="44.97764" lon="5.36709">
        <ele>1071</ele>
        <time>2019-06-15T07:43:49.000Z</time>
      </trkpt>
      <trkpt lat="44.97766" lon="5.36708">
        <ele>1071</ele>
        <time>2019-06-15T07:43:50.000Z</time>
      </trkpt>
      <trkpt lat="44.97768" lon="5.36706">
        <ele>1071</ele>
        <time>2019-06-15T07:43:51.000Z</time>
      </trkpt>
      <trkpt lat="44.9777" lon="5.36705">
        <ele>1072</ele>
        <time>2019-06-15T07:43:52.000Z</time>
      </trkpt>
      <trkpt lat="44.97772" lon="5.36703">
        <ele>1072</ele>
        <time>2019-06-15T07:43:53.000Z</time>
      </trkpt>
      <trkpt lat="44.97774" lon="5.36702">
        <ele>1073</ele>
        <time>2019-06-15T07:43:54.000Z</time>
      </trkpt>
      <trkpt lat="44.97775" lon="5.367">
        <ele>1074</ele>
        <time>2019-06-15T07:43:55.000Z</time>
      </trkpt>
      <trkpt lat="44.97777" lon="5.36699">
        <ele>1075</ele>
        <time>2019-06-15T07:43:56.000Z</time>
      </trkpt>
      <trkpt lat="44.97779" lon="5.36698">
        <ele>1076</ele>
        <time>2019-06-15T07:43:57.000Z</time>
      </trkpt>
      <trkpt lat="44.9778" lon="5.36697">
        <ele>1075</ele>
        <time>2019-06-15T07:43:58.000Z</time>
      </trkpt>
      <trkpt lat="44.97782" lon="5.36695">
        <ele>1074</ele>
        <time>2019-06-15T07:43:59.000Z</time>
      </trkpt>
      <trkpt lat="44.97783" lon="5.36693">
        <ele>1074</ele>
        <time>2019-06-15T07:44:00.000Z</time>
      </trkpt>
      <trkpt lat="44.97785" lon="5.36692">
        <ele>1074</ele>
        <time>2019-06-15T07:44:01.000Z</time>
      </trkpt>
      <trkpt lat="44.97786" lon="5.36691">
        <ele>1074</ele>
        <time>2019-06-15T07:44:02.000Z</time>
      </trkpt>
      <trkpt lat="44.97788" lon="5.36689">
        <ele>1075</ele>
        <time>2019-06-15T07:44:03.000Z</time>
      </trkpt>
      <trkpt lat="44.9779" lon="5.36687">
        <ele>1074</ele>
        <time>2019-06-15T07:44:04.000Z</time>
      </trkpt>
      <trkpt lat="44.97791" lon="5.36683">
        <ele>1074</ele>
        <time>2019-06-15T07:44:05.000Z</time>
      </trkpt>
      <trkpt lat="44.97792" lon="5.3668">
        <ele>1075</ele>
        <time>2019-06-15T07:44:06.000Z</time>
      </trkpt>
      <trkpt lat="44.97794" lon="5.36677">
        <ele>1076</ele>
        <time>2019-06-15T07:44:07.000Z</time>
      </trkpt>
      <trkpt lat="44.97795" lon="5.36675">
        <ele>1077</ele>
        <time>2019-06-15T07:44:08.000Z</time>
      </trkpt>
      <trkpt lat="44.97796" lon="5.36672">
        <ele>1078</ele>
        <time>2019-06-15T07:44:09.000Z</time>
      </trkpt>
      <trkpt lat="44.97796" lon="5.36669">
        <ele>1078</ele>
        <time>2019-06-15T07:44:10.000Z</time>
      </trkpt>
      <trkpt lat="44.97796" lon="5.36667">
        <ele>1078</ele>
        <time>2019-06-15T07:44:11.000Z</time>
      </trkpt>
      <trkpt lat="44.97796" lon="5.36665">
        <ele>1079</ele>
        <time>2019-06-15T07:44:12.000Z</time>
      </trkpt>
      <trkpt lat="44.97796" lon="5.36662">
        <ele>1080</ele>
        <time>2019-06-15T07:44:13.000Z</time>
      </trkpt>
      <trkpt lat="44.97797" lon="5.36659">
        <ele>1079</ele>
        <time>2019-06-15T07:44:14.000Z</time>
      </trkpt>
      <trkpt lat="44.97798" lon="5.36656">
        <ele>1079</ele>
        <time>2019-06-15T07:44:15.000Z</time>
      </trkpt>
      <trkpt lat="44.97799" lon="5.36653">
        <ele>1078</ele>
        <time>2019-06-15T07:44:16.000Z</time>
      </trkpt>
      <trkpt lat="44.978" lon="5.3665">
        <ele>1078</ele>
        <time>2019-06-15T07:44:17.000Z</time>
      </trkpt>
      <trkpt lat="44.978" lon="5.36647">
        <ele>1078</ele>
        <time>2019-06-15T07:44:18.000Z</time>
      </trkpt>
      <trkpt lat="44.97801" lon="5.36644">
        <ele>1078</ele>
        <time>2019-06-15T07:44:19.000Z</time>
      </trkpt>
      <trkpt lat="44.97801" lon="5.36642">
        <ele>1079</ele>
        <time>2019-06-15T07:44:20.000Z</time>
      </trkpt>
      <trkpt lat="44.97801" lon="5.36639">
        <ele>1078</ele>
        <time>2019-06-15T07:44:21.000Z</time>
      </trkpt>
      <trkpt lat="44.97801" lon="5.36636">
        <ele>1078</ele>
        <time>2019-06-15T07:44:22.000Z</time>
      </trkpt>
      <trkpt lat="44.97801" lon="5.36634">
        <ele>1079</ele>
        <time>2019-06-15T07:44:23.000Z</time>
      </trkpt>
      <trkpt lat="44.97801" lon="5.36631">
        <ele>1080</ele>
        <time>2019-06-15T07:44:24.000Z</time>
      </trkpt>
      <trkpt lat="44.97802" lon="5.36629">
        <ele>1081</ele>
        <time>2019-06-15T07:44:25.000Z</time>
      </trkpt>
      <trkpt lat="44.97802" lon="5.36627">
        <ele>1081</ele>
        <time>2019-06-15T07:44:26.000Z</time>
      </trkpt>
      <trkpt lat="44.97802" lon="5.36625">
        <ele>1083</ele>
        <time>2019-06-15T07:44:27.000Z</time>
      </trkpt>
      <trkpt lat="44.97803" lon="5.36623">
        <ele>1083</ele>
        <time>2019-06-15T07:44:28.000Z</time>
      </trkpt>
      <trkpt lat="44.97803" lon="5.36622">
        <ele>1084</ele>
        <time>2019-06-15T07:44:29.000Z</time>
      </trkpt>
      <trkpt lat="44.97804" lon="5.3662">
        <ele>1084</ele>
        <time>2019-06-15T07:44:30.000Z</time>
      </trkpt>
      <trkpt lat="44.97805" lon="5.36619">
        <ele>1085</ele>
        <time>2019-06-15T07:44:31.000Z</time>
      </trkpt>
      <trkpt lat="44.97805" lon="5.36618">
        <ele>1085</ele>
        <time>2019-06-15T07:44:32.000Z</time>
      </trkpt>
      <trkpt lat="44.97806" lon="5.36617">
        <ele>1086</ele>
        <time>2019-06-15T07:44:33.000Z</time>
      </trkpt>
      <trkpt lat="44.97807" lon="5.36617">
        <ele>1088</ele>
        <time>2019-06-15T07:44:34.000Z</time>
      </trkpt>
      <trkpt lat="44.97808" lon="5.36616">
        <ele>1087</ele>
        <time>2019-06-15T07:44:35.000Z</time>
      </trkpt>
      <trkpt lat="44.97809" lon="5.36615">
        <ele>1088</ele>
        <time>2019-06-15T07:44:36.000Z</time>
      </trkpt>
      <trkpt lat="44.97811" lon="5.36614">
        <ele>1089</ele>
        <time>2019-06-15T07:44:37.000Z</time>
      </trkpt>
      <trkpt lat="44.97813" lon="5.36613">
        <ele>1088</ele>
        <time>2019-06-15T07:44:38.000Z</time>
      </trkpt>
      <trkpt lat="44.97814" lon="5.36612">
        <ele>1089</ele>
        <time>2019-06-15T07:44:39.000Z</time>
      </trkpt>
      <trkpt lat="44.97816" lon="5.36612">
        <ele>1091</ele>
        <time>2019-06-15T07:44:40.000Z</time>
      </trkpt>
      <trkpt lat="44.97817" lon="5.36612">
        <ele>1091</ele>
        <time>2019-06-15T07:44:41.000Z</time>
      </trkpt>
      <trkpt lat="44.97819" lon="5.36613">
        <ele>1093</ele>
        <time>2019-06-15T07:44:42.000Z</time>
      </trkpt>
      <trkpt lat="44.97822" lon="5.36613">
        <ele>1094</ele>
        <time>2019-06-15T07:44:43.000Z</time>
      </trkpt>
      <trkpt lat="44.97824" lon="5.36613">
        <ele>1093</ele>
        <time>2019-06-15T07:44:44.000Z</time>
      </trkpt>
      <trkpt lat="44.97827" lon="5.36613">
        <ele>1094</ele>
        <time>2019-06-15T07:44:45.000Z</time>
      </trkpt>
      <trkpt lat="44.97829" lon="5.36613">
        <ele>1095</ele>
        <time>2019-06-15T07:44:46.000Z</time>
      </trkpt>
      <trkpt lat="44.97831" lon="5.36613">
        <ele>1095</ele>
        <time>2019-06-15T07:44:47.000Z</time>
      </trkpt>
      <trkpt lat="44.97834" lon="5.36613">
        <ele>1095</ele>
        <time>2019-06-15T07:44:48.000Z</time>
      </trkpt>
      <trkpt lat="44.97836" lon="5.36613">
        <ele>1096</ele>
        <time>2019-06-15T07:44:49.000Z</time>
      </trkpt>
      <trkpt lat="44.97838" lon="5.36613">
        <ele>1096</ele>
        <time>2019-06-15T07:44:50.000Z</time>
      </trkpt>
      <trkpt lat="44.9784" lon="5.36613">
        <ele>1095</ele>
        <time>2019-06-15T07:44:51.000Z</time>
      </trkpt>
      <trkpt lat="44.97842" lon="5.36613">
        <ele>1096</ele>
        <time>2019-06-15T07:44:52.000Z</time>
      </trkpt>
      <trkpt lat="44.97844" lon="5.36613">
        <ele>1096</ele>
        <time>2019-06-15T07:44:53.000Z</time>
      </trkpt>
      <trkpt lat="44.97847" lon="5.36613">
        <ele>1097</ele>
        <time>2019-06-15T07:44:54.000Z</time>
      </trkpt>
      <trkpt lat="44.97849" lon="5.36614">
        <ele>1097</ele>
        <time>2019-06-15T07:44:55.000Z</time>
      </trkpt>
      <trkpt lat="44.9785" lon="5.36614">
        <ele>1096</ele>
        <time>2019-06-15T07:44:56.000Z</time>
      </trkpt>
      <trkpt lat="44.97852" lon="5.36615">
        <ele>1098</ele>
        <time>2019-06-15T07:44:57.000Z</time>
      </trkpt>
      <trkpt lat="44.97854" lon="5.36615">
        <ele>1098</ele>
        <time>2019-06-15T07:44:58.000Z</time>
      </trkpt>
      <trkpt lat="44.97856" lon="5.36616">
        <ele>1098</ele>
        <time>2019-06-15T07:44:59.000Z</time>
      </trkpt>
      <trkpt lat="44.97858" lon="5.36616">
        <ele>1098</ele>
        <time>2019-06-15T07:45:00.000Z</time>
      </trkpt>
      <trkpt lat="44.9786" lon="5.36616">
        <ele>1098</ele>
        <time>2019-06-15T07:45:01.000Z</time>
      </trkpt>
      <trkpt lat="44.97862" lon="5.36616">
        <ele>1097</ele>
        <time>2019-06-15T07:45:02.000Z</time>
      </trkpt>
      <trkpt lat="44.97864" lon="5.36616">
        <ele>1097</ele>
        <time>2019-06-15T07:45:03.000Z</time>
      </trkpt>
      <trkpt lat="44.97867" lon="5.36616">
        <ele>1098</ele>
        <time>2019-06-15T07:45:04.000Z</time>
      </trkpt>
      <trkpt lat="44.97869" lon="5.36616">
        <ele>1098</ele>
        <time>2019-06-15T07:45:05.000Z</time>
      </trkpt>
      <trkpt lat="44.97871" lon="5.36615">
        <ele>1098</ele>
        <time>2019-06-15T07:45:06.000Z</time>
      </trkpt>
      <trkpt lat="44.97873" lon="5.36615">
        <ele>1099</ele>
        <time>2019-06-15T07:45:07.000Z</time>
      </trkpt>
      <trkpt lat="44.97876" lon="5.36615">
        <ele>1098</ele>
        <time>2019-06-15T07:45:08.000Z</time>
      </trkpt>
      <trkpt lat="44.97878" lon="5.36615">
        <ele>1099</ele>
        <time>2019-06-15T07:45:09.000Z</time>
      </trkpt>
      <trkpt lat="44.9788" lon="5.36615">
        <ele>1099</ele>
        <time>2019-06-15T07:45:10.000Z</time>
      </trkpt>
      <trkpt lat="44.97882" lon="5.36616">
        <ele>1100</ele>
        <time>2019-06-15T07:45:11.000Z</time>
      </trkpt>
      <trkpt lat="44.97884" lon="5.36616">
        <ele>1100</ele>
        <time>2019-06-15T07:45:12.000Z</time>
      </trkpt>
      <trkpt lat="44.97886" lon="5.36617">
        <ele>1102</ele>
        <time>2019-06-15T07:45:13.000Z</time>
      </trkpt>
      <trkpt lat="44.97889" lon="5.36618">
        <ele>1100</ele>
        <time>2019-06-15T07:45:14.000Z</time>
      </trkpt>
      <trkpt lat="44.97892" lon="5.36619">
        <ele>1100</ele>
        <time>2019-06-15T07:45:15.000Z</time>
      </trkpt>
      <trkpt lat="44.97894" lon="5.3662">
        <ele>1099</ele>
        <time>2019-06-15T07:45:16.000Z</time>
      </trkpt>
      <trkpt lat="44.97896" lon="5.3662">
        <ele>1100</ele>
        <time>2019-06-15T07:45:17.000Z</time>
      </trkpt>
      <trkpt lat="44.97899" lon="5.36621">
        <ele>1100</ele>
        <time>2019-06-15T07:45:18.000Z</time>
      </trkpt>
      <trkpt lat="44.97901" lon="5.36622">
        <ele>1100</ele>
        <time>2019-06-15T07:45:19.000Z</time>
      </trkpt>
      <trkpt lat="44.97904" lon="5.36622">
        <ele>1099</ele>
        <time>2019-06-15T07:45:20.000Z</time>
      </trkpt>
      <trkpt lat="44.97906" lon="5.36621">
        <ele>1098</ele>
        <time>2019-06-15T07:45:21.000Z</time>
      </trkpt>
      <trkpt lat="44.97908" lon="5.36621">
        <ele>1098</ele>
        <time>2019-06-15T07:45:22.000Z</time>
      </trkpt>
      <trkpt lat="44.9791" lon="5.3662">
        <ele>1098</ele>
        <time>2019-06-15T07:45:23.000Z</time>
      </trkpt>
      <trkpt lat="44.97911" lon="5.3662">
        <ele>1098</ele>
        <time>2019-06-15T07:45:24.000Z</time>
      </trkpt>
      <trkpt lat="44.97913" lon="5.3662">
        <ele>1098</ele>
        <time>2019-06-15T07:45:25.000Z</time>
      </trkpt>
      <trkpt lat="44.97914" lon="5.36619">
        <ele>1098</ele>
        <time>2019-06-15T07:45:26.000Z</time>
      </trkpt>
      <trkpt lat="44.97916" lon="5.36619">
        <ele>1098</ele>
        <time>2019-06-15T07:45:27.000Z</time>
      </trkpt>
      <trkpt lat="44.97918" lon="5.36619">
        <ele>1097</ele>
        <time>2019-06-15T07:45:28.000Z</time>
      </trkpt>
      <trkpt lat="44.9792" lon="5.36618">
        <ele>1096</ele>
        <time>2019-06-15T07:45:29.000Z</time>
      </trkpt>
      <trkpt lat="44.97923" lon="5.36618">
        <ele>1096</ele>
        <time>2019-06-15T07:45:30.000Z</time>
      </trkpt>
      <trkpt lat="44.97925" lon="5.36617">
        <ele>1097</ele>
        <time>2019-06-15T07:45:31.000Z</time>
      </trkpt>
      <trkpt lat="44.97928" lon="5.36616">
        <ele>1097</ele>
        <time>2019-06-15T07:45:32.000Z</time>
      </trkpt>
      <trkpt lat="44.9793" lon="5.36615">
        <ele>1096</ele>
        <time>2019-06-15T07:45:33.000Z</time>
      </trkpt>
      <trkpt lat="44.97933" lon="5.36614">
        <ele>1097</ele>
        <time>2019-06-15T07:45:34.000Z</time>
      </trkpt>
      <trkpt lat="44.97936" lon="5.36612">
        <ele>1097</ele>
        <time>2019-06-15T07:45:35.000Z</time>
      </trkpt>
      <trkpt lat="44.97938" lon="5.36611">
        <ele>1098</ele>
        <time>2019-06-15T07:45:36.000Z</time>
      </trkpt>
      <trkpt lat="44.9794" lon="5.3661">
        <ele>1098</ele>
        <time>2019-06-15T07:45:37.000Z</time>
      </trkpt>
      <trkpt lat="44.97942" lon="5.36608">
        <ele>1097</ele>
        <time>2019-06-15T07:45:38.000Z</time>
      </trkpt>
      <trkpt lat="44.97944" lon="5.36606">
        <ele>1096</ele>
        <time>2019-06-15T07:45:39.000Z</time>
      </trkpt>
      <trkpt lat="44.97946" lon="5.36604">
        <ele>1095</ele>
        <time>2019-06-15T07:45:40.000Z</time>
      </trkpt>
      <trkpt lat="44.97948" lon="5.36603">
        <ele>1094</ele>
        <time>2019-06-15T07:45:41.000Z</time>
      </trkpt>
      <trkpt lat="44.9795" lon="5.36602">
        <ele>1096</ele>
        <time>2019-06-15T07:45:42.000Z</time>
      </trkpt>
      <trkpt lat="44.97952" lon="5.36603">
        <ele>1098</ele>
        <time>2019-06-15T07:45:43.000Z</time>
      </trkpt>
      <trkpt lat="44.97955" lon="5.36603">
        <ele>1098</ele>
        <time>2019-06-15T07:45:44.000Z</time>
      </trkpt>
      <trkpt lat="44.97957" lon="5.36604">
        <ele>1097</ele>
        <time>2019-06-15T07:45:45.000Z</time>
      </trkpt>
      <trkpt lat="44.9796" lon="5.36604">
        <ele>1097</ele>
        <time>2019-06-15T07:45:46.000Z</time>
      </trkpt>
      <trkpt lat="44.97962" lon="5.36605">
        <ele>1097</ele>
        <time>2019-06-15T07:45:47.000Z</time>
      </trkpt>
      <trkpt lat="44.97965" lon="5.36605">
        <ele>1097</ele>
        <time>2019-06-15T07:45:48.000Z</time>
      </trkpt>
      <trkpt lat="44.97967" lon="5.36605">
        <ele>1097</ele>
        <time>2019-06-15T07:45:49.000Z</time>
      </trkpt>
      <trkpt lat="44.9797" lon="5.36605">
        <ele>1097</ele>
        <time>2019-06-15T07:45:50.000Z</time>
      </trkpt>
      <trkpt lat="44.97973" lon="5.36605">
        <ele>1097</ele>
        <time>2019-06-15T07:45:51.000Z</time>
      </trkpt>
      <trkpt lat="44.97975" lon="5.36604">
        <ele>1097</ele>
        <time>2019-06-15T07:45:52.000Z</time>
      </trkpt>
      <trkpt lat="44.97978" lon="5.36604">
        <ele>1098</ele>
        <time>2019-06-15T07:45:53.000Z</time>
      </trkpt>
      <trkpt lat="44.97981" lon="5.36604">
        <ele>1098</ele>
        <time>2019-06-15T07:45:54.000Z</time>
      </trkpt>
      <trkpt lat="44.97983" lon="5.36605">
        <ele>1098</ele>
        <time>2019-06-15T07:45:55.000Z</time>
      </trkpt>
      <trkpt lat="44.97986" lon="5.36606">
        <ele>1098</ele>
        <time>2019-06-15T07:45:56.000Z</time>
      </trkpt>
      <trkpt lat="44.97989" lon="5.36608">
        <ele>1097</ele>
        <time>2019-06-15T07:45:57.000Z</time>
      </trkpt>
      <trkpt lat="44.97992" lon="5.3661">
        <ele>1095</ele>
        <time>2019-06-15T07:45:58.000Z</time>
      </trkpt>
      <trkpt lat="44.97994" lon="5.36612">
        <ele>1095</ele>
        <time>2019-06-15T07:45:59.000Z</time>
      </trkpt>
      <trkpt lat="44.97997" lon="5.36614">
        <ele>1094</ele>
        <time>2019-06-15T07:46:00.000Z</time>
      </trkpt>
      <trkpt lat="44.98" lon="5.36617">
        <ele>1094</ele>
        <time>2019-06-15T07:46:01.000Z</time>
      </trkpt>
      <trkpt lat="44.98003" lon="5.36619">
        <ele>1093</ele>
        <time>2019-06-15T07:46:02.000Z</time>
      </trkpt>
      <trkpt lat="44.98006" lon="5.36621">
        <ele>1092</ele>
        <time>2019-06-15T07:46:03.000Z</time>
      </trkpt>
      <trkpt lat="44.98009" lon="5.36622">
        <ele>1092</ele>
        <time>2019-06-15T07:46:04.000Z</time>
      </trkpt>
      <trkpt lat="44.98012" lon="5.36623">
        <ele>1092</ele>
        <time>2019-06-15T07:46:05.000Z</time>
      </trkpt>
      <trkpt lat="44.98016" lon="5.36623">
        <ele>1091</ele>
        <time>2019-06-15T07:46:06.000Z</time>
      </trkpt>
      <trkpt lat="44.9802" lon="5.36624">
        <ele>1091</ele>
        <time>2019-06-15T07:46:07.000Z</time>
      </trkpt>
      <trkpt lat="44.98023" lon="5.36625">
        <ele>1091</ele>
        <time>2019-06-15T07:46:08.000Z</time>
      </trkpt>
      <trkpt lat="44.98026" lon="5.36626">
        <ele>1092</ele>
        <time>2019-06-15T07:46:09.000Z</time>
      </trkpt>
      <trkpt lat="44.9803" lon="5.36626">
        <ele>1092</ele>
        <time>2019-06-15T07:46:10.000Z</time>
      </trkpt>
      <trkpt lat="44.98033" lon="5.36626">
        <ele>1092</ele>
        <time>2019-06-15T07:46:11.000Z</time>
      </trkpt>
      <trkpt lat="44.98037" lon="5.36626">
        <ele>1092</ele>
        <time>2019-06-15T07:46:12.000Z</time>
      </trkpt>
      <trkpt lat="44.9804" lon="5.36626">
        <ele>1092</ele>
        <time>2019-06-15T07:46:13.000Z</time>
      </trkpt>
      <trkpt lat="44.98044" lon="5.36627">
        <ele>1092</ele>
        <time>2019-06-15T07:46:14.000Z</time>
      </trkpt>
      <trkpt lat="44.98047" lon="5.36627">
        <ele>1093</ele>
        <time>2019-06-15T07:46:15.000Z</time>
      </trkpt>
      <trkpt lat="44.9805" lon="5.36628">
        <ele>1093</ele>
        <time>2019-06-15T07:46:16.000Z</time>
      </trkpt>
      <trkpt lat="44.98052" lon="5.36628">
        <ele>1093</ele>
        <time>2019-06-15T07:46:17.000Z</time>
      </trkpt>
      <trkpt lat="44.98054" lon="5.36629">
        <ele>1094</ele>
        <time>2019-06-15T07:46:18.000Z</time>
      </trkpt>
      <trkpt lat="44.98056" lon="5.3663">
        <ele>1094</ele>
        <time>2019-06-15T07:46:19.000Z</time>
      </trkpt>
      <trkpt lat="44.98059" lon="5.36631">
        <ele>1094</ele>
        <time>2019-06-15T07:46:20.000Z</time>
      </trkpt>
      <trkpt lat="44.98062" lon="5.36633">
        <ele>1093</ele>
        <time>2019-06-15T07:46:21.000Z</time>
      </trkpt>
      <trkpt lat="44.98065" lon="5.36636">
        <ele>1094</ele>
        <time>2019-06-15T07:46:22.000Z</time>
      </trkpt>
      <trkpt lat="44.98068" lon="5.36639">
        <ele>1095</ele>
        <time>2019-06-15T07:46:23.000Z</time>
      </trkpt>
      <trkpt lat="44.98071" lon="5.36641">
        <ele>1097</ele>
        <time>2019-06-15T07:46:24.000Z</time>
      </trkpt>
      <trkpt lat="44.98074" lon="5.36644">
        <ele>1097</ele>
        <time>2019-06-15T07:46:25.000Z</time>
      </trkpt>
      <trkpt lat="44.98078" lon="5.36646">
        <ele>1098</ele>
        <time>2019-06-15T07:46:26.000Z</time>
      </trkpt>
      <trkpt lat="44.98081" lon="5.36648">
        <ele>1098</ele>
        <time>2019-06-15T07:46:27.000Z</time>
      </trkpt>
      <trkpt lat="44.98083" lon="5.3665">
        <ele>1098</ele>
        <time>2019-06-15T07:46:28.000Z</time>
      </trkpt>
      <trkpt lat="44.98085" lon="5.36652">
        <ele>1099</ele>
        <time>2019-06-15T07:46:29.000Z</time>
      </trkpt>
      <trkpt lat="44.98088" lon="5.36653">
        <ele>1100</ele>
        <time>2019-06-15T07:46:30.000Z</time>
      </trkpt>
      <trkpt lat="44.9809" lon="5.36654">
        <ele>1100</ele>
        <time>2019-06-15T07:46:31.000Z</time>
      </trkpt>
      <trkpt lat="44.98092" lon="5.36656">
        <ele>1103</ele>
        <time>2019-06-15T07:46:32.000Z</time>
      </trkpt>
      <trkpt lat="44.98095" lon="5.36657">
        <ele>1104</ele>
        <time>2019-06-15T07:46:33.000Z</time>
      </trkpt>
      <trkpt lat="44.98097" lon="5.36658">
        <ele>1104</ele>
        <time>2019-06-15T07:46:34.000Z</time>
      </trkpt>
      <trkpt lat="44.981" lon="5.36659">
        <ele>1104</ele>
        <time>2019-06-15T07:46:35.000Z</time>
      </trkpt>
      <trkpt lat="44.98103" lon="5.36661">
        <ele>1104</ele>
        <time>2019-06-15T07:46:36.000Z</time>
      </trkpt>
      <trkpt lat="44.98106" lon="5.36664">
        <ele>1104</ele>
        <time>2019-06-15T07:46:37.000Z</time>
      </trkpt>
      <trkpt lat="44.9811" lon="5.36666">
        <ele>1103</ele>
        <time>2019-06-15T07:46:38.000Z</time>
      </trkpt>
      <trkpt lat="44.98113" lon="5.36669">
        <ele>1103</ele>
        <time>2019-06-15T07:46:39.000Z</time>
      </trkpt>
      <trkpt lat="44.98116" lon="5.3667">
        <ele>1103</ele>
        <time>2019-06-15T07:46:40.000Z</time>
      </trkpt>
      <trkpt lat="44.98119" lon="5.36672">
        <ele>1103</ele>
        <time>2019-06-15T07:46:41.000Z</time>
      </trkpt>
      <trkpt lat="44.98121" lon="5.36673">
        <ele>1102</ele>
        <time>2019-06-15T07:46:42.000Z</time>
      </trkpt>
      <trkpt lat="44.98124" lon="5.36675">
        <ele>1103</ele>
        <time>2019-06-15T07:46:43.000Z</time>
      </trkpt>
      <trkpt lat="44.98126" lon="5.36676">
        <ele>1103</ele>
        <time>2019-06-15T07:46:44.000Z</time>
      </trkpt>
      <trkpt lat="44.98129" lon="5.36678">
        <ele>1101</ele>
        <time>2019-06-15T07:46:45.000Z</time>
      </trkpt>
      <trkpt lat="44.98131" lon="5.36679">
        <ele>1101</ele>
        <time>2019-06-15T07:46:46.000Z</time>
      </trkpt>
      <trkpt lat="44.98134" lon="5.36681">
        <ele>1103</ele>
        <time>2019-06-15T07:46:47.000Z</time>
      </trkpt>
      <trkpt lat="44.98136" lon="5.36683">
        <ele>1103</ele>
        <time>2019-06-15T07:46:48.000Z</time>
      </trkpt>
      <trkpt lat="44.98138" lon="5.36686">
        <ele>1102</ele>
        <time>2019-06-15T07:46:49.000Z</time>
      </trkpt>
      <trkpt lat="44.9814" lon="5.3669">
        <ele>1102</ele>
        <time>2019-06-15T07:46:50.000Z</time>
      </trkpt>
      <trkpt lat="44.98142" lon="5.36693">
        <ele>1101</ele>
        <time>2019-06-15T07:46:51.000Z</time>
      </trkpt>
      <trkpt lat="44.98144" lon="5.36696">
        <ele>1100</ele>
        <time>2019-06-15T07:46:52.000Z</time>
      </trkpt>
      <trkpt lat="44.98146" lon="5.36699">
        <ele>1100</ele>
        <time>2019-06-15T07:46:53.000Z</time>
      </trkpt>
      <trkpt lat="44.98148" lon="5.36702">
        <ele>1100</ele>
        <time>2019-06-15T07:46:54.000Z</time>
      </trkpt>
      <trkpt lat="44.98149" lon="5.36704">
        <ele>1099</ele>
        <time>2019-06-15T07:46:55.000Z</time>
      </trkpt>
      <trkpt lat="44.98151" lon="5.36707">
        <ele>1099</ele>
        <time>2019-06-15T07:46:56.000Z</time>
      </trkpt>
      <trkpt lat="44.98153" lon="5.3671">
        <ele>1099</ele>
        <time>2019-06-15T07:46:57.000Z</time>
      </trkpt>
      <trkpt lat="44.98155" lon="5.36713">
        <ele>1098</ele>
        <time>2019-06-15T07:46:58.000Z</time>
      </trkpt>
      <trkpt lat="44.98157" lon="5.36716">
        <ele>1098</ele>
        <time>2019-06-15T07:46:59.000Z</time>
      </trkpt>
      <trkpt lat="44.98159" lon="5.36719">
        <ele>1099</ele>
        <time>2019-06-15T07:47:00.000Z</time>
      </trkpt>
      <trkpt lat="44.98161" lon="5.36722">
        <ele>1099</ele>
        <time>2019-06-15T07:47:01.000Z</time>
      </trkpt>
      <trkpt lat="44.98163" lon="5.36725">
        <ele>1099</ele>
        <time>2019-06-15T07:47:02.000Z</time>
      </trkpt>
      <trkpt lat="44.98164" lon="5.36727">
        <ele>1098</ele>
        <time>2019-06-15T07:47:03.000Z</time>
      </trkpt>
      <trkpt lat="44.98166" lon="5.3673">
        <ele>1098</ele>
        <time>2019-06-15T07:47:04.000Z</time>
      </trkpt>
      <trkpt lat="44.98167" lon="5.36733">
        <ele>1098</ele>
        <time>2019-06-15T07:47:05.000Z</time>
      </trkpt>
      <trkpt lat="44.98169" lon="5.36736">
        <ele>1098</ele>
        <time>2019-06-15T07:47:06.000Z</time>
      </trkpt>
      <trkpt lat="44.9817" lon="5.36739">
        <ele>1099</ele>
        <time>2019-06-15T07:47:07.000Z</time>
      </trkpt>
      <trkpt lat="44.98171" lon="5.36742">
        <ele>1101</ele>
        <time>2019-06-15T07:47:08.000Z</time>
      </trkpt>
      <trkpt lat="44.98172" lon="5.36746">
        <ele>1101</ele>
        <time>2019-06-15T07:47:09.000Z</time>
      </trkpt>
      <trkpt lat="44.98173" lon="5.3675">
        <ele>1100</ele>
        <time>2019-06-15T07:47:10.000Z</time>
      </trkpt>
      <trkpt lat="44.98175" lon="5.36753">
        <ele>1099</ele>
        <time>2019-06-15T07:47:11.000Z</time>
      </trkpt>
      <trkpt lat="44.98177" lon="5.36757">
        <ele>1098</ele>
        <time>2019-06-15T07:47:12.000Z</time>
      </trkpt>
      <trkpt lat="44.98178" lon="5.36761">
        <ele>1098</ele>
        <time>2019-06-15T07:47:13.000Z</time>
      </trkpt>
      <trkpt lat="44.98179" lon="5.36765">
        <ele>1098</ele>
        <time>2019-06-15T07:47:14.000Z</time>
      </trkpt>
      <trkpt lat="44.9818" lon="5.36769">
        <ele>1098</ele>
        <time>2019-06-15T07:47:15.000Z</time>
      </trkpt>
      <trkpt lat="44.98181" lon="5.36773">
        <ele>1097</ele>
        <time>2019-06-15T07:47:16.000Z</time>
      </trkpt>
      <trkpt lat="44.98183" lon="5.36776">
        <ele>1097</ele>
        <time>2019-06-15T07:47:17.000Z</time>
      </trkpt>
      <trkpt lat="44.98184" lon="5.36779">
        <ele>1097</ele>
        <time>2019-06-15T07:47:18.000Z</time>
      </trkpt>
      <trkpt lat="44.98185" lon="5.36783">
        <ele>1096</ele>
        <time>2019-06-15T07:47:19.000Z</time>
      </trkpt>
      <trkpt lat="44.98186" lon="5.36786">
        <ele>1094</ele>
        <time>2019-06-15T07:47:20.000Z</time>
      </trkpt>
      <trkpt lat="44.98187" lon="5.36789">
        <ele>1094</ele>
        <time>2019-06-15T07:47:21.000Z</time>
      </trkpt>
      <trkpt lat="44.98188" lon="5.36792">
        <ele>1094</ele>
        <time>2019-06-15T07:47:22.000Z</time>
      </trkpt>
      <trkpt lat="44.98189" lon="5.36795">
        <ele>1094</ele>
        <time>2019-06-15T07:47:23.000Z</time>
      </trkpt>
      <trkpt lat="44.9819" lon="5.36799">
        <ele>1094</ele>
        <time>2019-06-15T07:47:24.000Z</time>
      </trkpt>
      <trkpt lat="44.9819" lon="5.36802">
        <ele>1093</ele>
        <time>2019-06-15T07:47:25.000Z</time>
      </trkpt>
      <trkpt lat="44.98191" lon="5.36805">
        <ele>1093</ele>
        <time>2019-06-15T07:47:26.000Z</time>
      </trkpt>
      <trkpt lat="44.98193" lon="5.36808">
        <ele>1092</ele>
        <time>2019-06-15T07:47:27.000Z</time>
      </trkpt>
      <trkpt lat="44.98194" lon="5.36812">
        <ele>1092</ele>
        <time>2019-06-15T07:47:28.000Z</time>
      </trkpt>
      <trkpt lat="44.98195" lon="5.36814">
        <ele>1091</ele>
        <time>2019-06-15T07:47:29.000Z</time>
      </trkpt>
      <trkpt lat="44.98197" lon="5.36816">
        <ele>1092</ele>
        <time>2019-06-15T07:47:30.000Z</time>
      </trkpt>
      <trkpt lat="44.98198" lon="5.36818">
        <ele>1093</ele>
        <time>2019-06-15T07:47:31.000Z</time>
      </trkpt>
      <trkpt lat="44.98201" lon="5.36821">
        <ele>1095</ele>
        <time>2019-06-15T07:47:32.000Z</time>
      </trkpt>
      <trkpt lat="44.98204" lon="5.36823">
        <ele>1096</ele>
        <time>2019-06-15T07:47:33.000Z</time>
      </trkpt>
      <trkpt lat="44.98207" lon="5.36826">
        <ele>1097</ele>
        <time>2019-06-15T07:47:34.000Z</time>
      </trkpt>
      <trkpt lat="44.98211" lon="5.36829">
        <ele>1098</ele>
        <time>2019-06-15T07:47:35.000Z</time>
      </trkpt>
      <trkpt lat="44.98215" lon="5.36832">
        <ele>1098</ele>
        <time>2019-06-15T07:47:36.000Z</time>
      </trkpt>
      <trkpt lat="44.98218" lon="5.36834">
        <ele>1098</ele>
        <time>2019-06-15T07:47:37.000Z</time>
      </trkpt>
      <trkpt lat="44.9822" lon="5.36836">
        <ele>1099</ele>
        <time>2019-06-15T07:47:38.000Z</time>
      </trkpt>
      <trkpt lat="44.98222" lon="5.36839">
        <ele>1099</ele>
        <time>2019-06-15T07:47:39.000Z</time>
      </trkpt>
      <trkpt lat="44.98224" lon="5.36841">
        <ele>1100</ele>
        <time>2019-06-15T07:47:40.000Z</time>
      </trkpt>
      <trkpt lat="44.98225" lon="5.36843">
        <ele>1100</ele>
        <time>2019-06-15T07:47:41.000Z</time>
      </trkpt>
      <trkpt lat="44.98227" lon="5.36846">
        <ele>1101</ele>
        <time>2019-06-15T07:47:42.000Z</time>
      </trkpt>
      <trkpt lat="44.98229" lon="5.36849">
        <ele>1102</ele>
        <time>2019-06-15T07:47:43.000Z</time>
      </trkpt>
      <trkpt lat="44.98231" lon="5.36853">
        <ele>1103</ele>
        <time>2019-06-15T07:47:44.000Z</time>
      </trkpt>
      <trkpt lat="44.98233" lon="5.36857">
        <ele>1103</ele>
        <time>2019-06-15T07:47:45.000Z</time>
      </trkpt>
      <trkpt lat="44.98235" lon="5.3686">
        <ele>1104</ele>
        <time>2019-06-15T07:47:46.000Z</time>
      </trkpt>
      <trkpt lat="44.98237" lon="5.36863">
        <ele>1104</ele>
        <time>2019-06-15T07:47:47.000Z</time>
      </trkpt>
      <trkpt lat="44.98239" lon="5.36865">
        <ele>1105</ele>
        <time>2019-06-15T07:47:48.000Z</time>
      </trkpt>
      <trkpt lat="44.9824" lon="5.36867">
        <ele>1105</ele>
        <time>2019-06-15T07:47:49.000Z</time>
      </trkpt>
      <trkpt lat="44.98242" lon="5.3687">
        <ele>1105</ele>
        <time>2019-06-15T07:47:50.000Z</time>
      </trkpt>
      <trkpt lat="44.98244" lon="5.36872">
        <ele>1104</ele>
        <time>2019-06-15T07:47:51.000Z</time>
      </trkpt>
      <trkpt lat="44.98247" lon="5.36874">
        <ele>1104</ele>
        <time>2019-06-15T07:47:52.000Z</time>
      </trkpt>
      <trkpt lat="44.9825" lon="5.36876">
        <ele>1103</ele>
        <time>2019-06-15T07:47:53.000Z</time>
      </trkpt>
      <trkpt lat="44.98253" lon="5.36878">
        <ele>1102</ele>
        <time>2019-06-15T07:47:54.000Z</time>
      </trkpt>
      <trkpt lat="44.98255" lon="5.3688">
        <ele>1102</ele>
        <time>2019-06-15T07:47:55.000Z</time>
      </trkpt>
      <trkpt lat="44.98257" lon="5.36883">
        <ele>1101</ele>
        <time>2019-06-15T07:47:56.000Z</time>
      </trkpt>
      <trkpt lat="44.9826" lon="5.36886">
        <ele>1101</ele>
        <time>2019-06-15T07:47:57.000Z</time>
      </trkpt>
      <trkpt lat="44.98262" lon="5.36888">
        <ele>1100</ele>
        <time>2019-06-15T07:47:58.000Z</time>
      </trkpt>
      <trkpt lat="44.98264" lon="5.3689">
        <ele>1100</ele>
        <time>2019-06-15T07:47:59.000Z</time>
      </trkpt>
      <trkpt lat="44.98266" lon="5.36892">
        <ele>1101</ele>
        <time>2019-06-15T07:48:00.000Z</time>
      </trkpt>
      <trkpt lat="44.98269" lon="5.36894">
        <ele>1100</ele>
        <time>2019-06-15T07:48:01.000Z</time>
      </trkpt>
      <trkpt lat="44.98272" lon="5.36895">
        <ele>1099</ele>
        <time>2019-06-15T07:48:02.000Z</time>
      </trkpt>
      <trkpt lat="44.98275" lon="5.36896">
        <ele>1099</ele>
        <time>2019-06-15T07:48:03.000Z</time>
      </trkpt>
      <trkpt lat="44.98278" lon="5.36898">
        <ele>1098</ele>
        <time>2019-06-15T07:48:04.000Z</time>
      </trkpt>
      <trkpt lat="44.98282" lon="5.36901">
        <ele>1098</ele>
        <time>2019-06-15T07:48:05.000Z</time>
      </trkpt>
      <trkpt lat="44.98285" lon="5.36903">
        <ele>1099</ele>
        <time>2019-06-15T07:48:06.000Z</time>
      </trkpt>
      <trkpt lat="44.98288" lon="5.36904">
        <ele>1099</ele>
        <time>2019-06-15T07:48:07.000Z</time>
      </trkpt>
      <trkpt lat="44.98291" lon="5.36905">
        <ele>1099</ele>
        <time>2019-06-15T07:48:08.000Z</time>
      </trkpt>
      <trkpt lat="44.98293" lon="5.36906">
        <ele>1099</ele>
        <time>2019-06-15T07:48:09.000Z</time>
      </trkpt>
      <trkpt lat="44.98295" lon="5.36907">
        <ele>1099</ele>
        <time>2019-06-15T07:48:10.000Z</time>
      </trkpt>
      <trkpt lat="44.98297" lon="5.36909">
        <ele>1100</ele>
        <time>2019-06-15T07:48:11.000Z</time>
      </trkpt>
      <trkpt lat="44.983" lon="5.3691">
        <ele>1098</ele>
        <time>2019-06-15T07:48:12.000Z</time>
      </trkpt>
      <trkpt lat="44.98303" lon="5.36912">
        <ele>1098</ele>
        <time>2019-06-15T07:48:13.000Z</time>
      </trkpt>
      <trkpt lat="44.98306" lon="5.36913">
        <ele>1099</ele>
        <time>2019-06-15T07:48:14.000Z</time>
      </trkpt>
      <trkpt lat="44.98309" lon="5.36914">
        <ele>1099</ele>
        <time>2019-06-15T07:48:15.000Z</time>
      </trkpt>
      <trkpt lat="44.98312" lon="5.36915">
        <ele>1099</ele>
        <time>2019-06-15T07:48:16.000Z</time>
      </trkpt>
      <trkpt lat="44.98315" lon="5.36916">
        <ele>1098</ele>
        <time>2019-06-15T07:48:17.000Z</time>
      </trkpt>
      <trkpt lat="44.98318" lon="5.36917">
        <ele>1097</ele>
        <time>2019-06-15T07:48:18.000Z</time>
      </trkpt>
      <trkpt lat="44.98321" lon="5.36919">
        <ele>1096</ele>
        <time>2019-06-15T07:48:19.000Z</time>
      </trkpt>
      <trkpt lat="44.98324" lon="5.3692">
        <ele>1096</ele>
        <time>2019-06-15T07:48:20.000Z</time>
      </trkpt>
      <trkpt lat="44.98327" lon="5.36921">
        <ele>1095</ele>
        <time>2019-06-15T07:48:21.000Z</time>
      </trkpt>
      <trkpt lat="44.9833" lon="5.36922">
        <ele>1094</ele>
        <time>2019-06-15T07:48:22.000Z</time>
      </trkpt>
      <trkpt lat="44.98334" lon="5.36922">
        <ele>1092</ele>
        <time>2019-06-15T07:48:23.000Z</time>
      </trkpt>
      <trkpt lat="44.98338" lon="5.36923">
        <ele>1091</ele>
        <time>2019-06-15T07:48:24.000Z</time>
      </trkpt>
      <trkpt lat="44.98342" lon="5.36923">
        <ele>1090</ele>
        <time>2019-06-15T07:48:25.000Z</time>
      </trkpt>
      <trkpt lat="44.98345" lon="5.36923">
        <ele>1091</ele>
        <time>2019-06-15T07:48:26.000Z</time>
      </trkpt>
      <trkpt lat="44.98348" lon="5.36923">
        <ele>1089</ele>
        <time>2019-06-15T07:48:27.000Z</time>
      </trkpt>
      <trkpt lat="44.98351" lon="5.36923">
        <ele>1089</ele>
        <time>2019-06-15T07:48:28.000Z</time>
      </trkpt>
      <trkpt lat="44.98353" lon="5.36922">
        <ele>1089</ele>
        <time>2019-06-15T07:48:29.000Z</time>
      </trkpt>
      <trkpt lat="44.98356" lon="5.36921">
        <ele>1090</ele>
        <time>2019-06-15T07:48:30.000Z</time>
      </trkpt>
      <trkpt lat="44.9836" lon="5.36921">
        <ele>1092</ele>
        <time>2019-06-15T07:48:31.000Z</time>
      </trkpt>
      <trkpt lat="44.98364" lon="5.3692">
        <ele>1092</ele>
        <time>2019-06-15T07:48:32.000Z</time>
      </trkpt>
      <trkpt lat="44.98368" lon="5.3692">
        <ele>1093</ele>
        <time>2019-06-15T07:48:33.000Z</time>
      </trkpt>
      <trkpt lat="44.98371" lon="5.36919">
        <ele>1092</ele>
        <time>2019-06-15T07:48:34.000Z</time>
      </trkpt>
      <trkpt lat="44.98373" lon="5.36919">
        <ele>1090</ele>
        <time>2019-06-15T07:48:35.000Z</time>
      </trkpt>
      <trkpt lat="44.98376" lon="5.36918">
        <ele>1089</ele>
        <time>2019-06-15T07:48:36.000Z</time>
      </trkpt>
      <trkpt lat="44.98379" lon="5.36917">
        <ele>1088</ele>
        <time>2019-06-15T07:48:37.000Z</time>
      </trkpt>
      <trkpt lat="44.98382" lon="5.36916">
        <ele>1087</ele>
        <time>2019-06-15T07:48:38.000Z</time>
      </trkpt>
      <trkpt lat="44.98385" lon="5.36914">
        <ele>1086</ele>
        <time>2019-06-15T07:48:39.000Z</time>
      </trkpt>
      <trkpt lat="44.98388" lon="5.36913">
        <ele>1086</ele>
        <time>2019-06-15T07:48:40.000Z</time>
      </trkpt>
      <trkpt lat="44.98391" lon="5.36911">
        <ele>1084</ele>
        <time>2019-06-15T07:48:41.000Z</time>
      </trkpt>
      <trkpt lat="44.98394" lon="5.36907">
        <ele>1087</ele>
        <time>2019-06-15T07:48:42.000Z</time>
      </trkpt>
      <trkpt lat="44.98396" lon="5.36903">
        <ele>1088</ele>
        <time>2019-06-15T07:48:43.000Z</time>
      </trkpt>
      <trkpt lat="44.98398" lon="5.369">
        <ele>1087</ele>
        <time>2019-06-15T07:48:44.000Z</time>
      </trkpt>
      <trkpt lat="44.984" lon="5.36899">
        <ele>1087</ele>
        <time>2019-06-15T07:48:45.000Z</time>
      </trkpt>
      <trkpt lat="44.98401" lon="5.36897">
        <ele>1087</ele>
        <time>2019-06-15T07:48:46.000Z</time>
      </trkpt>
      <trkpt lat="44.98403" lon="5.36896">
        <ele>1088</ele>
        <time>2019-06-15T07:48:47.000Z</time>
      </trkpt>
      <trkpt lat="44.98405" lon="5.36893">
        <ele>1089</ele>
        <time>2019-06-15T07:48:48.000Z</time>
      </trkpt>
      <trkpt lat="44.98408" lon="5.36891">
        <ele>1090</ele>
        <time>2019-06-15T07:48:49.000Z</time>
      </trkpt>
      <trkpt lat="44.98411" lon="5.36888">
        <ele>1091</ele>
        <time>2019-06-15T07:48:50.000Z</time>
      </trkpt>
      <trkpt lat="44.98414" lon="5.36887">
        <ele>1092</ele>
        <time>2019-06-15T07:48:51.000Z</time>
      </trkpt>
      <trkpt lat="44.98417" lon="5.36886">
        <ele>1093</ele>
        <time>2019-06-15T07:48:52.000Z</time>
      </trkpt>
      <trkpt lat="44.98421" lon="5.36885">
        <ele>1092</ele>
        <time>2019-06-15T07:48:53.000Z</time>
      </trkpt>
      <trkpt lat="44.98423" lon="5.36883">
        <ele>1091</ele>
        <time>2019-06-15T07:48:54.000Z</time>
      </trkpt>
      <trkpt lat="44.98426" lon="5.36881">
        <ele>1091</ele>
        <time>2019-06-15T07:48:55.000Z</time>
      </trkpt>
      <trkpt lat="44.98428" lon="5.36879">
        <ele>1091</ele>
        <time>2019-06-15T07:48:56.000Z</time>
      </trkpt>
      <trkpt lat="44.9843" lon="5.36877">
        <ele>1091</ele>
        <time>2019-06-15T07:48:57.000Z</time>
      </trkpt>
      <trkpt lat="44.98432" lon="5.36875">
        <ele>1091</ele>
        <time>2019-06-15T07:48:58.000Z</time>
      </trkpt>
      <trkpt lat="44.98435" lon="5.36873">
        <ele>1090</ele>
        <time>2019-06-15T07:48:59.000Z</time>
      </trkpt>
      <trkpt lat="44.98438" lon="5.36871">
        <ele>1090</ele>
        <time>2019-06-15T07:49:00.000Z</time>
      </trkpt>
      <trkpt lat="44.9844" lon="5.36869">
        <ele>1089</ele>
        <time>2019-06-15T07:49:01.000Z</time>
      </trkpt>
      <trkpt lat="44.98442" lon="5.36868">
        <ele>1089</ele>
        <time>2019-06-15T07:49:02.000Z</time>
      </trkpt>
      <trkpt lat="44.98444" lon="5.36866">
        <ele>1087</ele>
        <time>2019-06-15T07:49:03.000Z</time>
      </trkpt>
      <trkpt lat="44.98446" lon="5.36865">
        <ele>1086</ele>
        <time>2019-06-15T07:49:04.000Z</time>
      </trkpt>
      <trkpt lat="44.98449" lon="5.36863">
        <ele>1086</ele>
        <time>2019-06-15T07:49:05.000Z</time>
      </trkpt>
      <trkpt lat="44.98451" lon="5.3686">
        <ele>1085</ele>
        <time>2019-06-15T07:49:06.000Z</time>
      </trkpt>
      <trkpt lat="44.98453" lon="5.36858">
        <ele>1085</ele>
        <time>2019-06-15T07:49:07.000Z</time>
      </trkpt>
      <trkpt lat="44.98455" lon="5.36857">
        <ele>1084</ele>
        <time>2019-06-15T07:49:08.000Z</time>
      </trkpt>
      <trkpt lat="44.98458" lon="5.36856">
        <ele>1084</ele>
        <time>2019-06-15T07:49:09.000Z</time>
      </trkpt>
      <trkpt lat="44.98461" lon="5.36855">
        <ele>1083</ele>
        <time>2019-06-15T07:49:10.000Z</time>
      </trkpt>
      <trkpt lat="44.98463" lon="5.36854">
        <ele>1083</ele>
        <time>2019-06-15T07:49:11.000Z</time>
      </trkpt>
      <trkpt lat="44.98465" lon="5.36854">
        <ele>1084</ele>
        <time>2019-06-15T07:49:12.000Z</time>
      </trkpt>
      <trkpt lat="44.98467" lon="5.36854">
        <ele>1085</ele>
        <time>2019-06-15T07:49:13.000Z</time>
      </trkpt>
      <trkpt lat="44.98468" lon="5.36854">
        <ele>1086</ele>
        <time>2019-06-15T07:49:14.000Z</time>
      </trkpt>
      <trkpt lat="44.9847" lon="5.36854">
        <ele>1086</ele>
        <time>2019-06-15T07:49:15.000Z</time>
      </trkpt>
      <trkpt lat="44.98471" lon="5.36854">
        <ele>1087</ele>
        <time>2019-06-15T07:49:16.000Z</time>
      </trkpt>
      <trkpt lat="44.98472" lon="5.36854">
        <ele>1088</ele>
        <time>2019-06-15T07:49:17.000Z</time>
      </trkpt>
      <trkpt lat="44.98474" lon="5.36855">
        <ele>1089</ele>
        <time>2019-06-15T07:49:18.000Z</time>
      </trkpt>
      <trkpt lat="44.98475" lon="5.36856">
        <ele>1090</ele>
        <time>2019-06-15T07:49:19.000Z</time>
      </trkpt>
      <trkpt lat="44.98476" lon="5.36856">
        <ele>1091</ele>
        <time>2019-06-15T07:49:20.000Z</time>
      </trkpt>
      <trkpt lat="44.98477" lon="5.36857">
        <ele>1091</ele>
        <time>2019-06-15T07:49:21.000Z</time>
      </trkpt>
      <trkpt lat="44.98477" lon="5.36859">
        <ele>1092</ele>
        <time>2019-06-15T07:49:22.000Z</time>
      </trkpt>
      <trkpt lat="44.98478" lon="5.3686">
        <ele>1093</ele>
        <time>2019-06-15T07:49:23.000Z</time>
      </trkpt>
      <trkpt lat="44.98478" lon="5.36862">
        <ele>1093</ele>
        <time>2019-06-15T07:49:24.000Z</time>
      </trkpt>
      <trkpt lat="44.98479" lon="5.36864">
        <ele>1093</ele>
        <time>2019-06-15T07:49:25.000Z</time>
      </trkpt>
      <trkpt lat="44.98479" lon="5.36866">
        <ele>1094</ele>
        <time>2019-06-15T07:49:26.000Z</time>
      </trkpt>
      <trkpt lat="44.98479" lon="5.36869">
        <ele>1095</ele>
        <time>2019-06-15T07:49:27.000Z</time>
      </trkpt>
      <trkpt lat="44.9848" lon="5.36871">
        <ele>1096</ele>
        <time>2019-06-15T07:49:28.000Z</time>
      </trkpt>
      <trkpt lat="44.9848" lon="5.36873">
        <ele>1097</ele>
        <time>2019-06-15T07:49:29.000Z</time>
      </trkpt>
      <trkpt lat="44.9848" lon="5.36875">
        <ele>1095</ele>
        <time>2019-06-15T07:49:30.000Z</time>
      </trkpt>
      <trkpt lat="44.9848" lon="5.36877">
        <ele>1096</ele>
        <time>2019-06-15T07:49:31.000Z</time>
      </trkpt>
      <trkpt lat="44.98481" lon="5.36879">
        <ele>1096</ele>
        <time>2019-06-15T07:49:32.000Z</time>
      </trkpt>
      <trkpt lat="44.98481" lon="5.3688">
        <ele>1096</ele>
        <time>2019-06-15T07:49:33.000Z</time>
      </trkpt>
      <trkpt lat="44.98482" lon="5.36882">
        <ele>1097</ele>
        <time>2019-06-15T07:49:34.000Z</time>
      </trkpt>
      <trkpt lat="44.98482" lon="5.36883">
        <ele>1098</ele>
        <time>2019-06-15T07:49:35.000Z</time>
      </trkpt>
      <trkpt lat="44.98483" lon="5.36885">
        <ele>1099</ele>
        <time>2019-06-15T07:49:36.000Z</time>
      </trkpt>
      <trkpt lat="44.98483" lon="5.36886">
        <ele>1099</ele>
        <time>2019-06-15T07:49:37.000Z</time>
      </trkpt>
      <trkpt lat="44.98483" lon="5.36887">
        <ele>1101</ele>
        <time>2019-06-15T07:49:38.000Z</time>
      </trkpt>
      <trkpt lat="44.98483" lon="5.36889">
        <ele>1102</ele>
        <time>2019-06-15T07:49:39.000Z</time>
      </trkpt>
      <trkpt lat="44.98484" lon="5.36891">
        <ele>1104</ele>
        <time>2019-06-15T07:49:40.000Z</time>
      </trkpt>
      <trkpt lat="44.98484" lon="5.36893">
        <ele>1105</ele>
        <time>2019-06-15T07:49:41.000Z</time>
      </trkpt>
      <trkpt lat="44.98484" lon="5.36895">
        <ele>1105</ele>
        <time>2019-06-15T07:49:42.000Z</time>
      </trkpt>
      <trkpt lat="44.98484" lon="5.36897">
        <ele>1107</ele>
        <time>2019-06-15T07:49:43.000Z</time>
      </trkpt>
      <trkpt lat="44.98484" lon="5.36899">
        <ele>1108</ele>
        <time>2019-06-15T07:49:44.000Z</time>
      </trkpt>
      <trkpt lat="44.98485" lon="5.369">
        <ele>1110</ele>
        <time>2019-06-15T07:49:45.000Z</time>
      </trkpt>
      <trkpt lat="44.98486" lon="5.36901">
        <ele>1112</ele>
        <time>2019-06-15T07:49:46.000Z</time>
      </trkpt>
      <trkpt lat="44.98487" lon="5.36903">
        <ele>1112</ele>
        <time>2019-06-15T07:49:47.000Z</time>
      </trkpt>
      <trkpt lat="44.98489" lon="5.36906">
        <ele>1111</ele>
        <time>2019-06-15T07:49:48.000Z</time>
      </trkpt>
      <trkpt lat="44.9849" lon="5.36909">
        <ele>1112</ele>
        <time>2019-06-15T07:49:49.000Z</time>
      </trkpt>
      <trkpt lat="44.98491" lon="5.36911">
        <ele>1111</ele>
        <time>2019-06-15T07:49:50.000Z</time>
      </trkpt>
      <trkpt lat="44.98492" lon="5.36912">
        <ele>1112</ele>
        <time>2019-06-15T07:49:51.000Z</time>
      </trkpt>
      <trkpt lat="44.98493" lon="5.36914">
        <ele>1113</ele>
        <time>2019-06-15T07:49:52.000Z</time>
      </trkpt>
      <trkpt lat="44.98494" lon="5.36915">
        <ele>1114</ele>
        <time>2019-06-15T07:49:53.000Z</time>
      </trkpt>
      <trkpt lat="44.98495" lon="5.36916">
        <ele>1113</ele>
        <time>2019-06-15T07:49:54.000Z</time>
      </trkpt>
      <trkpt lat="44.98496" lon="5.36916">
        <ele>1114</ele>
        <time>2019-06-15T07:49:55.000Z</time>
      </trkpt>
      <trkpt lat="44.98497" lon="5.36917">
        <ele>1114</ele>
        <time>2019-06-15T07:49:56.000Z</time>
      </trkpt>
      <trkpt lat="44.98499" lon="5.36918">
        <ele>1115</ele>
        <time>2019-06-15T07:49:57.000Z</time>
      </trkpt>
      <trkpt lat="44.98501" lon="5.36919">
        <ele>1114</ele>
        <time>2019-06-15T07:49:58.000Z</time>
      </trkpt>
      <trkpt lat="44.98502" lon="5.36919">
        <ele>1114</ele>
        <time>2019-06-15T07:49:59.000Z</time>
      </trkpt>
      <trkpt lat="44.98504" lon="5.36919">
        <ele>1114</ele>
        <time>2019-06-15T07:50:00.000Z</time>
      </trkpt>
      <trkpt lat="44.98506" lon="5.3692">
        <ele>1112</ele>
        <time>2019-06-15T07:50:01.000Z</time>
      </trkpt>
      <trkpt lat="44.98508" lon="5.36921">
        <ele>1112</ele>
        <time>2019-06-15T07:50:02.000Z</time>
      </trkpt>
      <trkpt lat="44.9851" lon="5.36921">
        <ele>1112</ele>
        <time>2019-06-15T07:50:03.000Z</time>
      </trkpt>
      <trkpt lat="44.98512" lon="5.36922">
        <ele>1112</ele>
        <time>2019-06-15T07:50:04.000Z</time>
      </trkpt>
      <trkpt lat="44.98514" lon="5.36921">
        <ele>1111</ele>
        <time>2019-06-15T07:50:05.000Z</time>
      </trkpt>
      <trkpt lat="44.98516" lon="5.36921">
        <ele>1111</ele>
        <time>2019-06-15T07:50:06.000Z</time>
      </trkpt>
      <trkpt lat="44.98518" lon="5.36921">
        <ele>1112</ele>
        <time>2019-06-15T07:50:07.000Z</time>
      </trkpt>
      <trkpt lat="44.9852" lon="5.3692">
        <ele>1112</ele>
        <time>2019-06-15T07:50:08.000Z</time>
      </trkpt>
      <trkpt lat="44.98521" lon="5.3692">
        <ele>1112</ele>
        <time>2019-06-15T07:50:09.000Z</time>
      </trkpt>
      <trkpt lat="44.98523" lon="5.36919">
        <ele>1112</ele>
        <time>2019-06-15T07:50:10.000Z</time>
      </trkpt>
      <trkpt lat="44.98526" lon="5.36918">
        <ele>1111</ele>
        <time>2019-06-15T07:50:11.000Z</time>
      </trkpt>
      <trkpt lat="44.98528" lon="5.36918">
        <ele>1109</ele>
        <time>2019-06-15T07:50:12.000Z</time>
      </trkpt>
      <trkpt lat="44.98531" lon="5.36919">
        <ele>1110</ele>
        <time>2019-06-15T07:50:13.000Z</time>
      </trkpt>
      <trkpt lat="44.98533" lon="5.36918">
        <ele>1110</ele>
        <time>2019-06-15T07:50:14.000Z</time>
      </trkpt>
      <trkpt lat="44.98535" lon="5.36918">
        <ele>1110</ele>
        <time>2019-06-15T07:50:15.000Z</time>
      </trkpt>
      <trkpt lat="44.98536" lon="5.36917">
        <ele>1109</ele>
        <time>2019-06-15T07:50:16.000Z</time>
      </trkpt>
      <trkpt lat="44.98538" lon="5.36917">
        <ele>1109</ele>
        <time>2019-06-15T07:50:17.000Z</time>
      </trkpt>
      <trkpt lat="44.9854" lon="5.36916">
        <ele>1109</ele>
        <time>2019-06-15T07:50:18.000Z</time>
      </trkpt>
      <trkpt lat="44.98541" lon="5.36916">
        <ele>1108</ele>
        <time>2019-06-15T07:50:19.000Z</time>
      </trkpt>
      <trkpt lat="44.98544" lon="5.36915">
        <ele>1108</ele>
        <time>2019-06-15T07:50:20.000Z</time>
      </trkpt>
      <trkpt lat="44.98546" lon="5.36915">
        <ele>1107</ele>
        <time>2019-06-15T07:50:21.000Z</time>
      </trkpt>
      <trkpt lat="44.98549" lon="5.36914">
        <ele>1107</ele>
        <time>2019-06-15T07:50:22.000Z</time>
      </trkpt>
      <trkpt lat="44.98551" lon="5.36914">
        <ele>1106</ele>
        <time>2019-06-15T07:50:23.000Z</time>
      </trkpt>
      <trkpt lat="44.98553" lon="5.36914">
        <ele>1106</ele>
        <time>2019-06-15T07:50:24.000Z</time>
      </trkpt>
      <trkpt lat="44.98555" lon="5.36914">
        <ele>1107</ele>
        <time>2019-06-15T07:50:25.000Z</time>
      </trkpt>
      <trkpt lat="44.98557" lon="5.36915">
        <ele>1108</ele>
        <time>2019-06-15T07:50:26.000Z</time>
      </trkpt>
      <trkpt lat="44.98559" lon="5.36914">
        <ele>1108</ele>
        <time>2019-06-15T07:50:27.000Z</time>
      </trkpt>
      <trkpt lat="44.98562" lon="5.36914">
        <ele>1110</ele>
        <time>2019-06-15T07:50:28.000Z</time>
      </trkpt>
      <trkpt lat="44.98565" lon="5.36914">
        <ele>1109</ele>
        <time>2019-06-15T07:50:29.000Z</time>
      </trkpt>
      <trkpt lat="44.98568" lon="5.36913">
        <ele>1111</ele>
        <time>2019-06-15T07:50:30.000Z</time>
      </trkpt>
      <trkpt lat="44.98572" lon="5.36914">
        <ele>1112</ele>
        <time>2019-06-15T07:50:31.000Z</time>
      </trkpt>
      <trkpt lat="44.98576" lon="5.36914">
        <ele>1111</ele>
        <time>2019-06-15T07:50:32.000Z</time>
      </trkpt>
      <trkpt lat="44.98578" lon="5.36915">
        <ele>1112</ele>
        <time>2019-06-15T07:50:33.000Z</time>
      </trkpt>
      <trkpt lat="44.98581" lon="5.36915">
        <ele>1111</ele>
        <time>2019-06-15T07:50:34.000Z</time>
      </trkpt>
      <trkpt lat="44.98583" lon="5.36915">
        <ele>1111</ele>
        <time>2019-06-15T07:50:35.000Z</time>
      </trkpt>
      <trkpt lat="44.98586" lon="5.36915">
        <ele>1111</ele>
        <time>2019-06-15T07:50:36.000Z</time>
      </trkpt>
      <trkpt lat="44.98588" lon="5.36914">
        <ele>1112</ele>
        <time>2019-06-15T07:50:37.000Z</time>
      </trkpt>
      <trkpt lat="44.9859" lon="5.36913">
        <ele>1111</ele>
        <time>2019-06-15T07:50:38.000Z</time>
      </trkpt>
      <trkpt lat="44.98592" lon="5.36912">
        <ele>1111</ele>
        <time>2019-06-15T07:50:39.000Z</time>
      </trkpt>
      <trkpt lat="44.98594" lon="5.36912">
        <ele>1110</ele>
        <time>2019-06-15T07:50:40.000Z</time>
      </trkpt>
      <trkpt lat="44.98596" lon="5.36911">
        <ele>1109</ele>
        <time>2019-06-15T07:50:41.000Z</time>
      </trkpt>
      <trkpt lat="44.98599" lon="5.36912">
        <ele>1107</ele>
        <time>2019-06-15T07:50:42.000Z</time>
      </trkpt>
      <trkpt lat="44.98601" lon="5.36912">
        <ele>1107</ele>
        <time>2019-06-15T07:50:43.000Z</time>
      </trkpt>
      <trkpt lat="44.98604" lon="5.36912">
        <ele>1107</ele>
        <time>2019-06-15T07:50:44.000Z</time>
      </trkpt>
      <trkpt lat="44.98606" lon="5.36912">
        <ele>1106</ele>
        <time>2019-06-15T07:50:45.000Z</time>
      </trkpt>
      <trkpt lat="44.98609" lon="5.36912">
        <ele>1105</ele>
        <time>2019-06-15T07:50:46.000Z</time>
      </trkpt>
      <trkpt lat="44.98611" lon="5.36913">
        <ele>1105</ele>
        <time>2019-06-15T07:50:47.000Z</time>
      </trkpt>
      <trkpt lat="44.98613" lon="5.36913">
        <ele>1106</ele>
        <time>2019-06-15T07:50:48.000Z</time>
      </trkpt>
      <trkpt lat="44.98615" lon="5.36914">
        <ele>1107</ele>
        <time>2019-06-15T07:50:49.000Z</time>
      </trkpt>
      <trkpt lat="44.98617" lon="5.36914">
        <ele>1109</ele>
        <time>2019-06-15T07:50:50.000Z</time>
      </trkpt>
      <trkpt lat="44.98619" lon="5.36915">
        <ele>1110</ele>
        <time>2019-06-15T07:50:51.000Z</time>
      </trkpt>
      <trkpt lat="44.98621" lon="5.36915">
        <ele>1110</ele>
        <time>2019-06-15T07:50:52.000Z</time>
      </trkpt>
      <trkpt lat="44.98623" lon="5.36916">
        <ele>1111</ele>
        <time>2019-06-15T07:50:53.000Z</time>
      </trkpt>
      <trkpt lat="44.98626" lon="5.36917">
        <ele>1113</ele>
        <time>2019-06-15T07:50:54.000Z</time>
      </trkpt>
      <trkpt lat="44.98628" lon="5.36918">
        <ele>1111</ele>
        <time>2019-06-15T07:50:55.000Z</time>
      </trkpt>
      <trkpt lat="44.9863" lon="5.36919">
        <ele>1111</ele>
        <time>2019-06-15T07:50:56.000Z</time>
      </trkpt>
      <trkpt lat="44.98633" lon="5.36919">
        <ele>1111</ele>
        <time>2019-06-15T07:50:57.000Z</time>
      </trkpt>
      <trkpt lat="44.98635" lon="5.36919">
        <ele>1112</ele>
        <time>2019-06-15T07:50:58.000Z</time>
      </trkpt>
      <trkpt lat="44.98637" lon="5.36918">
        <ele>1112</ele>
        <time>2019-06-15T07:50:59.000Z</time>
      </trkpt>
      <trkpt lat="44.98639" lon="5.36918">
        <ele>1113</ele>
        <time>2019-06-15T07:51:00.000Z</time>
      </trkpt>
      <trkpt lat="44.98641" lon="5.36918">
        <ele>1113</ele>
        <time>2019-06-15T07:51:01.000Z</time>
      </trkpt>
      <trkpt lat="44.98643" lon="5.36918">
        <ele>1111</ele>
        <time>2019-06-15T07:51:02.000Z</time>
      </trkpt>
      <trkpt lat="44.98645" lon="5.36918">
        <ele>1111</ele>
        <time>2019-06-15T07:51:03.000Z</time>
      </trkpt>
      <trkpt lat="44.98647" lon="5.36918">
        <ele>1110</ele>
        <time>2019-06-15T07:51:04.000Z</time>
      </trkpt>
      <trkpt lat="44.98648" lon="5.36918">
        <ele>1111</ele>
        <time>2019-06-15T07:51:05.000Z</time>
      </trkpt>
      <trkpt lat="44.98649" lon="5.36919">
        <ele>1111</ele>
        <time>2019-06-15T07:51:06.000Z</time>
      </trkpt>
      <trkpt lat="44.98649" lon="5.36919">
        <ele>1111</ele>
        <time>2019-06-15T07:51:07.000Z</time>
      </trkpt>
      <trkpt lat="44.98649" lon="5.3692">
        <ele>1112</ele>
        <time>2019-06-15T07:51:08.000Z</time>
      </trkpt>
      <trkpt lat="44.98649" lon="5.3692">
        <ele>1113</ele>
        <time>2019-06-15T07:51:09.000Z</time>
      </trkpt>
      <trkpt lat="44.98649" lon="5.36921">
        <ele>1114</ele>
        <time>2019-06-15T07:51:10.000Z</time>
      </trkpt>
      <trkpt lat="44.98649" lon="5.36923">
        <ele>1114</ele>
        <time>2019-06-15T07:51:11.000Z</time>
      </trkpt>
      <trkpt lat="44.9865" lon="5.36925">
        <ele>1114</ele>
        <time>2019-06-15T07:51:12.000Z</time>
      </trkpt>
      <trkpt lat="44.9865" lon="5.36927">
        <ele>1115</ele>
        <time>2019-06-15T07:51:13.000Z</time>
      </trkpt>
      <trkpt lat="44.9865" lon="5.3693">
        <ele>1116</ele>
        <time>2019-06-15T07:51:14.000Z</time>
      </trkpt>
      <trkpt lat="44.98651" lon="5.36933">
        <ele>1116</ele>
        <time>2019-06-15T07:51:15.000Z</time>
      </trkpt>
      <trkpt lat="44.98651" lon="5.36935">
        <ele>1116</ele>
        <time>2019-06-15T07:51:16.000Z</time>
      </trkpt>
      <trkpt lat="44.98651" lon="5.36936">
        <ele>1118</ele>
        <time>2019-06-15T07:51:17.000Z</time>
      </trkpt>
      <trkpt lat="44.98651" lon="5.36937">
        <ele>1118</ele>
        <time>2019-06-15T07:51:18.000Z</time>
      </trkpt>
      <trkpt lat="44.98651" lon="5.36939">
        <ele>1118</ele>
        <time>2019-06-15T07:51:19.000Z</time>
      </trkpt>
      <trkpt lat="44.98651" lon="5.3694">
        <ele>1119</ele>
        <time>2019-06-15T07:51:20.000Z</time>
      </trkpt>
      <trkpt lat="44.9865" lon="5.36941">
        <ele>1122</ele>
        <time>2019-06-15T07:51:21.000Z</time>
      </trkpt>
      <trkpt lat="44.9865" lon="5.36942">
        <ele>1122</ele>
        <time>2019-06-15T07:51:22.000Z</time>
      </trkpt>
      <trkpt lat="44.98649" lon="5.36943">
        <ele>1123</ele>
        <time>2019-06-15T07:51:23.000Z</time>
      </trkpt>
      <trkpt lat="44.98649" lon="5.36943">
        <ele>1123</ele>
        <time>2019-06-15T07:51:24.000Z</time>
      </trkpt>
      <trkpt lat="44.98649" lon="5.36944">
        <ele>1124</ele>
        <time>2019-06-15T07:51:25.000Z</time>
      </trkpt>
      <trkpt lat="44.98649" lon="5.36945">
        <ele>1124</ele>
        <time>2019-06-15T07:51:26.000Z</time>
      </trkpt>
      <trkpt lat="44.9865" lon="5.36946">
        <ele>1125</ele>
        <time>2019-06-15T07:51:27.000Z</time>
      </trkpt>
      <trkpt lat="44.9865" lon="5.36948">
        <ele>1126</ele>
        <time>2019-06-15T07:51:28.000Z</time>
      </trkpt>
      <trkpt lat="44.9865" lon="5.3695">
        <ele>1126</ele>
        <time>2019-06-15T07:51:29.000Z</time>
      </trkpt>
      <trkpt lat="44.9865" lon="5.36951">
        <ele>1127</ele>
        <time>2019-06-15T07:51:30.000Z</time>
      </trkpt>
      <trkpt lat="44.98649" lon="5.36952">
        <ele>1127</ele>
        <time>2019-06-15T07:51:31.000Z</time>
      </trkpt>
      <trkpt lat="44.98649" lon="5.36953">
        <ele>1128</ele>
        <time>2019-06-15T07:51:32.000Z</time>
      </trkpt>
      <trkpt lat="44.98649" lon="5.36954">
        <ele>1127</ele>
        <time>2019-06-15T07:51:33.000Z</time>
      </trkpt>
      <trkpt lat="44.98649" lon="5.36956">
        <ele>1128</ele>
        <time>2019-06-15T07:51:34.000Z</time>
      </trkpt>
      <trkpt lat="44.98649" lon="5.36958">
        <ele>1128</ele>
        <time>2019-06-15T07:51:35.000Z</time>
      </trkpt>
      <trkpt lat="44.98649" lon="5.3696">
        <ele>1129</ele>
        <time>2019-06-15T07:51:36.000Z</time>
      </trkpt>
      <trkpt lat="44.98649" lon="5.36961">
        <ele>1129</ele>
        <time>2019-06-15T07:51:37.000Z</time>
      </trkpt>
      <trkpt lat="44.98648" lon="5.36962">
        <ele>1130</ele>
        <time>2019-06-15T07:51:38.000Z</time>
      </trkpt>
      <trkpt lat="44.98648" lon="5.36963">
        <ele>1130</ele>
        <time>2019-06-15T07:51:39.000Z</time>
      </trkpt>
      <trkpt lat="44.98648" lon="5.36964">
        <ele>1132</ele>
        <time>2019-06-15T07:51:40.000Z</time>
      </trkpt>
      <trkpt lat="44.98648" lon="5.36965">
        <ele>1131</ele>
        <time>2019-06-15T07:51:41.000Z</time>
      </trkpt>
      <trkpt lat="44.98649" lon="5.36967">
        <ele>1131</ele>
        <time>2019-06-15T07:51:42.000Z</time>
      </trkpt>
      <trkpt lat="44.98649" lon="5.36969">
        <ele>1131</ele>
        <time>2019-06-15T07:51:43.000Z</time>
      </trkpt>
      <trkpt lat="44.98649" lon="5.3697">
        <ele>1131</ele>
        <time>2019-06-15T07:51:44.000Z</time>
      </trkpt>
      <trkpt lat="44.98649" lon="5.36972">
        <ele>1132</ele>
        <time>2019-06-15T07:51:45.000Z</time>
      </trkpt>
      <trkpt lat="44.98649" lon="5.36973">
        <ele>1133</ele>
        <time>2019-06-15T07:51:46.000Z</time>
      </trkpt>
      <trkpt lat="44.98649" lon="5.36974">
        <ele>1133</ele>
        <time>2019-06-15T07:51:47.000Z</time>
      </trkpt>
      <trkpt lat="44.98649" lon="5.36976">
        <ele>1133</ele>
        <time>2019-06-15T07:51:48.000Z</time>
      </trkpt>
      <trkpt lat="44.98649" lon="5.36977">
        <ele>1134</ele>
        <time>2019-06-15T07:51:49.000Z</time>
      </trkpt>
      <trkpt lat="44.98649" lon="5.36978">
        <ele>1134</ele>
        <time>2019-06-15T07:51:50.000Z</time>
      </trkpt>
      <trkpt lat="44.98649" lon="5.36979">
        <ele>1134</ele>
        <time>2019-06-15T07:51:51.000Z</time>
      </trkpt>
      <trkpt lat="44.98649" lon="5.3698">
        <ele>1133</ele>
        <time>2019-06-15T07:51:52.000Z</time>
      </trkpt>
      <trkpt lat="44.98648" lon="5.36982">
        <ele>1133</ele>
        <time>2019-06-15T07:51:53.000Z</time>
      </trkpt>
      <trkpt lat="44.98648" lon="5.36983">
        <ele>1133</ele>
        <time>2019-06-15T07:51:54.000Z</time>
      </trkpt>
      <trkpt lat="44.98648" lon="5.36984">
        <ele>1133</ele>
        <time>2019-06-15T07:51:55.000Z</time>
      </trkpt>
      <trkpt lat="44.98647" lon="5.36986">
        <ele>1132</ele>
        <time>2019-06-15T07:51:56.000Z</time>
      </trkpt>
      <trkpt lat="44.98646" lon="5.36987">
        <ele>1132</ele>
        <time>2019-06-15T07:51:57.000Z</time>
      </trkpt>
      <trkpt lat="44.98645" lon="5.36989">
        <ele>1132</ele>
        <time>2019-06-15T07:51:58.000Z</time>
      </trkpt>
      <trkpt lat="44.98645" lon="5.3699">
        <ele>1132</ele>
        <time>2019-06-15T07:51:59.000Z</time>
      </trkpt>
      <trkpt lat="44.98644" lon="5.36992">
        <ele>1132</ele>
        <time>2019-06-15T07:52:00.000Z</time>
      </trkpt>
      <trkpt lat="44.98643" lon="5.36993">
        <ele>1132</ele>
        <time>2019-06-15T07:52:01.000Z</time>
      </trkpt>
      <trkpt lat="44.98643" lon="5.36994">
        <ele>1132</ele>
        <time>2019-06-15T07:52:02.000Z</time>
      </trkpt>
      <trkpt lat="44.98642" lon="5.36994">
        <ele>1132</ele>
        <time>2019-06-15T07:52:03.000Z</time>
      </trkpt>
      <trkpt lat="44.98641" lon="5.36995">
        <ele>1132</ele>
        <time>2019-06-15T07:52:04.000Z</time>
      </trkpt>
      <trkpt lat="44.9864" lon="5.36996">
        <ele>1132</ele>
        <time>2019-06-15T07:52:05.000Z</time>
      </trkpt>
      <trkpt lat="44.98639" lon="5.36997">
        <ele>1133</ele>
        <time>2019-06-15T07:52:06.000Z</time>
      </trkpt>
      <trkpt lat="44.98639" lon="5.36998">
        <ele>1133</ele>
        <time>2019-06-15T07:52:07.000Z</time>
      </trkpt>
      <trkpt lat="44.98637" lon="5.36999">
        <ele>1132</ele>
        <time>2019-06-15T07:52:08.000Z</time>
      </trkpt>
      <trkpt lat="44.98636" lon="5.37">
        <ele>1133</ele>
        <time>2019-06-15T07:52:09.000Z</time>
      </trkpt>
      <trkpt lat="44.98636" lon="5.37001">
        <ele>1133</ele>
        <time>2019-06-15T07:52:10.000Z</time>
      </trkpt>
      <trkpt lat="44.98635" lon="5.37002">
        <ele>1133</ele>
        <time>2019-06-15T07:52:11.000Z</time>
      </trkpt>
      <trkpt lat="44.98635" lon="5.37003">
        <ele>1134</ele>
        <time>2019-06-15T07:52:12.000Z</time>
      </trkpt>
      <trkpt lat="44.98634" lon="5.37004">
        <ele>1134</ele>
        <time>2019-06-15T07:52:13.000Z</time>
      </trkpt>
      <trkpt lat="44.98633" lon="5.37006">
        <ele>1137</ele>
        <time>2019-06-15T07:52:14.000Z</time>
      </trkpt>
      <trkpt lat="44.98632" lon="5.37007">
        <ele>1137</ele>
        <time>2019-06-15T07:52:15.000Z</time>
      </trkpt>
      <trkpt lat="44.98632" lon="5.37008">
        <ele>1136</ele>
        <time>2019-06-15T07:52:16.000Z</time>
      </trkpt>
      <trkpt lat="44.98631" lon="5.3701">
        <ele>1137</ele>
        <time>2019-06-15T07:52:17.000Z</time>
      </trkpt>
      <trkpt lat="44.98631" lon="5.37011">
        <ele>1138</ele>
        <time>2019-06-15T07:52:18.000Z</time>
      </trkpt>
      <trkpt lat="44.9863" lon="5.37012">
        <ele>1139</ele>
        <time>2019-06-15T07:52:19.000Z</time>
      </trkpt>
      <trkpt lat="44.98629" lon="5.37013">
        <ele>1140</ele>
        <time>2019-06-15T07:52:20.000Z</time>
      </trkpt>
      <trkpt lat="44.98629" lon="5.37014">
        <ele>1140</ele>
        <time>2019-06-15T07:52:21.000Z</time>
      </trkpt>
      <trkpt lat="44.98628" lon="5.37015">
        <ele>1141</ele>
        <time>2019-06-15T07:52:22.000Z</time>
      </trkpt>
      <trkpt lat="44.98628" lon="5.37016">
        <ele>1142</ele>
        <time>2019-06-15T07:52:23.000Z</time>
      </trkpt>
      <trkpt lat="44.98627" lon="5.37017">
        <ele>1144</ele>
        <time>2019-06-15T07:52:24.000Z</time>
      </trkpt>
      <trkpt lat="44.98626" lon="5.37017">
        <ele>1146</ele>
        <time>2019-06-15T07:52:25.000Z</time>
      </trkpt>
      <trkpt lat="44.98626" lon="5.37017">
        <ele>1147</ele>
        <time>2019-06-15T07:52:26.000Z</time>
      </trkpt>
      <trkpt lat="44.98625" lon="5.37018">
        <ele>1147</ele>
        <time>2019-06-15T07:52:27.000Z</time>
      </trkpt>
      <trkpt lat="44.98624" lon="5.37019">
        <ele>1148</ele>
        <time>2019-06-15T07:52:28.000Z</time>
      </trkpt>
      <trkpt lat="44.98624" lon="5.3702">
        <ele>1149</ele>
        <time>2019-06-15T07:52:29.000Z</time>
      </trkpt>
      <trkpt lat="44.98623" lon="5.37022">
        <ele>1148</ele>
        <time>2019-06-15T07:52:30.000Z</time>
      </trkpt>
      <trkpt lat="44.98622" lon="5.37023">
        <ele>1149</ele>
        <time>2019-06-15T07:52:31.000Z</time>
      </trkpt>
      <trkpt lat="44.98622" lon="5.37025">
        <ele>1149</ele>
        <time>2019-06-15T07:52:32.000Z</time>
      </trkpt>
      <trkpt lat="44.98621" lon="5.37026">
        <ele>1150</ele>
        <time>2019-06-15T07:52:33.000Z</time>
      </trkpt>
      <trkpt lat="44.9862" lon="5.37026">
        <ele>1150</ele>
        <time>2019-06-15T07:52:34.000Z</time>
      </trkpt>
      <trkpt lat="44.98619" lon="5.37027">
        <ele>1150</ele>
        <time>2019-06-15T07:52:35.000Z</time>
      </trkpt>
      <trkpt lat="44.98618" lon="5.37028">
        <ele>1151</ele>
        <time>2019-06-15T07:52:36.000Z</time>
      </trkpt>
      <trkpt lat="44.98617" lon="5.37028">
        <ele>1152</ele>
        <time>2019-06-15T07:52:37.000Z</time>
      </trkpt>
      <trkpt lat="44.98616" lon="5.37029">
        <ele>1152</ele>
        <time>2019-06-15T07:52:38.000Z</time>
      </trkpt>
      <trkpt lat="44.98615" lon="5.3703">
        <ele>1152</ele>
        <time>2019-06-15T07:52:39.000Z</time>
      </trkpt>
      <trkpt lat="44.98614" lon="5.37032">
        <ele>1150</ele>
        <time>2019-06-15T07:52:40.000Z</time>
      </trkpt>
      <trkpt lat="44.98613" lon="5.37035">
        <ele>1150</ele>
        <time>2019-06-15T07:52:41.000Z</time>
      </trkpt>
      <trkpt lat="44.98611" lon="5.37037">
        <ele>1150</ele>
        <time>2019-06-15T07:52:42.000Z</time>
      </trkpt>
      <trkpt lat="44.9861" lon="5.37039">
        <ele>1149</ele>
        <time>2019-06-15T07:52:43.000Z</time>
      </trkpt>
      <trkpt lat="44.98609" lon="5.37041">
        <ele>1148</ele>
        <time>2019-06-15T07:52:44.000Z</time>
      </trkpt>
      <trkpt lat="44.98609" lon="5.37043">
        <ele>1148</ele>
        <time>2019-06-15T07:52:45.000Z</time>
      </trkpt>
      <trkpt lat="44.98608" lon="5.37044">
        <ele>1148</ele>
        <time>2019-06-15T07:52:46.000Z</time>
      </trkpt>
      <trkpt lat="44.98607" lon="5.37045">
        <ele>1149</ele>
        <time>2019-06-15T07:52:47.000Z</time>
      </trkpt>
      <trkpt lat="44.98607" lon="5.37046">
        <ele>1149</ele>
        <time>2019-06-15T07:52:48.000Z</time>
      </trkpt>
      <trkpt lat="44.98606" lon="5.37047">
        <ele>1149</ele>
        <time>2019-06-15T07:52:49.000Z</time>
      </trkpt>
      <trkpt lat="44.98606" lon="5.37048">
        <ele>1149</ele>
        <time>2019-06-15T07:52:50.000Z</time>
      </trkpt>
      <trkpt lat="44.98605" lon="5.37049">
        <ele>1150</ele>
        <time>2019-06-15T07:52:51.000Z</time>
      </trkpt>
      <trkpt lat="44.98604" lon="5.3705">
        <ele>1150</ele>
        <time>2019-06-15T07:52:52.000Z</time>
      </trkpt>
      <trkpt lat="44.98603" lon="5.3705">
        <ele>1151</ele>
        <time>2019-06-15T07:52:53.000Z</time>
      </trkpt>
      <trkpt lat="44.98602" lon="5.3705">
        <ele>1151</ele>
        <time>2019-06-15T07:52:54.000Z</time>
      </trkpt>
      <trkpt lat="44.98602" lon="5.37051">
        <ele>1150</ele>
        <time>2019-06-15T07:52:55.000Z</time>
      </trkpt>
      <trkpt lat="44.98601" lon="5.37052">
        <ele>1150</ele>
        <time>2019-06-15T07:52:56.000Z</time>
      </trkpt>
      <trkpt lat="44.98601" lon="5.37054">
        <ele>1150</ele>
        <time>2019-06-15T07:52:57.000Z</time>
      </trkpt>
      <trkpt lat="44.986" lon="5.37056">
        <ele>1150</ele>
        <time>2019-06-15T07:52:58.000Z</time>
      </trkpt>
      <trkpt lat="44.98599" lon="5.37057">
        <ele>1149</ele>
        <time>2019-06-15T07:52:59.000Z</time>
      </trkpt>
      <trkpt lat="44.98599" lon="5.37058">
        <ele>1149</ele>
        <time>2019-06-15T07:53:00.000Z</time>
      </trkpt>
      <trkpt lat="44.98598" lon="5.3706">
        <ele>1149</ele>
        <time>2019-06-15T07:53:01.000Z</time>
      </trkpt>
      <trkpt lat="44.98597" lon="5.37061">
        <ele>1149</ele>
        <time>2019-06-15T07:53:02.000Z</time>
      </trkpt>
      <trkpt lat="44.98596" lon="5.37062">
        <ele>1149</ele>
        <time>2019-06-15T07:53:03.000Z</time>
      </trkpt>
      <trkpt lat="44.98596" lon="5.37064">
        <ele>1149</ele>
        <time>2019-06-15T07:53:04.000Z</time>
      </trkpt>
      <trkpt lat="44.98595" lon="5.37065">
        <ele>1149</ele>
        <time>2019-06-15T07:53:05.000Z</time>
      </trkpt>
      <trkpt lat="44.98594" lon="5.37066">
        <ele>1149</ele>
        <time>2019-06-15T07:53:06.000Z</time>
      </trkpt>
      <trkpt lat="44.98593" lon="5.37068">
        <ele>1149</ele>
        <time>2019-06-15T07:53:07.000Z</time>
      </trkpt>
      <trkpt lat="44.98593" lon="5.37069">
        <ele>1149</ele>
        <time>2019-06-15T07:53:08.000Z</time>
      </trkpt>
      <trkpt lat="44.98592" lon="5.3707">
        <ele>1149</ele>
        <time>2019-06-15T07:53:09.000Z</time>
      </trkpt>
      <trkpt lat="44.98592" lon="5.37072">
        <ele>1149</ele>
        <time>2019-06-15T07:53:10.000Z</time>
      </trkpt>
      <trkpt lat="44.98592" lon="5.37072">
        <ele>1150</ele>
        <time>2019-06-15T07:53:11.000Z</time>
      </trkpt>
      <trkpt lat="44.98592" lon="5.37073">
        <ele>1150</ele>
        <time>2019-06-15T07:53:12.000Z</time>
      </trkpt>
      <trkpt lat="44.98591" lon="5.37074">
        <ele>1151</ele>
        <time>2019-06-15T07:53:13.000Z</time>
      </trkpt>
      <trkpt lat="44.98591" lon="5.37075">
        <ele>1153</ele>
        <time>2019-06-15T07:53:14.000Z</time>
      </trkpt>
      <trkpt lat="44.98591" lon="5.37075">
        <ele>1154</ele>
        <time>2019-06-15T07:53:15.000Z</time>
      </trkpt>
      <trkpt lat="44.98591" lon="5.37076">
        <ele>1154</ele>
        <time>2019-06-15T07:53:16.000Z</time>
      </trkpt>
      <trkpt lat="44.98592" lon="5.37077">
        <ele>1154</ele>
        <time>2019-06-15T07:53:17.000Z</time>
      </trkpt>
      <trkpt lat="44.98593" lon="5.37078">
        <ele>1155</ele>
        <time>2019-06-15T07:53:18.000Z</time>
      </trkpt>
      <trkpt lat="44.98594" lon="5.37078">
        <ele>1157</ele>
        <time>2019-06-15T07:53:19.000Z</time>
      </trkpt>
      <trkpt lat="44.98594" lon="5.37078">
        <ele>1159</ele>
        <time>2019-06-15T07:53:20.000Z</time>
      </trkpt>
      <trkpt lat="44.98595" lon="5.37078">
        <ele>1159</ele>
        <time>2019-06-15T07:53:21.000Z</time>
      </trkpt>
      <trkpt lat="44.98595" lon="5.37079">
        <ele>1160</ele>
        <time>2019-06-15T07:53:22.000Z</time>
      </trkpt>
      <trkpt lat="44.98596" lon="5.3708">
        <ele>1161</ele>
        <time>2019-06-15T07:53:23.000Z</time>
      </trkpt>
      <trkpt lat="44.98597" lon="5.37081">
        <ele>1162</ele>
        <time>2019-06-15T07:53:24.000Z</time>
      </trkpt>
      <trkpt lat="44.98598" lon="5.37082">
        <ele>1163</ele>
        <time>2019-06-15T07:53:25.000Z</time>
      </trkpt>
      <trkpt lat="44.98599" lon="5.37083">
        <ele>1163</ele>
        <time>2019-06-15T07:53:26.000Z</time>
      </trkpt>
      <trkpt lat="44.986" lon="5.37084">
        <ele>1164</ele>
        <time>2019-06-15T07:53:27.000Z</time>
      </trkpt>
      <trkpt lat="44.98601" lon="5.37085">
        <ele>1165</ele>
        <time>2019-06-15T07:53:28.000Z</time>
      </trkpt>
      <trkpt lat="44.98602" lon="5.37086">
        <ele>1164</ele>
        <time>2019-06-15T07:53:29.000Z</time>
      </trkpt>
      <trkpt lat="44.98604" lon="5.37087">
        <ele>1164</ele>
        <time>2019-06-15T07:53:30.000Z</time>
      </trkpt>
      <trkpt lat="44.98605" lon="5.37088">
        <ele>1165</ele>
        <time>2019-06-15T07:53:31.000Z</time>
      </trkpt>
      <trkpt lat="44.98606" lon="5.37089">
        <ele>1164</ele>
        <time>2019-06-15T07:53:32.000Z</time>
      </trkpt>
      <trkpt lat="44.98606" lon="5.3709">
        <ele>1165</ele>
        <time>2019-06-15T07:53:33.000Z</time>
      </trkpt>
      <trkpt lat="44.98607" lon="5.37092">
        <ele>1163</ele>
        <time>2019-06-15T07:53:34.000Z</time>
      </trkpt>
      <trkpt lat="44.98608" lon="5.37092">
        <ele>1164</ele>
        <time>2019-06-15T07:53:35.000Z</time>
      </trkpt>
      <trkpt lat="44.98609" lon="5.37093">
        <ele>1164</ele>
        <time>2019-06-15T07:53:36.000Z</time>
      </trkpt>
      <trkpt lat="44.98609" lon="5.37094">
        <ele>1165</ele>
        <time>2019-06-15T07:53:37.000Z</time>
      </trkpt>
      <trkpt lat="44.9861" lon="5.37094">
        <ele>1166</ele>
        <time>2019-06-15T07:53:38.000Z</time>
      </trkpt>
      <trkpt lat="44.98611" lon="5.37094">
        <ele>1167</ele>
        <time>2019-06-15T07:53:39.000Z</time>
      </trkpt>
      <trkpt lat="44.98612" lon="5.37095">
        <ele>1167</ele>
        <time>2019-06-15T07:53:40.000Z</time>
      </trkpt>
      <trkpt lat="44.98613" lon="5.37096">
        <ele>1168</ele>
        <time>2019-06-15T07:53:41.000Z</time>
      </trkpt>
      <trkpt lat="44.98614" lon="5.37097">
        <ele>1168</ele>
        <time>2019-06-15T07:53:42.000Z</time>
      </trkpt>
      <trkpt lat="44.98616" lon="5.37098">
        <ele>1169</ele>
        <time>2019-06-15T07:53:43.000Z</time>
      </trkpt>
      <trkpt lat="44.98617" lon="5.37099">
        <ele>1169</ele>
        <time>2019-06-15T07:53:44.000Z</time>
      </trkpt>
      <trkpt lat="44.98618" lon="5.371">
        <ele>1169</ele>
        <time>2019-06-15T07:53:45.000Z</time>
      </trkpt>
      <trkpt lat="44.98619" lon="5.371">
        <ele>1170</ele>
        <time>2019-06-15T07:53:46.000Z</time>
      </trkpt>
      <trkpt lat="44.9862" lon="5.37101">
        <ele>1171</ele>
        <time>2019-06-15T07:53:47.000Z</time>
      </trkpt>
      <trkpt lat="44.98621" lon="5.37101">
        <ele>1171</ele>
        <time>2019-06-15T07:53:48.000Z</time>
      </trkpt>
      <trkpt lat="44.98622" lon="5.37102">
        <ele>1171</ele>
        <time>2019-06-15T07:53:49.000Z</time>
      </trkpt>
      <trkpt lat="44.98623" lon="5.37104">
        <ele>1172</ele>
        <time>2019-06-15T07:53:50.000Z</time>
      </trkpt>
      <trkpt lat="44.98624" lon="5.37104">
        <ele>1173</ele>
        <time>2019-06-15T07:53:51.000Z</time>
      </trkpt>
      <trkpt lat="44.98625" lon="5.37105">
        <ele>1174</ele>
        <time>2019-06-15T07:53:52.000Z</time>
      </trkpt>
      <trkpt lat="44.98626" lon="5.37106">
        <ele>1175</ele>
        <time>2019-06-15T07:53:53.000Z</time>
      </trkpt>
      <trkpt lat="44.98627" lon="5.37107">
        <ele>1176</ele>
        <time>2019-06-15T07:53:54.000Z</time>
      </trkpt>
      <trkpt lat="44.98628" lon="5.37108">
        <ele>1176</ele>
        <time>2019-06-15T07:53:55.000Z</time>
      </trkpt>
      <trkpt lat="44.98629" lon="5.37109">
        <ele>1177</ele>
        <time>2019-06-15T07:53:56.000Z</time>
      </trkpt>
      <trkpt lat="44.9863" lon="5.3711">
        <ele>1177</ele>
        <time>2019-06-15T07:53:57.000Z</time>
      </trkpt>
      <trkpt lat="44.98631" lon="5.37111">
        <ele>1178</ele>
        <time>2019-06-15T07:53:58.000Z</time>
      </trkpt>
      <trkpt lat="44.98632" lon="5.37111">
        <ele>1178</ele>
        <time>2019-06-15T07:53:59.000Z</time>
      </trkpt>
      <trkpt lat="44.98633" lon="5.37112">
        <ele>1178</ele>
        <time>2019-06-15T07:54:00.000Z</time>
      </trkpt>
      <trkpt lat="44.98634" lon="5.37113">
        <ele>1178</ele>
        <time>2019-06-15T07:54:01.000Z</time>
      </trkpt>
      <trkpt lat="44.98635" lon="5.37114">
        <ele>1179</ele>
        <time>2019-06-15T07:54:02.000Z</time>
      </trkpt>
      <trkpt lat="44.98635" lon="5.37114">
        <ele>1179</ele>
        <time>2019-06-15T07:54:03.000Z</time>
      </trkpt>
      <trkpt lat="44.98636" lon="5.37115">
        <ele>1179</ele>
        <time>2019-06-15T07:54:04.000Z</time>
      </trkpt>
      <trkpt lat="44.98637" lon="5.37115">
        <ele>1179</ele>
        <time>2019-06-15T07:54:05.000Z</time>
      </trkpt>
      <trkpt lat="44.98638" lon="5.37116">
        <ele>1180</ele>
        <time>2019-06-15T07:54:06.000Z</time>
      </trkpt>
      <trkpt lat="44.98639" lon="5.37116">
        <ele>1179</ele>
        <time>2019-06-15T07:54:07.000Z</time>
      </trkpt>
      <trkpt lat="44.98639" lon="5.37116">
        <ele>1179</ele>
        <time>2019-06-15T07:54:08.000Z</time>
      </trkpt>
      <trkpt lat="44.9864" lon="5.37116">
        <ele>1178</ele>
        <time>2019-06-15T07:54:09.000Z</time>
      </trkpt>
      <trkpt lat="44.98641" lon="5.37117">
        <ele>1178</ele>
        <time>2019-06-15T07:54:10.000Z</time>
      </trkpt>
      <trkpt lat="44.98642" lon="5.37117">
        <ele>1178</ele>
        <time>2019-06-15T07:54:11.000Z</time>
      </trkpt>
      <trkpt lat="44.98643" lon="5.37117">
        <ele>1178</ele>
        <time>2019-06-15T07:54:12.000Z</time>
      </trkpt>
      <trkpt lat="44.98644" lon="5.37118">
        <ele>1178</ele>
        <time>2019-06-15T07:54:13.000Z</time>
      </trkpt>
      <trkpt lat="44.98644" lon="5.37118">
        <ele>1179</ele>
        <time>2019-06-15T07:54:14.000Z</time>
      </trkpt>
      <trkpt lat="44.98645" lon="5.37118">
        <ele>1179</ele>
        <time>2019-06-15T07:54:15.000Z</time>
      </trkpt>
      <trkpt lat="44.98646" lon="5.37118">
        <ele>1179</ele>
        <time>2019-06-15T07:54:16.000Z</time>
      </trkpt>
      <trkpt lat="44.98646" lon="5.37119">
        <ele>1180</ele>
        <time>2019-06-15T07:54:17.000Z</time>
      </trkpt>
      <trkpt lat="44.98647" lon="5.37119">
        <ele>1181</ele>
        <time>2019-06-15T07:54:18.000Z</time>
      </trkpt>
      <trkpt lat="44.98648" lon="5.3712">
        <ele>1182</ele>
        <time>2019-06-15T07:54:19.000Z</time>
      </trkpt>
      <trkpt lat="44.98649" lon="5.37121">
        <ele>1182</ele>
        <time>2019-06-15T07:54:20.000Z</time>
      </trkpt>
      <trkpt lat="44.9865" lon="5.37121">
        <ele>1183</ele>
        <time>2019-06-15T07:54:21.000Z</time>
      </trkpt>
      <trkpt lat="44.98651" lon="5.37122">
        <ele>1184</ele>
        <time>2019-06-15T07:54:22.000Z</time>
      </trkpt>
      <trkpt lat="44.98652" lon="5.37123">
        <ele>1184</ele>
        <time>2019-06-15T07:54:23.000Z</time>
      </trkpt>
      <trkpt lat="44.98653" lon="5.37124">
        <ele>1184</ele>
        <time>2019-06-15T07:54:24.000Z</time>
      </trkpt>
      <trkpt lat="44.98654" lon="5.37125">
        <ele>1184</ele>
        <time>2019-06-15T07:54:25.000Z</time>
      </trkpt>
      <trkpt lat="44.98655" lon="5.37125">
        <ele>1184</ele>
        <time>2019-06-15T07:54:26.000Z</time>
      </trkpt>
      <trkpt lat="44.98656" lon="5.37126">
        <ele>1184</ele>
        <time>2019-06-15T07:54:27.000Z</time>
      </trkpt>
      <trkpt lat="44.98657" lon="5.37127">
        <ele>1185</ele>
        <time>2019-06-15T07:54:28.000Z</time>
      </trkpt>
      <trkpt lat="44.98658" lon="5.37128">
        <ele>1185</ele>
        <time>2019-06-15T07:54:29.000Z</time>
      </trkpt>
      <trkpt lat="44.98659" lon="5.37129">
        <ele>1185</ele>
        <time>2019-06-15T07:54:30.000Z</time>
      </trkpt>
      <trkpt lat="44.98659" lon="5.37129">
        <ele>1186</ele>
        <time>2019-06-15T07:54:31.000Z</time>
      </trkpt>
      <trkpt lat="44.98661" lon="5.3713">
        <ele>1186</ele>
        <time>2019-06-15T07:54:32.000Z</time>
      </trkpt>
      <trkpt lat="44.98662" lon="5.37131">
        <ele>1187</ele>
        <time>2019-06-15T07:54:33.000Z</time>
      </trkpt>
      <trkpt lat="44.98663" lon="5.37131">
        <ele>1187</ele>
        <time>2019-06-15T07:54:34.000Z</time>
      </trkpt>
      <trkpt lat="44.98663" lon="5.37131">
        <ele>1187</ele>
        <time>2019-06-15T07:54:35.000Z</time>
      </trkpt>
      <trkpt lat="44.98664" lon="5.37132">
        <ele>1187</ele>
        <time>2019-06-15T07:54:36.000Z</time>
      </trkpt>
      <trkpt lat="44.98665" lon="5.37133">
        <ele>1188</ele>
        <time>2019-06-15T07:54:37.000Z</time>
      </trkpt>
      <trkpt lat="44.98665" lon="5.37134">
        <ele>1187</ele>
        <time>2019-06-15T07:54:38.000Z</time>
      </trkpt>
      <trkpt lat="44.98666" lon="5.37134">
        <ele>1187</ele>
        <time>2019-06-15T07:54:39.000Z</time>
      </trkpt>
      <trkpt lat="44.98667" lon="5.37136">
        <ele>1187</ele>
        <time>2019-06-15T07:54:40.000Z</time>
      </trkpt>
      <trkpt lat="44.98668" lon="5.37137">
        <ele>1188</ele>
        <time>2019-06-15T07:54:41.000Z</time>
      </trkpt>
      <trkpt lat="44.98669" lon="5.37139">
        <ele>1187</ele>
        <time>2019-06-15T07:54:42.000Z</time>
      </trkpt>
      <trkpt lat="44.9867" lon="5.3714">
        <ele>1188</ele>
        <time>2019-06-15T07:54:43.000Z</time>
      </trkpt>
      <trkpt lat="44.98671" lon="5.37141">
        <ele>1188</ele>
        <time>2019-06-15T07:54:44.000Z</time>
      </trkpt>
      <trkpt lat="44.98672" lon="5.37142">
        <ele>1188</ele>
        <time>2019-06-15T07:54:45.000Z</time>
      </trkpt>
      <trkpt lat="44.98674" lon="5.37144">
        <ele>1189</ele>
        <time>2019-06-15T07:54:46.000Z</time>
      </trkpt>
      <trkpt lat="44.98675" lon="5.37144">
        <ele>1190</ele>
        <time>2019-06-15T07:54:47.000Z</time>
      </trkpt>
      <trkpt lat="44.98676" lon="5.37145">
        <ele>1190</ele>
        <time>2019-06-15T07:54:48.000Z</time>
      </trkpt>
      <trkpt lat="44.98677" lon="5.37145">
        <ele>1190</ele>
        <time>2019-06-15T07:54:49.000Z</time>
      </trkpt>
      <trkpt lat="44.98678" lon="5.37146">
        <ele>1191</ele>
        <time>2019-06-15T07:54:50.000Z</time>
      </trkpt>
      <trkpt lat="44.98679" lon="5.37147">
        <ele>1190</ele>
        <time>2019-06-15T07:54:51.000Z</time>
      </trkpt>
      <trkpt lat="44.98679" lon="5.37148">
        <ele>1190</ele>
        <time>2019-06-15T07:54:52.000Z</time>
      </trkpt>
      <trkpt lat="44.9868" lon="5.37149">
        <ele>1191</ele>
        <time>2019-06-15T07:54:53.000Z</time>
      </trkpt>
      <trkpt lat="44.9868" lon="5.3715">
        <ele>1191</ele>
        <time>2019-06-15T07:54:54.000Z</time>
      </trkpt>
      <trkpt lat="44.98681" lon="5.37151">
        <ele>1191</ele>
        <time>2019-06-15T07:54:55.000Z</time>
      </trkpt>
      <trkpt lat="44.98681" lon="5.37153">
        <ele>1191</ele>
        <time>2019-06-15T07:54:56.000Z</time>
      </trkpt>
      <trkpt lat="44.98681" lon="5.37155">
        <ele>1190</ele>
        <time>2019-06-15T07:54:57.000Z</time>
      </trkpt>
      <trkpt lat="44.98681" lon="5.37157">
        <ele>1190</ele>
        <time>2019-06-15T07:54:58.000Z</time>
      </trkpt>
      <trkpt lat="44.9868" lon="5.37159">
        <ele>1188</ele>
        <time>2019-06-15T07:54:59.000Z</time>
      </trkpt>
      <trkpt lat="44.98679" lon="5.37162">
        <ele>1187</ele>
        <time>2019-06-15T07:55:00.000Z</time>
      </trkpt>
      <trkpt lat="44.98679" lon="5.37164">
        <ele>1187</ele>
        <time>2019-06-15T07:55:01.000Z</time>
      </trkpt>
      <trkpt lat="44.98678" lon="5.37166">
        <ele>1186</ele>
        <time>2019-06-15T07:55:02.000Z</time>
      </trkpt>
      <trkpt lat="44.98677" lon="5.37167">
        <ele>1187</ele>
        <time>2019-06-15T07:55:03.000Z</time>
      </trkpt>
      <trkpt lat="44.98676" lon="5.37168">
        <ele>1186</ele>
        <time>2019-06-15T07:55:04.000Z</time>
      </trkpt>
      <trkpt lat="44.98675" lon="5.37169">
        <ele>1186</ele>
        <time>2019-06-15T07:55:05.000Z</time>
      </trkpt>
      <trkpt lat="44.98675" lon="5.37171">
        <ele>1185</ele>
        <time>2019-06-15T07:55:06.000Z</time>
      </trkpt>
      <trkpt lat="44.98674" lon="5.37172">
        <ele>1185</ele>
        <time>2019-06-15T07:55:07.000Z</time>
      </trkpt>
      <trkpt lat="44.98673" lon="5.37174">
        <ele>1185</ele>
        <time>2019-06-15T07:55:08.000Z</time>
      </trkpt>
      <trkpt lat="44.98673" lon="5.37175">
        <ele>1185</ele>
        <time>2019-06-15T07:55:09.000Z</time>
      </trkpt>
      <trkpt lat="44.98672" lon="5.37176">
        <ele>1185</ele>
        <time>2019-06-15T07:55:10.000Z</time>
      </trkpt>
      <trkpt lat="44.98671" lon="5.37177">
        <ele>1185</ele>
        <time>2019-06-15T07:55:11.000Z</time>
      </trkpt>
      <trkpt lat="44.9867" lon="5.37179">
        <ele>1185</ele>
        <time>2019-06-15T07:55:12.000Z</time>
      </trkpt>
      <trkpt lat="44.98669" lon="5.3718">
        <ele>1186</ele>
        <time>2019-06-15T07:55:13.000Z</time>
      </trkpt>
      <trkpt lat="44.98668" lon="5.37181">
        <ele>1186</ele>
        <time>2019-06-15T07:55:14.000Z</time>
      </trkpt>
      <trkpt lat="44.98667" lon="5.37182">
        <ele>1187</ele>
        <time>2019-06-15T07:55:15.000Z</time>
      </trkpt>
      <trkpt lat="44.98667" lon="5.37183">
        <ele>1187</ele>
        <time>2019-06-15T07:55:16.000Z</time>
      </trkpt>
      <trkpt lat="44.98665" lon="5.37183">
        <ele>1188</ele>
        <time>2019-06-15T07:55:17.000Z</time>
      </trkpt>
      <trkpt lat="44.98664" lon="5.37184">
        <ele>1189</ele>
        <time>2019-06-15T07:55:18.000Z</time>
      </trkpt>
      <trkpt lat="44.98663" lon="5.37184">
        <ele>1189</ele>
        <time>2019-06-15T07:55:19.000Z</time>
      </trkpt>
      <trkpt lat="44.98662" lon="5.37185">
        <ele>1189</ele>
        <time>2019-06-15T07:55:20.000Z</time>
      </trkpt>
      <trkpt lat="44.98662" lon="5.37185">
        <ele>1188</ele>
        <time>2019-06-15T07:55:21.000Z</time>
      </trkpt>
      <trkpt lat="44.98661" lon="5.37187">
        <ele>1188</ele>
        <time>2019-06-15T07:55:22.000Z</time>
      </trkpt>
      <trkpt lat="44.9866" lon="5.37188">
        <ele>1189</ele>
        <time>2019-06-15T07:55:23.000Z</time>
      </trkpt>
      <trkpt lat="44.9866" lon="5.37189">
        <ele>1189</ele>
        <time>2019-06-15T07:55:24.000Z</time>
      </trkpt>
      <trkpt lat="44.98659" lon="5.37189">
        <ele>1190</ele>
        <time>2019-06-15T07:55:25.000Z</time>
      </trkpt>
      <trkpt lat="44.98658" lon="5.3719">
        <ele>1191</ele>
        <time>2019-06-15T07:55:26.000Z</time>
      </trkpt>
      <trkpt lat="44.98657" lon="5.3719">
        <ele>1192</ele>
        <time>2019-06-15T07:55:27.000Z</time>
      </trkpt>
      <trkpt lat="44.98656" lon="5.37191">
        <ele>1191</ele>
        <time>2019-06-15T07:55:28.000Z</time>
      </trkpt>
      <trkpt lat="44.98655" lon="5.37192">
        <ele>1192</ele>
        <time>2019-06-15T07:55:29.000Z</time>
      </trkpt>
      <trkpt lat="44.98654" lon="5.37193">
        <ele>1192</ele>
        <time>2019-06-15T07:55:30.000Z</time>
      </trkpt>
      <trkpt lat="44.98653" lon="5.37193">
        <ele>1193</ele>
        <time>2019-06-15T07:55:31.000Z</time>
      </trkpt>
      <trkpt lat="44.98652" lon="5.37194">
        <ele>1194</ele>
        <time>2019-06-15T07:55:32.000Z</time>
      </trkpt>
      <trkpt lat="44.98651" lon="5.37195">
        <ele>1195</ele>
        <time>2019-06-15T07:55:33.000Z</time>
      </trkpt>
      <trkpt lat="44.9865" lon="5.37195">
        <ele>1196</ele>
        <time>2019-06-15T07:55:34.000Z</time>
      </trkpt>
      <trkpt lat="44.9865" lon="5.37196">
        <ele>1197</ele>
        <time>2019-06-15T07:55:35.000Z</time>
      </trkpt>
      <trkpt lat="44.9865" lon="5.37197">
        <ele>1198</ele>
        <time>2019-06-15T07:55:36.000Z</time>
      </trkpt>
      <trkpt lat="44.98649" lon="5.37197">
        <ele>1198</ele>
        <time>2019-06-15T07:55:37.000Z</time>
      </trkpt>
      <trkpt lat="44.98649" lon="5.37198">
        <ele>1200</ele>
        <time>2019-06-15T07:55:38.000Z</time>
      </trkpt>
      <trkpt lat="44.98649" lon="5.37198">
        <ele>1200</ele>
        <time>2019-06-15T07:55:39.000Z</time>
      </trkpt>
      <trkpt lat="44.98648" lon="5.37199">
        <ele>1201</ele>
        <time>2019-06-15T07:55:40.000Z</time>
      </trkpt>
      <trkpt lat="44.98647" lon="5.37199">
        <ele>1201</ele>
        <time>2019-06-15T07:55:41.000Z</time>
      </trkpt>
      <trkpt lat="44.98647" lon="5.372">
        <ele>1201</ele>
        <time>2019-06-15T07:55:42.000Z</time>
      </trkpt>
      <trkpt lat="44.98646" lon="5.37201">
        <ele>1201</ele>
        <time>2019-06-15T07:55:43.000Z</time>
      </trkpt>
      <trkpt lat="44.98646" lon="5.37202">
        <ele>1201</ele>
        <time>2019-06-15T07:55:44.000Z</time>
      </trkpt>
      <trkpt lat="44.98646" lon="5.37203">
        <ele>1201</ele>
        <time>2019-06-15T07:55:45.000Z</time>
      </trkpt>
      <trkpt lat="44.98645" lon="5.37204">
        <ele>1201</ele>
        <time>2019-06-15T07:55:46.000Z</time>
      </trkpt>
      <trkpt lat="44.98645" lon="5.37205">
        <ele>1202</ele>
        <time>2019-06-15T07:55:47.000Z</time>
      </trkpt>
      <trkpt lat="44.98645" lon="5.37206">
        <ele>1202</ele>
        <time>2019-06-15T07:55:48.000Z</time>
      </trkpt>
      <trkpt lat="44.98644" lon="5.37207">
        <ele>1201</ele>
        <time>2019-06-15T07:55:49.000Z</time>
      </trkpt>
      <trkpt lat="44.98643" lon="5.37208">
        <ele>1201</ele>
        <time>2019-06-15T07:55:50.000Z</time>
      </trkpt>
      <trkpt lat="44.98643" lon="5.37209">
        <ele>1202</ele>
        <time>2019-06-15T07:55:51.000Z</time>
      </trkpt>
      <trkpt lat="44.98642" lon="5.3721">
        <ele>1203</ele>
        <time>2019-06-15T07:55:52.000Z</time>
      </trkpt>
      <trkpt lat="44.98641" lon="5.3721">
        <ele>1203</ele>
        <time>2019-06-15T07:55:53.000Z</time>
      </trkpt>
      <trkpt lat="44.9864" lon="5.37211">
        <ele>1202</ele>
        <time>2019-06-15T07:55:54.000Z</time>
      </trkpt>
      <trkpt lat="44.9864" lon="5.37212">
        <ele>1201</ele>
        <time>2019-06-15T07:55:55.000Z</time>
      </trkpt>
      <trkpt lat="44.9864" lon="5.37213">
        <ele>1202</ele>
        <time>2019-06-15T07:55:56.000Z</time>
      </trkpt>
      <trkpt lat="44.9864" lon="5.37214">
        <ele>1203</ele>
        <time>2019-06-15T07:55:57.000Z</time>
      </trkpt>
      <trkpt lat="44.9864" lon="5.37214">
        <ele>1203</ele>
        <time>2019-06-15T07:55:58.000Z</time>
      </trkpt>
      <trkpt lat="44.9864" lon="5.37215">
        <ele>1204</ele>
        <time>2019-06-15T07:55:59.000Z</time>
      </trkpt>
      <trkpt lat="44.9864" lon="5.37216">
        <ele>1203</ele>
        <time>2019-06-15T07:56:00.000Z</time>
      </trkpt>
      <trkpt lat="44.98641" lon="5.37217">
        <ele>1203</ele>
        <time>2019-06-15T07:56:01.000Z</time>
      </trkpt>
      <trkpt lat="44.98642" lon="5.37217">
        <ele>1205</ele>
        <time>2019-06-15T07:56:02.000Z</time>
      </trkpt>
      <trkpt lat="44.98643" lon="5.37217">
        <ele>1205</ele>
        <time>2019-06-15T07:56:03.000Z</time>
      </trkpt>
      <trkpt lat="44.98644" lon="5.37217">
        <ele>1206</ele>
        <time>2019-06-15T07:56:04.000Z</time>
      </trkpt>
      <trkpt lat="44.98644" lon="5.37217">
        <ele>1206</ele>
        <time>2019-06-15T07:56:05.000Z</time>
      </trkpt>
      <trkpt lat="44.98644" lon="5.37216">
        <ele>1208</ele>
        <time>2019-06-15T07:56:06.000Z</time>
      </trkpt>
      <trkpt lat="44.98645" lon="5.37217">
        <ele>1207</ele>
        <time>2019-06-15T07:56:07.000Z</time>
      </trkpt>
      <trkpt lat="44.98645" lon="5.37216">
        <ele>1208</ele>
        <time>2019-06-15T07:56:08.000Z</time>
      </trkpt>
      <trkpt lat="44.98646" lon="5.37217">
        <ele>1208</ele>
        <time>2019-06-15T07:56:09.000Z</time>
      </trkpt>
      <trkpt lat="44.98646" lon="5.37217">
        <ele>1208</ele>
        <time>2019-06-15T07:56:10.000Z</time>
      </trkpt>
      <trkpt lat="44.98647" lon="5.37217">
        <ele>1209</ele>
        <time>2019-06-15T07:56:11.000Z</time>
      </trkpt>
      <trkpt lat="44.98648" lon="5.37217">
        <ele>1209</ele>
        <time>2019-06-15T07:56:12.000Z</time>
      </trkpt>
      <trkpt lat="44.98649" lon="5.37217">
        <ele>1209</ele>
        <time>2019-06-15T07:56:13.000Z</time>
      </trkpt>
      <trkpt lat="44.9865" lon="5.37217">
        <ele>1210</ele>
        <time>2019-06-15T07:56:14.000Z</time>
      </trkpt>
      <trkpt lat="44.98651" lon="5.37217">
        <ele>1211</ele>
        <time>2019-06-15T07:56:15.000Z</time>
      </trkpt>
      <trkpt lat="44.98652" lon="5.37217">
        <ele>1211</ele>
        <time>2019-06-15T07:56:16.000Z</time>
      </trkpt>
      <trkpt lat="44.98652" lon="5.37217">
        <ele>1211</ele>
        <time>2019-06-15T07:56:17.000Z</time>
      </trkpt>
      <trkpt lat="44.98653" lon="5.37217">
        <ele>1211</ele>
        <time>2019-06-15T07:56:18.000Z</time>
      </trkpt>
      <trkpt lat="44.98654" lon="5.37217">
        <ele>1210</ele>
        <time>2019-06-15T07:56:19.000Z</time>
      </trkpt>
      <trkpt lat="44.98654" lon="5.37217">
        <ele>1210</ele>
        <time>2019-06-15T07:56:20.000Z</time>
      </trkpt>
      <trkpt lat="44.98655" lon="5.37217">
        <ele>1210</ele>
        <time>2019-06-15T07:56:21.000Z</time>
      </trkpt>
      <trkpt lat="44.98655" lon="5.37217">
        <ele>1210</ele>
        <time>2019-06-15T07:56:22.000Z</time>
      </trkpt>
      <trkpt lat="44.98656" lon="5.37218">
        <ele>1210</ele>
        <time>2019-06-15T07:56:23.000Z</time>
      </trkpt>
      <trkpt lat="44.98656" lon="5.37218">
        <ele>1210</ele>
        <time>2019-06-15T07:56:24.000Z</time>
      </trkpt>
      <trkpt lat="44.98657" lon="5.37219">
        <ele>1209</ele>
        <time>2019-06-15T07:56:25.000Z</time>
      </trkpt>
      <trkpt lat="44.98657" lon="5.3722">
        <ele>1209</ele>
        <time>2019-06-15T07:56:26.000Z</time>
      </trkpt>
      <trkpt lat="44.98657" lon="5.3722">
        <ele>1210</ele>
        <time>2019-06-15T07:56:27.000Z</time>
      </trkpt>
      <trkpt lat="44.98657" lon="5.3722">
        <ele>1210</ele>
        <time>2019-06-15T07:56:28.000Z</time>
      </trkpt>
      <trkpt lat="44.98658" lon="5.3722">
        <ele>1210</ele>
        <time>2019-06-15T07:56:29.000Z</time>
      </trkpt>
      <trkpt lat="44.98658" lon="5.37221">
        <ele>1210</ele>
        <time>2019-06-15T07:56:30.000Z</time>
      </trkpt>
      <trkpt lat="44.98659" lon="5.37221">
        <ele>1210</ele>
        <time>2019-06-15T07:56:31.000Z</time>
      </trkpt>
      <trkpt lat="44.9866" lon="5.37222">
        <ele>1210</ele>
        <time>2019-06-15T07:56:32.000Z</time>
      </trkpt>
      <trkpt lat="44.98661" lon="5.37223">
        <ele>1211</ele>
        <time>2019-06-15T07:56:33.000Z</time>
      </trkpt>
      <trkpt lat="44.98662" lon="5.37224">
        <ele>1212</ele>
        <time>2019-06-15T07:56:34.000Z</time>
      </trkpt>
      <trkpt lat="44.98663" lon="5.37225">
        <ele>1213</ele>
        <time>2019-06-15T07:56:35.000Z</time>
      </trkpt>
      <trkpt lat="44.98665" lon="5.37227">
        <ele>1213</ele>
        <time>2019-06-15T07:56:36.000Z</time>
      </trkpt>
      <trkpt lat="44.98666" lon="5.37229">
        <ele>1214</ele>
        <time>2019-06-15T07:56:37.000Z</time>
      </trkpt>
      <trkpt lat="44.98667" lon="5.37231">
        <ele>1213</ele>
        <time>2019-06-15T07:56:38.000Z</time>
      </trkpt>
      <trkpt lat="44.98669" lon="5.37233">
        <ele>1214</ele>
        <time>2019-06-15T07:56:39.000Z</time>
      </trkpt>
      <trkpt lat="44.9867" lon="5.37234">
        <ele>1213</ele>
        <time>2019-06-15T07:56:40.000Z</time>
      </trkpt>
      <trkpt lat="44.98671" lon="5.37236">
        <ele>1214</ele>
        <time>2019-06-15T07:56:41.000Z</time>
      </trkpt>
      <trkpt lat="44.98672" lon="5.37237">
        <ele>1215</ele>
        <time>2019-06-15T07:56:42.000Z</time>
      </trkpt>
      <trkpt lat="44.98673" lon="5.37238">
        <ele>1215</ele>
        <time>2019-06-15T07:56:43.000Z</time>
      </trkpt>
      <trkpt lat="44.98674" lon="5.37238">
        <ele>1215</ele>
        <time>2019-06-15T07:56:44.000Z</time>
      </trkpt>
      <trkpt lat="44.98675" lon="5.37239">
        <ele>1215</ele>
        <time>2019-06-15T07:56:45.000Z</time>
      </trkpt>
      <trkpt lat="44.98675" lon="5.3724">
        <ele>1216</ele>
        <time>2019-06-15T07:56:46.000Z</time>
      </trkpt>
      <trkpt lat="44.98676" lon="5.37241">
        <ele>1217</ele>
        <time>2019-06-15T07:56:47.000Z</time>
      </trkpt>
      <trkpt lat="44.98676" lon="5.37241">
        <ele>1218</ele>
        <time>2019-06-15T07:56:48.000Z</time>
      </trkpt>
      <trkpt lat="44.98677" lon="5.37242">
        <ele>1218</ele>
        <time>2019-06-15T07:56:49.000Z</time>
      </trkpt>
      <trkpt lat="44.98678" lon="5.37242">
        <ele>1219</ele>
        <time>2019-06-15T07:56:50.000Z</time>
      </trkpt>
      <trkpt lat="44.98679" lon="5.37243">
        <ele>1219</ele>
        <time>2019-06-15T07:56:51.000Z</time>
      </trkpt>
      <trkpt lat="44.9868" lon="5.37243">
        <ele>1219</ele>
        <time>2019-06-15T07:56:52.000Z</time>
      </trkpt>
      <trkpt lat="44.98681" lon="5.37243">
        <ele>1219</ele>
        <time>2019-06-15T07:56:53.000Z</time>
      </trkpt>
      <trkpt lat="44.98682" lon="5.37244">
        <ele>1219</ele>
        <time>2019-06-15T07:56:54.000Z</time>
      </trkpt>
      <trkpt lat="44.98682" lon="5.37245">
        <ele>1218</ele>
        <time>2019-06-15T07:56:55.000Z</time>
      </trkpt>
      <trkpt lat="44.98683" lon="5.37246">
        <ele>1219</ele>
        <time>2019-06-15T07:56:56.000Z</time>
      </trkpt>
      <trkpt lat="44.98684" lon="5.37247">
        <ele>1218</ele>
        <time>2019-06-15T07:56:57.000Z</time>
      </trkpt>
      <trkpt lat="44.98685" lon="5.37248">
        <ele>1218</ele>
        <time>2019-06-15T07:56:58.000Z</time>
      </trkpt>
      <trkpt lat="44.98687" lon="5.37248">
        <ele>1218</ele>
        <time>2019-06-15T07:56:59.000Z</time>
      </trkpt>
      <trkpt lat="44.98688" lon="5.37249">
        <ele>1219</ele>
        <time>2019-06-15T07:57:00.000Z</time>
      </trkpt>
      <trkpt lat="44.98689" lon="5.3725">
        <ele>1218</ele>
        <time>2019-06-15T07:57:01.000Z</time>
      </trkpt>
      <trkpt lat="44.9869" lon="5.37251">
        <ele>1218</ele>
        <time>2019-06-15T07:57:02.000Z</time>
      </trkpt>
      <trkpt lat="44.98691" lon="5.37252">
        <ele>1218</ele>
        <time>2019-06-15T07:57:03.000Z</time>
      </trkpt>
      <trkpt lat="44.98691" lon="5.37253">
        <ele>1218</ele>
        <time>2019-06-15T07:57:04.000Z</time>
      </trkpt>
      <trkpt lat="44.98692" lon="5.37254">
        <ele>1219</ele>
        <time>2019-06-15T07:57:05.000Z</time>
      </trkpt>
      <trkpt lat="44.98693" lon="5.37255">
        <ele>1218</ele>
        <time>2019-06-15T07:57:06.000Z</time>
      </trkpt>
      <trkpt lat="44.98694" lon="5.37256">
        <ele>1218</ele>
        <time>2019-06-15T07:57:07.000Z</time>
      </trkpt>
      <trkpt lat="44.98696" lon="5.37256">
        <ele>1218</ele>
        <time>2019-06-15T07:57:08.000Z</time>
      </trkpt>
      <trkpt lat="44.98697" lon="5.37257">
        <ele>1217</ele>
        <time>2019-06-15T07:57:09.000Z</time>
      </trkpt>
      <trkpt lat="44.98698" lon="5.37257">
        <ele>1217</ele>
        <time>2019-06-15T07:57:10.000Z</time>
      </trkpt>
      <trkpt lat="44.98698" lon="5.37257">
        <ele>1217</ele>
        <time>2019-06-15T07:57:11.000Z</time>
      </trkpt>
      <trkpt lat="44.98699" lon="5.37257">
        <ele>1218</ele>
        <time>2019-06-15T07:57:12.000Z</time>
      </trkpt>
      <trkpt lat="44.98699" lon="5.37257">
        <ele>1220</ele>
        <time>2019-06-15T07:57:13.000Z</time>
      </trkpt>
      <trkpt lat="44.987" lon="5.37257">
        <ele>1221</ele>
        <time>2019-06-15T07:57:14.000Z</time>
      </trkpt>
      <trkpt lat="44.987" lon="5.37257">
        <ele>1221</ele>
        <time>2019-06-15T07:57:15.000Z</time>
      </trkpt>
      <trkpt lat="44.987" lon="5.37257">
        <ele>1221</ele>
        <time>2019-06-15T07:57:16.000Z</time>
      </trkpt>
      <trkpt lat="44.987" lon="5.37257">
        <ele>1220</ele>
        <time>2019-06-15T07:57:17.000Z</time>
      </trkpt>
      <trkpt lat="44.987" lon="5.37258">
        <ele>1220</ele>
        <time>2019-06-15T07:57:18.000Z</time>
      </trkpt>
      <trkpt lat="44.98699" lon="5.37259">
        <ele>1220</ele>
        <time>2019-06-15T07:57:19.000Z</time>
      </trkpt>
      <trkpt lat="44.98699" lon="5.37259">
        <ele>1220</ele>
        <time>2019-06-15T07:57:20.000Z</time>
      </trkpt>
      <trkpt lat="44.98699" lon="5.3726">
        <ele>1220</ele>
        <time>2019-06-15T07:57:21.000Z</time>
      </trkpt>
      <trkpt lat="44.98697" lon="5.37261">
        <ele>1219</ele>
        <time>2019-06-15T07:57:22.000Z</time>
      </trkpt>
      <trkpt lat="44.98696" lon="5.37261">
        <ele>1219</ele>
        <time>2019-06-15T07:57:23.000Z</time>
      </trkpt>
      <trkpt lat="44.98693" lon="5.37261">
        <ele>1220</ele>
        <time>2019-06-15T07:57:24.000Z</time>
      </trkpt>
      <trkpt lat="44.98692" lon="5.37261">
        <ele>1221</ele>
        <time>2019-06-15T07:57:25.000Z</time>
      </trkpt>
      <trkpt lat="44.9869" lon="5.37261">
        <ele>1221</ele>
        <time>2019-06-15T07:57:26.000Z</time>
      </trkpt>
      <trkpt lat="44.98689" lon="5.37262">
        <ele>1221</ele>
        <time>2019-06-15T07:57:27.000Z</time>
      </trkpt>
      <trkpt lat="44.98688" lon="5.37262">
        <ele>1221</ele>
        <time>2019-06-15T07:57:28.000Z</time>
      </trkpt>
      <trkpt lat="44.98688" lon="5.37263">
        <ele>1223</ele>
        <time>2019-06-15T07:57:29.000Z</time>
      </trkpt>
      <trkpt lat="44.98687" lon="5.37264">
        <ele>1223</ele>
        <time>2019-06-15T07:57:30.000Z</time>
      </trkpt>
      <trkpt lat="44.98686" lon="5.37265">
        <ele>1224</ele>
        <time>2019-06-15T07:57:31.000Z</time>
      </trkpt>
      <trkpt lat="44.98686" lon="5.37265">
        <ele>1225</ele>
        <time>2019-06-15T07:57:32.000Z</time>
      </trkpt>
      <trkpt lat="44.98685" lon="5.37266">
        <ele>1225</ele>
        <time>2019-06-15T07:57:33.000Z</time>
      </trkpt>
      <trkpt lat="44.98684" lon="5.37267">
        <ele>1226</ele>
        <time>2019-06-15T07:57:34.000Z</time>
      </trkpt>
      <trkpt lat="44.98683" lon="5.37268">
        <ele>1225</ele>
        <time>2019-06-15T07:57:35.000Z</time>
      </trkpt>
      <trkpt lat="44.98683" lon="5.37269">
        <ele>1225</ele>
        <time>2019-06-15T07:57:36.000Z</time>
      </trkpt>
      <trkpt lat="44.98682" lon="5.3727">
        <ele>1225</ele>
        <time>2019-06-15T07:57:37.000Z</time>
      </trkpt>
      <trkpt lat="44.98682" lon="5.37271">
        <ele>1225</ele>
        <time>2019-06-15T07:57:38.000Z</time>
      </trkpt>
      <trkpt lat="44.98682" lon="5.37271">
        <ele>1226</ele>
        <time>2019-06-15T07:57:39.000Z</time>
      </trkpt>
      <trkpt lat="44.98682" lon="5.37272">
        <ele>1227</ele>
        <time>2019-06-15T07:57:40.000Z</time>
      </trkpt>
      <trkpt lat="44.98683" lon="5.37273">
        <ele>1227</ele>
        <time>2019-06-15T07:57:41.000Z</time>
      </trkpt>
      <trkpt lat="44.98683" lon="5.37273">
        <ele>1228</ele>
        <time>2019-06-15T07:57:42.000Z</time>
      </trkpt>
      <trkpt lat="44.98684" lon="5.37274">
        <ele>1229</ele>
        <time>2019-06-15T07:57:43.000Z</time>
      </trkpt>
      <trkpt lat="44.98684" lon="5.37274">
        <ele>1229</ele>
        <time>2019-06-15T07:57:44.000Z</time>
      </trkpt>
      <trkpt lat="44.98684" lon="5.37275">
        <ele>1230</ele>
        <time>2019-06-15T07:57:45.000Z</time>
      </trkpt>
      <trkpt lat="44.98684" lon="5.37275">
        <ele>1230</ele>
        <time>2019-06-15T07:57:46.000Z</time>
      </trkpt>
      <trkpt lat="44.98685" lon="5.37276">
        <ele>1232</ele>
        <time>2019-06-15T07:57:47.000Z</time>
      </trkpt>
      <trkpt lat="44.98685" lon="5.37276">
        <ele>1232</ele>
        <time>2019-06-15T07:57:48.000Z</time>
      </trkpt>
      <trkpt lat="44.98686" lon="5.37277">
        <ele>1233</ele>
        <time>2019-06-15T07:57:49.000Z</time>
      </trkpt>
      <trkpt lat="44.98686" lon="5.37277">
        <ele>1233</ele>
        <time>2019-06-15T07:57:50.000Z</time>
      </trkpt>
      <trkpt lat="44.98687" lon="5.37277">
        <ele>1233</ele>
        <time>2019-06-15T07:57:51.000Z</time>
      </trkpt>
      <trkpt lat="44.98687" lon="5.37278">
        <ele>1234</ele>
        <time>2019-06-15T07:57:52.000Z</time>
      </trkpt>
      <trkpt lat="44.98688" lon="5.37278">
        <ele>1234</ele>
        <time>2019-06-15T07:57:53.000Z</time>
      </trkpt>
      <trkpt lat="44.98689" lon="5.37279">
        <ele>1234</ele>
        <time>2019-06-15T07:57:54.000Z</time>
      </trkpt>
      <trkpt lat="44.98689" lon="5.3728">
        <ele>1234</ele>
        <time>2019-06-15T07:57:55.000Z</time>
      </trkpt>
      <trkpt lat="44.98689" lon="5.37281">
        <ele>1234</ele>
        <time>2019-06-15T07:57:56.000Z</time>
      </trkpt>
      <trkpt lat="44.9869" lon="5.37282">
        <ele>1233</ele>
        <time>2019-06-15T07:57:57.000Z</time>
      </trkpt>
      <trkpt lat="44.9869" lon="5.37283">
        <ele>1233</ele>
        <time>2019-06-15T07:57:58.000Z</time>
      </trkpt>
      <trkpt lat="44.98691" lon="5.37284">
        <ele>1232</ele>
        <time>2019-06-15T07:57:59.000Z</time>
      </trkpt>
      <trkpt lat="44.98691" lon="5.37285">
        <ele>1233</ele>
        <time>2019-06-15T07:58:00.000Z</time>
      </trkpt>
      <trkpt lat="44.98692" lon="5.37285">
        <ele>1233</ele>
        <time>2019-06-15T07:58:01.000Z</time>
      </trkpt>
      <trkpt lat="44.98693" lon="5.37286">
        <ele>1234</ele>
        <time>2019-06-15T07:58:02.000Z</time>
      </trkpt>
      <trkpt lat="44.98693" lon="5.37286">
        <ele>1234</ele>
        <time>2019-06-15T07:58:03.000Z</time>
      </trkpt>
      <trkpt lat="44.98694" lon="5.37287">
        <ele>1234</ele>
        <time>2019-06-15T07:58:04.000Z</time>
      </trkpt>
      <trkpt lat="44.98694" lon="5.37287">
        <ele>1234</ele>
        <time>2019-06-15T07:58:05.000Z</time>
      </trkpt>
      <trkpt lat="44.98695" lon="5.37288">
        <ele>1234</ele>
        <time>2019-06-15T07:58:06.000Z</time>
      </trkpt>
      <trkpt lat="44.98695" lon="5.37289">
        <ele>1234</ele>
        <time>2019-06-15T07:58:07.000Z</time>
      </trkpt>
      <trkpt lat="44.98696" lon="5.37289">
        <ele>1235</ele>
        <time>2019-06-15T07:58:08.000Z</time>
      </trkpt>
      <trkpt lat="44.98697" lon="5.3729">
        <ele>1236</ele>
        <time>2019-06-15T07:58:09.000Z</time>
      </trkpt>
      <trkpt lat="44.98698" lon="5.37291">
        <ele>1236</ele>
        <time>2019-06-15T07:58:10.000Z</time>
      </trkpt>
      <trkpt lat="44.98698" lon="5.37291">
        <ele>1237</ele>
        <time>2019-06-15T07:58:11.000Z</time>
      </trkpt>
      <trkpt lat="44.98699" lon="5.37292">
        <ele>1238</ele>
        <time>2019-06-15T07:58:12.000Z</time>
      </trkpt>
      <trkpt lat="44.987" lon="5.37292">
        <ele>1238</ele>
        <time>2019-06-15T07:58:13.000Z</time>
      </trkpt>
      <trkpt lat="44.98701" lon="5.37293">
        <ele>1238</ele>
        <time>2019-06-15T07:58:14.000Z</time>
      </trkpt>
      <trkpt lat="44.98702" lon="5.37294">
        <ele>1238</ele>
        <time>2019-06-15T07:58:15.000Z</time>
      </trkpt>
      <trkpt lat="44.98702" lon="5.37295">
        <ele>1237</ele>
        <time>2019-06-15T07:58:16.000Z</time>
      </trkpt>
      <trkpt lat="44.98703" lon="5.37296">
        <ele>1237</ele>
        <time>2019-06-15T07:58:17.000Z</time>
      </trkpt>
      <trkpt lat="44.98705" lon="5.37297">
        <ele>1236</ele>
        <time>2019-06-15T07:58:18.000Z</time>
      </trkpt>
      <trkpt lat="44.98706" lon="5.37297">
        <ele>1237</ele>
        <time>2019-06-15T07:58:19.000Z</time>
      </trkpt>
      <trkpt lat="44.98707" lon="5.37298">
        <ele>1237</ele>
        <time>2019-06-15T07:58:20.000Z</time>
      </trkpt>
      <trkpt lat="44.98708" lon="5.37298">
        <ele>1237</ele>
        <time>2019-06-15T07:58:21.000Z</time>
      </trkpt>
      <trkpt lat="44.98709" lon="5.37299">
        <ele>1236</ele>
        <time>2019-06-15T07:58:22.000Z</time>
      </trkpt>
      <trkpt lat="44.98709" lon="5.37299">
        <ele>1236</ele>
        <time>2019-06-15T07:58:23.000Z</time>
      </trkpt>
      <trkpt lat="44.9871" lon="5.373">
        <ele>1236</ele>
        <time>2019-06-15T07:58:24.000Z</time>
      </trkpt>
      <trkpt lat="44.98711" lon="5.37301">
        <ele>1237</ele>
        <time>2019-06-15T07:58:25.000Z</time>
      </trkpt>
      <trkpt lat="44.98712" lon="5.37301">
        <ele>1236</ele>
        <time>2019-06-15T07:58:26.000Z</time>
      </trkpt>
      <trkpt lat="44.98712" lon="5.37301">
        <ele>1237</ele>
        <time>2019-06-15T07:58:27.000Z</time>
      </trkpt>
      <trkpt lat="44.98712" lon="5.37302">
        <ele>1236</ele>
        <time>2019-06-15T07:58:28.000Z</time>
      </trkpt>
      <trkpt lat="44.98713" lon="5.37303">
        <ele>1236</ele>
        <time>2019-06-15T07:58:29.000Z</time>
      </trkpt>
      <trkpt lat="44.98713" lon="5.37303">
        <ele>1237</ele>
        <time>2019-06-15T07:58:30.000Z</time>
      </trkpt>
      <trkpt lat="44.98714" lon="5.37304">
        <ele>1237</ele>
        <time>2019-06-15T07:58:31.000Z</time>
      </trkpt>
      <trkpt lat="44.98715" lon="5.37305">
        <ele>1237</ele>
        <time>2019-06-15T07:58:32.000Z</time>
      </trkpt>
      <trkpt lat="44.98715" lon="5.37305">
        <ele>1237</ele>
        <time>2019-06-15T07:58:33.000Z</time>
      </trkpt>
      <trkpt lat="44.98716" lon="5.37306">
        <ele>1236</ele>
        <time>2019-06-15T07:58:34.000Z</time>
      </trkpt>
      <trkpt lat="44.98717" lon="5.37307">
        <ele>1237</ele>
        <time>2019-06-15T07:58:35.000Z</time>
      </trkpt>
      <trkpt lat="44.98718" lon="5.37309">
        <ele>1237</ele>
        <time>2019-06-15T07:58:36.000Z</time>
      </trkpt>
      <trkpt lat="44.98719" lon="5.3731">
        <ele>1237</ele>
        <time>2019-06-15T07:58:37.000Z</time>
      </trkpt>
      <trkpt lat="44.9872" lon="5.37311">
        <ele>1238</ele>
        <time>2019-06-15T07:58:38.000Z</time>
      </trkpt>
      <trkpt lat="44.98721" lon="5.37311">
        <ele>1238</ele>
        <time>2019-06-15T07:58:39.000Z</time>
      </trkpt>
      <trkpt lat="44.98722" lon="5.37312">
        <ele>1239</ele>
        <time>2019-06-15T07:58:40.000Z</time>
      </trkpt>
      <trkpt lat="44.98723" lon="5.37312">
        <ele>1239</ele>
        <time>2019-06-15T07:58:41.000Z</time>
      </trkpt>
      <trkpt lat="44.98724" lon="5.37313">
        <ele>1240</ele>
        <time>2019-06-15T07:58:42.000Z</time>
      </trkpt>
      <trkpt lat="44.98725" lon="5.37314">
        <ele>1240</ele>
        <time>2019-06-15T07:58:43.000Z</time>
      </trkpt>
      <trkpt lat="44.98725" lon="5.37314">
        <ele>1240</ele>
        <time>2019-06-15T07:58:44.000Z</time>
      </trkpt>
      <trkpt lat="44.98726" lon="5.37315">
        <ele>1241</ele>
        <time>2019-06-15T07:58:45.000Z</time>
      </trkpt>
      <trkpt lat="44.98727" lon="5.37316">
        <ele>1241</ele>
        <time>2019-06-15T07:58:46.000Z</time>
      </trkpt>
      <trkpt lat="44.98727" lon="5.37316">
        <ele>1241</ele>
        <time>2019-06-15T07:58:47.000Z</time>
      </trkpt>
      <trkpt lat="44.98728" lon="5.37316">
        <ele>1241</ele>
        <time>2019-06-15T07:58:48.000Z</time>
      </trkpt>
      <trkpt lat="44.98728" lon="5.37317">
        <ele>1241</ele>
        <time>2019-06-15T07:58:49.000Z</time>
      </trkpt>
      <trkpt lat="44.98729" lon="5.37317">
        <ele>1242</ele>
        <time>2019-06-15T07:58:50.000Z</time>
      </trkpt>
      <trkpt lat="44.9873" lon="5.37318">
        <ele>1242</ele>
        <time>2019-06-15T07:58:51.000Z</time>
      </trkpt>
      <trkpt lat="44.9873" lon="5.37318">
        <ele>1243</ele>
        <time>2019-06-15T07:58:52.000Z</time>
      </trkpt>
      <trkpt lat="44.98731" lon="5.37318">
        <ele>1243</ele>
        <time>2019-06-15T07:58:53.000Z</time>
      </trkpt>
      <trkpt lat="44.98731" lon="5.37319">
        <ele>1243</ele>
        <time>2019-06-15T07:58:54.000Z</time>
      </trkpt>
      <trkpt lat="44.98731" lon="5.3732">
        <ele>1243</ele>
        <time>2019-06-15T07:58:55.000Z</time>
      </trkpt>
      <trkpt lat="44.98732" lon="5.37321">
        <ele>1244</ele>
        <time>2019-06-15T07:58:56.000Z</time>
      </trkpt>
      <trkpt lat="44.98733" lon="5.37323">
        <ele>1244</ele>
        <time>2019-06-15T07:58:57.000Z</time>
      </trkpt>
      <trkpt lat="44.98733" lon="5.37325">
        <ele>1243</ele>
        <time>2019-06-15T07:58:58.000Z</time>
      </trkpt>
      <trkpt lat="44.98732" lon="5.37326">
        <ele>1243</ele>
        <time>2019-06-15T07:58:59.000Z</time>
      </trkpt>
      <trkpt lat="44.98732" lon="5.37327">
        <ele>1243</ele>
        <time>2019-06-15T07:59:00.000Z</time>
      </trkpt>
      <trkpt lat="44.98731" lon="5.37328">
        <ele>1244</ele>
        <time>2019-06-15T07:59:01.000Z</time>
      </trkpt>
      <trkpt lat="44.9873" lon="5.37328">
        <ele>1245</ele>
        <time>2019-06-15T07:59:02.000Z</time>
      </trkpt>
      <trkpt lat="44.98729" lon="5.37328">
        <ele>1245</ele>
        <time>2019-06-15T07:59:03.000Z</time>
      </trkpt>
      <trkpt lat="44.98728" lon="5.37328">
        <ele>1246</ele>
        <time>2019-06-15T07:59:04.000Z</time>
      </trkpt>
      <trkpt lat="44.98727" lon="5.37329">
        <ele>1246</ele>
        <time>2019-06-15T07:59:05.000Z</time>
      </trkpt>
      <trkpt lat="44.98726" lon="5.3733">
        <ele>1245</ele>
        <time>2019-06-15T07:59:06.000Z</time>
      </trkpt>
      <trkpt lat="44.98726" lon="5.3733">
        <ele>1246</ele>
        <time>2019-06-15T07:59:07.000Z</time>
      </trkpt>
      <trkpt lat="44.98725" lon="5.37331">
        <ele>1246</ele>
        <time>2019-06-15T07:59:08.000Z</time>
      </trkpt>
      <trkpt lat="44.98724" lon="5.37331">
        <ele>1248</ele>
        <time>2019-06-15T07:59:09.000Z</time>
      </trkpt>
      <trkpt lat="44.98724" lon="5.37332">
        <ele>1246</ele>
        <time>2019-06-15T07:59:10.000Z</time>
      </trkpt>
      <trkpt lat="44.98723" lon="5.37333">
        <ele>1247</ele>
        <time>2019-06-15T07:59:11.000Z</time>
      </trkpt>
      <trkpt lat="44.98723" lon="5.37335">
        <ele>1247</ele>
        <time>2019-06-15T07:59:12.000Z</time>
      </trkpt>
      <trkpt lat="44.98722" lon="5.37336">
        <ele>1247</ele>
        <time>2019-06-15T07:59:13.000Z</time>
      </trkpt>
      <trkpt lat="44.98723" lon="5.37337">
        <ele>1247</ele>
        <time>2019-06-15T07:59:14.000Z</time>
      </trkpt>
      <trkpt lat="44.98723" lon="5.37338">
        <ele>1247</ele>
        <time>2019-06-15T07:59:15.000Z</time>
      </trkpt>
      <trkpt lat="44.98724" lon="5.37339">
        <ele>1247</ele>
        <time>2019-06-15T07:59:16.000Z</time>
      </trkpt>
      <trkpt lat="44.98725" lon="5.37339">
        <ele>1247</ele>
        <time>2019-06-15T07:59:17.000Z</time>
      </trkpt>
      <trkpt lat="44.98726" lon="5.3734">
        <ele>1247</ele>
        <time>2019-06-15T07:59:18.000Z</time>
      </trkpt>
      <trkpt lat="44.98726" lon="5.37341">
        <ele>1248</ele>
        <time>2019-06-15T07:59:19.000Z</time>
      </trkpt>
      <trkpt lat="44.98727" lon="5.37342">
        <ele>1248</ele>
        <time>2019-06-15T07:59:20.000Z</time>
      </trkpt>
      <trkpt lat="44.98727" lon="5.37343">
        <ele>1248</ele>
        <time>2019-06-15T07:59:21.000Z</time>
      </trkpt>
      <trkpt lat="44.98728" lon="5.37344">
        <ele>1248</ele>
        <time>2019-06-15T07:59:22.000Z</time>
      </trkpt>
      <trkpt lat="44.98728" lon="5.37344">
        <ele>1248</ele>
        <time>2019-06-15T07:59:23.000Z</time>
      </trkpt>
      <trkpt lat="44.98729" lon="5.37345">
        <ele>1248</ele>
        <time>2019-06-15T07:59:24.000Z</time>
      </trkpt>
      <trkpt lat="44.98729" lon="5.37346">
        <ele>1249</ele>
        <time>2019-06-15T07:59:25.000Z</time>
      </trkpt>
      <trkpt lat="44.9873" lon="5.37347">
        <ele>1249</ele>
        <time>2019-06-15T07:59:26.000Z</time>
      </trkpt>
      <trkpt lat="44.9873" lon="5.37347">
        <ele>1250</ele>
        <time>2019-06-15T07:59:27.000Z</time>
      </trkpt>
      <trkpt lat="44.98731" lon="5.37347">
        <ele>1251</ele>
        <time>2019-06-15T07:59:28.000Z</time>
      </trkpt>
      <trkpt lat="44.98731" lon="5.37346">
        <ele>1251</ele>
        <time>2019-06-15T07:59:29.000Z</time>
      </trkpt>
      <trkpt lat="44.98732" lon="5.37346">
        <ele>1251</ele>
        <time>2019-06-15T07:59:30.000Z</time>
      </trkpt>
      <trkpt lat="44.98732" lon="5.37347">
        <ele>1251</ele>
        <time>2019-06-15T07:59:31.000Z</time>
      </trkpt>
      <trkpt lat="44.98733" lon="5.37348">
        <ele>1251</ele>
        <time>2019-06-15T07:59:32.000Z</time>
      </trkpt>
      <trkpt lat="44.98733" lon="5.37348">
        <ele>1251</ele>
        <time>2019-06-15T07:59:33.000Z</time>
      </trkpt>
      <trkpt lat="44.98733" lon="5.37349">
        <ele>1252</ele>
        <time>2019-06-15T07:59:34.000Z</time>
      </trkpt>
      <trkpt lat="44.98734" lon="5.37349">
        <ele>1252</ele>
        <time>2019-06-15T07:59:35.000Z</time>
      </trkpt>
      <trkpt lat="44.98734" lon="5.3735">
        <ele>1251</ele>
        <time>2019-06-15T07:59:36.000Z</time>
      </trkpt>
      <trkpt lat="44.98735" lon="5.37351">
        <ele>1251</ele>
        <time>2019-06-15T07:59:37.000Z</time>
      </trkpt>
      <trkpt lat="44.98736" lon="5.37352">
        <ele>1252</ele>
        <time>2019-06-15T07:59:38.000Z</time>
      </trkpt>
      <trkpt lat="44.98736" lon="5.37353">
        <ele>1253</ele>
        <time>2019-06-15T07:59:39.000Z</time>
      </trkpt>
      <trkpt lat="44.98737" lon="5.37353">
        <ele>1254</ele>
        <time>2019-06-15T07:59:40.000Z</time>
      </trkpt>
      <trkpt lat="44.98737" lon="5.37354">
        <ele>1254</ele>
        <time>2019-06-15T07:59:41.000Z</time>
      </trkpt>
      <trkpt lat="44.98736" lon="5.37354">
        <ele>1254</ele>
        <time>2019-06-15T07:59:42.000Z</time>
      </trkpt>
      <trkpt lat="44.98735" lon="5.37355">
        <ele>1254</ele>
        <time>2019-06-15T07:59:43.000Z</time>
      </trkpt>
      <trkpt lat="44.98734" lon="5.37356">
        <ele>1254</ele>
        <time>2019-06-15T07:59:44.000Z</time>
      </trkpt>
      <trkpt lat="44.98734" lon="5.37356">
        <ele>1254</ele>
        <time>2019-06-15T07:59:45.000Z</time>
      </trkpt>
      <trkpt lat="44.98733" lon="5.37357">
        <ele>1255</ele>
        <time>2019-06-15T07:59:46.000Z</time>
      </trkpt>
      <trkpt lat="44.98732" lon="5.37357">
        <ele>1254</ele>
        <time>2019-06-15T07:59:47.000Z</time>
      </trkpt>
      <trkpt lat="44.98731" lon="5.37357">
        <ele>1254</ele>
        <time>2019-06-15T07:59:48.000Z</time>
      </trkpt>
      <trkpt lat="44.9873" lon="5.37358">
        <ele>1254</ele>
        <time>2019-06-15T07:59:49.000Z</time>
      </trkpt>
      <trkpt lat="44.98729" lon="5.37358">
        <ele>1254</ele>
        <time>2019-06-15T07:59:50.000Z</time>
      </trkpt>
      <trkpt lat="44.98728" lon="5.37359">
        <ele>1254</ele>
        <time>2019-06-15T07:59:51.000Z</time>
      </trkpt>
      <trkpt lat="44.98728" lon="5.3736">
        <ele>1255</ele>
        <time>2019-06-15T07:59:52.000Z</time>
      </trkpt>
      <trkpt lat="44.98728" lon="5.37361">
        <ele>1255</ele>
        <time>2019-06-15T07:59:53.000Z</time>
      </trkpt>
      <trkpt lat="44.98727" lon="5.37361">
        <ele>1255</ele>
        <time>2019-06-15T07:59:54.000Z</time>
      </trkpt>
      <trkpt lat="44.98727" lon="5.37362">
        <ele>1256</ele>
        <time>2019-06-15T07:59:55.000Z</time>
      </trkpt>
      <trkpt lat="44.98726" lon="5.37363">
        <ele>1256</ele>
        <time>2019-06-15T07:59:56.000Z</time>
      </trkpt>
      <trkpt lat="44.98726" lon="5.37363">
        <ele>1256</ele>
        <time>2019-06-15T07:59:57.000Z</time>
      </trkpt>
      <trkpt lat="44.98725" lon="5.37364">
        <ele>1256</ele>
        <time>2019-06-15T07:59:58.000Z</time>
      </trkpt>
      <trkpt lat="44.98724" lon="5.37364">
        <ele>1256</ele>
        <time>2019-06-15T07:59:59.000Z</time>
      </trkpt>
      <trkpt lat="44.98723" lon="5.37364">
        <ele>1256</ele>
        <time>2019-06-15T08:00:00.000Z</time>
      </trkpt>
      <trkpt lat="44.98723" lon="5.37365">
        <ele>1256</ele>
        <time>2019-06-15T08:00:01.000Z</time>
      </trkpt>
      <trkpt lat="44.98722" lon="5.37365">
        <ele>1255</ele>
        <time>2019-06-15T08:00:02.000Z</time>
      </trkpt>
      <trkpt lat="44.98721" lon="5.37366">
        <ele>1256</ele>
        <time>2019-06-15T08:00:03.000Z</time>
      </trkpt>
      <trkpt lat="44.98721" lon="5.37367">
        <ele>1256</ele>
        <time>2019-06-15T08:00:04.000Z</time>
      </trkpt>
      <trkpt lat="44.98721" lon="5.37369">
        <ele>1255</ele>
        <time>2019-06-15T08:00:05.000Z</time>
      </trkpt>
      <trkpt lat="44.98721" lon="5.3737">
        <ele>1255</ele>
        <time>2019-06-15T08:00:06.000Z</time>
      </trkpt>
      <trkpt lat="44.98721" lon="5.37371">
        <ele>1256</ele>
        <time>2019-06-15T08:00:07.000Z</time>
      </trkpt>
      <trkpt lat="44.9872" lon="5.37372">
        <ele>1257</ele>
        <time>2019-06-15T08:00:08.000Z</time>
      </trkpt>
      <trkpt lat="44.9872" lon="5.37372">
        <ele>1257</ele>
        <time>2019-06-15T08:00:09.000Z</time>
      </trkpt>
      <trkpt lat="44.98719" lon="5.37373">
        <ele>1257</ele>
        <time>2019-06-15T08:00:10.000Z</time>
      </trkpt>
      <trkpt lat="44.98719" lon="5.37373">
        <ele>1255</ele>
        <time>2019-06-15T08:00:11.000Z</time>
      </trkpt>
      <trkpt lat="44.98717" lon="5.37374">
        <ele>1256</ele>
        <time>2019-06-15T08:00:12.000Z</time>
      </trkpt>
      <trkpt lat="44.98716" lon="5.37375">
        <ele>1256</ele>
        <time>2019-06-15T08:00:13.000Z</time>
      </trkpt>
      <trkpt lat="44.98715" lon="5.37375">
        <ele>1257</ele>
        <time>2019-06-15T08:00:14.000Z</time>
      </trkpt>
      <trkpt lat="44.98713" lon="5.37376">
        <ele>1256</ele>
        <time>2019-06-15T08:00:15.000Z</time>
      </trkpt>
      <trkpt lat="44.98712" lon="5.37377">
        <ele>1257</ele>
        <time>2019-06-15T08:00:16.000Z</time>
      </trkpt>
      <trkpt lat="44.9871" lon="5.37377">
        <ele>1256</ele>
        <time>2019-06-15T08:00:17.000Z</time>
      </trkpt>
      <trkpt lat="44.98709" lon="5.37378">
        <ele>1257</ele>
        <time>2019-06-15T08:00:18.000Z</time>
      </trkpt>
      <trkpt lat="44.98708" lon="5.37378">
        <ele>1258</ele>
        <time>2019-06-15T08:00:19.000Z</time>
      </trkpt>
      <trkpt lat="44.98708" lon="5.37379">
        <ele>1258</ele>
        <time>2019-06-15T08:00:20.000Z</time>
      </trkpt>
      <trkpt lat="44.98707" lon="5.37379">
        <ele>1259</ele>
        <time>2019-06-15T08:00:21.000Z</time>
      </trkpt>
      <trkpt lat="44.98706" lon="5.37379">
        <ele>1260</ele>
        <time>2019-06-15T08:00:22.000Z</time>
      </trkpt>
      <trkpt lat="44.98706" lon="5.3738">
        <ele>1260</ele>
        <time>2019-06-15T08:00:23.000Z</time>
      </trkpt>
      <trkpt lat="44.98705" lon="5.37381">
        <ele>1261</ele>
        <time>2019-06-15T08:00:24.000Z</time>
      </trkpt>
      <trkpt lat="44.98705" lon="5.37381">
        <ele>1262</ele>
        <time>2019-06-15T08:00:25.000Z</time>
      </trkpt>
      <trkpt lat="44.98704" lon="5.37382">
        <ele>1261</ele>
        <time>2019-06-15T08:00:26.000Z</time>
      </trkpt>
      <trkpt lat="44.98704" lon="5.37383">
        <ele>1262</ele>
        <time>2019-06-15T08:00:27.000Z</time>
      </trkpt>
      <trkpt lat="44.98704" lon="5.37384">
        <ele>1262</ele>
        <time>2019-06-15T08:00:28.000Z</time>
      </trkpt>
      <trkpt lat="44.98704" lon="5.37385">
        <ele>1262</ele>
        <time>2019-06-15T08:00:29.000Z</time>
      </trkpt>
      <trkpt lat="44.98703" lon="5.37386">
        <ele>1263</ele>
        <time>2019-06-15T08:00:30.000Z</time>
      </trkpt>
      <trkpt lat="44.98703" lon="5.37387">
        <ele>1263</ele>
        <time>2019-06-15T08:00:31.000Z</time>
      </trkpt>
      <trkpt lat="44.98702" lon="5.37388">
        <ele>1263</ele>
        <time>2019-06-15T08:00:32.000Z</time>
      </trkpt>
      <trkpt lat="44.98701" lon="5.37389">
        <ele>1264</ele>
        <time>2019-06-15T08:00:33.000Z</time>
      </trkpt>
      <trkpt lat="44.98701" lon="5.3739">
        <ele>1264</ele>
        <time>2019-06-15T08:00:34.000Z</time>
      </trkpt>
      <trkpt lat="44.987" lon="5.37391">
        <ele>1264</ele>
        <time>2019-06-15T08:00:35.000Z</time>
      </trkpt>
      <trkpt lat="44.987" lon="5.37392">
        <ele>1264</ele>
        <time>2019-06-15T08:00:36.000Z</time>
      </trkpt>
      <trkpt lat="44.987" lon="5.37392">
        <ele>1264</ele>
        <time>2019-06-15T08:00:37.000Z</time>
      </trkpt>
      <trkpt lat="44.987" lon="5.37393">
        <ele>1264</ele>
        <time>2019-06-15T08:00:38.000Z</time>
      </trkpt>
      <trkpt lat="44.98701" lon="5.37394">
        <ele>1265</ele>
        <time>2019-06-15T08:00:39.000Z</time>
      </trkpt>
      <trkpt lat="44.98701" lon="5.37394">
        <ele>1265</ele>
        <time>2019-06-15T08:00:40.000Z</time>
      </trkpt>
      <trkpt lat="44.98703" lon="5.37394">
        <ele>1269</ele>
        <time>2019-06-15T08:00:41.086Z</time>
      </trkpt>
      <trkpt lat="44.98704" lon="5.37393">
        <ele>1270</ele>
        <time>2019-06-15T08:00:42.086Z</time>
      </trkpt>
      <trkpt lat="44.98704" lon="5.37393">
        <ele>1270</ele>
        <time>2019-06-15T08:00:43.086Z</time>
      </trkpt>
      <trkpt lat="44.98704" lon="5.37394">
        <ele>1271</ele>
        <time>2019-06-15T08:00:44.086Z</time>
      </trkpt>
      <trkpt lat="44.98705" lon="5.37394">
        <ele>1271</ele>
        <time>2019-06-15T08:00:45.086Z</time>
      </trkpt>
      <trkpt lat="44.98705" lon="5.37394">
        <ele>1271</ele>
        <time>2019-06-15T08:00:46.086Z</time>
      </trkpt>
      <trkpt lat="44.98706" lon="5.37395">
        <ele>1272</ele>
        <time>2019-06-15T08:00:47.086Z</time>
      </trkpt>
      <trkpt lat="44.98707" lon="5.37397">
        <ele>1272</ele>
        <time>2019-06-15T08:00:48.086Z</time>
      </trkpt>
      <trkpt lat="44.98707" lon="5.37398">
        <ele>1273</ele>
        <time>2019-06-15T08:00:49.086Z</time>
      </trkpt>
      <trkpt lat="44.98708" lon="5.37399">
        <ele>1273</ele>
        <time>2019-06-15T08:00:50.086Z</time>
      </trkpt>
      <trkpt lat="44.98709" lon="5.37399">
        <ele>1273</ele>
        <time>2019-06-15T08:00:51.086Z</time>
      </trkpt>
      <trkpt lat="44.98711" lon="5.37401">
        <ele>1271</ele>
        <time>2019-06-15T08:00:52.086Z</time>
      </trkpt>
      <trkpt lat="44.98711" lon="5.37401">
        <ele>1271</ele>
        <time>2019-06-15T08:00:53.086Z</time>
      </trkpt>
      <trkpt lat="44.98713" lon="5.37402">
        <ele>1271</ele>
        <time>2019-06-15T08:00:54.086Z</time>
      </trkpt>
      <trkpt lat="44.98714" lon="5.37403">
        <ele>1271</ele>
        <time>2019-06-15T08:00:55.086Z</time>
      </trkpt>
      <trkpt lat="44.98715" lon="5.37404">
        <ele>1271</ele>
        <time>2019-06-15T08:00:56.086Z</time>
      </trkpt>
      <trkpt lat="44.98717" lon="5.37404">
        <ele>1271</ele>
        <time>2019-06-15T08:00:57.086Z</time>
      </trkpt>
      <trkpt lat="44.98718" lon="5.37405">
        <ele>1271</ele>
        <time>2019-06-15T08:00:58.086Z</time>
      </trkpt>
      <trkpt lat="44.9872" lon="5.37405">
        <ele>1272</ele>
        <time>2019-06-15T08:00:59.086Z</time>
      </trkpt>
      <trkpt lat="44.98722" lon="5.37405">
        <ele>1273</ele>
        <time>2019-06-15T08:01:00.086Z</time>
      </trkpt>
      <trkpt lat="44.98723" lon="5.37405">
        <ele>1274</ele>
        <time>2019-06-15T08:01:01.086Z</time>
      </trkpt>
      <trkpt lat="44.98724" lon="5.37405">
        <ele>1274</ele>
        <time>2019-06-15T08:01:02.086Z</time>
      </trkpt>
      <trkpt lat="44.98725" lon="5.37405">
        <ele>1275</ele>
        <time>2019-06-15T08:01:03.086Z</time>
      </trkpt>
      <trkpt lat="44.98726" lon="5.37406">
        <ele>1276</ele>
        <time>2019-06-15T08:01:04.086Z</time>
      </trkpt>
      <trkpt lat="44.98726" lon="5.37406">
        <ele>1277</ele>
        <time>2019-06-15T08:01:05.086Z</time>
      </trkpt>
      <trkpt lat="44.98727" lon="5.37406">
        <ele>1277</ele>
        <time>2019-06-15T08:01:06.086Z</time>
      </trkpt>
      <trkpt lat="44.98728" lon="5.37406">
        <ele>1278</ele>
        <time>2019-06-15T08:01:07.086Z</time>
      </trkpt>
      <trkpt lat="44.98729" lon="5.37407">
        <ele>1278</ele>
        <time>2019-06-15T08:01:08.086Z</time>
      </trkpt>
      <trkpt lat="44.98731" lon="5.37408">
        <ele>1279</ele>
        <time>2019-06-15T08:01:09.086Z</time>
      </trkpt>
      <trkpt lat="44.98732" lon="5.37409">
        <ele>1278</ele>
        <time>2019-06-15T08:01:10.086Z</time>
      </trkpt>
      <trkpt lat="44.98732" lon="5.37409">
        <ele>1278</ele>
        <time>2019-06-15T08:01:11.086Z</time>
      </trkpt>
      <trkpt lat="44.98734" lon="5.37409">
        <ele>1277</ele>
        <time>2019-06-15T08:01:12.086Z</time>
      </trkpt>
      <trkpt lat="44.98735" lon="5.3741">
        <ele>1277</ele>
        <time>2019-06-15T08:01:13.086Z</time>
      </trkpt>
      <trkpt lat="44.98736" lon="5.37411">
        <ele>1277</ele>
        <time>2019-06-15T08:01:14.086Z</time>
      </trkpt>
      <trkpt lat="44.98736" lon="5.37411">
        <ele>1278</ele>
        <time>2019-06-15T08:01:15.086Z</time>
      </trkpt>
      <trkpt lat="44.98737" lon="5.37412">
        <ele>1278</ele>
        <time>2019-06-15T08:01:16.086Z</time>
      </trkpt>
      <trkpt lat="44.98738" lon="5.37412">
        <ele>1278</ele>
        <time>2019-06-15T08:01:17.086Z</time>
      </trkpt>
      <trkpt lat="44.98739" lon="5.37412">
        <ele>1279</ele>
        <time>2019-06-15T08:01:18.086Z</time>
      </trkpt>
      <trkpt lat="44.98739" lon="5.37413">
        <ele>1279</ele>
        <time>2019-06-15T08:01:19.086Z</time>
      </trkpt>
      <trkpt lat="44.98741" lon="5.37413">
        <ele>1280</ele>
        <time>2019-06-15T08:01:20.086Z</time>
      </trkpt>
      <trkpt lat="44.98743" lon="5.37413">
        <ele>1280</ele>
        <time>2019-06-15T08:01:21.086Z</time>
      </trkpt>
      <trkpt lat="44.98744" lon="5.37413">
        <ele>1280</ele>
        <time>2019-06-15T08:01:22.086Z</time>
      </trkpt>
      <trkpt lat="44.98745" lon="5.37414">
        <ele>1280</ele>
        <time>2019-06-15T08:01:23.086Z</time>
      </trkpt>
      <trkpt lat="44.98746" lon="5.37414">
        <ele>1280</ele>
        <time>2019-06-15T08:01:24.086Z</time>
      </trkpt>
      <trkpt lat="44.98747" lon="5.37414">
        <ele>1281</ele>
        <time>2019-06-15T08:01:25.086Z</time>
      </trkpt>
      <trkpt lat="44.98747" lon="5.37415">
        <ele>1282</ele>
        <time>2019-06-15T08:01:26.086Z</time>
      </trkpt>
      <trkpt lat="44.98748" lon="5.37415">
        <ele>1281</ele>
        <time>2019-06-15T08:01:27.086Z</time>
      </trkpt>
      <trkpt lat="44.98751" lon="5.37417">
        <ele>1283</ele>
        <time>2019-06-15T08:01:28.086Z</time>
      </trkpt>
      <trkpt lat="44.98751" lon="5.37417">
        <ele>1283</ele>
        <time>2019-06-15T08:01:29.086Z</time>
      </trkpt>
      <trkpt lat="44.98751" lon="5.37418">
        <ele>1282</ele>
        <time>2019-06-15T08:01:30.086Z</time>
      </trkpt>
      <trkpt lat="44.98752" lon="5.37419">
        <ele>1282</ele>
        <time>2019-06-15T08:01:31.086Z</time>
      </trkpt>
      <trkpt lat="44.98753" lon="5.3742">
        <ele>1282</ele>
        <time>2019-06-15T08:01:32.086Z</time>
      </trkpt>
      <trkpt lat="44.98754" lon="5.3742">
        <ele>1282</ele>
        <time>2019-06-15T08:01:33.086Z</time>
      </trkpt>
      <trkpt lat="44.98754" lon="5.3742">
        <ele>1282</ele>
        <time>2019-06-15T08:01:34.086Z</time>
      </trkpt>
      <trkpt lat="44.98756" lon="5.3742">
        <ele>1282</ele>
        <time>2019-06-15T08:01:35.086Z</time>
      </trkpt>
      <trkpt lat="44.98757" lon="5.37421">
        <ele>1282</ele>
        <time>2019-06-15T08:01:36.086Z</time>
      </trkpt>
      <trkpt lat="44.98758" lon="5.37422">
        <ele>1281</ele>
        <time>2019-06-15T08:01:37.086Z</time>
      </trkpt>
      <trkpt lat="44.98758" lon="5.37423">
        <ele>1281</ele>
        <time>2019-06-15T08:01:38.086Z</time>
      </trkpt>
      <trkpt lat="44.98759" lon="5.37424">
        <ele>1281</ele>
        <time>2019-06-15T08:01:39.086Z</time>
      </trkpt>
      <trkpt lat="44.9876" lon="5.37424">
        <ele>1281</ele>
        <time>2019-06-15T08:01:40.086Z</time>
      </trkpt>
      <trkpt lat="44.9876" lon="5.37425">
        <ele>1281</ele>
        <time>2019-06-15T08:01:41.086Z</time>
      </trkpt>
      <trkpt lat="44.98761" lon="5.37426">
        <ele>1281</ele>
        <time>2019-06-15T08:01:42.086Z</time>
      </trkpt>
      <trkpt lat="44.98762" lon="5.37427">
        <ele>1282</ele>
        <time>2019-06-15T08:01:43.086Z</time>
      </trkpt>
      <trkpt lat="44.98763" lon="5.37428">
        <ele>1283</ele>
        <time>2019-06-15T08:01:44.086Z</time>
      </trkpt>
      <trkpt lat="44.98763" lon="5.37428">
        <ele>1283</ele>
        <time>2019-06-15T08:01:45.086Z</time>
      </trkpt>
      <trkpt lat="44.98764" lon="5.37429">
        <ele>1283</ele>
        <time>2019-06-15T08:01:46.086Z</time>
      </trkpt>
      <trkpt lat="44.98765" lon="5.37429">
        <ele>1284</ele>
        <time>2019-06-15T08:01:47.086Z</time>
      </trkpt>
      <trkpt lat="44.98765" lon="5.3743">
        <ele>1284</ele>
        <time>2019-06-15T08:01:48.086Z</time>
      </trkpt>
      <trkpt lat="44.98766" lon="5.37431">
        <ele>1284</ele>
        <time>2019-06-15T08:01:49.086Z</time>
      </trkpt>
      <trkpt lat="44.98764" lon="5.37433">
        <ele>1282</ele>
        <time>2019-06-15T08:01:50.086Z</time>
      </trkpt>
      <trkpt lat="44.98764" lon="5.37433">
        <ele>1282</ele>
        <time>2019-06-15T08:01:51.086Z</time>
      </trkpt>
      <trkpt lat="44.98763" lon="5.37433">
        <ele>1281</ele>
        <time>2019-06-15T08:01:52.086Z</time>
      </trkpt>
      <trkpt lat="44.98763" lon="5.37434">
        <ele>1282</ele>
        <time>2019-06-15T08:01:53.086Z</time>
      </trkpt>
      <trkpt lat="44.98762" lon="5.37435">
        <ele>1282</ele>
        <time>2019-06-15T08:01:54.086Z</time>
      </trkpt>
      <trkpt lat="44.98762" lon="5.37436">
        <ele>1281</ele>
        <time>2019-06-15T08:01:55.086Z</time>
      </trkpt>
      <trkpt lat="44.98761" lon="5.37436">
        <ele>1281</ele>
        <time>2019-06-15T08:01:56.086Z</time>
      </trkpt>
      <trkpt lat="44.98761" lon="5.37437">
        <ele>1281</ele>
        <time>2019-06-15T08:01:57.086Z</time>
      </trkpt>
      <trkpt lat="44.9876" lon="5.37437">
        <ele>1281</ele>
        <time>2019-06-15T08:01:58.086Z</time>
      </trkpt>
      <trkpt lat="44.9876" lon="5.37438">
        <ele>1281</ele>
        <time>2019-06-15T08:01:59.086Z</time>
      </trkpt>
      <trkpt lat="44.98759" lon="5.37438">
        <ele>1281</ele>
        <time>2019-06-15T08:02:00.086Z</time>
      </trkpt>
      <trkpt lat="44.98757" lon="5.37438">
        <ele>1282</ele>
        <time>2019-06-15T08:02:01.086Z</time>
      </trkpt>
      <trkpt lat="44.98757" lon="5.37438">
        <ele>1282</ele>
        <time>2019-06-15T08:02:02.086Z</time>
      </trkpt>
      <trkpt lat="44.98757" lon="5.37439">
        <ele>1282</ele>
        <time>2019-06-15T08:02:03.086Z</time>
      </trkpt>
      <trkpt lat="44.98756" lon="5.37439">
        <ele>1283</ele>
        <time>2019-06-15T08:02:04.086Z</time>
      </trkpt>
      <trkpt lat="44.98755" lon="5.37439">
        <ele>1283</ele>
        <time>2019-06-15T08:02:05.086Z</time>
      </trkpt>
      <trkpt lat="44.98754" lon="5.37439">
        <ele>1284</ele>
        <time>2019-06-15T08:02:06.086Z</time>
      </trkpt>
      <trkpt lat="44.98753" lon="5.37439">
        <ele>1285</ele>
        <time>2019-06-15T08:02:07.086Z</time>
      </trkpt>
      <trkpt lat="44.98751" lon="5.37439">
        <ele>1285</ele>
        <time>2019-06-15T08:02:08.086Z</time>
      </trkpt>
      <trkpt lat="44.98751" lon="5.37439">
        <ele>1285</ele>
        <time>2019-06-15T08:02:09.086Z</time>
      </trkpt>
      <trkpt lat="44.9875" lon="5.37438">
        <ele>1285</ele>
        <time>2019-06-15T08:02:10.086Z</time>
      </trkpt>
      <trkpt lat="44.98749" lon="5.37438">
        <ele>1286</ele>
        <time>2019-06-15T08:02:11.086Z</time>
      </trkpt>
      <trkpt lat="44.98748" lon="5.37439">
        <ele>1285</ele>
        <time>2019-06-15T08:02:12.086Z</time>
      </trkpt>
      <trkpt lat="44.98747" lon="5.37439">
        <ele>1285</ele>
        <time>2019-06-15T08:02:13.086Z</time>
      </trkpt>
      <trkpt lat="44.98746" lon="5.3744">
        <ele>1286</ele>
        <time>2019-06-15T08:02:14.086Z</time>
      </trkpt>
      <trkpt lat="44.98745" lon="5.37441">
        <ele>1287</ele>
        <time>2019-06-15T08:02:15.086Z</time>
      </trkpt>
      <trkpt lat="44.98745" lon="5.37442">
        <ele>1286</ele>
        <time>2019-06-15T08:02:16.086Z</time>
      </trkpt>
      <trkpt lat="44.98744" lon="5.37443">
        <ele>1286</ele>
        <time>2019-06-15T08:02:17.086Z</time>
      </trkpt>
      <trkpt lat="44.98743" lon="5.37444">
        <ele>1286</ele>
        <time>2019-06-15T08:02:18.086Z</time>
      </trkpt>
      <trkpt lat="44.98742" lon="5.37445">
        <ele>1286</ele>
        <time>2019-06-15T08:02:19.086Z</time>
      </trkpt>
      <trkpt lat="44.98741" lon="5.37445">
        <ele>1287</ele>
        <time>2019-06-15T08:02:20.086Z</time>
      </trkpt>
      <trkpt lat="44.9874" lon="5.37446">
        <ele>1287</ele>
        <time>2019-06-15T08:02:21.086Z</time>
      </trkpt>
      <trkpt lat="44.98739" lon="5.37446">
        <ele>1287</ele>
        <time>2019-06-15T08:02:22.086Z</time>
      </trkpt>
      <trkpt lat="44.98739" lon="5.37447">
        <ele>1288</ele>
        <time>2019-06-15T08:02:23.086Z</time>
      </trkpt>
      <trkpt lat="44.98738" lon="5.37447">
        <ele>1288</ele>
        <time>2019-06-15T08:02:24.086Z</time>
      </trkpt>
      <trkpt lat="44.98738" lon="5.37448">
        <ele>1289</ele>
        <time>2019-06-15T08:02:25.086Z</time>
      </trkpt>
      <trkpt lat="44.98737" lon="5.37448">
        <ele>1290</ele>
        <time>2019-06-15T08:02:26.086Z</time>
      </trkpt>
      <trkpt lat="44.98737" lon="5.37449">
        <ele>1290</ele>
        <time>2019-06-15T08:02:27.086Z</time>
      </trkpt>
      <trkpt lat="44.98736" lon="5.3745">
        <ele>1291</ele>
        <time>2019-06-15T08:02:28.086Z</time>
      </trkpt>
      <trkpt lat="44.98736" lon="5.3745">
        <ele>1291</ele>
        <time>2019-06-15T08:02:29.086Z</time>
      </trkpt>
      <trkpt lat="44.98734" lon="5.37452">
        <ele>1289</ele>
        <time>2019-06-15T08:02:30.086Z</time>
      </trkpt>
      <trkpt lat="44.98734" lon="5.37452">
        <ele>1289</ele>
        <time>2019-06-15T08:02:31.086Z</time>
      </trkpt>
      <trkpt lat="44.98732" lon="5.37452">
        <ele>1289</ele>
        <time>2019-06-15T08:02:32.086Z</time>
      </trkpt>
      <trkpt lat="44.9873" lon="5.37452">
        <ele>1289</ele>
        <time>2019-06-15T08:02:33.086Z</time>
      </trkpt>
      <trkpt lat="44.98727" lon="5.37452">
        <ele>1290</ele>
        <time>2019-06-15T08:02:34.086Z</time>
      </trkpt>
      <trkpt lat="44.98725" lon="5.37452">
        <ele>1290</ele>
        <time>2019-06-15T08:02:35.086Z</time>
      </trkpt>
      <trkpt lat="44.98723" lon="5.37453">
        <ele>1289</ele>
        <time>2019-06-15T08:02:36.086Z</time>
      </trkpt>
      <trkpt lat="44.98721" lon="5.37453">
        <ele>1288</ele>
        <time>2019-06-15T08:02:37.086Z</time>
      </trkpt>
      <trkpt lat="44.9872" lon="5.37454">
        <ele>1290</ele>
        <time>2019-06-15T08:02:38.086Z</time>
      </trkpt>
      <trkpt lat="44.98719" lon="5.37456">
        <ele>1290</ele>
        <time>2019-06-15T08:02:39.086Z</time>
      </trkpt>
      <trkpt lat="44.98718" lon="5.37457">
        <ele>1294</ele>
        <time>2019-06-15T08:02:40.086Z</time>
      </trkpt>
      <trkpt lat="44.98718" lon="5.37457">
        <ele>1294</ele>
        <time>2019-06-15T08:02:41.086Z</time>
      </trkpt>
      <trkpt lat="44.98717" lon="5.37457">
        <ele>1294</ele>
        <time>2019-06-15T08:02:42.086Z</time>
      </trkpt>
      <trkpt lat="44.98716" lon="5.37458">
        <ele>1296</ele>
        <time>2019-06-15T08:02:43.086Z</time>
      </trkpt>
      <trkpt lat="44.98716" lon="5.37458">
        <ele>1296</ele>
        <time>2019-06-15T08:02:44.086Z</time>
      </trkpt>
      <trkpt lat="44.98716" lon="5.37459">
        <ele>1296</ele>
        <time>2019-06-15T08:02:45.086Z</time>
      </trkpt>
      <trkpt lat="44.98715" lon="5.3746">
        <ele>1296</ele>
        <time>2019-06-15T08:02:46.086Z</time>
      </trkpt>
      <trkpt lat="44.98714" lon="5.3746">
        <ele>1297</ele>
        <time>2019-06-15T08:02:47.086Z</time>
      </trkpt>
      <trkpt lat="44.98712" lon="5.37461">
        <ele>1297</ele>
        <time>2019-06-15T08:02:48.086Z</time>
      </trkpt>
      <trkpt lat="44.98712" lon="5.37461">
        <ele>1297</ele>
        <time>2019-06-15T08:02:49.086Z</time>
      </trkpt>
      <trkpt lat="44.98712" lon="5.37462">
        <ele>1297</ele>
        <time>2019-06-15T08:02:50.086Z</time>
      </trkpt>
      <trkpt lat="44.98711" lon="5.37462">
        <ele>1297</ele>
        <time>2019-06-15T08:02:51.086Z</time>
      </trkpt>
      <trkpt lat="44.9871" lon="5.37463">
        <ele>1297</ele>
        <time>2019-06-15T08:02:52.086Z</time>
      </trkpt>
      <trkpt lat="44.98709" lon="5.37463">
        <ele>1297</ele>
        <time>2019-06-15T08:02:53.086Z</time>
      </trkpt>
      <trkpt lat="44.98708" lon="5.37464">
        <ele>1297</ele>
        <time>2019-06-15T08:02:54.086Z</time>
      </trkpt>
      <trkpt lat="44.98707" lon="5.37464">
        <ele>1298</ele>
        <time>2019-06-15T08:02:55.086Z</time>
      </trkpt>
      <trkpt lat="44.98706" lon="5.37465">
        <ele>1298</ele>
        <time>2019-06-15T08:02:56.086Z</time>
      </trkpt>
      <trkpt lat="44.98706" lon="5.37465">
        <ele>1299</ele>
        <time>2019-06-15T08:02:57.086Z</time>
      </trkpt>
      <trkpt lat="44.98705" lon="5.37465">
        <ele>1301</ele>
        <time>2019-06-15T08:02:58.086Z</time>
      </trkpt>
      <trkpt lat="44.98705" lon="5.37465">
        <ele>1302</ele>
        <time>2019-06-15T08:02:59.086Z</time>
      </trkpt>
      <trkpt lat="44.98705" lon="5.37465">
        <ele>1303</ele>
        <time>2019-06-15T08:03:00.086Z</time>
      </trkpt>
      <trkpt lat="44.98704" lon="5.37465">
        <ele>1305</ele>
        <time>2019-06-15T08:03:01.086Z</time>
      </trkpt>
      <trkpt lat="44.98705" lon="5.37465">
        <ele>1305</ele>
        <time>2019-06-15T08:03:02.086Z</time>
      </trkpt>
      <trkpt lat="44.98705" lon="5.37465">
        <ele>1305</ele>
        <time>2019-06-15T08:03:03.086Z</time>
      </trkpt>
      <trkpt lat="44.98705" lon="5.37466">
        <ele>1305</ele>
        <time>2019-06-15T08:03:04.086Z</time>
      </trkpt>
      <trkpt lat="44.98706" lon="5.37467">
        <ele>1305</ele>
        <time>2019-06-15T08:03:05.086Z</time>
      </trkpt>
      <trkpt lat="44.98706" lon="5.37467">
        <ele>1306</ele>
        <time>2019-06-15T08:03:06.086Z</time>
      </trkpt>
      <trkpt lat="44.98707" lon="5.37468">
        <ele>1306</ele>
        <time>2019-06-15T08:03:07.086Z</time>
      </trkpt>
      <trkpt lat="44.98707" lon="5.37468">
        <ele>1307</ele>
        <time>2019-06-15T08:03:08.086Z</time>
      </trkpt>
      <trkpt lat="44.98708" lon="5.37468">
        <ele>1307</ele>
        <time>2019-06-15T08:03:09.086Z</time>
      </trkpt>
      <trkpt lat="44.98708" lon="5.37468">
        <ele>1308</ele>
        <time>2019-06-15T08:03:10.086Z</time>
      </trkpt>
      <trkpt lat="44.98709" lon="5.37469">
        <ele>1309</ele>
        <time>2019-06-15T08:03:11.086Z</time>
      </trkpt>
      <trkpt lat="44.9871" lon="5.37469">
        <ele>1309</ele>
        <time>2019-06-15T08:03:12.086Z</time>
      </trkpt>
      <trkpt lat="44.98711" lon="5.37468">
        <ele>1310</ele>
        <time>2019-06-15T08:03:13.086Z</time>
      </trkpt>
      <trkpt lat="44.98711" lon="5.37468">
        <ele>1310</ele>
        <time>2019-06-15T08:03:14.086Z</time>
      </trkpt>
      <trkpt lat="44.98712" lon="5.37468">
        <ele>1311</ele>
        <time>2019-06-15T08:03:15.086Z</time>
      </trkpt>
      <trkpt lat="44.98713" lon="5.37469">
        <ele>1311</ele>
        <time>2019-06-15T08:03:16.086Z</time>
      </trkpt>
      <trkpt lat="44.98714" lon="5.3747">
        <ele>1312</ele>
        <time>2019-06-15T08:03:17.086Z</time>
      </trkpt>
      <trkpt lat="44.98715" lon="5.37471">
        <ele>1312</ele>
        <time>2019-06-15T08:03:18.086Z</time>
      </trkpt>
      <trkpt lat="44.98717" lon="5.37474">
        <ele>1314</ele>
        <time>2019-06-15T08:03:19.086Z</time>
      </trkpt>
      <trkpt lat="44.98717" lon="5.37474">
        <ele>1314</ele>
        <time>2019-06-15T08:03:20.086Z</time>
      </trkpt>
      <trkpt lat="44.98717" lon="5.37475">
        <ele>1314</ele>
        <time>2019-06-15T08:03:21.086Z</time>
      </trkpt>
      <trkpt lat="44.98717" lon="5.37475">
        <ele>1314</ele>
        <time>2019-06-15T08:03:22.086Z</time>
      </trkpt>
      <trkpt lat="44.98717" lon="5.37476">
        <ele>1315</ele>
        <time>2019-06-15T08:03:23.086Z</time>
      </trkpt>
      <trkpt lat="44.98716" lon="5.37476">
        <ele>1315</ele>
        <time>2019-06-15T08:03:24.086Z</time>
      </trkpt>
      <trkpt lat="44.98715" lon="5.37477">
        <ele>1314</ele>
        <time>2019-06-15T08:03:25.086Z</time>
      </trkpt>
      <trkpt lat="44.98715" lon="5.37477">
        <ele>1315</ele>
        <time>2019-06-15T08:03:26.086Z</time>
      </trkpt>
      <trkpt lat="44.98714" lon="5.37478">
        <ele>1316</ele>
        <time>2019-06-15T08:03:27.086Z</time>
      </trkpt>
      <trkpt lat="44.98713" lon="5.37478">
        <ele>1316</ele>
        <time>2019-06-15T08:03:28.086Z</time>
      </trkpt>
      <trkpt lat="44.98712" lon="5.37479">
        <ele>1315</ele>
        <time>2019-06-15T08:03:29.086Z</time>
      </trkpt>
      <trkpt lat="44.98712" lon="5.3748">
        <ele>1314</ele>
        <time>2019-06-15T08:03:30.086Z</time>
      </trkpt>
      <trkpt lat="44.98711" lon="5.37481">
        <ele>1314</ele>
        <time>2019-06-15T08:03:31.086Z</time>
      </trkpt>
      <trkpt lat="44.98711" lon="5.37482">
        <ele>1314</ele>
        <time>2019-06-15T08:03:32.086Z</time>
      </trkpt>
      <trkpt lat="44.98711" lon="5.37484">
        <ele>1313</ele>
        <time>2019-06-15T08:03:33.086Z</time>
      </trkpt>
      <trkpt lat="44.9871" lon="5.37484">
        <ele>1313</ele>
        <time>2019-06-15T08:03:34.086Z</time>
      </trkpt>
      <trkpt lat="44.9871" lon="5.37485">
        <ele>1313</ele>
        <time>2019-06-15T08:03:35.086Z</time>
      </trkpt>
      <trkpt lat="44.98709" lon="5.37486">
        <ele>1314</ele>
        <time>2019-06-15T08:03:36.086Z</time>
      </trkpt>
      <trkpt lat="44.98708" lon="5.37486">
        <ele>1314</ele>
        <time>2019-06-15T08:03:37.086Z</time>
      </trkpt>
      <trkpt lat="44.98707" lon="5.37486">
        <ele>1314</ele>
        <time>2019-06-15T08:03:38.086Z</time>
      </trkpt>
      <trkpt lat="44.98706" lon="5.37487">
        <ele>1315</ele>
        <time>2019-06-15T08:03:39.086Z</time>
      </trkpt>
      <trkpt lat="44.98706" lon="5.37487">
        <ele>1315</ele>
        <time>2019-06-15T08:03:40.086Z</time>
      </trkpt>
      <trkpt lat="44.98706" lon="5.37487">
        <ele>1315</ele>
        <time>2019-06-15T08:03:41.086Z</time>
      </trkpt>
      <trkpt lat="44.98705" lon="5.37487">
        <ele>1317</ele>
        <time>2019-06-15T08:03:42.086Z</time>
      </trkpt>
      <trkpt lat="44.98704" lon="5.37487">
        <ele>1318</ele>
        <time>2019-06-15T08:03:43.086Z</time>
      </trkpt>
      <trkpt lat="44.98703" lon="5.37487">
        <ele>1318</ele>
        <time>2019-06-15T08:03:44.086Z</time>
      </trkpt>
      <trkpt lat="44.98702" lon="5.37487">
        <ele>1318</ele>
        <time>2019-06-15T08:03:45.086Z</time>
      </trkpt>
      <trkpt lat="44.987" lon="5.37488">
        <ele>1319</ele>
        <time>2019-06-15T08:03:46.086Z</time>
      </trkpt>
      <trkpt lat="44.987" lon="5.37488">
        <ele>1318</ele>
        <time>2019-06-15T08:03:47.086Z</time>
      </trkpt>
      <trkpt lat="44.98699" lon="5.37489">
        <ele>1319</ele>
        <time>2019-06-15T08:03:48.086Z</time>
      </trkpt>
      <trkpt lat="44.98698" lon="5.3749">
        <ele>1319</ele>
        <time>2019-06-15T08:03:49.086Z</time>
      </trkpt>
      <trkpt lat="44.98698" lon="5.3749">
        <ele>1319</ele>
        <time>2019-06-15T08:03:50.086Z</time>
      </trkpt>
      <trkpt lat="44.98698" lon="5.37491">
        <ele>1319</ele>
        <time>2019-06-15T08:03:51.086Z</time>
      </trkpt>
      <trkpt lat="44.98697" lon="5.37492">
        <ele>1320</ele>
        <time>2019-06-15T08:03:52.086Z</time>
      </trkpt>
      <trkpt lat="44.98696" lon="5.37493">
        <ele>1320</ele>
        <time>2019-06-15T08:03:53.086Z</time>
      </trkpt>
      <trkpt lat="44.98695" lon="5.37494">
        <ele>1319</ele>
        <time>2019-06-15T08:03:54.086Z</time>
      </trkpt>
      <trkpt lat="44.98694" lon="5.37494">
        <ele>1320</ele>
        <time>2019-06-15T08:03:55.086Z</time>
      </trkpt>
      <trkpt lat="44.98693" lon="5.37494">
        <ele>1320</ele>
        <time>2019-06-15T08:03:56.086Z</time>
      </trkpt>
      <trkpt lat="44.98692" lon="5.37495">
        <ele>1321</ele>
        <time>2019-06-15T08:03:57.086Z</time>
      </trkpt>
      <trkpt lat="44.98691" lon="5.37495">
        <ele>1321</ele>
        <time>2019-06-15T08:03:58.086Z</time>
      </trkpt>
      <trkpt lat="44.9869" lon="5.37495">
        <ele>1322</ele>
        <time>2019-06-15T08:03:59.086Z</time>
      </trkpt>
      <trkpt lat="44.98689" lon="5.37495">
        <ele>1323</ele>
        <time>2019-06-15T08:04:00.086Z</time>
      </trkpt>
      <trkpt lat="44.98688" lon="5.37495">
        <ele>1323</ele>
        <time>2019-06-15T08:04:01.086Z</time>
      </trkpt>
      <trkpt lat="44.98687" lon="5.37496">
        <ele>1323</ele>
        <time>2019-06-15T08:04:02.086Z</time>
      </trkpt>
      <trkpt lat="44.98686" lon="5.37496">
        <ele>1323</ele>
        <time>2019-06-15T08:04:03.086Z</time>
      </trkpt>
      <trkpt lat="44.98685" lon="5.37496">
        <ele>1323</ele>
        <time>2019-06-15T08:04:04.086Z</time>
      </trkpt>
      <trkpt lat="44.98684" lon="5.37496">
        <ele>1324</ele>
        <time>2019-06-15T08:04:05.086Z</time>
      </trkpt>
      <trkpt lat="44.98683" lon="5.37497">
        <ele>1323</ele>
        <time>2019-06-15T08:04:06.086Z</time>
      </trkpt>
      <trkpt lat="44.98681" lon="5.37497">
        <ele>1322</ele>
        <time>2019-06-15T08:04:07.086Z</time>
      </trkpt>
      <trkpt lat="44.98679" lon="5.37497">
        <ele>1322</ele>
        <time>2019-06-15T08:04:08.086Z</time>
      </trkpt>
      <trkpt lat="44.98679" lon="5.37497">
        <ele>1322</ele>
        <time>2019-06-15T08:04:09.086Z</time>
      </trkpt>
      <trkpt lat="44.98678" lon="5.37498">
        <ele>1323</ele>
        <time>2019-06-15T08:04:10.086Z</time>
      </trkpt>
      <trkpt lat="44.98677" lon="5.37497">
        <ele>1323</ele>
        <time>2019-06-15T08:04:11.086Z</time>
      </trkpt>
      <trkpt lat="44.98676" lon="5.37497">
        <ele>1324</ele>
        <time>2019-06-15T08:04:12.086Z</time>
      </trkpt>
      <trkpt lat="44.98675" lon="5.37497">
        <ele>1324</ele>
        <time>2019-06-15T08:04:13.086Z</time>
      </trkpt>
      <trkpt lat="44.98674" lon="5.37497">
        <ele>1325</ele>
        <time>2019-06-15T08:04:14.086Z</time>
      </trkpt>
      <trkpt lat="44.98673" lon="5.37497">
        <ele>1326</ele>
        <time>2019-06-15T08:04:15.086Z</time>
      </trkpt>
      <trkpt lat="44.98673" lon="5.37497">
        <ele>1325</ele>
        <time>2019-06-15T08:04:16.086Z</time>
      </trkpt>
      <trkpt lat="44.98673" lon="5.37497">
        <ele>1326</ele>
        <time>2019-06-15T08:04:17.086Z</time>
      </trkpt>
      <trkpt lat="44.98672" lon="5.37497">
        <ele>1326</ele>
        <time>2019-06-15T08:04:18.086Z</time>
      </trkpt>
      <trkpt lat="44.98671" lon="5.37498">
        <ele>1327</ele>
        <time>2019-06-15T08:04:19.086Z</time>
      </trkpt>
      <trkpt lat="44.98671" lon="5.37498">
        <ele>1327</ele>
        <time>2019-06-15T08:04:20.086Z</time>
      </trkpt>
      <trkpt lat="44.98671" lon="5.37498">
        <ele>1327</ele>
        <time>2019-06-15T08:04:21.086Z</time>
      </trkpt>
      <trkpt lat="44.9867" lon="5.37498">
        <ele>1327</ele>
        <time>2019-06-15T08:04:22.086Z</time>
      </trkpt>
      <trkpt lat="44.9867" lon="5.37499">
        <ele>1328</ele>
        <time>2019-06-15T08:04:23.086Z</time>
      </trkpt>
      <trkpt lat="44.98669" lon="5.375">
        <ele>1328</ele>
        <time>2019-06-15T08:04:24.086Z</time>
      </trkpt>
      <trkpt lat="44.98669" lon="5.375">
        <ele>1328</ele>
        <time>2019-06-15T08:04:25.086Z</time>
      </trkpt>
      <trkpt lat="44.98667" lon="5.37501">
        <ele>1329</ele>
        <time>2019-06-15T08:04:26.086Z</time>
      </trkpt>
      <trkpt lat="44.98667" lon="5.37501">
        <ele>1329</ele>
        <time>2019-06-15T08:04:27.086Z</time>
      </trkpt>
      <trkpt lat="44.98666" lon="5.37501">
        <ele>1329</ele>
        <time>2019-06-15T08:04:28.086Z</time>
      </trkpt>
      <trkpt lat="44.98665" lon="5.37502">
        <ele>1330</ele>
        <time>2019-06-15T08:04:29.086Z</time>
      </trkpt>
      <trkpt lat="44.98663" lon="5.37503">
        <ele>1331</ele>
        <time>2019-06-15T08:04:30.086Z</time>
      </trkpt>
      <trkpt lat="44.98663" lon="5.37503">
        <ele>1331</ele>
        <time>2019-06-15T08:04:31.086Z</time>
      </trkpt>
      <trkpt lat="44.98662" lon="5.37503">
        <ele>1330</ele>
        <time>2019-06-15T08:04:32.086Z</time>
      </trkpt>
      <trkpt lat="44.98661" lon="5.37503">
        <ele>1330</ele>
        <time>2019-06-15T08:04:33.086Z</time>
      </trkpt>
      <trkpt lat="44.98661" lon="5.37504">
        <ele>1330</ele>
        <time>2019-06-15T08:04:34.086Z</time>
      </trkpt>
      <trkpt lat="44.9866" lon="5.37505">
        <ele>1330</ele>
        <time>2019-06-15T08:04:35.086Z</time>
      </trkpt>
      <trkpt lat="44.9866" lon="5.37505">
        <ele>1330</ele>
        <time>2019-06-15T08:04:36.086Z</time>
      </trkpt>
      <trkpt lat="44.98658" lon="5.37506">
        <ele>1330</ele>
        <time>2019-06-15T08:04:37.086Z</time>
      </trkpt>
      <trkpt lat="44.98658" lon="5.37506">
        <ele>1330</ele>
        <time>2019-06-15T08:04:38.086Z</time>
      </trkpt>
      <trkpt lat="44.98658" lon="5.37506">
        <ele>1330</ele>
        <time>2019-06-15T08:04:39.086Z</time>
      </trkpt>
      <trkpt lat="44.98657" lon="5.37506">
        <ele>1330</ele>
        <time>2019-06-15T08:04:40.086Z</time>
      </trkpt>
      <trkpt lat="44.98655" lon="5.37506">
        <ele>1330</ele>
        <time>2019-06-15T08:04:41.086Z</time>
      </trkpt>
      <trkpt lat="44.98654" lon="5.37506">
        <ele>1330</ele>
        <time>2019-06-15T08:04:42.086Z</time>
      </trkpt>
      <trkpt lat="44.98652" lon="5.37505">
        <ele>1330</ele>
        <time>2019-06-15T08:04:43.086Z</time>
      </trkpt>
      <trkpt lat="44.9865" lon="5.37505">
        <ele>1331</ele>
        <time>2019-06-15T08:04:44.086Z</time>
      </trkpt>
      <trkpt lat="44.98649" lon="5.37505">
        <ele>1331</ele>
        <time>2019-06-15T08:04:45.086Z</time>
      </trkpt>
      <trkpt lat="44.98647" lon="5.37506">
        <ele>1331</ele>
        <time>2019-06-15T08:04:46.086Z</time>
      </trkpt>
      <trkpt lat="44.98646" lon="5.37506">
        <ele>1330</ele>
        <time>2019-06-15T08:04:47.086Z</time>
      </trkpt>
      <trkpt lat="44.98644" lon="5.37506">
        <ele>1330</ele>
        <time>2019-06-15T08:04:48.086Z</time>
      </trkpt>
      <trkpt lat="44.98644" lon="5.37506">
        <ele>1330</ele>
        <time>2019-06-15T08:04:49.086Z</time>
      </trkpt>
      <trkpt lat="44.98643" lon="5.37506">
        <ele>1331</ele>
        <time>2019-06-15T08:04:50.086Z</time>
      </trkpt>
      <trkpt lat="44.98641" lon="5.37506">
        <ele>1330</ele>
        <time>2019-06-15T08:04:51.086Z</time>
      </trkpt>
      <trkpt lat="44.9864" lon="5.37506">
        <ele>1331</ele>
        <time>2019-06-15T08:04:52.086Z</time>
      </trkpt>
      <trkpt lat="44.98639" lon="5.37505">
        <ele>1331</ele>
        <time>2019-06-15T08:04:53.086Z</time>
      </trkpt>
      <trkpt lat="44.98638" lon="5.37503">
        <ele>1330</ele>
        <time>2019-06-15T08:04:54.086Z</time>
      </trkpt>
      <trkpt lat="44.98636" lon="5.37502">
        <ele>1331</ele>
        <time>2019-06-15T08:04:55.086Z</time>
      </trkpt>
      <trkpt lat="44.98635" lon="5.37502">
        <ele>1330</ele>
        <time>2019-06-15T08:04:56.086Z</time>
      </trkpt>
      <trkpt lat="44.98634" lon="5.37503">
        <ele>1332</ele>
        <time>2019-06-15T08:04:57.086Z</time>
      </trkpt>
      <trkpt lat="44.98634" lon="5.37503">
        <ele>1332</ele>
        <time>2019-06-15T08:04:58.086Z</time>
      </trkpt>
      <trkpt lat="44.98633" lon="5.37503">
        <ele>1333</ele>
        <time>2019-06-15T08:04:59.086Z</time>
      </trkpt>
      <trkpt lat="44.98633" lon="5.37502">
        <ele>1333</ele>
        <time>2019-06-15T08:05:00.086Z</time>
      </trkpt>
      <trkpt lat="44.98632" lon="5.37502">
        <ele>1331</ele>
        <time>2019-06-15T08:05:01.086Z</time>
      </trkpt>
      <trkpt lat="44.98631" lon="5.37501">
        <ele>1331</ele>
        <time>2019-06-15T08:05:02.086Z</time>
      </trkpt>
      <trkpt lat="44.98629" lon="5.37501">
        <ele>1331</ele>
        <time>2019-06-15T08:05:03.086Z</time>
      </trkpt>
      <trkpt lat="44.98628" lon="5.37501">
        <ele>1331</ele>
        <time>2019-06-15T08:05:04.086Z</time>
      </trkpt>
      <trkpt lat="44.98627" lon="5.375">
        <ele>1331</ele>
        <time>2019-06-15T08:05:05.086Z</time>
      </trkpt>
      <trkpt lat="44.98626" lon="5.375">
        <ele>1332</ele>
        <time>2019-06-15T08:05:06.086Z</time>
      </trkpt>
      <trkpt lat="44.98626" lon="5.375">
        <ele>1332</ele>
        <time>2019-06-15T08:05:07.086Z</time>
      </trkpt>
      <trkpt lat="44.98625" lon="5.375">
        <ele>1331</ele>
        <time>2019-06-15T08:05:08.086Z</time>
      </trkpt>
      <trkpt lat="44.98624" lon="5.37501">
        <ele>1332</ele>
        <time>2019-06-15T08:05:09.086Z</time>
      </trkpt>
      <trkpt lat="44.98624" lon="5.37501">
        <ele>1332</ele>
        <time>2019-06-15T08:05:10.086Z</time>
      </trkpt>
      <trkpt lat="44.98623" lon="5.37501">
        <ele>1334</ele>
        <time>2019-06-15T08:05:11.086Z</time>
      </trkpt>
      <trkpt lat="44.98622" lon="5.37501">
        <ele>1334</ele>
        <time>2019-06-15T08:05:12.086Z</time>
      </trkpt>
      <trkpt lat="44.98621" lon="5.375">
        <ele>1335</ele>
        <time>2019-06-15T08:05:13.086Z</time>
      </trkpt>
      <trkpt lat="44.9862" lon="5.375">
        <ele>1335</ele>
        <time>2019-06-15T08:05:14.086Z</time>
      </trkpt>
      <trkpt lat="44.98619" lon="5.375">
        <ele>1336</ele>
        <time>2019-06-15T08:05:15.086Z</time>
      </trkpt>
      <trkpt lat="44.98619" lon="5.375">
        <ele>1336</ele>
        <time>2019-06-15T08:05:16.086Z</time>
      </trkpt>
      <trkpt lat="44.98618" lon="5.37501">
        <ele>1336</ele>
        <time>2019-06-15T08:05:17.086Z</time>
      </trkpt>
      <trkpt lat="44.98617" lon="5.37501">
        <ele>1336</ele>
        <time>2019-06-15T08:05:18.086Z</time>
      </trkpt>
      <trkpt lat="44.98615" lon="5.37501">
        <ele>1336</ele>
        <time>2019-06-15T08:05:19.086Z</time>
      </trkpt>
      <trkpt lat="44.98613" lon="5.37501">
        <ele>1337</ele>
        <time>2019-06-15T08:05:20.086Z</time>
      </trkpt>
      <trkpt lat="44.98611" lon="5.37501">
        <ele>1338</ele>
        <time>2019-06-15T08:05:21.086Z</time>
      </trkpt>
      <trkpt lat="44.9861" lon="5.37501">
        <ele>1338</ele>
        <time>2019-06-15T08:05:22.086Z</time>
      </trkpt>
      <trkpt lat="44.98609" lon="5.37501">
        <ele>1338</ele>
        <time>2019-06-15T08:05:23.086Z</time>
      </trkpt>
      <trkpt lat="44.98608" lon="5.37502">
        <ele>1338</ele>
        <time>2019-06-15T08:05:24.086Z</time>
      </trkpt>
      <trkpt lat="44.98607" lon="5.37502">
        <ele>1339</ele>
        <time>2019-06-15T08:05:25.086Z</time>
      </trkpt>
      <trkpt lat="44.98606" lon="5.37502">
        <ele>1340</ele>
        <time>2019-06-15T08:05:26.086Z</time>
      </trkpt>
      <trkpt lat="44.98605" lon="5.37503">
        <ele>1340</ele>
        <time>2019-06-15T08:05:27.086Z</time>
      </trkpt>
      <trkpt lat="44.98604" lon="5.37503">
        <ele>1342</ele>
        <time>2019-06-15T08:05:28.086Z</time>
      </trkpt>
      <trkpt lat="44.98604" lon="5.37503">
        <ele>1342</ele>
        <time>2019-06-15T08:05:29.086Z</time>
      </trkpt>
      <trkpt lat="44.98603" lon="5.37503">
        <ele>1342</ele>
        <time>2019-06-15T08:05:30.086Z</time>
      </trkpt>
      <trkpt lat="44.98603" lon="5.37503">
        <ele>1342</ele>
        <time>2019-06-15T08:05:31.086Z</time>
      </trkpt>
      <trkpt lat="44.98602" lon="5.37504">
        <ele>1343</ele>
        <time>2019-06-15T08:05:32.086Z</time>
      </trkpt>
      <trkpt lat="44.98601" lon="5.37504">
        <ele>1343</ele>
        <time>2019-06-15T08:05:33.086Z</time>
      </trkpt>
      <trkpt lat="44.986" lon="5.37504">
        <ele>1344</ele>
        <time>2019-06-15T08:05:34.086Z</time>
      </trkpt>
      <trkpt lat="44.98599" lon="5.37504">
        <ele>1344</ele>
        <time>2019-06-15T08:05:35.086Z</time>
      </trkpt>
      <trkpt lat="44.98598" lon="5.37504">
        <ele>1343</ele>
        <time>2019-06-15T08:05:36.086Z</time>
      </trkpt>
      <trkpt lat="44.98597" lon="5.37504">
        <ele>1342</ele>
        <time>2019-06-15T08:05:37.086Z</time>
      </trkpt>
      <trkpt lat="44.98595" lon="5.37505">
        <ele>1341</ele>
        <time>2019-06-15T08:05:38.086Z</time>
      </trkpt>
      <trkpt lat="44.98592" lon="5.37505">
        <ele>1342</ele>
        <time>2019-06-15T08:05:39.086Z</time>
      </trkpt>
      <trkpt lat="44.98592" lon="5.37505">
        <ele>1342</ele>
        <time>2019-06-15T08:05:40.086Z</time>
      </trkpt>
      <trkpt lat="44.98591" lon="5.37506">
        <ele>1343</ele>
        <time>2019-06-15T08:05:41.086Z</time>
      </trkpt>
      <trkpt lat="44.98591" lon="5.37506">
        <ele>1343</ele>
        <time>2019-06-15T08:05:42.086Z</time>
      </trkpt>
      <trkpt lat="44.9859" lon="5.37507">
        <ele>1342</ele>
        <time>2019-06-15T08:05:43.086Z</time>
      </trkpt>
      <trkpt lat="44.9859" lon="5.37508">
        <ele>1342</ele>
        <time>2019-06-15T08:05:44.086Z</time>
      </trkpt>
      <trkpt lat="44.98589" lon="5.37509">
        <ele>1343</ele>
        <time>2019-06-15T08:05:45.086Z</time>
      </trkpt>
      <trkpt lat="44.98589" lon="5.3751">
        <ele>1343</ele>
        <time>2019-06-15T08:05:46.086Z</time>
      </trkpt>
      <trkpt lat="44.98589" lon="5.3751">
        <ele>1343</ele>
        <time>2019-06-15T08:05:47.086Z</time>
      </trkpt>
      <trkpt lat="44.98588" lon="5.3751">
        <ele>1343</ele>
        <time>2019-06-15T08:05:48.086Z</time>
      </trkpt>
      <trkpt lat="44.98588" lon="5.37511">
        <ele>1343</ele>
        <time>2019-06-15T08:05:49.086Z</time>
      </trkpt>
      <trkpt lat="44.98587" lon="5.37511">
        <ele>1344</ele>
        <time>2019-06-15T08:05:50.086Z</time>
      </trkpt>
      <trkpt lat="44.98586" lon="5.37512">
        <ele>1345</ele>
        <time>2019-06-15T08:05:51.086Z</time>
      </trkpt>
      <trkpt lat="44.98586" lon="5.37512">
        <ele>1343</ele>
        <time>2019-06-15T08:05:52.086Z</time>
      </trkpt>
      <trkpt lat="44.98587" lon="5.37513">
        <ele>1343</ele>
        <time>2019-06-15T08:05:53.086Z</time>
      </trkpt>
      <trkpt lat="44.98587" lon="5.37512">
        <ele>1345</ele>
        <time>2019-06-15T08:05:54.086Z</time>
      </trkpt>
      <trkpt lat="44.98587" lon="5.37512">
        <ele>1344</ele>
        <time>2019-06-15T08:05:55.086Z</time>
      </trkpt>
      <trkpt lat="44.98588" lon="5.37513">
        <ele>1345</ele>
        <time>2019-06-15T08:05:56.086Z</time>
      </trkpt>
      <trkpt lat="44.98589" lon="5.37514">
        <ele>1345</ele>
        <time>2019-06-15T08:05:57.086Z</time>
      </trkpt>
      <trkpt lat="44.98589" lon="5.37514">
        <ele>1345</ele>
        <time>2019-06-15T08:05:58.086Z</time>
      </trkpt>
      <trkpt lat="44.9859" lon="5.37515">
        <ele>1345</ele>
        <time>2019-06-15T08:05:59.086Z</time>
      </trkpt>
      <trkpt lat="44.9859" lon="5.37515">
        <ele>1346</ele>
        <time>2019-06-15T08:06:00.086Z</time>
      </trkpt>
      <trkpt lat="44.9859" lon="5.37516">
        <ele>1347</ele>
        <time>2019-06-15T08:06:01.086Z</time>
      </trkpt>
      <trkpt lat="44.98591" lon="5.37515">
        <ele>1347</ele>
        <time>2019-06-15T08:06:02.086Z</time>
      </trkpt>
      <trkpt lat="44.98591" lon="5.37515">
        <ele>1348</ele>
        <time>2019-06-15T08:06:03.086Z</time>
      </trkpt>
      <trkpt lat="44.98591" lon="5.37514">
        <ele>1347</ele>
        <time>2019-06-15T08:06:04.086Z</time>
      </trkpt>
      <trkpt lat="44.98591" lon="5.37514">
        <ele>1347</ele>
        <time>2019-06-15T08:06:05.086Z</time>
      </trkpt>
      <trkpt lat="44.98591" lon="5.37514">
        <ele>1347</ele>
        <time>2019-06-15T08:06:06.086Z</time>
      </trkpt>
      <trkpt lat="44.98591" lon="5.37514">
        <ele>1347</ele>
        <time>2019-06-15T08:06:07.086Z</time>
      </trkpt>
      <trkpt lat="44.98592" lon="5.37514">
        <ele>1347</ele>
        <time>2019-06-15T08:06:08.086Z</time>
      </trkpt>
      <trkpt lat="44.98592" lon="5.37514">
        <ele>1348</ele>
        <time>2019-06-15T08:06:09.086Z</time>
      </trkpt>
      <trkpt lat="44.98593" lon="5.37514">
        <ele>1349</ele>
        <time>2019-06-15T08:06:10.086Z</time>
      </trkpt>
      <trkpt lat="44.98593" lon="5.37514">
        <ele>1349</ele>
        <time>2019-06-15T08:06:11.086Z</time>
      </trkpt>
      <trkpt lat="44.98594" lon="5.37514">
        <ele>1349</ele>
        <time>2019-06-15T08:06:12.086Z</time>
      </trkpt>
      <trkpt lat="44.98595" lon="5.37514">
        <ele>1349</ele>
        <time>2019-06-15T08:06:13.086Z</time>
      </trkpt>
      <trkpt lat="44.98596" lon="5.37514">
        <ele>1349</ele>
        <time>2019-06-15T08:06:14.086Z</time>
      </trkpt>
      <trkpt lat="44.98598" lon="5.37516">
        <ele>1350</ele>
        <time>2019-06-15T08:06:15.086Z</time>
      </trkpt>
      <trkpt lat="44.98598" lon="5.37516">
        <ele>1350</ele>
        <time>2019-06-15T08:06:16.086Z</time>
      </trkpt>
      <trkpt lat="44.986" lon="5.37516">
        <ele>1350</ele>
        <time>2019-06-15T08:06:17.086Z</time>
      </trkpt>
      <trkpt lat="44.98603" lon="5.37517">
        <ele>1350</ele>
        <time>2019-06-15T08:06:18.086Z</time>
      </trkpt>
      <trkpt lat="44.98605" lon="5.37517">
        <ele>1350</ele>
        <time>2019-06-15T08:06:19.086Z</time>
      </trkpt>
      <trkpt lat="44.98607" lon="5.37518">
        <ele>1350</ele>
        <time>2019-06-15T08:06:20.086Z</time>
      </trkpt>
      <trkpt lat="44.98608" lon="5.37518">
        <ele>1350</ele>
        <time>2019-06-15T08:06:21.086Z</time>
      </trkpt>
      <trkpt lat="44.9861" lon="5.37518">
        <ele>1350</ele>
        <time>2019-06-15T08:06:22.086Z</time>
      </trkpt>
      <trkpt lat="44.98611" lon="5.37518">
        <ele>1351</ele>
        <time>2019-06-15T08:06:23.086Z</time>
      </trkpt>
      <trkpt lat="44.98612" lon="5.37518">
        <ele>1351</ele>
        <time>2019-06-15T08:06:24.086Z</time>
      </trkpt>
      <trkpt lat="44.98613" lon="5.37519">
        <ele>1351</ele>
        <time>2019-06-15T08:06:25.086Z</time>
      </trkpt>
      <trkpt lat="44.98615" lon="5.37521">
        <ele>1352</ele>
        <time>2019-06-15T08:06:26.086Z</time>
      </trkpt>
      <trkpt lat="44.98615" lon="5.37521">
        <ele>1352</ele>
        <time>2019-06-15T08:06:27.086Z</time>
      </trkpt>
      <trkpt lat="44.98617" lon="5.37522">
        <ele>1352</ele>
        <time>2019-06-15T08:06:28.086Z</time>
      </trkpt>
      <trkpt lat="44.98618" lon="5.37523">
        <ele>1352</ele>
        <time>2019-06-15T08:06:29.086Z</time>
      </trkpt>
      <trkpt lat="44.9862" lon="5.37524">
        <ele>1353</ele>
        <time>2019-06-15T08:06:30.086Z</time>
      </trkpt>
      <trkpt lat="44.98621" lon="5.37525">
        <ele>1353</ele>
        <time>2019-06-15T08:06:31.086Z</time>
      </trkpt>
      <trkpt lat="44.98622" lon="5.37526">
        <ele>1354</ele>
        <time>2019-06-15T08:06:32.086Z</time>
      </trkpt>
      <trkpt lat="44.98623" lon="5.37527">
        <ele>1354</ele>
        <time>2019-06-15T08:06:33.086Z</time>
      </trkpt>
      <trkpt lat="44.98624" lon="5.37528">
        <ele>1354</ele>
        <time>2019-06-15T08:06:34.086Z</time>
      </trkpt>
      <trkpt lat="44.98624" lon="5.37528">
        <ele>1355</ele>
        <time>2019-06-15T08:06:35.086Z</time>
      </trkpt>
      <trkpt lat="44.98625" lon="5.37528">
        <ele>1357</ele>
        <time>2019-06-15T08:06:36.086Z</time>
      </trkpt>
      <trkpt lat="44.98625" lon="5.37528">
        <ele>1358</ele>
        <time>2019-06-15T08:06:37.086Z</time>
      </trkpt>
      <trkpt lat="44.98626" lon="5.37528">
        <ele>1358</ele>
        <time>2019-06-15T08:06:38.086Z</time>
      </trkpt>
      <trkpt lat="44.98627" lon="5.37528">
        <ele>1358</ele>
        <time>2019-06-15T08:06:39.086Z</time>
      </trkpt>
      <trkpt lat="44.98627" lon="5.37529">
        <ele>1357</ele>
        <time>2019-06-15T08:06:40.086Z</time>
      </trkpt>
      <trkpt lat="44.98628" lon="5.37529">
        <ele>1358</ele>
        <time>2019-06-15T08:06:41.086Z</time>
      </trkpt>
      <trkpt lat="44.98629" lon="5.37529">
        <ele>1358</ele>
        <time>2019-06-15T08:06:42.086Z</time>
      </trkpt>
      <trkpt lat="44.9863" lon="5.37529">
        <ele>1358</ele>
        <time>2019-06-15T08:06:43.086Z</time>
      </trkpt>
      <trkpt lat="44.9863" lon="5.3753">
        <ele>1358</ele>
        <time>2019-06-15T08:06:44.086Z</time>
      </trkpt>
      <trkpt lat="44.98632" lon="5.37531">
        <ele>1359</ele>
        <time>2019-06-15T08:06:45.086Z</time>
      </trkpt>
      <trkpt lat="44.98633" lon="5.37532">
        <ele>1359</ele>
        <time>2019-06-15T08:06:46.086Z</time>
      </trkpt>
      <trkpt lat="44.98634" lon="5.37533">
        <ele>1359</ele>
        <time>2019-06-15T08:06:47.086Z</time>
      </trkpt>
      <trkpt lat="44.98635" lon="5.37533">
        <ele>1360</ele>
        <time>2019-06-15T08:06:48.086Z</time>
      </trkpt>
      <trkpt lat="44.98636" lon="5.37533">
        <ele>1360</ele>
        <time>2019-06-15T08:06:49.086Z</time>
      </trkpt>
      <trkpt lat="44.98636" lon="5.37533">
        <ele>1360</ele>
        <time>2019-06-15T08:06:50.086Z</time>
      </trkpt>
      <trkpt lat="44.98637" lon="5.37534">
        <ele>1361</ele>
        <time>2019-06-15T08:06:51.086Z</time>
      </trkpt>
      <trkpt lat="44.98638" lon="5.37534">
        <ele>1361</ele>
        <time>2019-06-15T08:06:52.086Z</time>
      </trkpt>
      <trkpt lat="44.98639" lon="5.37535">
        <ele>1361</ele>
        <time>2019-06-15T08:06:53.086Z</time>
      </trkpt>
      <trkpt lat="44.9864" lon="5.37535">
        <ele>1362</ele>
        <time>2019-06-15T08:06:54.086Z</time>
      </trkpt>
      <trkpt lat="44.98642" lon="5.37537">
        <ele>1362</ele>
        <time>2019-06-15T08:06:55.086Z</time>
      </trkpt>
      <trkpt lat="44.98642" lon="5.37537">
        <ele>1362</ele>
        <time>2019-06-15T08:06:56.086Z</time>
      </trkpt>
      <trkpt lat="44.98643" lon="5.37537">
        <ele>1363</ele>
        <time>2019-06-15T08:06:57.086Z</time>
      </trkpt>
      <trkpt lat="44.98643" lon="5.37538">
        <ele>1364</ele>
        <time>2019-06-15T08:06:58.086Z</time>
      </trkpt>
      <trkpt lat="44.98644" lon="5.37538">
        <ele>1365</ele>
        <time>2019-06-15T08:06:59.086Z</time>
      </trkpt>
      <trkpt lat="44.98644" lon="5.37538">
        <ele>1365</ele>
        <time>2019-06-15T08:07:00.086Z</time>
      </trkpt>
      <trkpt lat="44.98644" lon="5.37539">
        <ele>1365</ele>
        <time>2019-06-15T08:07:01.086Z</time>
      </trkpt>
      <trkpt lat="44.98645" lon="5.37541">
        <ele>1365</ele>
        <time>2019-06-15T08:07:02.086Z</time>
      </trkpt>
      <trkpt lat="44.98646" lon="5.37543">
        <ele>1364</ele>
        <time>2019-06-15T08:07:03.086Z</time>
      </trkpt>
      <trkpt lat="44.98647" lon="5.37546">
        <ele>1364</ele>
        <time>2019-06-15T08:07:04.086Z</time>
      </trkpt>
      <trkpt lat="44.98648" lon="5.37547">
        <ele>1365</ele>
        <time>2019-06-15T08:07:05.086Z</time>
      </trkpt>
      <trkpt lat="44.9865" lon="5.37549">
        <ele>1365</ele>
        <time>2019-06-15T08:07:06.086Z</time>
      </trkpt>
      <trkpt lat="44.9865" lon="5.3755">
        <ele>1366</ele>
        <time>2019-06-15T08:07:07.086Z</time>
      </trkpt>
      <trkpt lat="44.9865" lon="5.3755">
        <ele>1366</ele>
        <time>2019-06-15T08:07:08.086Z</time>
      </trkpt>
      <trkpt lat="44.98652" lon="5.37551">
        <ele>1366</ele>
        <time>2019-06-15T08:07:09.086Z</time>
      </trkpt>
      <trkpt lat="44.98653" lon="5.37551">
        <ele>1366</ele>
        <time>2019-06-15T08:07:10.086Z</time>
      </trkpt>
      <trkpt lat="44.98653" lon="5.37552">
        <ele>1366</ele>
        <time>2019-06-15T08:07:11.086Z</time>
      </trkpt>
      <trkpt lat="44.98654" lon="5.37553">
        <ele>1366</ele>
        <time>2019-06-15T08:07:12.086Z</time>
      </trkpt>
      <trkpt lat="44.98655" lon="5.37553">
        <ele>1369</ele>
        <time>2019-06-15T08:07:13.086Z</time>
      </trkpt>
      <trkpt lat="44.98655" lon="5.37553">
        <ele>1369</ele>
        <time>2019-06-15T08:07:14.086Z</time>
      </trkpt>
      <trkpt lat="44.98655" lon="5.37553">
        <ele>1369</ele>
        <time>2019-06-15T08:07:15.086Z</time>
      </trkpt>
      <trkpt lat="44.98656" lon="5.37553">
        <ele>1370</ele>
        <time>2019-06-15T08:07:16.086Z</time>
      </trkpt>
      <trkpt lat="44.98656" lon="5.37553">
        <ele>1370</ele>
        <time>2019-06-15T08:07:17.086Z</time>
      </trkpt>
      <trkpt lat="44.98656" lon="5.37554">
        <ele>1370</ele>
        <time>2019-06-15T08:07:18.086Z</time>
      </trkpt>
      <trkpt lat="44.98656" lon="5.37554">
        <ele>1371</ele>
        <time>2019-06-15T08:07:19.086Z</time>
      </trkpt>
      <trkpt lat="44.98657" lon="5.37554">
        <ele>1371</ele>
        <time>2019-06-15T08:07:20.086Z</time>
      </trkpt>
      <trkpt lat="44.98657" lon="5.37555">
        <ele>1371</ele>
        <time>2019-06-15T08:07:21.086Z</time>
      </trkpt>
      <trkpt lat="44.98657" lon="5.37556">
        <ele>1371</ele>
        <time>2019-06-15T08:07:22.086Z</time>
      </trkpt>
      <trkpt lat="44.98658" lon="5.37557">
        <ele>1371</ele>
        <time>2019-06-15T08:07:23.086Z</time>
      </trkpt>
      <trkpt lat="44.98658" lon="5.37557">
        <ele>1371</ele>
        <time>2019-06-15T08:07:24.086Z</time>
      </trkpt>
      <trkpt lat="44.98659" lon="5.37558">
        <ele>1371</ele>
        <time>2019-06-15T08:07:25.086Z</time>
      </trkpt>
      <trkpt lat="44.98659" lon="5.37558">
        <ele>1372</ele>
        <time>2019-06-15T08:07:26.086Z</time>
      </trkpt>
      <trkpt lat="44.9866" lon="5.37559">
        <ele>1373</ele>
        <time>2019-06-15T08:07:27.086Z</time>
      </trkpt>
      <trkpt lat="44.98661" lon="5.37559">
        <ele>1373</ele>
        <time>2019-06-15T08:07:28.086Z</time>
      </trkpt>
      <trkpt lat="44.98661" lon="5.3756">
        <ele>1374</ele>
        <time>2019-06-15T08:07:29.086Z</time>
      </trkpt>
      <trkpt lat="44.98662" lon="5.3756">
        <ele>1374</ele>
        <time>2019-06-15T08:07:30.086Z</time>
      </trkpt>
      <trkpt lat="44.98663" lon="5.37561">
        <ele>1375</ele>
        <time>2019-06-15T08:07:31.086Z</time>
      </trkpt>
      <trkpt lat="44.98663" lon="5.37561">
        <ele>1376</ele>
        <time>2019-06-15T08:07:32.086Z</time>
      </trkpt>
      <trkpt lat="44.98664" lon="5.37562">
        <ele>1376</ele>
        <time>2019-06-15T08:07:33.086Z</time>
      </trkpt>
      <trkpt lat="44.98664" lon="5.37562">
        <ele>1376</ele>
        <time>2019-06-15T08:07:34.086Z</time>
      </trkpt>
      <trkpt lat="44.98665" lon="5.37562">
        <ele>1377</ele>
        <time>2019-06-15T08:07:35.086Z</time>
      </trkpt>
      <trkpt lat="44.98665" lon="5.37562">
        <ele>1377</ele>
        <time>2019-06-15T08:07:36.086Z</time>
      </trkpt>
      <trkpt lat="44.98666" lon="5.37563">
        <ele>1377</ele>
        <time>2019-06-15T08:07:37.086Z</time>
      </trkpt>
      <trkpt lat="44.98666" lon="5.37564">
        <ele>1376</ele>
        <time>2019-06-15T08:07:38.086Z</time>
      </trkpt>
      <trkpt lat="44.98665" lon="5.37564">
        <ele>1376</ele>
        <time>2019-06-15T08:07:39.086Z</time>
      </trkpt>
      <trkpt lat="44.98664" lon="5.37564">
        <ele>1376</ele>
        <time>2019-06-15T08:07:40.086Z</time>
      </trkpt>
      <trkpt lat="44.98664" lon="5.37568">
        <ele>1377</ele>
        <time>2019-06-15T08:07:41.094Z</time>
      </trkpt>
      <trkpt lat="44.98664" lon="5.37569">
        <ele>1377</ele>
        <time>2019-06-15T08:07:42.094Z</time>
      </trkpt>
      <trkpt lat="44.98664" lon="5.37569">
        <ele>1378</ele>
        <time>2019-06-15T08:07:43.094Z</time>
      </trkpt>
      <trkpt lat="44.98664" lon="5.3757">
        <ele>1378</ele>
        <time>2019-06-15T08:07:44.094Z</time>
      </trkpt>
      <trkpt lat="44.98664" lon="5.3757">
        <ele>1379</ele>
        <time>2019-06-15T08:07:45.094Z</time>
      </trkpt>
      <trkpt lat="44.98665" lon="5.3757">
        <ele>1379</ele>
        <time>2019-06-15T08:07:46.094Z</time>
      </trkpt>
      <trkpt lat="44.98665" lon="5.3757">
        <ele>1380</ele>
        <time>2019-06-15T08:07:47.094Z</time>
      </trkpt>
      <trkpt lat="44.98665" lon="5.37571">
        <ele>1381</ele>
        <time>2019-06-15T08:07:48.094Z</time>
      </trkpt>
      <trkpt lat="44.98666" lon="5.37572">
        <ele>1381</ele>
        <time>2019-06-15T08:07:49.094Z</time>
      </trkpt>
      <trkpt lat="44.98667" lon="5.37573">
        <ele>1382</ele>
        <time>2019-06-15T08:07:50.094Z</time>
      </trkpt>
      <trkpt lat="44.98667" lon="5.37575">
        <ele>1383</ele>
        <time>2019-06-15T08:07:51.094Z</time>
      </trkpt>
      <trkpt lat="44.98667" lon="5.37576">
        <ele>1384</ele>
        <time>2019-06-15T08:07:52.094Z</time>
      </trkpt>
      <trkpt lat="44.98668" lon="5.37576">
        <ele>1384</ele>
        <time>2019-06-15T08:07:53.094Z</time>
      </trkpt>
      <trkpt lat="44.98668" lon="5.37576">
        <ele>1383</ele>
        <time>2019-06-15T08:07:54.094Z</time>
      </trkpt>
      <trkpt lat="44.98669" lon="5.37577">
        <ele>1382</ele>
        <time>2019-06-15T08:07:55.094Z</time>
      </trkpt>
      <trkpt lat="44.98669" lon="5.37577">
        <ele>1383</ele>
        <time>2019-06-15T08:07:56.094Z</time>
      </trkpt>
      <trkpt lat="44.9867" lon="5.37578">
        <ele>1383</ele>
        <time>2019-06-15T08:07:57.094Z</time>
      </trkpt>
      <trkpt lat="44.9867" lon="5.37578">
        <ele>1384</ele>
        <time>2019-06-15T08:07:58.094Z</time>
      </trkpt>
      <trkpt lat="44.98672" lon="5.37579">
        <ele>1383</ele>
        <time>2019-06-15T08:07:59.094Z</time>
      </trkpt>
      <trkpt lat="44.98672" lon="5.37579">
        <ele>1383</ele>
        <time>2019-06-15T08:08:00.094Z</time>
      </trkpt>
      <trkpt lat="44.98672" lon="5.3758">
        <ele>1384</ele>
        <time>2019-06-15T08:08:01.094Z</time>
      </trkpt>
      <trkpt lat="44.98673" lon="5.37581">
        <ele>1383</ele>
        <time>2019-06-15T08:08:02.094Z</time>
      </trkpt>
      <trkpt lat="44.98673" lon="5.37581">
        <ele>1383</ele>
        <time>2019-06-15T08:08:03.094Z</time>
      </trkpt>
      <trkpt lat="44.98673" lon="5.37582">
        <ele>1383</ele>
        <time>2019-06-15T08:08:04.094Z</time>
      </trkpt>
      <trkpt lat="44.98674" lon="5.37582">
        <ele>1384</ele>
        <time>2019-06-15T08:08:05.094Z</time>
      </trkpt>
      <trkpt lat="44.98675" lon="5.37581">
        <ele>1384</ele>
        <time>2019-06-15T08:08:06.094Z</time>
      </trkpt>
      <trkpt lat="44.98675" lon="5.37581">
        <ele>1384</ele>
        <time>2019-06-15T08:08:07.094Z</time>
      </trkpt>
      <trkpt lat="44.98676" lon="5.37582">
        <ele>1384</ele>
        <time>2019-06-15T08:08:08.094Z</time>
      </trkpt>
      <trkpt lat="44.98677" lon="5.37582">
        <ele>1385</ele>
        <time>2019-06-15T08:08:09.094Z</time>
      </trkpt>
      <trkpt lat="44.98677" lon="5.37582">
        <ele>1385</ele>
        <time>2019-06-15T08:08:10.094Z</time>
      </trkpt>
      <trkpt lat="44.98677" lon="5.37582">
        <ele>1385</ele>
        <time>2019-06-15T08:08:11.094Z</time>
      </trkpt>
      <trkpt lat="44.98677" lon="5.37582">
        <ele>1386</ele>
        <time>2019-06-15T08:08:12.094Z</time>
      </trkpt>
      <trkpt lat="44.98677" lon="5.37582">
        <ele>1386</ele>
        <time>2019-06-15T08:08:13.094Z</time>
      </trkpt>
      <trkpt lat="44.98677" lon="5.37582">
        <ele>1386</ele>
        <time>2019-06-15T08:08:14.094Z</time>
      </trkpt>
      <trkpt lat="44.98678" lon="5.37582">
        <ele>1387</ele>
        <time>2019-06-15T08:08:15.094Z</time>
      </trkpt>
      <trkpt lat="44.98678" lon="5.37583">
        <ele>1387</ele>
        <time>2019-06-15T08:08:16.094Z</time>
      </trkpt>
      <trkpt lat="44.98678" lon="5.37583">
        <ele>1387</ele>
        <time>2019-06-15T08:08:17.094Z</time>
      </trkpt>
      <trkpt lat="44.98678" lon="5.37583">
        <ele>1388</ele>
        <time>2019-06-15T08:08:18.094Z</time>
      </trkpt>
      <trkpt lat="44.98679" lon="5.37584">
        <ele>1388</ele>
        <time>2019-06-15T08:08:19.094Z</time>
      </trkpt>
      <trkpt lat="44.98679" lon="5.37585">
        <ele>1388</ele>
        <time>2019-06-15T08:08:20.094Z</time>
      </trkpt>
      <trkpt lat="44.9868" lon="5.37585">
        <ele>1388</ele>
        <time>2019-06-15T08:08:21.094Z</time>
      </trkpt>
      <trkpt lat="44.98681" lon="5.37585">
        <ele>1388</ele>
        <time>2019-06-15T08:08:22.094Z</time>
      </trkpt>
      <trkpt lat="44.98681" lon="5.37585">
        <ele>1389</ele>
        <time>2019-06-15T08:08:23.094Z</time>
      </trkpt>
      <trkpt lat="44.98681" lon="5.37585">
        <ele>1390</ele>
        <time>2019-06-15T08:08:24.094Z</time>
      </trkpt>
      <trkpt lat="44.98682" lon="5.37585">
        <ele>1391</ele>
        <time>2019-06-15T08:08:25.094Z</time>
      </trkpt>
      <trkpt lat="44.98683" lon="5.37585">
        <ele>1391</ele>
        <time>2019-06-15T08:08:26.094Z</time>
      </trkpt>
      <trkpt lat="44.98683" lon="5.37585">
        <ele>1393</ele>
        <time>2019-06-15T08:08:27.094Z</time>
      </trkpt>
      <trkpt lat="44.98684" lon="5.37586">
        <ele>1393</ele>
        <time>2019-06-15T08:08:28.094Z</time>
      </trkpt>
      <trkpt lat="44.98684" lon="5.37586">
        <ele>1396</ele>
        <time>2019-06-15T08:08:29.094Z</time>
      </trkpt>
      <trkpt lat="44.98685" lon="5.37586">
        <ele>1396</ele>
        <time>2019-06-15T08:08:30.094Z</time>
      </trkpt>
      <trkpt lat="44.98685" lon="5.37587">
        <ele>1395</ele>
        <time>2019-06-15T08:08:31.094Z</time>
      </trkpt>
      <trkpt lat="44.98685" lon="5.37588">
        <ele>1395</ele>
        <time>2019-06-15T08:08:32.094Z</time>
      </trkpt>
      <trkpt lat="44.98684" lon="5.37589">
        <ele>1395</ele>
        <time>2019-06-15T08:08:33.094Z</time>
      </trkpt>
      <trkpt lat="44.98683" lon="5.37589">
        <ele>1395</ele>
        <time>2019-06-15T08:08:34.094Z</time>
      </trkpt>
      <trkpt lat="44.98682" lon="5.3759">
        <ele>1394</ele>
        <time>2019-06-15T08:08:35.094Z</time>
      </trkpt>
      <trkpt lat="44.98682" lon="5.3759">
        <ele>1394</ele>
        <time>2019-06-15T08:08:36.094Z</time>
      </trkpt>
      <trkpt lat="44.98682" lon="5.37591">
        <ele>1394</ele>
        <time>2019-06-15T08:08:37.094Z</time>
      </trkpt>
      <trkpt lat="44.98682" lon="5.37592">
        <ele>1394</ele>
        <time>2019-06-15T08:08:38.094Z</time>
      </trkpt>
      <trkpt lat="44.98682" lon="5.37592">
        <ele>1394</ele>
        <time>2019-06-15T08:08:39.094Z</time>
      </trkpt>
      <trkpt lat="44.98682" lon="5.37592">
        <ele>1394</ele>
        <time>2019-06-15T08:08:40.094Z</time>
      </trkpt>
      <trkpt lat="44.98682" lon="5.37592">
        <ele>1393</ele>
        <time>2019-06-15T08:08:41.094Z</time>
      </trkpt>
      <trkpt lat="44.98682" lon="5.37593">
        <ele>1394</ele>
        <time>2019-06-15T08:08:42.094Z</time>
      </trkpt>
      <trkpt lat="44.98682" lon="5.37593">
        <ele>1393</ele>
        <time>2019-06-15T08:08:43.094Z</time>
      </trkpt>
      <trkpt lat="44.98687" lon="5.37599">
        <ele>1396</ele>
        <time>2019-06-15T08:08:44.102Z</time>
      </trkpt>
      <trkpt lat="44.98688" lon="5.37599">
        <ele>1396</ele>
        <time>2019-06-15T08:08:45.102Z</time>
      </trkpt>
      <trkpt lat="44.98689" lon="5.37599">
        <ele>1396</ele>
        <time>2019-06-15T08:08:46.102Z</time>
      </trkpt>
      <trkpt lat="44.9869" lon="5.37599">
        <ele>1397</ele>
        <time>2019-06-15T08:08:47.102Z</time>
      </trkpt>
      <trkpt lat="44.98691" lon="5.37599">
        <ele>1397</ele>
        <time>2019-06-15T08:08:48.102Z</time>
      </trkpt>
      <trkpt lat="44.98692" lon="5.37598">
        <ele>1397</ele>
        <time>2019-06-15T08:08:49.102Z</time>
      </trkpt>
      <trkpt lat="44.98693" lon="5.37598">
        <ele>1397</ele>
        <time>2019-06-15T08:08:50.102Z</time>
      </trkpt>
      <trkpt lat="44.98694" lon="5.37598">
        <ele>1397</ele>
        <time>2019-06-15T08:08:51.102Z</time>
      </trkpt>
      <trkpt lat="44.98694" lon="5.37598">
        <ele>1397</ele>
        <time>2019-06-15T08:08:52.102Z</time>
      </trkpt>
      <trkpt lat="44.98695" lon="5.37599">
        <ele>1397</ele>
        <time>2019-06-15T08:08:53.102Z</time>
      </trkpt>
      <trkpt lat="44.98696" lon="5.376">
        <ele>1397</ele>
        <time>2019-06-15T08:08:54.102Z</time>
      </trkpt>
      <trkpt lat="44.98697" lon="5.37601">
        <ele>1398</ele>
        <time>2019-06-15T08:08:55.102Z</time>
      </trkpt>
      <trkpt lat="44.98697" lon="5.37601">
        <ele>1398</ele>
        <time>2019-06-15T08:08:56.102Z</time>
      </trkpt>
      <trkpt lat="44.98698" lon="5.37601">
        <ele>1397</ele>
        <time>2019-06-15T08:08:57.102Z</time>
      </trkpt>
      <trkpt lat="44.98699" lon="5.37601">
        <ele>1398</ele>
        <time>2019-06-15T08:08:58.102Z</time>
      </trkpt>
      <trkpt lat="44.98701" lon="5.37602">
        <ele>1397</ele>
        <time>2019-06-15T08:08:59.102Z</time>
      </trkpt>
      <trkpt lat="44.98702" lon="5.37602">
        <ele>1398</ele>
        <time>2019-06-15T08:09:00.102Z</time>
      </trkpt>
      <trkpt lat="44.98702" lon="5.37603">
        <ele>1397</ele>
        <time>2019-06-15T08:09:01.102Z</time>
      </trkpt>
      <trkpt lat="44.98704" lon="5.37603">
        <ele>1398</ele>
        <time>2019-06-15T08:09:02.102Z</time>
      </trkpt>
      <trkpt lat="44.98704" lon="5.37603">
        <ele>1398</ele>
        <time>2019-06-15T08:09:03.102Z</time>
      </trkpt>
      <trkpt lat="44.98705" lon="5.37604">
        <ele>1399</ele>
        <time>2019-06-15T08:09:04.102Z</time>
      </trkpt>
      <trkpt lat="44.98706" lon="5.37604">
        <ele>1399</ele>
        <time>2019-06-15T08:09:05.102Z</time>
      </trkpt>
      <trkpt lat="44.98707" lon="5.37605">
        <ele>1399</ele>
        <time>2019-06-15T08:09:06.102Z</time>
      </trkpt>
      <trkpt lat="44.98707" lon="5.37605">
        <ele>1399</ele>
        <time>2019-06-15T08:09:07.102Z</time>
      </trkpt>
      <trkpt lat="44.98708" lon="5.37606">
        <ele>1399</ele>
        <time>2019-06-15T08:09:08.102Z</time>
      </trkpt>
      <trkpt lat="44.98709" lon="5.37607">
        <ele>1400</ele>
        <time>2019-06-15T08:09:09.102Z</time>
      </trkpt>
      <trkpt lat="44.9871" lon="5.37607">
        <ele>1399</ele>
        <time>2019-06-15T08:09:10.102Z</time>
      </trkpt>
      <trkpt lat="44.9871" lon="5.37607">
        <ele>1400</ele>
        <time>2019-06-15T08:09:11.102Z</time>
      </trkpt>
      <trkpt lat="44.9871" lon="5.37607">
        <ele>1401</ele>
        <time>2019-06-15T08:09:12.102Z</time>
      </trkpt>
      <trkpt lat="44.9871" lon="5.37607">
        <ele>1401</ele>
        <time>2019-06-15T08:09:13.102Z</time>
      </trkpt>
      <trkpt lat="44.9871" lon="5.37606">
        <ele>1402</ele>
        <time>2019-06-15T08:09:14.102Z</time>
      </trkpt>
      <trkpt lat="44.9871" lon="5.37606">
        <ele>1402</ele>
        <time>2019-06-15T08:09:15.102Z</time>
      </trkpt>
      <trkpt lat="44.9871" lon="5.37606">
        <ele>1401</ele>
        <time>2019-06-15T08:09:16.102Z</time>
      </trkpt>
      <trkpt lat="44.98711" lon="5.37607">
        <ele>1401</ele>
        <time>2019-06-15T08:09:17.102Z</time>
      </trkpt>
      <trkpt lat="44.98711" lon="5.37608">
        <ele>1402</ele>
        <time>2019-06-15T08:09:18.102Z</time>
      </trkpt>
      <trkpt lat="44.98711" lon="5.37609">
        <ele>1402</ele>
        <time>2019-06-15T08:09:19.102Z</time>
      </trkpt>
      <trkpt lat="44.98711" lon="5.37611">
        <ele>1402</ele>
        <time>2019-06-15T08:09:20.102Z</time>
      </trkpt>
      <trkpt lat="44.98711" lon="5.37611">
        <ele>1402</ele>
        <time>2019-06-15T08:09:21.102Z</time>
      </trkpt>
      <trkpt lat="44.98712" lon="5.37611">
        <ele>1401</ele>
        <time>2019-06-15T08:09:22.102Z</time>
      </trkpt>
      <trkpt lat="44.98712" lon="5.37612">
        <ele>1402</ele>
        <time>2019-06-15T08:09:23.102Z</time>
      </trkpt>
      <trkpt lat="44.98712" lon="5.37612">
        <ele>1402</ele>
        <time>2019-06-15T08:09:24.102Z</time>
      </trkpt>
      <trkpt lat="44.98712" lon="5.37613">
        <ele>1402</ele>
        <time>2019-06-15T08:09:25.102Z</time>
      </trkpt>
      <trkpt lat="44.98713" lon="5.37613">
        <ele>1403</ele>
        <time>2019-06-15T08:09:26.102Z</time>
      </trkpt>
      <trkpt lat="44.98713" lon="5.37614">
        <ele>1403</ele>
        <time>2019-06-15T08:09:27.102Z</time>
      </trkpt>
      <trkpt lat="44.98714" lon="5.37614">
        <ele>1403</ele>
        <time>2019-06-15T08:09:28.102Z</time>
      </trkpt>
      <trkpt lat="44.98714" lon="5.37614">
        <ele>1404</ele>
        <time>2019-06-15T08:09:29.102Z</time>
      </trkpt>
      <trkpt lat="44.98714" lon="5.37614">
        <ele>1404</ele>
        <time>2019-06-15T08:09:30.102Z</time>
      </trkpt>
      <trkpt lat="44.98714" lon="5.37614">
        <ele>1403</ele>
        <time>2019-06-15T08:09:31.102Z</time>
      </trkpt>
      <trkpt lat="44.98714" lon="5.37614">
        <ele>1403</ele>
        <time>2019-06-15T08:09:32.102Z</time>
      </trkpt>
      <trkpt lat="44.98714" lon="5.37618">
        <ele>1404</ele>
        <time>2019-06-15T08:09:33.110Z</time>
      </trkpt>
      <trkpt lat="44.98713" lon="5.37618">
        <ele>1405</ele>
        <time>2019-06-15T08:09:34.110Z</time>
      </trkpt>
      <trkpt lat="44.98713" lon="5.37619">
        <ele>1405</ele>
        <time>2019-06-15T08:09:35.110Z</time>
      </trkpt>
      <trkpt lat="44.98713" lon="5.37619">
        <ele>1405</ele>
        <time>2019-06-15T08:09:36.110Z</time>
      </trkpt>
      <trkpt lat="44.98713" lon="5.37619">
        <ele>1405</ele>
        <time>2019-06-15T08:09:37.110Z</time>
      </trkpt>
      <trkpt lat="44.98713" lon="5.3762">
        <ele>1406</ele>
        <time>2019-06-15T08:09:38.110Z</time>
      </trkpt>
      <trkpt lat="44.98713" lon="5.3762">
        <ele>1406</ele>
        <time>2019-06-15T08:09:39.110Z</time>
      </trkpt>
      <trkpt lat="44.98713" lon="5.3762">
        <ele>1406</ele>
        <time>2019-06-15T08:09:40.110Z</time>
      </trkpt>
      <trkpt lat="44.9871" lon="5.37621">
        <ele>1407</ele>
        <time>2019-06-15T08:09:41.118Z</time>
      </trkpt>
      <trkpt lat="44.98709" lon="5.37622">
        <ele>1407</ele>
        <time>2019-06-15T08:09:42.118Z</time>
      </trkpt>
      <trkpt lat="44.98709" lon="5.37622">
        <ele>1407</ele>
        <time>2019-06-15T08:09:43.118Z</time>
      </trkpt>
      <trkpt lat="44.98708" lon="5.37622">
        <ele>1407</ele>
        <time>2019-06-15T08:09:44.118Z</time>
      </trkpt>
      <trkpt lat="44.98708" lon="5.37622">
        <ele>1408</ele>
        <time>2019-06-15T08:09:45.118Z</time>
      </trkpt>
      <trkpt lat="44.98708" lon="5.37621">
        <ele>1408</ele>
        <time>2019-06-15T08:09:46.118Z</time>
      </trkpt>
      <trkpt lat="44.98708" lon="5.37621">
        <ele>1408</ele>
        <time>2019-06-15T08:09:47.118Z</time>
      </trkpt>
      <trkpt lat="44.98708" lon="5.3762">
        <ele>1409</ele>
        <time>2019-06-15T08:09:48.118Z</time>
      </trkpt>
      <trkpt lat="44.98708" lon="5.3762">
        <ele>1409</ele>
        <time>2019-06-15T08:09:49.118Z</time>
      </trkpt>
      <trkpt lat="44.98703" lon="5.3762">
        <ele>1413</ele>
        <time>2019-06-15T08:09:50.001Z</time>
      </trkpt>
      <trkpt lat="44.98702" lon="5.3762">
        <ele>1413</ele>
        <time>2019-06-15T08:09:51.001Z</time>
      </trkpt>
      <trkpt lat="44.98702" lon="5.37621">
        <ele>1413</ele>
        <time>2019-06-15T08:09:52.001Z</time>
      </trkpt>
      <trkpt lat="44.98702" lon="5.37622">
        <ele>1413</ele>
        <time>2019-06-15T08:09:53.001Z</time>
      </trkpt>
      <trkpt lat="44.98701" lon="5.37622">
        <ele>1413</ele>
        <time>2019-06-15T08:09:54.001Z</time>
      </trkpt>
      <trkpt lat="44.98701" lon="5.37622">
        <ele>1413</ele>
        <time>2019-06-15T08:09:55.001Z</time>
      </trkpt>
      <trkpt lat="44.98701" lon="5.37623">
        <ele>1412</ele>
        <time>2019-06-15T08:09:56.001Z</time>
      </trkpt>
      <trkpt lat="44.98701" lon="5.37623">
        <ele>1412</ele>
        <time>2019-06-15T08:09:57.001Z</time>
      </trkpt>
      <trkpt lat="44.987" lon="5.37623">
        <ele>1412</ele>
        <time>2019-06-15T08:09:58.001Z</time>
      </trkpt>
      <trkpt lat="44.987" lon="5.37623">
        <ele>1412</ele>
        <time>2019-06-15T08:09:59.001Z</time>
      </trkpt>
      <trkpt lat="44.98699" lon="5.37623">
        <ele>1412</ele>
        <time>2019-06-15T08:10:00.001Z</time>
      </trkpt>
      <trkpt lat="44.98699" lon="5.37623">
        <ele>1412</ele>
        <time>2019-06-15T08:10:01.001Z</time>
      </trkpt>
      <trkpt lat="44.98699" lon="5.37623">
        <ele>1412</ele>
        <time>2019-06-15T08:10:02.001Z</time>
      </trkpt>
      <trkpt lat="44.98699" lon="5.37623">
        <ele>1414</ele>
        <time>2019-06-15T08:10:03.001Z</time>
      </trkpt>
      <trkpt lat="44.98699" lon="5.37623">
        <ele>1414</ele>
        <time>2019-06-15T08:10:04.001Z</time>
      </trkpt>
      <trkpt lat="44.98698" lon="5.37623">
        <ele>1414</ele>
        <time>2019-06-15T08:10:05.001Z</time>
      </trkpt>
      <trkpt lat="44.98697" lon="5.37624">
        <ele>1414</ele>
        <time>2019-06-15T08:10:06.001Z</time>
      </trkpt>
      <trkpt lat="44.98697" lon="5.37624">
        <ele>1414</ele>
        <time>2019-06-15T08:10:07.001Z</time>
      </trkpt>
      <trkpt lat="44.98696" lon="5.37624">
        <ele>1413</ele>
        <time>2019-06-15T08:10:08.001Z</time>
      </trkpt>
      <trkpt lat="44.98696" lon="5.37625">
        <ele>1412</ele>
        <time>2019-06-15T08:10:09.001Z</time>
      </trkpt>
      <trkpt lat="44.98696" lon="5.37625">
        <ele>1412</ele>
        <time>2019-06-15T08:10:10.001Z</time>
      </trkpt>
      <trkpt lat="44.98696" lon="5.37626">
        <ele>1412</ele>
        <time>2019-06-15T08:10:11.001Z</time>
      </trkpt>
      <trkpt lat="44.98696" lon="5.37626">
        <ele>1413</ele>
        <time>2019-06-15T08:10:12.001Z</time>
      </trkpt>
      <trkpt lat="44.98696" lon="5.37627">
        <ele>1414</ele>
        <time>2019-06-15T08:10:13.001Z</time>
      </trkpt>
      <trkpt lat="44.98696" lon="5.37627">
        <ele>1413</ele>
        <time>2019-06-15T08:10:14.001Z</time>
      </trkpt>
      <trkpt lat="44.98696" lon="5.37628">
        <ele>1414</ele>
        <time>2019-06-15T08:10:15.001Z</time>
      </trkpt>
      <trkpt lat="44.98696" lon="5.37628">
        <ele>1414</ele>
        <time>2019-06-15T08:10:16.001Z</time>
      </trkpt>
      <trkpt lat="44.98696" lon="5.37629">
        <ele>1414</ele>
        <time>2019-06-15T08:10:17.001Z</time>
      </trkpt>
      <trkpt lat="44.98696" lon="5.37629">
        <ele>1414</ele>
        <time>2019-06-15T08:10:18.001Z</time>
      </trkpt>
      <trkpt lat="44.98696" lon="5.37629">
        <ele>1415</ele>
        <time>2019-06-15T08:10:19.001Z</time>
      </trkpt>
      <trkpt lat="44.98697" lon="5.3763">
        <ele>1415</ele>
        <time>2019-06-15T08:10:20.001Z</time>
      </trkpt>
      <trkpt lat="44.98697" lon="5.3763">
        <ele>1415</ele>
        <time>2019-06-15T08:10:21.001Z</time>
      </trkpt>
      <trkpt lat="44.98697" lon="5.37631">
        <ele>1415</ele>
        <time>2019-06-15T08:10:22.001Z</time>
      </trkpt>
      <trkpt lat="44.98698" lon="5.37631">
        <ele>1416</ele>
        <time>2019-06-15T08:10:23.001Z</time>
      </trkpt>
      <trkpt lat="44.98698" lon="5.37631">
        <ele>1417</ele>
        <time>2019-06-15T08:10:24.001Z</time>
      </trkpt>
      <trkpt lat="44.98698" lon="5.37632">
        <ele>1417</ele>
        <time>2019-06-15T08:10:25.001Z</time>
      </trkpt>
      <trkpt lat="44.98699" lon="5.37632">
        <ele>1417</ele>
        <time>2019-06-15T08:10:26.001Z</time>
      </trkpt>
      <trkpt lat="44.98699" lon="5.37632">
        <ele>1417</ele>
        <time>2019-06-15T08:10:27.001Z</time>
      </trkpt>
      <trkpt lat="44.98699" lon="5.37633">
        <ele>1418</ele>
        <time>2019-06-15T08:10:28.001Z</time>
      </trkpt>
      <trkpt lat="44.98699" lon="5.37633">
        <ele>1417</ele>
        <time>2019-06-15T08:10:29.001Z</time>
      </trkpt>
      <trkpt lat="44.987" lon="5.37634">
        <ele>1418</ele>
        <time>2019-06-15T08:10:30.001Z</time>
      </trkpt>
      <trkpt lat="44.987" lon="5.37634">
        <ele>1418</ele>
        <time>2019-06-15T08:10:31.001Z</time>
      </trkpt>
      <trkpt lat="44.987" lon="5.37634">
        <ele>1418</ele>
        <time>2019-06-15T08:10:32.001Z</time>
      </trkpt>
      <trkpt lat="44.98701" lon="5.37634">
        <ele>1418</ele>
        <time>2019-06-15T08:10:33.001Z</time>
      </trkpt>
      <trkpt lat="44.98701" lon="5.37634">
        <ele>1418</ele>
        <time>2019-06-15T08:10:34.001Z</time>
      </trkpt>
      <trkpt lat="44.98702" lon="5.37633">
        <ele>1418</ele>
        <time>2019-06-15T08:10:35.001Z</time>
      </trkpt>
      <trkpt lat="44.98702" lon="5.37633">
        <ele>1419</ele>
        <time>2019-06-15T08:10:36.001Z</time>
      </trkpt>
      <trkpt lat="44.98702" lon="5.37633">
        <ele>1419</ele>
        <time>2019-06-15T08:10:37.001Z</time>
      </trkpt>
      <trkpt lat="44.98702" lon="5.37632">
        <ele>1419</ele>
        <time>2019-06-15T08:10:38.001Z</time>
      </trkpt>
      <trkpt lat="44.98702" lon="5.37632">
        <ele>1419</ele>
        <time>2019-06-15T08:10:39.001Z</time>
      </trkpt>
      <trkpt lat="44.98705" lon="5.37633">
        <ele>1418</ele>
        <time>2019-06-15T08:10:40.009Z</time>
      </trkpt>
      <trkpt lat="44.98705" lon="5.37633">
        <ele>1418</ele>
        <time>2019-06-15T08:10:41.009Z</time>
      </trkpt>
      <trkpt lat="44.98706" lon="5.37633">
        <ele>1419</ele>
        <time>2019-06-15T08:10:42.009Z</time>
      </trkpt>
      <trkpt lat="44.98706" lon="5.37633">
        <ele>1419</ele>
        <time>2019-06-15T08:10:43.009Z</time>
      </trkpt>
      <trkpt lat="44.98707" lon="5.37633">
        <ele>1419</ele>
        <time>2019-06-15T08:10:44.009Z</time>
      </trkpt>
      <trkpt lat="44.98707" lon="5.37633">
        <ele>1419</ele>
        <time>2019-06-15T08:10:45.009Z</time>
      </trkpt>
      <trkpt lat="44.98708" lon="5.37632">
        <ele>1419</ele>
        <time>2019-06-15T08:10:46.009Z</time>
      </trkpt>
      <trkpt lat="44.98708" lon="5.37632">
        <ele>1419</ele>
        <time>2019-06-15T08:10:47.009Z</time>
      </trkpt>
      <trkpt lat="44.98709" lon="5.37632">
        <ele>1419</ele>
        <time>2019-06-15T08:10:48.009Z</time>
      </trkpt>
      <trkpt lat="44.9871" lon="5.37633">
        <ele>1419</ele>
        <time>2019-06-15T08:10:49.009Z</time>
      </trkpt>
      <trkpt lat="44.9871" lon="5.37633">
        <ele>1419</ele>
        <time>2019-06-15T08:10:50.009Z</time>
      </trkpt>
      <trkpt lat="44.98711" lon="5.37633">
        <ele>1420</ele>
        <time>2019-06-15T08:10:51.009Z</time>
      </trkpt>
      <trkpt lat="44.98711" lon="5.37633">
        <ele>1419</ele>
        <time>2019-06-15T08:10:52.009Z</time>
      </trkpt>
      <trkpt lat="44.98712" lon="5.37633">
        <ele>1419</ele>
        <time>2019-06-15T08:10:53.009Z</time>
      </trkpt>
      <trkpt lat="44.98712" lon="5.37634">
        <ele>1419</ele>
        <time>2019-06-15T08:10:54.009Z</time>
      </trkpt>
      <trkpt lat="44.98712" lon="5.37633">
        <ele>1419</ele>
        <time>2019-06-15T08:10:55.009Z</time>
      </trkpt>
      <trkpt lat="44.98712" lon="5.37633">
        <ele>1419</ele>
        <time>2019-06-15T08:10:56.009Z</time>
      </trkpt>
      <trkpt lat="44.98713" lon="5.37633">
        <ele>1419</ele>
        <time>2019-06-15T08:10:57.009Z</time>
      </trkpt>
      <trkpt lat="44.98713" lon="5.37634">
        <ele>1419</ele>
        <time>2019-06-15T08:10:58.009Z</time>
      </trkpt>
      <trkpt lat="44.98713" lon="5.37634">
        <ele>1419</ele>
        <time>2019-06-15T08:10:59.009Z</time>
      </trkpt>
      <trkpt lat="44.98713" lon="5.37634">
        <ele>1419</ele>
        <time>2019-06-15T08:11:00.009Z</time>
      </trkpt>
      <trkpt lat="44.98713" lon="5.37634">
        <ele>1419</ele>
        <time>2019-06-15T08:11:01.009Z</time>
      </trkpt>
      <trkpt lat="44.98713" lon="5.37634">
        <ele>1419</ele>
        <time>2019-06-15T08:11:02.009Z</time>
      </trkpt>
      <trkpt lat="44.98713" lon="5.37633">
        <ele>1418</ele>
        <time>2019-06-15T08:11:03.009Z</time>
      </trkpt>
      <trkpt lat="44.98713" lon="5.37633">
        <ele>1417</ele>
        <time>2019-06-15T08:11:04.009Z</time>
      </trkpt>
      <trkpt lat="44.98714" lon="5.37633">
        <ele>1417</ele>
        <time>2019-06-15T08:11:05.009Z</time>
      </trkpt>
      <trkpt lat="44.98714" lon="5.37633">
        <ele>1416</ele>
        <time>2019-06-15T08:11:06.009Z</time>
      </trkpt>
      <trkpt lat="44.98715" lon="5.37633">
        <ele>1415</ele>
        <time>2019-06-15T08:11:07.009Z</time>
      </trkpt>
      <trkpt lat="44.98715" lon="5.37633">
        <ele>1415</ele>
        <time>2019-06-15T08:11:08.009Z</time>
      </trkpt>
      <trkpt lat="44.98715" lon="5.37633">
        <ele>1414</ele>
        <time>2019-06-15T08:11:09.009Z</time>
      </trkpt>
      <trkpt lat="44.98717" lon="5.37633">
        <ele>1411</ele>
        <time>2019-06-15T08:11:10.005Z</time>
      </trkpt>
      <trkpt lat="44.98717" lon="5.37633">
        <ele>1411</ele>
        <time>2019-06-15T08:11:11.005Z</time>
      </trkpt>
      <trkpt lat="44.98717" lon="5.37633">
        <ele>1411</ele>
        <time>2019-06-15T08:11:12.005Z</time>
      </trkpt>
      <trkpt lat="44.98718" lon="5.37633">
        <ele>1410</ele>
        <time>2019-06-15T08:11:13.005Z</time>
      </trkpt>
      <trkpt lat="44.98718" lon="5.37633">
        <ele>1410</ele>
        <time>2019-06-15T08:11:14.005Z</time>
      </trkpt>
      <trkpt lat="44.98718" lon="5.37634">
        <ele>1410</ele>
        <time>2019-06-15T08:11:15.005Z</time>
      </trkpt>
      <trkpt lat="44.98718" lon="5.37634">
        <ele>1409</ele>
        <time>2019-06-15T08:11:16.005Z</time>
      </trkpt>
      <trkpt lat="44.98718" lon="5.37634">
        <ele>1409</ele>
        <time>2019-06-15T08:11:17.005Z</time>
      </trkpt>
      <trkpt lat="44.98719" lon="5.37634">
        <ele>1408</ele>
        <time>2019-06-15T08:11:18.005Z</time>
      </trkpt>
      <trkpt lat="44.98719" lon="5.37634">
        <ele>1408</ele>
        <time>2019-06-15T08:11:19.005Z</time>
      </trkpt>
      <trkpt lat="44.98719" lon="5.37634">
        <ele>1408</ele>
        <time>2019-06-15T08:11:20.005Z</time>
      </trkpt>
      <trkpt lat="44.98719" lon="5.37634">
        <ele>1407</ele>
        <time>2019-06-15T08:11:21.005Z</time>
      </trkpt>
      <trkpt lat="44.98719" lon="5.37635">
        <ele>1407</ele>
        <time>2019-06-15T08:11:22.005Z</time>
      </trkpt>
      <trkpt lat="44.98726" lon="5.37631">
        <ele>1403</ele>
        <time>2019-06-15T08:11:23.013Z</time>
      </trkpt>
      <trkpt lat="44.98727" lon="5.37631">
        <ele>1402</ele>
        <time>2019-06-15T08:11:24.013Z</time>
      </trkpt>
      <trkpt lat="44.98727" lon="5.37631">
        <ele>1402</ele>
        <time>2019-06-15T08:11:25.013Z</time>
      </trkpt>
      <trkpt lat="44.98727" lon="5.37631">
        <ele>1402</ele>
        <time>2019-06-15T08:11:26.013Z</time>
      </trkpt>
      <trkpt lat="44.98728" lon="5.37632">
        <ele>1401</ele>
        <time>2019-06-15T08:11:27.013Z</time>
      </trkpt>
      <trkpt lat="44.98728" lon="5.37632">
        <ele>1401</ele>
        <time>2019-06-15T08:11:28.013Z</time>
      </trkpt>
      <trkpt lat="44.98728" lon="5.37631">
        <ele>1401</ele>
        <time>2019-06-15T08:11:29.013Z</time>
      </trkpt>
      <trkpt lat="44.98728" lon="5.37631">
        <ele>1401</ele>
        <time>2019-06-15T08:11:30.013Z</time>
      </trkpt>
      <trkpt lat="44.98728" lon="5.37631">
        <ele>1401</ele>
        <time>2019-06-15T08:11:31.013Z</time>
      </trkpt>
      <trkpt lat="44.98729" lon="5.37631">
        <ele>1401</ele>
        <time>2019-06-15T08:11:32.013Z</time>
      </trkpt>
      <trkpt lat="44.98729" lon="5.37631">
        <ele>1401</ele>
        <time>2019-06-15T08:11:33.013Z</time>
      </trkpt>
      <trkpt lat="44.9873" lon="5.3763">
        <ele>1400</ele>
        <time>2019-06-15T08:11:34.013Z</time>
      </trkpt>
      <trkpt lat="44.9873" lon="5.3763">
        <ele>1400</ele>
        <time>2019-06-15T08:11:35.013Z</time>
      </trkpt>
      <trkpt lat="44.98731" lon="5.37629">
        <ele>1399</ele>
        <time>2019-06-15T08:11:36.013Z</time>
      </trkpt>
      <trkpt lat="44.98733" lon="5.37629">
        <ele>1399</ele>
        <time>2019-06-15T08:11:37.013Z</time>
      </trkpt>
      <trkpt lat="44.98734" lon="5.3763">
        <ele>1398</ele>
        <time>2019-06-15T08:11:38.013Z</time>
      </trkpt>
      <trkpt lat="44.98735" lon="5.37629">
        <ele>1398</ele>
        <time>2019-06-15T08:11:39.013Z</time>
      </trkpt>
      <trkpt lat="44.98735" lon="5.37629">
        <ele>1398</ele>
        <time>2019-06-15T08:11:40.013Z</time>
      </trkpt>
      <trkpt lat="44.98735" lon="5.37629">
        <ele>1398</ele>
        <time>2019-06-15T08:11:41.013Z</time>
      </trkpt>
      <trkpt lat="44.98736" lon="5.37629">
        <ele>1397</ele>
        <time>2019-06-15T08:11:42.013Z</time>
      </trkpt>
      <trkpt lat="44.98736" lon="5.37629">
        <ele>1397</ele>
        <time>2019-06-15T08:11:43.013Z</time>
      </trkpt>
      <trkpt lat="44.98737" lon="5.37629">
        <ele>1397</ele>
        <time>2019-06-15T08:11:44.013Z</time>
      </trkpt>
      <trkpt lat="44.98738" lon="5.37628">
        <ele>1397</ele>
        <time>2019-06-15T08:11:45.013Z</time>
      </trkpt>
      <trkpt lat="44.98739" lon="5.37628">
        <ele>1398</ele>
        <time>2019-06-15T08:11:46.013Z</time>
      </trkpt>
      <trkpt lat="44.98739" lon="5.37628">
        <ele>1399</ele>
        <time>2019-06-15T08:11:47.013Z</time>
      </trkpt>
      <trkpt lat="44.9874" lon="5.37628">
        <ele>1399</ele>
        <time>2019-06-15T08:11:48.013Z</time>
      </trkpt>
      <trkpt lat="44.98741" lon="5.37628">
        <ele>1400</ele>
        <time>2019-06-15T08:11:49.013Z</time>
      </trkpt>
      <trkpt lat="44.98742" lon="5.37628">
        <ele>1400</ele>
        <time>2019-06-15T08:11:50.013Z</time>
      </trkpt>
      <trkpt lat="44.98743" lon="5.37628">
        <ele>1400</ele>
        <time>2019-06-15T08:11:51.013Z</time>
      </trkpt>
      <trkpt lat="44.98743" lon="5.37628">
        <ele>1400</ele>
        <time>2019-06-15T08:11:52.013Z</time>
      </trkpt>
      <trkpt lat="44.98744" lon="5.37628">
        <ele>1399</ele>
        <time>2019-06-15T08:11:53.013Z</time>
      </trkpt>
      <trkpt lat="44.98745" lon="5.37628">
        <ele>1399</ele>
        <time>2019-06-15T08:11:54.013Z</time>
      </trkpt>
      <trkpt lat="44.98745" lon="5.37628">
        <ele>1398</ele>
        <time>2019-06-15T08:11:55.013Z</time>
      </trkpt>
      <trkpt lat="44.98746" lon="5.37628">
        <ele>1399</ele>
        <time>2019-06-15T08:11:56.013Z</time>
      </trkpt>
      <trkpt lat="44.98747" lon="5.37628">
        <ele>1398</ele>
        <time>2019-06-15T08:11:57.013Z</time>
      </trkpt>
      <trkpt lat="44.98747" lon="5.37629">
        <ele>1398</ele>
        <time>2019-06-15T08:11:58.013Z</time>
      </trkpt>
      <trkpt lat="44.98748" lon="5.37629">
        <ele>1398</ele>
        <time>2019-06-15T08:11:59.013Z</time>
      </trkpt>
      <trkpt lat="44.98749" lon="5.3763">
        <ele>1397</ele>
        <time>2019-06-15T08:12:00.013Z</time>
      </trkpt>
      <trkpt lat="44.98749" lon="5.37631">
        <ele>1397</ele>
        <time>2019-06-15T08:12:01.013Z</time>
      </trkpt>
      <trkpt lat="44.9875" lon="5.37632">
        <ele>1397</ele>
        <time>2019-06-15T08:12:02.013Z</time>
      </trkpt>
      <trkpt lat="44.9875" lon="5.37632">
        <ele>1397</ele>
        <time>2019-06-15T08:12:03.013Z</time>
      </trkpt>
      <trkpt lat="44.9875" lon="5.37632">
        <ele>1397</ele>
        <time>2019-06-15T08:12:04.013Z</time>
      </trkpt>
      <trkpt lat="44.98751" lon="5.37633">
        <ele>1396</ele>
        <time>2019-06-15T08:12:05.013Z</time>
      </trkpt>
      <trkpt lat="44.98751" lon="5.37633">
        <ele>1395</ele>
        <time>2019-06-15T08:12:06.013Z</time>
      </trkpt>
      <trkpt lat="44.98752" lon="5.37632">
        <ele>1395</ele>
        <time>2019-06-15T08:12:07.013Z</time>
      </trkpt>
      <trkpt lat="44.98753" lon="5.37632">
        <ele>1395</ele>
        <time>2019-06-15T08:12:08.013Z</time>
      </trkpt>
      <trkpt lat="44.98754" lon="5.37633">
        <ele>1395</ele>
        <time>2019-06-15T08:12:09.013Z</time>
      </trkpt>
      <trkpt lat="44.98754" lon="5.37633">
        <ele>1395</ele>
        <time>2019-06-15T08:12:10.013Z</time>
      </trkpt>
      <trkpt lat="44.98755" lon="5.37633">
        <ele>1396</ele>
        <time>2019-06-15T08:12:11.013Z</time>
      </trkpt>
      <trkpt lat="44.98756" lon="5.37633">
        <ele>1396</ele>
        <time>2019-06-15T08:12:12.013Z</time>
      </trkpt>
      <trkpt lat="44.98756" lon="5.37633">
        <ele>1395</ele>
        <time>2019-06-15T08:12:13.013Z</time>
      </trkpt>
      <trkpt lat="44.98757" lon="5.37633">
        <ele>1395</ele>
        <time>2019-06-15T08:12:14.013Z</time>
      </trkpt>
      <trkpt lat="44.98757" lon="5.37633">
        <ele>1395</ele>
        <time>2019-06-15T08:12:15.013Z</time>
      </trkpt>
      <trkpt lat="44.98758" lon="5.37633">
        <ele>1395</ele>
        <time>2019-06-15T08:12:16.013Z</time>
      </trkpt>
      <trkpt lat="44.98758" lon="5.37633">
        <ele>1394</ele>
        <time>2019-06-15T08:12:17.013Z</time>
      </trkpt>
      <trkpt lat="44.98758" lon="5.37634">
        <ele>1394</ele>
        <time>2019-06-15T08:12:18.013Z</time>
      </trkpt>
      <trkpt lat="44.98759" lon="5.37634">
        <ele>1394</ele>
        <time>2019-06-15T08:12:19.013Z</time>
      </trkpt>
      <trkpt lat="44.98759" lon="5.37635">
        <ele>1393</ele>
        <time>2019-06-15T08:12:20.013Z</time>
      </trkpt>
      <trkpt lat="44.9876" lon="5.37635">
        <ele>1393</ele>
        <time>2019-06-15T08:12:21.013Z</time>
      </trkpt>
      <trkpt lat="44.98761" lon="5.37635">
        <ele>1394</ele>
        <time>2019-06-15T08:12:22.013Z</time>
      </trkpt>
      <trkpt lat="44.98762" lon="5.37635">
        <ele>1395</ele>
        <time>2019-06-15T08:12:23.013Z</time>
      </trkpt>
      <trkpt lat="44.98762" lon="5.37635">
        <ele>1395</ele>
        <time>2019-06-15T08:12:24.013Z</time>
      </trkpt>
      <trkpt lat="44.98763" lon="5.37635">
        <ele>1395</ele>
        <time>2019-06-15T08:12:25.013Z</time>
      </trkpt>
      <trkpt lat="44.98763" lon="5.37635">
        <ele>1395</ele>
        <time>2019-06-15T08:12:26.013Z</time>
      </trkpt>
      <trkpt lat="44.98764" lon="5.37635">
        <ele>1395</ele>
        <time>2019-06-15T08:12:27.013Z</time>
      </trkpt>
      <trkpt lat="44.98764" lon="5.37634">
        <ele>1396</ele>
        <time>2019-06-15T08:12:28.013Z</time>
      </trkpt>
      <trkpt lat="44.98765" lon="5.37634">
        <ele>1396</ele>
        <time>2019-06-15T08:12:29.013Z</time>
      </trkpt>
      <trkpt lat="44.98766" lon="5.37634">
        <ele>1397</ele>
        <time>2019-06-15T08:12:30.013Z</time>
      </trkpt>
      <trkpt lat="44.98766" lon="5.37633">
        <ele>1397</ele>
        <time>2019-06-15T08:12:31.013Z</time>
      </trkpt>
      <trkpt lat="44.98767" lon="5.37633">
        <ele>1398</ele>
        <time>2019-06-15T08:12:32.013Z</time>
      </trkpt>
      <trkpt lat="44.98767" lon="5.37633">
        <ele>1398</ele>
        <time>2019-06-15T08:12:33.013Z</time>
      </trkpt>
      <trkpt lat="44.98768" lon="5.37633">
        <ele>1399</ele>
        <time>2019-06-15T08:12:34.013Z</time>
      </trkpt>
      <trkpt lat="44.98768" lon="5.37633">
        <ele>1399</ele>
        <time>2019-06-15T08:12:35.013Z</time>
      </trkpt>
      <trkpt lat="44.98769" lon="5.37634">
        <ele>1399</ele>
        <time>2019-06-15T08:12:36.013Z</time>
      </trkpt>
      <trkpt lat="44.9877" lon="5.37634">
        <ele>1400</ele>
        <time>2019-06-15T08:12:37.013Z</time>
      </trkpt>
      <trkpt lat="44.98771" lon="5.37636">
        <ele>1399</ele>
        <time>2019-06-15T08:12:38.013Z</time>
      </trkpt>
      <trkpt lat="44.98772" lon="5.37637">
        <ele>1398</ele>
        <time>2019-06-15T08:12:39.013Z</time>
      </trkpt>
      <trkpt lat="44.98773" lon="5.37637">
        <ele>1396</ele>
        <time>2019-06-15T08:12:40.013Z</time>
      </trkpt>
      <trkpt lat="44.98775" lon="5.37638">
        <ele>1396</ele>
        <time>2019-06-15T08:12:41.013Z</time>
      </trkpt>
      <trkpt lat="44.98776" lon="5.37638">
        <ele>1396</ele>
        <time>2019-06-15T08:12:42.013Z</time>
      </trkpt>
      <trkpt lat="44.98778" lon="5.37638">
        <ele>1396</ele>
        <time>2019-06-15T08:12:43.013Z</time>
      </trkpt>
      <trkpt lat="44.98779" lon="5.37638">
        <ele>1396</ele>
        <time>2019-06-15T08:12:44.013Z</time>
      </trkpt>
      <trkpt lat="44.9878" lon="5.37638">
        <ele>1396</ele>
        <time>2019-06-15T08:12:45.013Z</time>
      </trkpt>
      <trkpt lat="44.98781" lon="5.37638">
        <ele>1395</ele>
        <time>2019-06-15T08:12:46.013Z</time>
      </trkpt>
      <trkpt lat="44.98782" lon="5.37639">
        <ele>1395</ele>
        <time>2019-06-15T08:12:47.013Z</time>
      </trkpt>
      <trkpt lat="44.98784" lon="5.37639">
        <ele>1394</ele>
        <time>2019-06-15T08:12:48.013Z</time>
      </trkpt>
      <trkpt lat="44.98785" lon="5.37639">
        <ele>1394</ele>
        <time>2019-06-15T08:12:49.013Z</time>
      </trkpt>
      <trkpt lat="44.98786" lon="5.37639">
        <ele>1393</ele>
        <time>2019-06-15T08:12:50.013Z</time>
      </trkpt>
      <trkpt lat="44.98787" lon="5.3764">
        <ele>1394</ele>
        <time>2019-06-15T08:12:51.013Z</time>
      </trkpt>
      <trkpt lat="44.98788" lon="5.3764">
        <ele>1394</ele>
        <time>2019-06-15T08:12:52.013Z</time>
      </trkpt>
      <trkpt lat="44.98788" lon="5.37641">
        <ele>1394</ele>
        <time>2019-06-15T08:12:53.013Z</time>
      </trkpt>
      <trkpt lat="44.98788" lon="5.37641">
        <ele>1394</ele>
        <time>2019-06-15T08:12:54.013Z</time>
      </trkpt>
      <trkpt lat="44.98788" lon="5.37641">
        <ele>1394</ele>
        <time>2019-06-15T08:12:55.013Z</time>
      </trkpt>
      <trkpt lat="44.98788" lon="5.37641">
        <ele>1395</ele>
        <time>2019-06-15T08:12:56.013Z</time>
      </trkpt>
      <trkpt lat="44.98789" lon="5.37642">
        <ele>1395</ele>
        <time>2019-06-15T08:12:57.013Z</time>
      </trkpt>
      <trkpt lat="44.98789" lon="5.37642">
        <ele>1395</ele>
        <time>2019-06-15T08:12:58.013Z</time>
      </trkpt>
      <trkpt lat="44.9879" lon="5.37642">
        <ele>1396</ele>
        <time>2019-06-15T08:12:59.013Z</time>
      </trkpt>
      <trkpt lat="44.9879" lon="5.37643">
        <ele>1396</ele>
        <time>2019-06-15T08:13:00.013Z</time>
      </trkpt>
      <trkpt lat="44.98791" lon="5.37643">
        <ele>1396</ele>
        <time>2019-06-15T08:13:01.013Z</time>
      </trkpt>
      <trkpt lat="44.98792" lon="5.37643">
        <ele>1397</ele>
        <time>2019-06-15T08:13:02.013Z</time>
      </trkpt>
      <trkpt lat="44.98793" lon="5.37644">
        <ele>1397</ele>
        <time>2019-06-15T08:13:03.013Z</time>
      </trkpt>
      <trkpt lat="44.98794" lon="5.37645">
        <ele>1397</ele>
        <time>2019-06-15T08:13:04.013Z</time>
      </trkpt>
      <trkpt lat="44.98795" lon="5.37645">
        <ele>1397</ele>
        <time>2019-06-15T08:13:05.013Z</time>
      </trkpt>
      <trkpt lat="44.98795" lon="5.37645">
        <ele>1397</ele>
        <time>2019-06-15T08:13:06.013Z</time>
      </trkpt>
      <trkpt lat="44.98796" lon="5.37645">
        <ele>1397</ele>
        <time>2019-06-15T08:13:07.013Z</time>
      </trkpt>
      <trkpt lat="44.98798" lon="5.37645">
        <ele>1397</ele>
        <time>2019-06-15T08:13:08.013Z</time>
      </trkpt>
      <trkpt lat="44.98799" lon="5.37645">
        <ele>1396</ele>
        <time>2019-06-15T08:13:09.013Z</time>
      </trkpt>
      <trkpt lat="44.988" lon="5.37645">
        <ele>1396</ele>
        <time>2019-06-15T08:13:10.013Z</time>
      </trkpt>
      <trkpt lat="44.98801" lon="5.37645">
        <ele>1396</ele>
        <time>2019-06-15T08:13:11.013Z</time>
      </trkpt>
      <trkpt lat="44.98801" lon="5.37645">
        <ele>1396</ele>
        <time>2019-06-15T08:13:12.013Z</time>
      </trkpt>
      <trkpt lat="44.98801" lon="5.37645">
        <ele>1396</ele>
        <time>2019-06-15T08:13:13.013Z</time>
      </trkpt>
      <trkpt lat="44.98802" lon="5.37645">
        <ele>1395</ele>
        <time>2019-06-15T08:13:14.013Z</time>
      </trkpt>
      <trkpt lat="44.98803" lon="5.37644">
        <ele>1395</ele>
        <time>2019-06-15T08:13:15.013Z</time>
      </trkpt>
      <trkpt lat="44.98804" lon="5.37644">
        <ele>1395</ele>
        <time>2019-06-15T08:13:16.013Z</time>
      </trkpt>
      <trkpt lat="44.98805" lon="5.37643">
        <ele>1394</ele>
        <time>2019-06-15T08:13:17.013Z</time>
      </trkpt>
      <trkpt lat="44.98806" lon="5.37642">
        <ele>1394</ele>
        <time>2019-06-15T08:13:18.013Z</time>
      </trkpt>
      <trkpt lat="44.98808" lon="5.37642">
        <ele>1395</ele>
        <time>2019-06-15T08:13:19.013Z</time>
      </trkpt>
      <trkpt lat="44.98809" lon="5.37641">
        <ele>1394</ele>
        <time>2019-06-15T08:13:20.013Z</time>
      </trkpt>
      <trkpt lat="44.98811" lon="5.37642">
        <ele>1394</ele>
        <time>2019-06-15T08:13:21.013Z</time>
      </trkpt>
      <trkpt lat="44.98813" lon="5.37643">
        <ele>1394</ele>
        <time>2019-06-15T08:13:22.013Z</time>
      </trkpt>
      <trkpt lat="44.98815" lon="5.37643">
        <ele>1394</ele>
        <time>2019-06-15T08:13:23.013Z</time>
      </trkpt>
      <trkpt lat="44.98817" lon="5.37644">
        <ele>1393</ele>
        <time>2019-06-15T08:13:24.013Z</time>
      </trkpt>
      <trkpt lat="44.98818" lon="5.37644">
        <ele>1393</ele>
        <time>2019-06-15T08:13:25.013Z</time>
      </trkpt>
      <trkpt lat="44.9882" lon="5.37644">
        <ele>1393</ele>
        <time>2019-06-15T08:13:26.013Z</time>
      </trkpt>
      <trkpt lat="44.98822" lon="5.37645">
        <ele>1392</ele>
        <time>2019-06-15T08:13:27.013Z</time>
      </trkpt>
      <trkpt lat="44.98824" lon="5.37645">
        <ele>1392</ele>
        <time>2019-06-15T08:13:28.013Z</time>
      </trkpt>
      <trkpt lat="44.98826" lon="5.37646">
        <ele>1392</ele>
        <time>2019-06-15T08:13:29.013Z</time>
      </trkpt>
      <trkpt lat="44.98828" lon="5.37647">
        <ele>1391</ele>
        <time>2019-06-15T08:13:30.013Z</time>
      </trkpt>
      <trkpt lat="44.98829" lon="5.37647">
        <ele>1392</ele>
        <time>2019-06-15T08:13:31.013Z</time>
      </trkpt>
      <trkpt lat="44.98831" lon="5.37647">
        <ele>1392</ele>
        <time>2019-06-15T08:13:32.013Z</time>
      </trkpt>
      <trkpt lat="44.98832" lon="5.37648">
        <ele>1392</ele>
        <time>2019-06-15T08:13:33.013Z</time>
      </trkpt>
      <trkpt lat="44.98833" lon="5.37648">
        <ele>1393</ele>
        <time>2019-06-15T08:13:34.013Z</time>
      </trkpt>
      <trkpt lat="44.98835" lon="5.37648">
        <ele>1393</ele>
        <time>2019-06-15T08:13:35.013Z</time>
      </trkpt>
      <trkpt lat="44.98836" lon="5.37649">
        <ele>1394</ele>
        <time>2019-06-15T08:13:36.013Z</time>
      </trkpt>
      <trkpt lat="44.98838" lon="5.3765">
        <ele>1395</ele>
        <time>2019-06-15T08:13:37.013Z</time>
      </trkpt>
      <trkpt lat="44.98838" lon="5.37651">
        <ele>1395</ele>
        <time>2019-06-15T08:13:38.013Z</time>
      </trkpt>
      <trkpt lat="44.98839" lon="5.37653">
        <ele>1395</ele>
        <time>2019-06-15T08:13:39.013Z</time>
      </trkpt>
      <trkpt lat="44.9884" lon="5.37655">
        <ele>1395</ele>
        <time>2019-06-15T08:13:40.013Z</time>
      </trkpt>
      <trkpt lat="44.98841" lon="5.37656">
        <ele>1396</ele>
        <time>2019-06-15T08:13:41.013Z</time>
      </trkpt>
      <trkpt lat="44.98842" lon="5.37657">
        <ele>1396</ele>
        <time>2019-06-15T08:13:42.013Z</time>
      </trkpt>
      <trkpt lat="44.98843" lon="5.37658">
        <ele>1397</ele>
        <time>2019-06-15T08:13:43.013Z</time>
      </trkpt>
      <trkpt lat="44.98844" lon="5.37659">
        <ele>1397</ele>
        <time>2019-06-15T08:13:44.013Z</time>
      </trkpt>
      <trkpt lat="44.98845" lon="5.3766">
        <ele>1398</ele>
        <time>2019-06-15T08:13:45.013Z</time>
      </trkpt>
      <trkpt lat="44.98847" lon="5.37662">
        <ele>1398</ele>
        <time>2019-06-15T08:13:46.013Z</time>
      </trkpt>
      <trkpt lat="44.98848" lon="5.37663">
        <ele>1398</ele>
        <time>2019-06-15T08:13:47.013Z</time>
      </trkpt>
      <trkpt lat="44.98849" lon="5.37664">
        <ele>1398</ele>
        <time>2019-06-15T08:13:48.013Z</time>
      </trkpt>
      <trkpt lat="44.98851" lon="5.37666">
        <ele>1398</ele>
        <time>2019-06-15T08:13:49.013Z</time>
      </trkpt>
      <trkpt lat="44.98852" lon="5.37667">
        <ele>1397</ele>
        <time>2019-06-15T08:13:50.013Z</time>
      </trkpt>
      <trkpt lat="44.98853" lon="5.37668">
        <ele>1397</ele>
        <time>2019-06-15T08:13:51.013Z</time>
      </trkpt>
      <trkpt lat="44.98855" lon="5.37668">
        <ele>1397</ele>
        <time>2019-06-15T08:13:52.013Z</time>
      </trkpt>
      <trkpt lat="44.98856" lon="5.37669">
        <ele>1397</ele>
        <time>2019-06-15T08:13:53.013Z</time>
      </trkpt>
      <trkpt lat="44.98857" lon="5.3767">
        <ele>1396</ele>
        <time>2019-06-15T08:13:54.013Z</time>
      </trkpt>
      <trkpt lat="44.98858" lon="5.37671">
        <ele>1395</ele>
        <time>2019-06-15T08:13:55.013Z</time>
      </trkpt>
      <trkpt lat="44.98858" lon="5.37672">
        <ele>1394</ele>
        <time>2019-06-15T08:13:56.013Z</time>
      </trkpt>
      <trkpt lat="44.98859" lon="5.37673">
        <ele>1393</ele>
        <time>2019-06-15T08:13:57.013Z</time>
      </trkpt>
      <trkpt lat="44.9886" lon="5.37673">
        <ele>1393</ele>
        <time>2019-06-15T08:13:58.013Z</time>
      </trkpt>
      <trkpt lat="44.98861" lon="5.37673">
        <ele>1392</ele>
        <time>2019-06-15T08:13:59.013Z</time>
      </trkpt>
      <trkpt lat="44.98862" lon="5.37673">
        <ele>1392</ele>
        <time>2019-06-15T08:14:00.013Z</time>
      </trkpt>
      <trkpt lat="44.98863" lon="5.37673">
        <ele>1390</ele>
        <time>2019-06-15T08:14:01.013Z</time>
      </trkpt>
      <trkpt lat="44.98864" lon="5.37673">
        <ele>1389</ele>
        <time>2019-06-15T08:14:02.013Z</time>
      </trkpt>
      <trkpt lat="44.98865" lon="5.37672">
        <ele>1388</ele>
        <time>2019-06-15T08:14:03.013Z</time>
      </trkpt>
      <trkpt lat="44.98866" lon="5.37672">
        <ele>1387</ele>
        <time>2019-06-15T08:14:04.013Z</time>
      </trkpt>
      <trkpt lat="44.98867" lon="5.37672">
        <ele>1387</ele>
        <time>2019-06-15T08:14:05.013Z</time>
      </trkpt>
      <trkpt lat="44.98868" lon="5.37673">
        <ele>1387</ele>
        <time>2019-06-15T08:14:06.013Z</time>
      </trkpt>
      <trkpt lat="44.9887" lon="5.37674">
        <ele>1387</ele>
        <time>2019-06-15T08:14:07.013Z</time>
      </trkpt>
      <trkpt lat="44.98872" lon="5.37675">
        <ele>1386</ele>
        <time>2019-06-15T08:14:08.013Z</time>
      </trkpt>
      <trkpt lat="44.98873" lon="5.37675">
        <ele>1385</ele>
        <time>2019-06-15T08:14:09.013Z</time>
      </trkpt>
      <trkpt lat="44.98875" lon="5.37675">
        <ele>1384</ele>
        <time>2019-06-15T08:14:10.013Z</time>
      </trkpt>
      <trkpt lat="44.98876" lon="5.37676">
        <ele>1383</ele>
        <time>2019-06-15T08:14:11.013Z</time>
      </trkpt>
      <trkpt lat="44.98877" lon="5.37677">
        <ele>1383</ele>
        <time>2019-06-15T08:14:12.013Z</time>
      </trkpt>
      <trkpt lat="44.98878" lon="5.37676">
        <ele>1383</ele>
        <time>2019-06-15T08:14:13.013Z</time>
      </trkpt>
      <trkpt lat="44.9888" lon="5.37676">
        <ele>1383</ele>
        <time>2019-06-15T08:14:14.013Z</time>
      </trkpt>
      <trkpt lat="44.98881" lon="5.37676">
        <ele>1382</ele>
        <time>2019-06-15T08:14:15.013Z</time>
      </trkpt>
      <trkpt lat="44.98882" lon="5.37676">
        <ele>1382</ele>
        <time>2019-06-15T08:14:16.013Z</time>
      </trkpt>
      <trkpt lat="44.98882" lon="5.37677">
        <ele>1381</ele>
        <time>2019-06-15T08:14:17.013Z</time>
      </trkpt>
      <trkpt lat="44.98883" lon="5.37678">
        <ele>1381</ele>
        <time>2019-06-15T08:14:18.013Z</time>
      </trkpt>
      <trkpt lat="44.98884" lon="5.37679">
        <ele>1381</ele>
        <time>2019-06-15T08:14:19.013Z</time>
      </trkpt>
      <trkpt lat="44.98885" lon="5.37679">
        <ele>1381</ele>
        <time>2019-06-15T08:14:20.013Z</time>
      </trkpt>
      <trkpt lat="44.98886" lon="5.3768">
        <ele>1380</ele>
        <time>2019-06-15T08:14:21.013Z</time>
      </trkpt>
      <trkpt lat="44.98887" lon="5.3768">
        <ele>1380</ele>
        <time>2019-06-15T08:14:22.013Z</time>
      </trkpt>
      <trkpt lat="44.98889" lon="5.37681">
        <ele>1381</ele>
        <time>2019-06-15T08:14:23.013Z</time>
      </trkpt>
      <trkpt lat="44.9889" lon="5.37681">
        <ele>1382</ele>
        <time>2019-06-15T08:14:24.013Z</time>
      </trkpt>
      <trkpt lat="44.98892" lon="5.37682">
        <ele>1382</ele>
        <time>2019-06-15T08:14:25.013Z</time>
      </trkpt>
      <trkpt lat="44.98893" lon="5.37683">
        <ele>1383</ele>
        <time>2019-06-15T08:14:26.013Z</time>
      </trkpt>
      <trkpt lat="44.98894" lon="5.37683">
        <ele>1384</ele>
        <time>2019-06-15T08:14:27.013Z</time>
      </trkpt>
      <trkpt lat="44.98895" lon="5.37682">
        <ele>1386</ele>
        <time>2019-06-15T08:14:28.013Z</time>
      </trkpt>
      <trkpt lat="44.98897" lon="5.37683">
        <ele>1388</ele>
        <time>2019-06-15T08:14:29.013Z</time>
      </trkpt>
      <trkpt lat="44.98899" lon="5.37683">
        <ele>1389</ele>
        <time>2019-06-15T08:14:30.013Z</time>
      </trkpt>
      <trkpt lat="44.989" lon="5.37683">
        <ele>1390</ele>
        <time>2019-06-15T08:14:31.013Z</time>
      </trkpt>
      <trkpt lat="44.98901" lon="5.37683">
        <ele>1391</ele>
        <time>2019-06-15T08:14:32.013Z</time>
      </trkpt>
      <trkpt lat="44.98901" lon="5.37683">
        <ele>1392</ele>
        <time>2019-06-15T08:14:33.013Z</time>
      </trkpt>
      <trkpt lat="44.98903" lon="5.37684">
        <ele>1393</ele>
        <time>2019-06-15T08:14:34.013Z</time>
      </trkpt>
      <trkpt lat="44.98906" lon="5.37684">
        <ele>1393</ele>
        <time>2019-06-15T08:14:35.013Z</time>
      </trkpt>
      <trkpt lat="44.98909" lon="5.37684">
        <ele>1393</ele>
        <time>2019-06-15T08:14:36.013Z</time>
      </trkpt>
      <trkpt lat="44.98911" lon="5.37683">
        <ele>1393</ele>
        <time>2019-06-15T08:14:37.013Z</time>
      </trkpt>
      <trkpt lat="44.98913" lon="5.37683">
        <ele>1393</ele>
        <time>2019-06-15T08:14:38.013Z</time>
      </trkpt>
      <trkpt lat="44.98914" lon="5.37683">
        <ele>1394</ele>
        <time>2019-06-15T08:14:39.013Z</time>
      </trkpt>
      <trkpt lat="44.98916" lon="5.37683">
        <ele>1395</ele>
        <time>2019-06-15T08:14:40.013Z</time>
      </trkpt>
      <trkpt lat="44.98917" lon="5.37683">
        <ele>1395</ele>
        <time>2019-06-15T08:14:41.013Z</time>
      </trkpt>
      <trkpt lat="44.98918" lon="5.37683">
        <ele>1396</ele>
        <time>2019-06-15T08:14:42.013Z</time>
      </trkpt>
      <trkpt lat="44.9892" lon="5.37683">
        <ele>1397</ele>
        <time>2019-06-15T08:14:43.013Z</time>
      </trkpt>
      <trkpt lat="44.98921" lon="5.37683">
        <ele>1396</ele>
        <time>2019-06-15T08:14:44.013Z</time>
      </trkpt>
      <trkpt lat="44.98922" lon="5.37683">
        <ele>1397</ele>
        <time>2019-06-15T08:14:45.013Z</time>
      </trkpt>
      <trkpt lat="44.98923" lon="5.37683">
        <ele>1397</ele>
        <time>2019-06-15T08:14:46.013Z</time>
      </trkpt>
      <trkpt lat="44.98925" lon="5.37683">
        <ele>1398</ele>
        <time>2019-06-15T08:14:47.013Z</time>
      </trkpt>
      <trkpt lat="44.98926" lon="5.37683">
        <ele>1398</ele>
        <time>2019-06-15T08:14:48.013Z</time>
      </trkpt>
      <trkpt lat="44.98928" lon="5.37684">
        <ele>1399</ele>
        <time>2019-06-15T08:14:49.013Z</time>
      </trkpt>
      <trkpt lat="44.98929" lon="5.37684">
        <ele>1400</ele>
        <time>2019-06-15T08:14:50.013Z</time>
      </trkpt>
      <trkpt lat="44.98931" lon="5.37684">
        <ele>1401</ele>
        <time>2019-06-15T08:14:51.013Z</time>
      </trkpt>
      <trkpt lat="44.98932" lon="5.37684">
        <ele>1401</ele>
        <time>2019-06-15T08:14:52.013Z</time>
      </trkpt>
      <trkpt lat="44.98934" lon="5.37684">
        <ele>1401</ele>
        <time>2019-06-15T08:14:53.013Z</time>
      </trkpt>
      <trkpt lat="44.98935" lon="5.37684">
        <ele>1402</ele>
        <time>2019-06-15T08:14:54.013Z</time>
      </trkpt>
      <trkpt lat="44.98937" lon="5.37684">
        <ele>1402</ele>
        <time>2019-06-15T08:14:55.013Z</time>
      </trkpt>
      <trkpt lat="44.98938" lon="5.37684">
        <ele>1402</ele>
        <time>2019-06-15T08:14:56.013Z</time>
      </trkpt>
      <trkpt lat="44.9894" lon="5.37685">
        <ele>1402</ele>
        <time>2019-06-15T08:14:57.013Z</time>
      </trkpt>
      <trkpt lat="44.98941" lon="5.37685">
        <ele>1403</ele>
        <time>2019-06-15T08:14:58.013Z</time>
      </trkpt>
      <trkpt lat="44.98942" lon="5.37685">
        <ele>1403</ele>
        <time>2019-06-15T08:14:59.013Z</time>
      </trkpt>
      <trkpt lat="44.98944" lon="5.37685">
        <ele>1404</ele>
        <time>2019-06-15T08:15:00.013Z</time>
      </trkpt>
      <trkpt lat="44.98945" lon="5.37684">
        <ele>1403</ele>
        <time>2019-06-15T08:15:01.013Z</time>
      </trkpt>
      <trkpt lat="44.98947" lon="5.37684">
        <ele>1404</ele>
        <time>2019-06-15T08:15:02.013Z</time>
      </trkpt>
      <trkpt lat="44.98948" lon="5.37684">
        <ele>1404</ele>
        <time>2019-06-15T08:15:03.013Z</time>
      </trkpt>
      <trkpt lat="44.9895" lon="5.37684">
        <ele>1404</ele>
        <time>2019-06-15T08:15:04.013Z</time>
      </trkpt>
      <trkpt lat="44.98951" lon="5.37684">
        <ele>1405</ele>
        <time>2019-06-15T08:15:05.013Z</time>
      </trkpt>
      <trkpt lat="44.98953" lon="5.37685">
        <ele>1405</ele>
        <time>2019-06-15T08:15:06.013Z</time>
      </trkpt>
      <trkpt lat="44.98955" lon="5.37685">
        <ele>1405</ele>
        <time>2019-06-15T08:15:07.013Z</time>
      </trkpt>
      <trkpt lat="44.98957" lon="5.37686">
        <ele>1406</ele>
        <time>2019-06-15T08:15:08.013Z</time>
      </trkpt>
      <trkpt lat="44.98959" lon="5.37686">
        <ele>1406</ele>
        <time>2019-06-15T08:15:09.013Z</time>
      </trkpt>
      <trkpt lat="44.9896" lon="5.37686">
        <ele>1406</ele>
        <time>2019-06-15T08:15:10.013Z</time>
      </trkpt>
      <trkpt lat="44.98962" lon="5.37687">
        <ele>1406</ele>
        <time>2019-06-15T08:15:11.013Z</time>
      </trkpt>
      <trkpt lat="44.98963" lon="5.37687">
        <ele>1406</ele>
        <time>2019-06-15T08:15:12.013Z</time>
      </trkpt>
      <trkpt lat="44.98965" lon="5.37688">
        <ele>1406</ele>
        <time>2019-06-15T08:15:13.013Z</time>
      </trkpt>
      <trkpt lat="44.98966" lon="5.37688">
        <ele>1406</ele>
        <time>2019-06-15T08:15:14.013Z</time>
      </trkpt>
      <trkpt lat="44.98968" lon="5.37689">
        <ele>1405</ele>
        <time>2019-06-15T08:15:15.013Z</time>
      </trkpt>
      <trkpt lat="44.9897" lon="5.37689">
        <ele>1405</ele>
        <time>2019-06-15T08:15:16.013Z</time>
      </trkpt>
      <trkpt lat="44.98971" lon="5.37689">
        <ele>1405</ele>
        <time>2019-06-15T08:15:17.013Z</time>
      </trkpt>
      <trkpt lat="44.98973" lon="5.3769">
        <ele>1405</ele>
        <time>2019-06-15T08:15:18.013Z</time>
      </trkpt>
      <trkpt lat="44.98974" lon="5.3769">
        <ele>1405</ele>
        <time>2019-06-15T08:15:19.013Z</time>
      </trkpt>
      <trkpt lat="44.98976" lon="5.37691">
        <ele>1405</ele>
        <time>2019-06-15T08:15:20.013Z</time>
      </trkpt>
      <trkpt lat="44.98977" lon="5.37691">
        <ele>1405</ele>
        <time>2019-06-15T08:15:21.013Z</time>
      </trkpt>
      <trkpt lat="44.98978" lon="5.37692">
        <ele>1406</ele>
        <time>2019-06-15T08:15:22.013Z</time>
      </trkpt>
      <trkpt lat="44.98979" lon="5.37692">
        <ele>1406</ele>
        <time>2019-06-15T08:15:23.013Z</time>
      </trkpt>
      <trkpt lat="44.9898" lon="5.37693">
        <ele>1405</ele>
        <time>2019-06-15T08:15:24.013Z</time>
      </trkpt>
      <trkpt lat="44.98982" lon="5.37693">
        <ele>1405</ele>
        <time>2019-06-15T08:15:25.013Z</time>
      </trkpt>
      <trkpt lat="44.98983" lon="5.37693">
        <ele>1405</ele>
        <time>2019-06-15T08:15:26.013Z</time>
      </trkpt>
      <trkpt lat="44.98985" lon="5.37693">
        <ele>1405</ele>
        <time>2019-06-15T08:15:27.013Z</time>
      </trkpt>
      <trkpt lat="44.98986" lon="5.37693">
        <ele>1404</ele>
        <time>2019-06-15T08:15:28.013Z</time>
      </trkpt>
      <trkpt lat="44.98988" lon="5.37694">
        <ele>1404</ele>
        <time>2019-06-15T08:15:29.013Z</time>
      </trkpt>
      <trkpt lat="44.98989" lon="5.37694">
        <ele>1404</ele>
        <time>2019-06-15T08:15:30.013Z</time>
      </trkpt>
      <trkpt lat="44.98991" lon="5.37695">
        <ele>1404</ele>
        <time>2019-06-15T08:15:31.013Z</time>
      </trkpt>
      <trkpt lat="44.98993" lon="5.37696">
        <ele>1403</ele>
        <time>2019-06-15T08:15:32.013Z</time>
      </trkpt>
      <trkpt lat="44.98995" lon="5.37698">
        <ele>1403</ele>
        <time>2019-06-15T08:15:33.013Z</time>
      </trkpt>
      <trkpt lat="44.98997" lon="5.37699">
        <ele>1403</ele>
        <time>2019-06-15T08:15:34.013Z</time>
      </trkpt>
      <trkpt lat="44.98998" lon="5.377">
        <ele>1402</ele>
        <time>2019-06-15T08:15:35.013Z</time>
      </trkpt>
      <trkpt lat="44.99" lon="5.377">
        <ele>1402</ele>
        <time>2019-06-15T08:15:36.013Z</time>
      </trkpt>
      <trkpt lat="44.99001" lon="5.377">
        <ele>1401</ele>
        <time>2019-06-15T08:15:37.013Z</time>
      </trkpt>
      <trkpt lat="44.99003" lon="5.377">
        <ele>1400</ele>
        <time>2019-06-15T08:15:38.013Z</time>
      </trkpt>
      <trkpt lat="44.99004" lon="5.377">
        <ele>1399</ele>
        <time>2019-06-15T08:15:39.013Z</time>
      </trkpt>
      <trkpt lat="44.99005" lon="5.377">
        <ele>1399</ele>
        <time>2019-06-15T08:15:40.013Z</time>
      </trkpt>
      <trkpt lat="44.99006" lon="5.377">
        <ele>1397</ele>
        <time>2019-06-15T08:15:41.013Z</time>
      </trkpt>
      <trkpt lat="44.99008" lon="5.377">
        <ele>1396</ele>
        <time>2019-06-15T08:15:42.013Z</time>
      </trkpt>
      <trkpt lat="44.9901" lon="5.37701">
        <ele>1396</ele>
        <time>2019-06-15T08:15:43.013Z</time>
      </trkpt>
      <trkpt lat="44.99011" lon="5.37701">
        <ele>1396</ele>
        <time>2019-06-15T08:15:44.013Z</time>
      </trkpt>
      <trkpt lat="44.99013" lon="5.37702">
        <ele>1395</ele>
        <time>2019-06-15T08:15:45.013Z</time>
      </trkpt>
      <trkpt lat="44.99015" lon="5.37703">
        <ele>1394</ele>
        <time>2019-06-15T08:15:46.013Z</time>
      </trkpt>
      <trkpt lat="44.99017" lon="5.37704">
        <ele>1393</ele>
        <time>2019-06-15T08:15:47.013Z</time>
      </trkpt>
      <trkpt lat="44.99018" lon="5.37705">
        <ele>1394</ele>
        <time>2019-06-15T08:15:48.013Z</time>
      </trkpt>
      <trkpt lat="44.9902" lon="5.37707">
        <ele>1395</ele>
        <time>2019-06-15T08:15:49.013Z</time>
      </trkpt>
      <trkpt lat="44.99023" lon="5.37709">
        <ele>1395</ele>
        <time>2019-06-15T08:15:50.013Z</time>
      </trkpt>
      <trkpt lat="44.99025" lon="5.37711">
        <ele>1395</ele>
        <time>2019-06-15T08:15:51.013Z</time>
      </trkpt>
      <trkpt lat="44.99028" lon="5.37713">
        <ele>1395</ele>
        <time>2019-06-15T08:15:52.013Z</time>
      </trkpt>
      <trkpt lat="44.9903" lon="5.37715">
        <ele>1394</ele>
        <time>2019-06-15T08:15:53.013Z</time>
      </trkpt>
      <trkpt lat="44.99033" lon="5.37715">
        <ele>1394</ele>
        <time>2019-06-15T08:15:54.013Z</time>
      </trkpt>
      <trkpt lat="44.99035" lon="5.37715">
        <ele>1394</ele>
        <time>2019-06-15T08:15:55.013Z</time>
      </trkpt>
      <trkpt lat="44.99036" lon="5.37714">
        <ele>1393</ele>
        <time>2019-06-15T08:15:56.013Z</time>
      </trkpt>
      <trkpt lat="44.99038" lon="5.37713">
        <ele>1393</ele>
        <time>2019-06-15T08:15:57.013Z</time>
      </trkpt>
      <trkpt lat="44.9904" lon="5.37711">
        <ele>1394</ele>
        <time>2019-06-15T08:15:58.013Z</time>
      </trkpt>
      <trkpt lat="44.99042" lon="5.37709">
        <ele>1393</ele>
        <time>2019-06-15T08:15:59.013Z</time>
      </trkpt>
      <trkpt lat="44.99043" lon="5.37707">
        <ele>1392</ele>
        <time>2019-06-15T08:16:00.013Z</time>
      </trkpt>
      <trkpt lat="44.99044" lon="5.37705">
        <ele>1391</ele>
        <time>2019-06-15T08:16:01.013Z</time>
      </trkpt>
      <trkpt lat="44.99045" lon="5.37702">
        <ele>1391</ele>
        <time>2019-06-15T08:16:02.013Z</time>
      </trkpt>
      <trkpt lat="44.99046" lon="5.37701">
        <ele>1390</ele>
        <time>2019-06-15T08:16:03.013Z</time>
      </trkpt>
      <trkpt lat="44.99048" lon="5.37699">
        <ele>1389</ele>
        <time>2019-06-15T08:16:04.013Z</time>
      </trkpt>
      <trkpt lat="44.9905" lon="5.37698">
        <ele>1389</ele>
        <time>2019-06-15T08:16:05.013Z</time>
      </trkpt>
      <trkpt lat="44.99052" lon="5.37698">
        <ele>1388</ele>
        <time>2019-06-15T08:16:06.013Z</time>
      </trkpt>
      <trkpt lat="44.99053" lon="5.37698">
        <ele>1387</ele>
        <time>2019-06-15T08:16:07.013Z</time>
      </trkpt>
      <trkpt lat="44.99055" lon="5.37698">
        <ele>1386</ele>
        <time>2019-06-15T08:16:08.013Z</time>
      </trkpt>
      <trkpt lat="44.99056" lon="5.37697">
        <ele>1386</ele>
        <time>2019-06-15T08:16:09.013Z</time>
      </trkpt>
      <trkpt lat="44.99057" lon="5.37696">
        <ele>1385</ele>
        <time>2019-06-15T08:16:10.013Z</time>
      </trkpt>
      <trkpt lat="44.99058" lon="5.37695">
        <ele>1384</ele>
        <time>2019-06-15T08:16:11.013Z</time>
      </trkpt>
      <trkpt lat="44.99059" lon="5.37694">
        <ele>1384</ele>
        <time>2019-06-15T08:16:12.013Z</time>
      </trkpt>
      <trkpt lat="44.99061" lon="5.37693">
        <ele>1381</ele>
        <time>2019-06-15T08:16:13.013Z</time>
      </trkpt>
      <trkpt lat="44.99062" lon="5.37691">
        <ele>1380</ele>
        <time>2019-06-15T08:16:14.013Z</time>
      </trkpt>
      <trkpt lat="44.99064" lon="5.3769">
        <ele>1380</ele>
        <time>2019-06-15T08:16:15.013Z</time>
      </trkpt>
      <trkpt lat="44.99064" lon="5.37688">
        <ele>1379</ele>
        <time>2019-06-15T08:16:16.013Z</time>
      </trkpt>
      <trkpt lat="44.99064" lon="5.37685">
        <ele>1378</ele>
        <time>2019-06-15T08:16:17.013Z</time>
      </trkpt>
      <trkpt lat="44.99065" lon="5.37683">
        <ele>1378</ele>
        <time>2019-06-15T08:16:18.013Z</time>
      </trkpt>
      <trkpt lat="44.99065" lon="5.37681">
        <ele>1377</ele>
        <time>2019-06-15T08:16:19.013Z</time>
      </trkpt>
      <trkpt lat="44.99065" lon="5.37678">
        <ele>1377</ele>
        <time>2019-06-15T08:16:20.013Z</time>
      </trkpt>
      <trkpt lat="44.99065" lon="5.37676">
        <ele>1375</ele>
        <time>2019-06-15T08:16:21.013Z</time>
      </trkpt>
      <trkpt lat="44.99065" lon="5.37673">
        <ele>1373</ele>
        <time>2019-06-15T08:16:22.013Z</time>
      </trkpt>
      <trkpt lat="44.99065" lon="5.37671">
        <ele>1372</ele>
        <time>2019-06-15T08:16:23.013Z</time>
      </trkpt>
      <trkpt lat="44.99065" lon="5.37668">
        <ele>1371</ele>
        <time>2019-06-15T08:16:24.013Z</time>
      </trkpt>
      <trkpt lat="44.99064" lon="5.37666">
        <ele>1370</ele>
        <time>2019-06-15T08:16:25.013Z</time>
      </trkpt>
      <trkpt lat="44.99063" lon="5.37663">
        <ele>1370</ele>
        <time>2019-06-15T08:16:26.013Z</time>
      </trkpt>
      <trkpt lat="44.99063" lon="5.37662">
        <ele>1369</ele>
        <time>2019-06-15T08:16:27.013Z</time>
      </trkpt>
      <trkpt lat="44.99064" lon="5.3766">
        <ele>1368</ele>
        <time>2019-06-15T08:16:28.013Z</time>
      </trkpt>
      <trkpt lat="44.99065" lon="5.3766">
        <ele>1367</ele>
        <time>2019-06-15T08:16:29.013Z</time>
      </trkpt>
      <trkpt lat="44.99066" lon="5.37659">
        <ele>1367</ele>
        <time>2019-06-15T08:16:30.013Z</time>
      </trkpt>
      <trkpt lat="44.99067" lon="5.37658">
        <ele>1367</ele>
        <time>2019-06-15T08:16:31.013Z</time>
      </trkpt>
      <trkpt lat="44.99068" lon="5.37657">
        <ele>1366</ele>
        <time>2019-06-15T08:16:32.013Z</time>
      </trkpt>
      <trkpt lat="44.99069" lon="5.37655">
        <ele>1365</ele>
        <time>2019-06-15T08:16:33.013Z</time>
      </trkpt>
      <trkpt lat="44.9907" lon="5.37653">
        <ele>1364</ele>
        <time>2019-06-15T08:16:34.013Z</time>
      </trkpt>
      <trkpt lat="44.9907" lon="5.37652">
        <ele>1363</ele>
        <time>2019-06-15T08:16:35.013Z</time>
      </trkpt>
      <trkpt lat="44.99071" lon="5.37651">
        <ele>1363</ele>
        <time>2019-06-15T08:16:36.013Z</time>
      </trkpt>
      <trkpt lat="44.99071" lon="5.37649">
        <ele>1362</ele>
        <time>2019-06-15T08:16:37.013Z</time>
      </trkpt>
      <trkpt lat="44.99072" lon="5.37648">
        <ele>1361</ele>
        <time>2019-06-15T08:16:38.013Z</time>
      </trkpt>
      <trkpt lat="44.99072" lon="5.37646">
        <ele>1360</ele>
        <time>2019-06-15T08:16:39.013Z</time>
      </trkpt>
      <trkpt lat="44.99071" lon="5.37645">
        <ele>1360</ele>
        <time>2019-06-15T08:16:40.013Z</time>
      </trkpt>
      <trkpt lat="44.9907" lon="5.37643">
        <ele>1358</ele>
        <time>2019-06-15T08:16:41.013Z</time>
      </trkpt>
      <trkpt lat="44.99069" lon="5.37641">
        <ele>1357</ele>
        <time>2019-06-15T08:16:42.013Z</time>
      </trkpt>
      <trkpt lat="44.99068" lon="5.37639">
        <ele>1356</ele>
        <time>2019-06-15T08:16:43.013Z</time>
      </trkpt>
      <trkpt lat="44.99067" lon="5.37637">
        <ele>1356</ele>
        <time>2019-06-15T08:16:44.013Z</time>
      </trkpt>
      <trkpt lat="44.99066" lon="5.37634">
        <ele>1355</ele>
        <time>2019-06-15T08:16:45.013Z</time>
      </trkpt>
      <trkpt lat="44.99065" lon="5.37632">
        <ele>1354</ele>
        <time>2019-06-15T08:16:46.013Z</time>
      </trkpt>
      <trkpt lat="44.99064" lon="5.37629">
        <ele>1353</ele>
        <time>2019-06-15T08:16:47.013Z</time>
      </trkpt>
      <trkpt lat="44.99064" lon="5.37627">
        <ele>1356</ele>
        <time>2019-06-15T08:16:48.013Z</time>
      </trkpt>
      <trkpt lat="44.99065" lon="5.37625">
        <ele>1354</ele>
        <time>2019-06-15T08:16:49.013Z</time>
      </trkpt>
      <trkpt lat="44.99067" lon="5.37625">
        <ele>1353</ele>
        <time>2019-06-15T08:16:50.013Z</time>
      </trkpt>
      <trkpt lat="44.99069" lon="5.37624">
        <ele>1353</ele>
        <time>2019-06-15T08:16:51.013Z</time>
      </trkpt>
      <trkpt lat="44.9907" lon="5.37624">
        <ele>1353</ele>
        <time>2019-06-15T08:16:52.013Z</time>
      </trkpt>
      <trkpt lat="44.99072" lon="5.37624">
        <ele>1352</ele>
        <time>2019-06-15T08:16:53.013Z</time>
      </trkpt>
      <trkpt lat="44.99073" lon="5.37624">
        <ele>1352</ele>
        <time>2019-06-15T08:16:54.013Z</time>
      </trkpt>
      <trkpt lat="44.99075" lon="5.37625">
        <ele>1352</ele>
        <time>2019-06-15T08:16:55.013Z</time>
      </trkpt>
      <trkpt lat="44.99077" lon="5.37626">
        <ele>1352</ele>
        <time>2019-06-15T08:16:56.013Z</time>
      </trkpt>
      <trkpt lat="44.99079" lon="5.37627">
        <ele>1353</ele>
        <time>2019-06-15T08:16:57.013Z</time>
      </trkpt>
      <trkpt lat="44.99082" lon="5.37628">
        <ele>1352</ele>
        <time>2019-06-15T08:16:58.013Z</time>
      </trkpt>
      <trkpt lat="44.99085" lon="5.3763">
        <ele>1353</ele>
        <time>2019-06-15T08:16:59.013Z</time>
      </trkpt>
      <trkpt lat="44.99088" lon="5.37631">
        <ele>1354</ele>
        <time>2019-06-15T08:17:00.013Z</time>
      </trkpt>
      <trkpt lat="44.9909" lon="5.37632">
        <ele>1355</ele>
        <time>2019-06-15T08:17:01.013Z</time>
      </trkpt>
      <trkpt lat="44.99093" lon="5.37634">
        <ele>1355</ele>
        <time>2019-06-15T08:17:02.013Z</time>
      </trkpt>
      <trkpt lat="44.99095" lon="5.37635">
        <ele>1354</ele>
        <time>2019-06-15T08:17:03.013Z</time>
      </trkpt>
      <trkpt lat="44.99097" lon="5.37637">
        <ele>1353</ele>
        <time>2019-06-15T08:17:04.013Z</time>
      </trkpt>
      <trkpt lat="44.991" lon="5.3764">
        <ele>1352</ele>
        <time>2019-06-15T08:17:05.013Z</time>
      </trkpt>
      <trkpt lat="44.99102" lon="5.37642">
        <ele>1353</ele>
        <time>2019-06-15T08:17:06.013Z</time>
      </trkpt>
      <trkpt lat="44.99104" lon="5.37644">
        <ele>1354</ele>
        <time>2019-06-15T08:17:07.013Z</time>
      </trkpt>
      <trkpt lat="44.99106" lon="5.37646">
        <ele>1354</ele>
        <time>2019-06-15T08:17:08.013Z</time>
      </trkpt>
      <trkpt lat="44.99107" lon="5.37649">
        <ele>1356</ele>
        <time>2019-06-15T08:17:09.013Z</time>
      </trkpt>
      <trkpt lat="44.99108" lon="5.37651">
        <ele>1356</ele>
        <time>2019-06-15T08:17:10.013Z</time>
      </trkpt>
      <trkpt lat="44.9911" lon="5.37654">
        <ele>1356</ele>
        <time>2019-06-15T08:17:11.013Z</time>
      </trkpt>
      <trkpt lat="44.99111" lon="5.37656">
        <ele>1357</ele>
        <time>2019-06-15T08:17:12.013Z</time>
      </trkpt>
      <trkpt lat="44.99113" lon="5.37658">
        <ele>1356</ele>
        <time>2019-06-15T08:17:13.013Z</time>
      </trkpt>
      <trkpt lat="44.99115" lon="5.3766">
        <ele>1356</ele>
        <time>2019-06-15T08:17:14.013Z</time>
      </trkpt>
      <trkpt lat="44.99117" lon="5.37662">
        <ele>1356</ele>
        <time>2019-06-15T08:17:15.013Z</time>
      </trkpt>
      <trkpt lat="44.9912" lon="5.37664">
        <ele>1356</ele>
        <time>2019-06-15T08:17:16.013Z</time>
      </trkpt>
      <trkpt lat="44.99122" lon="5.37667">
        <ele>1357</ele>
        <time>2019-06-15T08:17:17.013Z</time>
      </trkpt>
      <trkpt lat="44.99124" lon="5.3767">
        <ele>1356</ele>
        <time>2019-06-15T08:17:18.013Z</time>
      </trkpt>
      <trkpt lat="44.99127" lon="5.37673">
        <ele>1357</ele>
        <time>2019-06-15T08:17:19.013Z</time>
      </trkpt>
      <trkpt lat="44.99128" lon="5.37676">
        <ele>1358</ele>
        <time>2019-06-15T08:17:20.013Z</time>
      </trkpt>
      <trkpt lat="44.9913" lon="5.37679">
        <ele>1358</ele>
        <time>2019-06-15T08:17:21.013Z</time>
      </trkpt>
      <trkpt lat="44.99131" lon="5.37681">
        <ele>1358</ele>
        <time>2019-06-15T08:17:22.013Z</time>
      </trkpt>
      <trkpt lat="44.99132" lon="5.37684">
        <ele>1358</ele>
        <time>2019-06-15T08:17:23.013Z</time>
      </trkpt>
      <trkpt lat="44.99134" lon="5.37686">
        <ele>1358</ele>
        <time>2019-06-15T08:17:24.013Z</time>
      </trkpt>
      <trkpt lat="44.99135" lon="5.37688">
        <ele>1359</ele>
        <time>2019-06-15T08:17:25.013Z</time>
      </trkpt>
      <trkpt lat="44.99137" lon="5.3769">
        <ele>1359</ele>
        <time>2019-06-15T08:17:26.013Z</time>
      </trkpt>
      <trkpt lat="44.99139" lon="5.37692">
        <ele>1360</ele>
        <time>2019-06-15T08:17:27.013Z</time>
      </trkpt>
      <trkpt lat="44.99141" lon="5.37695">
        <ele>1360</ele>
        <time>2019-06-15T08:17:28.013Z</time>
      </trkpt>
      <trkpt lat="44.99144" lon="5.37697">
        <ele>1361</ele>
        <time>2019-06-15T08:17:29.013Z</time>
      </trkpt>
      <trkpt lat="44.99148" lon="5.377">
        <ele>1362</ele>
        <time>2019-06-15T08:17:30.013Z</time>
      </trkpt>
      <trkpt lat="44.99151" lon="5.37702">
        <ele>1363</ele>
        <time>2019-06-15T08:17:31.013Z</time>
      </trkpt>
      <trkpt lat="44.99154" lon="5.37704">
        <ele>1362</ele>
        <time>2019-06-15T08:17:32.013Z</time>
      </trkpt>
      <trkpt lat="44.99157" lon="5.37705">
        <ele>1362</ele>
        <time>2019-06-15T08:17:33.013Z</time>
      </trkpt>
      <trkpt lat="44.99162" lon="5.37707">
        <ele>1363</ele>
        <time>2019-06-15T08:17:34.013Z</time>
      </trkpt>
      <trkpt lat="44.99167" lon="5.37707">
        <ele>1363</ele>
        <time>2019-06-15T08:17:35.013Z</time>
      </trkpt>
      <trkpt lat="44.99172" lon="5.37708">
        <ele>1363</ele>
        <time>2019-06-15T08:17:36.013Z</time>
      </trkpt>
      <trkpt lat="44.99175" lon="5.37709">
        <ele>1363</ele>
        <time>2019-06-15T08:17:37.013Z</time>
      </trkpt>
      <trkpt lat="44.99177" lon="5.3771">
        <ele>1363</ele>
        <time>2019-06-15T08:17:38.013Z</time>
      </trkpt>
      <trkpt lat="44.9918" lon="5.3771">
        <ele>1363</ele>
        <time>2019-06-15T08:17:39.013Z</time>
      </trkpt>
      <trkpt lat="44.99182" lon="5.37711">
        <ele>1362</ele>
        <time>2019-06-15T08:17:40.013Z</time>
      </trkpt>
      <trkpt lat="44.99184" lon="5.3771">
        <ele>1361</ele>
        <time>2019-06-15T08:17:41.013Z</time>
      </trkpt>
      <trkpt lat="44.99186" lon="5.3771">
        <ele>1361</ele>
        <time>2019-06-15T08:17:42.013Z</time>
      </trkpt>
      <trkpt lat="44.99189" lon="5.37709">
        <ele>1361</ele>
        <time>2019-06-15T08:17:43.013Z</time>
      </trkpt>
      <trkpt lat="44.99192" lon="5.37709">
        <ele>1361</ele>
        <time>2019-06-15T08:17:44.013Z</time>
      </trkpt>
      <trkpt lat="44.99194" lon="5.37708">
        <ele>1361</ele>
        <time>2019-06-15T08:17:45.013Z</time>
      </trkpt>
      <trkpt lat="44.99197" lon="5.37707">
        <ele>1362</ele>
        <time>2019-06-15T08:17:46.013Z</time>
      </trkpt>
      <trkpt lat="44.992" lon="5.37706">
        <ele>1359</ele>
        <time>2019-06-15T08:17:47.013Z</time>
      </trkpt>
      <trkpt lat="44.99203" lon="5.37705">
        <ele>1359</ele>
        <time>2019-06-15T08:17:48.013Z</time>
      </trkpt>
      <trkpt lat="44.99206" lon="5.37704">
        <ele>1360</ele>
        <time>2019-06-15T08:17:49.013Z</time>
      </trkpt>
      <trkpt lat="44.99208" lon="5.37702">
        <ele>1359</ele>
        <time>2019-06-15T08:17:50.013Z</time>
      </trkpt>
      <trkpt lat="44.99211" lon="5.37701">
        <ele>1358</ele>
        <time>2019-06-15T08:17:51.013Z</time>
      </trkpt>
      <trkpt lat="44.99214" lon="5.37701">
        <ele>1358</ele>
        <time>2019-06-15T08:17:52.013Z</time>
      </trkpt>
      <trkpt lat="44.99217" lon="5.377">
        <ele>1358</ele>
        <time>2019-06-15T08:17:53.013Z</time>
      </trkpt>
      <trkpt lat="44.99221" lon="5.37698">
        <ele>1359</ele>
        <time>2019-06-15T08:17:54.013Z</time>
      </trkpt>
      <trkpt lat="44.99223" lon="5.37697">
        <ele>1358</ele>
        <time>2019-06-15T08:17:55.013Z</time>
      </trkpt>
      <trkpt lat="44.99226" lon="5.37696">
        <ele>1359</ele>
        <time>2019-06-15T08:17:56.013Z</time>
      </trkpt>
      <trkpt lat="44.99229" lon="5.37696">
        <ele>1359</ele>
        <time>2019-06-15T08:17:57.013Z</time>
      </trkpt>
      <trkpt lat="44.99231" lon="5.37696">
        <ele>1359</ele>
        <time>2019-06-15T08:17:58.013Z</time>
      </trkpt>
      <trkpt lat="44.99234" lon="5.37696">
        <ele>1361</ele>
        <time>2019-06-15T08:17:59.013Z</time>
      </trkpt>
      <trkpt lat="44.99236" lon="5.37695">
        <ele>1361</ele>
        <time>2019-06-15T08:18:00.013Z</time>
      </trkpt>
      <trkpt lat="44.99239" lon="5.37695">
        <ele>1361</ele>
        <time>2019-06-15T08:18:01.013Z</time>
      </trkpt>
      <trkpt lat="44.99242" lon="5.37694">
        <ele>1361</ele>
        <time>2019-06-15T08:18:02.013Z</time>
      </trkpt>
      <trkpt lat="44.99244" lon="5.37694">
        <ele>1361</ele>
        <time>2019-06-15T08:18:03.013Z</time>
      </trkpt>
      <trkpt lat="44.99246" lon="5.37693">
        <ele>1361</ele>
        <time>2019-06-15T08:18:04.013Z</time>
      </trkpt>
      <trkpt lat="44.99249" lon="5.37692">
        <ele>1361</ele>
        <time>2019-06-15T08:18:05.013Z</time>
      </trkpt>
      <trkpt lat="44.99251" lon="5.37692">
        <ele>1361</ele>
        <time>2019-06-15T08:18:06.013Z</time>
      </trkpt>
      <trkpt lat="44.99253" lon="5.37691">
        <ele>1361</ele>
        <time>2019-06-15T08:18:07.013Z</time>
      </trkpt>
      <trkpt lat="44.99255" lon="5.37691">
        <ele>1361</ele>
        <time>2019-06-15T08:18:08.013Z</time>
      </trkpt>
      <trkpt lat="44.99257" lon="5.37691">
        <ele>1361</ele>
        <time>2019-06-15T08:18:09.013Z</time>
      </trkpt>
      <trkpt lat="44.99259" lon="5.3769">
        <ele>1361</ele>
        <time>2019-06-15T08:18:10.013Z</time>
      </trkpt>
      <trkpt lat="44.99261" lon="5.3769">
        <ele>1361</ele>
        <time>2019-06-15T08:18:11.013Z</time>
      </trkpt>
      <trkpt lat="44.99263" lon="5.3769">
        <ele>1359</ele>
        <time>2019-06-15T08:18:12.013Z</time>
      </trkpt>
      <trkpt lat="44.99266" lon="5.3769">
        <ele>1359</ele>
        <time>2019-06-15T08:18:13.013Z</time>
      </trkpt>
      <trkpt lat="44.99269" lon="5.3769">
        <ele>1359</ele>
        <time>2019-06-15T08:18:14.013Z</time>
      </trkpt>
      <trkpt lat="44.99272" lon="5.37691">
        <ele>1359</ele>
        <time>2019-06-15T08:18:15.013Z</time>
      </trkpt>
      <trkpt lat="44.99274" lon="5.37691">
        <ele>1359</ele>
        <time>2019-06-15T08:18:16.013Z</time>
      </trkpt>
      <trkpt lat="44.99277" lon="5.37691">
        <ele>1358</ele>
        <time>2019-06-15T08:18:17.013Z</time>
      </trkpt>
      <trkpt lat="44.99279" lon="5.37691">
        <ele>1358</ele>
        <time>2019-06-15T08:18:18.013Z</time>
      </trkpt>
      <trkpt lat="44.99282" lon="5.37692">
        <ele>1358</ele>
        <time>2019-06-15T08:18:19.013Z</time>
      </trkpt>
      <trkpt lat="44.99284" lon="5.37694">
        <ele>1358</ele>
        <time>2019-06-15T08:18:20.013Z</time>
      </trkpt>
      <trkpt lat="44.99287" lon="5.37696">
        <ele>1358</ele>
        <time>2019-06-15T08:18:21.013Z</time>
      </trkpt>
      <trkpt lat="44.9929" lon="5.37698">
        <ele>1359</ele>
        <time>2019-06-15T08:18:22.013Z</time>
      </trkpt>
      <trkpt lat="44.99293" lon="5.37699">
        <ele>1360</ele>
        <time>2019-06-15T08:18:23.013Z</time>
      </trkpt>
      <trkpt lat="44.99295" lon="5.37701">
        <ele>1360</ele>
        <time>2019-06-15T08:18:24.013Z</time>
      </trkpt>
      <trkpt lat="44.99297" lon="5.37702">
        <ele>1361</ele>
        <time>2019-06-15T08:18:25.013Z</time>
      </trkpt>
      <trkpt lat="44.99299" lon="5.37704">
        <ele>1360</ele>
        <time>2019-06-15T08:18:26.013Z</time>
      </trkpt>
      <trkpt lat="44.99302" lon="5.37705">
        <ele>1361</ele>
        <time>2019-06-15T08:18:27.013Z</time>
      </trkpt>
      <trkpt lat="44.99304" lon="5.37706">
        <ele>1361</ele>
        <time>2019-06-15T08:18:28.013Z</time>
      </trkpt>
      <trkpt lat="44.99307" lon="5.37706">
        <ele>1362</ele>
        <time>2019-06-15T08:18:29.013Z</time>
      </trkpt>
      <trkpt lat="44.99309" lon="5.37707">
        <ele>1362</ele>
        <time>2019-06-15T08:18:30.013Z</time>
      </trkpt>
      <trkpt lat="44.99312" lon="5.37707">
        <ele>1363</ele>
        <time>2019-06-15T08:18:31.013Z</time>
      </trkpt>
      <trkpt lat="44.99314" lon="5.37708">
        <ele>1362</ele>
        <time>2019-06-15T08:18:32.013Z</time>
      </trkpt>
      <trkpt lat="44.99316" lon="5.3771">
        <ele>1363</ele>
        <time>2019-06-15T08:18:33.013Z</time>
      </trkpt>
      <trkpt lat="44.99318" lon="5.37711">
        <ele>1364</ele>
        <time>2019-06-15T08:18:34.013Z</time>
      </trkpt>
      <trkpt lat="44.9932" lon="5.37713">
        <ele>1364</ele>
        <time>2019-06-15T08:18:35.013Z</time>
      </trkpt>
      <trkpt lat="44.99323" lon="5.37715">
        <ele>1363</ele>
        <time>2019-06-15T08:18:36.013Z</time>
      </trkpt>
      <trkpt lat="44.99325" lon="5.37716">
        <ele>1363</ele>
        <time>2019-06-15T08:18:37.013Z</time>
      </trkpt>
      <trkpt lat="44.99328" lon="5.37717">
        <ele>1364</ele>
        <time>2019-06-15T08:18:38.013Z</time>
      </trkpt>
      <trkpt lat="44.9933" lon="5.37717">
        <ele>1364</ele>
        <time>2019-06-15T08:18:39.013Z</time>
      </trkpt>
      <trkpt lat="44.99332" lon="5.37718">
        <ele>1364</ele>
        <time>2019-06-15T08:18:40.013Z</time>
      </trkpt>
      <trkpt lat="44.99334" lon="5.37719">
        <ele>1364</ele>
        <time>2019-06-15T08:18:41.013Z</time>
      </trkpt>
      <trkpt lat="44.99336" lon="5.3772">
        <ele>1365</ele>
        <time>2019-06-15T08:18:42.013Z</time>
      </trkpt>
      <trkpt lat="44.99339" lon="5.37721">
        <ele>1366</ele>
        <time>2019-06-15T08:18:43.013Z</time>
      </trkpt>
      <trkpt lat="44.99341" lon="5.37722">
        <ele>1367</ele>
        <time>2019-06-15T08:18:44.013Z</time>
      </trkpt>
      <trkpt lat="44.99344" lon="5.37723">
        <ele>1367</ele>
        <time>2019-06-15T08:18:45.013Z</time>
      </trkpt>
      <trkpt lat="44.99346" lon="5.37725">
        <ele>1366</ele>
        <time>2019-06-15T08:18:46.013Z</time>
      </trkpt>
      <trkpt lat="44.99349" lon="5.37726">
        <ele>1366</ele>
        <time>2019-06-15T08:18:47.013Z</time>
      </trkpt>
      <trkpt lat="44.99351" lon="5.37727">
        <ele>1367</ele>
        <time>2019-06-15T08:18:48.013Z</time>
      </trkpt>
      <trkpt lat="44.99354" lon="5.37729">
        <ele>1367</ele>
        <time>2019-06-15T08:18:49.013Z</time>
      </trkpt>
      <trkpt lat="44.99355" lon="5.37729">
        <ele>1367</ele>
        <time>2019-06-15T08:18:50.013Z</time>
      </trkpt>
      <trkpt lat="44.99357" lon="5.3773">
        <ele>1366</ele>
        <time>2019-06-15T08:18:51.013Z</time>
      </trkpt>
      <trkpt lat="44.99358" lon="5.37731">
        <ele>1366</ele>
        <time>2019-06-15T08:18:52.013Z</time>
      </trkpt>
      <trkpt lat="44.9936" lon="5.37731">
        <ele>1366</ele>
        <time>2019-06-15T08:18:53.013Z</time>
      </trkpt>
      <trkpt lat="44.99362" lon="5.37732">
        <ele>1365</ele>
        <time>2019-06-15T08:18:54.013Z</time>
      </trkpt>
      <trkpt lat="44.99364" lon="5.37732">
        <ele>1365</ele>
        <time>2019-06-15T08:18:55.013Z</time>
      </trkpt>
      <trkpt lat="44.99367" lon="5.37733">
        <ele>1365</ele>
        <time>2019-06-15T08:18:56.013Z</time>
      </trkpt>
      <trkpt lat="44.9937" lon="5.37734">
        <ele>1365</ele>
        <time>2019-06-15T08:18:57.013Z</time>
      </trkpt>
      <trkpt lat="44.99373" lon="5.37735">
        <ele>1364</ele>
        <time>2019-06-15T08:18:58.013Z</time>
      </trkpt>
      <trkpt lat="44.99376" lon="5.37735">
        <ele>1364</ele>
        <time>2019-06-15T08:18:59.013Z</time>
      </trkpt>
      <trkpt lat="44.99379" lon="5.37736">
        <ele>1364</ele>
        <time>2019-06-15T08:19:00.013Z</time>
      </trkpt>
      <trkpt lat="44.99382" lon="5.37736">
        <ele>1365</ele>
        <time>2019-06-15T08:19:01.013Z</time>
      </trkpt>
      <trkpt lat="44.99385" lon="5.37737">
        <ele>1365</ele>
        <time>2019-06-15T08:19:02.013Z</time>
      </trkpt>
      <trkpt lat="44.99388" lon="5.37739">
        <ele>1366</ele>
        <time>2019-06-15T08:19:03.013Z</time>
      </trkpt>
      <trkpt lat="44.99391" lon="5.3774">
        <ele>1366</ele>
        <time>2019-06-15T08:19:04.013Z</time>
      </trkpt>
      <trkpt lat="44.99394" lon="5.37741">
        <ele>1368</ele>
        <time>2019-06-15T08:19:05.013Z</time>
      </trkpt>
      <trkpt lat="44.99398" lon="5.37742">
        <ele>1368</ele>
        <time>2019-06-15T08:19:06.013Z</time>
      </trkpt>
      <trkpt lat="44.99402" lon="5.37743">
        <ele>1368</ele>
        <time>2019-06-15T08:19:07.013Z</time>
      </trkpt>
      <trkpt lat="44.99405" lon="5.37744">
        <ele>1368</ele>
        <time>2019-06-15T08:19:08.013Z</time>
      </trkpt>
      <trkpt lat="44.99408" lon="5.37745">
        <ele>1369</ele>
        <time>2019-06-15T08:19:09.013Z</time>
      </trkpt>
      <trkpt lat="44.9941" lon="5.37746">
        <ele>1369</ele>
        <time>2019-06-15T08:19:10.013Z</time>
      </trkpt>
      <trkpt lat="44.99413" lon="5.37748">
        <ele>1370</ele>
        <time>2019-06-15T08:19:11.013Z</time>
      </trkpt>
      <trkpt lat="44.99416" lon="5.37749">
        <ele>1371</ele>
        <time>2019-06-15T08:19:12.013Z</time>
      </trkpt>
      <trkpt lat="44.99419" lon="5.3775">
        <ele>1371</ele>
        <time>2019-06-15T08:19:13.013Z</time>
      </trkpt>
      <trkpt lat="44.99422" lon="5.37751">
        <ele>1370</ele>
        <time>2019-06-15T08:19:14.013Z</time>
      </trkpt>
      <trkpt lat="44.99424" lon="5.37752">
        <ele>1369</ele>
        <time>2019-06-15T08:19:15.013Z</time>
      </trkpt>
      <trkpt lat="44.99427" lon="5.37754">
        <ele>1368</ele>
        <time>2019-06-15T08:19:16.013Z</time>
      </trkpt>
      <trkpt lat="44.99429" lon="5.37755">
        <ele>1367</ele>
        <time>2019-06-15T08:19:17.013Z</time>
      </trkpt>
      <trkpt lat="44.99431" lon="5.37757">
        <ele>1367</ele>
        <time>2019-06-15T08:19:18.013Z</time>
      </trkpt>
      <trkpt lat="44.99434" lon="5.37759">
        <ele>1368</ele>
        <time>2019-06-15T08:19:19.013Z</time>
      </trkpt>
      <trkpt lat="44.99436" lon="5.3776">
        <ele>1368</ele>
        <time>2019-06-15T08:19:20.013Z</time>
      </trkpt>
      <trkpt lat="44.99439" lon="5.37762">
        <ele>1366</ele>
        <time>2019-06-15T08:19:21.013Z</time>
      </trkpt>
      <trkpt lat="44.99441" lon="5.37763">
        <ele>1366</ele>
        <time>2019-06-15T08:19:22.013Z</time>
      </trkpt>
      <trkpt lat="44.99443" lon="5.37766">
        <ele>1365</ele>
        <time>2019-06-15T08:19:23.013Z</time>
      </trkpt>
      <trkpt lat="44.99446" lon="5.37768">
        <ele>1365</ele>
        <time>2019-06-15T08:19:24.013Z</time>
      </trkpt>
      <trkpt lat="44.99449" lon="5.3777">
        <ele>1365</ele>
        <time>2019-06-15T08:19:25.013Z</time>
      </trkpt>
      <trkpt lat="44.99452" lon="5.37772">
        <ele>1365</ele>
        <time>2019-06-15T08:19:26.013Z</time>
      </trkpt>
      <trkpt lat="44.99454" lon="5.37774">
        <ele>1365</ele>
        <time>2019-06-15T08:19:27.013Z</time>
      </trkpt>
      <trkpt lat="44.99457" lon="5.37775">
        <ele>1365</ele>
        <time>2019-06-15T08:19:28.013Z</time>
      </trkpt>
      <trkpt lat="44.9946" lon="5.37777">
        <ele>1366</ele>
        <time>2019-06-15T08:19:29.013Z</time>
      </trkpt>
      <trkpt lat="44.99462" lon="5.37778">
        <ele>1366</ele>
        <time>2019-06-15T08:19:30.013Z</time>
      </trkpt>
      <trkpt lat="44.99465" lon="5.37779">
        <ele>1366</ele>
        <time>2019-06-15T08:19:31.013Z</time>
      </trkpt>
      <trkpt lat="44.99467" lon="5.3778">
        <ele>1366</ele>
        <time>2019-06-15T08:19:32.013Z</time>
      </trkpt>
      <trkpt lat="44.99469" lon="5.37781">
        <ele>1367</ele>
        <time>2019-06-15T08:19:33.013Z</time>
      </trkpt>
      <trkpt lat="44.99471" lon="5.37782">
        <ele>1367</ele>
        <time>2019-06-15T08:19:34.013Z</time>
      </trkpt>
      <trkpt lat="44.99473" lon="5.37783">
        <ele>1368</ele>
        <time>2019-06-15T08:19:35.013Z</time>
      </trkpt>
      <trkpt lat="44.99476" lon="5.37784">
        <ele>1369</ele>
        <time>2019-06-15T08:19:36.013Z</time>
      </trkpt>
      <trkpt lat="44.99479" lon="5.37784">
        <ele>1370</ele>
        <time>2019-06-15T08:19:37.013Z</time>
      </trkpt>
      <trkpt lat="44.99482" lon="5.37785">
        <ele>1371</ele>
        <time>2019-06-15T08:19:38.013Z</time>
      </trkpt>
      <trkpt lat="44.99485" lon="5.37785">
        <ele>1371</ele>
        <time>2019-06-15T08:19:39.013Z</time>
      </trkpt>
      <trkpt lat="44.99487" lon="5.37785">
        <ele>1371</ele>
        <time>2019-06-15T08:19:40.013Z</time>
      </trkpt>
      <trkpt lat="44.9949" lon="5.37786">
        <ele>1371</ele>
        <time>2019-06-15T08:19:41.013Z</time>
      </trkpt>
      <trkpt lat="44.99493" lon="5.37787">
        <ele>1371</ele>
        <time>2019-06-15T08:19:42.013Z</time>
      </trkpt>
      <trkpt lat="44.99496" lon="5.37788">
        <ele>1370</ele>
        <time>2019-06-15T08:19:43.013Z</time>
      </trkpt>
      <trkpt lat="44.99499" lon="5.37789">
        <ele>1370</ele>
        <time>2019-06-15T08:19:44.013Z</time>
      </trkpt>
      <trkpt lat="44.99502" lon="5.37791">
        <ele>1370</ele>
        <time>2019-06-15T08:19:45.013Z</time>
      </trkpt>
      <trkpt lat="44.99504" lon="5.37792">
        <ele>1369</ele>
        <time>2019-06-15T08:19:46.013Z</time>
      </trkpt>
      <trkpt lat="44.99507" lon="5.37793">
        <ele>1370</ele>
        <time>2019-06-15T08:19:47.013Z</time>
      </trkpt>
      <trkpt lat="44.9951" lon="5.37795">
        <ele>1371</ele>
        <time>2019-06-15T08:19:48.013Z</time>
      </trkpt>
      <trkpt lat="44.99512" lon="5.37795">
        <ele>1371</ele>
        <time>2019-06-15T08:19:49.013Z</time>
      </trkpt>
      <trkpt lat="44.99515" lon="5.37796">
        <ele>1371</ele>
        <time>2019-06-15T08:19:50.013Z</time>
      </trkpt>
      <trkpt lat="44.99517" lon="5.37796">
        <ele>1371</ele>
        <time>2019-06-15T08:19:51.013Z</time>
      </trkpt>
      <trkpt lat="44.99519" lon="5.37797">
        <ele>1371</ele>
        <time>2019-06-15T08:19:52.013Z</time>
      </trkpt>
      <trkpt lat="44.99521" lon="5.37798">
        <ele>1370</ele>
        <time>2019-06-15T08:19:53.013Z</time>
      </trkpt>
      <trkpt lat="44.99522" lon="5.37799">
        <ele>1370</ele>
        <time>2019-06-15T08:19:54.013Z</time>
      </trkpt>
      <trkpt lat="44.99524" lon="5.378">
        <ele>1370</ele>
        <time>2019-06-15T08:19:55.013Z</time>
      </trkpt>
      <trkpt lat="44.99526" lon="5.378">
        <ele>1369</ele>
        <time>2019-06-15T08:19:56.013Z</time>
      </trkpt>
      <trkpt lat="44.99528" lon="5.37801">
        <ele>1368</ele>
        <time>2019-06-15T08:19:57.013Z</time>
      </trkpt>
      <trkpt lat="44.9953" lon="5.37801">
        <ele>1368</ele>
        <time>2019-06-15T08:19:58.013Z</time>
      </trkpt>
      <trkpt lat="44.99533" lon="5.37802">
        <ele>1368</ele>
        <time>2019-06-15T08:19:59.013Z</time>
      </trkpt>
      <trkpt lat="44.99537" lon="5.37803">
        <ele>1369</ele>
        <time>2019-06-15T08:20:00.013Z</time>
      </trkpt>
      <trkpt lat="44.99541" lon="5.37804">
        <ele>1369</ele>
        <time>2019-06-15T08:20:01.013Z</time>
      </trkpt>
      <trkpt lat="44.99544" lon="5.37804">
        <ele>1368</ele>
        <time>2019-06-15T08:20:02.013Z</time>
      </trkpt>
      <trkpt lat="44.99547" lon="5.37805">
        <ele>1369</ele>
        <time>2019-06-15T08:20:03.013Z</time>
      </trkpt>
      <trkpt lat="44.9955" lon="5.37806">
        <ele>1369</ele>
        <time>2019-06-15T08:20:04.013Z</time>
      </trkpt>
      <trkpt lat="44.99552" lon="5.37807">
        <ele>1369</ele>
        <time>2019-06-15T08:20:05.013Z</time>
      </trkpt>
      <trkpt lat="44.99556" lon="5.37807">
        <ele>1370</ele>
        <time>2019-06-15T08:20:06.013Z</time>
      </trkpt>
      <trkpt lat="44.99559" lon="5.37808">
        <ele>1369</ele>
        <time>2019-06-15T08:20:07.013Z</time>
      </trkpt>
      <trkpt lat="44.99562" lon="5.37807">
        <ele>1368</ele>
        <time>2019-06-15T08:20:08.013Z</time>
      </trkpt>
      <trkpt lat="44.99564" lon="5.37807">
        <ele>1369</ele>
        <time>2019-06-15T08:20:09.013Z</time>
      </trkpt>
      <trkpt lat="44.99567" lon="5.37807">
        <ele>1369</ele>
        <time>2019-06-15T08:20:10.013Z</time>
      </trkpt>
      <trkpt lat="44.99571" lon="5.37806">
        <ele>1368</ele>
        <time>2019-06-15T08:20:11.013Z</time>
      </trkpt>
      <trkpt lat="44.99574" lon="5.37806">
        <ele>1367</ele>
        <time>2019-06-15T08:20:12.013Z</time>
      </trkpt>
      <trkpt lat="44.99578" lon="5.37805">
        <ele>1366</ele>
        <time>2019-06-15T08:20:13.013Z</time>
      </trkpt>
      <trkpt lat="44.99581" lon="5.37805">
        <ele>1366</ele>
        <time>2019-06-15T08:20:14.013Z</time>
      </trkpt>
      <trkpt lat="44.99584" lon="5.37805">
        <ele>1366</ele>
        <time>2019-06-15T08:20:15.013Z</time>
      </trkpt>
      <trkpt lat="44.99588" lon="5.37805">
        <ele>1366</ele>
        <time>2019-06-15T08:20:16.013Z</time>
      </trkpt>
      <trkpt lat="44.99592" lon="5.37804">
        <ele>1367</ele>
        <time>2019-06-15T08:20:17.013Z</time>
      </trkpt>
      <trkpt lat="44.99596" lon="5.37804">
        <ele>1366</ele>
        <time>2019-06-15T08:20:18.013Z</time>
      </trkpt>
      <trkpt lat="44.996" lon="5.37804">
        <ele>1366</ele>
        <time>2019-06-15T08:20:19.013Z</time>
      </trkpt>
      <trkpt lat="44.99602" lon="5.37803">
        <ele>1366</ele>
        <time>2019-06-15T08:20:20.013Z</time>
      </trkpt>
      <trkpt lat="44.99605" lon="5.37803">
        <ele>1367</ele>
        <time>2019-06-15T08:20:21.013Z</time>
      </trkpt>
      <trkpt lat="44.99607" lon="5.37803">
        <ele>1367</ele>
        <time>2019-06-15T08:20:22.013Z</time>
      </trkpt>
      <trkpt lat="44.99611" lon="5.37803">
        <ele>1367</ele>
        <time>2019-06-15T08:20:23.013Z</time>
      </trkpt>
      <trkpt lat="44.99614" lon="5.37803">
        <ele>1367</ele>
        <time>2019-06-15T08:20:24.013Z</time>
      </trkpt>
      <trkpt lat="44.99617" lon="5.37802">
        <ele>1364</ele>
        <time>2019-06-15T08:20:25.013Z</time>
      </trkpt>
      <trkpt lat="44.9962" lon="5.37802">
        <ele>1362</ele>
        <time>2019-06-15T08:20:26.013Z</time>
      </trkpt>
      <trkpt lat="44.99623" lon="5.37802">
        <ele>1361</ele>
        <time>2019-06-15T08:20:27.013Z</time>
      </trkpt>
      <trkpt lat="44.99626" lon="5.37802">
        <ele>1362</ele>
        <time>2019-06-15T08:20:28.013Z</time>
      </trkpt>
      <trkpt lat="44.9963" lon="5.37802">
        <ele>1362</ele>
        <time>2019-06-15T08:20:29.013Z</time>
      </trkpt>
      <trkpt lat="44.99634" lon="5.37802">
        <ele>1363</ele>
        <time>2019-06-15T08:20:30.013Z</time>
      </trkpt>
      <trkpt lat="44.99638" lon="5.37801">
        <ele>1364</ele>
        <time>2019-06-15T08:20:31.013Z</time>
      </trkpt>
      <trkpt lat="44.99642" lon="5.37801">
        <ele>1363</ele>
        <time>2019-06-15T08:20:32.013Z</time>
      </trkpt>
      <trkpt lat="44.99645" lon="5.378">
        <ele>1363</ele>
        <time>2019-06-15T08:20:33.013Z</time>
      </trkpt>
      <trkpt lat="44.99648" lon="5.37799">
        <ele>1363</ele>
        <time>2019-06-15T08:20:34.013Z</time>
      </trkpt>
      <trkpt lat="44.99651" lon="5.37799">
        <ele>1363</ele>
        <time>2019-06-15T08:20:35.013Z</time>
      </trkpt>
      <trkpt lat="44.99654" lon="5.37799">
        <ele>1362</ele>
        <time>2019-06-15T08:20:36.013Z</time>
      </trkpt>
      <trkpt lat="44.99657" lon="5.37798">
        <ele>1362</ele>
        <time>2019-06-15T08:20:37.013Z</time>
      </trkpt>
      <trkpt lat="44.9966" lon="5.37798">
        <ele>1363</ele>
        <time>2019-06-15T08:20:38.013Z</time>
      </trkpt>
      <trkpt lat="44.99662" lon="5.37797">
        <ele>1362</ele>
        <time>2019-06-15T08:20:39.013Z</time>
      </trkpt>
      <trkpt lat="44.99664" lon="5.37798">
        <ele>1360</ele>
        <time>2019-06-15T08:20:40.013Z</time>
      </trkpt>
      <trkpt lat="44.99667" lon="5.37798">
        <ele>1360</ele>
        <time>2019-06-15T08:20:41.013Z</time>
      </trkpt>
      <trkpt lat="44.99669" lon="5.37798">
        <ele>1359</ele>
        <time>2019-06-15T08:20:42.013Z</time>
      </trkpt>
      <trkpt lat="44.99672" lon="5.37799">
        <ele>1357</ele>
        <time>2019-06-15T08:20:43.013Z</time>
      </trkpt>
      <trkpt lat="44.99674" lon="5.37799">
        <ele>1355</ele>
        <time>2019-06-15T08:20:44.013Z</time>
      </trkpt>
      <trkpt lat="44.99677" lon="5.378">
        <ele>1353</ele>
        <time>2019-06-15T08:20:45.013Z</time>
      </trkpt>
      <trkpt lat="44.9968" lon="5.378">
        <ele>1352</ele>
        <time>2019-06-15T08:20:46.013Z</time>
      </trkpt>
      <trkpt lat="44.99685" lon="5.37801">
        <ele>1352</ele>
        <time>2019-06-15T08:20:47.013Z</time>
      </trkpt>
      <trkpt lat="44.99689" lon="5.37802">
        <ele>1352</ele>
        <time>2019-06-15T08:20:48.013Z</time>
      </trkpt>
      <trkpt lat="44.99693" lon="5.37803">
        <ele>1352</ele>
        <time>2019-06-15T08:20:49.013Z</time>
      </trkpt>
      <trkpt lat="44.99697" lon="5.37804">
        <ele>1353</ele>
        <time>2019-06-15T08:20:50.013Z</time>
      </trkpt>
      <trkpt lat="44.997" lon="5.37805">
        <ele>1354</ele>
        <time>2019-06-15T08:20:51.013Z</time>
      </trkpt>
      <trkpt lat="44.99702" lon="5.37807">
        <ele>1354</ele>
        <time>2019-06-15T08:20:52.013Z</time>
      </trkpt>
      <trkpt lat="44.99706" lon="5.37808">
        <ele>1355</ele>
        <time>2019-06-15T08:20:53.013Z</time>
      </trkpt>
      <trkpt lat="44.99709" lon="5.3781">
        <ele>1355</ele>
        <time>2019-06-15T08:20:54.013Z</time>
      </trkpt>
      <trkpt lat="44.99713" lon="5.37811">
        <ele>1355</ele>
        <time>2019-06-15T08:20:55.013Z</time>
      </trkpt>
      <trkpt lat="44.99716" lon="5.37813">
        <ele>1356</ele>
        <time>2019-06-15T08:20:56.013Z</time>
      </trkpt>
      <trkpt lat="44.99719" lon="5.37814">
        <ele>1358</ele>
        <time>2019-06-15T08:20:57.013Z</time>
      </trkpt>
      <trkpt lat="44.99722" lon="5.37816">
        <ele>1358</ele>
        <time>2019-06-15T08:20:58.013Z</time>
      </trkpt>
      <trkpt lat="44.99725" lon="5.37818">
        <ele>1358</ele>
        <time>2019-06-15T08:20:59.013Z</time>
      </trkpt>
      <trkpt lat="44.99728" lon="5.37821">
        <ele>1358</ele>
        <time>2019-06-15T08:21:00.013Z</time>
      </trkpt>
      <trkpt lat="44.9973" lon="5.37823">
        <ele>1359</ele>
        <time>2019-06-15T08:21:01.013Z</time>
      </trkpt>
      <trkpt lat="44.99732" lon="5.37826">
        <ele>1360</ele>
        <time>2019-06-15T08:21:02.013Z</time>
      </trkpt>
      <trkpt lat="44.99735" lon="5.37829">
        <ele>1361</ele>
        <time>2019-06-15T08:21:03.013Z</time>
      </trkpt>
      <trkpt lat="44.99736" lon="5.37832">
        <ele>1361</ele>
        <time>2019-06-15T08:21:04.013Z</time>
      </trkpt>
      <trkpt lat="44.99738" lon="5.37834">
        <ele>1361</ele>
        <time>2019-06-15T08:21:05.013Z</time>
      </trkpt>
      <trkpt lat="44.99739" lon="5.37837">
        <ele>1362</ele>
        <time>2019-06-15T08:21:06.013Z</time>
      </trkpt>
      <trkpt lat="44.99739" lon="5.3784">
        <ele>1363</ele>
        <time>2019-06-15T08:21:07.013Z</time>
      </trkpt>
      <trkpt lat="44.9974" lon="5.37844">
        <ele>1363</ele>
        <time>2019-06-15T08:21:08.013Z</time>
      </trkpt>
      <trkpt lat="44.9974" lon="5.37847">
        <ele>1361</ele>
        <time>2019-06-15T08:21:09.013Z</time>
      </trkpt>
      <trkpt lat="44.99741" lon="5.3785">
        <ele>1361</ele>
        <time>2019-06-15T08:21:10.013Z</time>
      </trkpt>
      <trkpt lat="44.99741" lon="5.37853">
        <ele>1361</ele>
        <time>2019-06-15T08:21:11.013Z</time>
      </trkpt>
      <trkpt lat="44.99741" lon="5.37856">
        <ele>1361</ele>
        <time>2019-06-15T08:21:12.013Z</time>
      </trkpt>
      <trkpt lat="44.99742" lon="5.37858">
        <ele>1361</ele>
        <time>2019-06-15T08:21:13.013Z</time>
      </trkpt>
      <trkpt lat="44.99743" lon="5.37861">
        <ele>1361</ele>
        <time>2019-06-15T08:21:14.013Z</time>
      </trkpt>
      <trkpt lat="44.99744" lon="5.37864">
        <ele>1362</ele>
        <time>2019-06-15T08:21:15.013Z</time>
      </trkpt>
      <trkpt lat="44.99744" lon="5.37866">
        <ele>1363</ele>
        <time>2019-06-15T08:21:16.013Z</time>
      </trkpt>
      <trkpt lat="44.99744" lon="5.37869">
        <ele>1362</ele>
        <time>2019-06-15T08:21:17.013Z</time>
      </trkpt>
      <trkpt lat="44.99745" lon="5.37871">
        <ele>1362</ele>
        <time>2019-06-15T08:21:18.013Z</time>
      </trkpt>
      <trkpt lat="44.99746" lon="5.37874">
        <ele>1361</ele>
        <time>2019-06-15T08:21:19.013Z</time>
      </trkpt>
      <trkpt lat="44.99747" lon="5.37876">
        <ele>1362</ele>
        <time>2019-06-15T08:21:20.013Z</time>
      </trkpt>
      <trkpt lat="44.99747" lon="5.3788">
        <ele>1363</ele>
        <time>2019-06-15T08:21:21.013Z</time>
      </trkpt>
      <trkpt lat="44.99748" lon="5.37883">
        <ele>1364</ele>
        <time>2019-06-15T08:21:22.013Z</time>
      </trkpt>
      <trkpt lat="44.99749" lon="5.37885">
        <ele>1363</ele>
        <time>2019-06-15T08:21:23.013Z</time>
      </trkpt>
      <trkpt lat="44.9975" lon="5.37887">
        <ele>1363</ele>
        <time>2019-06-15T08:21:24.013Z</time>
      </trkpt>
      <trkpt lat="44.99752" lon="5.37889">
        <ele>1363</ele>
        <time>2019-06-15T08:21:25.013Z</time>
      </trkpt>
      <trkpt lat="44.99754" lon="5.37891">
        <ele>1363</ele>
        <time>2019-06-15T08:21:26.013Z</time>
      </trkpt>
      <trkpt lat="44.99756" lon="5.37893">
        <ele>1364</ele>
        <time>2019-06-15T08:21:27.013Z</time>
      </trkpt>
      <trkpt lat="44.99757" lon="5.37895">
        <ele>1363</ele>
        <time>2019-06-15T08:21:28.013Z</time>
      </trkpt>
      <trkpt lat="44.99758" lon="5.37897">
        <ele>1364</ele>
        <time>2019-06-15T08:21:29.013Z</time>
      </trkpt>
      <trkpt lat="44.9976" lon="5.37899">
        <ele>1364</ele>
        <time>2019-06-15T08:21:30.013Z</time>
      </trkpt>
      <trkpt lat="44.99761" lon="5.37902">
        <ele>1364</ele>
        <time>2019-06-15T08:21:31.013Z</time>
      </trkpt>
      <trkpt lat="44.99762" lon="5.37905">
        <ele>1364</ele>
        <time>2019-06-15T08:21:32.013Z</time>
      </trkpt>
      <trkpt lat="44.99763" lon="5.37907">
        <ele>1362</ele>
        <time>2019-06-15T08:21:33.013Z</time>
      </trkpt>
      <trkpt lat="44.99764" lon="5.3791">
        <ele>1360</ele>
        <time>2019-06-15T08:21:34.013Z</time>
      </trkpt>
      <trkpt lat="44.99765" lon="5.37913">
        <ele>1360</ele>
        <time>2019-06-15T08:21:35.013Z</time>
      </trkpt>
      <trkpt lat="44.99766" lon="5.37916">
        <ele>1360</ele>
        <time>2019-06-15T08:21:36.013Z</time>
      </trkpt>
      <trkpt lat="44.99768" lon="5.37919">
        <ele>1359</ele>
        <time>2019-06-15T08:21:37.013Z</time>
      </trkpt>
      <trkpt lat="44.99771" lon="5.37922">
        <ele>1359</ele>
        <time>2019-06-15T08:21:38.013Z</time>
      </trkpt>
      <trkpt lat="44.99773" lon="5.37925">
        <ele>1358</ele>
        <time>2019-06-15T08:21:39.013Z</time>
      </trkpt>
      <trkpt lat="44.99774" lon="5.37928">
        <ele>1358</ele>
        <time>2019-06-15T08:21:40.013Z</time>
      </trkpt>
      <trkpt lat="44.99776" lon="5.3793">
        <ele>1358</ele>
        <time>2019-06-15T08:21:41.013Z</time>
      </trkpt>
      <trkpt lat="44.99777" lon="5.37933">
        <ele>1357</ele>
        <time>2019-06-15T08:21:42.013Z</time>
      </trkpt>
      <trkpt lat="44.99778" lon="5.37936">
        <ele>1356</ele>
        <time>2019-06-15T08:21:43.013Z</time>
      </trkpt>
      <trkpt lat="44.9978" lon="5.37939">
        <ele>1356</ele>
        <time>2019-06-15T08:21:44.013Z</time>
      </trkpt>
      <trkpt lat="44.99781" lon="5.37941">
        <ele>1355</ele>
        <time>2019-06-15T08:21:45.013Z</time>
      </trkpt>
      <trkpt lat="44.99782" lon="5.37944">
        <ele>1354</ele>
        <time>2019-06-15T08:21:46.013Z</time>
      </trkpt>
      <trkpt lat="44.99783" lon="5.37948">
        <ele>1353</ele>
        <time>2019-06-15T08:21:47.013Z</time>
      </trkpt>
      <trkpt lat="44.99785" lon="5.37951">
        <ele>1353</ele>
        <time>2019-06-15T08:21:48.013Z</time>
      </trkpt>
      <trkpt lat="44.99787" lon="5.37954">
        <ele>1352</ele>
        <time>2019-06-15T08:21:49.013Z</time>
      </trkpt>
      <trkpt lat="44.99789" lon="5.37957">
        <ele>1352</ele>
        <time>2019-06-15T08:21:50.013Z</time>
      </trkpt>
      <trkpt lat="44.99791" lon="5.37959">
        <ele>1352</ele>
        <time>2019-06-15T08:21:51.013Z</time>
      </trkpt>
      <trkpt lat="44.99795" lon="5.37962">
        <ele>1353</ele>
        <time>2019-06-15T08:21:52.013Z</time>
      </trkpt>
      <trkpt lat="44.99798" lon="5.37964">
        <ele>1353</ele>
        <time>2019-06-15T08:21:53.013Z</time>
      </trkpt>
      <trkpt lat="44.99801" lon="5.37967">
        <ele>1352</ele>
        <time>2019-06-15T08:21:54.013Z</time>
      </trkpt>
      <trkpt lat="44.99805" lon="5.3797">
        <ele>1352</ele>
        <time>2019-06-15T08:21:55.013Z</time>
      </trkpt>
      <trkpt lat="44.99808" lon="5.37973">
        <ele>1353</ele>
        <time>2019-06-15T08:21:56.013Z</time>
      </trkpt>
      <trkpt lat="44.9981" lon="5.37975">
        <ele>1352</ele>
        <time>2019-06-15T08:21:57.013Z</time>
      </trkpt>
      <trkpt lat="44.99813" lon="5.37977">
        <ele>1352</ele>
        <time>2019-06-15T08:21:58.013Z</time>
      </trkpt>
      <trkpt lat="44.99816" lon="5.37978">
        <ele>1352</ele>
        <time>2019-06-15T08:21:59.013Z</time>
      </trkpt>
      <trkpt lat="44.99818" lon="5.37979">
        <ele>1352</ele>
        <time>2019-06-15T08:22:00.013Z</time>
      </trkpt>
      <trkpt lat="44.99821" lon="5.3798">
        <ele>1353</ele>
        <time>2019-06-15T08:22:01.013Z</time>
      </trkpt>
      <trkpt lat="44.99823" lon="5.37981">
        <ele>1354</ele>
        <time>2019-06-15T08:22:02.013Z</time>
      </trkpt>
      <trkpt lat="44.99825" lon="5.37981">
        <ele>1354</ele>
        <time>2019-06-15T08:22:03.013Z</time>
      </trkpt>
      <trkpt lat="44.99827" lon="5.37982">
        <ele>1353</ele>
        <time>2019-06-15T08:22:04.013Z</time>
      </trkpt>
      <trkpt lat="44.99829" lon="5.37983">
        <ele>1353</ele>
        <time>2019-06-15T08:22:05.013Z</time>
      </trkpt>
      <trkpt lat="44.99832" lon="5.37983">
        <ele>1353</ele>
        <time>2019-06-15T08:22:06.013Z</time>
      </trkpt>
      <trkpt lat="44.99834" lon="5.37985">
        <ele>1353</ele>
        <time>2019-06-15T08:22:07.013Z</time>
      </trkpt>
      <trkpt lat="44.99836" lon="5.37986">
        <ele>1353</ele>
        <time>2019-06-15T08:22:08.013Z</time>
      </trkpt>
      <trkpt lat="44.99839" lon="5.37988">
        <ele>1353</ele>
        <time>2019-06-15T08:22:09.013Z</time>
      </trkpt>
      <trkpt lat="44.99842" lon="5.3799">
        <ele>1353</ele>
        <time>2019-06-15T08:22:10.013Z</time>
      </trkpt>
      <trkpt lat="44.99846" lon="5.37993">
        <ele>1352</ele>
        <time>2019-06-15T08:22:11.013Z</time>
      </trkpt>
      <trkpt lat="44.9985" lon="5.37995">
        <ele>1351</ele>
        <time>2019-06-15T08:22:12.013Z</time>
      </trkpt>
      <trkpt lat="44.99852" lon="5.37997">
        <ele>1352</ele>
        <time>2019-06-15T08:22:13.013Z</time>
      </trkpt>
      <trkpt lat="44.99855" lon="5.37999">
        <ele>1351</ele>
        <time>2019-06-15T08:22:14.013Z</time>
      </trkpt>
      <trkpt lat="44.99859" lon="5.38001">
        <ele>1352</ele>
        <time>2019-06-15T08:22:15.013Z</time>
      </trkpt>
      <trkpt lat="44.99862" lon="5.38003">
        <ele>1352</ele>
        <time>2019-06-15T08:22:16.013Z</time>
      </trkpt>
      <trkpt lat="44.99865" lon="5.38004">
        <ele>1352</ele>
        <time>2019-06-15T08:22:17.013Z</time>
      </trkpt>
      <trkpt lat="44.99868" lon="5.38006">
        <ele>1351</ele>
        <time>2019-06-15T08:22:18.013Z</time>
      </trkpt>
      <trkpt lat="44.99871" lon="5.38007">
        <ele>1351</ele>
        <time>2019-06-15T08:22:19.013Z</time>
      </trkpt>
      <trkpt lat="44.99873" lon="5.38009">
        <ele>1351</ele>
        <time>2019-06-15T08:22:20.013Z</time>
      </trkpt>
      <trkpt lat="44.99875" lon="5.38011">
        <ele>1350</ele>
        <time>2019-06-15T08:22:21.013Z</time>
      </trkpt>
      <trkpt lat="44.99877" lon="5.38013">
        <ele>1349</ele>
        <time>2019-06-15T08:22:22.013Z</time>
      </trkpt>
      <trkpt lat="44.99879" lon="5.38016">
        <ele>1350</ele>
        <time>2019-06-15T08:22:23.013Z</time>
      </trkpt>
      <trkpt lat="44.99881" lon="5.38019">
        <ele>1349</ele>
        <time>2019-06-15T08:22:24.013Z</time>
      </trkpt>
      <trkpt lat="44.99883" lon="5.38022">
        <ele>1349</ele>
        <time>2019-06-15T08:22:25.013Z</time>
      </trkpt>
      <trkpt lat="44.99885" lon="5.38025">
        <ele>1349</ele>
        <time>2019-06-15T08:22:26.013Z</time>
      </trkpt>
      <trkpt lat="44.99887" lon="5.38029">
        <ele>1349</ele>
        <time>2019-06-15T08:22:27.013Z</time>
      </trkpt>
      <trkpt lat="44.99888" lon="5.38032">
        <ele>1348</ele>
        <time>2019-06-15T08:22:28.013Z</time>
      </trkpt>
      <trkpt lat="44.9989" lon="5.38036">
        <ele>1347</ele>
        <time>2019-06-15T08:22:29.013Z</time>
      </trkpt>
      <trkpt lat="44.99891" lon="5.38039">
        <ele>1346</ele>
        <time>2019-06-15T08:22:30.013Z</time>
      </trkpt>
      <trkpt lat="44.99894" lon="5.38043">
        <ele>1343</ele>
        <time>2019-06-15T08:22:31.013Z</time>
      </trkpt>
      <trkpt lat="44.99896" lon="5.38047">
        <ele>1342</ele>
        <time>2019-06-15T08:22:32.013Z</time>
      </trkpt>
      <trkpt lat="44.99899" lon="5.3805">
        <ele>1341</ele>
        <time>2019-06-15T08:22:33.013Z</time>
      </trkpt>
      <trkpt lat="44.99901" lon="5.38053">
        <ele>1339</ele>
        <time>2019-06-15T08:22:34.013Z</time>
      </trkpt>
      <trkpt lat="44.99904" lon="5.38056">
        <ele>1338</ele>
        <time>2019-06-15T08:22:35.013Z</time>
      </trkpt>
      <trkpt lat="44.99906" lon="5.38059">
        <ele>1336</ele>
        <time>2019-06-15T08:22:36.013Z</time>
      </trkpt>
      <trkpt lat="44.99908" lon="5.38062">
        <ele>1335</ele>
        <time>2019-06-15T08:22:37.013Z</time>
      </trkpt>
      <trkpt lat="44.99911" lon="5.38065">
        <ele>1333</ele>
        <time>2019-06-15T08:22:38.013Z</time>
      </trkpt>
      <trkpt lat="44.99914" lon="5.38068">
        <ele>1332</ele>
        <time>2019-06-15T08:22:39.013Z</time>
      </trkpt>
      <trkpt lat="44.99918" lon="5.38072">
        <ele>1330</ele>
        <time>2019-06-15T08:22:40.013Z</time>
      </trkpt>
      <trkpt lat="44.99922" lon="5.38075">
        <ele>1327</ele>
        <time>2019-06-15T08:22:41.013Z</time>
      </trkpt>
      <trkpt lat="44.99925" lon="5.38079">
        <ele>1327</ele>
        <time>2019-06-15T08:22:42.013Z</time>
      </trkpt>
      <trkpt lat="44.99928" lon="5.38083">
        <ele>1327</ele>
        <time>2019-06-15T08:22:43.013Z</time>
      </trkpt>
      <trkpt lat="44.9993" lon="5.38086">
        <ele>1323</ele>
        <time>2019-06-15T08:22:44.013Z</time>
      </trkpt>
      <trkpt lat="44.99933" lon="5.38091">
        <ele>1321</ele>
        <time>2019-06-15T08:22:45.013Z</time>
      </trkpt>
      <trkpt lat="44.99935" lon="5.38095">
        <ele>1320</ele>
        <time>2019-06-15T08:22:46.013Z</time>
      </trkpt>
      <trkpt lat="44.99937" lon="5.38099">
        <ele>1319</ele>
        <time>2019-06-15T08:22:47.013Z</time>
      </trkpt>
      <trkpt lat="44.99939" lon="5.38102">
        <ele>1318</ele>
        <time>2019-06-15T08:22:48.013Z</time>
      </trkpt>
      <trkpt lat="44.99941" lon="5.38105">
        <ele>1317</ele>
        <time>2019-06-15T08:22:49.013Z</time>
      </trkpt>
      <trkpt lat="44.99943" lon="5.38109">
        <ele>1316</ele>
        <time>2019-06-15T08:22:50.013Z</time>
      </trkpt>
      <trkpt lat="44.99945" lon="5.38112">
        <ele>1314</ele>
        <time>2019-06-15T08:22:51.013Z</time>
      </trkpt>
      <trkpt lat="44.99947" lon="5.38116">
        <ele>1311</ele>
        <time>2019-06-15T08:22:52.013Z</time>
      </trkpt>
      <trkpt lat="44.99949" lon="5.38119">
        <ele>1310</ele>
        <time>2019-06-15T08:22:53.013Z</time>
      </trkpt>
      <trkpt lat="44.99952" lon="5.38122">
        <ele>1306</ele>
        <time>2019-06-15T08:22:54.013Z</time>
      </trkpt>
      <trkpt lat="44.99955" lon="5.38125">
        <ele>1304</ele>
        <time>2019-06-15T08:22:55.013Z</time>
      </trkpt>
      <trkpt lat="44.99957" lon="5.38128">
        <ele>1302</ele>
        <time>2019-06-15T08:22:56.013Z</time>
      </trkpt>
      <trkpt lat="44.99959" lon="5.38132">
        <ele>1301</ele>
        <time>2019-06-15T08:22:57.013Z</time>
      </trkpt>
      <trkpt lat="44.99961" lon="5.38136">
        <ele>1300</ele>
        <time>2019-06-15T08:22:58.013Z</time>
      </trkpt>
      <trkpt lat="44.99963" lon="5.38139">
        <ele>1299</ele>
        <time>2019-06-15T08:22:59.013Z</time>
      </trkpt>
      <trkpt lat="44.99965" lon="5.38142">
        <ele>1299</ele>
        <time>2019-06-15T08:23:00.013Z</time>
      </trkpt>
      <trkpt lat="44.99968" lon="5.38145">
        <ele>1298</ele>
        <time>2019-06-15T08:23:01.013Z</time>
      </trkpt>
      <trkpt lat="44.9997" lon="5.38147">
        <ele>1297</ele>
        <time>2019-06-15T08:23:02.013Z</time>
      </trkpt>
      <trkpt lat="44.99973" lon="5.3815">
        <ele>1296</ele>
        <time>2019-06-15T08:23:03.013Z</time>
      </trkpt>
      <trkpt lat="44.99975" lon="5.38153">
        <ele>1294</ele>
        <time>2019-06-15T08:23:04.013Z</time>
      </trkpt>
      <trkpt lat="44.99978" lon="5.38155">
        <ele>1292</ele>
        <time>2019-06-15T08:23:05.013Z</time>
      </trkpt>
      <trkpt lat="44.9998" lon="5.38158">
        <ele>1291</ele>
        <time>2019-06-15T08:23:06.013Z</time>
      </trkpt>
      <trkpt lat="44.99982" lon="5.38161">
        <ele>1289</ele>
        <time>2019-06-15T08:23:07.013Z</time>
      </trkpt>
      <trkpt lat="44.99984" lon="5.38165">
        <ele>1289</ele>
        <time>2019-06-15T08:23:08.013Z</time>
      </trkpt>
      <trkpt lat="44.99986" lon="5.38168">
        <ele>1288</ele>
        <time>2019-06-15T08:23:09.013Z</time>
      </trkpt>
      <trkpt lat="44.99987" lon="5.38171">
        <ele>1287</ele>
        <time>2019-06-15T08:23:10.013Z</time>
      </trkpt>
      <trkpt lat="44.99989" lon="5.38173">
        <ele>1287</ele>
        <time>2019-06-15T08:23:11.013Z</time>
      </trkpt>
      <trkpt lat="44.99991" lon="5.38175">
        <ele>1285</ele>
        <time>2019-06-15T08:23:12.013Z</time>
      </trkpt>
      <trkpt lat="44.99993" lon="5.38178">
        <ele>1283</ele>
        <time>2019-06-15T08:23:13.013Z</time>
      </trkpt>
      <trkpt lat="44.99995" lon="5.38181">
        <ele>1282</ele>
        <time>2019-06-15T08:23:14.013Z</time>
      </trkpt>
      <trkpt lat="44.99997" lon="5.38184">
        <ele>1281</ele>
        <time>2019-06-15T08:23:15.013Z</time>
      </trkpt>
      <trkpt lat="44.99999" lon="5.38186">
        <ele>1279</ele>
        <time>2019-06-15T08:23:16.013Z</time>
      </trkpt>
      <trkpt lat="45" lon="5.38189">
        <ele>1278</ele>
        <time>2019-06-15T08:23:17.013Z</time>
      </trkpt>
      <trkpt lat="45.00002" lon="5.38192">
        <ele>1276</ele>
        <time>2019-06-15T08:23:18.013Z</time>
      </trkpt>
      <trkpt lat="45.00003" lon="5.38196">
        <ele>1274</ele>
        <time>2019-06-15T08:23:19.013Z</time>
      </trkpt>
      <trkpt lat="45.00004" lon="5.38199">
        <ele>1272</ele>
        <time>2019-06-15T08:23:20.013Z</time>
      </trkpt>
      <trkpt lat="45.00005" lon="5.38201">
        <ele>1270</ele>
        <time>2019-06-15T08:23:21.013Z</time>
      </trkpt>
      <trkpt lat="45.00006" lon="5.38204">
        <ele>1270</ele>
        <time>2019-06-15T08:23:22.013Z</time>
      </trkpt>
      <trkpt lat="45.00008" lon="5.38206">
        <ele>1268</ele>
        <time>2019-06-15T08:23:23.013Z</time>
      </trkpt>
      <trkpt lat="45.00009" lon="5.38209">
        <ele>1268</ele>
        <time>2019-06-15T08:23:24.013Z</time>
      </trkpt>
      <trkpt lat="45.00012" lon="5.38212">
        <ele>1266</ele>
        <time>2019-06-15T08:23:25.013Z</time>
      </trkpt>
      <trkpt lat="45.00014" lon="5.38216">
        <ele>1263</ele>
        <time>2019-06-15T08:23:26.013Z</time>
      </trkpt>
      <trkpt lat="45.00016" lon="5.38219">
        <ele>1263</ele>
        <time>2019-06-15T08:23:27.013Z</time>
      </trkpt>
      <trkpt lat="45.00019" lon="5.38223">
        <ele>1263</ele>
        <time>2019-06-15T08:23:28.013Z</time>
      </trkpt>
      <trkpt lat="45.00021" lon="5.38226">
        <ele>1261</ele>
        <time>2019-06-15T08:23:29.013Z</time>
      </trkpt>
      <trkpt lat="45.00024" lon="5.38229">
        <ele>1259</ele>
        <time>2019-06-15T08:23:30.013Z</time>
      </trkpt>
      <trkpt lat="45.00026" lon="5.38232">
        <ele>1257</ele>
        <time>2019-06-15T08:23:31.013Z</time>
      </trkpt>
      <trkpt lat="45.00029" lon="5.38235">
        <ele>1256</ele>
        <time>2019-06-15T08:23:32.013Z</time>
      </trkpt>
      <trkpt lat="45.00031" lon="5.38237">
        <ele>1253</ele>
        <time>2019-06-15T08:23:33.013Z</time>
      </trkpt>
      <trkpt lat="45.00033" lon="5.3824">
        <ele>1252</ele>
        <time>2019-06-15T08:23:34.013Z</time>
      </trkpt>
      <trkpt lat="45.00035" lon="5.38243">
        <ele>1250</ele>
        <time>2019-06-15T08:23:35.013Z</time>
      </trkpt>
      <trkpt lat="45.00036" lon="5.38245">
        <ele>1248</ele>
        <time>2019-06-15T08:23:36.013Z</time>
      </trkpt>
      <trkpt lat="45.00038" lon="5.38248">
        <ele>1248</ele>
        <time>2019-06-15T08:23:37.013Z</time>
      </trkpt>
      <trkpt lat="45.00039" lon="5.38251">
        <ele>1246</ele>
        <time>2019-06-15T08:23:38.013Z</time>
      </trkpt>
      <trkpt lat="45.0004" lon="5.38253">
        <ele>1245</ele>
        <time>2019-06-15T08:23:39.013Z</time>
      </trkpt>
      <trkpt lat="45.00041" lon="5.38256">
        <ele>1244</ele>
        <time>2019-06-15T08:23:40.013Z</time>
      </trkpt>
      <trkpt lat="45.00041" lon="5.38258">
        <ele>1243</ele>
        <time>2019-06-15T08:23:41.013Z</time>
      </trkpt>
      <trkpt lat="45.00042" lon="5.38261">
        <ele>1242</ele>
        <time>2019-06-15T08:23:42.013Z</time>
      </trkpt>
      <trkpt lat="45.00043" lon="5.38263">
        <ele>1241</ele>
        <time>2019-06-15T08:23:43.013Z</time>
      </trkpt>
      <trkpt lat="45.00044" lon="5.38265">
        <ele>1239</ele>
        <time>2019-06-15T08:23:44.013Z</time>
      </trkpt>
      <trkpt lat="45.00046" lon="5.38267">
        <ele>1236</ele>
        <time>2019-06-15T08:23:45.013Z</time>
      </trkpt>
      <trkpt lat="45.00047" lon="5.38269">
        <ele>1232</ele>
        <time>2019-06-15T08:23:46.013Z</time>
      </trkpt>
      <trkpt lat="45.00049" lon="5.38271">
        <ele>1229</ele>
        <time>2019-06-15T08:23:47.013Z</time>
      </trkpt>
      <trkpt lat="45.0005" lon="5.38273">
        <ele>1228</ele>
        <time>2019-06-15T08:23:48.013Z</time>
      </trkpt>
      <trkpt lat="45.00051" lon="5.38277">
        <ele>1225</ele>
        <time>2019-06-15T08:23:49.013Z</time>
      </trkpt>
      <trkpt lat="45.00052" lon="5.38281">
        <ele>1222</ele>
        <time>2019-06-15T08:23:50.013Z</time>
      </trkpt>
      <trkpt lat="45.00053" lon="5.38285">
        <ele>1220</ele>
        <time>2019-06-15T08:23:51.013Z</time>
      </trkpt>
      <trkpt lat="45.00054" lon="5.38288">
        <ele>1217</ele>
        <time>2019-06-15T08:23:52.013Z</time>
      </trkpt>
      <trkpt lat="45.00055" lon="5.38292">
        <ele>1216</ele>
        <time>2019-06-15T08:23:53.013Z</time>
      </trkpt>
      <trkpt lat="45.00056" lon="5.38295">
        <ele>1213</ele>
        <time>2019-06-15T08:23:54.013Z</time>
      </trkpt>
      <trkpt lat="45.00057" lon="5.38299">
        <ele>1210</ele>
        <time>2019-06-15T08:23:55.013Z</time>
      </trkpt>
      <trkpt lat="45.00057" lon="5.38303">
        <ele>1209</ele>
        <time>2019-06-15T08:23:56.013Z</time>
      </trkpt>
      <trkpt lat="45.00057" lon="5.38307">
        <ele>1207</ele>
        <time>2019-06-15T08:23:57.013Z</time>
      </trkpt>
      <trkpt lat="45.00057" lon="5.38312">
        <ele>1206</ele>
        <time>2019-06-15T08:23:58.013Z</time>
      </trkpt>
      <trkpt lat="45.00057" lon="5.38317">
        <ele>1204</ele>
        <time>2019-06-15T08:23:59.013Z</time>
      </trkpt>
      <trkpt lat="45.00057" lon="5.38322">
        <ele>1204</ele>
        <time>2019-06-15T08:24:00.013Z</time>
      </trkpt>
      <trkpt lat="45.00057" lon="5.38328">
        <ele>1203</ele>
        <time>2019-06-15T08:24:01.013Z</time>
      </trkpt>
      <trkpt lat="45.00057" lon="5.38334">
        <ele>1204</ele>
        <time>2019-06-15T08:24:02.013Z</time>
      </trkpt>
      <trkpt lat="45.00057" lon="5.38339">
        <ele>1205</ele>
        <time>2019-06-15T08:24:03.013Z</time>
      </trkpt>
      <trkpt lat="45.00058" lon="5.38345">
        <ele>1206</ele>
        <time>2019-06-15T08:24:04.013Z</time>
      </trkpt>
      <trkpt lat="45.00059" lon="5.38349">
        <ele>1208</ele>
        <time>2019-06-15T08:24:05.013Z</time>
      </trkpt>
      <trkpt lat="45.0006" lon="5.38352">
        <ele>1209</ele>
        <time>2019-06-15T08:24:06.013Z</time>
      </trkpt>
      <trkpt lat="45.00061" lon="5.38353">
        <ele>1212</ele>
        <time>2019-06-15T08:24:07.013Z</time>
      </trkpt>
      <trkpt lat="45.00063" lon="5.38354">
        <ele>1212</ele>
        <time>2019-06-15T08:24:08.013Z</time>
      </trkpt>
      <trkpt lat="45.00065" lon="5.38355">
        <ele>1213</ele>
        <time>2019-06-15T08:24:09.013Z</time>
      </trkpt>
      <trkpt lat="45.00067" lon="5.38356">
        <ele>1214</ele>
        <time>2019-06-15T08:24:10.013Z</time>
      </trkpt>
      <trkpt lat="45.00068" lon="5.38356">
        <ele>1215</ele>
        <time>2019-06-15T08:24:11.013Z</time>
      </trkpt>
      <trkpt lat="45.0007" lon="5.38356">
        <ele>1215</ele>
        <time>2019-06-15T08:24:12.013Z</time>
      </trkpt>
      <trkpt lat="45.00071" lon="5.38356">
        <ele>1215</ele>
        <time>2019-06-15T08:24:13.013Z</time>
      </trkpt>
      <trkpt lat="45.00073" lon="5.38356">
        <ele>1215</ele>
        <time>2019-06-15T08:24:14.013Z</time>
      </trkpt>
      <trkpt lat="45.00074" lon="5.38356">
        <ele>1215</ele>
        <time>2019-06-15T08:24:15.013Z</time>
      </trkpt>
      <trkpt lat="45.00076" lon="5.38356">
        <ele>1216</ele>
        <time>2019-06-15T08:24:16.013Z</time>
      </trkpt>
      <trkpt lat="45.00077" lon="5.38356">
        <ele>1216</ele>
        <time>2019-06-15T08:24:17.013Z</time>
      </trkpt>
      <trkpt lat="45.00077" lon="5.38356">
        <ele>1216</ele>
        <time>2019-06-15T08:24:18.013Z</time>
      </trkpt>
      <trkpt lat="45.00078" lon="5.38356">
        <ele>1217</ele>
        <time>2019-06-15T08:24:19.013Z</time>
      </trkpt>
      <trkpt lat="45.00078" lon="5.38355">
        <ele>1217</ele>
        <time>2019-06-15T08:24:20.013Z</time>
      </trkpt>
      <trkpt lat="45.00079" lon="5.38355">
        <ele>1219</ele>
        <time>2019-06-15T08:24:21.013Z</time>
      </trkpt>
      <trkpt lat="45.00081" lon="5.38356">
        <ele>1220</ele>
        <time>2019-06-15T08:24:22.013Z</time>
      </trkpt>
      <trkpt lat="45.00083" lon="5.38357">
        <ele>1222</ele>
        <time>2019-06-15T08:24:23.013Z</time>
      </trkpt>
      <trkpt lat="45.00085" lon="5.38358">
        <ele>1223</ele>
        <time>2019-06-15T08:24:24.013Z</time>
      </trkpt>
      <trkpt lat="45.00087" lon="5.38359">
        <ele>1224</ele>
        <time>2019-06-15T08:24:25.013Z</time>
      </trkpt>
      <trkpt lat="45.00089" lon="5.38359">
        <ele>1226</ele>
        <time>2019-06-15T08:24:26.013Z</time>
      </trkpt>
      <trkpt lat="45.0009" lon="5.3836">
        <ele>1226</ele>
        <time>2019-06-15T08:24:27.013Z</time>
      </trkpt>
      <trkpt lat="45.00091" lon="5.3836">
        <ele>1227</ele>
        <time>2019-06-15T08:24:28.013Z</time>
      </trkpt>
      <trkpt lat="45.00093" lon="5.3836">
        <ele>1228</ele>
        <time>2019-06-15T08:24:29.013Z</time>
      </trkpt>
      <trkpt lat="45.00095" lon="5.3836">
        <ele>1228</ele>
        <time>2019-06-15T08:24:30.013Z</time>
      </trkpt>
      <trkpt lat="45.00097" lon="5.3836">
        <ele>1229</ele>
        <time>2019-06-15T08:24:31.013Z</time>
      </trkpt>
      <trkpt lat="45.00098" lon="5.38359">
        <ele>1230</ele>
        <time>2019-06-15T08:24:32.013Z</time>
      </trkpt>
      <trkpt lat="45.00101" lon="5.38359">
        <ele>1231</ele>
        <time>2019-06-15T08:24:33.013Z</time>
      </trkpt>
      <trkpt lat="45.00103" lon="5.38359">
        <ele>1231</ele>
        <time>2019-06-15T08:24:34.013Z</time>
      </trkpt>
      <trkpt lat="45.00106" lon="5.38359">
        <ele>1232</ele>
        <time>2019-06-15T08:24:35.013Z</time>
      </trkpt>
      <trkpt lat="45.00108" lon="5.3836">
        <ele>1233</ele>
        <time>2019-06-15T08:24:36.013Z</time>
      </trkpt>
      <trkpt lat="45.0011" lon="5.38361">
        <ele>1234</ele>
        <time>2019-06-15T08:24:37.013Z</time>
      </trkpt>
      <trkpt lat="45.00111" lon="5.38362">
        <ele>1234</ele>
        <time>2019-06-15T08:24:38.013Z</time>
      </trkpt>
      <trkpt lat="45.00113" lon="5.38363">
        <ele>1235</ele>
        <time>2019-06-15T08:24:39.013Z</time>
      </trkpt>
      <trkpt lat="45.00115" lon="5.38364">
        <ele>1236</ele>
        <time>2019-06-15T08:24:40.013Z</time>
      </trkpt>
      <trkpt lat="45.00117" lon="5.38364">
        <ele>1237</ele>
        <time>2019-06-15T08:24:41.013Z</time>
      </trkpt>
      <trkpt lat="45.0012" lon="5.38365">
        <ele>1237</ele>
        <time>2019-06-15T08:24:42.013Z</time>
      </trkpt>
      <trkpt lat="45.00122" lon="5.38366">
        <ele>1238</ele>
        <time>2019-06-15T08:24:43.013Z</time>
      </trkpt>
      <trkpt lat="45.00123" lon="5.38366">
        <ele>1238</ele>
        <time>2019-06-15T08:24:44.013Z</time>
      </trkpt>
      <trkpt lat="45.00124" lon="5.38366">
        <ele>1239</ele>
        <time>2019-06-15T08:24:45.013Z</time>
      </trkpt>
      <trkpt lat="45.00125" lon="5.38366">
        <ele>1239</ele>
        <time>2019-06-15T08:24:46.013Z</time>
      </trkpt>
      <trkpt lat="45.00126" lon="5.38365">
        <ele>1239</ele>
        <time>2019-06-15T08:24:47.013Z</time>
      </trkpt>
      <trkpt lat="45.00128" lon="5.38364">
        <ele>1239</ele>
        <time>2019-06-15T08:24:48.013Z</time>
      </trkpt>
      <trkpt lat="45.00129" lon="5.38364">
        <ele>1239</ele>
        <time>2019-06-15T08:24:49.013Z</time>
      </trkpt>
      <trkpt lat="45.00131" lon="5.38364">
        <ele>1240</ele>
        <time>2019-06-15T08:24:50.013Z</time>
      </trkpt>
      <trkpt lat="45.00133" lon="5.38363">
        <ele>1239</ele>
        <time>2019-06-15T08:24:51.013Z</time>
      </trkpt>
      <trkpt lat="45.00134" lon="5.38363">
        <ele>1239</ele>
        <time>2019-06-15T08:24:52.013Z</time>
      </trkpt>
      <trkpt lat="45.00135" lon="5.38362">
        <ele>1240</ele>
        <time>2019-06-15T08:24:53.013Z</time>
      </trkpt>
      <trkpt lat="45.00137" lon="5.38362">
        <ele>1240</ele>
        <time>2019-06-15T08:24:54.013Z</time>
      </trkpt>
      <trkpt lat="45.00138" lon="5.38361">
        <ele>1240</ele>
        <time>2019-06-15T08:24:55.013Z</time>
      </trkpt>
      <trkpt lat="45.00139" lon="5.38361">
        <ele>1240</ele>
        <time>2019-06-15T08:24:56.013Z</time>
      </trkpt>
      <trkpt lat="45.0014" lon="5.38361">
        <ele>1240</ele>
        <time>2019-06-15T08:24:57.013Z</time>
      </trkpt>
      <trkpt lat="45.00142" lon="5.38361">
        <ele>1241</ele>
        <time>2019-06-15T08:24:58.013Z</time>
      </trkpt>
      <trkpt lat="45.00144" lon="5.38361">
        <ele>1241</ele>
        <time>2019-06-15T08:24:59.013Z</time>
      </trkpt>
      <trkpt lat="45.00145" lon="5.38361">
        <ele>1241</ele>
        <time>2019-06-15T08:25:00.013Z</time>
      </trkpt>
      <trkpt lat="45.00147" lon="5.3836">
        <ele>1241</ele>
        <time>2019-06-15T08:25:01.013Z</time>
      </trkpt>
      <trkpt lat="45.00148" lon="5.3836">
        <ele>1241</ele>
        <time>2019-06-15T08:25:02.013Z</time>
      </trkpt>
      <trkpt lat="45.00149" lon="5.38359">
        <ele>1241</ele>
        <time>2019-06-15T08:25:03.013Z</time>
      </trkpt>
      <trkpt lat="45.00151" lon="5.38359">
        <ele>1241</ele>
        <time>2019-06-15T08:25:04.013Z</time>
      </trkpt>
      <trkpt lat="45.00152" lon="5.38359">
        <ele>1242</ele>
        <time>2019-06-15T08:25:05.013Z</time>
      </trkpt>
      <trkpt lat="45.00153" lon="5.38358">
        <ele>1242</ele>
        <time>2019-06-15T08:25:06.013Z</time>
      </trkpt>
      <trkpt lat="45.00155" lon="5.38358">
        <ele>1242</ele>
        <time>2019-06-15T08:25:07.013Z</time>
      </trkpt>
      <trkpt lat="45.00155" lon="5.38357">
        <ele>1242</ele>
        <time>2019-06-15T08:25:08.013Z</time>
      </trkpt>
      <trkpt lat="45.00156" lon="5.38356">
        <ele>1242</ele>
        <time>2019-06-15T08:25:09.013Z</time>
      </trkpt>
      <trkpt lat="45.00157" lon="5.38355">
        <ele>1243</ele>
        <time>2019-06-15T08:25:10.013Z</time>
      </trkpt>
      <trkpt lat="45.00159" lon="5.38355">
        <ele>1244</ele>
        <time>2019-06-15T08:25:11.013Z</time>
      </trkpt>
      <trkpt lat="45.0016" lon="5.38355">
        <ele>1245</ele>
        <time>2019-06-15T08:25:12.013Z</time>
      </trkpt>
      <trkpt lat="45.00162" lon="5.38354">
        <ele>1247</ele>
        <time>2019-06-15T08:25:13.013Z</time>
      </trkpt>
      <trkpt lat="45.00164" lon="5.38353">
        <ele>1248</ele>
        <time>2019-06-15T08:25:14.013Z</time>
      </trkpt>
      <trkpt lat="45.00165" lon="5.38352">
        <ele>1248</ele>
        <time>2019-06-15T08:25:15.013Z</time>
      </trkpt>
      <trkpt lat="45.00167" lon="5.38351">
        <ele>1249</ele>
        <time>2019-06-15T08:25:16.013Z</time>
      </trkpt>
      <trkpt lat="45.00169" lon="5.38351">
        <ele>1250</ele>
        <time>2019-06-15T08:25:17.013Z</time>
      </trkpt>
      <trkpt lat="45.00171" lon="5.38351">
        <ele>1251</ele>
        <time>2019-06-15T08:25:18.013Z</time>
      </trkpt>
      <trkpt lat="45.00174" lon="5.38351">
        <ele>1252</ele>
        <time>2019-06-15T08:25:19.013Z</time>
      </trkpt>
      <trkpt lat="45.00175" lon="5.38351">
        <ele>1252</ele>
        <time>2019-06-15T08:25:20.013Z</time>
      </trkpt>
      <trkpt lat="45.00177" lon="5.38352">
        <ele>1253</ele>
        <time>2019-06-15T08:25:21.013Z</time>
      </trkpt>
      <trkpt lat="45.00179" lon="5.38352">
        <ele>1254</ele>
        <time>2019-06-15T08:25:22.013Z</time>
      </trkpt>
      <trkpt lat="45.0018" lon="5.38352">
        <ele>1254</ele>
        <time>2019-06-15T08:25:23.013Z</time>
      </trkpt>
      <trkpt lat="45.00182" lon="5.38352">
        <ele>1255</ele>
        <time>2019-06-15T08:25:24.013Z</time>
      </trkpt>
      <trkpt lat="45.00184" lon="5.38351">
        <ele>1255</ele>
        <time>2019-06-15T08:25:25.013Z</time>
      </trkpt>
      <trkpt lat="45.00185" lon="5.38351">
        <ele>1256</ele>
        <time>2019-06-15T08:25:26.013Z</time>
      </trkpt>
      <trkpt lat="45.00186" lon="5.3835">
        <ele>1256</ele>
        <time>2019-06-15T08:25:27.013Z</time>
      </trkpt>
      <trkpt lat="45.00188" lon="5.3835">
        <ele>1257</ele>
        <time>2019-06-15T08:25:28.013Z</time>
      </trkpt>
      <trkpt lat="45.00189" lon="5.3835">
        <ele>1257</ele>
        <time>2019-06-15T08:25:29.013Z</time>
      </trkpt>
      <trkpt lat="45.00191" lon="5.3835">
        <ele>1258</ele>
        <time>2019-06-15T08:25:30.013Z</time>
      </trkpt>
      <trkpt lat="45.00194" lon="5.3835">
        <ele>1258</ele>
        <time>2019-06-15T08:25:31.013Z</time>
      </trkpt>
      <trkpt lat="45.00196" lon="5.3835">
        <ele>1259</ele>
        <time>2019-06-15T08:25:32.013Z</time>
      </trkpt>
      <trkpt lat="45.00199" lon="5.3835">
        <ele>1260</ele>
        <time>2019-06-15T08:25:33.013Z</time>
      </trkpt>
      <trkpt lat="45.00202" lon="5.38349">
        <ele>1261</ele>
        <time>2019-06-15T08:25:34.013Z</time>
      </trkpt>
      <trkpt lat="45.00205" lon="5.38349">
        <ele>1262</ele>
        <time>2019-06-15T08:25:35.013Z</time>
      </trkpt>
      <trkpt lat="45.00207" lon="5.38348">
        <ele>1263</ele>
        <time>2019-06-15T08:25:36.013Z</time>
      </trkpt>
      <trkpt lat="45.00209" lon="5.38348">
        <ele>1263</ele>
        <time>2019-06-15T08:25:37.013Z</time>
      </trkpt>
      <trkpt lat="45.00211" lon="5.38348">
        <ele>1264</ele>
        <time>2019-06-15T08:25:38.013Z</time>
      </trkpt>
      <trkpt lat="45.00213" lon="5.38347">
        <ele>1264</ele>
        <time>2019-06-15T08:25:39.013Z</time>
      </trkpt>
      <trkpt lat="45.00215" lon="5.38347">
        <ele>1264</ele>
        <time>2019-06-15T08:25:40.013Z</time>
      </trkpt>
      <trkpt lat="45.00217" lon="5.38347">
        <ele>1264</ele>
        <time>2019-06-15T08:25:41.013Z</time>
      </trkpt>
      <trkpt lat="45.00219" lon="5.38347">
        <ele>1265</ele>
        <time>2019-06-15T08:25:42.013Z</time>
      </trkpt>
      <trkpt lat="45.00222" lon="5.38346">
        <ele>1266</ele>
        <time>2019-06-15T08:25:43.013Z</time>
      </trkpt>
      <trkpt lat="45.00224" lon="5.38346">
        <ele>1267</ele>
        <time>2019-06-15T08:25:44.013Z</time>
      </trkpt>
      <trkpt lat="45.00226" lon="5.38346">
        <ele>1268</ele>
        <time>2019-06-15T08:25:45.013Z</time>
      </trkpt>
      <trkpt lat="45.00229" lon="5.38346">
        <ele>1268</ele>
        <time>2019-06-15T08:25:46.013Z</time>
      </trkpt>
      <trkpt lat="45.00231" lon="5.38346">
        <ele>1269</ele>
        <time>2019-06-15T08:25:47.013Z</time>
      </trkpt>
      <trkpt lat="45.00234" lon="5.38346">
        <ele>1270</ele>
        <time>2019-06-15T08:25:48.013Z</time>
      </trkpt>
      <trkpt lat="45.00237" lon="5.38345">
        <ele>1271</ele>
        <time>2019-06-15T08:25:49.013Z</time>
      </trkpt>
      <trkpt lat="45.00239" lon="5.38345">
        <ele>1272</ele>
        <time>2019-06-15T08:25:50.013Z</time>
      </trkpt>
      <trkpt lat="45.00241" lon="5.38344">
        <ele>1273</ele>
        <time>2019-06-15T08:25:51.013Z</time>
      </trkpt>
      <trkpt lat="45.00244" lon="5.38344">
        <ele>1273</ele>
        <time>2019-06-15T08:25:52.013Z</time>
      </trkpt>
      <trkpt lat="45.00247" lon="5.38344">
        <ele>1273</ele>
        <time>2019-06-15T08:25:53.013Z</time>
      </trkpt>
      <trkpt lat="45.0025" lon="5.38343">
        <ele>1273</ele>
        <time>2019-06-15T08:25:54.013Z</time>
      </trkpt>
      <trkpt lat="45.00253" lon="5.38343">
        <ele>1274</ele>
        <time>2019-06-15T08:25:55.013Z</time>
      </trkpt>
      <trkpt lat="45.00256" lon="5.38343">
        <ele>1273</ele>
        <time>2019-06-15T08:25:56.013Z</time>
      </trkpt>
      <trkpt lat="45.00256" lon="5.38343">
        <ele>1272</ele>
        <time>2019-06-15T08:25:57.013Z</time>
      </trkpt>
      <trkpt lat="45.0026" lon="5.38343">
        <ele>1272</ele>
        <time>2019-06-15T08:25:58.013Z</time>
      </trkpt>
      <trkpt lat="45.00263" lon="5.38343">
        <ele>1272</ele>
        <time>2019-06-15T08:25:59.013Z</time>
      </trkpt>
      <trkpt lat="45.00267" lon="5.38344">
        <ele>1272</ele>
        <time>2019-06-15T08:26:00.013Z</time>
      </trkpt>
      <trkpt lat="45.00269" lon="5.38345">
        <ele>1271</ele>
        <time>2019-06-15T08:26:01.013Z</time>
      </trkpt>
      <trkpt lat="45.00272" lon="5.38347">
        <ele>1271</ele>
        <time>2019-06-15T08:26:02.013Z</time>
      </trkpt>
      <trkpt lat="45.00274" lon="5.38349">
        <ele>1270</ele>
        <time>2019-06-15T08:26:03.013Z</time>
      </trkpt>
      <trkpt lat="45.00277" lon="5.38351">
        <ele>1270</ele>
        <time>2019-06-15T08:26:04.013Z</time>
      </trkpt>
      <trkpt lat="45.00279" lon="5.38353">
        <ele>1269</ele>
        <time>2019-06-15T08:26:05.013Z</time>
      </trkpt>
      <trkpt lat="45.00281" lon="5.38355">
        <ele>1268</ele>
        <time>2019-06-15T08:26:06.013Z</time>
      </trkpt>
      <trkpt lat="45.00284" lon="5.38357">
        <ele>1267</ele>
        <time>2019-06-15T08:26:07.013Z</time>
      </trkpt>
      <trkpt lat="45.00286" lon="5.38359">
        <ele>1267</ele>
        <time>2019-06-15T08:26:08.013Z</time>
      </trkpt>
      <trkpt lat="45.00288" lon="5.38361">
        <ele>1266</ele>
        <time>2019-06-15T08:26:09.013Z</time>
      </trkpt>
      <trkpt lat="45.00291" lon="5.38363">
        <ele>1266</ele>
        <time>2019-06-15T08:26:10.013Z</time>
      </trkpt>
      <trkpt lat="45.00293" lon="5.38364">
        <ele>1265</ele>
        <time>2019-06-15T08:26:11.013Z</time>
      </trkpt>
      <trkpt lat="45.00295" lon="5.38366">
        <ele>1265</ele>
        <time>2019-06-15T08:26:12.013Z</time>
      </trkpt>
      <trkpt lat="45.00297" lon="5.38367">
        <ele>1266</ele>
        <time>2019-06-15T08:26:13.013Z</time>
      </trkpt>
      <trkpt lat="45.00298" lon="5.38368">
        <ele>1265</ele>
        <time>2019-06-15T08:26:14.013Z</time>
      </trkpt>
      <trkpt lat="45.003" lon="5.38368">
        <ele>1264</ele>
        <time>2019-06-15T08:26:15.013Z</time>
      </trkpt>
      <trkpt lat="45.003" lon="5.38368">
        <ele>1264</ele>
        <time>2019-06-15T08:26:16.013Z</time>
      </trkpt>
      <trkpt lat="45.00301" lon="5.38368">
        <ele>1264</ele>
        <time>2019-06-15T08:26:17.013Z</time>
      </trkpt>
      <trkpt lat="45.00302" lon="5.38368">
        <ele>1264</ele>
        <time>2019-06-15T08:26:18.013Z</time>
      </trkpt>
      <trkpt lat="45.00302" lon="5.38368">
        <ele>1264</ele>
        <time>2019-06-15T08:26:19.013Z</time>
      </trkpt>
      <trkpt lat="45.00302" lon="5.38368">
        <ele>1265</ele>
        <time>2019-06-15T08:26:20.013Z</time>
      </trkpt>
      <trkpt lat="45.00305" lon="5.38372">
        <ele>1265</ele>
        <time>2019-06-15T08:26:21.024Z</time>
      </trkpt>
      <trkpt lat="45.00307" lon="5.38373">
        <ele>1265</ele>
        <time>2019-06-15T08:26:22.024Z</time>
      </trkpt>
      <trkpt lat="45.00308" lon="5.38374">
        <ele>1264</ele>
        <time>2019-06-15T08:26:23.024Z</time>
      </trkpt>
      <trkpt lat="45.0031" lon="5.38374">
        <ele>1264</ele>
        <time>2019-06-15T08:26:24.024Z</time>
      </trkpt>
      <trkpt lat="45.00311" lon="5.38373">
        <ele>1263</ele>
        <time>2019-06-15T08:26:25.024Z</time>
      </trkpt>
      <trkpt lat="45.00313" lon="5.38373">
        <ele>1264</ele>
        <time>2019-06-15T08:26:26.024Z</time>
      </trkpt>
      <trkpt lat="45.00314" lon="5.38372">
        <ele>1265</ele>
        <time>2019-06-15T08:26:27.024Z</time>
      </trkpt>
      <trkpt lat="45.00316" lon="5.38371">
        <ele>1266</ele>
        <time>2019-06-15T08:26:28.024Z</time>
      </trkpt>
      <trkpt lat="45.00318" lon="5.3837">
        <ele>1268</ele>
        <time>2019-06-15T08:26:29.024Z</time>
      </trkpt>
      <trkpt lat="45.0032" lon="5.38369">
        <ele>1270</ele>
        <time>2019-06-15T08:26:30.024Z</time>
      </trkpt>
      <trkpt lat="45.00322" lon="5.38368">
        <ele>1271</ele>
        <time>2019-06-15T08:26:31.024Z</time>
      </trkpt>
      <trkpt lat="45.00324" lon="5.38368">
        <ele>1272</ele>
        <time>2019-06-15T08:26:32.024Z</time>
      </trkpt>
      <trkpt lat="45.00326" lon="5.38367">
        <ele>1273</ele>
        <time>2019-06-15T08:26:33.024Z</time>
      </trkpt>
      <trkpt lat="45.00328" lon="5.38366">
        <ele>1273</ele>
        <time>2019-06-15T08:26:34.024Z</time>
      </trkpt>
      <trkpt lat="45.0033" lon="5.38365">
        <ele>1272</ele>
        <time>2019-06-15T08:26:35.024Z</time>
      </trkpt>
      <trkpt lat="45.00332" lon="5.38364">
        <ele>1272</ele>
        <time>2019-06-15T08:26:36.024Z</time>
      </trkpt>
      <trkpt lat="45.00335" lon="5.38363">
        <ele>1273</ele>
        <time>2019-06-15T08:26:37.024Z</time>
      </trkpt>
      <trkpt lat="45.00338" lon="5.38362">
        <ele>1273</ele>
        <time>2019-06-15T08:26:38.024Z</time>
      </trkpt>
      <trkpt lat="45.00341" lon="5.38362">
        <ele>1272</ele>
        <time>2019-06-15T08:26:39.024Z</time>
      </trkpt>
      <trkpt lat="45.00343" lon="5.38361">
        <ele>1271</ele>
        <time>2019-06-15T08:26:40.024Z</time>
      </trkpt>
      <trkpt lat="45.00345" lon="5.38361">
        <ele>1270</ele>
        <time>2019-06-15T08:26:41.024Z</time>
      </trkpt>
      <trkpt lat="45.00349" lon="5.3836">
        <ele>1270</ele>
        <time>2019-06-15T08:26:42.024Z</time>
      </trkpt>
      <trkpt lat="45.00352" lon="5.3836">
        <ele>1270</ele>
        <time>2019-06-15T08:26:43.024Z</time>
      </trkpt>
      <trkpt lat="45.00355" lon="5.3836">
        <ele>1269</ele>
        <time>2019-06-15T08:26:44.024Z</time>
      </trkpt>
      <trkpt lat="45.00358" lon="5.3836">
        <ele>1268</ele>
        <time>2019-06-15T08:26:45.024Z</time>
      </trkpt>
      <trkpt lat="45.00361" lon="5.3836">
        <ele>1267</ele>
        <time>2019-06-15T08:26:46.024Z</time>
      </trkpt>
      <trkpt lat="45.00364" lon="5.38359">
        <ele>1267</ele>
        <time>2019-06-15T08:26:47.024Z</time>
      </trkpt>
      <trkpt lat="45.00368" lon="5.38358">
        <ele>1266</ele>
        <time>2019-06-15T08:26:48.024Z</time>
      </trkpt>
      <trkpt lat="45.00372" lon="5.38357">
        <ele>1267</ele>
        <time>2019-06-15T08:26:49.024Z</time>
      </trkpt>
      <trkpt lat="45.00376" lon="5.38357">
        <ele>1269</ele>
        <time>2019-06-15T08:26:50.024Z</time>
      </trkpt>
      <trkpt lat="45.0038" lon="5.38356">
        <ele>1268</ele>
        <time>2019-06-15T08:26:51.024Z</time>
      </trkpt>
      <trkpt lat="45.00384" lon="5.38356">
        <ele>1268</ele>
        <time>2019-06-15T08:26:52.024Z</time>
      </trkpt>
      <trkpt lat="45.00388" lon="5.38355">
        <ele>1268</ele>
        <time>2019-06-15T08:26:53.024Z</time>
      </trkpt>
      <trkpt lat="45.00391" lon="5.38354">
        <ele>1269</ele>
        <time>2019-06-15T08:26:54.024Z</time>
      </trkpt>
      <trkpt lat="45.00393" lon="5.38353">
        <ele>1269</ele>
        <time>2019-06-15T08:26:55.024Z</time>
      </trkpt>
      <trkpt lat="45.00395" lon="5.38352">
        <ele>1269</ele>
        <time>2019-06-15T08:26:56.024Z</time>
      </trkpt>
      <trkpt lat="45.00398" lon="5.38353">
        <ele>1270</ele>
        <time>2019-06-15T08:26:57.024Z</time>
      </trkpt>
      <trkpt lat="45.004" lon="5.38353">
        <ele>1270</ele>
        <time>2019-06-15T08:26:58.024Z</time>
      </trkpt>
      <trkpt lat="45.00404" lon="5.38354">
        <ele>1270</ele>
        <time>2019-06-15T08:26:59.024Z</time>
      </trkpt>
      <trkpt lat="45.00408" lon="5.38355">
        <ele>1270</ele>
        <time>2019-06-15T08:27:00.024Z</time>
      </trkpt>
      <trkpt lat="45.00411" lon="5.38356">
        <ele>1270</ele>
        <time>2019-06-15T08:27:01.024Z</time>
      </trkpt>
      <trkpt lat="45.00414" lon="5.38358">
        <ele>1271</ele>
        <time>2019-06-15T08:27:02.024Z</time>
      </trkpt>
      <trkpt lat="45.00417" lon="5.38359">
        <ele>1270</ele>
        <time>2019-06-15T08:27:03.024Z</time>
      </trkpt>
      <trkpt lat="45.0042" lon="5.38361">
        <ele>1270</ele>
        <time>2019-06-15T08:27:04.024Z</time>
      </trkpt>
      <trkpt lat="45.00422" lon="5.38361">
        <ele>1269</ele>
        <time>2019-06-15T08:27:05.024Z</time>
      </trkpt>
      <trkpt lat="45.00425" lon="5.38362">
        <ele>1267</ele>
        <time>2019-06-15T08:27:06.024Z</time>
      </trkpt>
      <trkpt lat="45.00428" lon="5.38361">
        <ele>1266</ele>
        <time>2019-06-15T08:27:07.024Z</time>
      </trkpt>
      <trkpt lat="45.00431" lon="5.3836">
        <ele>1266</ele>
        <time>2019-06-15T08:27:08.024Z</time>
      </trkpt>
      <trkpt lat="45.00433" lon="5.3836">
        <ele>1266</ele>
        <time>2019-06-15T08:27:09.024Z</time>
      </trkpt>
      <trkpt lat="45.00436" lon="5.3836">
        <ele>1265</ele>
        <time>2019-06-15T08:27:10.024Z</time>
      </trkpt>
      <trkpt lat="45.00439" lon="5.3836">
        <ele>1265</ele>
        <time>2019-06-15T08:27:11.024Z</time>
      </trkpt>
      <trkpt lat="45.00442" lon="5.3836">
        <ele>1264</ele>
        <time>2019-06-15T08:27:12.024Z</time>
      </trkpt>
      <trkpt lat="45.00445" lon="5.38359">
        <ele>1265</ele>
        <time>2019-06-15T08:27:13.024Z</time>
      </trkpt>
      <trkpt lat="45.00448" lon="5.38359">
        <ele>1264</ele>
        <time>2019-06-15T08:27:14.024Z</time>
      </trkpt>
      <trkpt lat="45.00451" lon="5.38357">
        <ele>1263</ele>
        <time>2019-06-15T08:27:15.024Z</time>
      </trkpt>
      <trkpt lat="45.00454" lon="5.38356">
        <ele>1263</ele>
        <time>2019-06-15T08:27:16.024Z</time>
      </trkpt>
      <trkpt lat="45.00456" lon="5.38354">
        <ele>1262</ele>
        <time>2019-06-15T08:27:17.024Z</time>
      </trkpt>
      <trkpt lat="45.00459" lon="5.38352">
        <ele>1260</ele>
        <time>2019-06-15T08:27:18.024Z</time>
      </trkpt>
      <trkpt lat="45.00461" lon="5.3835">
        <ele>1260</ele>
        <time>2019-06-15T08:27:19.024Z</time>
      </trkpt>
      <trkpt lat="45.00463" lon="5.38347">
        <ele>1260</ele>
        <time>2019-06-15T08:27:20.024Z</time>
      </trkpt>
      <trkpt lat="45.00464" lon="5.38344">
        <ele>1260</ele>
        <time>2019-06-15T08:27:21.024Z</time>
      </trkpt>
      <trkpt lat="45.00466" lon="5.38341">
        <ele>1260</ele>
        <time>2019-06-15T08:27:22.024Z</time>
      </trkpt>
      <trkpt lat="45.00468" lon="5.38337">
        <ele>1258</ele>
        <time>2019-06-15T08:27:23.024Z</time>
      </trkpt>
      <trkpt lat="45.0047" lon="5.38333">
        <ele>1254</ele>
        <time>2019-06-15T08:27:24.024Z</time>
      </trkpt>
      <trkpt lat="45.00472" lon="5.3833">
        <ele>1252</ele>
        <time>2019-06-15T08:27:25.024Z</time>
      </trkpt>
      <trkpt lat="45.00474" lon="5.38327">
        <ele>1251</ele>
        <time>2019-06-15T08:27:26.024Z</time>
      </trkpt>
      <trkpt lat="45.00476" lon="5.38323">
        <ele>1250</ele>
        <time>2019-06-15T08:27:27.024Z</time>
      </trkpt>
      <trkpt lat="45.00478" lon="5.38319">
        <ele>1250</ele>
        <time>2019-06-15T08:27:28.024Z</time>
      </trkpt>
      <trkpt lat="45.00479" lon="5.38315">
        <ele>1249</ele>
        <time>2019-06-15T08:27:29.024Z</time>
      </trkpt>
      <trkpt lat="45.00481" lon="5.38311">
        <ele>1248</ele>
        <time>2019-06-15T08:27:30.024Z</time>
      </trkpt>
      <trkpt lat="45.00482" lon="5.38308">
        <ele>1247</ele>
        <time>2019-06-15T08:27:31.024Z</time>
      </trkpt>
      <trkpt lat="45.00483" lon="5.38304">
        <ele>1246</ele>
        <time>2019-06-15T08:27:32.024Z</time>
      </trkpt>
      <trkpt lat="45.00485" lon="5.383">
        <ele>1245</ele>
        <time>2019-06-15T08:27:33.024Z</time>
      </trkpt>
      <trkpt lat="45.00487" lon="5.38297">
        <ele>1244</ele>
        <time>2019-06-15T08:27:34.024Z</time>
      </trkpt>
      <trkpt lat="45.00488" lon="5.38293">
        <ele>1244</ele>
        <time>2019-06-15T08:27:35.024Z</time>
      </trkpt>
      <trkpt lat="45.0049" lon="5.3829">
        <ele>1243</ele>
        <time>2019-06-15T08:27:36.024Z</time>
      </trkpt>
      <trkpt lat="45.00492" lon="5.38286">
        <ele>1242</ele>
        <time>2019-06-15T08:27:37.024Z</time>
      </trkpt>
      <trkpt lat="45.00495" lon="5.38283">
        <ele>1242</ele>
        <time>2019-06-15T08:27:38.024Z</time>
      </trkpt>
      <trkpt lat="45.00498" lon="5.3828">
        <ele>1242</ele>
        <time>2019-06-15T08:27:39.024Z</time>
      </trkpt>
      <trkpt lat="45.005" lon="5.38278">
        <ele>1240</ele>
        <time>2019-06-15T08:27:40.024Z</time>
      </trkpt>
      <trkpt lat="45.00503" lon="5.38275">
        <ele>1239</ele>
        <time>2019-06-15T08:27:41.024Z</time>
      </trkpt>
      <trkpt lat="45.00506" lon="5.38273">
        <ele>1238</ele>
        <time>2019-06-15T08:27:42.024Z</time>
      </trkpt>
      <trkpt lat="45.00509" lon="5.38271">
        <ele>1237</ele>
        <time>2019-06-15T08:27:43.024Z</time>
      </trkpt>
      <trkpt lat="45.00511" lon="5.38268">
        <ele>1238</ele>
        <time>2019-06-15T08:27:44.024Z</time>
      </trkpt>
      <trkpt lat="45.00514" lon="5.38265">
        <ele>1237</ele>
        <time>2019-06-15T08:27:45.024Z</time>
      </trkpt>
      <trkpt lat="45.00516" lon="5.38262">
        <ele>1237</ele>
        <time>2019-06-15T08:27:46.024Z</time>
      </trkpt>
      <trkpt lat="45.00518" lon="5.38258">
        <ele>1238</ele>
        <time>2019-06-15T08:27:47.024Z</time>
      </trkpt>
      <trkpt lat="45.0052" lon="5.38255">
        <ele>1238</ele>
        <time>2019-06-15T08:27:48.024Z</time>
      </trkpt>
      <trkpt lat="45.00522" lon="5.38252">
        <ele>1239</ele>
        <time>2019-06-15T08:27:49.024Z</time>
      </trkpt>
      <trkpt lat="45.00524" lon="5.38249">
        <ele>1240</ele>
        <time>2019-06-15T08:27:50.024Z</time>
      </trkpt>
      <trkpt lat="45.00527" lon="5.38247">
        <ele>1239</ele>
        <time>2019-06-15T08:27:51.024Z</time>
      </trkpt>
      <trkpt lat="45.0053" lon="5.38244">
        <ele>1240</ele>
        <time>2019-06-15T08:27:52.024Z</time>
      </trkpt>
      <trkpt lat="45.00533" lon="5.38241">
        <ele>1239</ele>
        <time>2019-06-15T08:27:53.024Z</time>
      </trkpt>
      <trkpt lat="45.00535" lon="5.38238">
        <ele>1239</ele>
        <time>2019-06-15T08:27:54.024Z</time>
      </trkpt>
      <trkpt lat="45.00537" lon="5.38235">
        <ele>1238</ele>
        <time>2019-06-15T08:27:55.024Z</time>
      </trkpt>
      <trkpt lat="45.00539" lon="5.38233">
        <ele>1238</ele>
        <time>2019-06-15T08:27:56.024Z</time>
      </trkpt>
      <trkpt lat="45.00541" lon="5.38231">
        <ele>1237</ele>
        <time>2019-06-15T08:27:57.024Z</time>
      </trkpt>
      <trkpt lat="45.00543" lon="5.38229">
        <ele>1238</ele>
        <time>2019-06-15T08:27:58.024Z</time>
      </trkpt>
      <trkpt lat="45.00546" lon="5.38227">
        <ele>1238</ele>
        <time>2019-06-15T08:27:59.024Z</time>
      </trkpt>
      <trkpt lat="45.00549" lon="5.38225">
        <ele>1238</ele>
        <time>2019-06-15T08:28:00.024Z</time>
      </trkpt>
      <trkpt lat="45.00552" lon="5.38223">
        <ele>1238</ele>
        <time>2019-06-15T08:28:01.024Z</time>
      </trkpt>
      <trkpt lat="45.00555" lon="5.3822">
        <ele>1237</ele>
        <time>2019-06-15T08:28:02.024Z</time>
      </trkpt>
      <trkpt lat="45.00559" lon="5.38217">
        <ele>1237</ele>
        <time>2019-06-15T08:28:03.024Z</time>
      </trkpt>
      <trkpt lat="45.00562" lon="5.38215">
        <ele>1237</ele>
        <time>2019-06-15T08:28:04.024Z</time>
      </trkpt>
      <trkpt lat="45.00565" lon="5.38212">
        <ele>1236</ele>
        <time>2019-06-15T08:28:05.024Z</time>
      </trkpt>
      <trkpt lat="45.00568" lon="5.38209">
        <ele>1235</ele>
        <time>2019-06-15T08:28:06.024Z</time>
      </trkpt>
      <trkpt lat="45.00571" lon="5.38206">
        <ele>1234</ele>
        <time>2019-06-15T08:28:07.024Z</time>
      </trkpt>
      <trkpt lat="45.00574" lon="5.38203">
        <ele>1233</ele>
        <time>2019-06-15T08:28:08.024Z</time>
      </trkpt>
      <trkpt lat="45.00578" lon="5.38201">
        <ele>1232</ele>
        <time>2019-06-15T08:28:09.024Z</time>
      </trkpt>
      <trkpt lat="45.00582" lon="5.382">
        <ele>1232</ele>
        <time>2019-06-15T08:28:10.024Z</time>
      </trkpt>
      <trkpt lat="45.00586" lon="5.38199">
        <ele>1232</ele>
        <time>2019-06-15T08:28:11.024Z</time>
      </trkpt>
      <trkpt lat="45.0059" lon="5.38199">
        <ele>1232</ele>
        <time>2019-06-15T08:28:12.024Z</time>
      </trkpt>
      <trkpt lat="45.00594" lon="5.38198">
        <ele>1231</ele>
        <time>2019-06-15T08:28:13.024Z</time>
      </trkpt>
      <trkpt lat="45.00598" lon="5.38197">
        <ele>1230</ele>
        <time>2019-06-15T08:28:14.024Z</time>
      </trkpt>
      <trkpt lat="45.00602" lon="5.38196">
        <ele>1230</ele>
        <time>2019-06-15T08:28:15.024Z</time>
      </trkpt>
      <trkpt lat="45.00606" lon="5.38196">
        <ele>1231</ele>
        <time>2019-06-15T08:28:16.024Z</time>
      </trkpt>
      <trkpt lat="45.0061" lon="5.38196">
        <ele>1230</ele>
        <time>2019-06-15T08:28:17.024Z</time>
      </trkpt>
      <trkpt lat="45.00614" lon="5.38196">
        <ele>1229</ele>
        <time>2019-06-15T08:28:18.024Z</time>
      </trkpt>
      <trkpt lat="45.00618" lon="5.38198">
        <ele>1229</ele>
        <time>2019-06-15T08:28:19.024Z</time>
      </trkpt>
      <trkpt lat="45.00622" lon="5.38199">
        <ele>1229</ele>
        <time>2019-06-15T08:28:20.024Z</time>
      </trkpt>
      <trkpt lat="45.00625" lon="5.38202">
        <ele>1229</ele>
        <time>2019-06-15T08:28:21.024Z</time>
      </trkpt>
      <trkpt lat="45.00628" lon="5.38206">
        <ele>1229</ele>
        <time>2019-06-15T08:28:22.024Z</time>
      </trkpt>
      <trkpt lat="45.00631" lon="5.38209">
        <ele>1229</ele>
        <time>2019-06-15T08:28:23.024Z</time>
      </trkpt>
      <trkpt lat="45.00634" lon="5.38212">
        <ele>1228</ele>
        <time>2019-06-15T08:28:24.024Z</time>
      </trkpt>
      <trkpt lat="45.00637" lon="5.38214">
        <ele>1227</ele>
        <time>2019-06-15T08:28:25.024Z</time>
      </trkpt>
      <trkpt lat="45.00639" lon="5.38217">
        <ele>1227</ele>
        <time>2019-06-15T08:28:26.024Z</time>
      </trkpt>
      <trkpt lat="45.00642" lon="5.38219">
        <ele>1226</ele>
        <time>2019-06-15T08:28:27.024Z</time>
      </trkpt>
      <trkpt lat="45.00644" lon="5.38222">
        <ele>1226</ele>
        <time>2019-06-15T08:28:28.024Z</time>
      </trkpt>
      <trkpt lat="45.00647" lon="5.38225">
        <ele>1226</ele>
        <time>2019-06-15T08:28:29.024Z</time>
      </trkpt>
      <trkpt lat="45.0065" lon="5.38228">
        <ele>1226</ele>
        <time>2019-06-15T08:28:30.024Z</time>
      </trkpt>
      <trkpt lat="45.00653" lon="5.3823">
        <ele>1225</ele>
        <time>2019-06-15T08:28:31.024Z</time>
      </trkpt>
      <trkpt lat="45.00656" lon="5.38231">
        <ele>1224</ele>
        <time>2019-06-15T08:28:32.024Z</time>
      </trkpt>
      <trkpt lat="45.00659" lon="5.3823">
        <ele>1223</ele>
        <time>2019-06-15T08:28:33.024Z</time>
      </trkpt>
      <trkpt lat="45.00662" lon="5.38229">
        <ele>1223</ele>
        <time>2019-06-15T08:28:34.024Z</time>
      </trkpt>
      <trkpt lat="45.00665" lon="5.38227">
        <ele>1222</ele>
        <time>2019-06-15T08:28:35.024Z</time>
      </trkpt>
      <trkpt lat="45.00667" lon="5.38226">
        <ele>1221</ele>
        <time>2019-06-15T08:28:36.024Z</time>
      </trkpt>
      <trkpt lat="45.00669" lon="5.38225">
        <ele>1221</ele>
        <time>2019-06-15T08:28:37.024Z</time>
      </trkpt>
      <trkpt lat="45.00671" lon="5.38225">
        <ele>1219</ele>
        <time>2019-06-15T08:28:38.024Z</time>
      </trkpt>
      <trkpt lat="45.00673" lon="5.38225">
        <ele>1218</ele>
        <time>2019-06-15T08:28:39.024Z</time>
      </trkpt>
      <trkpt lat="45.00675" lon="5.38226">
        <ele>1217</ele>
        <time>2019-06-15T08:28:40.024Z</time>
      </trkpt>
      <trkpt lat="45.00677" lon="5.38228">
        <ele>1216</ele>
        <time>2019-06-15T08:28:41.024Z</time>
      </trkpt>
      <trkpt lat="45.00679" lon="5.3823">
        <ele>1215</ele>
        <time>2019-06-15T08:28:42.024Z</time>
      </trkpt>
      <trkpt lat="45.0068" lon="5.38233">
        <ele>1214</ele>
        <time>2019-06-15T08:28:43.024Z</time>
      </trkpt>
      <trkpt lat="45.00681" lon="5.38236">
        <ele>1213</ele>
        <time>2019-06-15T08:28:44.024Z</time>
      </trkpt>
      <trkpt lat="45.00682" lon="5.38238">
        <ele>1213</ele>
        <time>2019-06-15T08:28:45.024Z</time>
      </trkpt>
      <trkpt lat="45.00684" lon="5.38241">
        <ele>1212</ele>
        <time>2019-06-15T08:28:46.024Z</time>
      </trkpt>
      <trkpt lat="45.00685" lon="5.38243">
        <ele>1210</ele>
        <time>2019-06-15T08:28:47.024Z</time>
      </trkpt>
      <trkpt lat="45.00686" lon="5.38245">
        <ele>1210</ele>
        <time>2019-06-15T08:28:48.024Z</time>
      </trkpt>
      <trkpt lat="45.00688" lon="5.38248">
        <ele>1210</ele>
        <time>2019-06-15T08:28:49.024Z</time>
      </trkpt>
      <trkpt lat="45.0069" lon="5.38251">
        <ele>1210</ele>
        <time>2019-06-15T08:28:50.024Z</time>
      </trkpt>
      <trkpt lat="45.00692" lon="5.38254">
        <ele>1209</ele>
        <time>2019-06-15T08:28:51.024Z</time>
      </trkpt>
      <trkpt lat="45.00694" lon="5.38255">
        <ele>1209</ele>
        <time>2019-06-15T08:28:52.024Z</time>
      </trkpt>
      <trkpt lat="45.00697" lon="5.38257">
        <ele>1209</ele>
        <time>2019-06-15T08:28:53.024Z</time>
      </trkpt>
      <trkpt lat="45.007" lon="5.38258">
        <ele>1210</ele>
        <time>2019-06-15T08:28:54.024Z</time>
      </trkpt>
      <trkpt lat="45.00703" lon="5.38259">
        <ele>1210</ele>
        <time>2019-06-15T08:28:55.024Z</time>
      </trkpt>
      <trkpt lat="45.00706" lon="5.3826">
        <ele>1211</ele>
        <time>2019-06-15T08:28:56.024Z</time>
      </trkpt>
      <trkpt lat="45.0071" lon="5.3826">
        <ele>1209</ele>
        <time>2019-06-15T08:28:57.024Z</time>
      </trkpt>
      <trkpt lat="45.00714" lon="5.3826">
        <ele>1208</ele>
        <time>2019-06-15T08:28:58.024Z</time>
      </trkpt>
      <trkpt lat="45.00717" lon="5.3826">
        <ele>1208</ele>
        <time>2019-06-15T08:28:59.024Z</time>
      </trkpt>
      <trkpt lat="45.0072" lon="5.3826">
        <ele>1207</ele>
        <time>2019-06-15T08:29:00.024Z</time>
      </trkpt>
      <trkpt lat="45.00723" lon="5.38259">
        <ele>1206</ele>
        <time>2019-06-15T08:29:01.024Z</time>
      </trkpt>
      <trkpt lat="45.00726" lon="5.38258">
        <ele>1206</ele>
        <time>2019-06-15T08:29:02.024Z</time>
      </trkpt>
      <trkpt lat="45.00729" lon="5.38258">
        <ele>1205</ele>
        <time>2019-06-15T08:29:03.024Z</time>
      </trkpt>
      <trkpt lat="45.00732" lon="5.38258">
        <ele>1204</ele>
        <time>2019-06-15T08:29:04.024Z</time>
      </trkpt>
      <trkpt lat="45.00735" lon="5.38258">
        <ele>1203</ele>
        <time>2019-06-15T08:29:05.024Z</time>
      </trkpt>
      <trkpt lat="45.00738" lon="5.38259">
        <ele>1202</ele>
        <time>2019-06-15T08:29:06.024Z</time>
      </trkpt>
      <trkpt lat="45.00742" lon="5.38259">
        <ele>1201</ele>
        <time>2019-06-15T08:29:07.024Z</time>
      </trkpt>
      <trkpt lat="45.00745" lon="5.3826">
        <ele>1201</ele>
        <time>2019-06-15T08:29:08.024Z</time>
      </trkpt>
      <trkpt lat="45.00749" lon="5.38262">
        <ele>1198</ele>
        <time>2019-06-15T08:29:09.024Z</time>
      </trkpt>
      <trkpt lat="45.00752" lon="5.38264">
        <ele>1198</ele>
        <time>2019-06-15T08:29:10.024Z</time>
      </trkpt>
      <trkpt lat="45.00756" lon="5.38266">
        <ele>1197</ele>
        <time>2019-06-15T08:29:11.024Z</time>
      </trkpt>
      <trkpt lat="45.00759" lon="5.38268">
        <ele>1197</ele>
        <time>2019-06-15T08:29:12.024Z</time>
      </trkpt>
      <trkpt lat="45.00762" lon="5.38269">
        <ele>1197</ele>
        <time>2019-06-15T08:29:13.024Z</time>
      </trkpt>
      <trkpt lat="45.00766" lon="5.38271">
        <ele>1198</ele>
        <time>2019-06-15T08:29:14.024Z</time>
      </trkpt>
      <trkpt lat="45.00769" lon="5.38273">
        <ele>1197</ele>
        <time>2019-06-15T08:29:15.024Z</time>
      </trkpt>
      <trkpt lat="45.00772" lon="5.38274">
        <ele>1198</ele>
        <time>2019-06-15T08:29:16.024Z</time>
      </trkpt>
      <trkpt lat="45.00775" lon="5.38274">
        <ele>1196</ele>
        <time>2019-06-15T08:29:17.024Z</time>
      </trkpt>
      <trkpt lat="45.00778" lon="5.38274">
        <ele>1196</ele>
        <time>2019-06-15T08:29:18.024Z</time>
      </trkpt>
      <trkpt lat="45.00782" lon="5.38273">
        <ele>1195</ele>
        <time>2019-06-15T08:29:19.024Z</time>
      </trkpt>
      <trkpt lat="45.00785" lon="5.38271">
        <ele>1195</ele>
        <time>2019-06-15T08:29:20.024Z</time>
      </trkpt>
      <trkpt lat="45.00788" lon="5.38269">
        <ele>1196</ele>
        <time>2019-06-15T08:29:21.024Z</time>
      </trkpt>
      <trkpt lat="45.00792" lon="5.38267">
        <ele>1196</ele>
        <time>2019-06-15T08:29:22.024Z</time>
      </trkpt>
      <trkpt lat="45.00796" lon="5.38266">
        <ele>1195</ele>
        <time>2019-06-15T08:29:23.024Z</time>
      </trkpt>
      <trkpt lat="45.008" lon="5.38266">
        <ele>1194</ele>
        <time>2019-06-15T08:29:24.024Z</time>
      </trkpt>
      <trkpt lat="45.00803" lon="5.38265">
        <ele>1193</ele>
        <time>2019-06-15T08:29:25.024Z</time>
      </trkpt>
      <trkpt lat="45.00806" lon="5.38263">
        <ele>1192</ele>
        <time>2019-06-15T08:29:26.024Z</time>
      </trkpt>
      <trkpt lat="45.0081" lon="5.38261">
        <ele>1191</ele>
        <time>2019-06-15T08:29:27.024Z</time>
      </trkpt>
      <trkpt lat="45.00814" lon="5.38259">
        <ele>1190</ele>
        <time>2019-06-15T08:29:28.024Z</time>
      </trkpt>
      <trkpt lat="45.00817" lon="5.38257">
        <ele>1190</ele>
        <time>2019-06-15T08:29:29.024Z</time>
      </trkpt>
      <trkpt lat="45.00819" lon="5.38254">
        <ele>1190</ele>
        <time>2019-06-15T08:29:30.024Z</time>
      </trkpt>
      <trkpt lat="45.00821" lon="5.38252">
        <ele>1189</ele>
        <time>2019-06-15T08:29:31.024Z</time>
      </trkpt>
      <trkpt lat="45.00823" lon="5.38248">
        <ele>1188</ele>
        <time>2019-06-15T08:29:32.024Z</time>
      </trkpt>
      <trkpt lat="45.00826" lon="5.38245">
        <ele>1187</ele>
        <time>2019-06-15T08:29:33.024Z</time>
      </trkpt>
      <trkpt lat="45.00829" lon="5.38243">
        <ele>1185</ele>
        <time>2019-06-15T08:29:34.024Z</time>
      </trkpt>
      <trkpt lat="45.00832" lon="5.38241">
        <ele>1184</ele>
        <time>2019-06-15T08:29:35.024Z</time>
      </trkpt>
      <trkpt lat="45.00836" lon="5.38238">
        <ele>1182</ele>
        <time>2019-06-15T08:29:36.024Z</time>
      </trkpt>
      <trkpt lat="45.00839" lon="5.38236">
        <ele>1180</ele>
        <time>2019-06-15T08:29:37.024Z</time>
      </trkpt>
      <trkpt lat="45.00842" lon="5.38233">
        <ele>1179</ele>
        <time>2019-06-15T08:29:38.024Z</time>
      </trkpt>
      <trkpt lat="45.00845" lon="5.38229">
        <ele>1179</ele>
        <time>2019-06-15T08:29:39.024Z</time>
      </trkpt>
      <trkpt lat="45.00847" lon="5.38225">
        <ele>1178</ele>
        <time>2019-06-15T08:29:40.024Z</time>
      </trkpt>
      <trkpt lat="45.00849" lon="5.38221">
        <ele>1178</ele>
        <time>2019-06-15T08:29:41.024Z</time>
      </trkpt>
      <trkpt lat="45.00851" lon="5.38217">
        <ele>1178</ele>
        <time>2019-06-15T08:29:42.024Z</time>
      </trkpt>
      <trkpt lat="45.00852" lon="5.38212">
        <ele>1179</ele>
        <time>2019-06-15T08:29:43.024Z</time>
      </trkpt>
      <trkpt lat="45.00852" lon="5.38208">
        <ele>1178</ele>
        <time>2019-06-15T08:29:44.024Z</time>
      </trkpt>
      <trkpt lat="45.00852" lon="5.38203">
        <ele>1178</ele>
        <time>2019-06-15T08:29:45.024Z</time>
      </trkpt>
      <trkpt lat="45.00852" lon="5.38198">
        <ele>1177</ele>
        <time>2019-06-15T08:29:46.024Z</time>
      </trkpt>
      <trkpt lat="45.00851" lon="5.38194">
        <ele>1176</ele>
        <time>2019-06-15T08:29:47.024Z</time>
      </trkpt>
      <trkpt lat="45.00849" lon="5.38191">
        <ele>1174</ele>
        <time>2019-06-15T08:29:48.024Z</time>
      </trkpt>
      <trkpt lat="45.00847" lon="5.38187">
        <ele>1173</ele>
        <time>2019-06-15T08:29:49.024Z</time>
      </trkpt>
      <trkpt lat="45.00845" lon="5.38184">
        <ele>1172</ele>
        <time>2019-06-15T08:29:50.024Z</time>
      </trkpt>
      <trkpt lat="45.00843" lon="5.38181">
        <ele>1172</ele>
        <time>2019-06-15T08:29:51.024Z</time>
      </trkpt>
      <trkpt lat="45.0084" lon="5.38177">
        <ele>1171</ele>
        <time>2019-06-15T08:29:52.024Z</time>
      </trkpt>
      <trkpt lat="45.00838" lon="5.38174">
        <ele>1170</ele>
        <time>2019-06-15T08:29:53.024Z</time>
      </trkpt>
      <trkpt lat="45.00837" lon="5.38171">
        <ele>1169</ele>
        <time>2019-06-15T08:29:54.024Z</time>
      </trkpt>
      <trkpt lat="45.00835" lon="5.38168">
        <ele>1170</ele>
        <time>2019-06-15T08:29:55.024Z</time>
      </trkpt>
      <trkpt lat="45.00833" lon="5.38165">
        <ele>1169</ele>
        <time>2019-06-15T08:29:56.024Z</time>
      </trkpt>
      <trkpt lat="45.00831" lon="5.38161">
        <ele>1169</ele>
        <time>2019-06-15T08:29:57.024Z</time>
      </trkpt>
      <trkpt lat="45.00829" lon="5.38158">
        <ele>1167</ele>
        <time>2019-06-15T08:29:58.024Z</time>
      </trkpt>
      <trkpt lat="45.00827" lon="5.38154">
        <ele>1166</ele>
        <time>2019-06-15T08:29:59.024Z</time>
      </trkpt>
      <trkpt lat="45.00825" lon="5.3815">
        <ele>1166</ele>
        <time>2019-06-15T08:30:00.024Z</time>
      </trkpt>
      <trkpt lat="45.00822" lon="5.38147">
        <ele>1165</ele>
        <time>2019-06-15T08:30:01.024Z</time>
      </trkpt>
      <trkpt lat="45.0082" lon="5.38142">
        <ele>1166</ele>
        <time>2019-06-15T08:30:02.024Z</time>
      </trkpt>
      <trkpt lat="45.00818" lon="5.38138">
        <ele>1167</ele>
        <time>2019-06-15T08:30:03.024Z</time>
      </trkpt>
      <trkpt lat="45.00817" lon="5.38134">
        <ele>1167</ele>
        <time>2019-06-15T08:30:04.024Z</time>
      </trkpt>
      <trkpt lat="45.00816" lon="5.3813">
        <ele>1167</ele>
        <time>2019-06-15T08:30:05.024Z</time>
      </trkpt>
      <trkpt lat="45.00815" lon="5.38126">
        <ele>1167</ele>
        <time>2019-06-15T08:30:06.024Z</time>
      </trkpt>
      <trkpt lat="45.00813" lon="5.38121">
        <ele>1166</ele>
        <time>2019-06-15T08:30:07.024Z</time>
      </trkpt>
      <trkpt lat="45.00812" lon="5.38117">
        <ele>1165</ele>
        <time>2019-06-15T08:30:08.024Z</time>
      </trkpt>
      <trkpt lat="45.00811" lon="5.38111">
        <ele>1163</ele>
        <time>2019-06-15T08:30:09.024Z</time>
      </trkpt>
      <trkpt lat="45.00811" lon="5.38106">
        <ele>1162</ele>
        <time>2019-06-15T08:30:10.024Z</time>
      </trkpt>
      <trkpt lat="45.0081" lon="5.38101">
        <ele>1161</ele>
        <time>2019-06-15T08:30:11.024Z</time>
      </trkpt>
      <trkpt lat="45.00809" lon="5.38096">
        <ele>1161</ele>
        <time>2019-06-15T08:30:12.024Z</time>
      </trkpt>
      <trkpt lat="45.00809" lon="5.38092">
        <ele>1160</ele>
        <time>2019-06-15T08:30:13.024Z</time>
      </trkpt>
      <trkpt lat="45.00808" lon="5.38087">
        <ele>1160</ele>
        <time>2019-06-15T08:30:14.024Z</time>
      </trkpt>
      <trkpt lat="45.00807" lon="5.38082">
        <ele>1159</ele>
        <time>2019-06-15T08:30:15.024Z</time>
      </trkpt>
      <trkpt lat="45.00807" lon="5.38077">
        <ele>1159</ele>
        <time>2019-06-15T08:30:16.024Z</time>
      </trkpt>
      <trkpt lat="45.00807" lon="5.38072">
        <ele>1159</ele>
        <time>2019-06-15T08:30:17.024Z</time>
      </trkpt>
      <trkpt lat="45.00807" lon="5.38068">
        <ele>1159</ele>
        <time>2019-06-15T08:30:18.024Z</time>
      </trkpt>
      <trkpt lat="45.00807" lon="5.38063">
        <ele>1158</ele>
        <time>2019-06-15T08:30:19.024Z</time>
      </trkpt>
      <trkpt lat="45.00807" lon="5.38059">
        <ele>1158</ele>
        <time>2019-06-15T08:30:20.024Z</time>
      </trkpt>
      <trkpt lat="45.00807" lon="5.38054">
        <ele>1160</ele>
        <time>2019-06-15T08:30:21.024Z</time>
      </trkpt>
      <trkpt lat="45.00807" lon="5.38049">
        <ele>1160</ele>
        <time>2019-06-15T08:30:22.024Z</time>
      </trkpt>
      <trkpt lat="45.00808" lon="5.38043">
        <ele>1162</ele>
        <time>2019-06-15T08:30:23.024Z</time>
      </trkpt>
      <trkpt lat="45.00809" lon="5.38038">
        <ele>1162</ele>
        <time>2019-06-15T08:30:24.024Z</time>
      </trkpt>
      <trkpt lat="45.0081" lon="5.38034">
        <ele>1163</ele>
        <time>2019-06-15T08:30:25.024Z</time>
      </trkpt>
      <trkpt lat="45.00811" lon="5.3803">
        <ele>1164</ele>
        <time>2019-06-15T08:30:26.024Z</time>
      </trkpt>
      <trkpt lat="45.00812" lon="5.38027">
        <ele>1164</ele>
        <time>2019-06-15T08:30:27.024Z</time>
      </trkpt>
      <trkpt lat="45.00813" lon="5.38022">
        <ele>1163</ele>
        <time>2019-06-15T08:30:28.024Z</time>
      </trkpt>
      <trkpt lat="45.00814" lon="5.38018">
        <ele>1162</ele>
        <time>2019-06-15T08:30:29.024Z</time>
      </trkpt>
      <trkpt lat="45.00815" lon="5.38013">
        <ele>1162</ele>
        <time>2019-06-15T08:30:30.024Z</time>
      </trkpt>
      <trkpt lat="45.00816" lon="5.38009">
        <ele>1160</ele>
        <time>2019-06-15T08:30:31.024Z</time>
      </trkpt>
      <trkpt lat="45.00817" lon="5.38005">
        <ele>1159</ele>
        <time>2019-06-15T08:30:32.024Z</time>
      </trkpt>
      <trkpt lat="45.00819" lon="5.38001">
        <ele>1158</ele>
        <time>2019-06-15T08:30:33.024Z</time>
      </trkpt>
      <trkpt lat="45.00821" lon="5.37997">
        <ele>1157</ele>
        <time>2019-06-15T08:30:34.024Z</time>
      </trkpt>
      <trkpt lat="45.00823" lon="5.37993">
        <ele>1157</ele>
        <time>2019-06-15T08:30:35.024Z</time>
      </trkpt>
      <trkpt lat="45.00825" lon="5.3799">
        <ele>1155</ele>
        <time>2019-06-15T08:30:36.024Z</time>
      </trkpt>
      <trkpt lat="45.00827" lon="5.37986">
        <ele>1155</ele>
        <time>2019-06-15T08:30:37.024Z</time>
      </trkpt>
      <trkpt lat="45.00829" lon="5.37982">
        <ele>1154</ele>
        <time>2019-06-15T08:30:38.024Z</time>
      </trkpt>
      <trkpt lat="45.00831" lon="5.37979">
        <ele>1153</ele>
        <time>2019-06-15T08:30:39.024Z</time>
      </trkpt>
      <trkpt lat="45.00832" lon="5.37975">
        <ele>1153</ele>
        <time>2019-06-15T08:30:40.024Z</time>
      </trkpt>
      <trkpt lat="45.00834" lon="5.37971">
        <ele>1152</ele>
        <time>2019-06-15T08:30:41.024Z</time>
      </trkpt>
      <trkpt lat="45.00835" lon="5.37968">
        <ele>1152</ele>
        <time>2019-06-15T08:30:42.024Z</time>
      </trkpt>
      <trkpt lat="45.00837" lon="5.37965">
        <ele>1151</ele>
        <time>2019-06-15T08:30:43.024Z</time>
      </trkpt>
      <trkpt lat="45.00838" lon="5.37962">
        <ele>1151</ele>
        <time>2019-06-15T08:30:44.024Z</time>
      </trkpt>
      <trkpt lat="45.00839" lon="5.37958">
        <ele>1151</ele>
        <time>2019-06-15T08:30:45.024Z</time>
      </trkpt>
      <trkpt lat="45.0084" lon="5.37954">
        <ele>1151</ele>
        <time>2019-06-15T08:30:46.024Z</time>
      </trkpt>
      <trkpt lat="45.00842" lon="5.37949">
        <ele>1151</ele>
        <time>2019-06-15T08:30:47.024Z</time>
      </trkpt>
      <trkpt lat="45.00844" lon="5.37945">
        <ele>1152</ele>
        <time>2019-06-15T08:30:48.024Z</time>
      </trkpt>
      <trkpt lat="45.00845" lon="5.37941">
        <ele>1153</ele>
        <time>2019-06-15T08:30:49.024Z</time>
      </trkpt>
      <trkpt lat="45.00847" lon="5.37938">
        <ele>1152</ele>
        <time>2019-06-15T08:30:50.024Z</time>
      </trkpt>
      <trkpt lat="45.00849" lon="5.37936">
        <ele>1151</ele>
        <time>2019-06-15T08:30:51.024Z</time>
      </trkpt>
      <trkpt lat="45.00851" lon="5.37933">
        <ele>1149</ele>
        <time>2019-06-15T08:30:52.024Z</time>
      </trkpt>
      <trkpt lat="45.00853" lon="5.37931">
        <ele>1148</ele>
        <time>2019-06-15T08:30:53.024Z</time>
      </trkpt>
      <trkpt lat="45.00856" lon="5.37928">
        <ele>1148</ele>
        <time>2019-06-15T08:30:54.024Z</time>
      </trkpt>
      <trkpt lat="45.00858" lon="5.37925">
        <ele>1150</ele>
        <time>2019-06-15T08:30:55.024Z</time>
      </trkpt>
      <trkpt lat="45.00861" lon="5.37921">
        <ele>1151</ele>
        <time>2019-06-15T08:30:56.024Z</time>
      </trkpt>
      <trkpt lat="45.00864" lon="5.37916">
        <ele>1153</ele>
        <time>2019-06-15T08:30:57.024Z</time>
      </trkpt>
      <trkpt lat="45.00867" lon="5.37912">
        <ele>1153</ele>
        <time>2019-06-15T08:30:58.024Z</time>
      </trkpt>
      <trkpt lat="45.00869" lon="5.37908">
        <ele>1152</ele>
        <time>2019-06-15T08:30:59.024Z</time>
      </trkpt>
      <trkpt lat="45.00871" lon="5.37904">
        <ele>1154</ele>
        <time>2019-06-15T08:31:00.024Z</time>
      </trkpt>
      <trkpt lat="45.00873" lon="5.379">
        <ele>1153</ele>
        <time>2019-06-15T08:31:01.024Z</time>
      </trkpt>
      <trkpt lat="45.00874" lon="5.37896">
        <ele>1152</ele>
        <time>2019-06-15T08:31:02.024Z</time>
      </trkpt>
      <trkpt lat="45.00875" lon="5.37892">
        <ele>1152</ele>
        <time>2019-06-15T08:31:03.024Z</time>
      </trkpt>
      <trkpt lat="45.00877" lon="5.37889">
        <ele>1153</ele>
        <time>2019-06-15T08:31:04.024Z</time>
      </trkpt>
      <trkpt lat="45.00878" lon="5.37885">
        <ele>1153</ele>
        <time>2019-06-15T08:31:05.024Z</time>
      </trkpt>
      <trkpt lat="45.00879" lon="5.37882">
        <ele>1154</ele>
        <time>2019-06-15T08:31:06.024Z</time>
      </trkpt>
      <trkpt lat="45.0088" lon="5.37879">
        <ele>1155</ele>
        <time>2019-06-15T08:31:07.024Z</time>
      </trkpt>
      <trkpt lat="45.00882" lon="5.37876">
        <ele>1156</ele>
        <time>2019-06-15T08:31:08.024Z</time>
      </trkpt>
      <trkpt lat="45.00883" lon="5.37873">
        <ele>1156</ele>
        <time>2019-06-15T08:31:09.024Z</time>
      </trkpt>
      <trkpt lat="45.00884" lon="5.37871">
        <ele>1156</ele>
        <time>2019-06-15T08:31:10.024Z</time>
      </trkpt>
      <trkpt lat="45.00886" lon="5.37868">
        <ele>1158</ele>
        <time>2019-06-15T08:31:11.024Z</time>
      </trkpt>
      <trkpt lat="45.00887" lon="5.37865">
        <ele>1158</ele>
        <time>2019-06-15T08:31:12.024Z</time>
      </trkpt>
      <trkpt lat="45.00888" lon="5.37862">
        <ele>1158</ele>
        <time>2019-06-15T08:31:13.024Z</time>
      </trkpt>
      <trkpt lat="45.00889" lon="5.37858">
        <ele>1158</ele>
        <time>2019-06-15T08:31:14.024Z</time>
      </trkpt>
      <trkpt lat="45.00889" lon="5.37855">
        <ele>1159</ele>
        <time>2019-06-15T08:31:15.024Z</time>
      </trkpt>
      <trkpt lat="45.00889" lon="5.37851">
        <ele>1159</ele>
        <time>2019-06-15T08:31:16.024Z</time>
      </trkpt>
      <trkpt lat="45.00889" lon="5.37847">
        <ele>1160</ele>
        <time>2019-06-15T08:31:17.024Z</time>
      </trkpt>
      <trkpt lat="45.00889" lon="5.37841">
        <ele>1163</ele>
        <time>2019-06-15T08:31:18.024Z</time>
      </trkpt>
      <trkpt lat="45.00889" lon="5.37836">
        <ele>1162</ele>
        <time>2019-06-15T08:31:19.024Z</time>
      </trkpt>
      <trkpt lat="45.00889" lon="5.37831">
        <ele>1163</ele>
        <time>2019-06-15T08:31:20.024Z</time>
      </trkpt>
      <trkpt lat="45.00888" lon="5.37827">
        <ele>1164</ele>
        <time>2019-06-15T08:31:21.024Z</time>
      </trkpt>
      <trkpt lat="45.00888" lon="5.37823">
        <ele>1164</ele>
        <time>2019-06-15T08:31:22.024Z</time>
      </trkpt>
      <trkpt lat="45.00888" lon="5.37819">
        <ele>1164</ele>
        <time>2019-06-15T08:31:23.024Z</time>
      </trkpt>
      <trkpt lat="45.00888" lon="5.37815">
        <ele>1163</ele>
        <time>2019-06-15T08:31:24.024Z</time>
      </trkpt>
      <trkpt lat="45.00888" lon="5.3781">
        <ele>1163</ele>
        <time>2019-06-15T08:31:25.024Z</time>
      </trkpt>
      <trkpt lat="45.00887" lon="5.37806">
        <ele>1163</ele>
        <time>2019-06-15T08:31:26.024Z</time>
      </trkpt>
      <trkpt lat="45.00886" lon="5.37802">
        <ele>1164</ele>
        <time>2019-06-15T08:31:27.024Z</time>
      </trkpt>
      <trkpt lat="45.00885" lon="5.37798">
        <ele>1163</ele>
        <time>2019-06-15T08:31:28.024Z</time>
      </trkpt>
      <trkpt lat="45.00885" lon="5.37794">
        <ele>1164</ele>
        <time>2019-06-15T08:31:29.024Z</time>
      </trkpt>
      <trkpt lat="45.00884" lon="5.3779">
        <ele>1165</ele>
        <time>2019-06-15T08:31:30.024Z</time>
      </trkpt>
      <trkpt lat="45.00884" lon="5.37786">
        <ele>1166</ele>
        <time>2019-06-15T08:31:31.024Z</time>
      </trkpt>
      <trkpt lat="45.00884" lon="5.37783">
        <ele>1166</ele>
        <time>2019-06-15T08:31:32.024Z</time>
      </trkpt>
      <trkpt lat="45.00886" lon="5.3778">
        <ele>1167</ele>
        <time>2019-06-15T08:31:33.024Z</time>
      </trkpt>
      <trkpt lat="45.00887" lon="5.37777">
        <ele>1166</ele>
        <time>2019-06-15T08:31:34.024Z</time>
      </trkpt>
      <trkpt lat="45.00888" lon="5.37775">
        <ele>1166</ele>
        <time>2019-06-15T08:31:35.024Z</time>
      </trkpt>
      <trkpt lat="45.0089" lon="5.37773">
        <ele>1166</ele>
        <time>2019-06-15T08:31:36.024Z</time>
      </trkpt>
      <trkpt lat="45.00893" lon="5.37772">
        <ele>1165</ele>
        <time>2019-06-15T08:31:37.024Z</time>
      </trkpt>
      <trkpt lat="45.00895" lon="5.37771">
        <ele>1165</ele>
        <time>2019-06-15T08:31:38.024Z</time>
      </trkpt>
      <trkpt lat="45.00897" lon="5.37769">
        <ele>1165</ele>
        <time>2019-06-15T08:31:39.024Z</time>
      </trkpt>
      <trkpt lat="45.009" lon="5.37768">
        <ele>1166</ele>
        <time>2019-06-15T08:31:40.024Z</time>
      </trkpt>
      <trkpt lat="45.00902" lon="5.37766">
        <ele>1166</ele>
        <time>2019-06-15T08:31:41.024Z</time>
      </trkpt>
      <trkpt lat="45.00903" lon="5.37764">
        <ele>1165</ele>
        <time>2019-06-15T08:31:42.024Z</time>
      </trkpt>
      <trkpt lat="45.00905" lon="5.37763">
        <ele>1166</ele>
        <time>2019-06-15T08:31:43.024Z</time>
      </trkpt>
      <trkpt lat="45.00907" lon="5.37761">
        <ele>1166</ele>
        <time>2019-06-15T08:31:44.024Z</time>
      </trkpt>
      <trkpt lat="45.00909" lon="5.3776">
        <ele>1166</ele>
        <time>2019-06-15T08:31:45.024Z</time>
      </trkpt>
      <trkpt lat="45.00911" lon="5.3776">
        <ele>1166</ele>
        <time>2019-06-15T08:31:46.024Z</time>
      </trkpt>
      <trkpt lat="45.00912" lon="5.37759">
        <ele>1165</ele>
        <time>2019-06-15T08:31:47.024Z</time>
      </trkpt>
      <trkpt lat="45.00914" lon="5.37759">
        <ele>1164</ele>
        <time>2019-06-15T08:31:48.024Z</time>
      </trkpt>
      <trkpt lat="45.00916" lon="5.37758">
        <ele>1165</ele>
        <time>2019-06-15T08:31:49.024Z</time>
      </trkpt>
      <trkpt lat="45.00919" lon="5.37758">
        <ele>1163</ele>
        <time>2019-06-15T08:31:50.024Z</time>
      </trkpt>
      <trkpt lat="45.00923" lon="5.37758">
        <ele>1161</ele>
        <time>2019-06-15T08:31:51.024Z</time>
      </trkpt>
      <trkpt lat="45.00926" lon="5.37759">
        <ele>1160</ele>
        <time>2019-06-15T08:31:52.024Z</time>
      </trkpt>
      <trkpt lat="45.00928" lon="5.3776">
        <ele>1158</ele>
        <time>2019-06-15T08:31:53.024Z</time>
      </trkpt>
      <trkpt lat="45.00931" lon="5.37761">
        <ele>1157</ele>
        <time>2019-06-15T08:31:54.024Z</time>
      </trkpt>
      <trkpt lat="45.00933" lon="5.37763">
        <ele>1157</ele>
        <time>2019-06-15T08:31:55.024Z</time>
      </trkpt>
      <trkpt lat="45.00936" lon="5.37764">
        <ele>1156</ele>
        <time>2019-06-15T08:31:56.024Z</time>
      </trkpt>
      <trkpt lat="45.00939" lon="5.37765">
        <ele>1156</ele>
        <time>2019-06-15T08:31:57.024Z</time>
      </trkpt>
      <trkpt lat="45.00942" lon="5.37767">
        <ele>1156</ele>
        <time>2019-06-15T08:31:58.024Z</time>
      </trkpt>
      <trkpt lat="45.00945" lon="5.37768">
        <ele>1156</ele>
        <time>2019-06-15T08:31:59.024Z</time>
      </trkpt>
      <trkpt lat="45.00948" lon="5.3777">
        <ele>1155</ele>
        <time>2019-06-15T08:32:00.024Z</time>
      </trkpt>
      <trkpt lat="45.0095" lon="5.37771">
        <ele>1156</ele>
        <time>2019-06-15T08:32:01.024Z</time>
      </trkpt>
      <trkpt lat="45.00952" lon="5.37772">
        <ele>1156</ele>
        <time>2019-06-15T08:32:02.024Z</time>
      </trkpt>
      <trkpt lat="45.00954" lon="5.37773">
        <ele>1156</ele>
        <time>2019-06-15T08:32:03.024Z</time>
      </trkpt>
      <trkpt lat="45.00957" lon="5.37773">
        <ele>1156</ele>
        <time>2019-06-15T08:32:04.024Z</time>
      </trkpt>
      <trkpt lat="45.00959" lon="5.37774">
        <ele>1155</ele>
        <time>2019-06-15T08:32:05.024Z</time>
      </trkpt>
      <trkpt lat="45.00962" lon="5.37774">
        <ele>1156</ele>
        <time>2019-06-15T08:32:06.024Z</time>
      </trkpt>
      <trkpt lat="45.00964" lon="5.37775">
        <ele>1156</ele>
        <time>2019-06-15T08:32:07.024Z</time>
      </trkpt>
      <trkpt lat="45.00967" lon="5.37775">
        <ele>1156</ele>
        <time>2019-06-15T08:32:08.024Z</time>
      </trkpt>
      <trkpt lat="45.0097" lon="5.37776">
        <ele>1156</ele>
        <time>2019-06-15T08:32:09.024Z</time>
      </trkpt>
      <trkpt lat="45.00973" lon="5.37776">
        <ele>1157</ele>
        <time>2019-06-15T08:32:10.024Z</time>
      </trkpt>
      <trkpt lat="45.00977" lon="5.37776">
        <ele>1158</ele>
        <time>2019-06-15T08:32:11.024Z</time>
      </trkpt>
      <trkpt lat="45.0098" lon="5.37775">
        <ele>1159</ele>
        <time>2019-06-15T08:32:12.024Z</time>
      </trkpt>
      <trkpt lat="45.00984" lon="5.37774">
        <ele>1160</ele>
        <time>2019-06-15T08:32:13.024Z</time>
      </trkpt>
      <trkpt lat="45.00988" lon="5.37773">
        <ele>1160</ele>
        <time>2019-06-15T08:32:14.024Z</time>
      </trkpt>
      <trkpt lat="45.00992" lon="5.37771">
        <ele>1160</ele>
        <time>2019-06-15T08:32:15.024Z</time>
      </trkpt>
      <trkpt lat="45.00995" lon="5.3777">
        <ele>1160</ele>
        <time>2019-06-15T08:32:16.024Z</time>
      </trkpt>
      <trkpt lat="45.00999" lon="5.37768">
        <ele>1160</ele>
        <time>2019-06-15T08:32:17.024Z</time>
      </trkpt>
      <trkpt lat="45.01001" lon="5.37766">
        <ele>1158</ele>
        <time>2019-06-15T08:32:18.024Z</time>
      </trkpt>
      <trkpt lat="45.01004" lon="5.37763">
        <ele>1158</ele>
        <time>2019-06-15T08:32:19.024Z</time>
      </trkpt>
      <trkpt lat="45.01007" lon="5.3776">
        <ele>1157</ele>
        <time>2019-06-15T08:32:20.024Z</time>
      </trkpt>
      <trkpt lat="45.01009" lon="5.37757">
        <ele>1156</ele>
        <time>2019-06-15T08:32:21.024Z</time>
      </trkpt>
      <trkpt lat="45.01012" lon="5.37754">
        <ele>1156</ele>
        <time>2019-06-15T08:32:22.024Z</time>
      </trkpt>
      <trkpt lat="45.01014" lon="5.37752">
        <ele>1155</ele>
        <time>2019-06-15T08:32:23.024Z</time>
      </trkpt>
      <trkpt lat="45.01016" lon="5.37748">
        <ele>1155</ele>
        <time>2019-06-15T08:32:24.024Z</time>
      </trkpt>
      <trkpt lat="45.01018" lon="5.37745">
        <ele>1156</ele>
        <time>2019-06-15T08:32:25.024Z</time>
      </trkpt>
      <trkpt lat="45.01021" lon="5.37741">
        <ele>1156</ele>
        <time>2019-06-15T08:32:26.024Z</time>
      </trkpt>
      <trkpt lat="45.01023" lon="5.37737">
        <ele>1156</ele>
        <time>2019-06-15T08:32:27.024Z</time>
      </trkpt>
      <trkpt lat="45.01025" lon="5.37733">
        <ele>1155</ele>
        <time>2019-06-15T08:32:28.024Z</time>
      </trkpt>
      <trkpt lat="45.01026" lon="5.37729">
        <ele>1154</ele>
        <time>2019-06-15T08:32:29.024Z</time>
      </trkpt>
      <trkpt lat="45.01027" lon="5.37725">
        <ele>1154</ele>
        <time>2019-06-15T08:32:30.024Z</time>
      </trkpt>
      <trkpt lat="45.01028" lon="5.37722">
        <ele>1154</ele>
        <time>2019-06-15T08:32:31.024Z</time>
      </trkpt>
      <trkpt lat="45.01029" lon="5.37718">
        <ele>1153</ele>
        <time>2019-06-15T08:32:32.024Z</time>
      </trkpt>
      <trkpt lat="45.0103" lon="5.37715">
        <ele>1152</ele>
        <time>2019-06-15T08:32:33.024Z</time>
      </trkpt>
      <trkpt lat="45.01031" lon="5.37712">
        <ele>1151</ele>
        <time>2019-06-15T08:32:34.024Z</time>
      </trkpt>
      <trkpt lat="45.01033" lon="5.37708">
        <ele>1153</ele>
        <time>2019-06-15T08:32:35.024Z</time>
      </trkpt>
      <trkpt lat="45.01034" lon="5.37705">
        <ele>1152</ele>
        <time>2019-06-15T08:32:36.024Z</time>
      </trkpt>
      <trkpt lat="45.01036" lon="5.37701">
        <ele>1152</ele>
        <time>2019-06-15T08:32:37.024Z</time>
      </trkpt>
      <trkpt lat="45.01037" lon="5.37698">
        <ele>1151</ele>
        <time>2019-06-15T08:32:38.024Z</time>
      </trkpt>
      <trkpt lat="45.01039" lon="5.37695">
        <ele>1150</ele>
        <time>2019-06-15T08:32:39.024Z</time>
      </trkpt>
      <trkpt lat="45.0104" lon="5.37691">
        <ele>1150</ele>
        <time>2019-06-15T08:32:40.024Z</time>
      </trkpt>
      <trkpt lat="45.01041" lon="5.37687">
        <ele>1149</ele>
        <time>2019-06-15T08:32:41.024Z</time>
      </trkpt>
      <trkpt lat="45.01042" lon="5.37683">
        <ele>1148</ele>
        <time>2019-06-15T08:32:42.024Z</time>
      </trkpt>
      <trkpt lat="45.01043" lon="5.37679">
        <ele>1147</ele>
        <time>2019-06-15T08:32:43.024Z</time>
      </trkpt>
      <trkpt lat="45.01043" lon="5.37675">
        <ele>1147</ele>
        <time>2019-06-15T08:32:44.024Z</time>
      </trkpt>
      <trkpt lat="45.01044" lon="5.37671">
        <ele>1146</ele>
        <time>2019-06-15T08:32:45.024Z</time>
      </trkpt>
      <trkpt lat="45.01045" lon="5.37667">
        <ele>1146</ele>
        <time>2019-06-15T08:32:46.024Z</time>
      </trkpt>
      <trkpt lat="45.01046" lon="5.37663">
        <ele>1144</ele>
        <time>2019-06-15T08:32:47.024Z</time>
      </trkpt>
      <trkpt lat="45.01047" lon="5.37659">
        <ele>1141</ele>
        <time>2019-06-15T08:32:48.024Z</time>
      </trkpt>
      <trkpt lat="45.01048" lon="5.37655">
        <ele>1140</ele>
        <time>2019-06-15T08:32:49.024Z</time>
      </trkpt>
      <trkpt lat="45.01048" lon="5.37652">
        <ele>1140</ele>
        <time>2019-06-15T08:32:50.024Z</time>
      </trkpt>
      <trkpt lat="45.01048" lon="5.37651">
        <ele>1139</ele>
        <time>2019-06-15T08:32:51.024Z</time>
      </trkpt>
      <trkpt lat="45.01049" lon="5.37651">
        <ele>1137</ele>
        <time>2019-06-15T08:32:52.024Z</time>
      </trkpt>
      <trkpt lat="45.01049" lon="5.37652">
        <ele>1136</ele>
        <time>2019-06-15T08:32:53.024Z</time>
      </trkpt>
      <trkpt lat="45.01049" lon="5.37653">
        <ele>1136</ele>
        <time>2019-06-15T08:32:54.024Z</time>
      </trkpt>
      <trkpt lat="45.01049" lon="5.37654">
        <ele>1135</ele>
        <time>2019-06-15T08:32:55.024Z</time>
      </trkpt>
      <trkpt lat="45.01049" lon="5.37656">
        <ele>1134</ele>
        <time>2019-06-15T08:32:56.024Z</time>
      </trkpt>
      <trkpt lat="45.01049" lon="5.37659">
        <ele>1133</ele>
        <time>2019-06-15T08:32:57.024Z</time>
      </trkpt>
      <trkpt lat="45.0105" lon="5.37661">
        <ele>1132</ele>
        <time>2019-06-15T08:32:58.024Z</time>
      </trkpt>
      <trkpt lat="45.01051" lon="5.37664">
        <ele>1131</ele>
        <time>2019-06-15T08:32:59.024Z</time>
      </trkpt>
      <trkpt lat="45.01052" lon="5.37666">
        <ele>1132</ele>
        <time>2019-06-15T08:33:00.024Z</time>
      </trkpt>
      <trkpt lat="45.01053" lon="5.37668">
        <ele>1132</ele>
        <time>2019-06-15T08:33:01.024Z</time>
      </trkpt>
      <trkpt lat="45.01054" lon="5.37671">
        <ele>1131</ele>
        <time>2019-06-15T08:33:02.024Z</time>
      </trkpt>
      <trkpt lat="45.01055" lon="5.37673">
        <ele>1128</ele>
        <time>2019-06-15T08:33:03.024Z</time>
      </trkpt>
      <trkpt lat="45.01057" lon="5.37675">
        <ele>1127</ele>
        <time>2019-06-15T08:33:04.024Z</time>
      </trkpt>
      <trkpt lat="45.0106" lon="5.37679">
        <ele>1126</ele>
        <time>2019-06-15T08:33:05.024Z</time>
      </trkpt>
      <trkpt lat="45.01062" lon="5.37682">
        <ele>1125</ele>
        <time>2019-06-15T08:33:06.024Z</time>
      </trkpt>
      <trkpt lat="45.01063" lon="5.37685">
        <ele>1126</ele>
        <time>2019-06-15T08:33:07.024Z</time>
      </trkpt>
      <trkpt lat="45.01065" lon="5.37688">
        <ele>1126</ele>
        <time>2019-06-15T08:33:08.024Z</time>
      </trkpt>
      <trkpt lat="45.01067" lon="5.37691">
        <ele>1126</ele>
        <time>2019-06-15T08:33:09.024Z</time>
      </trkpt>
      <trkpt lat="45.01069" lon="5.37694">
        <ele>1126</ele>
        <time>2019-06-15T08:33:10.024Z</time>
      </trkpt>
      <trkpt lat="45.0107" lon="5.37696">
        <ele>1125</ele>
        <time>2019-06-15T08:33:11.024Z</time>
      </trkpt>
      <trkpt lat="45.01072" lon="5.37698">
        <ele>1124</ele>
        <time>2019-06-15T08:33:12.024Z</time>
      </trkpt>
      <trkpt lat="45.01073" lon="5.37699">
        <ele>1122</ele>
        <time>2019-06-15T08:33:13.024Z</time>
      </trkpt>
      <trkpt lat="45.01074" lon="5.37699">
        <ele>1122</ele>
        <time>2019-06-15T08:33:14.024Z</time>
      </trkpt>
      <trkpt lat="45.01075" lon="5.37699">
        <ele>1121</ele>
        <time>2019-06-15T08:33:15.024Z</time>
      </trkpt>
      <trkpt lat="45.01076" lon="5.37698">
        <ele>1120</ele>
        <time>2019-06-15T08:33:16.024Z</time>
      </trkpt>
      <trkpt lat="45.01077" lon="5.37697">
        <ele>1118</ele>
        <time>2019-06-15T08:33:17.024Z</time>
      </trkpt>
      <trkpt lat="45.01077" lon="5.37695">
        <ele>1117</ele>
        <time>2019-06-15T08:33:18.024Z</time>
      </trkpt>
      <trkpt lat="45.01078" lon="5.37693">
        <ele>1116</ele>
        <time>2019-06-15T08:33:19.024Z</time>
      </trkpt>
      <trkpt lat="45.01079" lon="5.37691">
        <ele>1113</ele>
        <time>2019-06-15T08:33:20.024Z</time>
      </trkpt>
      <trkpt lat="45.0108" lon="5.37688">
        <ele>1113</ele>
        <time>2019-06-15T08:33:21.024Z</time>
      </trkpt>
      <trkpt lat="45.01081" lon="5.37686">
        <ele>1112</ele>
        <time>2019-06-15T08:33:22.024Z</time>
      </trkpt>
      <trkpt lat="45.01082" lon="5.37683">
        <ele>1111</ele>
        <time>2019-06-15T08:33:23.024Z</time>
      </trkpt>
      <trkpt lat="45.01082" lon="5.37681">
        <ele>1109</ele>
        <time>2019-06-15T08:33:24.024Z</time>
      </trkpt>
      <trkpt lat="45.01083" lon="5.37679">
        <ele>1107</ele>
        <time>2019-06-15T08:33:25.024Z</time>
      </trkpt>
      <trkpt lat="45.01083" lon="5.37676">
        <ele>1103</ele>
        <time>2019-06-15T08:33:26.024Z</time>
      </trkpt>
      <trkpt lat="45.01083" lon="5.37673">
        <ele>1103</ele>
        <time>2019-06-15T08:33:27.024Z</time>
      </trkpt>
      <trkpt lat="45.01083" lon="5.37669">
        <ele>1101</ele>
        <time>2019-06-15T08:33:28.024Z</time>
      </trkpt>
      <trkpt lat="45.01083" lon="5.37666">
        <ele>1100</ele>
        <time>2019-06-15T08:33:29.024Z</time>
      </trkpt>
      <trkpt lat="45.01083" lon="5.37663">
        <ele>1098</ele>
        <time>2019-06-15T08:33:30.024Z</time>
      </trkpt>
      <trkpt lat="45.01084" lon="5.37659">
        <ele>1096</ele>
        <time>2019-06-15T08:33:31.024Z</time>
      </trkpt>
      <trkpt lat="45.01084" lon="5.37656">
        <ele>1095</ele>
        <time>2019-06-15T08:33:32.024Z</time>
      </trkpt>
      <trkpt lat="45.01085" lon="5.37655">
        <ele>1095</ele>
        <time>2019-06-15T08:33:33.024Z</time>
      </trkpt>
      <trkpt lat="45.01085" lon="5.37655">
        <ele>1095</ele>
        <time>2019-06-15T08:33:34.024Z</time>
      </trkpt>
      <trkpt lat="45.01086" lon="5.37655">
        <ele>1094</ele>
        <time>2019-06-15T08:33:35.024Z</time>
      </trkpt>
      <trkpt lat="45.01087" lon="5.37657">
        <ele>1093</ele>
        <time>2019-06-15T08:33:36.024Z</time>
      </trkpt>
      <trkpt lat="45.01088" lon="5.37658">
        <ele>1093</ele>
        <time>2019-06-15T08:33:37.024Z</time>
      </trkpt>
      <trkpt lat="45.01089" lon="5.3766">
        <ele>1092</ele>
        <time>2019-06-15T08:33:38.024Z</time>
      </trkpt>
      <trkpt lat="45.0109" lon="5.37661">
        <ele>1091</ele>
        <time>2019-06-15T08:33:39.024Z</time>
      </trkpt>
      <trkpt lat="45.01091" lon="5.37661">
        <ele>1090</ele>
        <time>2019-06-15T08:33:40.024Z</time>
      </trkpt>
      <trkpt lat="45.01091" lon="5.3766">
        <ele>1089</ele>
        <time>2019-06-15T08:33:41.024Z</time>
      </trkpt>
      <trkpt lat="45.01092" lon="5.37657">
        <ele>1089</ele>
        <time>2019-06-15T08:33:42.024Z</time>
      </trkpt>
      <trkpt lat="45.01092" lon="5.37653">
        <ele>1087</ele>
        <time>2019-06-15T08:33:43.024Z</time>
      </trkpt>
      <trkpt lat="45.01093" lon="5.3765">
        <ele>1087</ele>
        <time>2019-06-15T08:33:44.024Z</time>
      </trkpt>
      <trkpt lat="45.01093" lon="5.37647">
        <ele>1085</ele>
        <time>2019-06-15T08:33:45.024Z</time>
      </trkpt>
      <trkpt lat="45.01094" lon="5.37644">
        <ele>1085</ele>
        <time>2019-06-15T08:33:46.024Z</time>
      </trkpt>
      <trkpt lat="45.01096" lon="5.37644">
        <ele>1084</ele>
        <time>2019-06-15T08:33:47.024Z</time>
      </trkpt>
      <trkpt lat="45.01097" lon="5.37644">
        <ele>1083</ele>
        <time>2019-06-15T08:33:48.024Z</time>
      </trkpt>
      <trkpt lat="45.01098" lon="5.37646">
        <ele>1083</ele>
        <time>2019-06-15T08:33:49.024Z</time>
      </trkpt>
      <trkpt lat="45.01099" lon="5.37648">
        <ele>1082</ele>
        <time>2019-06-15T08:33:50.024Z</time>
      </trkpt>
      <trkpt lat="45.011" lon="5.3765">
        <ele>1081</ele>
        <time>2019-06-15T08:33:51.024Z</time>
      </trkpt>
      <trkpt lat="45.01101" lon="5.37652">
        <ele>1081</ele>
        <time>2019-06-15T08:33:52.024Z</time>
      </trkpt>
      <trkpt lat="45.01102" lon="5.37654">
        <ele>1080</ele>
        <time>2019-06-15T08:33:53.024Z</time>
      </trkpt>
      <trkpt lat="45.01102" lon="5.37656">
        <ele>1079</ele>
        <time>2019-06-15T08:33:54.024Z</time>
      </trkpt>
      <trkpt lat="45.01103" lon="5.37658">
        <ele>1078</ele>
        <time>2019-06-15T08:33:55.024Z</time>
      </trkpt>
      <trkpt lat="45.01103" lon="5.37661">
        <ele>1079</ele>
        <time>2019-06-15T08:33:56.024Z</time>
      </trkpt>
      <trkpt lat="45.01104" lon="5.37664">
        <ele>1078</ele>
        <time>2019-06-15T08:33:57.024Z</time>
      </trkpt>
      <trkpt lat="45.01105" lon="5.37667">
        <ele>1078</ele>
        <time>2019-06-15T08:33:58.024Z</time>
      </trkpt>
      <trkpt lat="45.01105" lon="5.3767">
        <ele>1076</ele>
        <time>2019-06-15T08:33:59.024Z</time>
      </trkpt>
      <trkpt lat="45.01106" lon="5.37673">
        <ele>1075</ele>
        <time>2019-06-15T08:34:00.024Z</time>
      </trkpt>
      <trkpt lat="45.01107" lon="5.37676">
        <ele>1074</ele>
        <time>2019-06-15T08:34:01.024Z</time>
      </trkpt>
      <trkpt lat="45.01109" lon="5.37679">
        <ele>1074</ele>
        <time>2019-06-15T08:34:02.024Z</time>
      </trkpt>
      <trkpt lat="45.0111" lon="5.37681">
        <ele>1072</ele>
        <time>2019-06-15T08:34:03.024Z</time>
      </trkpt>
      <trkpt lat="45.01112" lon="5.37683">
        <ele>1071</ele>
        <time>2019-06-15T08:34:04.024Z</time>
      </trkpt>
      <trkpt lat="45.01113" lon="5.37686">
        <ele>1071</ele>
        <time>2019-06-15T08:34:05.024Z</time>
      </trkpt>
      <trkpt lat="45.01114" lon="5.37688">
        <ele>1069</ele>
        <time>2019-06-15T08:34:06.024Z</time>
      </trkpt>
      <trkpt lat="45.01116" lon="5.3769">
        <ele>1068</ele>
        <time>2019-06-15T08:34:07.024Z</time>
      </trkpt>
      <trkpt lat="45.01117" lon="5.37692">
        <ele>1068</ele>
        <time>2019-06-15T08:34:08.024Z</time>
      </trkpt>
      <trkpt lat="45.01119" lon="5.37694">
        <ele>1067</ele>
        <time>2019-06-15T08:34:09.024Z</time>
      </trkpt>
      <trkpt lat="45.01121" lon="5.37695">
        <ele>1065</ele>
        <time>2019-06-15T08:34:10.024Z</time>
      </trkpt>
      <trkpt lat="45.01123" lon="5.37697">
        <ele>1063</ele>
        <time>2019-06-15T08:34:11.024Z</time>
      </trkpt>
      <trkpt lat="45.01125" lon="5.377">
        <ele>1063</ele>
        <time>2019-06-15T08:34:12.024Z</time>
      </trkpt>
      <trkpt lat="45.01127" lon="5.37703">
        <ele>1063</ele>
        <time>2019-06-15T08:34:13.024Z</time>
      </trkpt>
      <trkpt lat="45.01129" lon="5.37706">
        <ele>1064</ele>
        <time>2019-06-15T08:34:14.024Z</time>
      </trkpt>
      <trkpt lat="45.01131" lon="5.37708">
        <ele>1062</ele>
        <time>2019-06-15T08:34:15.024Z</time>
      </trkpt>
      <trkpt lat="45.01132" lon="5.3771">
        <ele>1061</ele>
        <time>2019-06-15T08:34:16.024Z</time>
      </trkpt>
      <trkpt lat="45.01132" lon="5.37712">
        <ele>1059</ele>
        <time>2019-06-15T08:34:17.024Z</time>
      </trkpt>
      <trkpt lat="45.01133" lon="5.37714">
        <ele>1057</ele>
        <time>2019-06-15T08:34:18.024Z</time>
      </trkpt>
      <trkpt lat="45.01133" lon="5.37714">
        <ele>1057</ele>
        <time>2019-06-15T08:34:19.024Z</time>
      </trkpt>
      <trkpt lat="45.01133" lon="5.37715">
        <ele>1056</ele>
        <time>2019-06-15T08:34:20.024Z</time>
      </trkpt>
      <trkpt lat="45.01134" lon="5.37715">
        <ele>1056</ele>
        <time>2019-06-15T08:34:21.024Z</time>
      </trkpt>
      <trkpt lat="45.01134" lon="5.37717">
        <ele>1054</ele>
        <time>2019-06-15T08:34:22.024Z</time>
      </trkpt>
      <trkpt lat="45.01135" lon="5.37718">
        <ele>1054</ele>
        <time>2019-06-15T08:34:23.024Z</time>
      </trkpt>
      <trkpt lat="45.01135" lon="5.37719">
        <ele>1053</ele>
        <time>2019-06-15T08:34:24.024Z</time>
      </trkpt>
      <trkpt lat="45.01135" lon="5.37721">
        <ele>1053</ele>
        <time>2019-06-15T08:34:25.024Z</time>
      </trkpt>
      <trkpt lat="45.01134" lon="5.37722">
        <ele>1052</ele>
        <time>2019-06-15T08:34:26.024Z</time>
      </trkpt>
      <trkpt lat="45.01134" lon="5.37724">
        <ele>1050</ele>
        <time>2019-06-15T08:34:27.024Z</time>
      </trkpt>
      <trkpt lat="45.01134" lon="5.37726">
        <ele>1049</ele>
        <time>2019-06-15T08:34:28.024Z</time>
      </trkpt>
      <trkpt lat="45.01134" lon="5.37727">
        <ele>1048</ele>
        <time>2019-06-15T08:34:29.024Z</time>
      </trkpt>
      <trkpt lat="45.01134" lon="5.37728">
        <ele>1048</ele>
        <time>2019-06-15T08:34:30.024Z</time>
      </trkpt>
      <trkpt lat="45.01133" lon="5.3773">
        <ele>1048</ele>
        <time>2019-06-15T08:34:31.024Z</time>
      </trkpt>
      <trkpt lat="45.01132" lon="5.37732">
        <ele>1048</ele>
        <time>2019-06-15T08:34:32.024Z</time>
      </trkpt>
      <trkpt lat="45.01132" lon="5.37735">
        <ele>1047</ele>
        <time>2019-06-15T08:34:33.024Z</time>
      </trkpt>
      <trkpt lat="45.01131" lon="5.37737">
        <ele>1045</ele>
        <time>2019-06-15T08:34:34.024Z</time>
      </trkpt>
      <trkpt lat="45.0113" lon="5.37738">
        <ele>1044</ele>
        <time>2019-06-15T08:34:35.024Z</time>
      </trkpt>
      <trkpt lat="45.01129" lon="5.3774">
        <ele>1042</ele>
        <time>2019-06-15T08:34:36.024Z</time>
      </trkpt>
      <trkpt lat="45.01128" lon="5.37742">
        <ele>1040</ele>
        <time>2019-06-15T08:34:37.024Z</time>
      </trkpt>
      <trkpt lat="45.01126" lon="5.37744">
        <ele>1039</ele>
        <time>2019-06-15T08:34:38.024Z</time>
      </trkpt>
      <trkpt lat="45.01125" lon="5.37746">
        <ele>1038</ele>
        <time>2019-06-15T08:34:39.024Z</time>
      </trkpt>
      <trkpt lat="45.01123" lon="5.37748">
        <ele>1039</ele>
        <time>2019-06-15T08:34:40.024Z</time>
      </trkpt>
      <trkpt lat="45.01121" lon="5.3775">
        <ele>1038</ele>
        <time>2019-06-15T08:34:41.024Z</time>
      </trkpt>
      <trkpt lat="45.0112" lon="5.37751">
        <ele>1037</ele>
        <time>2019-06-15T08:34:42.024Z</time>
      </trkpt>
      <trkpt lat="45.0112" lon="5.37753">
        <ele>1035</ele>
        <time>2019-06-15T08:34:43.024Z</time>
      </trkpt>
      <trkpt lat="45.0112" lon="5.37755">
        <ele>1035</ele>
        <time>2019-06-15T08:34:44.024Z</time>
      </trkpt>
      <trkpt lat="45.01119" lon="5.37758">
        <ele>1033</ele>
        <time>2019-06-15T08:34:45.024Z</time>
      </trkpt>
      <trkpt lat="45.01118" lon="5.37759">
        <ele>1032</ele>
        <time>2019-06-15T08:34:46.024Z</time>
      </trkpt>
      <trkpt lat="45.01118" lon="5.37761">
        <ele>1032</ele>
        <time>2019-06-15T08:34:47.024Z</time>
      </trkpt>
      <trkpt lat="45.01117" lon="5.37763">
        <ele>1031</ele>
        <time>2019-06-15T08:34:48.024Z</time>
      </trkpt>
      <trkpt lat="45.01117" lon="5.37765">
        <ele>1030</ele>
        <time>2019-06-15T08:34:49.024Z</time>
      </trkpt>
      <trkpt lat="45.01116" lon="5.37766">
        <ele>1029</ele>
        <time>2019-06-15T08:34:50.024Z</time>
      </trkpt>
      <trkpt lat="45.01117" lon="5.37768">
        <ele>1029</ele>
        <time>2019-06-15T08:34:51.024Z</time>
      </trkpt>
      <trkpt lat="45.01117" lon="5.3777">
        <ele>1028</ele>
        <time>2019-06-15T08:34:52.024Z</time>
      </trkpt>
      <trkpt lat="45.01118" lon="5.37771">
        <ele>1029</ele>
        <time>2019-06-15T08:34:53.024Z</time>
      </trkpt>
      <trkpt lat="45.01118" lon="5.37773">
        <ele>1029</ele>
        <time>2019-06-15T08:34:54.024Z</time>
      </trkpt>
      <trkpt lat="45.01119" lon="5.37775">
        <ele>1028</ele>
        <time>2019-06-15T08:34:55.024Z</time>
      </trkpt>
      <trkpt lat="45.01119" lon="5.37777">
        <ele>1028</ele>
        <time>2019-06-15T08:34:56.024Z</time>
      </trkpt>
      <trkpt lat="45.0112" lon="5.3778">
        <ele>1028</ele>
        <time>2019-06-15T08:34:57.024Z</time>
      </trkpt>
      <trkpt lat="45.01121" lon="5.37783">
        <ele>1028</ele>
        <time>2019-06-15T08:34:58.024Z</time>
      </trkpt>
      <trkpt lat="45.01122" lon="5.37786">
        <ele>1029</ele>
        <time>2019-06-15T08:34:59.024Z</time>
      </trkpt>
      <trkpt lat="45.01123" lon="5.37789">
        <ele>1030</ele>
        <time>2019-06-15T08:35:00.024Z</time>
      </trkpt>
      <trkpt lat="45.01124" lon="5.37792">
        <ele>1031</ele>
        <time>2019-06-15T08:35:01.024Z</time>
      </trkpt>
      <trkpt lat="45.01126" lon="5.37795">
        <ele>1030</ele>
        <time>2019-06-15T08:35:02.024Z</time>
      </trkpt>
      <trkpt lat="45.01127" lon="5.37798">
        <ele>1030</ele>
        <time>2019-06-15T08:35:03.024Z</time>
      </trkpt>
      <trkpt lat="45.01129" lon="5.37802">
        <ele>1031</ele>
        <time>2019-06-15T08:35:04.024Z</time>
      </trkpt>
      <trkpt lat="45.0113" lon="5.37805">
        <ele>1031</ele>
        <time>2019-06-15T08:35:05.024Z</time>
      </trkpt>
      <trkpt lat="45.01132" lon="5.37807">
        <ele>1030</ele>
        <time>2019-06-15T08:35:06.024Z</time>
      </trkpt>
      <trkpt lat="45.01134" lon="5.37809">
        <ele>1031</ele>
        <time>2019-06-15T08:35:07.024Z</time>
      </trkpt>
      <trkpt lat="45.01136" lon="5.37811">
        <ele>1031</ele>
        <time>2019-06-15T08:35:08.024Z</time>
      </trkpt>
      <trkpt lat="45.01138" lon="5.37813">
        <ele>1030</ele>
        <time>2019-06-15T08:35:09.024Z</time>
      </trkpt>
      <trkpt lat="45.01139" lon="5.37816">
        <ele>1031</ele>
        <time>2019-06-15T08:35:10.024Z</time>
      </trkpt>
      <trkpt lat="45.0114" lon="5.37818">
        <ele>1031</ele>
        <time>2019-06-15T08:35:11.024Z</time>
      </trkpt>
      <trkpt lat="45.01141" lon="5.3782">
        <ele>1031</ele>
        <time>2019-06-15T08:35:12.024Z</time>
      </trkpt>
      <trkpt lat="45.01142" lon="5.37822">
        <ele>1030</ele>
        <time>2019-06-15T08:35:13.024Z</time>
      </trkpt>
      <trkpt lat="45.01143" lon="5.37824">
        <ele>1029</ele>
        <time>2019-06-15T08:35:14.024Z</time>
      </trkpt>
      <trkpt lat="45.01145" lon="5.37826">
        <ele>1029</ele>
        <time>2019-06-15T08:35:15.024Z</time>
      </trkpt>
      <trkpt lat="45.01148" lon="5.37829">
        <ele>1028</ele>
        <time>2019-06-15T08:35:16.024Z</time>
      </trkpt>
      <trkpt lat="45.0115" lon="5.37832">
        <ele>1027</ele>
        <time>2019-06-15T08:35:17.024Z</time>
      </trkpt>
      <trkpt lat="45.01152" lon="5.37836">
        <ele>1028</ele>
        <time>2019-06-15T08:35:18.024Z</time>
      </trkpt>
      <trkpt lat="45.01154" lon="5.37839">
        <ele>1027</ele>
        <time>2019-06-15T08:35:19.024Z</time>
      </trkpt>
      <trkpt lat="45.01155" lon="5.37842">
        <ele>1025</ele>
        <time>2019-06-15T08:35:20.024Z</time>
      </trkpt>
      <trkpt lat="45.01156" lon="5.37845">
        <ele>1025</ele>
        <time>2019-06-15T08:35:21.024Z</time>
      </trkpt>
      <trkpt lat="45.01157" lon="5.37847">
        <ele>1023</ele>
        <time>2019-06-15T08:35:22.024Z</time>
      </trkpt>
      <trkpt lat="45.01158" lon="5.3785">
        <ele>1023</ele>
        <time>2019-06-15T08:35:23.024Z</time>
      </trkpt>
      <trkpt lat="45.0116" lon="5.37852">
        <ele>1023</ele>
        <time>2019-06-15T08:35:24.024Z</time>
      </trkpt>
      <trkpt lat="45.0116" lon="5.37855">
        <ele>1021</ele>
        <time>2019-06-15T08:35:25.024Z</time>
      </trkpt>
      <trkpt lat="45.01161" lon="5.37857">
        <ele>1020</ele>
        <time>2019-06-15T08:35:26.024Z</time>
      </trkpt>
      <trkpt lat="45.01161" lon="5.37858">
        <ele>1019</ele>
        <time>2019-06-15T08:35:27.024Z</time>
      </trkpt>
      <trkpt lat="45.01162" lon="5.3786">
        <ele>1018</ele>
        <time>2019-06-15T08:35:28.024Z</time>
      </trkpt>
      <trkpt lat="45.01162" lon="5.3786">
        <ele>1017</ele>
        <time>2019-06-15T08:35:29.024Z</time>
      </trkpt>
      <trkpt lat="45.01162" lon="5.3786">
        <ele>1015</ele>
        <time>2019-06-15T08:35:30.024Z</time>
      </trkpt>
      <trkpt lat="45.01162" lon="5.37859">
        <ele>1014</ele>
        <time>2019-06-15T08:35:31.024Z</time>
      </trkpt>
      <trkpt lat="45.01162" lon="5.37859">
        <ele>1012</ele>
        <time>2019-06-15T08:35:32.024Z</time>
      </trkpt>
      <trkpt lat="45.01162" lon="5.37859">
        <ele>1011</ele>
        <time>2019-06-15T08:35:33.024Z</time>
      </trkpt>
      <trkpt lat="45.01163" lon="5.37859">
        <ele>1010</ele>
        <time>2019-06-15T08:35:34.024Z</time>
      </trkpt>
      <trkpt lat="45.01164" lon="5.3786">
        <ele>1008</ele>
        <time>2019-06-15T08:35:35.024Z</time>
      </trkpt>
      <trkpt lat="45.01165" lon="5.37861">
        <ele>1007</ele>
        <time>2019-06-15T08:35:36.024Z</time>
      </trkpt>
      <trkpt lat="45.01166" lon="5.37862">
        <ele>1006</ele>
        <time>2019-06-15T08:35:37.024Z</time>
      </trkpt>
      <trkpt lat="45.01167" lon="5.37864">
        <ele>1005</ele>
        <time>2019-06-15T08:35:38.024Z</time>
      </trkpt>
      <trkpt lat="45.01168" lon="5.37865">
        <ele>1004</ele>
        <time>2019-06-15T08:35:39.024Z</time>
      </trkpt>
      <trkpt lat="45.01168" lon="5.37866">
        <ele>1003</ele>
        <time>2019-06-15T08:35:40.024Z</time>
      </trkpt>
      <trkpt lat="45.01169" lon="5.37868">
        <ele>1001</ele>
        <time>2019-06-15T08:35:41.024Z</time>
      </trkpt>
      <trkpt lat="45.0117" lon="5.37869">
        <ele>999</ele>
        <time>2019-06-15T08:35:42.024Z</time>
      </trkpt>
      <trkpt lat="45.01171" lon="5.3787">
        <ele>998</ele>
        <time>2019-06-15T08:35:43.024Z</time>
      </trkpt>
      <trkpt lat="45.01172" lon="5.37871">
        <ele>996</ele>
        <time>2019-06-15T08:35:44.024Z</time>
      </trkpt>
      <trkpt lat="45.01173" lon="5.37871">
        <ele>994</ele>
        <time>2019-06-15T08:35:45.024Z</time>
      </trkpt>
      <trkpt lat="45.01173" lon="5.3787">
        <ele>993</ele>
        <time>2019-06-15T08:35:46.024Z</time>
      </trkpt>
      <trkpt lat="45.01174" lon="5.37869">
        <ele>992</ele>
        <time>2019-06-15T08:35:47.024Z</time>
      </trkpt>
      <trkpt lat="45.01175" lon="5.37868">
        <ele>992</ele>
        <time>2019-06-15T08:35:48.024Z</time>
      </trkpt>
      <trkpt lat="45.01177" lon="5.37867">
        <ele>991</ele>
        <time>2019-06-15T08:35:49.024Z</time>
      </trkpt>
      <trkpt lat="45.01178" lon="5.37865">
        <ele>990</ele>
        <time>2019-06-15T08:35:50.024Z</time>
      </trkpt>
      <trkpt lat="45.01179" lon="5.37864">
        <ele>989</ele>
        <time>2019-06-15T08:35:51.024Z</time>
      </trkpt>
      <trkpt lat="45.0118" lon="5.37864">
        <ele>987</ele>
        <time>2019-06-15T08:35:52.024Z</time>
      </trkpt>
      <trkpt lat="45.01181" lon="5.37864">
        <ele>986</ele>
        <time>2019-06-15T08:35:53.024Z</time>
      </trkpt>
      <trkpt lat="45.01183" lon="5.37864">
        <ele>985</ele>
        <time>2019-06-15T08:35:54.024Z</time>
      </trkpt>
      <trkpt lat="45.01185" lon="5.37866">
        <ele>984</ele>
        <time>2019-06-15T08:35:55.024Z</time>
      </trkpt>
      <trkpt lat="45.01186" lon="5.37867">
        <ele>984</ele>
        <time>2019-06-15T08:35:56.024Z</time>
      </trkpt>
      <trkpt lat="45.01187" lon="5.37869">
        <ele>984</ele>
        <time>2019-06-15T08:35:57.024Z</time>
      </trkpt>
      <trkpt lat="45.01188" lon="5.3787">
        <ele>983</ele>
        <time>2019-06-15T08:35:58.024Z</time>
      </trkpt>
      <trkpt lat="45.01189" lon="5.37871">
        <ele>982</ele>
        <time>2019-06-15T08:35:59.024Z</time>
      </trkpt>
      <trkpt lat="45.0119" lon="5.37871">
        <ele>981</ele>
        <time>2019-06-15T08:36:00.024Z</time>
      </trkpt>
      <trkpt lat="45.01192" lon="5.37872">
        <ele>981</ele>
        <time>2019-06-15T08:36:01.024Z</time>
      </trkpt>
      <trkpt lat="45.01193" lon="5.37873">
        <ele>981</ele>
        <time>2019-06-15T08:36:02.024Z</time>
      </trkpt>
      <trkpt lat="45.01194" lon="5.37873">
        <ele>980</ele>
        <time>2019-06-15T08:36:03.024Z</time>
      </trkpt>
      <trkpt lat="45.01195" lon="5.37874">
        <ele>980</ele>
        <time>2019-06-15T08:36:04.024Z</time>
      </trkpt>
      <trkpt lat="45.01197" lon="5.37874">
        <ele>979</ele>
        <time>2019-06-15T08:36:05.024Z</time>
      </trkpt>
      <trkpt lat="45.01198" lon="5.37874">
        <ele>979</ele>
        <time>2019-06-15T08:36:06.024Z</time>
      </trkpt>
      <trkpt lat="45.01199" lon="5.37873">
        <ele>979</ele>
        <time>2019-06-15T08:36:07.024Z</time>
      </trkpt>
      <trkpt lat="45.01199" lon="5.37871">
        <ele>978</ele>
        <time>2019-06-15T08:36:08.024Z</time>
      </trkpt>
      <trkpt lat="45.01199" lon="5.37869">
        <ele>977</ele>
        <time>2019-06-15T08:36:09.024Z</time>
      </trkpt>
      <trkpt lat="45.012" lon="5.37868">
        <ele>977</ele>
        <time>2019-06-15T08:36:10.024Z</time>
      </trkpt>
      <trkpt lat="45.012" lon="5.37866">
        <ele>976</ele>
        <time>2019-06-15T08:36:11.024Z</time>
      </trkpt>
      <trkpt lat="45.012" lon="5.37864">
        <ele>975</ele>
        <time>2019-06-15T08:36:12.024Z</time>
      </trkpt>
      <trkpt lat="45.01201" lon="5.37862">
        <ele>974</ele>
        <time>2019-06-15T08:36:13.024Z</time>
      </trkpt>
      <trkpt lat="45.01202" lon="5.3786">
        <ele>974</ele>
        <time>2019-06-15T08:36:14.024Z</time>
      </trkpt>
      <trkpt lat="45.01203" lon="5.37858">
        <ele>973</ele>
        <time>2019-06-15T08:36:15.024Z</time>
      </trkpt>
      <trkpt lat="45.01203" lon="5.37856">
        <ele>972</ele>
        <time>2019-06-15T08:36:16.024Z</time>
      </trkpt>
      <trkpt lat="45.01203" lon="5.37854">
        <ele>970</ele>
        <time>2019-06-15T08:36:17.024Z</time>
      </trkpt>
      <trkpt lat="45.01203" lon="5.37853">
        <ele>969</ele>
        <time>2019-06-15T08:36:18.024Z</time>
      </trkpt>
      <trkpt lat="45.01202" lon="5.37852">
        <ele>968</ele>
        <time>2019-06-15T08:36:19.024Z</time>
      </trkpt>
      <trkpt lat="45.01201" lon="5.37851">
        <ele>966</ele>
        <time>2019-06-15T08:36:20.024Z</time>
      </trkpt>
      <trkpt lat="45.01201" lon="5.3785">
        <ele>965</ele>
        <time>2019-06-15T08:36:21.024Z</time>
      </trkpt>
      <trkpt lat="45.012" lon="5.37849">
        <ele>964</ele>
        <time>2019-06-15T08:36:22.024Z</time>
      </trkpt>
      <trkpt lat="45.01201" lon="5.37848">
        <ele>964</ele>
        <time>2019-06-15T08:36:23.024Z</time>
      </trkpt>
      <trkpt lat="45.01201" lon="5.37848">
        <ele>963</ele>
        <time>2019-06-15T08:36:24.024Z</time>
      </trkpt>
      <trkpt lat="45.01202" lon="5.37848">
        <ele>962</ele>
        <time>2019-06-15T08:36:25.024Z</time>
      </trkpt>
      <trkpt lat="45.01203" lon="5.37849">
        <ele>963</ele>
        <time>2019-06-15T08:36:26.024Z</time>
      </trkpt>
      <trkpt lat="45.01203" lon="5.37849">
        <ele>961</ele>
        <time>2019-06-15T08:36:27.024Z</time>
      </trkpt>
      <trkpt lat="45.01204" lon="5.3785">
        <ele>960</ele>
        <time>2019-06-15T08:36:28.024Z</time>
      </trkpt>
      <trkpt lat="45.01205" lon="5.37851">
        <ele>961</ele>
        <time>2019-06-15T08:36:29.024Z</time>
      </trkpt>
      <trkpt lat="45.01205" lon="5.37851">
        <ele>961</ele>
        <time>2019-06-15T08:36:30.024Z</time>
      </trkpt>
      <trkpt lat="45.01206" lon="5.37852">
        <ele>960</ele>
        <time>2019-06-15T08:36:31.024Z</time>
      </trkpt>
      <trkpt lat="45.01208" lon="5.37853">
        <ele>960</ele>
        <time>2019-06-15T08:36:32.024Z</time>
      </trkpt>
      <trkpt lat="45.01209" lon="5.37853">
        <ele>959</ele>
        <time>2019-06-15T08:36:33.024Z</time>
      </trkpt>
      <trkpt lat="45.01211" lon="5.37854">
        <ele>959</ele>
        <time>2019-06-15T08:36:34.024Z</time>
      </trkpt>
      <trkpt lat="45.01212" lon="5.37856">
        <ele>958</ele>
        <time>2019-06-15T08:36:35.024Z</time>
      </trkpt>
      <trkpt lat="45.01213" lon="5.37857">
        <ele>958</ele>
        <time>2019-06-15T08:36:36.024Z</time>
      </trkpt>
      <trkpt lat="45.01214" lon="5.37859">
        <ele>957</ele>
        <time>2019-06-15T08:36:37.024Z</time>
      </trkpt>
      <trkpt lat="45.01216" lon="5.3786">
        <ele>958</ele>
        <time>2019-06-15T08:36:38.024Z</time>
      </trkpt>
      <trkpt lat="45.01217" lon="5.37862">
        <ele>957</ele>
        <time>2019-06-15T08:36:39.024Z</time>
      </trkpt>
      <trkpt lat="45.01219" lon="5.37863">
        <ele>956</ele>
        <time>2019-06-15T08:36:40.024Z</time>
      </trkpt>
      <trkpt lat="45.0122" lon="5.37864">
        <ele>955</ele>
        <time>2019-06-15T08:36:41.024Z</time>
      </trkpt>
      <trkpt lat="45.01222" lon="5.37866">
        <ele>954</ele>
        <time>2019-06-15T08:36:42.024Z</time>
      </trkpt>
      <trkpt lat="45.01224" lon="5.37868">
        <ele>954</ele>
        <time>2019-06-15T08:36:43.024Z</time>
      </trkpt>
      <trkpt lat="45.01226" lon="5.37869">
        <ele>954</ele>
        <time>2019-06-15T08:36:44.024Z</time>
      </trkpt>
      <trkpt lat="45.01227" lon="5.37871">
        <ele>953</ele>
        <time>2019-06-15T08:36:45.024Z</time>
      </trkpt>
      <trkpt lat="45.01228" lon="5.37872">
        <ele>952</ele>
        <time>2019-06-15T08:36:46.024Z</time>
      </trkpt>
      <trkpt lat="45.01229" lon="5.37874">
        <ele>951</ele>
        <time>2019-06-15T08:36:47.024Z</time>
      </trkpt>
      <trkpt lat="45.0123" lon="5.37876">
        <ele>950</ele>
        <time>2019-06-15T08:36:48.024Z</time>
      </trkpt>
      <trkpt lat="45.01231" lon="5.37878">
        <ele>950</ele>
        <time>2019-06-15T08:36:49.024Z</time>
      </trkpt>
      <trkpt lat="45.01232" lon="5.3788">
        <ele>949</ele>
        <time>2019-06-15T08:36:50.024Z</time>
      </trkpt>
      <trkpt lat="45.01234" lon="5.37884">
        <ele>947</ele>
        <time>2019-06-15T08:36:51.024Z</time>
      </trkpt>
      <trkpt lat="45.01236" lon="5.37887">
        <ele>946</ele>
        <time>2019-06-15T08:36:52.024Z</time>
      </trkpt>
      <trkpt lat="45.01238" lon="5.3789">
        <ele>947</ele>
        <time>2019-06-15T08:36:53.024Z</time>
      </trkpt>
      <trkpt lat="45.0124" lon="5.37892">
        <ele>946</ele>
        <time>2019-06-15T08:36:54.024Z</time>
      </trkpt>
      <trkpt lat="45.01242" lon="5.37895">
        <ele>946</ele>
        <time>2019-06-15T08:36:55.024Z</time>
      </trkpt>
      <trkpt lat="45.01243" lon="5.37896">
        <ele>945</ele>
        <time>2019-06-15T08:36:56.024Z</time>
      </trkpt>
      <trkpt lat="45.01244" lon="5.37897">
        <ele>944</ele>
        <time>2019-06-15T08:36:57.024Z</time>
      </trkpt>
      <trkpt lat="45.01246" lon="5.37897">
        <ele>942</ele>
        <time>2019-06-15T08:36:58.024Z</time>
      </trkpt>
      <trkpt lat="45.01246" lon="5.37897">
        <ele>941</ele>
        <time>2019-06-15T08:36:59.024Z</time>
      </trkpt>
      <trkpt lat="45.01247" lon="5.37896">
        <ele>941</ele>
        <time>2019-06-15T08:37:00.024Z</time>
      </trkpt>
      <trkpt lat="45.01247" lon="5.37896">
        <ele>940</ele>
        <time>2019-06-15T08:37:01.024Z</time>
      </trkpt>
      <trkpt lat="45.01248" lon="5.37895">
        <ele>939</ele>
        <time>2019-06-15T08:37:02.024Z</time>
      </trkpt>
      <trkpt lat="45.01249" lon="5.37894">
        <ele>937</ele>
        <time>2019-06-15T08:37:03.024Z</time>
      </trkpt>
      <trkpt lat="45.01249" lon="5.37894">
        <ele>936</ele>
        <time>2019-06-15T08:37:04.024Z</time>
      </trkpt>
      <trkpt lat="45.01249" lon="5.37893">
        <ele>935</ele>
        <time>2019-06-15T08:37:05.024Z</time>
      </trkpt>
      <trkpt lat="45.0125" lon="5.37892">
        <ele>934</ele>
        <time>2019-06-15T08:37:06.024Z</time>
      </trkpt>
      <trkpt lat="45.01251" lon="5.3789">
        <ele>931</ele>
        <time>2019-06-15T08:37:07.024Z</time>
      </trkpt>
      <trkpt lat="45.01252" lon="5.37888">
        <ele>929</ele>
        <time>2019-06-15T08:37:08.024Z</time>
      </trkpt>
      <trkpt lat="45.01253" lon="5.37885">
        <ele>929</ele>
        <time>2019-06-15T08:37:09.024Z</time>
      </trkpt>
      <trkpt lat="45.01253" lon="5.37883">
        <ele>928</ele>
        <time>2019-06-15T08:37:10.024Z</time>
      </trkpt>
      <trkpt lat="45.01253" lon="5.3788">
        <ele>926</ele>
        <time>2019-06-15T08:37:11.024Z</time>
      </trkpt>
      <trkpt lat="45.01253" lon="5.37878">
        <ele>925</ele>
        <time>2019-06-15T08:37:12.024Z</time>
      </trkpt>
      <trkpt lat="45.01253" lon="5.37875">
        <ele>924</ele>
        <time>2019-06-15T08:37:13.024Z</time>
      </trkpt>
      <trkpt lat="45.01254" lon="5.37873">
        <ele>923</ele>
        <time>2019-06-15T08:37:14.024Z</time>
      </trkpt>
      <trkpt lat="45.01254" lon="5.37871">
        <ele>923</ele>
        <time>2019-06-15T08:37:15.024Z</time>
      </trkpt>
      <trkpt lat="45.01255" lon="5.37869">
        <ele>922</ele>
        <time>2019-06-15T08:37:16.024Z</time>
      </trkpt>
      <trkpt lat="45.01256" lon="5.37867">
        <ele>921</ele>
        <time>2019-06-15T08:37:17.024Z</time>
      </trkpt>
      <trkpt lat="45.01257" lon="5.37864">
        <ele>921</ele>
        <time>2019-06-15T08:37:18.024Z</time>
      </trkpt>
      <trkpt lat="45.01257" lon="5.37862">
        <ele>920</ele>
        <time>2019-06-15T08:37:19.024Z</time>
      </trkpt>
      <trkpt lat="45.01258" lon="5.37859">
        <ele>920</ele>
        <time>2019-06-15T08:37:20.024Z</time>
      </trkpt>
      <trkpt lat="45.01258" lon="5.37857">
        <ele>920</ele>
        <time>2019-06-15T08:37:21.024Z</time>
      </trkpt>
      <trkpt lat="45.01258" lon="5.37854">
        <ele>920</ele>
        <time>2019-06-15T08:37:22.024Z</time>
      </trkpt>
      <trkpt lat="45.01259" lon="5.37852">
        <ele>920</ele>
        <time>2019-06-15T08:37:23.024Z</time>
      </trkpt>
      <trkpt lat="45.0126" lon="5.3785">
        <ele>919</ele>
        <time>2019-06-15T08:37:24.024Z</time>
      </trkpt>
      <trkpt lat="45.01261" lon="5.37847">
        <ele>920</ele>
        <time>2019-06-15T08:37:25.024Z</time>
      </trkpt>
      <trkpt lat="45.01261" lon="5.37844">
        <ele>920</ele>
        <time>2019-06-15T08:37:26.024Z</time>
      </trkpt>
      <trkpt lat="45.01262" lon="5.37842">
        <ele>919</ele>
        <time>2019-06-15T08:37:27.024Z</time>
      </trkpt>
      <trkpt lat="45.01262" lon="5.3784">
        <ele>917</ele>
        <time>2019-06-15T08:37:28.024Z</time>
      </trkpt>
      <trkpt lat="45.01262" lon="5.37838">
        <ele>913</ele>
        <time>2019-06-15T08:37:29.024Z</time>
      </trkpt>
      <trkpt lat="45.01263" lon="5.37836">
        <ele>912</ele>
        <time>2019-06-15T08:37:30.024Z</time>
      </trkpt>
      <trkpt lat="45.01263" lon="5.37834">
        <ele>911</ele>
        <time>2019-06-15T08:37:31.024Z</time>
      </trkpt>
      <trkpt lat="45.01264" lon="5.37833">
        <ele>911</ele>
        <time>2019-06-15T08:37:32.024Z</time>
      </trkpt>
      <trkpt lat="45.01265" lon="5.37832">
        <ele>910</ele>
        <time>2019-06-15T08:37:33.024Z</time>
      </trkpt>
      <trkpt lat="45.01266" lon="5.37832">
        <ele>911</ele>
        <time>2019-06-15T08:37:34.024Z</time>
      </trkpt>
      <trkpt lat="45.01268" lon="5.37831">
        <ele>911</ele>
        <time>2019-06-15T08:37:35.024Z</time>
      </trkpt>
      <trkpt lat="45.01269" lon="5.37832">
        <ele>911</ele>
        <time>2019-06-15T08:37:36.024Z</time>
      </trkpt>
      <trkpt lat="45.0127" lon="5.37833">
        <ele>911</ele>
        <time>2019-06-15T08:37:37.024Z</time>
      </trkpt>
      <trkpt lat="45.01271" lon="5.37834">
        <ele>911</ele>
        <time>2019-06-15T08:37:38.024Z</time>
      </trkpt>
      <trkpt lat="45.01272" lon="5.37835">
        <ele>911</ele>
        <time>2019-06-15T08:37:39.024Z</time>
      </trkpt>
      <trkpt lat="45.01273" lon="5.37837">
        <ele>913</ele>
        <time>2019-06-15T08:37:40.024Z</time>
      </trkpt>
      <trkpt lat="45.01275" lon="5.37838">
        <ele>912</ele>
        <time>2019-06-15T08:37:41.024Z</time>
      </trkpt>
      <trkpt lat="45.01277" lon="5.3784">
        <ele>911</ele>
        <time>2019-06-15T08:37:42.024Z</time>
      </trkpt>
      <trkpt lat="45.01278" lon="5.37841">
        <ele>910</ele>
        <time>2019-06-15T08:37:43.024Z</time>
      </trkpt>
      <trkpt lat="45.01279" lon="5.37841">
        <ele>910</ele>
        <time>2019-06-15T08:37:44.024Z</time>
      </trkpt>
      <trkpt lat="45.01281" lon="5.37842">
        <ele>910</ele>
        <time>2019-06-15T08:37:45.024Z</time>
      </trkpt>
      <trkpt lat="45.01282" lon="5.37843">
        <ele>910</ele>
        <time>2019-06-15T08:37:46.024Z</time>
      </trkpt>
      <trkpt lat="45.01283" lon="5.37843">
        <ele>909</ele>
        <time>2019-06-15T08:37:47.024Z</time>
      </trkpt>
      <trkpt lat="45.01285" lon="5.37844">
        <ele>909</ele>
        <time>2019-06-15T08:37:48.024Z</time>
      </trkpt>
      <trkpt lat="45.01286" lon="5.37844">
        <ele>909</ele>
        <time>2019-06-15T08:37:49.024Z</time>
      </trkpt>
      <trkpt lat="45.01287" lon="5.37843">
        <ele>908</ele>
        <time>2019-06-15T08:37:50.024Z</time>
      </trkpt>
      <trkpt lat="45.01289" lon="5.37842">
        <ele>907</ele>
        <time>2019-06-15T08:37:51.024Z</time>
      </trkpt>
      <trkpt lat="45.01289" lon="5.37842">
        <ele>906</ele>
        <time>2019-06-15T08:37:52.024Z</time>
      </trkpt>
      <trkpt lat="45.01289" lon="5.37841">
        <ele>905</ele>
        <time>2019-06-15T08:37:53.024Z</time>
      </trkpt>
      <trkpt lat="45.0129" lon="5.3784">
        <ele>904</ele>
        <time>2019-06-15T08:37:54.024Z</time>
      </trkpt>
      <trkpt lat="45.01291" lon="5.37839">
        <ele>903</ele>
        <time>2019-06-15T08:37:55.024Z</time>
      </trkpt>
      <trkpt lat="45.01292" lon="5.37837">
        <ele>902</ele>
        <time>2019-06-15T08:37:56.024Z</time>
      </trkpt>
      <trkpt lat="45.01292" lon="5.37836">
        <ele>902</ele>
        <time>2019-06-15T08:37:57.024Z</time>
      </trkpt>
      <trkpt lat="45.01293" lon="5.37834">
        <ele>901</ele>
        <time>2019-06-15T08:37:58.024Z</time>
      </trkpt>
      <trkpt lat="45.01293" lon="5.37833">
        <ele>899</ele>
        <time>2019-06-15T08:37:59.024Z</time>
      </trkpt>
      <trkpt lat="45.01294" lon="5.37831">
        <ele>898</ele>
        <time>2019-06-15T08:38:00.024Z</time>
      </trkpt>
      <trkpt lat="45.01295" lon="5.3783">
        <ele>898</ele>
        <time>2019-06-15T08:38:01.024Z</time>
      </trkpt>
      <trkpt lat="45.01295" lon="5.37828">
        <ele>897</ele>
        <time>2019-06-15T08:38:02.024Z</time>
      </trkpt>
      <trkpt lat="45.01296" lon="5.37827">
        <ele>896</ele>
        <time>2019-06-15T08:38:03.024Z</time>
      </trkpt>
      <trkpt lat="45.01296" lon="5.37825">
        <ele>896</ele>
        <time>2019-06-15T08:38:04.024Z</time>
      </trkpt>
      <trkpt lat="45.01297" lon="5.37823">
        <ele>894</ele>
        <time>2019-06-15T08:38:05.024Z</time>
      </trkpt>
      <trkpt lat="45.01297" lon="5.37821">
        <ele>894</ele>
        <time>2019-06-15T08:38:06.024Z</time>
      </trkpt>
      <trkpt lat="45.01298" lon="5.37819">
        <ele>893</ele>
        <time>2019-06-15T08:38:07.024Z</time>
      </trkpt>
      <trkpt lat="45.01298" lon="5.37817">
        <ele>893</ele>
        <time>2019-06-15T08:38:08.024Z</time>
      </trkpt>
      <trkpt lat="45.01299" lon="5.37816">
        <ele>893</ele>
        <time>2019-06-15T08:38:09.024Z</time>
      </trkpt>
      <trkpt lat="45.013" lon="5.37815">
        <ele>891</ele>
        <time>2019-06-15T08:38:10.024Z</time>
      </trkpt>
      <trkpt lat="45.01301" lon="5.37815">
        <ele>890</ele>
        <time>2019-06-15T08:38:11.024Z</time>
      </trkpt>
      <trkpt lat="45.01303" lon="5.37816">
        <ele>888</ele>
        <time>2019-06-15T08:38:12.024Z</time>
      </trkpt>
      <trkpt lat="45.01304" lon="5.37818">
        <ele>887</ele>
        <time>2019-06-15T08:38:13.024Z</time>
      </trkpt>
      <trkpt lat="45.01305" lon="5.37819">
        <ele>886</ele>
        <time>2019-06-15T08:38:14.024Z</time>
      </trkpt>
      <trkpt lat="45.01306" lon="5.37821">
        <ele>883</ele>
        <time>2019-06-15T08:38:15.024Z</time>
      </trkpt>
      <trkpt lat="45.01307" lon="5.37823">
        <ele>883</ele>
        <time>2019-06-15T08:38:16.024Z</time>
      </trkpt>
      <trkpt lat="45.01307" lon="5.37824">
        <ele>882</ele>
        <time>2019-06-15T08:38:17.024Z</time>
      </trkpt>
      <trkpt lat="45.01308" lon="5.37824">
        <ele>880</ele>
        <time>2019-06-15T08:38:18.024Z</time>
      </trkpt>
      <trkpt lat="45.0131" lon="5.37824">
        <ele>879</ele>
        <time>2019-06-15T08:38:19.024Z</time>
      </trkpt>
      <trkpt lat="45.01311" lon="5.37823">
        <ele>878</ele>
        <time>2019-06-15T08:38:20.024Z</time>
      </trkpt>
      <trkpt lat="45.01311" lon="5.37821">
        <ele>877</ele>
        <time>2019-06-15T08:38:21.024Z</time>
      </trkpt>
      <trkpt lat="45.01312" lon="5.37819">
        <ele>876</ele>
        <time>2019-06-15T08:38:22.024Z</time>
      </trkpt>
      <trkpt lat="45.01312" lon="5.37818">
        <ele>875</ele>
        <time>2019-06-15T08:38:23.024Z</time>
      </trkpt>
      <trkpt lat="45.01312" lon="5.37816">
        <ele>874</ele>
        <time>2019-06-15T08:38:24.024Z</time>
      </trkpt>
      <trkpt lat="45.01313" lon="5.37813">
        <ele>873</ele>
        <time>2019-06-15T08:38:25.024Z</time>
      </trkpt>
      <trkpt lat="45.01313" lon="5.37811">
        <ele>872</ele>
        <time>2019-06-15T08:38:26.024Z</time>
      </trkpt>
      <trkpt lat="45.01313" lon="5.37809">
        <ele>870</ele>
        <time>2019-06-15T08:38:27.024Z</time>
      </trkpt>
      <trkpt lat="45.01314" lon="5.37807">
        <ele>868</ele>
        <time>2019-06-15T08:38:28.024Z</time>
      </trkpt>
      <trkpt lat="45.01314" lon="5.37806">
        <ele>868</ele>
        <time>2019-06-15T08:38:29.024Z</time>
      </trkpt>
      <trkpt lat="45.01315" lon="5.37805">
        <ele>867</ele>
        <time>2019-06-15T08:38:30.024Z</time>
      </trkpt>
      <trkpt lat="45.01316" lon="5.37806">
        <ele>866</ele>
        <time>2019-06-15T08:38:31.024Z</time>
      </trkpt>
      <trkpt lat="45.01318" lon="5.37806">
        <ele>866</ele>
        <time>2019-06-15T08:38:32.024Z</time>
      </trkpt>
      <trkpt lat="45.01319" lon="5.37807">
        <ele>866</ele>
        <time>2019-06-15T08:38:33.024Z</time>
      </trkpt>
      <trkpt lat="45.01321" lon="5.37807">
        <ele>865</ele>
        <time>2019-06-15T08:38:34.024Z</time>
      </trkpt>
      <trkpt lat="45.01322" lon="5.37809">
        <ele>863</ele>
        <time>2019-06-15T08:38:35.024Z</time>
      </trkpt>
      <trkpt lat="45.01323" lon="5.3781">
        <ele>862</ele>
        <time>2019-06-15T08:38:36.024Z</time>
      </trkpt>
      <trkpt lat="45.01325" lon="5.37812">
        <ele>862</ele>
        <time>2019-06-15T08:38:37.024Z</time>
      </trkpt>
      <trkpt lat="45.01327" lon="5.37813">
        <ele>862</ele>
        <time>2019-06-15T08:38:38.024Z</time>
      </trkpt>
      <trkpt lat="45.01329" lon="5.37813">
        <ele>862</ele>
        <time>2019-06-15T08:38:39.024Z</time>
      </trkpt>
      <trkpt lat="45.01331" lon="5.37814">
        <ele>861</ele>
        <time>2019-06-15T08:38:40.024Z</time>
      </trkpt>
      <trkpt lat="45.01332" lon="5.37815">
        <ele>861</ele>
        <time>2019-06-15T08:38:41.024Z</time>
      </trkpt>
      <trkpt lat="45.01334" lon="5.37816">
        <ele>860</ele>
        <time>2019-06-15T08:38:42.024Z</time>
      </trkpt>
      <trkpt lat="45.01335" lon="5.37817">
        <ele>860</ele>
        <time>2019-06-15T08:38:43.024Z</time>
      </trkpt>
      <trkpt lat="45.01337" lon="5.37817">
        <ele>858</ele>
        <time>2019-06-15T08:38:44.024Z</time>
      </trkpt>
      <trkpt lat="45.01338" lon="5.37816">
        <ele>857</ele>
        <time>2019-06-15T08:38:45.024Z</time>
      </trkpt>
      <trkpt lat="45.01338" lon="5.37816">
        <ele>856</ele>
        <time>2019-06-15T08:38:46.024Z</time>
      </trkpt>
      <trkpt lat="45.01339" lon="5.37815">
        <ele>855</ele>
        <time>2019-06-15T08:38:47.024Z</time>
      </trkpt>
      <trkpt lat="45.0134" lon="5.37814">
        <ele>855</ele>
        <time>2019-06-15T08:38:48.024Z</time>
      </trkpt>
      <trkpt lat="45.01342" lon="5.37815">
        <ele>855</ele>
        <time>2019-06-15T08:38:49.024Z</time>
      </trkpt>
      <trkpt lat="45.01343" lon="5.37815">
        <ele>854</ele>
        <time>2019-06-15T08:38:50.024Z</time>
      </trkpt>
      <trkpt lat="45.01344" lon="5.37816">
        <ele>855</ele>
        <time>2019-06-15T08:38:51.024Z</time>
      </trkpt>
      <trkpt lat="45.01346" lon="5.37817">
        <ele>855</ele>
        <time>2019-06-15T08:38:52.024Z</time>
      </trkpt>
      <trkpt lat="45.01348" lon="5.37816">
        <ele>853</ele>
        <time>2019-06-15T08:38:53.024Z</time>
      </trkpt>
      <trkpt lat="45.01349" lon="5.37815">
        <ele>852</ele>
        <time>2019-06-15T08:38:54.024Z</time>
      </trkpt>
      <trkpt lat="45.0135" lon="5.37814">
        <ele>851</ele>
        <time>2019-06-15T08:38:55.024Z</time>
      </trkpt>
      <trkpt lat="45.0135" lon="5.37813">
        <ele>848</ele>
        <time>2019-06-15T08:38:56.024Z</time>
      </trkpt>
      <trkpt lat="45.0135" lon="5.37811">
        <ele>848</ele>
        <time>2019-06-15T08:38:57.024Z</time>
      </trkpt>
      <trkpt lat="45.0135" lon="5.37809">
        <ele>845</ele>
        <time>2019-06-15T08:38:58.024Z</time>
      </trkpt>
      <trkpt lat="45.01351" lon="5.37807">
        <ele>844</ele>
        <time>2019-06-15T08:38:59.024Z</time>
      </trkpt>
      <trkpt lat="45.01352" lon="5.37805">
        <ele>843</ele>
        <time>2019-06-15T08:39:00.024Z</time>
      </trkpt>
      <trkpt lat="45.01353" lon="5.37803">
        <ele>842</ele>
        <time>2019-06-15T08:39:01.024Z</time>
      </trkpt>
      <trkpt lat="45.01353" lon="5.37801">
        <ele>840</ele>
        <time>2019-06-15T08:39:02.024Z</time>
      </trkpt>
      <trkpt lat="45.01354" lon="5.37799">
        <ele>840</ele>
        <time>2019-06-15T08:39:03.024Z</time>
      </trkpt>
      <trkpt lat="45.01356" lon="5.37799">
        <ele>837</ele>
        <time>2019-06-15T08:39:04.024Z</time>
      </trkpt>
      <trkpt lat="45.01357" lon="5.37799">
        <ele>837</ele>
        <time>2019-06-15T08:39:05.024Z</time>
      </trkpt>
      <trkpt lat="45.01358" lon="5.378">
        <ele>837</ele>
        <time>2019-06-15T08:39:06.024Z</time>
      </trkpt>
      <trkpt lat="45.01359" lon="5.378">
        <ele>836</ele>
        <time>2019-06-15T08:39:07.024Z</time>
      </trkpt>
      <trkpt lat="45.0136" lon="5.37802">
        <ele>836</ele>
        <time>2019-06-15T08:39:08.024Z</time>
      </trkpt>
      <trkpt lat="45.01362" lon="5.37804">
        <ele>837</ele>
        <time>2019-06-15T08:39:09.024Z</time>
      </trkpt>
      <trkpt lat="45.01362" lon="5.37806">
        <ele>836</ele>
        <time>2019-06-15T08:39:10.024Z</time>
      </trkpt>
      <trkpt lat="45.01363" lon="5.37808">
        <ele>836</ele>
        <time>2019-06-15T08:39:11.024Z</time>
      </trkpt>
      <trkpt lat="45.01364" lon="5.3781">
        <ele>835</ele>
        <time>2019-06-15T08:39:12.024Z</time>
      </trkpt>
      <trkpt lat="45.01365" lon="5.37813">
        <ele>836</ele>
        <time>2019-06-15T08:39:13.024Z</time>
      </trkpt>
      <trkpt lat="45.01366" lon="5.37816">
        <ele>836</ele>
        <time>2019-06-15T08:39:14.024Z</time>
      </trkpt>
      <trkpt lat="45.01367" lon="5.37819">
        <ele>836</ele>
        <time>2019-06-15T08:39:15.024Z</time>
      </trkpt>
      <trkpt lat="45.01368" lon="5.37822">
        <ele>836</ele>
        <time>2019-06-15T08:39:16.024Z</time>
      </trkpt>
      <trkpt lat="45.01369" lon="5.37824">
        <ele>837</ele>
        <time>2019-06-15T08:39:17.024Z</time>
      </trkpt>
      <trkpt lat="45.01372" lon="5.37827">
        <ele>835</ele>
        <time>2019-06-15T08:39:18.024Z</time>
      </trkpt>
      <trkpt lat="45.01374" lon="5.3783">
        <ele>834</ele>
        <time>2019-06-15T08:39:19.024Z</time>
      </trkpt>
      <trkpt lat="45.01376" lon="5.37832">
        <ele>834</ele>
        <time>2019-06-15T08:39:20.024Z</time>
      </trkpt>
      <trkpt lat="45.01377" lon="5.37835">
        <ele>834</ele>
        <time>2019-06-15T08:39:21.024Z</time>
      </trkpt>
      <trkpt lat="45.01379" lon="5.37838">
        <ele>833</ele>
        <time>2019-06-15T08:39:22.024Z</time>
      </trkpt>
      <trkpt lat="45.0138" lon="5.37841">
        <ele>832</ele>
        <time>2019-06-15T08:39:23.024Z</time>
      </trkpt>
      <trkpt lat="45.01381" lon="5.37843">
        <ele>831</ele>
        <time>2019-06-15T08:39:24.024Z</time>
      </trkpt>
      <trkpt lat="45.01381" lon="5.37846">
        <ele>831</ele>
        <time>2019-06-15T08:39:25.024Z</time>
      </trkpt>
      <trkpt lat="45.01382" lon="5.37849">
        <ele>830</ele>
        <time>2019-06-15T08:39:26.024Z</time>
      </trkpt>
      <trkpt lat="45.01383" lon="5.37851">
        <ele>830</ele>
        <time>2019-06-15T08:39:27.024Z</time>
      </trkpt>
      <trkpt lat="45.01384" lon="5.37854">
        <ele>830</ele>
        <time>2019-06-15T08:39:28.024Z</time>
      </trkpt>
      <trkpt lat="45.01386" lon="5.37856">
        <ele>830</ele>
        <time>2019-06-15T08:39:29.024Z</time>
      </trkpt>
      <trkpt lat="45.01387" lon="5.37858">
        <ele>830</ele>
        <time>2019-06-15T08:39:30.024Z</time>
      </trkpt>
      <trkpt lat="45.01388" lon="5.3786">
        <ele>829</ele>
        <time>2019-06-15T08:39:31.024Z</time>
      </trkpt>
      <trkpt lat="45.01389" lon="5.37862">
        <ele>828</ele>
        <time>2019-06-15T08:39:32.024Z</time>
      </trkpt>
      <trkpt lat="45.0139" lon="5.37864">
        <ele>827</ele>
        <time>2019-06-15T08:39:33.024Z</time>
      </trkpt>
      <trkpt lat="45.01391" lon="5.37866">
        <ele>827</ele>
        <time>2019-06-15T08:39:34.024Z</time>
      </trkpt>
      <trkpt lat="45.01391" lon="5.37867">
        <ele>826</ele>
        <time>2019-06-15T08:39:35.024Z</time>
      </trkpt>
      <trkpt lat="45.01392" lon="5.37868">
        <ele>825</ele>
        <time>2019-06-15T08:39:36.024Z</time>
      </trkpt>
      <trkpt lat="45.01392" lon="5.37868">
        <ele>824</ele>
        <time>2019-06-15T08:39:37.024Z</time>
      </trkpt>
      <trkpt lat="45.01392" lon="5.37868">
        <ele>823</ele>
        <time>2019-06-15T08:39:38.024Z</time>
      </trkpt>
      <trkpt lat="45.01393" lon="5.37867">
        <ele>822</ele>
        <time>2019-06-15T08:39:39.024Z</time>
      </trkpt>
      <trkpt lat="45.01394" lon="5.37866">
        <ele>821</ele>
        <time>2019-06-15T08:39:40.024Z</time>
      </trkpt>
      <trkpt lat="45.01396" lon="5.37865">
        <ele>819</ele>
        <time>2019-06-15T08:39:41.024Z</time>
      </trkpt>
      <trkpt lat="45.01397" lon="5.37864">
        <ele>818</ele>
        <time>2019-06-15T08:39:42.024Z</time>
      </trkpt>
      <trkpt lat="45.01398" lon="5.37862">
        <ele>818</ele>
        <time>2019-06-15T08:39:43.024Z</time>
      </trkpt>
      <trkpt lat="45.01399" lon="5.37861">
        <ele>817</ele>
        <time>2019-06-15T08:39:44.024Z</time>
      </trkpt>
      <trkpt lat="45.01401" lon="5.3786">
        <ele>816</ele>
        <time>2019-06-15T08:39:45.024Z</time>
      </trkpt>
      <trkpt lat="45.01403" lon="5.37858">
        <ele>816</ele>
        <time>2019-06-15T08:39:46.024Z</time>
      </trkpt>
      <trkpt lat="45.01405" lon="5.37856">
        <ele>815</ele>
        <time>2019-06-15T08:39:47.024Z</time>
      </trkpt>
      <trkpt lat="45.01406" lon="5.37855">
        <ele>815</ele>
        <time>2019-06-15T08:39:48.024Z</time>
      </trkpt>
      <trkpt lat="45.01408" lon="5.37853">
        <ele>816</ele>
        <time>2019-06-15T08:39:49.024Z</time>
      </trkpt>
      <trkpt lat="45.0141" lon="5.37852">
        <ele>815</ele>
        <time>2019-06-15T08:39:50.024Z</time>
      </trkpt>
      <trkpt lat="45.01412" lon="5.37852">
        <ele>814</ele>
        <time>2019-06-15T08:39:51.024Z</time>
      </trkpt>
      <trkpt lat="45.01414" lon="5.37853">
        <ele>813</ele>
        <time>2019-06-15T08:39:52.024Z</time>
      </trkpt>
      <trkpt lat="45.01416" lon="5.37854">
        <ele>813</ele>
        <time>2019-06-15T08:39:53.024Z</time>
      </trkpt>
      <trkpt lat="45.01416" lon="5.37855">
        <ele>812</ele>
        <time>2019-06-15T08:39:54.024Z</time>
      </trkpt>
      <trkpt lat="45.01417" lon="5.37857">
        <ele>811</ele>
        <time>2019-06-15T08:39:55.024Z</time>
      </trkpt>
      <trkpt lat="45.01418" lon="5.37859">
        <ele>811</ele>
        <time>2019-06-15T08:39:56.024Z</time>
      </trkpt>
      <trkpt lat="45.01419" lon="5.37861">
        <ele>810</ele>
        <time>2019-06-15T08:39:57.024Z</time>
      </trkpt>
      <trkpt lat="45.0142" lon="5.37863">
        <ele>808</ele>
        <time>2019-06-15T08:39:58.024Z</time>
      </trkpt>
      <trkpt lat="45.01421" lon="5.37865">
        <ele>807</ele>
        <time>2019-06-15T08:39:59.024Z</time>
      </trkpt>
      <trkpt lat="45.01422" lon="5.37867">
        <ele>807</ele>
        <time>2019-06-15T08:40:00.024Z</time>
      </trkpt>
      <trkpt lat="45.01423" lon="5.37869">
        <ele>805</ele>
        <time>2019-06-15T08:40:01.024Z</time>
      </trkpt>
      <trkpt lat="45.01425" lon="5.37869">
        <ele>805</ele>
        <time>2019-06-15T08:40:02.024Z</time>
      </trkpt>
      <trkpt lat="45.01426" lon="5.3787">
        <ele>804</ele>
        <time>2019-06-15T08:40:03.024Z</time>
      </trkpt>
      <trkpt lat="45.01427" lon="5.3787">
        <ele>802</ele>
        <time>2019-06-15T08:40:04.024Z</time>
      </trkpt>
      <trkpt lat="45.01428" lon="5.3787">
        <ele>801</ele>
        <time>2019-06-15T08:40:05.024Z</time>
      </trkpt>
      <trkpt lat="45.01428" lon="5.37869">
        <ele>800</ele>
        <time>2019-06-15T08:40:06.024Z</time>
      </trkpt>
      <trkpt lat="45.01429" lon="5.37868">
        <ele>800</ele>
        <time>2019-06-15T08:40:07.024Z</time>
      </trkpt>
      <trkpt lat="45.0143" lon="5.37867">
        <ele>799</ele>
        <time>2019-06-15T08:40:08.024Z</time>
      </trkpt>
      <trkpt lat="45.01432" lon="5.37866">
        <ele>797</ele>
        <time>2019-06-15T08:40:09.024Z</time>
      </trkpt>
      <trkpt lat="45.01433" lon="5.37864">
        <ele>796</ele>
        <time>2019-06-15T08:40:10.024Z</time>
      </trkpt>
      <trkpt lat="45.01434" lon="5.37862">
        <ele>796</ele>
        <time>2019-06-15T08:40:11.024Z</time>
      </trkpt>
      <trkpt lat="45.01435" lon="5.37861">
        <ele>796</ele>
        <time>2019-06-15T08:40:12.024Z</time>
      </trkpt>
      <trkpt lat="45.01436" lon="5.37861">
        <ele>796</ele>
        <time>2019-06-15T08:40:13.024Z</time>
      </trkpt>
      <trkpt lat="45.01437" lon="5.37862">
        <ele>797</ele>
        <time>2019-06-15T08:40:14.024Z</time>
      </trkpt>
      <trkpt lat="45.01437" lon="5.37863">
        <ele>797</ele>
        <time>2019-06-15T08:40:15.024Z</time>
      </trkpt>
      <trkpt lat="45.01438" lon="5.37864">
        <ele>797</ele>
        <time>2019-06-15T08:40:16.024Z</time>
      </trkpt>
      <trkpt lat="45.01438" lon="5.37865">
        <ele>796</ele>
        <time>2019-06-15T08:40:17.024Z</time>
      </trkpt>
      <trkpt lat="45.01439" lon="5.37866">
        <ele>796</ele>
        <time>2019-06-15T08:40:18.024Z</time>
      </trkpt>
      <trkpt lat="45.0144" lon="5.37868">
        <ele>795</ele>
        <time>2019-06-15T08:40:19.024Z</time>
      </trkpt>
      <trkpt lat="45.01441" lon="5.3787">
        <ele>793</ele>
        <time>2019-06-15T08:40:20.024Z</time>
      </trkpt>
      <trkpt lat="45.01442" lon="5.37872">
        <ele>791</ele>
        <time>2019-06-15T08:40:21.024Z</time>
      </trkpt>
      <trkpt lat="45.01443" lon="5.37875">
        <ele>791</ele>
        <time>2019-06-15T08:40:22.024Z</time>
      </trkpt>
      <trkpt lat="45.01442" lon="5.37877">
        <ele>790</ele>
        <time>2019-06-15T08:40:23.024Z</time>
      </trkpt>
      <trkpt lat="45.01442" lon="5.3788">
        <ele>789</ele>
        <time>2019-06-15T08:40:24.024Z</time>
      </trkpt>
      <trkpt lat="45.01443" lon="5.37882">
        <ele>787</ele>
        <time>2019-06-15T08:40:25.024Z</time>
      </trkpt>
      <trkpt lat="45.01443" lon="5.37884">
        <ele>786</ele>
        <time>2019-06-15T08:40:26.024Z</time>
      </trkpt>
      <trkpt lat="45.01443" lon="5.37886">
        <ele>787</ele>
        <time>2019-06-15T08:40:27.024Z</time>
      </trkpt>
      <trkpt lat="45.01444" lon="5.37888">
        <ele>787</ele>
        <time>2019-06-15T08:40:28.024Z</time>
      </trkpt>
      <trkpt lat="45.01445" lon="5.37888">
        <ele>786</ele>
        <time>2019-06-15T08:40:29.024Z</time>
      </trkpt>
      <trkpt lat="45.01446" lon="5.37888">
        <ele>786</ele>
        <time>2019-06-15T08:40:30.024Z</time>
      </trkpt>
      <trkpt lat="45.01448" lon="5.37888">
        <ele>784</ele>
        <time>2019-06-15T08:40:31.024Z</time>
      </trkpt>
      <trkpt lat="45.0145" lon="5.37887">
        <ele>783</ele>
        <time>2019-06-15T08:40:32.024Z</time>
      </trkpt>
      <trkpt lat="45.01451" lon="5.37885">
        <ele>782</ele>
        <time>2019-06-15T08:40:33.024Z</time>
      </trkpt>
      <trkpt lat="45.01453" lon="5.37884">
        <ele>782</ele>
        <time>2019-06-15T08:40:34.024Z</time>
      </trkpt>
      <trkpt lat="45.01454" lon="5.37882">
        <ele>781</ele>
        <time>2019-06-15T08:40:35.024Z</time>
      </trkpt>
      <trkpt lat="45.01456" lon="5.37881">
        <ele>780</ele>
        <time>2019-06-15T08:40:36.024Z</time>
      </trkpt>
      <trkpt lat="45.01457" lon="5.37879">
        <ele>779</ele>
        <time>2019-06-15T08:40:37.024Z</time>
      </trkpt>
      <trkpt lat="45.01458" lon="5.37877">
        <ele>778</ele>
        <time>2019-06-15T08:40:38.024Z</time>
      </trkpt>
      <trkpt lat="45.01459" lon="5.37875">
        <ele>776</ele>
        <time>2019-06-15T08:40:39.024Z</time>
      </trkpt>
      <trkpt lat="45.01461" lon="5.37874">
        <ele>774</ele>
        <time>2019-06-15T08:40:40.024Z</time>
      </trkpt>
      <trkpt lat="45.01461" lon="5.37875">
        <ele>772</ele>
        <time>2019-06-15T08:40:41.024Z</time>
      </trkpt>
      <trkpt lat="45.01462" lon="5.37876">
        <ele>770</ele>
        <time>2019-06-15T08:40:42.024Z</time>
      </trkpt>
      <trkpt lat="45.01463" lon="5.37877">
        <ele>767</ele>
        <time>2019-06-15T08:40:43.024Z</time>
      </trkpt>
      <trkpt lat="45.01464" lon="5.37879">
        <ele>767</ele>
        <time>2019-06-15T08:40:44.024Z</time>
      </trkpt>
      <trkpt lat="45.01466" lon="5.3788">
        <ele>765</ele>
        <time>2019-06-15T08:40:45.024Z</time>
      </trkpt>
      <trkpt lat="45.01467" lon="5.37881">
        <ele>764</ele>
        <time>2019-06-15T08:40:46.024Z</time>
      </trkpt>
      <trkpt lat="45.01469" lon="5.3788">
        <ele>763</ele>
        <time>2019-06-15T08:40:47.024Z</time>
      </trkpt>
      <trkpt lat="45.01472" lon="5.37879">
        <ele>762</ele>
        <time>2019-06-15T08:40:48.024Z</time>
      </trkpt>
      <trkpt lat="45.01474" lon="5.37878">
        <ele>761</ele>
        <time>2019-06-15T08:40:49.024Z</time>
      </trkpt>
      <trkpt lat="45.01476" lon="5.37877">
        <ele>760</ele>
        <time>2019-06-15T08:40:50.024Z</time>
      </trkpt>
      <trkpt lat="45.01478" lon="5.37875">
        <ele>758</ele>
        <time>2019-06-15T08:40:51.024Z</time>
      </trkpt>
      <trkpt lat="45.01479" lon="5.37873">
        <ele>759</ele>
        <time>2019-06-15T08:40:52.024Z</time>
      </trkpt>
      <trkpt lat="45.0148" lon="5.37872">
        <ele>757</ele>
        <time>2019-06-15T08:40:53.024Z</time>
      </trkpt>
      <trkpt lat="45.01482" lon="5.37872">
        <ele>757</ele>
        <time>2019-06-15T08:40:54.024Z</time>
      </trkpt>
      <trkpt lat="45.01484" lon="5.37873">
        <ele>757</ele>
        <time>2019-06-15T08:40:55.024Z</time>
      </trkpt>
      <trkpt lat="45.01485" lon="5.37875">
        <ele>755</ele>
        <time>2019-06-15T08:40:56.024Z</time>
      </trkpt>
      <trkpt lat="45.01487" lon="5.37877">
        <ele>755</ele>
        <time>2019-06-15T08:40:57.024Z</time>
      </trkpt>
      <trkpt lat="45.01489" lon="5.37878">
        <ele>755</ele>
        <time>2019-06-15T08:40:58.024Z</time>
      </trkpt>
      <trkpt lat="45.01491" lon="5.3788">
        <ele>754</ele>
        <time>2019-06-15T08:40:59.024Z</time>
      </trkpt>
      <trkpt lat="45.01493" lon="5.3788">
        <ele>753</ele>
        <time>2019-06-15T08:41:00.024Z</time>
      </trkpt>
      <trkpt lat="45.01495" lon="5.3788">
        <ele>752</ele>
        <time>2019-06-15T08:41:01.024Z</time>
      </trkpt>
      <trkpt lat="45.01496" lon="5.3788">
        <ele>751</ele>
        <time>2019-06-15T08:41:02.024Z</time>
      </trkpt>
      <trkpt lat="45.01498" lon="5.3788">
        <ele>750</ele>
        <time>2019-06-15T08:41:03.024Z</time>
      </trkpt>
      <trkpt lat="45.015" lon="5.37881">
        <ele>749</ele>
        <time>2019-06-15T08:41:04.024Z</time>
      </trkpt>
      <trkpt lat="45.01501" lon="5.37883">
        <ele>746</ele>
        <time>2019-06-15T08:41:05.024Z</time>
      </trkpt>
      <trkpt lat="45.01502" lon="5.37886">
        <ele>743</ele>
        <time>2019-06-15T08:41:06.024Z</time>
      </trkpt>
      <trkpt lat="45.01503" lon="5.37889">
        <ele>742</ele>
        <time>2019-06-15T08:41:07.024Z</time>
      </trkpt>
      <trkpt lat="45.01503" lon="5.37892">
        <ele>741</ele>
        <time>2019-06-15T08:41:08.024Z</time>
      </trkpt>
      <trkpt lat="45.01504" lon="5.37894">
        <ele>742</ele>
        <time>2019-06-15T08:41:09.024Z</time>
      </trkpt>
      <trkpt lat="45.01505" lon="5.37895">
        <ele>742</ele>
        <time>2019-06-15T08:41:10.024Z</time>
      </trkpt>
      <trkpt lat="45.01507" lon="5.37895">
        <ele>741</ele>
        <time>2019-06-15T08:41:11.024Z</time>
      </trkpt>
      <trkpt lat="45.01508" lon="5.37894">
        <ele>740</ele>
        <time>2019-06-15T08:41:12.024Z</time>
      </trkpt>
      <trkpt lat="45.01509" lon="5.37894">
        <ele>738</ele>
        <time>2019-06-15T08:41:13.024Z</time>
      </trkpt>
      <trkpt lat="45.0151" lon="5.37893">
        <ele>739</ele>
        <time>2019-06-15T08:41:14.024Z</time>
      </trkpt>
      <trkpt lat="45.01512" lon="5.37892">
        <ele>738</ele>
        <time>2019-06-15T08:41:15.024Z</time>
      </trkpt>
      <trkpt lat="45.01513" lon="5.37891">
        <ele>737</ele>
        <time>2019-06-15T08:41:16.024Z</time>
      </trkpt>
      <trkpt lat="45.01515" lon="5.37889">
        <ele>736</ele>
        <time>2019-06-15T08:41:17.024Z</time>
      </trkpt>
      <trkpt lat="45.01517" lon="5.37887">
        <ele>736</ele>
        <time>2019-06-15T08:41:18.024Z</time>
      </trkpt>
      <trkpt lat="45.01519" lon="5.37886">
        <ele>735</ele>
        <time>2019-06-15T08:41:19.024Z</time>
      </trkpt>
      <trkpt lat="45.0152" lon="5.37884">
        <ele>734</ele>
        <time>2019-06-15T08:41:20.024Z</time>
      </trkpt>
      <trkpt lat="45.01521" lon="5.37882">
        <ele>733</ele>
        <time>2019-06-15T08:41:21.024Z</time>
      </trkpt>
      <trkpt lat="45.01522" lon="5.37881">
        <ele>731</ele>
        <time>2019-06-15T08:41:22.024Z</time>
      </trkpt>
      <trkpt lat="45.01523" lon="5.3788">
        <ele>731</ele>
        <time>2019-06-15T08:41:23.024Z</time>
      </trkpt>
      <trkpt lat="45.01524" lon="5.3788">
        <ele>730</ele>
        <time>2019-06-15T08:41:24.024Z</time>
      </trkpt>
      <trkpt lat="45.01525" lon="5.37881">
        <ele>729</ele>
        <time>2019-06-15T08:41:25.024Z</time>
      </trkpt>
      <trkpt lat="45.01526" lon="5.37882">
        <ele>728</ele>
        <time>2019-06-15T08:41:26.024Z</time>
      </trkpt>
      <trkpt lat="45.01528" lon="5.37883">
        <ele>728</ele>
        <time>2019-06-15T08:41:27.024Z</time>
      </trkpt>
      <trkpt lat="45.01529" lon="5.37882">
        <ele>726</ele>
        <time>2019-06-15T08:41:28.024Z</time>
      </trkpt>
      <trkpt lat="45.01531" lon="5.37881">
        <ele>725</ele>
        <time>2019-06-15T08:41:29.024Z</time>
      </trkpt>
      <trkpt lat="45.01533" lon="5.3788">
        <ele>724</ele>
        <time>2019-06-15T08:41:30.024Z</time>
      </trkpt>
      <trkpt lat="45.01536" lon="5.37879">
        <ele>724</ele>
        <time>2019-06-15T08:41:31.024Z</time>
      </trkpt>
      <trkpt lat="45.01538" lon="5.37877">
        <ele>723</ele>
        <time>2019-06-15T08:41:32.024Z</time>
      </trkpt>
      <trkpt lat="45.01542" lon="5.37875">
        <ele>722</ele>
        <time>2019-06-15T08:41:33.024Z</time>
      </trkpt>
      <trkpt lat="45.01544" lon="5.37872">
        <ele>720</ele>
        <time>2019-06-15T08:41:34.024Z</time>
      </trkpt>
      <trkpt lat="45.01546" lon="5.37869">
        <ele>719</ele>
        <time>2019-06-15T08:41:35.024Z</time>
      </trkpt>
      <trkpt lat="45.01547" lon="5.37867">
        <ele>718</ele>
        <time>2019-06-15T08:41:36.024Z</time>
      </trkpt>
      <trkpt lat="45.01549" lon="5.37864">
        <ele>717</ele>
        <time>2019-06-15T08:41:37.024Z</time>
      </trkpt>
      <trkpt lat="45.0155" lon="5.37861">
        <ele>715</ele>
        <time>2019-06-15T08:41:38.024Z</time>
      </trkpt>
      <trkpt lat="45.01552" lon="5.37859">
        <ele>714</ele>
        <time>2019-06-15T08:41:39.024Z</time>
      </trkpt>
      <trkpt lat="45.01553" lon="5.37856">
        <ele>713</ele>
        <time>2019-06-15T08:41:40.024Z</time>
      </trkpt>
      <trkpt lat="45.01555" lon="5.37854">
        <ele>712</ele>
        <time>2019-06-15T08:41:41.024Z</time>
      </trkpt>
      <trkpt lat="45.01557" lon="5.37851">
        <ele>712</ele>
        <time>2019-06-15T08:41:42.024Z</time>
      </trkpt>
      <trkpt lat="45.01559" lon="5.37849">
        <ele>711</ele>
        <time>2019-06-15T08:41:43.024Z</time>
      </trkpt>
      <trkpt lat="45.01561" lon="5.37848">
        <ele>711</ele>
        <time>2019-06-15T08:41:44.024Z</time>
      </trkpt>
      <trkpt lat="45.01562" lon="5.37848">
        <ele>710</ele>
        <time>2019-06-15T08:41:45.024Z</time>
      </trkpt>
      <trkpt lat="45.01563" lon="5.37849">
        <ele>711</ele>
        <time>2019-06-15T08:41:46.024Z</time>
      </trkpt>
      <trkpt lat="45.01564" lon="5.3785">
        <ele>710</ele>
        <time>2019-06-15T08:41:47.024Z</time>
      </trkpt>
      <trkpt lat="45.01566" lon="5.37851">
        <ele>709</ele>
        <time>2019-06-15T08:41:48.024Z</time>
      </trkpt>
      <trkpt lat="45.01568" lon="5.37852">
        <ele>709</ele>
        <time>2019-06-15T08:41:49.024Z</time>
      </trkpt>
      <trkpt lat="45.0157" lon="5.37853">
        <ele>710</ele>
        <time>2019-06-15T08:41:50.024Z</time>
      </trkpt>
      <trkpt lat="45.01573" lon="5.37855">
        <ele>709</ele>
        <time>2019-06-15T08:41:51.024Z</time>
      </trkpt>
      <trkpt lat="45.01575" lon="5.37856">
        <ele>708</ele>
        <time>2019-06-15T08:41:52.024Z</time>
      </trkpt>
      <trkpt lat="45.01577" lon="5.37859">
        <ele>706</ele>
        <time>2019-06-15T08:41:53.024Z</time>
      </trkpt>
      <trkpt lat="45.01578" lon="5.37862">
        <ele>705</ele>
        <time>2019-06-15T08:41:54.024Z</time>
      </trkpt>
      <trkpt lat="45.01578" lon="5.37865">
        <ele>704</ele>
        <time>2019-06-15T08:41:55.024Z</time>
      </trkpt>
      <trkpt lat="45.01579" lon="5.37868">
        <ele>702</ele>
        <time>2019-06-15T08:41:56.024Z</time>
      </trkpt>
      <trkpt lat="45.01579" lon="5.3787">
        <ele>701</ele>
        <time>2019-06-15T08:41:57.024Z</time>
      </trkpt>
      <trkpt lat="45.0158" lon="5.37871">
        <ele>700</ele>
        <time>2019-06-15T08:41:58.024Z</time>
      </trkpt>
      <trkpt lat="45.01581" lon="5.3787">
        <ele>700</ele>
        <time>2019-06-15T08:41:59.024Z</time>
      </trkpt>
      <trkpt lat="45.01583" lon="5.37869">
        <ele>698</ele>
        <time>2019-06-15T08:42:00.024Z</time>
      </trkpt>
      <trkpt lat="45.01584" lon="5.37868">
        <ele>697</ele>
        <time>2019-06-15T08:42:01.024Z</time>
      </trkpt>
      <trkpt lat="45.01586" lon="5.37868">
        <ele>697</ele>
        <time>2019-06-15T08:42:02.024Z</time>
      </trkpt>
      <trkpt lat="45.01587" lon="5.37868">
        <ele>696</ele>
        <time>2019-06-15T08:42:03.024Z</time>
      </trkpt>
      <trkpt lat="45.0159" lon="5.37868">
        <ele>695</ele>
        <time>2019-06-15T08:42:04.024Z</time>
      </trkpt>
      <trkpt lat="45.01592" lon="5.37868">
        <ele>696</ele>
        <time>2019-06-15T08:42:05.024Z</time>
      </trkpt>
      <trkpt lat="45.01595" lon="5.37869">
        <ele>695</ele>
        <time>2019-06-15T08:42:06.024Z</time>
      </trkpt>
      <trkpt lat="45.01597" lon="5.37869">
        <ele>695</ele>
        <time>2019-06-15T08:42:07.024Z</time>
      </trkpt>
      <trkpt lat="45.01598" lon="5.37869">
        <ele>694</ele>
        <time>2019-06-15T08:42:08.024Z</time>
      </trkpt>
      <trkpt lat="45.01599" lon="5.37869">
        <ele>693</ele>
        <time>2019-06-15T08:42:09.024Z</time>
      </trkpt>
      <trkpt lat="45.01601" lon="5.37869">
        <ele>691</ele>
        <time>2019-06-15T08:42:10.024Z</time>
      </trkpt>
      <trkpt lat="45.01602" lon="5.37869">
        <ele>690</ele>
        <time>2019-06-15T08:42:11.024Z</time>
      </trkpt>
      <trkpt lat="45.01603" lon="5.37869">
        <ele>690</ele>
        <time>2019-06-15T08:42:12.024Z</time>
      </trkpt>
      <trkpt lat="45.01605" lon="5.3787">
        <ele>688</ele>
        <time>2019-06-15T08:42:13.024Z</time>
      </trkpt>
      <trkpt lat="45.01606" lon="5.3787">
        <ele>687</ele>
        <time>2019-06-15T08:42:14.024Z</time>
      </trkpt>
      <trkpt lat="45.01607" lon="5.37869">
        <ele>686</ele>
        <time>2019-06-15T08:42:15.024Z</time>
      </trkpt>
      <trkpt lat="45.01609" lon="5.37869">
        <ele>686</ele>
        <time>2019-06-15T08:42:16.024Z</time>
      </trkpt>
      <trkpt lat="45.0161" lon="5.37868">
        <ele>685</ele>
        <time>2019-06-15T08:42:17.024Z</time>
      </trkpt>
      <trkpt lat="45.01611" lon="5.37868">
        <ele>685</ele>
        <time>2019-06-15T08:42:18.024Z</time>
      </trkpt>
      <trkpt lat="45.01612" lon="5.37867">
        <ele>684</ele>
        <time>2019-06-15T08:42:19.024Z</time>
      </trkpt>
      <trkpt lat="45.01614" lon="5.37866">
        <ele>683</ele>
        <time>2019-06-15T08:42:20.024Z</time>
      </trkpt>
      <trkpt lat="45.01616" lon="5.37865">
        <ele>685</ele>
        <time>2019-06-15T08:42:21.024Z</time>
      </trkpt>
      <trkpt lat="45.01618" lon="5.37863">
        <ele>684</ele>
        <time>2019-06-15T08:42:22.024Z</time>
      </trkpt>
      <trkpt lat="45.0162" lon="5.37861">
        <ele>683</ele>
        <time>2019-06-15T08:42:23.024Z</time>
      </trkpt>
      <trkpt lat="45.01623" lon="5.37859">
        <ele>682</ele>
        <time>2019-06-15T08:42:24.024Z</time>
      </trkpt>
      <trkpt lat="45.01624" lon="5.37858">
        <ele>680</ele>
        <time>2019-06-15T08:42:25.024Z</time>
      </trkpt>
      <trkpt lat="45.01627" lon="5.37858">
        <ele>680</ele>
        <time>2019-06-15T08:42:26.024Z</time>
      </trkpt>
      <trkpt lat="45.01629" lon="5.37858">
        <ele>680</ele>
        <time>2019-06-15T08:42:27.024Z</time>
      </trkpt>
      <trkpt lat="45.0163" lon="5.3786">
        <ele>679</ele>
        <time>2019-06-15T08:42:28.024Z</time>
      </trkpt>
      <trkpt lat="45.01631" lon="5.37862">
        <ele>679</ele>
        <time>2019-06-15T08:42:29.024Z</time>
      </trkpt>
      <trkpt lat="45.01632" lon="5.37865">
        <ele>678</ele>
        <time>2019-06-15T08:42:30.024Z</time>
      </trkpt>
      <trkpt lat="45.01633" lon="5.37868">
        <ele>678</ele>
        <time>2019-06-15T08:42:31.024Z</time>
      </trkpt>
      <trkpt lat="45.01634" lon="5.3787">
        <ele>677</ele>
        <time>2019-06-15T08:42:32.024Z</time>
      </trkpt>
      <trkpt lat="45.01634" lon="5.37873">
        <ele>675</ele>
        <time>2019-06-15T08:42:33.024Z</time>
      </trkpt>
      <trkpt lat="45.01635" lon="5.37875">
        <ele>674</ele>
        <time>2019-06-15T08:42:34.024Z</time>
      </trkpt>
      <trkpt lat="45.01636" lon="5.37877">
        <ele>673</ele>
        <time>2019-06-15T08:42:35.024Z</time>
      </trkpt>
      <trkpt lat="45.01638" lon="5.3788">
        <ele>672</ele>
        <time>2019-06-15T08:42:36.024Z</time>
      </trkpt>
      <trkpt lat="45.01639" lon="5.37883">
        <ele>671</ele>
        <time>2019-06-15T08:42:37.024Z</time>
      </trkpt>
      <trkpt lat="45.01639" lon="5.37886">
        <ele>671</ele>
        <time>2019-06-15T08:42:38.024Z</time>
      </trkpt>
      <trkpt lat="45.01639" lon="5.37889">
        <ele>670</ele>
        <time>2019-06-15T08:42:39.024Z</time>
      </trkpt>
      <trkpt lat="45.01639" lon="5.37893">
        <ele>668</ele>
        <time>2019-06-15T08:42:40.024Z</time>
      </trkpt>
      <trkpt lat="45.0164" lon="5.37896">
        <ele>666</ele>
        <time>2019-06-15T08:42:41.024Z</time>
      </trkpt>
      <trkpt lat="45.0164" lon="5.37899">
        <ele>663</ele>
        <time>2019-06-15T08:42:42.024Z</time>
      </trkpt>
      <trkpt lat="45.01641" lon="5.37903">
        <ele>663</ele>
        <time>2019-06-15T08:42:43.024Z</time>
      </trkpt>
      <trkpt lat="45.01641" lon="5.37906">
        <ele>662</ele>
        <time>2019-06-15T08:42:44.024Z</time>
      </trkpt>
      <trkpt lat="45.01644" lon="5.37908">
        <ele>663</ele>
        <time>2019-06-15T08:42:45.024Z</time>
      </trkpt>
      <trkpt lat="45.01646" lon="5.3791">
        <ele>662</ele>
        <time>2019-06-15T08:42:46.024Z</time>
      </trkpt>
      <trkpt lat="45.01649" lon="5.3791">
        <ele>663</ele>
        <time>2019-06-15T08:42:47.024Z</time>
      </trkpt>
      <trkpt lat="45.0165" lon="5.3791">
        <ele>662</ele>
        <time>2019-06-15T08:42:48.024Z</time>
      </trkpt>
      <trkpt lat="45.01652" lon="5.3791">
        <ele>662</ele>
        <time>2019-06-15T08:42:49.024Z</time>
      </trkpt>
      <trkpt lat="45.01654" lon="5.3791">
        <ele>660</ele>
        <time>2019-06-15T08:42:50.024Z</time>
      </trkpt>
      <trkpt lat="45.01657" lon="5.37909">
        <ele>659</ele>
        <time>2019-06-15T08:42:51.024Z</time>
      </trkpt>
      <trkpt lat="45.01661" lon="5.37908">
        <ele>658</ele>
        <time>2019-06-15T08:42:52.024Z</time>
      </trkpt>
      <trkpt lat="45.01664" lon="5.37907">
        <ele>656</ele>
        <time>2019-06-15T08:42:53.024Z</time>
      </trkpt>
      <trkpt lat="45.01666" lon="5.37905">
        <ele>655</ele>
        <time>2019-06-15T08:42:54.024Z</time>
      </trkpt>
      <trkpt lat="45.01668" lon="5.37904">
        <ele>655</ele>
        <time>2019-06-15T08:42:55.024Z</time>
      </trkpt>
      <trkpt lat="45.01671" lon="5.37902">
        <ele>654</ele>
        <time>2019-06-15T08:42:56.024Z</time>
      </trkpt>
      <trkpt lat="45.01673" lon="5.37901">
        <ele>652</ele>
        <time>2019-06-15T08:42:57.024Z</time>
      </trkpt>
      <trkpt lat="45.01675" lon="5.379">
        <ele>651</ele>
        <time>2019-06-15T08:42:58.024Z</time>
      </trkpt>
      <trkpt lat="45.01677" lon="5.37898">
        <ele>650</ele>
        <time>2019-06-15T08:42:59.024Z</time>
      </trkpt>
      <trkpt lat="45.0168" lon="5.37896">
        <ele>648</ele>
        <time>2019-06-15T08:43:00.024Z</time>
      </trkpt>
      <trkpt lat="45.01682" lon="5.37895">
        <ele>647</ele>
        <time>2019-06-15T08:43:01.024Z</time>
      </trkpt>
      <trkpt lat="45.01685" lon="5.37894">
        <ele>646</ele>
        <time>2019-06-15T08:43:02.024Z</time>
      </trkpt>
      <trkpt lat="45.01687" lon="5.37893">
        <ele>645</ele>
        <time>2019-06-15T08:43:03.024Z</time>
      </trkpt>
      <trkpt lat="45.01689" lon="5.37894">
        <ele>644</ele>
        <time>2019-06-15T08:43:04.024Z</time>
      </trkpt>
      <trkpt lat="45.0169" lon="5.37896">
        <ele>642</ele>
        <time>2019-06-15T08:43:05.024Z</time>
      </trkpt>
      <trkpt lat="45.01692" lon="5.37898">
        <ele>641</ele>
        <time>2019-06-15T08:43:06.024Z</time>
      </trkpt>
      <trkpt lat="45.01693" lon="5.37901">
        <ele>641</ele>
        <time>2019-06-15T08:43:07.024Z</time>
      </trkpt>
      <trkpt lat="45.01694" lon="5.37902">
        <ele>639</ele>
        <time>2019-06-15T08:43:08.024Z</time>
      </trkpt>
      <trkpt lat="45.01696" lon="5.37904">
        <ele>638</ele>
        <time>2019-06-15T08:43:09.024Z</time>
      </trkpt>
      <trkpt lat="45.01697" lon="5.37906">
        <ele>637</ele>
        <time>2019-06-15T08:43:10.024Z</time>
      </trkpt>
      <trkpt lat="45.01699" lon="5.37908">
        <ele>637</ele>
        <time>2019-06-15T08:43:11.024Z</time>
      </trkpt>
      <trkpt lat="45.01701" lon="5.37911">
        <ele>636</ele>
        <time>2019-06-15T08:43:12.024Z</time>
      </trkpt>
      <trkpt lat="45.01702" lon="5.37914">
        <ele>635</ele>
        <time>2019-06-15T08:43:13.024Z</time>
      </trkpt>
      <trkpt lat="45.01704" lon="5.37917">
        <ele>634</ele>
        <time>2019-06-15T08:43:14.024Z</time>
      </trkpt>
      <trkpt lat="45.01706" lon="5.37921">
        <ele>634</ele>
        <time>2019-06-15T08:43:15.024Z</time>
      </trkpt>
      <trkpt lat="45.01708" lon="5.37924">
        <ele>632</ele>
        <time>2019-06-15T08:43:16.024Z</time>
      </trkpt>
      <trkpt lat="45.0171" lon="5.37927">
        <ele>631</ele>
        <time>2019-06-15T08:43:17.024Z</time>
      </trkpt>
      <trkpt lat="45.01711" lon="5.3793">
        <ele>632</ele>
        <time>2019-06-15T08:43:18.024Z</time>
      </trkpt>
      <trkpt lat="45.01713" lon="5.37933">
        <ele>632</ele>
        <time>2019-06-15T08:43:19.024Z</time>
      </trkpt>
      <trkpt lat="45.01715" lon="5.37936">
        <ele>631</ele>
        <time>2019-06-15T08:43:20.024Z</time>
      </trkpt>
      <trkpt lat="45.01717" lon="5.37939">
        <ele>630</ele>
        <time>2019-06-15T08:43:21.024Z</time>
      </trkpt>
      <trkpt lat="45.01719" lon="5.37942">
        <ele>628</ele>
        <time>2019-06-15T08:43:22.024Z</time>
      </trkpt>
      <trkpt lat="45.0172" lon="5.37945">
        <ele>628</ele>
        <time>2019-06-15T08:43:23.024Z</time>
      </trkpt>
      <trkpt lat="45.01721" lon="5.37948">
        <ele>627</ele>
        <time>2019-06-15T08:43:24.024Z</time>
      </trkpt>
      <trkpt lat="45.01722" lon="5.37951">
        <ele>626</ele>
        <time>2019-06-15T08:43:25.024Z</time>
      </trkpt>
      <trkpt lat="45.01723" lon="5.37954">
        <ele>625</ele>
        <time>2019-06-15T08:43:26.024Z</time>
      </trkpt>
      <trkpt lat="45.01724" lon="5.37958">
        <ele>625</ele>
        <time>2019-06-15T08:43:27.024Z</time>
      </trkpt>
      <trkpt lat="45.01725" lon="5.3796">
        <ele>623</ele>
        <time>2019-06-15T08:43:28.024Z</time>
      </trkpt>
      <trkpt lat="45.01727" lon="5.37962">
        <ele>623</ele>
        <time>2019-06-15T08:43:29.024Z</time>
      </trkpt>
      <trkpt lat="45.01729" lon="5.37963">
        <ele>622</ele>
        <time>2019-06-15T08:43:30.024Z</time>
      </trkpt>
      <trkpt lat="45.01731" lon="5.37963">
        <ele>620</ele>
        <time>2019-06-15T08:43:31.024Z</time>
      </trkpt>
      <trkpt lat="45.01733" lon="5.37963">
        <ele>619</ele>
        <time>2019-06-15T08:43:32.024Z</time>
      </trkpt>
      <trkpt lat="45.01735" lon="5.37962">
        <ele>617</ele>
        <time>2019-06-15T08:43:33.024Z</time>
      </trkpt>
      <trkpt lat="45.01736" lon="5.37961">
        <ele>616</ele>
        <time>2019-06-15T08:43:34.024Z</time>
      </trkpt>
      <trkpt lat="45.01738" lon="5.37961">
        <ele>614</ele>
        <time>2019-06-15T08:43:35.024Z</time>
      </trkpt>
      <trkpt lat="45.01739" lon="5.3796">
        <ele>612</ele>
        <time>2019-06-15T08:43:36.024Z</time>
      </trkpt>
      <trkpt lat="45.01741" lon="5.37958">
        <ele>612</ele>
        <time>2019-06-15T08:43:37.024Z</time>
      </trkpt>
      <trkpt lat="45.01743" lon="5.37956">
        <ele>610</ele>
        <time>2019-06-15T08:43:38.024Z</time>
      </trkpt>
      <trkpt lat="45.01746" lon="5.37954">
        <ele>609</ele>
        <time>2019-06-15T08:43:39.024Z</time>
      </trkpt>
      <trkpt lat="45.01749" lon="5.37953">
        <ele>609</ele>
        <time>2019-06-15T08:43:40.024Z</time>
      </trkpt>
      <trkpt lat="45.01751" lon="5.37951">
        <ele>608</ele>
        <time>2019-06-15T08:43:41.024Z</time>
      </trkpt>
      <trkpt lat="45.01753" lon="5.37949">
        <ele>607</ele>
        <time>2019-06-15T08:43:42.024Z</time>
      </trkpt>
      <trkpt lat="45.01755" lon="5.37948">
        <ele>606</ele>
        <time>2019-06-15T08:43:43.024Z</time>
      </trkpt>
      <trkpt lat="45.01758" lon="5.37947">
        <ele>604</ele>
        <time>2019-06-15T08:43:44.024Z</time>
      </trkpt>
      <trkpt lat="45.0176" lon="5.37947">
        <ele>602</ele>
        <time>2019-06-15T08:43:45.024Z</time>
      </trkpt>
      <trkpt lat="45.01761" lon="5.37948">
        <ele>601</ele>
        <time>2019-06-15T08:43:46.024Z</time>
      </trkpt>
      <trkpt lat="45.01763" lon="5.3795">
        <ele>599</ele>
        <time>2019-06-15T08:43:47.024Z</time>
      </trkpt>
      <trkpt lat="45.01765" lon="5.37952">
        <ele>598</ele>
        <time>2019-06-15T08:43:48.024Z</time>
      </trkpt>
      <trkpt lat="45.01766" lon="5.37954">
        <ele>597</ele>
        <time>2019-06-15T08:43:49.024Z</time>
      </trkpt>
      <trkpt lat="45.01768" lon="5.37956">
        <ele>596</ele>
        <time>2019-06-15T08:43:50.024Z</time>
      </trkpt>
      <trkpt lat="45.0177" lon="5.37959">
        <ele>594</ele>
        <time>2019-06-15T08:43:51.024Z</time>
      </trkpt>
      <trkpt lat="45.0177" lon="5.37961">
        <ele>594</ele>
        <time>2019-06-15T08:43:52.024Z</time>
      </trkpt>
      <trkpt lat="45.01771" lon="5.37964">
        <ele>593</ele>
        <time>2019-06-15T08:43:53.024Z</time>
      </trkpt>
      <trkpt lat="45.01773" lon="5.37966">
        <ele>593</ele>
        <time>2019-06-15T08:43:54.024Z</time>
      </trkpt>
      <trkpt lat="45.01774" lon="5.37969">
        <ele>591</ele>
        <time>2019-06-15T08:43:55.024Z</time>
      </trkpt>
      <trkpt lat="45.01776" lon="5.37972">
        <ele>590</ele>
        <time>2019-06-15T08:43:56.024Z</time>
      </trkpt>
      <trkpt lat="45.01777" lon="5.37974">
        <ele>590</ele>
        <time>2019-06-15T08:43:57.024Z</time>
      </trkpt>
      <trkpt lat="45.01779" lon="5.37977">
        <ele>589</ele>
        <time>2019-06-15T08:43:58.024Z</time>
      </trkpt>
      <trkpt lat="45.0178" lon="5.37979">
        <ele>588</ele>
        <time>2019-06-15T08:43:59.024Z</time>
      </trkpt>
      <trkpt lat="45.01782" lon="5.37981">
        <ele>588</ele>
        <time>2019-06-15T08:44:00.024Z</time>
      </trkpt>
      <trkpt lat="45.01783" lon="5.37983">
        <ele>586</ele>
        <time>2019-06-15T08:44:01.024Z</time>
      </trkpt>
      <trkpt lat="45.01784" lon="5.37985">
        <ele>585</ele>
        <time>2019-06-15T08:44:02.024Z</time>
      </trkpt>
      <trkpt lat="45.01785" lon="5.37986">
        <ele>583</ele>
        <time>2019-06-15T08:44:03.024Z</time>
      </trkpt>
      <trkpt lat="45.01786" lon="5.37988">
        <ele>580</ele>
        <time>2019-06-15T08:44:04.024Z</time>
      </trkpt>
      <trkpt lat="45.01788" lon="5.3799">
        <ele>579</ele>
        <time>2019-06-15T08:44:05.024Z</time>
      </trkpt>
      <trkpt lat="45.0179" lon="5.37993">
        <ele>578</ele>
        <time>2019-06-15T08:44:06.024Z</time>
      </trkpt>
      <trkpt lat="45.01792" lon="5.37996">
        <ele>576</ele>
        <time>2019-06-15T08:44:07.024Z</time>
      </trkpt>
      <trkpt lat="45.01793" lon="5.38">
        <ele>576</ele>
        <time>2019-06-15T08:44:08.024Z</time>
      </trkpt>
      <trkpt lat="45.01794" lon="5.38003">
        <ele>575</ele>
        <time>2019-06-15T08:44:09.024Z</time>
      </trkpt>
      <trkpt lat="45.01795" lon="5.38007">
        <ele>575</ele>
        <time>2019-06-15T08:44:10.024Z</time>
      </trkpt>
      <trkpt lat="45.01796" lon="5.3801">
        <ele>574</ele>
        <time>2019-06-15T08:44:11.024Z</time>
      </trkpt>
      <trkpt lat="45.01797" lon="5.38013">
        <ele>575</ele>
        <time>2019-06-15T08:44:12.024Z</time>
      </trkpt>
      <trkpt lat="45.01798" lon="5.38016">
        <ele>574</ele>
        <time>2019-06-15T08:44:13.024Z</time>
      </trkpt>
      <trkpt lat="45.01799" lon="5.3802">
        <ele>574</ele>
        <time>2019-06-15T08:44:14.024Z</time>
      </trkpt>
      <trkpt lat="45.018" lon="5.38023">
        <ele>574</ele>
        <time>2019-06-15T08:44:15.024Z</time>
      </trkpt>
      <trkpt lat="45.01801" lon="5.38026">
        <ele>573</ele>
        <time>2019-06-15T08:44:16.024Z</time>
      </trkpt>
      <trkpt lat="45.01802" lon="5.38029">
        <ele>572</ele>
        <time>2019-06-15T08:44:17.024Z</time>
      </trkpt>
      <trkpt lat="45.01803" lon="5.38032">
        <ele>572</ele>
        <time>2019-06-15T08:44:18.024Z</time>
      </trkpt>
      <trkpt lat="45.01805" lon="5.38036">
        <ele>572</ele>
        <time>2019-06-15T08:44:19.024Z</time>
      </trkpt>
      <trkpt lat="45.01806" lon="5.3804">
        <ele>570</ele>
        <time>2019-06-15T08:44:20.024Z</time>
      </trkpt>
      <trkpt lat="45.01807" lon="5.38044">
        <ele>570</ele>
        <time>2019-06-15T08:44:21.024Z</time>
      </trkpt>
      <trkpt lat="45.01808" lon="5.38048">
        <ele>570</ele>
        <time>2019-06-15T08:44:22.024Z</time>
      </trkpt>
      <trkpt lat="45.01809" lon="5.38053">
        <ele>570</ele>
        <time>2019-06-15T08:44:23.024Z</time>
      </trkpt>
      <trkpt lat="45.0181" lon="5.38057">
        <ele>570</ele>
        <time>2019-06-15T08:44:24.024Z</time>
      </trkpt>
      <trkpt lat="45.01811" lon="5.38061">
        <ele>571</ele>
        <time>2019-06-15T08:44:25.024Z</time>
      </trkpt>
      <trkpt lat="45.01812" lon="5.38065">
        <ele>570</ele>
        <time>2019-06-15T08:44:26.024Z</time>
      </trkpt>
      <trkpt lat="45.01813" lon="5.38069">
        <ele>570</ele>
        <time>2019-06-15T08:44:27.024Z</time>
      </trkpt>
      <trkpt lat="45.01814" lon="5.38072">
        <ele>569</ele>
        <time>2019-06-15T08:44:28.024Z</time>
      </trkpt>
      <trkpt lat="45.01815" lon="5.38075">
        <ele>568</ele>
        <time>2019-06-15T08:44:29.024Z</time>
      </trkpt>
      <trkpt lat="45.01815" lon="5.38077">
        <ele>567</ele>
        <time>2019-06-15T08:44:30.024Z</time>
      </trkpt>
      <trkpt lat="45.01817" lon="5.38081">
        <ele>565</ele>
        <time>2019-06-15T08:44:31.024Z</time>
      </trkpt>
      <trkpt lat="45.01818" lon="5.38084">
        <ele>563</ele>
        <time>2019-06-15T08:44:32.024Z</time>
      </trkpt>
      <trkpt lat="45.01819" lon="5.38088">
        <ele>561</ele>
        <time>2019-06-15T08:44:33.024Z</time>
      </trkpt>
      <trkpt lat="45.01819" lon="5.38092">
        <ele>561</ele>
        <time>2019-06-15T08:44:34.024Z</time>
      </trkpt>
      <trkpt lat="45.0182" lon="5.38095">
        <ele>560</ele>
        <time>2019-06-15T08:44:35.024Z</time>
      </trkpt>
      <trkpt lat="45.01821" lon="5.38099">
        <ele>559</ele>
        <time>2019-06-15T08:44:36.024Z</time>
      </trkpt>
      <trkpt lat="45.01822" lon="5.38103">
        <ele>558</ele>
        <time>2019-06-15T08:44:37.024Z</time>
      </trkpt>
      <trkpt lat="45.01823" lon="5.38108">
        <ele>558</ele>
        <time>2019-06-15T08:44:38.024Z</time>
      </trkpt>
      <trkpt lat="45.01824" lon="5.38112">
        <ele>557</ele>
        <time>2019-06-15T08:44:39.024Z</time>
      </trkpt>
      <trkpt lat="45.01824" lon="5.38116">
        <ele>555</ele>
        <time>2019-06-15T08:44:40.024Z</time>
      </trkpt>
      <trkpt lat="45.01824" lon="5.38121">
        <ele>554</ele>
        <time>2019-06-15T08:44:41.024Z</time>
      </trkpt>
      <trkpt lat="45.01825" lon="5.38126">
        <ele>554</ele>
        <time>2019-06-15T08:44:42.024Z</time>
      </trkpt>
      <trkpt lat="45.01826" lon="5.38131">
        <ele>555</ele>
        <time>2019-06-15T08:44:43.024Z</time>
      </trkpt>
      <trkpt lat="45.01827" lon="5.38135">
        <ele>555</ele>
        <time>2019-06-15T08:44:44.024Z</time>
      </trkpt>
      <trkpt lat="45.01828" lon="5.3814">
        <ele>555</ele>
        <time>2019-06-15T08:44:45.024Z</time>
      </trkpt>
      <trkpt lat="45.0183" lon="5.38144">
        <ele>555</ele>
        <time>2019-06-15T08:44:46.024Z</time>
      </trkpt>
      <trkpt lat="45.01832" lon="5.38148">
        <ele>555</ele>
        <time>2019-06-15T08:44:47.024Z</time>
      </trkpt>
      <trkpt lat="45.01835" lon="5.38152">
        <ele>555</ele>
        <time>2019-06-15T08:44:48.024Z</time>
      </trkpt>
      <trkpt lat="45.01838" lon="5.38157">
        <ele>554</ele>
        <time>2019-06-15T08:44:49.024Z</time>
      </trkpt>
      <trkpt lat="45.01841" lon="5.38162">
        <ele>552</ele>
        <time>2019-06-15T08:44:50.024Z</time>
      </trkpt>
      <trkpt lat="45.01845" lon="5.38167">
        <ele>551</ele>
        <time>2019-06-15T08:44:51.024Z</time>
      </trkpt>
      <trkpt lat="45.01847" lon="5.38172">
        <ele>551</ele>
        <time>2019-06-15T08:44:52.024Z</time>
      </trkpt>
      <trkpt lat="45.01849" lon="5.38176">
        <ele>549</ele>
        <time>2019-06-15T08:44:53.024Z</time>
      </trkpt>
      <trkpt lat="45.01851" lon="5.38181">
        <ele>549</ele>
        <time>2019-06-15T08:44:54.024Z</time>
      </trkpt>
      <trkpt lat="45.01854" lon="5.38186">
        <ele>549</ele>
        <time>2019-06-15T08:44:55.024Z</time>
      </trkpt>
      <trkpt lat="45.01856" lon="5.38191">
        <ele>548</ele>
        <time>2019-06-15T08:44:56.024Z</time>
      </trkpt>
      <trkpt lat="45.01859" lon="5.38195">
        <ele>547</ele>
        <time>2019-06-15T08:44:57.024Z</time>
      </trkpt>
      <trkpt lat="45.0186" lon="5.38199">
        <ele>546</ele>
        <time>2019-06-15T08:44:58.024Z</time>
      </trkpt>
      <trkpt lat="45.01863" lon="5.38203">
        <ele>545</ele>
        <time>2019-06-15T08:44:59.024Z</time>
      </trkpt>
      <trkpt lat="45.01865" lon="5.38207">
        <ele>545</ele>
        <time>2019-06-15T08:45:00.024Z</time>
      </trkpt>
      <trkpt lat="45.01868" lon="5.38211">
        <ele>545</ele>
        <time>2019-06-15T08:45:01.024Z</time>
      </trkpt>
      <trkpt lat="45.01871" lon="5.38215">
        <ele>544</ele>
        <time>2019-06-15T08:45:02.024Z</time>
      </trkpt>
      <trkpt lat="45.01874" lon="5.38217">
        <ele>543</ele>
        <time>2019-06-15T08:45:03.024Z</time>
      </trkpt>
      <trkpt lat="45.01876" lon="5.3822">
        <ele>542</ele>
        <time>2019-06-15T08:45:04.024Z</time>
      </trkpt>
      <trkpt lat="45.01877" lon="5.38223">
        <ele>542</ele>
        <time>2019-06-15T08:45:05.024Z</time>
      </trkpt>
      <trkpt lat="45.01878" lon="5.38226">
        <ele>541</ele>
        <time>2019-06-15T08:45:06.024Z</time>
      </trkpt>
      <trkpt lat="45.01878" lon="5.38229">
        <ele>540</ele>
        <time>2019-06-15T08:45:07.024Z</time>
      </trkpt>
      <trkpt lat="45.01879" lon="5.38232">
        <ele>540</ele>
        <time>2019-06-15T08:45:08.024Z</time>
      </trkpt>
      <trkpt lat="45.01879" lon="5.38235">
        <ele>539</ele>
        <time>2019-06-15T08:45:09.024Z</time>
      </trkpt>
      <trkpt lat="45.0188" lon="5.38239">
        <ele>538</ele>
        <time>2019-06-15T08:45:10.024Z</time>
      </trkpt>
      <trkpt lat="45.01881" lon="5.38243">
        <ele>536</ele>
        <time>2019-06-15T08:45:11.024Z</time>
      </trkpt>
      <trkpt lat="45.01884" lon="5.38247">
        <ele>535</ele>
        <time>2019-06-15T08:45:12.024Z</time>
      </trkpt>
      <trkpt lat="45.01887" lon="5.38251">
        <ele>536</ele>
        <time>2019-06-15T08:45:13.024Z</time>
      </trkpt>
      <trkpt lat="45.01889" lon="5.38256">
        <ele>536</ele>
        <time>2019-06-15T08:45:14.024Z</time>
      </trkpt>
      <trkpt lat="45.01891" lon="5.38261">
        <ele>537</ele>
        <time>2019-06-15T08:45:15.024Z</time>
      </trkpt>
      <trkpt lat="45.01893" lon="5.38265">
        <ele>537</ele>
        <time>2019-06-15T08:45:16.024Z</time>
      </trkpt>
      <trkpt lat="45.01895" lon="5.38269">
        <ele>536</ele>
        <time>2019-06-15T08:45:17.024Z</time>
      </trkpt>
      <trkpt lat="45.01898" lon="5.38272">
        <ele>536</ele>
        <time>2019-06-15T08:45:18.024Z</time>
      </trkpt>
      <trkpt lat="45.019" lon="5.38275">
        <ele>536</ele>
        <time>2019-06-15T08:45:19.024Z</time>
      </trkpt>
      <trkpt lat="45.01903" lon="5.38277">
        <ele>535</ele>
        <time>2019-06-15T08:45:20.024Z</time>
      </trkpt>
      <trkpt lat="45.01905" lon="5.38279">
        <ele>534</ele>
        <time>2019-06-15T08:45:21.024Z</time>
      </trkpt>
      <trkpt lat="45.01907" lon="5.3828">
        <ele>533</ele>
        <time>2019-06-15T08:45:22.024Z</time>
      </trkpt>
      <trkpt lat="45.0191" lon="5.38282">
        <ele>532</ele>
        <time>2019-06-15T08:45:23.024Z</time>
      </trkpt>
      <trkpt lat="45.01913" lon="5.38283">
        <ele>532</ele>
        <time>2019-06-15T08:45:24.024Z</time>
      </trkpt>
      <trkpt lat="45.01916" lon="5.38285">
        <ele>531</ele>
        <time>2019-06-15T08:45:25.024Z</time>
      </trkpt>
      <trkpt lat="45.01918" lon="5.38287">
        <ele>531</ele>
        <time>2019-06-15T08:45:26.024Z</time>
      </trkpt>
      <trkpt lat="45.01921" lon="5.38289">
        <ele>530</ele>
        <time>2019-06-15T08:45:27.024Z</time>
      </trkpt>
      <trkpt lat="45.01923" lon="5.38291">
        <ele>530</ele>
        <time>2019-06-15T08:45:28.024Z</time>
      </trkpt>
      <trkpt lat="45.01926" lon="5.38293">
        <ele>529</ele>
        <time>2019-06-15T08:45:29.024Z</time>
      </trkpt>
      <trkpt lat="45.01929" lon="5.38294">
        <ele>528</ele>
        <time>2019-06-15T08:45:30.024Z</time>
      </trkpt>
      <trkpt lat="45.01931" lon="5.38295">
        <ele>527</ele>
        <time>2019-06-15T08:45:31.024Z</time>
      </trkpt>
      <trkpt lat="45.01934" lon="5.38297">
        <ele>526</ele>
        <time>2019-06-15T08:45:32.024Z</time>
      </trkpt>
      <trkpt lat="45.01937" lon="5.38298">
        <ele>525</ele>
        <time>2019-06-15T08:45:33.024Z</time>
      </trkpt>
      <trkpt lat="45.0194" lon="5.38299">
        <ele>525</ele>
        <time>2019-06-15T08:45:34.024Z</time>
      </trkpt>
      <trkpt lat="45.01942" lon="5.38301">
        <ele>524</ele>
        <time>2019-06-15T08:45:35.024Z</time>
      </trkpt>
      <trkpt lat="45.01945" lon="5.38302">
        <ele>523</ele>
        <time>2019-06-15T08:45:36.024Z</time>
      </trkpt>
      <trkpt lat="45.01948" lon="5.38304">
        <ele>522</ele>
        <time>2019-06-15T08:45:37.024Z</time>
      </trkpt>
      <trkpt lat="45.0195" lon="5.38305">
        <ele>522</ele>
        <time>2019-06-15T08:45:38.024Z</time>
      </trkpt>
      <trkpt lat="45.01953" lon="5.38307">
        <ele>521</ele>
        <time>2019-06-15T08:45:39.024Z</time>
      </trkpt>
      <trkpt lat="45.01955" lon="5.38308">
        <ele>520</ele>
        <time>2019-06-15T08:45:40.024Z</time>
      </trkpt>
      <trkpt lat="45.01957" lon="5.3831">
        <ele>519</ele>
        <time>2019-06-15T08:45:41.024Z</time>
      </trkpt>
      <trkpt lat="45.0196" lon="5.38312">
        <ele>519</ele>
        <time>2019-06-15T08:45:42.024Z</time>
      </trkpt>
      <trkpt lat="45.01962" lon="5.38314">
        <ele>518</ele>
        <time>2019-06-15T08:45:43.024Z</time>
      </trkpt>
      <trkpt lat="45.01964" lon="5.38315">
        <ele>517</ele>
        <time>2019-06-15T08:45:44.024Z</time>
      </trkpt>
      <trkpt lat="45.01967" lon="5.38317">
        <ele>516</ele>
        <time>2019-06-15T08:45:45.024Z</time>
      </trkpt>
      <trkpt lat="45.0197" lon="5.38318">
        <ele>516</ele>
        <time>2019-06-15T08:45:46.024Z</time>
      </trkpt>
      <trkpt lat="45.01972" lon="5.38318">
        <ele>515</ele>
        <time>2019-06-15T08:45:47.024Z</time>
      </trkpt>
      <trkpt lat="45.01975" lon="5.38319">
        <ele>514</ele>
        <time>2019-06-15T08:45:48.024Z</time>
      </trkpt>
      <trkpt lat="45.01978" lon="5.38319">
        <ele>513</ele>
        <time>2019-06-15T08:45:49.024Z</time>
      </trkpt>
      <trkpt lat="45.0198" lon="5.3832">
        <ele>512</ele>
        <time>2019-06-15T08:45:50.024Z</time>
      </trkpt>
      <trkpt lat="45.01983" lon="5.38321">
        <ele>511</ele>
        <time>2019-06-15T08:45:51.024Z</time>
      </trkpt>
      <trkpt lat="45.01986" lon="5.38321">
        <ele>510</ele>
        <time>2019-06-15T08:45:52.024Z</time>
      </trkpt>
      <trkpt lat="45.01988" lon="5.38322">
        <ele>509</ele>
        <time>2019-06-15T08:45:53.024Z</time>
      </trkpt>
      <trkpt lat="45.01991" lon="5.38323">
        <ele>508</ele>
        <time>2019-06-15T08:45:54.024Z</time>
      </trkpt>
      <trkpt lat="45.01994" lon="5.38325">
        <ele>507</ele>
        <time>2019-06-15T08:45:55.024Z</time>
      </trkpt>
      <trkpt lat="45.01996" lon="5.38326">
        <ele>506</ele>
        <time>2019-06-15T08:45:56.024Z</time>
      </trkpt>
      <trkpt lat="45.01999" lon="5.38328">
        <ele>505</ele>
        <time>2019-06-15T08:45:57.024Z</time>
      </trkpt>
      <trkpt lat="45.02" lon="5.38331">
        <ele>504</ele>
        <time>2019-06-15T08:45:58.024Z</time>
      </trkpt>
      <trkpt lat="45.02002" lon="5.38334">
        <ele>504</ele>
        <time>2019-06-15T08:45:59.024Z</time>
      </trkpt>
      <trkpt lat="45.02004" lon="5.38336">
        <ele>502</ele>
        <time>2019-06-15T08:46:00.024Z</time>
      </trkpt>
      <trkpt lat="45.02006" lon="5.38339">
        <ele>502</ele>
        <time>2019-06-15T08:46:01.024Z</time>
      </trkpt>
      <trkpt lat="45.02008" lon="5.38341">
        <ele>501</ele>
        <time>2019-06-15T08:46:02.024Z</time>
      </trkpt>
      <trkpt lat="45.0201" lon="5.38344">
        <ele>500</ele>
        <time>2019-06-15T08:46:03.024Z</time>
      </trkpt>
      <trkpt lat="45.02012" lon="5.38346">
        <ele>499</ele>
        <time>2019-06-15T08:46:04.024Z</time>
      </trkpt>
      <trkpt lat="45.02014" lon="5.38349">
        <ele>498</ele>
        <time>2019-06-15T08:46:05.024Z</time>
      </trkpt>
      <trkpt lat="45.02015" lon="5.38352">
        <ele>498</ele>
        <time>2019-06-15T08:46:06.024Z</time>
      </trkpt>
      <trkpt lat="45.02016" lon="5.38356">
        <ele>497</ele>
        <time>2019-06-15T08:46:07.024Z</time>
      </trkpt>
      <trkpt lat="45.02017" lon="5.38359">
        <ele>496</ele>
        <time>2019-06-15T08:46:08.024Z</time>
      </trkpt>
      <trkpt lat="45.02019" lon="5.38363">
        <ele>495</ele>
        <time>2019-06-15T08:46:09.024Z</time>
      </trkpt>
      <trkpt lat="45.0202" lon="5.38367">
        <ele>494</ele>
        <time>2019-06-15T08:46:10.024Z</time>
      </trkpt>
      <trkpt lat="45.02023" lon="5.3837">
        <ele>494</ele>
        <time>2019-06-15T08:46:11.024Z</time>
      </trkpt>
      <trkpt lat="45.02026" lon="5.38372">
        <ele>493</ele>
        <time>2019-06-15T08:46:12.024Z</time>
      </trkpt>
      <trkpt lat="45.02029" lon="5.38375">
        <ele>492</ele>
        <time>2019-06-15T08:46:13.024Z</time>
      </trkpt>
      <trkpt lat="45.02031" lon="5.38377">
        <ele>492</ele>
        <time>2019-06-15T08:46:14.024Z</time>
      </trkpt>
      <trkpt lat="45.02034" lon="5.38379">
        <ele>491</ele>
        <time>2019-06-15T08:46:15.024Z</time>
      </trkpt>
      <trkpt lat="45.02037" lon="5.38381">
        <ele>491</ele>
        <time>2019-06-15T08:46:16.024Z</time>
      </trkpt>
      <trkpt lat="45.02041" lon="5.38382">
        <ele>490</ele>
        <time>2019-06-15T08:46:17.024Z</time>
      </trkpt>
      <trkpt lat="45.02044" lon="5.38384">
        <ele>489</ele>
        <time>2019-06-15T08:46:18.024Z</time>
      </trkpt>
      <trkpt lat="45.02047" lon="5.38385">
        <ele>488</ele>
        <time>2019-06-15T08:46:19.024Z</time>
      </trkpt>
      <trkpt lat="45.0205" lon="5.38386">
        <ele>487</ele>
        <time>2019-06-15T08:46:20.024Z</time>
      </trkpt>
      <trkpt lat="45.02053" lon="5.38387">
        <ele>485</ele>
        <time>2019-06-15T08:46:21.024Z</time>
      </trkpt>
      <trkpt lat="45.02056" lon="5.38387">
        <ele>484</ele>
        <time>2019-06-15T08:46:22.024Z</time>
      </trkpt>
      <trkpt lat="45.0206" lon="5.38388">
        <ele>483</ele>
        <time>2019-06-15T08:46:23.024Z</time>
      </trkpt>
      <trkpt lat="45.02063" lon="5.38388">
        <ele>482</ele>
        <time>2019-06-15T08:46:24.024Z</time>
      </trkpt>
      <trkpt lat="45.02067" lon="5.38389">
        <ele>481</ele>
        <time>2019-06-15T08:46:25.024Z</time>
      </trkpt>
      <trkpt lat="45.0207" lon="5.38389">
        <ele>480</ele>
        <time>2019-06-15T08:46:26.024Z</time>
      </trkpt>
      <trkpt lat="45.02073" lon="5.3839">
        <ele>478</ele>
        <time>2019-06-15T08:46:27.024Z</time>
      </trkpt>
      <trkpt lat="45.02076" lon="5.3839">
        <ele>477</ele>
        <time>2019-06-15T08:46:28.024Z</time>
      </trkpt>
      <trkpt lat="45.02078" lon="5.38391">
        <ele>477</ele>
        <time>2019-06-15T08:46:29.024Z</time>
      </trkpt>
      <trkpt lat="45.02081" lon="5.38391">
        <ele>476</ele>
        <time>2019-06-15T08:46:30.024Z</time>
      </trkpt>
      <trkpt lat="45.02083" lon="5.38392">
        <ele>475</ele>
        <time>2019-06-15T08:46:31.024Z</time>
      </trkpt>
      <trkpt lat="45.02086" lon="5.38392">
        <ele>475</ele>
        <time>2019-06-15T08:46:32.024Z</time>
      </trkpt>
      <trkpt lat="45.02089" lon="5.38393">
        <ele>475</ele>
        <time>2019-06-15T08:46:33.024Z</time>
      </trkpt>
      <trkpt lat="45.02092" lon="5.38394">
        <ele>475</ele>
        <time>2019-06-15T08:46:34.024Z</time>
      </trkpt>
      <trkpt lat="45.02095" lon="5.38395">
        <ele>475</ele>
        <time>2019-06-15T08:46:35.024Z</time>
      </trkpt>
      <trkpt lat="45.02099" lon="5.38395">
        <ele>474</ele>
        <time>2019-06-15T08:46:36.024Z</time>
      </trkpt>
      <trkpt lat="45.02102" lon="5.38397">
        <ele>473</ele>
        <time>2019-06-15T08:46:37.024Z</time>
      </trkpt>
      <trkpt lat="45.02105" lon="5.38398">
        <ele>474</ele>
        <time>2019-06-15T08:46:38.024Z</time>
      </trkpt>
      <trkpt lat="45.02108" lon="5.38401">
        <ele>474</ele>
        <time>2019-06-15T08:46:39.024Z</time>
      </trkpt>
      <trkpt lat="45.02111" lon="5.38404">
        <ele>474</ele>
        <time>2019-06-15T08:46:40.024Z</time>
      </trkpt>
      <trkpt lat="45.02114" lon="5.38406">
        <ele>474</ele>
        <time>2019-06-15T08:46:41.024Z</time>
      </trkpt>
      <trkpt lat="45.02116" lon="5.38409">
        <ele>474</ele>
        <time>2019-06-15T08:46:42.024Z</time>
      </trkpt>
      <trkpt lat="45.02118" lon="5.38411">
        <ele>475</ele>
        <time>2019-06-15T08:46:43.024Z</time>
      </trkpt>
      <trkpt lat="45.02121" lon="5.38413">
        <ele>475</ele>
        <time>2019-06-15T08:46:44.024Z</time>
      </trkpt>
      <trkpt lat="45.02123" lon="5.38415">
        <ele>477</ele>
        <time>2019-06-15T08:46:45.024Z</time>
      </trkpt>
      <trkpt lat="45.02125" lon="5.38417">
        <ele>478</ele>
        <time>2019-06-15T08:46:46.024Z</time>
      </trkpt>
      <trkpt lat="45.02128" lon="5.3842">
        <ele>478</ele>
        <time>2019-06-15T08:46:47.024Z</time>
      </trkpt>
      <trkpt lat="45.0213" lon="5.38422">
        <ele>479</ele>
        <time>2019-06-15T08:46:48.024Z</time>
      </trkpt>
      <trkpt lat="45.02132" lon="5.38424">
        <ele>479</ele>
        <time>2019-06-15T08:46:49.024Z</time>
      </trkpt>
      <trkpt lat="45.02135" lon="5.38426">
        <ele>480</ele>
        <time>2019-06-15T08:46:50.024Z</time>
      </trkpt>
      <trkpt lat="45.02137" lon="5.38428">
        <ele>481</ele>
        <time>2019-06-15T08:46:51.024Z</time>
      </trkpt>
      <trkpt lat="45.02139" lon="5.3843">
        <ele>481</ele>
        <time>2019-06-15T08:46:52.024Z</time>
      </trkpt>
      <trkpt lat="45.02141" lon="5.38432">
        <ele>482</ele>
        <time>2019-06-15T08:46:53.024Z</time>
      </trkpt>
      <trkpt lat="45.02143" lon="5.38434">
        <ele>483</ele>
        <time>2019-06-15T08:46:54.024Z</time>
      </trkpt>
      <trkpt lat="45.02146" lon="5.38436">
        <ele>483</ele>
        <time>2019-06-15T08:46:55.024Z</time>
      </trkpt>
      <trkpt lat="45.02148" lon="5.38438">
        <ele>485</ele>
        <time>2019-06-15T08:46:56.024Z</time>
      </trkpt>
      <trkpt lat="45.0215" lon="5.3844">
        <ele>485</ele>
        <time>2019-06-15T08:46:57.024Z</time>
      </trkpt>
      <trkpt lat="45.02152" lon="5.38442">
        <ele>485</ele>
        <time>2019-06-15T08:46:58.024Z</time>
      </trkpt>
      <trkpt lat="45.02155" lon="5.38445">
        <ele>486</ele>
        <time>2019-06-15T08:46:59.024Z</time>
      </trkpt>
      <trkpt lat="45.02157" lon="5.38446">
        <ele>487</ele>
        <time>2019-06-15T08:47:00.024Z</time>
      </trkpt>
      <trkpt lat="45.02159" lon="5.38448">
        <ele>487</ele>
        <time>2019-06-15T08:47:01.024Z</time>
      </trkpt>
      <trkpt lat="45.02161" lon="5.3845">
        <ele>488</ele>
        <time>2019-06-15T08:47:02.024Z</time>
      </trkpt>
      <trkpt lat="45.02163" lon="5.38451">
        <ele>489</ele>
        <time>2019-06-15T08:47:03.024Z</time>
      </trkpt>
      <trkpt lat="45.02165" lon="5.38453">
        <ele>489</ele>
        <time>2019-06-15T08:47:04.024Z</time>
      </trkpt>
      <trkpt lat="45.02166" lon="5.38455">
        <ele>490</ele>
        <time>2019-06-15T08:47:05.024Z</time>
      </trkpt>
      <trkpt lat="45.02168" lon="5.38456">
        <ele>490</ele>
        <time>2019-06-15T08:47:06.024Z</time>
      </trkpt>
      <trkpt lat="45.0217" lon="5.38458">
        <ele>491</ele>
        <time>2019-06-15T08:47:07.024Z</time>
      </trkpt>
      <trkpt lat="45.02172" lon="5.38459">
        <ele>491</ele>
        <time>2019-06-15T08:47:08.024Z</time>
      </trkpt>
      <trkpt lat="45.02173" lon="5.38461">
        <ele>491</ele>
        <time>2019-06-15T08:47:09.024Z</time>
      </trkpt>
      <trkpt lat="45.02175" lon="5.38463">
        <ele>492</ele>
        <time>2019-06-15T08:47:10.024Z</time>
      </trkpt>
      <trkpt lat="45.02177" lon="5.38466">
        <ele>492</ele>
        <time>2019-06-15T08:47:11.024Z</time>
      </trkpt>
      <trkpt lat="45.02178" lon="5.38468">
        <ele>492</ele>
        <time>2019-06-15T08:47:12.024Z</time>
      </trkpt>
      <trkpt lat="45.0218" lon="5.3847">
        <ele>492</ele>
        <time>2019-06-15T08:47:13.024Z</time>
      </trkpt>
      <trkpt lat="45.02182" lon="5.38472">
        <ele>492</ele>
        <time>2019-06-15T08:47:14.024Z</time>
      </trkpt>
      <trkpt lat="45.02184" lon="5.38474">
        <ele>491</ele>
        <time>2019-06-15T08:47:15.024Z</time>
      </trkpt>
      <trkpt lat="45.02186" lon="5.38476">
        <ele>491</ele>
        <time>2019-06-15T08:47:16.024Z</time>
      </trkpt>
      <trkpt lat="45.02189" lon="5.38479">
        <ele>490</ele>
        <time>2019-06-15T08:47:17.024Z</time>
      </trkpt>
      <trkpt lat="45.02191" lon="5.38481">
        <ele>491</ele>
        <time>2019-06-15T08:47:18.024Z</time>
      </trkpt>
      <trkpt lat="45.02193" lon="5.38484">
        <ele>490</ele>
        <time>2019-06-15T08:47:19.024Z</time>
      </trkpt>
      <trkpt lat="45.02195" lon="5.38487">
        <ele>490</ele>
        <time>2019-06-15T08:47:20.024Z</time>
      </trkpt>
      <trkpt lat="45.02196" lon="5.38491">
        <ele>492</ele>
        <time>2019-06-15T08:47:21.024Z</time>
      </trkpt>
      <trkpt lat="45.02196" lon="5.38495">
        <ele>491</ele>
        <time>2019-06-15T08:47:22.024Z</time>
      </trkpt>
      <trkpt lat="45.02196" lon="5.38499">
        <ele>491</ele>
        <time>2019-06-15T08:47:23.024Z</time>
      </trkpt>
      <trkpt lat="45.02197" lon="5.38503">
        <ele>490</ele>
        <time>2019-06-15T08:47:24.024Z</time>
      </trkpt>
      <trkpt lat="45.02198" lon="5.38506">
        <ele>489</ele>
        <time>2019-06-15T08:47:25.024Z</time>
      </trkpt>
      <trkpt lat="45.022" lon="5.38509">
        <ele>489</ele>
        <time>2019-06-15T08:47:26.024Z</time>
      </trkpt>
      <trkpt lat="45.02201" lon="5.38512">
        <ele>488</ele>
        <time>2019-06-15T08:47:27.024Z</time>
      </trkpt>
      <trkpt lat="45.02202" lon="5.38515">
        <ele>488</ele>
        <time>2019-06-15T08:47:28.024Z</time>
      </trkpt>
      <trkpt lat="45.02204" lon="5.38519">
        <ele>488</ele>
        <time>2019-06-15T08:47:29.024Z</time>
      </trkpt>
      <trkpt lat="45.02205" lon="5.38522">
        <ele>487</ele>
        <time>2019-06-15T08:47:30.024Z</time>
      </trkpt>
      <trkpt lat="45.02206" lon="5.38525">
        <ele>487</ele>
        <time>2019-06-15T08:47:31.024Z</time>
      </trkpt>
      <trkpt lat="45.02208" lon="5.38528">
        <ele>486</ele>
        <time>2019-06-15T08:47:32.024Z</time>
      </trkpt>
      <trkpt lat="45.02209" lon="5.38531">
        <ele>486</ele>
        <time>2019-06-15T08:47:33.024Z</time>
      </trkpt>
      <trkpt lat="45.0221" lon="5.38533">
        <ele>485</ele>
        <time>2019-06-15T08:47:34.024Z</time>
      </trkpt>
      <trkpt lat="45.02212" lon="5.38536">
        <ele>485</ele>
        <time>2019-06-15T08:47:35.024Z</time>
      </trkpt>
      <trkpt lat="45.02213" lon="5.38539">
        <ele>484</ele>
        <time>2019-06-15T08:47:36.024Z</time>
      </trkpt>
      <trkpt lat="45.02215" lon="5.38541">
        <ele>484</ele>
        <time>2019-06-15T08:47:37.024Z</time>
      </trkpt>
      <trkpt lat="45.02217" lon="5.38543">
        <ele>483</ele>
        <time>2019-06-15T08:47:38.024Z</time>
      </trkpt>
      <trkpt lat="45.0222" lon="5.38545">
        <ele>484</ele>
        <time>2019-06-15T08:47:39.024Z</time>
      </trkpt>
      <trkpt lat="45.02222" lon="5.38547">
        <ele>483</ele>
        <time>2019-06-15T08:47:40.024Z</time>
      </trkpt>
      <trkpt lat="45.02223" lon="5.3855">
        <ele>483</ele>
        <time>2019-06-15T08:47:41.024Z</time>
      </trkpt>
      <trkpt lat="45.02224" lon="5.38554">
        <ele>482</ele>
        <time>2019-06-15T08:47:42.024Z</time>
      </trkpt>
      <trkpt lat="45.02224" lon="5.38558">
        <ele>481</ele>
        <time>2019-06-15T08:47:43.024Z</time>
      </trkpt>
      <trkpt lat="45.02225" lon="5.38562">
        <ele>481</ele>
        <time>2019-06-15T08:47:44.024Z</time>
      </trkpt>
      <trkpt lat="45.02226" lon="5.38566">
        <ele>481</ele>
        <time>2019-06-15T08:47:45.024Z</time>
      </trkpt>
      <trkpt lat="45.02227" lon="5.3857">
        <ele>480</ele>
        <time>2019-06-15T08:47:46.024Z</time>
      </trkpt>
      <trkpt lat="45.02228" lon="5.38574">
        <ele>480</ele>
        <time>2019-06-15T08:47:47.024Z</time>
      </trkpt>
      <trkpt lat="45.0223" lon="5.38578">
        <ele>479</ele>
        <time>2019-06-15T08:47:48.024Z</time>
      </trkpt>
      <trkpt lat="45.02231" lon="5.38582">
        <ele>478</ele>
        <time>2019-06-15T08:47:49.024Z</time>
      </trkpt>
      <trkpt lat="45.02233" lon="5.38585">
        <ele>477</ele>
        <time>2019-06-15T08:47:50.024Z</time>
      </trkpt>
      <trkpt lat="45.02234" lon="5.38588">
        <ele>477</ele>
        <time>2019-06-15T08:47:51.024Z</time>
      </trkpt>
      <trkpt lat="45.02236" lon="5.38591">
        <ele>476</ele>
        <time>2019-06-15T08:47:52.024Z</time>
      </trkpt>
      <trkpt lat="45.02237" lon="5.38593">
        <ele>476</ele>
        <time>2019-06-15T08:47:53.024Z</time>
      </trkpt>
      <trkpt lat="45.02239" lon="5.38595">
        <ele>475</ele>
        <time>2019-06-15T08:47:54.024Z</time>
      </trkpt>
      <trkpt lat="45.02241" lon="5.38598">
        <ele>474</ele>
        <time>2019-06-15T08:47:55.024Z</time>
      </trkpt>
      <trkpt lat="45.02243" lon="5.386">
        <ele>473</ele>
        <time>2019-06-15T08:47:56.024Z</time>
      </trkpt>
      <trkpt lat="45.02245" lon="5.38602">
        <ele>472</ele>
        <time>2019-06-15T08:47:57.024Z</time>
      </trkpt>
      <trkpt lat="45.02247" lon="5.38603">
        <ele>471</ele>
        <time>2019-06-15T08:47:58.024Z</time>
      </trkpt>
      <trkpt lat="45.0225" lon="5.38604">
        <ele>469</ele>
        <time>2019-06-15T08:47:59.024Z</time>
      </trkpt>
      <trkpt lat="45.02252" lon="5.38605">
        <ele>468</ele>
        <time>2019-06-15T08:48:00.024Z</time>
      </trkpt>
      <trkpt lat="45.02254" lon="5.38605">
        <ele>466</ele>
        <time>2019-06-15T08:48:01.024Z</time>
      </trkpt>
      <trkpt lat="45.02256" lon="5.38605">
        <ele>465</ele>
        <time>2019-06-15T08:48:02.024Z</time>
      </trkpt>
      <trkpt lat="45.02258" lon="5.38605">
        <ele>464</ele>
        <time>2019-06-15T08:48:03.024Z</time>
      </trkpt>
      <trkpt lat="45.0226" lon="5.38605">
        <ele>462</ele>
        <time>2019-06-15T08:48:04.024Z</time>
      </trkpt>
      <trkpt lat="45.02262" lon="5.38605">
        <ele>460</ele>
        <time>2019-06-15T08:48:05.024Z</time>
      </trkpt>
      <trkpt lat="45.02264" lon="5.38604">
        <ele>459</ele>
        <time>2019-06-15T08:48:06.024Z</time>
      </trkpt>
      <trkpt lat="45.02267" lon="5.38604">
        <ele>457</ele>
        <time>2019-06-15T08:48:07.024Z</time>
      </trkpt>
      <trkpt lat="45.02269" lon="5.38603">
        <ele>456</ele>
        <time>2019-06-15T08:48:08.024Z</time>
      </trkpt>
      <trkpt lat="45.02271" lon="5.38603">
        <ele>454</ele>
        <time>2019-06-15T08:48:09.024Z</time>
      </trkpt>
      <trkpt lat="45.02273" lon="5.38602">
        <ele>452</ele>
        <time>2019-06-15T08:48:10.024Z</time>
      </trkpt>
      <trkpt lat="45.02275" lon="5.38602">
        <ele>451</ele>
        <time>2019-06-15T08:48:11.024Z</time>
      </trkpt>
      <trkpt lat="45.02278" lon="5.38603">
        <ele>449</ele>
        <time>2019-06-15T08:48:12.024Z</time>
      </trkpt>
      <trkpt lat="45.0228" lon="5.38604">
        <ele>448</ele>
        <time>2019-06-15T08:48:13.024Z</time>
      </trkpt>
      <trkpt lat="45.02283" lon="5.38606">
        <ele>448</ele>
        <time>2019-06-15T08:48:14.024Z</time>
      </trkpt>
      <trkpt lat="45.02284" lon="5.38608">
        <ele>447</ele>
        <time>2019-06-15T08:48:15.024Z</time>
      </trkpt>
      <trkpt lat="45.02285" lon="5.3861">
        <ele>448</ele>
        <time>2019-06-15T08:48:16.024Z</time>
      </trkpt>
      <trkpt lat="45.02285" lon="5.38612">
        <ele>447</ele>
        <time>2019-06-15T08:48:17.024Z</time>
      </trkpt>
      <trkpt lat="45.02285" lon="5.38615">
        <ele>445</ele>
        <time>2019-06-15T08:48:18.024Z</time>
      </trkpt>
      <trkpt lat="45.02285" lon="5.38616">
        <ele>445</ele>
        <time>2019-06-15T08:48:19.024Z</time>
      </trkpt>
      <trkpt lat="45.02284" lon="5.38618">
        <ele>444</ele>
        <time>2019-06-15T08:48:20.024Z</time>
      </trkpt>
      <trkpt lat="45.02283" lon="5.38619">
        <ele>443</ele>
        <time>2019-06-15T08:48:21.024Z</time>
      </trkpt>
      <trkpt lat="45.02282" lon="5.3862">
        <ele>442</ele>
        <time>2019-06-15T08:48:22.024Z</time>
      </trkpt>
      <trkpt lat="45.02281" lon="5.38622">
        <ele>441</ele>
        <time>2019-06-15T08:48:23.024Z</time>
      </trkpt>
      <trkpt lat="45.0228" lon="5.38623">
        <ele>440</ele>
        <time>2019-06-15T08:48:24.024Z</time>
      </trkpt>
      <trkpt lat="45.0228" lon="5.38625">
        <ele>439</ele>
        <time>2019-06-15T08:48:25.024Z</time>
      </trkpt>
      <trkpt lat="45.02279" lon="5.38628">
        <ele>437</ele>
        <time>2019-06-15T08:48:26.024Z</time>
      </trkpt>
      <trkpt lat="45.02278" lon="5.3863">
        <ele>434</ele>
        <time>2019-06-15T08:48:27.024Z</time>
      </trkpt>
      <trkpt lat="45.02277" lon="5.38633">
        <ele>431</ele>
        <time>2019-06-15T08:48:28.024Z</time>
      </trkpt>
      <trkpt lat="45.02276" lon="5.38637">
        <ele>428</ele>
        <time>2019-06-15T08:48:29.024Z</time>
      </trkpt>
      <trkpt lat="45.02275" lon="5.3864">
        <ele>428</ele>
        <time>2019-06-15T08:48:30.024Z</time>
      </trkpt>
      <trkpt lat="45.02273" lon="5.38644">
        <ele>428</ele>
        <time>2019-06-15T08:48:31.024Z</time>
      </trkpt>
      <trkpt lat="45.02272" lon="5.38647">
        <ele>427</ele>
        <time>2019-06-15T08:48:32.024Z</time>
      </trkpt>
      <trkpt lat="45.02271" lon="5.38651">
        <ele>426</ele>
        <time>2019-06-15T08:48:33.024Z</time>
      </trkpt>
      <trkpt lat="45.0227" lon="5.38656">
        <ele>427</ele>
        <time>2019-06-15T08:48:34.024Z</time>
      </trkpt>
      <trkpt lat="45.02269" lon="5.38661">
        <ele>428</ele>
        <time>2019-06-15T08:48:35.024Z</time>
      </trkpt>
      <trkpt lat="45.02269" lon="5.38667">
        <ele>430</ele>
        <time>2019-06-15T08:48:36.024Z</time>
      </trkpt>
      <trkpt lat="45.02269" lon="5.38673">
        <ele>432</ele>
        <time>2019-06-15T08:48:37.024Z</time>
      </trkpt>
      <trkpt lat="45.02268" lon="5.38678">
        <ele>432</ele>
        <time>2019-06-15T08:48:38.024Z</time>
      </trkpt>
      <trkpt lat="45.02267" lon="5.38683">
        <ele>432</ele>
        <time>2019-06-15T08:48:39.024Z</time>
      </trkpt>
      <trkpt lat="45.02265" lon="5.38688">
        <ele>434</ele>
        <time>2019-06-15T08:48:40.024Z</time>
      </trkpt>
      <trkpt lat="45.02264" lon="5.38693">
        <ele>437</ele>
        <time>2019-06-15T08:48:41.024Z</time>
      </trkpt>
      <trkpt lat="45.02263" lon="5.38699">
        <ele>438</ele>
        <time>2019-06-15T08:48:42.024Z</time>
      </trkpt>
      <trkpt lat="45.02262" lon="5.38704">
        <ele>439</ele>
        <time>2019-06-15T08:48:43.024Z</time>
      </trkpt>
      <trkpt lat="45.02263" lon="5.38709">
        <ele>439</ele>
        <time>2019-06-15T08:48:44.024Z</time>
      </trkpt>
      <trkpt lat="45.02263" lon="5.38714">
        <ele>439</ele>
        <time>2019-06-15T08:48:45.024Z</time>
      </trkpt>
      <trkpt lat="45.02264" lon="5.38718">
        <ele>438</ele>
        <time>2019-06-15T08:48:46.024Z</time>
      </trkpt>
      <trkpt lat="45.02265" lon="5.38722">
        <ele>437</ele>
        <time>2019-06-15T08:48:47.024Z</time>
      </trkpt>
      <trkpt lat="45.02266" lon="5.38726">
        <ele>437</ele>
        <time>2019-06-15T08:48:48.024Z</time>
      </trkpt>
      <trkpt lat="45.02267" lon="5.3873">
        <ele>436</ele>
        <time>2019-06-15T08:48:49.024Z</time>
      </trkpt>
      <trkpt lat="45.02268" lon="5.38732">
        <ele>435</ele>
        <time>2019-06-15T08:48:50.024Z</time>
      </trkpt>
      <trkpt lat="45.0227" lon="5.38734">
        <ele>433</ele>
        <time>2019-06-15T08:48:51.024Z</time>
      </trkpt>
      <trkpt lat="45.02272" lon="5.38733">
        <ele>434</ele>
        <time>2019-06-15T08:48:52.024Z</time>
      </trkpt>
      <trkpt lat="45.02273" lon="5.38732">
        <ele>432</ele>
        <time>2019-06-15T08:48:53.024Z</time>
      </trkpt>
      <trkpt lat="45.02274" lon="5.3873">
        <ele>431</ele>
        <time>2019-06-15T08:48:54.024Z</time>
      </trkpt>
      <trkpt lat="45.02275" lon="5.38728">
        <ele>430</ele>
        <time>2019-06-15T08:48:55.024Z</time>
      </trkpt>
      <trkpt lat="45.02276" lon="5.38725">
        <ele>429</ele>
        <time>2019-06-15T08:48:56.024Z</time>
      </trkpt>
      <trkpt lat="45.02276" lon="5.38722">
        <ele>427</ele>
        <time>2019-06-15T08:48:57.024Z</time>
      </trkpt>
      <trkpt lat="45.02277" lon="5.38719">
        <ele>424</ele>
        <time>2019-06-15T08:48:58.024Z</time>
      </trkpt>
      <trkpt lat="45.02278" lon="5.38717">
        <ele>423</ele>
        <time>2019-06-15T08:48:59.024Z</time>
      </trkpt>
      <trkpt lat="45.02279" lon="5.38714">
        <ele>421</ele>
        <time>2019-06-15T08:49:00.024Z</time>
      </trkpt>
      <trkpt lat="45.02279" lon="5.38712">
        <ele>419</ele>
        <time>2019-06-15T08:49:01.024Z</time>
      </trkpt>
      <trkpt lat="45.0228" lon="5.38709">
        <ele>418</ele>
        <time>2019-06-15T08:49:02.024Z</time>
      </trkpt>
      <trkpt lat="45.02281" lon="5.38706">
        <ele>417</ele>
        <time>2019-06-15T08:49:03.024Z</time>
      </trkpt>
      <trkpt lat="45.02282" lon="5.38702">
        <ele>415</ele>
        <time>2019-06-15T08:49:04.024Z</time>
      </trkpt>
      <trkpt lat="45.02283" lon="5.38699">
        <ele>414</ele>
        <time>2019-06-15T08:49:05.024Z</time>
      </trkpt>
      <trkpt lat="45.02285" lon="5.38695">
        <ele>412</ele>
        <time>2019-06-15T08:49:06.024Z</time>
      </trkpt>
      <trkpt lat="45.02286" lon="5.38692">
        <ele>411</ele>
        <time>2019-06-15T08:49:07.024Z</time>
      </trkpt>
      <trkpt lat="45.02288" lon="5.38689">
        <ele>410</ele>
        <time>2019-06-15T08:49:08.024Z</time>
      </trkpt>
      <trkpt lat="45.02289" lon="5.38687">
        <ele>408</ele>
        <time>2019-06-15T08:49:09.024Z</time>
      </trkpt>
      <trkpt lat="45.02291" lon="5.38684">
        <ele>408</ele>
        <time>2019-06-15T08:49:10.024Z</time>
      </trkpt>
      <trkpt lat="45.02293" lon="5.38682">
        <ele>407</ele>
        <time>2019-06-15T08:49:11.024Z</time>
      </trkpt>
      <trkpt lat="45.02296" lon="5.3868">
        <ele>405</ele>
        <time>2019-06-15T08:49:12.024Z</time>
      </trkpt>
      <trkpt lat="45.02298" lon="5.38678">
        <ele>404</ele>
        <time>2019-06-15T08:49:13.024Z</time>
      </trkpt>
      <trkpt lat="45.02301" lon="5.38676">
        <ele>404</ele>
        <time>2019-06-15T08:49:14.024Z</time>
      </trkpt>
      <trkpt lat="45.02303" lon="5.38674">
        <ele>405</ele>
        <time>2019-06-15T08:49:15.024Z</time>
      </trkpt>
      <trkpt lat="45.02305" lon="5.38673">
        <ele>403</ele>
        <time>2019-06-15T08:49:16.024Z</time>
      </trkpt>
      <trkpt lat="45.02307" lon="5.38671">
        <ele>402</ele>
        <time>2019-06-15T08:49:17.024Z</time>
      </trkpt>
      <trkpt lat="45.02309" lon="5.38668">
        <ele>403</ele>
        <time>2019-06-15T08:49:18.024Z</time>
      </trkpt>
      <trkpt lat="45.02312" lon="5.38666">
        <ele>401</ele>
        <time>2019-06-15T08:49:19.024Z</time>
      </trkpt>
      <trkpt lat="45.02315" lon="5.38664">
        <ele>401</ele>
        <time>2019-06-15T08:49:20.024Z</time>
      </trkpt>
      <trkpt lat="45.02317" lon="5.38661">
        <ele>400</ele>
        <time>2019-06-15T08:49:21.024Z</time>
      </trkpt>
      <trkpt lat="45.02319" lon="5.38659">
        <ele>400</ele>
        <time>2019-06-15T08:49:22.024Z</time>
      </trkpt>
      <trkpt lat="45.02321" lon="5.38656">
        <ele>399</ele>
        <time>2019-06-15T08:49:23.024Z</time>
      </trkpt>
      <trkpt lat="45.02324" lon="5.38654">
        <ele>398</ele>
        <time>2019-06-15T08:49:24.024Z</time>
      </trkpt>
      <trkpt lat="45.02326" lon="5.38651">
        <ele>397</ele>
        <time>2019-06-15T08:49:25.024Z</time>
      </trkpt>
      <trkpt lat="45.02327" lon="5.38648">
        <ele>396</ele>
        <time>2019-06-15T08:49:26.024Z</time>
      </trkpt>
      <trkpt lat="45.02329" lon="5.38645">
        <ele>395</ele>
        <time>2019-06-15T08:49:27.024Z</time>
      </trkpt>
      <trkpt lat="45.02329" lon="5.38642">
        <ele>395</ele>
        <time>2019-06-15T08:49:28.024Z</time>
      </trkpt>
      <trkpt lat="45.0233" lon="5.38639">
        <ele>394</ele>
        <time>2019-06-15T08:49:29.024Z</time>
      </trkpt>
      <trkpt lat="45.0233" lon="5.38636">
        <ele>393</ele>
        <time>2019-06-15T08:49:30.024Z</time>
      </trkpt>
      <trkpt lat="45.02331" lon="5.38633">
        <ele>393</ele>
        <time>2019-06-15T08:49:31.024Z</time>
      </trkpt>
      <trkpt lat="45.02331" lon="5.3863">
        <ele>393</ele>
        <time>2019-06-15T08:49:32.024Z</time>
      </trkpt>
      <trkpt lat="45.02332" lon="5.38627">
        <ele>392</ele>
        <time>2019-06-15T08:49:33.024Z</time>
      </trkpt>
      <trkpt lat="45.02333" lon="5.38624">
        <ele>391</ele>
        <time>2019-06-15T08:49:34.024Z</time>
      </trkpt>
      <trkpt lat="45.02334" lon="5.38621">
        <ele>391</ele>
        <time>2019-06-15T08:49:35.024Z</time>
      </trkpt>
      <trkpt lat="45.02336" lon="5.38619">
        <ele>391</ele>
        <time>2019-06-15T08:49:36.024Z</time>
      </trkpt>
      <trkpt lat="45.02337" lon="5.38616">
        <ele>391</ele>
        <time>2019-06-15T08:49:37.024Z</time>
      </trkpt>
      <trkpt lat="45.02338" lon="5.38613">
        <ele>390</ele>
        <time>2019-06-15T08:49:38.024Z</time>
      </trkpt>
      <trkpt lat="45.02339" lon="5.38611">
        <ele>388</ele>
        <time>2019-06-15T08:49:39.024Z</time>
      </trkpt>
      <trkpt lat="45.0234" lon="5.38609">
        <ele>387</ele>
        <time>2019-06-15T08:49:40.024Z</time>
      </trkpt>
      <trkpt lat="45.02341" lon="5.38606">
        <ele>387</ele>
        <time>2019-06-15T08:49:41.024Z</time>
      </trkpt>
      <trkpt lat="45.02341" lon="5.38603">
        <ele>386</ele>
        <time>2019-06-15T08:49:42.024Z</time>
      </trkpt>
      <trkpt lat="45.02342" lon="5.386">
        <ele>386</ele>
        <time>2019-06-15T08:49:43.024Z</time>
      </trkpt>
      <trkpt lat="45.02343" lon="5.38597">
        <ele>384</ele>
        <time>2019-06-15T08:49:44.024Z</time>
      </trkpt>
      <trkpt lat="45.02345" lon="5.38594">
        <ele>385</ele>
        <time>2019-06-15T08:49:45.024Z</time>
      </trkpt>
      <trkpt lat="45.02346" lon="5.38592">
        <ele>384</ele>
        <time>2019-06-15T08:49:46.024Z</time>
      </trkpt>
      <trkpt lat="45.02347" lon="5.38589">
        <ele>382</ele>
        <time>2019-06-15T08:49:47.024Z</time>
      </trkpt>
      <trkpt lat="45.02348" lon="5.38586">
        <ele>382</ele>
        <time>2019-06-15T08:49:48.024Z</time>
      </trkpt>
      <trkpt lat="45.02349" lon="5.38583">
        <ele>382</ele>
        <time>2019-06-15T08:49:49.024Z</time>
      </trkpt>
      <trkpt lat="45.02351" lon="5.38581">
        <ele>381</ele>
        <time>2019-06-15T08:49:50.024Z</time>
      </trkpt>
      <trkpt lat="45.02353" lon="5.38578">
        <ele>381</ele>
        <time>2019-06-15T08:49:51.024Z</time>
      </trkpt>
      <trkpt lat="45.02355" lon="5.38574">
        <ele>379</ele>
        <time>2019-06-15T08:49:52.024Z</time>
      </trkpt>
      <trkpt lat="45.02357" lon="5.3857">
        <ele>380</ele>
        <time>2019-06-15T08:49:53.024Z</time>
      </trkpt>
      <trkpt lat="45.02359" lon="5.38566">
        <ele>379</ele>
        <time>2019-06-15T08:49:54.024Z</time>
      </trkpt>
      <trkpt lat="45.02361" lon="5.38562">
        <ele>379</ele>
        <time>2019-06-15T08:49:55.024Z</time>
      </trkpt>
      <trkpt lat="45.02363" lon="5.38558">
        <ele>378</ele>
        <time>2019-06-15T08:49:56.024Z</time>
      </trkpt>
      <trkpt lat="45.02365" lon="5.38555">
        <ele>377</ele>
        <time>2019-06-15T08:49:57.024Z</time>
      </trkpt>
      <trkpt lat="45.02369" lon="5.38551">
        <ele>378</ele>
        <time>2019-06-15T08:49:58.024Z</time>
      </trkpt>
      <trkpt lat="45.02372" lon="5.38548">
        <ele>378</ele>
        <time>2019-06-15T08:49:59.024Z</time>
      </trkpt>
      <trkpt lat="45.02375" lon="5.38545">
        <ele>378</ele>
        <time>2019-06-15T08:50:00.024Z</time>
      </trkpt>
      <trkpt lat="45.02378" lon="5.38542">
        <ele>377</ele>
        <time>2019-06-15T08:50:01.024Z</time>
      </trkpt>
      <trkpt lat="45.0238" lon="5.38539">
        <ele>377</ele>
        <time>2019-06-15T08:50:02.024Z</time>
      </trkpt>
      <trkpt lat="45.02383" lon="5.38536">
        <ele>377</ele>
        <time>2019-06-15T08:50:03.024Z</time>
      </trkpt>
      <trkpt lat="45.02385" lon="5.38533">
        <ele>376</ele>
        <time>2019-06-15T08:50:04.024Z</time>
      </trkpt>
      <trkpt lat="45.02388" lon="5.3853">
        <ele>375</ele>
        <time>2019-06-15T08:50:05.024Z</time>
      </trkpt>
      <trkpt lat="45.0239" lon="5.38527">
        <ele>374</ele>
        <time>2019-06-15T08:50:06.024Z</time>
      </trkpt>
      <trkpt lat="45.02392" lon="5.38524">
        <ele>374</ele>
        <time>2019-06-15T08:50:07.024Z</time>
      </trkpt>
      <trkpt lat="45.02395" lon="5.38521">
        <ele>374</ele>
        <time>2019-06-15T08:50:08.024Z</time>
      </trkpt>
      <trkpt lat="45.02397" lon="5.38517">
        <ele>374</ele>
        <time>2019-06-15T08:50:09.024Z</time>
      </trkpt>
      <trkpt lat="45.02399" lon="5.38514">
        <ele>373</ele>
        <time>2019-06-15T08:50:10.024Z</time>
      </trkpt>
      <trkpt lat="45.02402" lon="5.3851">
        <ele>373</ele>
        <time>2019-06-15T08:50:11.024Z</time>
      </trkpt>
      <trkpt lat="45.02404" lon="5.38506">
        <ele>374</ele>
        <time>2019-06-15T08:50:12.024Z</time>
      </trkpt>
      <trkpt lat="45.02407" lon="5.38502">
        <ele>376</ele>
        <time>2019-06-15T08:50:13.024Z</time>
      </trkpt>
      <trkpt lat="45.0241" lon="5.38498">
        <ele>378</ele>
        <time>2019-06-15T08:50:14.024Z</time>
      </trkpt>
      <trkpt lat="45.02413" lon="5.38494">
        <ele>378</ele>
        <time>2019-06-15T08:50:15.024Z</time>
      </trkpt>
      <trkpt lat="45.02416" lon="5.38493">
        <ele>378</ele>
        <time>2019-06-15T08:50:16.024Z</time>
      </trkpt>
      <trkpt lat="45.02419" lon="5.38492">
        <ele>378</ele>
        <time>2019-06-15T08:50:17.024Z</time>
      </trkpt>
      <trkpt lat="45.02421" lon="5.38492">
        <ele>377</ele>
        <time>2019-06-15T08:50:18.024Z</time>
      </trkpt>
      <trkpt lat="45.02424" lon="5.38493">
        <ele>377</ele>
        <time>2019-06-15T08:50:19.024Z</time>
      </trkpt>
      <trkpt lat="45.02427" lon="5.38494">
        <ele>377</ele>
        <time>2019-06-15T08:50:20.024Z</time>
      </trkpt>
      <trkpt lat="45.0243" lon="5.38496">
        <ele>377</ele>
        <time>2019-06-15T08:50:21.024Z</time>
      </trkpt>
      <trkpt lat="45.02433" lon="5.38497">
        <ele>377</ele>
        <time>2019-06-15T08:50:22.024Z</time>
      </trkpt>
      <trkpt lat="45.02435" lon="5.38499">
        <ele>378</ele>
        <time>2019-06-15T08:50:23.024Z</time>
      </trkpt>
      <trkpt lat="45.02438" lon="5.38501">
        <ele>378</ele>
        <time>2019-06-15T08:50:24.024Z</time>
      </trkpt>
      <trkpt lat="45.02442" lon="5.38504">
        <ele>379</ele>
        <time>2019-06-15T08:50:25.024Z</time>
      </trkpt>
      <trkpt lat="45.02445" lon="5.38507">
        <ele>379</ele>
        <time>2019-06-15T08:50:26.024Z</time>
      </trkpt>
      <trkpt lat="45.02448" lon="5.3851">
        <ele>379</ele>
        <time>2019-06-15T08:50:27.024Z</time>
      </trkpt>
      <trkpt lat="45.02452" lon="5.38513">
        <ele>379</ele>
        <time>2019-06-15T08:50:28.024Z</time>
      </trkpt>
      <trkpt lat="45.02455" lon="5.38517">
        <ele>379</ele>
        <time>2019-06-15T08:50:29.024Z</time>
      </trkpt>
      <trkpt lat="45.02458" lon="5.38521">
        <ele>379</ele>
        <time>2019-06-15T08:50:30.024Z</time>
      </trkpt>
      <trkpt lat="45.02461" lon="5.38524">
        <ele>379</ele>
        <time>2019-06-15T08:50:31.024Z</time>
      </trkpt>
      <trkpt lat="45.02464" lon="5.38528">
        <ele>379</ele>
        <time>2019-06-15T08:50:32.024Z</time>
      </trkpt>
      <trkpt lat="45.02468" lon="5.38531">
        <ele>379</ele>
        <time>2019-06-15T08:50:33.024Z</time>
      </trkpt>
      <trkpt lat="45.02471" lon="5.38534">
        <ele>378</ele>
        <time>2019-06-15T08:50:34.024Z</time>
      </trkpt>
      <trkpt lat="45.02474" lon="5.38537">
        <ele>378</ele>
        <time>2019-06-15T08:50:35.024Z</time>
      </trkpt>
      <trkpt lat="45.02477" lon="5.3854">
        <ele>377</ele>
        <time>2019-06-15T08:50:36.024Z</time>
      </trkpt>
      <trkpt lat="45.0248" lon="5.38543">
        <ele>376</ele>
        <time>2019-06-15T08:50:37.024Z</time>
      </trkpt>
      <trkpt lat="45.02484" lon="5.38546">
        <ele>376</ele>
        <time>2019-06-15T08:50:38.024Z</time>
      </trkpt>
      <trkpt lat="45.02487" lon="5.38548">
        <ele>376</ele>
        <time>2019-06-15T08:50:39.024Z</time>
      </trkpt>
      <trkpt lat="45.02491" lon="5.3855">
        <ele>374</ele>
        <time>2019-06-15T08:50:40.024Z</time>
      </trkpt>
      <trkpt lat="45.02494" lon="5.38552">
        <ele>373</ele>
        <time>2019-06-15T08:50:41.024Z</time>
      </trkpt>
      <trkpt lat="45.02498" lon="5.38553">
        <ele>372</ele>
        <time>2019-06-15T08:50:42.024Z</time>
      </trkpt>
      <trkpt lat="45.02501" lon="5.38553">
        <ele>371</ele>
        <time>2019-06-15T08:50:43.024Z</time>
      </trkpt>
      <trkpt lat="45.02505" lon="5.38552">
        <ele>371</ele>
        <time>2019-06-15T08:50:44.024Z</time>
      </trkpt>
      <trkpt lat="45.02508" lon="5.38551">
        <ele>371</ele>
        <time>2019-06-15T08:50:45.024Z</time>
      </trkpt>
      <trkpt lat="45.02511" lon="5.38549">
        <ele>370</ele>
        <time>2019-06-15T08:50:46.024Z</time>
      </trkpt>
      <trkpt lat="45.02514" lon="5.38547">
        <ele>370</ele>
        <time>2019-06-15T08:50:47.024Z</time>
      </trkpt>
      <trkpt lat="45.02517" lon="5.38545">
        <ele>369</ele>
        <time>2019-06-15T08:50:48.024Z</time>
      </trkpt>
      <trkpt lat="45.0252" lon="5.38542">
        <ele>368</ele>
        <time>2019-06-15T08:50:49.024Z</time>
      </trkpt>
      <trkpt lat="45.02523" lon="5.38539">
        <ele>368</ele>
        <time>2019-06-15T08:50:50.024Z</time>
      </trkpt>
      <trkpt lat="45.02526" lon="5.38536">
        <ele>367</ele>
        <time>2019-06-15T08:50:51.024Z</time>
      </trkpt>
      <trkpt lat="45.02529" lon="5.38534">
        <ele>367</ele>
        <time>2019-06-15T08:50:52.024Z</time>
      </trkpt>
      <trkpt lat="45.02532" lon="5.38531">
        <ele>366</ele>
        <time>2019-06-15T08:50:53.024Z</time>
      </trkpt>
      <trkpt lat="45.02535" lon="5.38528">
        <ele>366</ele>
        <time>2019-06-15T08:50:54.024Z</time>
      </trkpt>
      <trkpt lat="45.02538" lon="5.38525">
        <ele>366</ele>
        <time>2019-06-15T08:50:55.024Z</time>
      </trkpt>
      <trkpt lat="45.02541" lon="5.38523">
        <ele>366</ele>
        <time>2019-06-15T08:50:56.024Z</time>
      </trkpt>
      <trkpt lat="45.02544" lon="5.38521">
        <ele>366</ele>
        <time>2019-06-15T08:50:57.024Z</time>
      </trkpt>
      <trkpt lat="45.02547" lon="5.38519">
        <ele>366</ele>
        <time>2019-06-15T08:50:58.024Z</time>
      </trkpt>
      <trkpt lat="45.02551" lon="5.38517">
        <ele>365</ele>
        <time>2019-06-15T08:50:59.024Z</time>
      </trkpt>
      <trkpt lat="45.02554" lon="5.38516">
        <ele>365</ele>
        <time>2019-06-15T08:51:00.024Z</time>
      </trkpt>
      <trkpt lat="45.02557" lon="5.38515">
        <ele>365</ele>
        <time>2019-06-15T08:51:01.024Z</time>
      </trkpt>
      <trkpt lat="45.02561" lon="5.38514">
        <ele>364</ele>
        <time>2019-06-15T08:51:02.024Z</time>
      </trkpt>
      <trkpt lat="45.02564" lon="5.38513">
        <ele>364</ele>
        <time>2019-06-15T08:51:03.024Z</time>
      </trkpt>
      <trkpt lat="45.02567" lon="5.38512">
        <ele>363</ele>
        <time>2019-06-15T08:51:04.024Z</time>
      </trkpt>
      <trkpt lat="45.02571" lon="5.3851">
        <ele>363</ele>
        <time>2019-06-15T08:51:05.024Z</time>
      </trkpt>
      <trkpt lat="45.02574" lon="5.38509">
        <ele>362</ele>
        <time>2019-06-15T08:51:06.024Z</time>
      </trkpt>
      <trkpt lat="45.02578" lon="5.38507">
        <ele>361</ele>
        <time>2019-06-15T08:51:07.024Z</time>
      </trkpt>
      <trkpt lat="45.02581" lon="5.38505">
        <ele>360</ele>
        <time>2019-06-15T08:51:08.024Z</time>
      </trkpt>
      <trkpt lat="45.02584" lon="5.38502">
        <ele>361</ele>
        <time>2019-06-15T08:51:09.024Z</time>
      </trkpt>
      <trkpt lat="45.02587" lon="5.38499">
        <ele>362</ele>
        <time>2019-06-15T08:51:10.024Z</time>
      </trkpt>
      <trkpt lat="45.0259" lon="5.38495">
        <ele>364</ele>
        <time>2019-06-15T08:51:11.024Z</time>
      </trkpt>
      <trkpt lat="45.02593" lon="5.3849">
        <ele>364</ele>
        <time>2019-06-15T08:51:12.024Z</time>
      </trkpt>
      <trkpt lat="45.02596" lon="5.38486">
        <ele>365</ele>
        <time>2019-06-15T08:51:13.024Z</time>
      </trkpt>
      <trkpt lat="45.02599" lon="5.38483">
        <ele>364</ele>
        <time>2019-06-15T08:51:14.024Z</time>
      </trkpt>
      <trkpt lat="45.02603" lon="5.38481">
        <ele>364</ele>
        <time>2019-06-15T08:51:15.024Z</time>
      </trkpt>
      <trkpt lat="45.02606" lon="5.38478">
        <ele>363</ele>
        <time>2019-06-15T08:51:16.024Z</time>
      </trkpt>
      <trkpt lat="45.02609" lon="5.38476">
        <ele>363</ele>
        <time>2019-06-15T08:51:17.024Z</time>
      </trkpt>
      <trkpt lat="45.02613" lon="5.38475">
        <ele>361</ele>
        <time>2019-06-15T08:51:18.024Z</time>
      </trkpt>
      <trkpt lat="45.02617" lon="5.38473">
        <ele>361</ele>
        <time>2019-06-15T08:51:19.024Z</time>
      </trkpt>
      <trkpt lat="45.0262" lon="5.38472">
        <ele>361</ele>
        <time>2019-06-15T08:51:20.024Z</time>
      </trkpt>
      <trkpt lat="45.02623" lon="5.3847">
        <ele>361</ele>
        <time>2019-06-15T08:51:21.024Z</time>
      </trkpt>
      <trkpt lat="45.02627" lon="5.38469">
        <ele>360</ele>
        <time>2019-06-15T08:51:22.024Z</time>
      </trkpt>
      <trkpt lat="45.0263" lon="5.38468">
        <ele>360</ele>
        <time>2019-06-15T08:51:23.024Z</time>
      </trkpt>
      <trkpt lat="45.02633" lon="5.38467">
        <ele>360</ele>
        <time>2019-06-15T08:51:24.024Z</time>
      </trkpt>
      <trkpt lat="45.02637" lon="5.38466">
        <ele>360</ele>
        <time>2019-06-15T08:51:25.024Z</time>
      </trkpt>
      <trkpt lat="45.0264" lon="5.38465">
        <ele>358</ele>
        <time>2019-06-15T08:51:26.024Z</time>
      </trkpt>
      <trkpt lat="45.02643" lon="5.38465">
        <ele>358</ele>
        <time>2019-06-15T08:51:27.024Z</time>
      </trkpt>
      <trkpt lat="45.02647" lon="5.38464">
        <ele>358</ele>
        <time>2019-06-15T08:51:28.024Z</time>
      </trkpt>
      <trkpt lat="45.02651" lon="5.38464">
        <ele>358</ele>
        <time>2019-06-15T08:51:29.024Z</time>
      </trkpt>
      <trkpt lat="45.02654" lon="5.38464">
        <ele>357</ele>
        <time>2019-06-15T08:51:30.024Z</time>
      </trkpt>
      <trkpt lat="45.02658" lon="5.38463">
        <ele>357</ele>
        <time>2019-06-15T08:51:31.024Z</time>
      </trkpt>
      <trkpt lat="45.02661" lon="5.38462">
        <ele>358</ele>
        <time>2019-06-15T08:51:32.024Z</time>
      </trkpt>
      <trkpt lat="45.02664" lon="5.3846">
        <ele>357</ele>
        <time>2019-06-15T08:51:33.024Z</time>
      </trkpt>
      <trkpt lat="45.02666" lon="5.38459">
        <ele>358</ele>
        <time>2019-06-15T08:51:34.024Z</time>
      </trkpt>
      <trkpt lat="45.02666" lon="5.38458">
        <ele>360</ele>
        <time>2019-06-15T08:51:35.024Z</time>
      </trkpt>
      <trkpt lat="45.02666" lon="5.38457">
        <ele>360</ele>
        <time>2019-06-15T08:51:36.024Z</time>
      </trkpt>
      <trkpt lat="45.02667" lon="5.38456">
        <ele>359</ele>
        <time>2019-06-15T08:51:37.024Z</time>
      </trkpt>
      <trkpt lat="45.02667" lon="5.38456">
        <ele>361</ele>
        <time>2019-06-15T08:51:38.024Z</time>
      </trkpt>
      <trkpt lat="45.02667" lon="5.38456">
        <ele>361</ele>
        <time>2019-06-15T08:51:39.024Z</time>
      </trkpt>
      <trkpt lat="45.02667" lon="5.38456">
        <ele>361</ele>
        <time>2019-06-15T08:51:40.024Z</time>
      </trkpt>
      <trkpt lat="45.02667" lon="5.38456">
        <ele>362</ele>
        <time>2019-06-15T08:51:41.024Z</time>
      </trkpt>
      <trkpt lat="45.02669" lon="5.38455">
        <ele>362</ele>
        <time>2019-06-15T08:51:42.028Z</time>
      </trkpt>
      <trkpt lat="45.02671" lon="5.38454">
        <ele>361</ele>
        <time>2019-06-15T08:51:43.028Z</time>
      </trkpt>
      <trkpt lat="45.02673" lon="5.38453">
        <ele>360</ele>
        <time>2019-06-15T08:51:44.028Z</time>
      </trkpt>
      <trkpt lat="45.02675" lon="5.38452">
        <ele>360</ele>
        <time>2019-06-15T08:51:45.028Z</time>
      </trkpt>
      <trkpt lat="45.02677" lon="5.3845">
        <ele>360</ele>
        <time>2019-06-15T08:51:46.028Z</time>
      </trkpt>
      <trkpt lat="45.02679" lon="5.38447">
        <ele>360</ele>
        <time>2019-06-15T08:51:47.028Z</time>
      </trkpt>
      <trkpt lat="45.02682" lon="5.38444">
        <ele>360</ele>
        <time>2019-06-15T08:51:48.028Z</time>
      </trkpt>
      <trkpt lat="45.02684" lon="5.3844">
        <ele>360</ele>
        <time>2019-06-15T08:51:49.028Z</time>
      </trkpt>
      <trkpt lat="45.02687" lon="5.38437">
        <ele>360</ele>
        <time>2019-06-15T08:51:50.028Z</time>
      </trkpt>
      <trkpt lat="45.02689" lon="5.38433">
        <ele>360</ele>
        <time>2019-06-15T08:51:51.028Z</time>
      </trkpt>
      <trkpt lat="45.0269" lon="5.3843">
        <ele>360</ele>
        <time>2019-06-15T08:51:52.028Z</time>
      </trkpt>
      <trkpt lat="45.02692" lon="5.38426">
        <ele>359</ele>
        <time>2019-06-15T08:51:53.028Z</time>
      </trkpt>
      <trkpt lat="45.02694" lon="5.38423">
        <ele>359</ele>
        <time>2019-06-15T08:51:54.028Z</time>
      </trkpt>
      <trkpt lat="45.02696" lon="5.38419">
        <ele>358</ele>
        <time>2019-06-15T08:51:55.028Z</time>
      </trkpt>
      <trkpt lat="45.02698" lon="5.38415">
        <ele>358</ele>
        <time>2019-06-15T08:51:56.028Z</time>
      </trkpt>
      <trkpt lat="45.02699" lon="5.38411">
        <ele>358</ele>
        <time>2019-06-15T08:51:57.028Z</time>
      </trkpt>
      <trkpt lat="45.02701" lon="5.38408">
        <ele>357</ele>
        <time>2019-06-15T08:51:58.028Z</time>
      </trkpt>
      <trkpt lat="45.02702" lon="5.38404">
        <ele>356</ele>
        <time>2019-06-15T08:51:59.028Z</time>
      </trkpt>
      <trkpt lat="45.02704" lon="5.38401">
        <ele>356</ele>
        <time>2019-06-15T08:52:00.028Z</time>
      </trkpt>
      <trkpt lat="45.02706" lon="5.38398">
        <ele>355</ele>
        <time>2019-06-15T08:52:01.028Z</time>
      </trkpt>
      <trkpt lat="45.02708" lon="5.38394">
        <ele>355</ele>
        <time>2019-06-15T08:52:02.028Z</time>
      </trkpt>
      <trkpt lat="45.02709" lon="5.38391">
        <ele>354</ele>
        <time>2019-06-15T08:52:03.028Z</time>
      </trkpt>
      <trkpt lat="45.02711" lon="5.38387">
        <ele>354</ele>
        <time>2019-06-15T08:52:04.028Z</time>
      </trkpt>
      <trkpt lat="45.02713" lon="5.38384">
        <ele>353</ele>
        <time>2019-06-15T08:52:05.028Z</time>
      </trkpt>
      <trkpt lat="45.02715" lon="5.3838">
        <ele>352</ele>
        <time>2019-06-15T08:52:06.028Z</time>
      </trkpt>
      <trkpt lat="45.02718" lon="5.38376">
        <ele>352</ele>
        <time>2019-06-15T08:52:07.028Z</time>
      </trkpt>
      <trkpt lat="45.0272" lon="5.38373">
        <ele>351</ele>
        <time>2019-06-15T08:52:08.028Z</time>
      </trkpt>
      <trkpt lat="45.02723" lon="5.3837">
        <ele>350</ele>
        <time>2019-06-15T08:52:09.028Z</time>
      </trkpt>
      <trkpt lat="45.02725" lon="5.38367">
        <ele>348</ele>
        <time>2019-06-15T08:52:10.028Z</time>
      </trkpt>
      <trkpt lat="45.02728" lon="5.38364">
        <ele>347</ele>
        <time>2019-06-15T08:52:11.028Z</time>
      </trkpt>
      <trkpt lat="45.02731" lon="5.38363">
        <ele>346</ele>
        <time>2019-06-15T08:52:12.028Z</time>
      </trkpt>
      <trkpt lat="45.02735" lon="5.38363">
        <ele>347</ele>
        <time>2019-06-15T08:52:13.028Z</time>
      </trkpt>
      <trkpt lat="45.02738" lon="5.38364">
        <ele>346</ele>
        <time>2019-06-15T08:52:14.028Z</time>
      </trkpt>
      <trkpt lat="45.02741" lon="5.38366">
        <ele>345</ele>
        <time>2019-06-15T08:52:15.028Z</time>
      </trkpt>
      <trkpt lat="45.02744" lon="5.38368">
        <ele>345</ele>
        <time>2019-06-15T08:52:16.028Z</time>
      </trkpt>
      <trkpt lat="45.02746" lon="5.38372">
        <ele>345</ele>
        <time>2019-06-15T08:52:17.028Z</time>
      </trkpt>
      <trkpt lat="45.02748" lon="5.38375">
        <ele>345</ele>
        <time>2019-06-15T08:52:18.028Z</time>
      </trkpt>
      <trkpt lat="45.0275" lon="5.3838">
        <ele>345</ele>
        <time>2019-06-15T08:52:19.028Z</time>
      </trkpt>
      <trkpt lat="45.02751" lon="5.38384">
        <ele>345</ele>
        <time>2019-06-15T08:52:20.028Z</time>
      </trkpt>
      <trkpt lat="45.02751" lon="5.38389">
        <ele>346</ele>
        <time>2019-06-15T08:52:21.028Z</time>
      </trkpt>
      <trkpt lat="45.02751" lon="5.38394">
        <ele>347</ele>
        <time>2019-06-15T08:52:22.028Z</time>
      </trkpt>
      <trkpt lat="45.02751" lon="5.38399">
        <ele>347</ele>
        <time>2019-06-15T08:52:23.028Z</time>
      </trkpt>
      <trkpt lat="45.02751" lon="5.38404">
        <ele>347</ele>
        <time>2019-06-15T08:52:24.028Z</time>
      </trkpt>
      <trkpt lat="45.02752" lon="5.38408">
        <ele>347</ele>
        <time>2019-06-15T08:52:25.028Z</time>
      </trkpt>
      <trkpt lat="45.02752" lon="5.38413">
        <ele>346</ele>
        <time>2019-06-15T08:52:26.028Z</time>
      </trkpt>
      <trkpt lat="45.02752" lon="5.38418">
        <ele>346</ele>
        <time>2019-06-15T08:52:27.028Z</time>
      </trkpt>
      <trkpt lat="45.02753" lon="5.38423">
        <ele>345</ele>
        <time>2019-06-15T08:52:28.028Z</time>
      </trkpt>
      <trkpt lat="45.02753" lon="5.38428">
        <ele>344</ele>
        <time>2019-06-15T08:52:29.028Z</time>
      </trkpt>
      <trkpt lat="45.02754" lon="5.38432">
        <ele>344</ele>
        <time>2019-06-15T08:52:30.028Z</time>
      </trkpt>
      <trkpt lat="45.02755" lon="5.38437">
        <ele>344</ele>
        <time>2019-06-15T08:52:31.028Z</time>
      </trkpt>
      <trkpt lat="45.02756" lon="5.38442">
        <ele>343</ele>
        <time>2019-06-15T08:52:32.028Z</time>
      </trkpt>
      <trkpt lat="45.02757" lon="5.38447">
        <ele>343</ele>
        <time>2019-06-15T08:52:33.028Z</time>
      </trkpt>
      <trkpt lat="45.02758" lon="5.38452">
        <ele>342</ele>
        <time>2019-06-15T08:52:34.028Z</time>
      </trkpt>
      <trkpt lat="45.02759" lon="5.38456">
        <ele>342</ele>
        <time>2019-06-15T08:52:35.028Z</time>
      </trkpt>
      <trkpt lat="45.02761" lon="5.3846">
        <ele>342</ele>
        <time>2019-06-15T08:52:36.028Z</time>
      </trkpt>
      <trkpt lat="45.02762" lon="5.38464">
        <ele>342</ele>
        <time>2019-06-15T08:52:37.028Z</time>
      </trkpt>
      <trkpt lat="45.02764" lon="5.38467">
        <ele>343</ele>
        <time>2019-06-15T08:52:38.028Z</time>
      </trkpt>
      <trkpt lat="45.02765" lon="5.38471">
        <ele>343</ele>
        <time>2019-06-15T08:52:39.028Z</time>
      </trkpt>
      <trkpt lat="45.02767" lon="5.38474">
        <ele>344</ele>
        <time>2019-06-15T08:52:40.028Z</time>
      </trkpt>
      <trkpt lat="45.02769" lon="5.38477">
        <ele>343</ele>
        <time>2019-06-15T08:52:41.028Z</time>
      </trkpt>
      <trkpt lat="45.0277" lon="5.38479">
        <ele>343</ele>
        <time>2019-06-15T08:52:42.028Z</time>
      </trkpt>
      <trkpt lat="45.02772" lon="5.38482">
        <ele>343</ele>
        <time>2019-06-15T08:52:43.028Z</time>
      </trkpt>
      <trkpt lat="45.02774" lon="5.38485">
        <ele>343</ele>
        <time>2019-06-15T08:52:44.028Z</time>
      </trkpt>
      <trkpt lat="45.02776" lon="5.38487">
        <ele>343</ele>
        <time>2019-06-15T08:52:45.028Z</time>
      </trkpt>
      <trkpt lat="45.02779" lon="5.3849">
        <ele>343</ele>
        <time>2019-06-15T08:52:46.028Z</time>
      </trkpt>
      <trkpt lat="45.02782" lon="5.38493">
        <ele>342</ele>
        <time>2019-06-15T08:52:47.028Z</time>
      </trkpt>
      <trkpt lat="45.02784" lon="5.38495">
        <ele>342</ele>
        <time>2019-06-15T08:52:48.028Z</time>
      </trkpt>
      <trkpt lat="45.02787" lon="5.38498">
        <ele>342</ele>
        <time>2019-06-15T08:52:49.028Z</time>
      </trkpt>
      <trkpt lat="45.02789" lon="5.38501">
        <ele>342</ele>
        <time>2019-06-15T08:52:50.028Z</time>
      </trkpt>
      <trkpt lat="45.02792" lon="5.38504">
        <ele>342</ele>
        <time>2019-06-15T08:52:51.028Z</time>
      </trkpt>
      <trkpt lat="45.02794" lon="5.38507">
        <ele>342</ele>
        <time>2019-06-15T08:52:52.028Z</time>
      </trkpt>
      <trkpt lat="45.02797" lon="5.38509">
        <ele>343</ele>
        <time>2019-06-15T08:52:53.028Z</time>
      </trkpt>
      <trkpt lat="45.028" lon="5.38512">
        <ele>345</ele>
        <time>2019-06-15T08:52:54.028Z</time>
      </trkpt>
      <trkpt lat="45.02802" lon="5.38514">
        <ele>344</ele>
        <time>2019-06-15T08:52:55.028Z</time>
      </trkpt>
      <trkpt lat="45.02805" lon="5.38516">
        <ele>345</ele>
        <time>2019-06-15T08:52:56.028Z</time>
      </trkpt>
      <trkpt lat="45.02808" lon="5.38519">
        <ele>347</ele>
        <time>2019-06-15T08:52:57.028Z</time>
      </trkpt>
      <trkpt lat="45.02811" lon="5.38521">
        <ele>347</ele>
        <time>2019-06-15T08:52:58.028Z</time>
      </trkpt>
      <trkpt lat="45.02813" lon="5.38524">
        <ele>346</ele>
        <time>2019-06-15T08:52:59.028Z</time>
      </trkpt>
      <trkpt lat="45.02816" lon="5.38526">
        <ele>346</ele>
        <time>2019-06-15T08:53:00.028Z</time>
      </trkpt>
      <trkpt lat="45.02819" lon="5.38528">
        <ele>346</ele>
        <time>2019-06-15T08:53:01.028Z</time>
      </trkpt>
      <trkpt lat="45.02822" lon="5.3853">
        <ele>347</ele>
        <time>2019-06-15T08:53:02.028Z</time>
      </trkpt>
      <trkpt lat="45.02825" lon="5.38531">
        <ele>347</ele>
        <time>2019-06-15T08:53:03.028Z</time>
      </trkpt>
      <trkpt lat="45.02829" lon="5.38532">
        <ele>345</ele>
        <time>2019-06-15T08:53:04.028Z</time>
      </trkpt>
      <trkpt lat="45.02833" lon="5.38532">
        <ele>346</ele>
        <time>2019-06-15T08:53:05.028Z</time>
      </trkpt>
      <trkpt lat="45.02837" lon="5.38531">
        <ele>346</ele>
        <time>2019-06-15T08:53:06.028Z</time>
      </trkpt>
      <trkpt lat="45.0284" lon="5.38531">
        <ele>346</ele>
        <time>2019-06-15T08:53:07.028Z</time>
      </trkpt>
      <trkpt lat="45.02842" lon="5.3853">
        <ele>346</ele>
        <time>2019-06-15T08:53:08.028Z</time>
      </trkpt>
      <trkpt lat="45.02845" lon="5.38529">
        <ele>346</ele>
        <time>2019-06-15T08:53:09.028Z</time>
      </trkpt>
      <trkpt lat="45.02847" lon="5.38528">
        <ele>346</ele>
        <time>2019-06-15T08:53:10.028Z</time>
      </trkpt>
      <trkpt lat="45.0285" lon="5.38528">
        <ele>345</ele>
        <time>2019-06-15T08:53:11.028Z</time>
      </trkpt>
      <trkpt lat="45.02853" lon="5.38527">
        <ele>345</ele>
        <time>2019-06-15T08:53:12.028Z</time>
      </trkpt>
      <trkpt lat="45.02856" lon="5.38525">
        <ele>344</ele>
        <time>2019-06-15T08:53:13.028Z</time>
      </trkpt>
      <trkpt lat="45.02858" lon="5.38524">
        <ele>344</ele>
        <time>2019-06-15T08:53:14.028Z</time>
      </trkpt>
      <trkpt lat="45.02861" lon="5.38522">
        <ele>344</ele>
        <time>2019-06-15T08:53:15.028Z</time>
      </trkpt>
      <trkpt lat="45.02863" lon="5.3852">
        <ele>344</ele>
        <time>2019-06-15T08:53:16.028Z</time>
      </trkpt>
      <trkpt lat="45.02865" lon="5.38518">
        <ele>344</ele>
        <time>2019-06-15T08:53:17.028Z</time>
      </trkpt>
      <trkpt lat="45.02868" lon="5.38516">
        <ele>343</ele>
        <time>2019-06-15T08:53:18.028Z</time>
      </trkpt>
      <trkpt lat="45.0287" lon="5.38514">
        <ele>342</ele>
        <time>2019-06-15T08:53:19.028Z</time>
      </trkpt>
      <trkpt lat="45.02872" lon="5.38512">
        <ele>343</ele>
        <time>2019-06-15T08:53:20.028Z</time>
      </trkpt>
      <trkpt lat="45.02875" lon="5.3851">
        <ele>343</ele>
        <time>2019-06-15T08:53:21.028Z</time>
      </trkpt>
      <trkpt lat="45.02877" lon="5.38508">
        <ele>345</ele>
        <time>2019-06-15T08:53:22.028Z</time>
      </trkpt>
      <trkpt lat="45.0288" lon="5.38505">
        <ele>345</ele>
        <time>2019-06-15T08:53:23.028Z</time>
      </trkpt>
      <trkpt lat="45.02882" lon="5.38503">
        <ele>346</ele>
        <time>2019-06-15T08:53:24.028Z</time>
      </trkpt>
      <trkpt lat="45.02884" lon="5.38501">
        <ele>346</ele>
        <time>2019-06-15T08:53:25.028Z</time>
      </trkpt>
      <trkpt lat="45.02886" lon="5.38499">
        <ele>346</ele>
        <time>2019-06-15T08:53:26.028Z</time>
      </trkpt>
      <trkpt lat="45.02888" lon="5.38497">
        <ele>346</ele>
        <time>2019-06-15T08:53:27.028Z</time>
      </trkpt>
      <trkpt lat="45.02891" lon="5.38495">
        <ele>347</ele>
        <time>2019-06-15T08:53:28.028Z</time>
      </trkpt>
      <trkpt lat="45.02893" lon="5.38493">
        <ele>348</ele>
        <time>2019-06-15T08:53:29.028Z</time>
      </trkpt>
      <trkpt lat="45.02895" lon="5.38491">
        <ele>348</ele>
        <time>2019-06-15T08:53:30.028Z</time>
      </trkpt>
      <trkpt lat="45.02897" lon="5.3849">
        <ele>348</ele>
        <time>2019-06-15T08:53:31.028Z</time>
      </trkpt>
      <trkpt lat="45.02899" lon="5.38488">
        <ele>349</ele>
        <time>2019-06-15T08:53:32.028Z</time>
      </trkpt>
      <trkpt lat="45.02901" lon="5.38487">
        <ele>349</ele>
        <time>2019-06-15T08:53:33.028Z</time>
      </trkpt>
      <trkpt lat="45.02904" lon="5.38485">
        <ele>350</ele>
        <time>2019-06-15T08:53:34.028Z</time>
      </trkpt>
      <trkpt lat="45.02905" lon="5.38482">
        <ele>350</ele>
        <time>2019-06-15T08:53:35.028Z</time>
      </trkpt>
      <trkpt lat="45.02907" lon="5.3848">
        <ele>350</ele>
        <time>2019-06-15T08:53:36.028Z</time>
      </trkpt>
      <trkpt lat="45.02909" lon="5.38478">
        <ele>350</ele>
        <time>2019-06-15T08:53:37.028Z</time>
      </trkpt>
      <trkpt lat="45.02911" lon="5.38477">
        <ele>350</ele>
        <time>2019-06-15T08:53:38.028Z</time>
      </trkpt>
      <trkpt lat="45.02914" lon="5.38475">
        <ele>349</ele>
        <time>2019-06-15T08:53:39.028Z</time>
      </trkpt>
      <trkpt lat="45.02916" lon="5.38473">
        <ele>349</ele>
        <time>2019-06-15T08:53:40.028Z</time>
      </trkpt>
      <trkpt lat="45.02917" lon="5.38471">
        <ele>348</ele>
        <time>2019-06-15T08:53:41.028Z</time>
      </trkpt>
      <trkpt lat="45.02919" lon="5.38469">
        <ele>349</ele>
        <time>2019-06-15T08:53:42.028Z</time>
      </trkpt>
      <trkpt lat="45.02921" lon="5.38467">
        <ele>350</ele>
        <time>2019-06-15T08:53:43.028Z</time>
      </trkpt>
      <trkpt lat="45.02924" lon="5.38465">
        <ele>350</ele>
        <time>2019-06-15T08:53:44.028Z</time>
      </trkpt>
      <trkpt lat="45.02926" lon="5.38463">
        <ele>351</ele>
        <time>2019-06-15T08:53:45.028Z</time>
      </trkpt>
      <trkpt lat="45.02928" lon="5.38461">
        <ele>351</ele>
        <time>2019-06-15T08:53:46.028Z</time>
      </trkpt>
      <trkpt lat="45.02929" lon="5.38459">
        <ele>351</ele>
        <time>2019-06-15T08:53:47.028Z</time>
      </trkpt>
      <trkpt lat="45.02931" lon="5.38456">
        <ele>351</ele>
        <time>2019-06-15T08:53:48.028Z</time>
      </trkpt>
      <trkpt lat="45.02933" lon="5.38454">
        <ele>351</ele>
        <time>2019-06-15T08:53:49.028Z</time>
      </trkpt>
      <trkpt lat="45.02935" lon="5.38452">
        <ele>352</ele>
        <time>2019-06-15T08:53:50.028Z</time>
      </trkpt>
      <trkpt lat="45.02937" lon="5.3845">
        <ele>352</ele>
        <time>2019-06-15T08:53:51.028Z</time>
      </trkpt>
      <trkpt lat="45.02939" lon="5.38448">
        <ele>352</ele>
        <time>2019-06-15T08:53:52.028Z</time>
      </trkpt>
      <trkpt lat="45.02941" lon="5.38446">
        <ele>353</ele>
        <time>2019-06-15T08:53:53.028Z</time>
      </trkpt>
      <trkpt lat="45.02943" lon="5.38444">
        <ele>354</ele>
        <time>2019-06-15T08:53:54.028Z</time>
      </trkpt>
      <trkpt lat="45.02945" lon="5.38442">
        <ele>354</ele>
        <time>2019-06-15T08:53:55.028Z</time>
      </trkpt>
      <trkpt lat="45.02946" lon="5.3844">
        <ele>354</ele>
        <time>2019-06-15T08:53:56.028Z</time>
      </trkpt>
      <trkpt lat="45.02948" lon="5.38438">
        <ele>355</ele>
        <time>2019-06-15T08:53:57.028Z</time>
      </trkpt>
      <trkpt lat="45.0295" lon="5.38436">
        <ele>355</ele>
        <time>2019-06-15T08:53:58.028Z</time>
      </trkpt>
      <trkpt lat="45.02952" lon="5.38434">
        <ele>356</ele>
        <time>2019-06-15T08:53:59.028Z</time>
      </trkpt>
      <trkpt lat="45.02954" lon="5.38432">
        <ele>356</ele>
        <time>2019-06-15T08:54:00.028Z</time>
      </trkpt>
      <trkpt lat="45.02956" lon="5.3843">
        <ele>356</ele>
        <time>2019-06-15T08:54:01.028Z</time>
      </trkpt>
      <trkpt lat="45.02958" lon="5.38428">
        <ele>356</ele>
        <time>2019-06-15T08:54:02.028Z</time>
      </trkpt>
      <trkpt lat="45.0296" lon="5.38426">
        <ele>356</ele>
        <time>2019-06-15T08:54:03.028Z</time>
      </trkpt>
      <trkpt lat="45.02962" lon="5.38424">
        <ele>357</ele>
        <time>2019-06-15T08:54:04.028Z</time>
      </trkpt>
      <trkpt lat="45.02964" lon="5.38422">
        <ele>357</ele>
        <time>2019-06-15T08:54:05.028Z</time>
      </trkpt>
      <trkpt lat="45.02965" lon="5.3842">
        <ele>357</ele>
        <time>2019-06-15T08:54:06.028Z</time>
      </trkpt>
      <trkpt lat="45.02967" lon="5.38418">
        <ele>358</ele>
        <time>2019-06-15T08:54:07.028Z</time>
      </trkpt>
      <trkpt lat="45.02969" lon="5.38416">
        <ele>358</ele>
        <time>2019-06-15T08:54:08.028Z</time>
      </trkpt>
      <trkpt lat="45.0297" lon="5.38413">
        <ele>359</ele>
        <time>2019-06-15T08:54:09.028Z</time>
      </trkpt>
      <trkpt lat="45.02972" lon="5.38411">
        <ele>359</ele>
        <time>2019-06-15T08:54:10.028Z</time>
      </trkpt>
      <trkpt lat="45.02974" lon="5.38409">
        <ele>359</ele>
        <time>2019-06-15T08:54:11.028Z</time>
      </trkpt>
      <trkpt lat="45.02975" lon="5.38408">
        <ele>360</ele>
        <time>2019-06-15T08:54:12.028Z</time>
      </trkpt>
      <trkpt lat="45.02977" lon="5.38406">
        <ele>360</ele>
        <time>2019-06-15T08:54:13.028Z</time>
      </trkpt>
      <trkpt lat="45.02979" lon="5.38404">
        <ele>360</ele>
        <time>2019-06-15T08:54:14.028Z</time>
      </trkpt>
      <trkpt lat="45.02981" lon="5.38402">
        <ele>359</ele>
        <time>2019-06-15T08:54:15.028Z</time>
      </trkpt>
      <trkpt lat="45.02982" lon="5.38401">
        <ele>360</ele>
        <time>2019-06-15T08:54:16.028Z</time>
      </trkpt>
      <trkpt lat="45.02985" lon="5.38399">
        <ele>361</ele>
        <time>2019-06-15T08:54:17.028Z</time>
      </trkpt>
      <trkpt lat="45.02987" lon="5.38397">
        <ele>361</ele>
        <time>2019-06-15T08:54:18.028Z</time>
      </trkpt>
      <trkpt lat="45.02989" lon="5.38396">
        <ele>361</ele>
        <time>2019-06-15T08:54:19.028Z</time>
      </trkpt>
      <trkpt lat="45.02991" lon="5.38394">
        <ele>361</ele>
        <time>2019-06-15T08:54:20.028Z</time>
      </trkpt>
      <trkpt lat="45.02993" lon="5.38392">
        <ele>362</ele>
        <time>2019-06-15T08:54:21.028Z</time>
      </trkpt>
      <trkpt lat="45.02995" lon="5.38391">
        <ele>362</ele>
        <time>2019-06-15T08:54:22.028Z</time>
      </trkpt>
      <trkpt lat="45.02997" lon="5.38389">
        <ele>362</ele>
        <time>2019-06-15T08:54:23.028Z</time>
      </trkpt>
      <trkpt lat="45.02999" lon="5.38387">
        <ele>363</ele>
        <time>2019-06-15T08:54:24.028Z</time>
      </trkpt>
      <trkpt lat="45.03001" lon="5.38386">
        <ele>364</ele>
        <time>2019-06-15T08:54:25.028Z</time>
      </trkpt>
      <trkpt lat="45.03004" lon="5.38385">
        <ele>364</ele>
        <time>2019-06-15T08:54:26.028Z</time>
      </trkpt>
      <trkpt lat="45.03006" lon="5.38383">
        <ele>364</ele>
        <time>2019-06-15T08:54:27.028Z</time>
      </trkpt>
      <trkpt lat="45.03008" lon="5.38382">
        <ele>365</ele>
        <time>2019-06-15T08:54:28.028Z</time>
      </trkpt>
      <trkpt lat="45.0301" lon="5.3838">
        <ele>366</ele>
        <time>2019-06-15T08:54:29.028Z</time>
      </trkpt>
      <trkpt lat="45.03013" lon="5.38378">
        <ele>366</ele>
        <time>2019-06-15T08:54:30.028Z</time>
      </trkpt>
      <trkpt lat="45.03015" lon="5.38377">
        <ele>366</ele>
        <time>2019-06-15T08:54:31.028Z</time>
      </trkpt>
      <trkpt lat="45.03017" lon="5.38376">
        <ele>366</ele>
        <time>2019-06-15T08:54:32.028Z</time>
      </trkpt>
      <trkpt lat="45.03019" lon="5.38374">
        <ele>367</ele>
        <time>2019-06-15T08:54:33.028Z</time>
      </trkpt>
      <trkpt lat="45.03021" lon="5.38373">
        <ele>366</ele>
        <time>2019-06-15T08:54:34.028Z</time>
      </trkpt>
      <trkpt lat="45.03023" lon="5.38372">
        <ele>367</ele>
        <time>2019-06-15T08:54:35.028Z</time>
      </trkpt>
      <trkpt lat="45.03025" lon="5.38371">
        <ele>367</ele>
        <time>2019-06-15T08:54:36.028Z</time>
      </trkpt>
      <trkpt lat="45.03027" lon="5.3837">
        <ele>366</ele>
        <time>2019-06-15T08:54:37.028Z</time>
      </trkpt>
      <trkpt lat="45.03029" lon="5.38369">
        <ele>367</ele>
        <time>2019-06-15T08:54:38.028Z</time>
      </trkpt>
      <trkpt lat="45.03032" lon="5.38368">
        <ele>367</ele>
        <time>2019-06-15T08:54:39.028Z</time>
      </trkpt>
      <trkpt lat="45.03034" lon="5.38367">
        <ele>368</ele>
        <time>2019-06-15T08:54:40.028Z</time>
      </trkpt>
      <trkpt lat="45.03037" lon="5.38366">
        <ele>368</ele>
        <time>2019-06-15T08:54:41.028Z</time>
      </trkpt>
      <trkpt lat="45.03039" lon="5.38365">
        <ele>368</ele>
        <time>2019-06-15T08:54:42.028Z</time>
      </trkpt>
      <trkpt lat="45.03042" lon="5.38365">
        <ele>367</ele>
        <time>2019-06-15T08:54:43.028Z</time>
      </trkpt>
      <trkpt lat="45.03044" lon="5.38364">
        <ele>367</ele>
        <time>2019-06-15T08:54:44.028Z</time>
      </trkpt>
      <trkpt lat="45.03047" lon="5.38363">
        <ele>368</ele>
        <time>2019-06-15T08:54:45.028Z</time>
      </trkpt>
      <trkpt lat="45.0305" lon="5.38362">
        <ele>368</ele>
        <time>2019-06-15T08:54:46.028Z</time>
      </trkpt>
      <trkpt lat="45.03052" lon="5.38361">
        <ele>368</ele>
        <time>2019-06-15T08:54:47.028Z</time>
      </trkpt>
      <trkpt lat="45.03055" lon="5.38359">
        <ele>369</ele>
        <time>2019-06-15T08:54:48.028Z</time>
      </trkpt>
      <trkpt lat="45.03057" lon="5.38358">
        <ele>369</ele>
        <time>2019-06-15T08:54:49.028Z</time>
      </trkpt>
      <trkpt lat="45.0306" lon="5.38357">
        <ele>369</ele>
        <time>2019-06-15T08:54:50.028Z</time>
      </trkpt>
      <trkpt lat="45.03062" lon="5.38356">
        <ele>369</ele>
        <time>2019-06-15T08:54:51.028Z</time>
      </trkpt>
      <trkpt lat="45.03065" lon="5.38355">
        <ele>369</ele>
        <time>2019-06-15T08:54:52.028Z</time>
      </trkpt>
      <trkpt lat="45.03067" lon="5.38354">
        <ele>368</ele>
        <time>2019-06-15T08:54:53.028Z</time>
      </trkpt>
      <trkpt lat="45.03069" lon="5.38353">
        <ele>369</ele>
        <time>2019-06-15T08:54:54.028Z</time>
      </trkpt>
      <trkpt lat="45.03072" lon="5.38353">
        <ele>368</ele>
        <time>2019-06-15T08:54:55.028Z</time>
      </trkpt>
      <trkpt lat="45.03074" lon="5.38353">
        <ele>368</ele>
        <time>2019-06-15T08:54:56.028Z</time>
      </trkpt>
      <trkpt lat="45.03077" lon="5.38354">
        <ele>367</ele>
        <time>2019-06-15T08:54:57.028Z</time>
      </trkpt>
      <trkpt lat="45.03079" lon="5.38355">
        <ele>367</ele>
        <time>2019-06-15T08:54:58.028Z</time>
      </trkpt>
      <trkpt lat="45.03081" lon="5.38357">
        <ele>367</ele>
        <time>2019-06-15T08:54:59.028Z</time>
      </trkpt>
      <trkpt lat="45.03083" lon="5.38359">
        <ele>368</ele>
        <time>2019-06-15T08:55:00.028Z</time>
      </trkpt>
      <trkpt lat="45.03084" lon="5.38361">
        <ele>368</ele>
        <time>2019-06-15T08:55:01.028Z</time>
      </trkpt>
      <trkpt lat="45.03085" lon="5.38363">
        <ele>369</ele>
        <time>2019-06-15T08:55:02.028Z</time>
      </trkpt>
      <trkpt lat="45.03086" lon="5.38364">
        <ele>369</ele>
        <time>2019-06-15T08:55:03.028Z</time>
      </trkpt>
      <trkpt lat="45.03086" lon="5.38366">
        <ele>369</ele>
        <time>2019-06-15T08:55:04.028Z</time>
      </trkpt>
      <trkpt lat="45.03087" lon="5.38368">
        <ele>370</ele>
        <time>2019-06-15T08:55:05.028Z</time>
      </trkpt>
      <trkpt lat="45.03087" lon="5.38369">
        <ele>370</ele>
        <time>2019-06-15T08:55:06.028Z</time>
      </trkpt>
      <trkpt lat="45.03088" lon="5.38371">
        <ele>370</ele>
        <time>2019-06-15T08:55:07.028Z</time>
      </trkpt>
      <trkpt lat="45.03088" lon="5.38373">
        <ele>371</ele>
        <time>2019-06-15T08:55:08.028Z</time>
      </trkpt>
      <trkpt lat="45.03088" lon="5.38375">
        <ele>371</ele>
        <time>2019-06-15T08:55:09.028Z</time>
      </trkpt>
      <trkpt lat="45.03088" lon="5.38377">
        <ele>371</ele>
        <time>2019-06-15T08:55:10.028Z</time>
      </trkpt>
      <trkpt lat="45.03088" lon="5.38378">
        <ele>371</ele>
        <time>2019-06-15T08:55:11.028Z</time>
      </trkpt>
      <trkpt lat="45.03088" lon="5.3838">
        <ele>371</ele>
        <time>2019-06-15T08:55:12.028Z</time>
      </trkpt>
      <trkpt lat="45.03088" lon="5.38382">
        <ele>372</ele>
        <time>2019-06-15T08:55:13.028Z</time>
      </trkpt>
      <trkpt lat="45.03088" lon="5.38384">
        <ele>372</ele>
        <time>2019-06-15T08:55:14.028Z</time>
      </trkpt>
      <trkpt lat="45.03088" lon="5.38386">
        <ele>372</ele>
        <time>2019-06-15T08:55:15.028Z</time>
      </trkpt>
      <trkpt lat="45.03088" lon="5.38388">
        <ele>372</ele>
        <time>2019-06-15T08:55:16.028Z</time>
      </trkpt>
      <trkpt lat="45.03088" lon="5.38389">
        <ele>373</ele>
        <time>2019-06-15T08:55:17.028Z</time>
      </trkpt>
      <trkpt lat="45.03088" lon="5.38391">
        <ele>373</ele>
        <time>2019-06-15T08:55:18.028Z</time>
      </trkpt>
      <trkpt lat="45.03089" lon="5.38392">
        <ele>373</ele>
        <time>2019-06-15T08:55:19.028Z</time>
      </trkpt>
      <trkpt lat="45.03089" lon="5.38394">
        <ele>372</ele>
        <time>2019-06-15T08:55:20.028Z</time>
      </trkpt>
      <trkpt lat="45.03089" lon="5.38396">
        <ele>372</ele>
        <time>2019-06-15T08:55:21.028Z</time>
      </trkpt>
      <trkpt lat="45.0309" lon="5.38398">
        <ele>373</ele>
        <time>2019-06-15T08:55:22.028Z</time>
      </trkpt>
      <trkpt lat="45.0309" lon="5.384">
        <ele>373</ele>
        <time>2019-06-15T08:55:23.028Z</time>
      </trkpt>
      <trkpt lat="45.0309" lon="5.38402">
        <ele>373</ele>
        <time>2019-06-15T08:55:24.028Z</time>
      </trkpt>
      <trkpt lat="45.0309" lon="5.38404">
        <ele>374</ele>
        <time>2019-06-15T08:55:25.028Z</time>
      </trkpt>
      <trkpt lat="45.0309" lon="5.38406">
        <ele>374</ele>
        <time>2019-06-15T08:55:26.028Z</time>
      </trkpt>
      <trkpt lat="45.0309" lon="5.38408">
        <ele>374</ele>
        <time>2019-06-15T08:55:27.028Z</time>
      </trkpt>
      <trkpt lat="45.03091" lon="5.3841">
        <ele>374</ele>
        <time>2019-06-15T08:55:28.028Z</time>
      </trkpt>
      <trkpt lat="45.03091" lon="5.38412">
        <ele>374</ele>
        <time>2019-06-15T08:55:29.028Z</time>
      </trkpt>
      <trkpt lat="45.03091" lon="5.38414">
        <ele>375</ele>
        <time>2019-06-15T08:55:30.028Z</time>
      </trkpt>
      <trkpt lat="45.03092" lon="5.38416">
        <ele>375</ele>
        <time>2019-06-15T08:55:31.028Z</time>
      </trkpt>
      <trkpt lat="45.03092" lon="5.38418">
        <ele>375</ele>
        <time>2019-06-15T08:55:32.028Z</time>
      </trkpt>
      <trkpt lat="45.03093" lon="5.3842">
        <ele>376</ele>
        <time>2019-06-15T08:55:33.028Z</time>
      </trkpt>
      <trkpt lat="45.03093" lon="5.38422">
        <ele>376</ele>
        <time>2019-06-15T08:55:34.028Z</time>
      </trkpt>
      <trkpt lat="45.03093" lon="5.38424">
        <ele>376</ele>
        <time>2019-06-15T08:55:35.028Z</time>
      </trkpt>
      <trkpt lat="45.03094" lon="5.38426">
        <ele>377</ele>
        <time>2019-06-15T08:55:36.028Z</time>
      </trkpt>
      <trkpt lat="45.03094" lon="5.38427">
        <ele>377</ele>
        <time>2019-06-15T08:55:37.028Z</time>
      </trkpt>
      <trkpt lat="45.03094" lon="5.38429">
        <ele>377</ele>
        <time>2019-06-15T08:55:38.028Z</time>
      </trkpt>
      <trkpt lat="45.03095" lon="5.38431">
        <ele>378</ele>
        <time>2019-06-15T08:55:39.028Z</time>
      </trkpt>
      <trkpt lat="45.03095" lon="5.38433">
        <ele>378</ele>
        <time>2019-06-15T08:55:40.028Z</time>
      </trkpt>
      <trkpt lat="45.03095" lon="5.38435">
        <ele>378</ele>
        <time>2019-06-15T08:55:41.028Z</time>
      </trkpt>
      <trkpt lat="45.03096" lon="5.38436">
        <ele>379</ele>
        <time>2019-06-15T08:55:42.028Z</time>
      </trkpt>
      <trkpt lat="45.03096" lon="5.38438">
        <ele>379</ele>
        <time>2019-06-15T08:55:43.028Z</time>
      </trkpt>
      <trkpt lat="45.03096" lon="5.3844">
        <ele>379</ele>
        <time>2019-06-15T08:55:44.028Z</time>
      </trkpt>
      <trkpt lat="45.03097" lon="5.38441">
        <ele>380</ele>
        <time>2019-06-15T08:55:45.028Z</time>
      </trkpt>
      <trkpt lat="45.03097" lon="5.38443">
        <ele>380</ele>
        <time>2019-06-15T08:55:46.028Z</time>
      </trkpt>
      <trkpt lat="45.03097" lon="5.38445">
        <ele>381</ele>
        <time>2019-06-15T08:55:47.028Z</time>
      </trkpt>
      <trkpt lat="45.03097" lon="5.38447">
        <ele>381</ele>
        <time>2019-06-15T08:55:48.028Z</time>
      </trkpt>
      <trkpt lat="45.03098" lon="5.38449">
        <ele>381</ele>
        <time>2019-06-15T08:55:49.028Z</time>
      </trkpt>
      <trkpt lat="45.03098" lon="5.38451">
        <ele>382</ele>
        <time>2019-06-15T08:55:50.028Z</time>
      </trkpt>
      <trkpt lat="45.03098" lon="5.38453">
        <ele>382</ele>
        <time>2019-06-15T08:55:51.028Z</time>
      </trkpt>
      <trkpt lat="45.03098" lon="5.38454">
        <ele>383</ele>
        <time>2019-06-15T08:55:52.028Z</time>
      </trkpt>
      <trkpt lat="45.03098" lon="5.38456">
        <ele>383</ele>
        <time>2019-06-15T08:55:53.028Z</time>
      </trkpt>
      <trkpt lat="45.03097" lon="5.38458">
        <ele>383</ele>
        <time>2019-06-15T08:55:54.028Z</time>
      </trkpt>
      <trkpt lat="45.03097" lon="5.38459">
        <ele>383</ele>
        <time>2019-06-15T08:55:55.028Z</time>
      </trkpt>
      <trkpt lat="45.03096" lon="5.38461">
        <ele>384</ele>
        <time>2019-06-15T08:55:56.028Z</time>
      </trkpt>
      <trkpt lat="45.03096" lon="5.38463">
        <ele>385</ele>
        <time>2019-06-15T08:55:57.028Z</time>
      </trkpt>
      <trkpt lat="45.03095" lon="5.38464">
        <ele>384</ele>
        <time>2019-06-15T08:55:58.028Z</time>
      </trkpt>
      <trkpt lat="45.03095" lon="5.38466">
        <ele>385</ele>
        <time>2019-06-15T08:55:59.028Z</time>
      </trkpt>
      <trkpt lat="45.03094" lon="5.38468">
        <ele>385</ele>
        <time>2019-06-15T08:56:00.028Z</time>
      </trkpt>
      <trkpt lat="45.03094" lon="5.38469">
        <ele>385</ele>
        <time>2019-06-15T08:56:01.028Z</time>
      </trkpt>
      <trkpt lat="45.03093" lon="5.3847">
        <ele>385</ele>
        <time>2019-06-15T08:56:02.028Z</time>
      </trkpt>
      <trkpt lat="45.03093" lon="5.38471">
        <ele>386</ele>
        <time>2019-06-15T08:56:03.028Z</time>
      </trkpt>
      <trkpt lat="45.03092" lon="5.38473">
        <ele>386</ele>
        <time>2019-06-15T08:56:04.028Z</time>
      </trkpt>
      <trkpt lat="45.03091" lon="5.38475">
        <ele>387</ele>
        <time>2019-06-15T08:56:05.028Z</time>
      </trkpt>
      <trkpt lat="45.0309" lon="5.38477">
        <ele>387</ele>
        <time>2019-06-15T08:56:06.028Z</time>
      </trkpt>
      <trkpt lat="45.03089" lon="5.38478">
        <ele>386</ele>
        <time>2019-06-15T08:56:07.028Z</time>
      </trkpt>
      <trkpt lat="45.03088" lon="5.3848">
        <ele>386</ele>
        <time>2019-06-15T08:56:08.028Z</time>
      </trkpt>
      <trkpt lat="45.03087" lon="5.38481">
        <ele>386</ele>
        <time>2019-06-15T08:56:09.028Z</time>
      </trkpt>
      <trkpt lat="45.03086" lon="5.38483">
        <ele>386</ele>
        <time>2019-06-15T08:56:10.028Z</time>
      </trkpt>
      <trkpt lat="45.03086" lon="5.38485">
        <ele>386</ele>
        <time>2019-06-15T08:56:11.028Z</time>
      </trkpt>
      <trkpt lat="45.03085" lon="5.38487">
        <ele>386</ele>
        <time>2019-06-15T08:56:12.028Z</time>
      </trkpt>
      <trkpt lat="45.03084" lon="5.38489">
        <ele>386</ele>
        <time>2019-06-15T08:56:13.028Z</time>
      </trkpt>
      <trkpt lat="45.03084" lon="5.38491">
        <ele>387</ele>
        <time>2019-06-15T08:56:14.028Z</time>
      </trkpt>
      <trkpt lat="45.03084" lon="5.38493">
        <ele>386</ele>
        <time>2019-06-15T08:56:15.028Z</time>
      </trkpt>
      <trkpt lat="45.03084" lon="5.38496">
        <ele>385</ele>
        <time>2019-06-15T08:56:16.028Z</time>
      </trkpt>
      <trkpt lat="45.03084" lon="5.38499">
        <ele>386</ele>
        <time>2019-06-15T08:56:17.028Z</time>
      </trkpt>
      <trkpt lat="45.03084" lon="5.38502">
        <ele>386</ele>
        <time>2019-06-15T08:56:18.028Z</time>
      </trkpt>
      <trkpt lat="45.03084" lon="5.38504">
        <ele>386</ele>
        <time>2019-06-15T08:56:19.028Z</time>
      </trkpt>
      <trkpt lat="45.03084" lon="5.38507">
        <ele>387</ele>
        <time>2019-06-15T08:56:20.028Z</time>
      </trkpt>
      <trkpt lat="45.03084" lon="5.38509">
        <ele>387</ele>
        <time>2019-06-15T08:56:21.028Z</time>
      </trkpt>
      <trkpt lat="45.03084" lon="5.38512">
        <ele>387</ele>
        <time>2019-06-15T08:56:22.028Z</time>
      </trkpt>
      <trkpt lat="45.03085" lon="5.38514">
        <ele>388</ele>
        <time>2019-06-15T08:56:23.028Z</time>
      </trkpt>
      <trkpt lat="45.03085" lon="5.38516">
        <ele>388</ele>
        <time>2019-06-15T08:56:24.028Z</time>
      </trkpt>
      <trkpt lat="45.03085" lon="5.38518">
        <ele>388</ele>
        <time>2019-06-15T08:56:25.028Z</time>
      </trkpt>
      <trkpt lat="45.03086" lon="5.3852">
        <ele>389</ele>
        <time>2019-06-15T08:56:26.028Z</time>
      </trkpt>
      <trkpt lat="45.03087" lon="5.38522">
        <ele>389</ele>
        <time>2019-06-15T08:56:27.028Z</time>
      </trkpt>
      <trkpt lat="45.03087" lon="5.38524">
        <ele>390</ele>
        <time>2019-06-15T08:56:28.028Z</time>
      </trkpt>
      <trkpt lat="45.03088" lon="5.38526">
        <ele>390</ele>
        <time>2019-06-15T08:56:29.028Z</time>
      </trkpt>
      <trkpt lat="45.03089" lon="5.38528">
        <ele>391</ele>
        <time>2019-06-15T08:56:30.028Z</time>
      </trkpt>
      <trkpt lat="45.0309" lon="5.38529">
        <ele>391</ele>
        <time>2019-06-15T08:56:31.028Z</time>
      </trkpt>
      <trkpt lat="45.03091" lon="5.38531">
        <ele>391</ele>
        <time>2019-06-15T08:56:32.028Z</time>
      </trkpt>
      <trkpt lat="45.03092" lon="5.38532">
        <ele>392</ele>
        <time>2019-06-15T08:56:33.028Z</time>
      </trkpt>
      <trkpt lat="45.03093" lon="5.38534">
        <ele>392</ele>
        <time>2019-06-15T08:56:34.028Z</time>
      </trkpt>
      <trkpt lat="45.03094" lon="5.38535">
        <ele>392</ele>
        <time>2019-06-15T08:56:35.028Z</time>
      </trkpt>
      <trkpt lat="45.03095" lon="5.38536">
        <ele>393</ele>
        <time>2019-06-15T08:56:36.028Z</time>
      </trkpt>
      <trkpt lat="45.03096" lon="5.38538">
        <ele>393</ele>
        <time>2019-06-15T08:56:37.028Z</time>
      </trkpt>
      <trkpt lat="45.03097" lon="5.38539">
        <ele>393</ele>
        <time>2019-06-15T08:56:38.028Z</time>
      </trkpt>
      <trkpt lat="45.03098" lon="5.3854">
        <ele>393</ele>
        <time>2019-06-15T08:56:39.028Z</time>
      </trkpt>
      <trkpt lat="45.03099" lon="5.38542">
        <ele>393</ele>
        <time>2019-06-15T08:56:40.028Z</time>
      </trkpt>
      <trkpt lat="45.031" lon="5.38543">
        <ele>394</ele>
        <time>2019-06-15T08:56:41.028Z</time>
      </trkpt>
      <trkpt lat="45.03101" lon="5.38544">
        <ele>394</ele>
        <time>2019-06-15T08:56:42.028Z</time>
      </trkpt>
      <trkpt lat="45.03101" lon="5.38545">
        <ele>395</ele>
        <time>2019-06-15T08:56:43.028Z</time>
      </trkpt>
      <trkpt lat="45.03102" lon="5.38547">
        <ele>395</ele>
        <time>2019-06-15T08:56:44.028Z</time>
      </trkpt>
      <trkpt lat="45.03103" lon="5.38548">
        <ele>395</ele>
        <time>2019-06-15T08:56:45.028Z</time>
      </trkpt>
      <trkpt lat="45.03104" lon="5.3855">
        <ele>395</ele>
        <time>2019-06-15T08:56:46.028Z</time>
      </trkpt>
      <trkpt lat="45.03105" lon="5.38551">
        <ele>395</ele>
        <time>2019-06-15T08:56:47.028Z</time>
      </trkpt>
      <trkpt lat="45.03106" lon="5.38553">
        <ele>395</ele>
        <time>2019-06-15T08:56:48.028Z</time>
      </trkpt>
      <trkpt lat="45.03107" lon="5.38554">
        <ele>396</ele>
        <time>2019-06-15T08:56:49.028Z</time>
      </trkpt>
      <trkpt lat="45.03108" lon="5.38556">
        <ele>396</ele>
        <time>2019-06-15T08:56:50.028Z</time>
      </trkpt>
      <trkpt lat="45.03108" lon="5.38558">
        <ele>396</ele>
        <time>2019-06-15T08:56:51.028Z</time>
      </trkpt>
      <trkpt lat="45.03109" lon="5.38559">
        <ele>396</ele>
        <time>2019-06-15T08:56:52.028Z</time>
      </trkpt>
      <trkpt lat="45.0311" lon="5.38561">
        <ele>396</ele>
        <time>2019-06-15T08:56:53.028Z</time>
      </trkpt>
      <trkpt lat="45.0311" lon="5.38562">
        <ele>397</ele>
        <time>2019-06-15T08:56:54.028Z</time>
      </trkpt>
      <trkpt lat="45.03111" lon="5.38564">
        <ele>397</ele>
        <time>2019-06-15T08:56:55.028Z</time>
      </trkpt>
      <trkpt lat="45.03111" lon="5.38566">
        <ele>397</ele>
        <time>2019-06-15T08:56:56.028Z</time>
      </trkpt>
      <trkpt lat="45.03112" lon="5.38568">
        <ele>398</ele>
        <time>2019-06-15T08:56:57.028Z</time>
      </trkpt>
      <trkpt lat="45.03112" lon="5.38569">
        <ele>398</ele>
        <time>2019-06-15T08:56:58.028Z</time>
      </trkpt>
      <trkpt lat="45.03113" lon="5.38571">
        <ele>398</ele>
        <time>2019-06-15T08:56:59.028Z</time>
      </trkpt>
      <trkpt lat="45.03113" lon="5.38573">
        <ele>399</ele>
        <time>2019-06-15T08:57:00.028Z</time>
      </trkpt>
      <trkpt lat="45.03114" lon="5.38574">
        <ele>399</ele>
        <time>2019-06-15T08:57:01.028Z</time>
      </trkpt>
      <trkpt lat="45.03114" lon="5.38576">
        <ele>399</ele>
        <time>2019-06-15T08:57:02.028Z</time>
      </trkpt>
      <trkpt lat="45.03114" lon="5.38578">
        <ele>399</ele>
        <time>2019-06-15T08:57:03.028Z</time>
      </trkpt>
      <trkpt lat="45.03114" lon="5.3858">
        <ele>399</ele>
        <time>2019-06-15T08:57:04.028Z</time>
      </trkpt>
      <trkpt lat="45.03114" lon="5.38582">
        <ele>399</ele>
        <time>2019-06-15T08:57:05.028Z</time>
      </trkpt>
      <trkpt lat="45.03113" lon="5.38584">
        <ele>399</ele>
        <time>2019-06-15T08:57:06.028Z</time>
      </trkpt>
      <trkpt lat="45.03113" lon="5.38586">
        <ele>399</ele>
        <time>2019-06-15T08:57:07.028Z</time>
      </trkpt>
      <trkpt lat="45.03113" lon="5.38588">
        <ele>399</ele>
        <time>2019-06-15T08:57:08.028Z</time>
      </trkpt>
      <trkpt lat="45.03113" lon="5.3859">
        <ele>399</ele>
        <time>2019-06-15T08:57:09.028Z</time>
      </trkpt>
      <trkpt lat="45.03113" lon="5.38591">
        <ele>399</ele>
        <time>2019-06-15T08:57:10.028Z</time>
      </trkpt>
      <trkpt lat="45.03113" lon="5.38593">
        <ele>399</ele>
        <time>2019-06-15T08:57:11.028Z</time>
      </trkpt>
      <trkpt lat="45.03113" lon="5.38595">
        <ele>399</ele>
        <time>2019-06-15T08:57:12.028Z</time>
      </trkpt>
      <trkpt lat="45.03112" lon="5.38596">
        <ele>398</ele>
        <time>2019-06-15T08:57:13.028Z</time>
      </trkpt>
      <trkpt lat="45.03112" lon="5.38598">
        <ele>399</ele>
        <time>2019-06-15T08:57:14.028Z</time>
      </trkpt>
      <trkpt lat="45.03112" lon="5.386">
        <ele>398</ele>
        <time>2019-06-15T08:57:15.028Z</time>
      </trkpt>
      <trkpt lat="45.03113" lon="5.38602">
        <ele>398</ele>
        <time>2019-06-15T08:57:16.028Z</time>
      </trkpt>
      <trkpt lat="45.03113" lon="5.38604">
        <ele>399</ele>
        <time>2019-06-15T08:57:17.028Z</time>
      </trkpt>
      <trkpt lat="45.03113" lon="5.38606">
        <ele>399</ele>
        <time>2019-06-15T08:57:18.028Z</time>
      </trkpt>
      <trkpt lat="45.03114" lon="5.38608">
        <ele>400</ele>
        <time>2019-06-15T08:57:19.028Z</time>
      </trkpt>
      <trkpt lat="45.03114" lon="5.3861">
        <ele>401</ele>
        <time>2019-06-15T08:57:20.028Z</time>
      </trkpt>
      <trkpt lat="45.03114" lon="5.38612">
        <ele>401</ele>
        <time>2019-06-15T08:57:21.028Z</time>
      </trkpt>
      <trkpt lat="45.03115" lon="5.38614">
        <ele>402</ele>
        <time>2019-06-15T08:57:22.028Z</time>
      </trkpt>
      <trkpt lat="45.03115" lon="5.38616">
        <ele>402</ele>
        <time>2019-06-15T08:57:23.028Z</time>
      </trkpt>
      <trkpt lat="45.03116" lon="5.38618">
        <ele>402</ele>
        <time>2019-06-15T08:57:24.028Z</time>
      </trkpt>
      <trkpt lat="45.03117" lon="5.3862">
        <ele>402</ele>
        <time>2019-06-15T08:57:25.028Z</time>
      </trkpt>
      <trkpt lat="45.03118" lon="5.38622">
        <ele>402</ele>
        <time>2019-06-15T08:57:26.028Z</time>
      </trkpt>
      <trkpt lat="45.03119" lon="5.38624">
        <ele>402</ele>
        <time>2019-06-15T08:57:27.028Z</time>
      </trkpt>
      <trkpt lat="45.03119" lon="5.38626">
        <ele>403</ele>
        <time>2019-06-15T08:57:28.028Z</time>
      </trkpt>
      <trkpt lat="45.0312" lon="5.38627">
        <ele>404</ele>
        <time>2019-06-15T08:57:29.028Z</time>
      </trkpt>
      <trkpt lat="45.03121" lon="5.38629">
        <ele>404</ele>
        <time>2019-06-15T08:57:30.028Z</time>
      </trkpt>
      <trkpt lat="45.03122" lon="5.3863">
        <ele>404</ele>
        <time>2019-06-15T08:57:31.028Z</time>
      </trkpt>
      <trkpt lat="45.03122" lon="5.38632">
        <ele>404</ele>
        <time>2019-06-15T08:57:32.028Z</time>
      </trkpt>
      <trkpt lat="45.03123" lon="5.38634">
        <ele>405</ele>
        <time>2019-06-15T08:57:33.028Z</time>
      </trkpt>
      <trkpt lat="45.03124" lon="5.38635">
        <ele>406</ele>
        <time>2019-06-15T08:57:34.028Z</time>
      </trkpt>
      <trkpt lat="45.03125" lon="5.38637">
        <ele>406</ele>
        <time>2019-06-15T08:57:35.028Z</time>
      </trkpt>
      <trkpt lat="45.03126" lon="5.38638">
        <ele>407</ele>
        <time>2019-06-15T08:57:36.028Z</time>
      </trkpt>
      <trkpt lat="45.03127" lon="5.38639">
        <ele>407</ele>
        <time>2019-06-15T08:57:37.028Z</time>
      </trkpt>
      <trkpt lat="45.03128" lon="5.38641">
        <ele>408</ele>
        <time>2019-06-15T08:57:38.028Z</time>
      </trkpt>
      <trkpt lat="45.03129" lon="5.38642">
        <ele>408</ele>
        <time>2019-06-15T08:57:39.028Z</time>
      </trkpt>
      <trkpt lat="45.0313" lon="5.38643">
        <ele>409</ele>
        <time>2019-06-15T08:57:40.028Z</time>
      </trkpt>
      <trkpt lat="45.03131" lon="5.38645">
        <ele>409</ele>
        <time>2019-06-15T08:57:41.028Z</time>
      </trkpt>
      <trkpt lat="45.03132" lon="5.38646">
        <ele>409</ele>
        <time>2019-06-15T08:57:42.028Z</time>
      </trkpt>
      <trkpt lat="45.03133" lon="5.38648">
        <ele>410</ele>
        <time>2019-06-15T08:57:43.028Z</time>
      </trkpt>
      <trkpt lat="45.03134" lon="5.38649">
        <ele>409</ele>
        <time>2019-06-15T08:57:44.028Z</time>
      </trkpt>
      <trkpt lat="45.03135" lon="5.38651">
        <ele>409</ele>
        <time>2019-06-15T08:57:45.028Z</time>
      </trkpt>
      <trkpt lat="45.03135" lon="5.38652">
        <ele>410</ele>
        <time>2019-06-15T08:57:46.028Z</time>
      </trkpt>
      <trkpt lat="45.03136" lon="5.38654">
        <ele>409</ele>
        <time>2019-06-15T08:57:47.028Z</time>
      </trkpt>
      <trkpt lat="45.03137" lon="5.38656">
        <ele>410</ele>
        <time>2019-06-15T08:57:48.028Z</time>
      </trkpt>
      <trkpt lat="45.03137" lon="5.38657">
        <ele>410</ele>
        <time>2019-06-15T08:57:49.028Z</time>
      </trkpt>
      <trkpt lat="45.03138" lon="5.38659">
        <ele>411</ele>
        <time>2019-06-15T08:57:50.028Z</time>
      </trkpt>
      <trkpt lat="45.03138" lon="5.38661">
        <ele>411</ele>
        <time>2019-06-15T08:57:51.028Z</time>
      </trkpt>
      <trkpt lat="45.03139" lon="5.38663">
        <ele>412</ele>
        <time>2019-06-15T08:57:52.028Z</time>
      </trkpt>
      <trkpt lat="45.03139" lon="5.38664">
        <ele>413</ele>
        <time>2019-06-15T08:57:53.028Z</time>
      </trkpt>
      <trkpt lat="45.03139" lon="5.38666">
        <ele>413</ele>
        <time>2019-06-15T08:57:54.028Z</time>
      </trkpt>
      <trkpt lat="45.0314" lon="5.38668">
        <ele>413</ele>
        <time>2019-06-15T08:57:55.028Z</time>
      </trkpt>
      <trkpt lat="45.03141" lon="5.3867">
        <ele>412</ele>
        <time>2019-06-15T08:57:56.028Z</time>
      </trkpt>
      <trkpt lat="45.03142" lon="5.38672">
        <ele>413</ele>
        <time>2019-06-15T08:57:57.028Z</time>
      </trkpt>
      <trkpt lat="45.03144" lon="5.38674">
        <ele>413</ele>
        <time>2019-06-15T08:57:58.028Z</time>
      </trkpt>
      <trkpt lat="45.03145" lon="5.38676">
        <ele>413</ele>
        <time>2019-06-15T08:57:59.028Z</time>
      </trkpt>
      <trkpt lat="45.03147" lon="5.38679">
        <ele>413</ele>
        <time>2019-06-15T08:58:00.028Z</time>
      </trkpt>
      <trkpt lat="45.03148" lon="5.38681">
        <ele>413</ele>
        <time>2019-06-15T08:58:01.028Z</time>
      </trkpt>
      <trkpt lat="45.03149" lon="5.38684">
        <ele>413</ele>
        <time>2019-06-15T08:58:02.028Z</time>
      </trkpt>
      <trkpt lat="45.0315" lon="5.38686">
        <ele>414</ele>
        <time>2019-06-15T08:58:03.028Z</time>
      </trkpt>
      <trkpt lat="45.03151" lon="5.38688">
        <ele>414</ele>
        <time>2019-06-15T08:58:04.028Z</time>
      </trkpt>
      <trkpt lat="45.03152" lon="5.38689">
        <ele>414</ele>
        <time>2019-06-15T08:58:05.028Z</time>
      </trkpt>
      <trkpt lat="45.03153" lon="5.38691">
        <ele>414</ele>
        <time>2019-06-15T08:58:06.028Z</time>
      </trkpt>
      <trkpt lat="45.03153" lon="5.38692">
        <ele>414</ele>
        <time>2019-06-15T08:58:07.028Z</time>
      </trkpt>
      <trkpt lat="45.03154" lon="5.38693">
        <ele>414</ele>
        <time>2019-06-15T08:58:08.028Z</time>
      </trkpt>
      <trkpt lat="45.03155" lon="5.38694">
        <ele>415</ele>
        <time>2019-06-15T08:58:09.028Z</time>
      </trkpt>
      <trkpt lat="45.03156" lon="5.38695">
        <ele>416</ele>
        <time>2019-06-15T08:58:10.028Z</time>
      </trkpt>
      <trkpt lat="45.03157" lon="5.38696">
        <ele>416</ele>
        <time>2019-06-15T08:58:11.028Z</time>
      </trkpt>
      <trkpt lat="45.03158" lon="5.38697">
        <ele>416</ele>
        <time>2019-06-15T08:58:12.028Z</time>
      </trkpt>
      <trkpt lat="45.03158" lon="5.38697">
        <ele>418</ele>
        <time>2019-06-15T08:58:13.028Z</time>
      </trkpt>
      <trkpt lat="45.03159" lon="5.38698">
        <ele>418</ele>
        <time>2019-06-15T08:58:14.028Z</time>
      </trkpt>
      <trkpt lat="45.03161" lon="5.38699">
        <ele>418</ele>
        <time>2019-06-15T08:58:15.028Z</time>
      </trkpt>
      <trkpt lat="45.03162" lon="5.387">
        <ele>418</ele>
        <time>2019-06-15T08:58:16.028Z</time>
      </trkpt>
      <trkpt lat="45.03163" lon="5.387">
        <ele>419</ele>
        <time>2019-06-15T08:58:17.028Z</time>
      </trkpt>
      <trkpt lat="45.03164" lon="5.387">
        <ele>420</ele>
        <time>2019-06-15T08:58:18.028Z</time>
      </trkpt>
      <trkpt lat="45.03165" lon="5.38699">
        <ele>419</ele>
        <time>2019-06-15T08:58:19.028Z</time>
      </trkpt>
      <trkpt lat="45.03166" lon="5.38699">
        <ele>418</ele>
        <time>2019-06-15T08:58:20.028Z</time>
      </trkpt>
      <trkpt lat="45.03166" lon="5.38697">
        <ele>419</ele>
        <time>2019-06-15T08:58:21.028Z</time>
      </trkpt>
      <trkpt lat="45.03166" lon="5.38696">
        <ele>418</ele>
        <time>2019-06-15T08:58:22.028Z</time>
      </trkpt>
      <trkpt lat="45.03167" lon="5.38694">
        <ele>418</ele>
        <time>2019-06-15T08:58:23.028Z</time>
      </trkpt>
      <trkpt lat="45.03167" lon="5.38693">
        <ele>417</ele>
        <time>2019-06-15T08:58:24.028Z</time>
      </trkpt>
      <trkpt lat="45.03168" lon="5.38692">
        <ele>417</ele>
        <time>2019-06-15T08:58:25.028Z</time>
      </trkpt>
      <trkpt lat="45.03168" lon="5.3869">
        <ele>417</ele>
        <time>2019-06-15T08:58:26.028Z</time>
      </trkpt>
      <trkpt lat="45.03169" lon="5.38689">
        <ele>418</ele>
        <time>2019-06-15T08:58:27.028Z</time>
      </trkpt>
      <trkpt lat="45.0317" lon="5.38688">
        <ele>418</ele>
        <time>2019-06-15T08:58:28.028Z</time>
      </trkpt>
      <trkpt lat="45.03171" lon="5.38687">
        <ele>418</ele>
        <time>2019-06-15T08:58:29.028Z</time>
      </trkpt>
      <trkpt lat="45.03172" lon="5.38687">
        <ele>419</ele>
        <time>2019-06-15T08:58:30.028Z</time>
      </trkpt>
      <trkpt lat="45.03173" lon="5.38687">
        <ele>419</ele>
        <time>2019-06-15T08:58:31.028Z</time>
      </trkpt>
      <trkpt lat="45.03174" lon="5.38687">
        <ele>419</ele>
        <time>2019-06-15T08:58:32.028Z</time>
      </trkpt>
      <trkpt lat="45.03175" lon="5.38687">
        <ele>418</ele>
        <time>2019-06-15T08:58:33.028Z</time>
      </trkpt>
      <trkpt lat="45.03176" lon="5.38688">
        <ele>419</ele>
        <time>2019-06-15T08:58:34.028Z</time>
      </trkpt>
      <trkpt lat="45.03177" lon="5.38689">
        <ele>419</ele>
        <time>2019-06-15T08:58:35.028Z</time>
      </trkpt>
      <trkpt lat="45.03179" lon="5.3869">
        <ele>420</ele>
        <time>2019-06-15T08:58:36.028Z</time>
      </trkpt>
      <trkpt lat="45.0318" lon="5.3869">
        <ele>419</ele>
        <time>2019-06-15T08:58:37.028Z</time>
      </trkpt>
      <trkpt lat="45.0318" lon="5.38691">
        <ele>419</ele>
        <time>2019-06-15T08:58:38.028Z</time>
      </trkpt>
      <trkpt lat="45.03181" lon="5.38693">
        <ele>420</ele>
        <time>2019-06-15T08:58:39.028Z</time>
      </trkpt>
      <trkpt lat="45.03182" lon="5.38694">
        <ele>420</ele>
        <time>2019-06-15T08:58:40.028Z</time>
      </trkpt>
      <trkpt lat="45.03183" lon="5.38695">
        <ele>421</ele>
        <time>2019-06-15T08:58:41.028Z</time>
      </trkpt>
      <trkpt lat="45.03183" lon="5.38696">
        <ele>422</ele>
        <time>2019-06-15T08:58:42.028Z</time>
      </trkpt>
      <trkpt lat="45.03184" lon="5.38697">
        <ele>423</ele>
        <time>2019-06-15T08:58:43.028Z</time>
      </trkpt>
      <trkpt lat="45.03185" lon="5.38698">
        <ele>423</ele>
        <time>2019-06-15T08:58:44.028Z</time>
      </trkpt>
      <trkpt lat="45.03186" lon="5.38699">
        <ele>423</ele>
        <time>2019-06-15T08:58:45.028Z</time>
      </trkpt>
      <trkpt lat="45.03186" lon="5.38701">
        <ele>424</ele>
        <time>2019-06-15T08:58:46.028Z</time>
      </trkpt>
      <trkpt lat="45.03187" lon="5.38702">
        <ele>424</ele>
        <time>2019-06-15T08:58:47.028Z</time>
      </trkpt>
      <trkpt lat="45.03188" lon="5.38703">
        <ele>424</ele>
        <time>2019-06-15T08:58:48.028Z</time>
      </trkpt>
      <trkpt lat="45.03188" lon="5.38703">
        <ele>424</ele>
        <time>2019-06-15T08:58:49.028Z</time>
      </trkpt>
      <trkpt lat="45.03189" lon="5.38704">
        <ele>425</ele>
        <time>2019-06-15T08:58:50.028Z</time>
      </trkpt>
      <trkpt lat="45.03189" lon="5.38705">
        <ele>425</ele>
        <time>2019-06-15T08:58:51.028Z</time>
      </trkpt>
      <trkpt lat="45.0319" lon="5.38706">
        <ele>425</ele>
        <time>2019-06-15T08:58:52.028Z</time>
      </trkpt>
      <trkpt lat="45.0319" lon="5.38707">
        <ele>425</ele>
        <time>2019-06-15T08:58:53.028Z</time>
      </trkpt>
      <trkpt lat="45.03191" lon="5.38708">
        <ele>425</ele>
        <time>2019-06-15T08:58:54.028Z</time>
      </trkpt>
      <trkpt lat="45.03191" lon="5.38709">
        <ele>424</ele>
        <time>2019-06-15T08:58:55.028Z</time>
      </trkpt>
      <trkpt lat="45.03192" lon="5.3871">
        <ele>425</ele>
        <time>2019-06-15T08:58:56.028Z</time>
      </trkpt>
      <trkpt lat="45.03192" lon="5.38712">
        <ele>425</ele>
        <time>2019-06-15T08:58:57.028Z</time>
      </trkpt>
      <trkpt lat="45.03193" lon="5.38714">
        <ele>425</ele>
        <time>2019-06-15T08:58:58.028Z</time>
      </trkpt>
      <trkpt lat="45.03193" lon="5.38715">
        <ele>426</ele>
        <time>2019-06-15T08:58:59.028Z</time>
      </trkpt>
      <trkpt lat="45.03193" lon="5.38716">
        <ele>426</ele>
        <time>2019-06-15T08:59:00.028Z</time>
      </trkpt>
      <trkpt lat="45.03194" lon="5.38718">
        <ele>426</ele>
        <time>2019-06-15T08:59:01.028Z</time>
      </trkpt>
      <trkpt lat="45.03194" lon="5.38719">
        <ele>427</ele>
        <time>2019-06-15T08:59:02.028Z</time>
      </trkpt>
      <trkpt lat="45.03195" lon="5.3872">
        <ele>426</ele>
        <time>2019-06-15T08:59:03.028Z</time>
      </trkpt>
      <trkpt lat="45.03195" lon="5.38721">
        <ele>427</ele>
        <time>2019-06-15T08:59:04.028Z</time>
      </trkpt>
      <trkpt lat="45.03195" lon="5.38723">
        <ele>427</ele>
        <time>2019-06-15T08:59:05.028Z</time>
      </trkpt>
      <trkpt lat="45.03195" lon="5.38724">
        <ele>428</ele>
        <time>2019-06-15T08:59:06.028Z</time>
      </trkpt>
      <trkpt lat="45.03195" lon="5.38725">
        <ele>429</ele>
        <time>2019-06-15T08:59:07.028Z</time>
      </trkpt>
      <trkpt lat="45.03195" lon="5.38727">
        <ele>429</ele>
        <time>2019-06-15T08:59:08.028Z</time>
      </trkpt>
      <trkpt lat="45.03195" lon="5.38728">
        <ele>430</ele>
        <time>2019-06-15T08:59:09.028Z</time>
      </trkpt>
      <trkpt lat="45.03195" lon="5.3873">
        <ele>431</ele>
        <time>2019-06-15T08:59:10.028Z</time>
      </trkpt>
      <trkpt lat="45.03195" lon="5.38732">
        <ele>431</ele>
        <time>2019-06-15T08:59:11.028Z</time>
      </trkpt>
      <trkpt lat="45.03195" lon="5.38733">
        <ele>432</ele>
        <time>2019-06-15T08:59:12.028Z</time>
      </trkpt>
      <trkpt lat="45.03196" lon="5.38735">
        <ele>432</ele>
        <time>2019-06-15T08:59:13.028Z</time>
      </trkpt>
      <trkpt lat="45.03196" lon="5.38736">
        <ele>433</ele>
        <time>2019-06-15T08:59:14.028Z</time>
      </trkpt>
      <trkpt lat="45.03196" lon="5.38737">
        <ele>434</ele>
        <time>2019-06-15T08:59:15.028Z</time>
      </trkpt>
      <trkpt lat="45.03197" lon="5.38738">
        <ele>433</ele>
        <time>2019-06-15T08:59:16.028Z</time>
      </trkpt>
      <trkpt lat="45.03198" lon="5.3874">
        <ele>434</ele>
        <time>2019-06-15T08:59:17.028Z</time>
      </trkpt>
      <trkpt lat="45.03199" lon="5.38741">
        <ele>434</ele>
        <time>2019-06-15T08:59:18.028Z</time>
      </trkpt>
      <trkpt lat="45.03199" lon="5.38743">
        <ele>434</ele>
        <time>2019-06-15T08:59:19.028Z</time>
      </trkpt>
      <trkpt lat="45.032" lon="5.38744">
        <ele>434</ele>
        <time>2019-06-15T08:59:20.028Z</time>
      </trkpt>
      <trkpt lat="45.03201" lon="5.38745">
        <ele>435</ele>
        <time>2019-06-15T08:59:21.028Z</time>
      </trkpt>
      <trkpt lat="45.03201" lon="5.38747">
        <ele>435</ele>
        <time>2019-06-15T08:59:22.028Z</time>
      </trkpt>
      <trkpt lat="45.03202" lon="5.38748">
        <ele>436</ele>
        <time>2019-06-15T08:59:23.028Z</time>
      </trkpt>
      <trkpt lat="45.03202" lon="5.38749">
        <ele>436</ele>
        <time>2019-06-15T08:59:24.028Z</time>
      </trkpt>
      <trkpt lat="45.03203" lon="5.3875">
        <ele>437</ele>
        <time>2019-06-15T08:59:25.028Z</time>
      </trkpt>
      <trkpt lat="45.03203" lon="5.38751">
        <ele>438</ele>
        <time>2019-06-15T08:59:26.028Z</time>
      </trkpt>
      <trkpt lat="45.03203" lon="5.38752">
        <ele>437</ele>
        <time>2019-06-15T08:59:27.028Z</time>
      </trkpt>
      <trkpt lat="45.03204" lon="5.38754">
        <ele>437</ele>
        <time>2019-06-15T08:59:28.028Z</time>
      </trkpt>
      <trkpt lat="45.03205" lon="5.38755">
        <ele>438</ele>
        <time>2019-06-15T08:59:29.028Z</time>
      </trkpt>
      <trkpt lat="45.03206" lon="5.38757">
        <ele>437</ele>
        <time>2019-06-15T08:59:30.028Z</time>
      </trkpt>
      <trkpt lat="45.03207" lon="5.38758">
        <ele>438</ele>
        <time>2019-06-15T08:59:31.028Z</time>
      </trkpt>
      <trkpt lat="45.03208" lon="5.3876">
        <ele>436</ele>
        <time>2019-06-15T08:59:32.028Z</time>
      </trkpt>
      <trkpt lat="45.03209" lon="5.38761">
        <ele>436</ele>
        <time>2019-06-15T08:59:33.028Z</time>
      </trkpt>
      <trkpt lat="45.03209" lon="5.38762">
        <ele>437</ele>
        <time>2019-06-15T08:59:34.028Z</time>
      </trkpt>
      <trkpt lat="45.0321" lon="5.38763">
        <ele>437</ele>
        <time>2019-06-15T08:59:35.028Z</time>
      </trkpt>
      <trkpt lat="45.03211" lon="5.38764">
        <ele>437</ele>
        <time>2019-06-15T08:59:36.028Z</time>
      </trkpt>
      <trkpt lat="45.03211" lon="5.38765">
        <ele>437</ele>
        <time>2019-06-15T08:59:37.028Z</time>
      </trkpt>
      <trkpt lat="45.03212" lon="5.38767">
        <ele>437</ele>
        <time>2019-06-15T08:59:38.028Z</time>
      </trkpt>
      <trkpt lat="45.03212" lon="5.38768">
        <ele>439</ele>
        <time>2019-06-15T08:59:39.028Z</time>
      </trkpt>
      <trkpt lat="45.03212" lon="5.38769">
        <ele>437</ele>
        <time>2019-06-15T08:59:40.028Z</time>
      </trkpt>
      <trkpt lat="45.03213" lon="5.3877">
        <ele>438</ele>
        <time>2019-06-15T08:59:41.028Z</time>
      </trkpt>
      <trkpt lat="45.03213" lon="5.38772">
        <ele>439</ele>
        <time>2019-06-15T08:59:42.028Z</time>
      </trkpt>
      <trkpt lat="45.03213" lon="5.38773">
        <ele>439</ele>
        <time>2019-06-15T08:59:43.028Z</time>
      </trkpt>
      <trkpt lat="45.03214" lon="5.38774">
        <ele>439</ele>
        <time>2019-06-15T08:59:44.028Z</time>
      </trkpt>
      <trkpt lat="45.03214" lon="5.38775">
        <ele>439</ele>
        <time>2019-06-15T08:59:45.028Z</time>
      </trkpt>
      <trkpt lat="45.03214" lon="5.38776">
        <ele>440</ele>
        <time>2019-06-15T08:59:46.028Z</time>
      </trkpt>
      <trkpt lat="45.03215" lon="5.38778">
        <ele>441</ele>
        <time>2019-06-15T08:59:47.028Z</time>
      </trkpt>
      <trkpt lat="45.03215" lon="5.38779">
        <ele>440</ele>
        <time>2019-06-15T08:59:48.028Z</time>
      </trkpt>
      <trkpt lat="45.03215" lon="5.38781">
        <ele>440</ele>
        <time>2019-06-15T08:59:49.028Z</time>
      </trkpt>
      <trkpt lat="45.03216" lon="5.38783">
        <ele>440</ele>
        <time>2019-06-15T08:59:50.028Z</time>
      </trkpt>
      <trkpt lat="45.03216" lon="5.38785">
        <ele>441</ele>
        <time>2019-06-15T08:59:51.028Z</time>
      </trkpt>
      <trkpt lat="45.03216" lon="5.38787">
        <ele>441</ele>
        <time>2019-06-15T08:59:52.028Z</time>
      </trkpt>
      <trkpt lat="45.03216" lon="5.38788">
        <ele>441</ele>
        <time>2019-06-15T08:59:53.028Z</time>
      </trkpt>
      <trkpt lat="45.03216" lon="5.38789">
        <ele>442</ele>
        <time>2019-06-15T08:59:54.028Z</time>
      </trkpt>
      <trkpt lat="45.03216" lon="5.3879">
        <ele>443</ele>
        <time>2019-06-15T08:59:55.028Z</time>
      </trkpt>
      <trkpt lat="45.03216" lon="5.38791">
        <ele>443</ele>
        <time>2019-06-15T08:59:56.028Z</time>
      </trkpt>
      <trkpt lat="45.03216" lon="5.38793">
        <ele>443</ele>
        <time>2019-06-15T08:59:57.028Z</time>
      </trkpt>
      <trkpt lat="45.03216" lon="5.38794">
        <ele>444</ele>
        <time>2019-06-15T08:59:58.028Z</time>
      </trkpt>
      <trkpt lat="45.03217" lon="5.38795">
        <ele>445</ele>
        <time>2019-06-15T08:59:59.028Z</time>
      </trkpt>
      <trkpt lat="45.03216" lon="5.38796">
        <ele>445</ele>
        <time>2019-06-15T09:00:00.028Z</time>
      </trkpt>
      <trkpt lat="45.03216" lon="5.38797">
        <ele>446</ele>
        <time>2019-06-15T09:00:01.028Z</time>
      </trkpt>
      <trkpt lat="45.03216" lon="5.38799">
        <ele>445</ele>
        <time>2019-06-15T09:00:02.028Z</time>
      </trkpt>
      <trkpt lat="45.03216" lon="5.38801">
        <ele>445</ele>
        <time>2019-06-15T09:00:03.028Z</time>
      </trkpt>
      <trkpt lat="45.03216" lon="5.38804">
        <ele>446</ele>
        <time>2019-06-15T09:00:04.028Z</time>
      </trkpt>
      <trkpt lat="45.03217" lon="5.38806">
        <ele>446</ele>
        <time>2019-06-15T09:00:05.028Z</time>
      </trkpt>
      <trkpt lat="45.03216" lon="5.38808">
        <ele>446</ele>
        <time>2019-06-15T09:00:06.028Z</time>
      </trkpt>
      <trkpt lat="45.03216" lon="5.3881">
        <ele>446</ele>
        <time>2019-06-15T09:00:07.028Z</time>
      </trkpt>
      <trkpt lat="45.03216" lon="5.38813">
        <ele>446</ele>
        <time>2019-06-15T09:00:08.028Z</time>
      </trkpt>
      <trkpt lat="45.03216" lon="5.38815">
        <ele>446</ele>
        <time>2019-06-15T09:00:09.028Z</time>
      </trkpt>
      <trkpt lat="45.03216" lon="5.38817">
        <ele>446</ele>
        <time>2019-06-15T09:00:10.028Z</time>
      </trkpt>
      <trkpt lat="45.03216" lon="5.38819">
        <ele>446</ele>
        <time>2019-06-15T09:00:11.028Z</time>
      </trkpt>
      <trkpt lat="45.03216" lon="5.3882">
        <ele>446</ele>
        <time>2019-06-15T09:00:12.028Z</time>
      </trkpt>
      <trkpt lat="45.03216" lon="5.38822">
        <ele>447</ele>
        <time>2019-06-15T09:00:13.028Z</time>
      </trkpt>
      <trkpt lat="45.03216" lon="5.38824">
        <ele>449</ele>
        <time>2019-06-15T09:00:14.028Z</time>
      </trkpt>
      <trkpt lat="45.03216" lon="5.38825">
        <ele>450</ele>
        <time>2019-06-15T09:00:15.028Z</time>
      </trkpt>
      <trkpt lat="45.03216" lon="5.38827">
        <ele>451</ele>
        <time>2019-06-15T09:00:16.028Z</time>
      </trkpt>
      <trkpt lat="45.03215" lon="5.38829">
        <ele>453</ele>
        <time>2019-06-15T09:00:17.028Z</time>
      </trkpt>
      <trkpt lat="45.03215" lon="5.38831">
        <ele>454</ele>
        <time>2019-06-15T09:00:18.028Z</time>
      </trkpt>
      <trkpt lat="45.03214" lon="5.38833">
        <ele>454</ele>
        <time>2019-06-15T09:00:19.028Z</time>
      </trkpt>
      <trkpt lat="45.03214" lon="5.38835">
        <ele>454</ele>
        <time>2019-06-15T09:00:20.028Z</time>
      </trkpt>
      <trkpt lat="45.03213" lon="5.38836">
        <ele>454</ele>
        <time>2019-06-15T09:00:21.028Z</time>
      </trkpt>
      <trkpt lat="45.03213" lon="5.38838">
        <ele>455</ele>
        <time>2019-06-15T09:00:22.028Z</time>
      </trkpt>
      <trkpt lat="45.03213" lon="5.38839">
        <ele>456</ele>
        <time>2019-06-15T09:00:23.028Z</time>
      </trkpt>
      <trkpt lat="45.03213" lon="5.38841">
        <ele>456</ele>
        <time>2019-06-15T09:00:24.028Z</time>
      </trkpt>
      <trkpt lat="45.03213" lon="5.38842">
        <ele>456</ele>
        <time>2019-06-15T09:00:25.028Z</time>
      </trkpt>
      <trkpt lat="45.03213" lon="5.38843">
        <ele>457</ele>
        <time>2019-06-15T09:00:26.028Z</time>
      </trkpt>
      <trkpt lat="45.03213" lon="5.38845">
        <ele>457</ele>
        <time>2019-06-15T09:00:27.028Z</time>
      </trkpt>
      <trkpt lat="45.03213" lon="5.38846">
        <ele>457</ele>
        <time>2019-06-15T09:00:28.028Z</time>
      </trkpt>
      <trkpt lat="45.03213" lon="5.38847">
        <ele>457</ele>
        <time>2019-06-15T09:00:29.028Z</time>
      </trkpt>
      <trkpt lat="45.03213" lon="5.38848">
        <ele>457</ele>
        <time>2019-06-15T09:00:30.028Z</time>
      </trkpt>
      <trkpt lat="45.03213" lon="5.38849">
        <ele>458</ele>
        <time>2019-06-15T09:00:31.028Z</time>
      </trkpt>
      <trkpt lat="45.03214" lon="5.38851">
        <ele>458</ele>
        <time>2019-06-15T09:00:32.028Z</time>
      </trkpt>
      <trkpt lat="45.03214" lon="5.38852">
        <ele>459</ele>
        <time>2019-06-15T09:00:33.028Z</time>
      </trkpt>
      <trkpt lat="45.03214" lon="5.38852">
        <ele>460</ele>
        <time>2019-06-15T09:00:34.028Z</time>
      </trkpt>
      <trkpt lat="45.03214" lon="5.38853">
        <ele>460</ele>
        <time>2019-06-15T09:00:35.028Z</time>
      </trkpt>
      <trkpt lat="45.03215" lon="5.38855">
        <ele>460</ele>
        <time>2019-06-15T09:00:36.028Z</time>
      </trkpt>
      <trkpt lat="45.03215" lon="5.38856">
        <ele>461</ele>
        <time>2019-06-15T09:00:37.028Z</time>
      </trkpt>
      <trkpt lat="45.03216" lon="5.38858">
        <ele>462</ele>
        <time>2019-06-15T09:00:38.028Z</time>
      </trkpt>
      <trkpt lat="45.03216" lon="5.38859">
        <ele>462</ele>
        <time>2019-06-15T09:00:39.028Z</time>
      </trkpt>
      <trkpt lat="45.03216" lon="5.38861">
        <ele>463</ele>
        <time>2019-06-15T09:00:40.028Z</time>
      </trkpt>
      <trkpt lat="45.03216" lon="5.38862">
        <ele>463</ele>
        <time>2019-06-15T09:00:41.028Z</time>
      </trkpt>
      <trkpt lat="45.03217" lon="5.38863">
        <ele>463</ele>
        <time>2019-06-15T09:00:42.028Z</time>
      </trkpt>
      <trkpt lat="45.03217" lon="5.38864">
        <ele>462</ele>
        <time>2019-06-15T09:00:43.028Z</time>
      </trkpt>
      <trkpt lat="45.03217" lon="5.38865">
        <ele>462</ele>
        <time>2019-06-15T09:00:44.028Z</time>
      </trkpt>
      <trkpt lat="45.03217" lon="5.38867">
        <ele>462</ele>
        <time>2019-06-15T09:00:45.028Z</time>
      </trkpt>
      <trkpt lat="45.03217" lon="5.38869">
        <ele>462</ele>
        <time>2019-06-15T09:00:46.028Z</time>
      </trkpt>
      <trkpt lat="45.03217" lon="5.3887">
        <ele>463</ele>
        <time>2019-06-15T09:00:47.028Z</time>
      </trkpt>
      <trkpt lat="45.03217" lon="5.38872">
        <ele>463</ele>
        <time>2019-06-15T09:00:48.028Z</time>
      </trkpt>
      <trkpt lat="45.03217" lon="5.38873">
        <ele>465</ele>
        <time>2019-06-15T09:00:49.028Z</time>
      </trkpt>
      <trkpt lat="45.03218" lon="5.38874">
        <ele>465</ele>
        <time>2019-06-15T09:00:50.028Z</time>
      </trkpt>
      <trkpt lat="45.03219" lon="5.38874">
        <ele>465</ele>
        <time>2019-06-15T09:00:51.028Z</time>
      </trkpt>
      <trkpt lat="45.0322" lon="5.38874">
        <ele>466</ele>
        <time>2019-06-15T09:00:52.028Z</time>
      </trkpt>
      <trkpt lat="45.03221" lon="5.38874">
        <ele>466</ele>
        <time>2019-06-15T09:00:53.028Z</time>
      </trkpt>
      <trkpt lat="45.03221" lon="5.38874">
        <ele>467</ele>
        <time>2019-06-15T09:00:54.028Z</time>
      </trkpt>
      <trkpt lat="45.03222" lon="5.38874">
        <ele>467</ele>
        <time>2019-06-15T09:00:55.028Z</time>
      </trkpt>
      <trkpt lat="45.03222" lon="5.38874">
        <ele>467</ele>
        <time>2019-06-15T09:00:56.028Z</time>
      </trkpt>
      <trkpt lat="45.03222" lon="5.38874">
        <ele>468</ele>
        <time>2019-06-15T09:00:57.028Z</time>
      </trkpt>
      <trkpt lat="45.03223" lon="5.38874">
        <ele>468</ele>
        <time>2019-06-15T09:00:58.028Z</time>
      </trkpt>
      <trkpt lat="45.03224" lon="5.38873">
        <ele>468</ele>
        <time>2019-06-15T09:00:59.028Z</time>
      </trkpt>
      <trkpt lat="45.03224" lon="5.38873">
        <ele>469</ele>
        <time>2019-06-15T09:01:00.028Z</time>
      </trkpt>
      <trkpt lat="45.03225" lon="5.38873">
        <ele>469</ele>
        <time>2019-06-15T09:01:01.028Z</time>
      </trkpt>
      <trkpt lat="45.03226" lon="5.38873">
        <ele>469</ele>
        <time>2019-06-15T09:01:02.028Z</time>
      </trkpt>
      <trkpt lat="45.03227" lon="5.38872">
        <ele>469</ele>
        <time>2019-06-15T09:01:03.028Z</time>
      </trkpt>
      <trkpt lat="45.03227" lon="5.38872">
        <ele>469</ele>
        <time>2019-06-15T09:01:04.028Z</time>
      </trkpt>
      <trkpt lat="45.03228" lon="5.38872">
        <ele>470</ele>
        <time>2019-06-15T09:01:05.028Z</time>
      </trkpt>
      <trkpt lat="45.03229" lon="5.38872">
        <ele>470</ele>
        <time>2019-06-15T09:01:06.028Z</time>
      </trkpt>
      <trkpt lat="45.0323" lon="5.38872">
        <ele>470</ele>
        <time>2019-06-15T09:01:07.028Z</time>
      </trkpt>
      <trkpt lat="45.03231" lon="5.38871">
        <ele>470</ele>
        <time>2019-06-15T09:01:08.028Z</time>
      </trkpt>
      <trkpt lat="45.03232" lon="5.38871">
        <ele>470</ele>
        <time>2019-06-15T09:01:09.028Z</time>
      </trkpt>
      <trkpt lat="45.03233" lon="5.3887">
        <ele>469</ele>
        <time>2019-06-15T09:01:10.028Z</time>
      </trkpt>
      <trkpt lat="45.03233" lon="5.38869">
        <ele>468</ele>
        <time>2019-06-15T09:01:11.028Z</time>
      </trkpt>
      <trkpt lat="45.03233" lon="5.38867">
        <ele>470</ele>
        <time>2019-06-15T09:01:12.028Z</time>
      </trkpt>
      <trkpt lat="45.03233" lon="5.38866">
        <ele>470</ele>
        <time>2019-06-15T09:01:13.028Z</time>
      </trkpt>
      <trkpt lat="45.03234" lon="5.38865">
        <ele>471</ele>
        <time>2019-06-15T09:01:14.028Z</time>
      </trkpt>
      <trkpt lat="45.03234" lon="5.38863">
        <ele>471</ele>
        <time>2019-06-15T09:01:15.028Z</time>
      </trkpt>
      <trkpt lat="45.03234" lon="5.38862">
        <ele>471</ele>
        <time>2019-06-15T09:01:16.028Z</time>
      </trkpt>
      <trkpt lat="45.03234" lon="5.38861">
        <ele>472</ele>
        <time>2019-06-15T09:01:17.028Z</time>
      </trkpt>
      <trkpt lat="45.03234" lon="5.3886">
        <ele>473</ele>
        <time>2019-06-15T09:01:18.028Z</time>
      </trkpt>
      <trkpt lat="45.03233" lon="5.38859">
        <ele>470</ele>
        <time>2019-06-15T09:01:19.028Z</time>
      </trkpt>
      <trkpt lat="45.03233" lon="5.38858">
        <ele>468</ele>
        <time>2019-06-15T09:01:20.028Z</time>
      </trkpt>
      <trkpt lat="45.03233" lon="5.38858">
        <ele>466</ele>
        <time>2019-06-15T09:01:21.028Z</time>
      </trkpt>
      <trkpt lat="45.03232" lon="5.38857">
        <ele>465</ele>
        <time>2019-06-15T09:01:22.028Z</time>
      </trkpt>
      <trkpt lat="45.03231" lon="5.38857">
        <ele>463</ele>
        <time>2019-06-15T09:01:23.028Z</time>
      </trkpt>
      <trkpt lat="45.0323" lon="5.38856">
        <ele>462</ele>
        <time>2019-06-15T09:01:24.028Z</time>
      </trkpt>
      <trkpt lat="45.0323" lon="5.38856">
        <ele>461</ele>
        <time>2019-06-15T09:01:25.028Z</time>
      </trkpt>
      <trkpt lat="45.0323" lon="5.38854">
        <ele>461</ele>
        <time>2019-06-15T09:01:26.028Z</time>
      </trkpt>
      <trkpt lat="45.0323" lon="5.38853">
        <ele>460</ele>
        <time>2019-06-15T09:01:27.028Z</time>
      </trkpt>
      <trkpt lat="45.03231" lon="5.38851">
        <ele>460</ele>
        <time>2019-06-15T09:01:28.028Z</time>
      </trkpt>
      <trkpt lat="45.03232" lon="5.38849">
        <ele>459</ele>
        <time>2019-06-15T09:01:29.028Z</time>
      </trkpt>
      <trkpt lat="45.03233" lon="5.38848">
        <ele>460</ele>
        <time>2019-06-15T09:01:30.028Z</time>
      </trkpt>
      <trkpt lat="45.03233" lon="5.38846">
        <ele>461</ele>
        <time>2019-06-15T09:01:31.028Z</time>
      </trkpt>
      <trkpt lat="45.03234" lon="5.38844">
        <ele>462</ele>
        <time>2019-06-15T09:01:32.028Z</time>
      </trkpt>
      <trkpt lat="45.03235" lon="5.38843">
        <ele>463</ele>
        <time>2019-06-15T09:01:33.028Z</time>
      </trkpt>
      <trkpt lat="45.03236" lon="5.38842">
        <ele>464</ele>
        <time>2019-06-15T09:01:34.028Z</time>
      </trkpt>
      <trkpt lat="45.03237" lon="5.38841">
        <ele>464</ele>
        <time>2019-06-15T09:01:35.028Z</time>
      </trkpt>
      <trkpt lat="45.03238" lon="5.3884">
        <ele>465</ele>
        <time>2019-06-15T09:01:36.028Z</time>
      </trkpt>
      <trkpt lat="45.03239" lon="5.38839">
        <ele>466</ele>
        <time>2019-06-15T09:01:37.028Z</time>
      </trkpt>
      <trkpt lat="45.0324" lon="5.38837">
        <ele>468</ele>
        <time>2019-06-15T09:01:38.028Z</time>
      </trkpt>
      <trkpt lat="45.03241" lon="5.38835">
        <ele>469</ele>
        <time>2019-06-15T09:01:39.028Z</time>
      </trkpt>
      <trkpt lat="45.03242" lon="5.38834">
        <ele>470</ele>
        <time>2019-06-15T09:01:40.028Z</time>
      </trkpt>
      <trkpt lat="45.03243" lon="5.38832">
        <ele>471</ele>
        <time>2019-06-15T09:01:41.028Z</time>
      </trkpt>
      <trkpt lat="45.03243" lon="5.38831">
        <ele>472</ele>
        <time>2019-06-15T09:01:42.028Z</time>
      </trkpt>
      <trkpt lat="45.03244" lon="5.3883">
        <ele>472</ele>
        <time>2019-06-15T09:01:43.028Z</time>
      </trkpt>
      <trkpt lat="45.03245" lon="5.38828">
        <ele>473</ele>
        <time>2019-06-15T09:01:44.028Z</time>
      </trkpt>
      <trkpt lat="45.03245" lon="5.38826">
        <ele>473</ele>
        <time>2019-06-15T09:01:45.028Z</time>
      </trkpt>
      <trkpt lat="45.03246" lon="5.38824">
        <ele>474</ele>
        <time>2019-06-15T09:01:46.028Z</time>
      </trkpt>
      <trkpt lat="45.03246" lon="5.38822">
        <ele>474</ele>
        <time>2019-06-15T09:01:47.028Z</time>
      </trkpt>
      <trkpt lat="45.03246" lon="5.3882">
        <ele>474</ele>
        <time>2019-06-15T09:01:48.028Z</time>
      </trkpt>
      <trkpt lat="45.03247" lon="5.38819">
        <ele>475</ele>
        <time>2019-06-15T09:01:49.028Z</time>
      </trkpt>
      <trkpt lat="45.03247" lon="5.38818">
        <ele>476</ele>
        <time>2019-06-15T09:01:50.028Z</time>
      </trkpt>
      <trkpt lat="45.03247" lon="5.38816">
        <ele>477</ele>
        <time>2019-06-15T09:01:51.028Z</time>
      </trkpt>
      <trkpt lat="45.03247" lon="5.38815">
        <ele>478</ele>
        <time>2019-06-15T09:01:52.028Z</time>
      </trkpt>
      <trkpt lat="45.03248" lon="5.38813">
        <ele>479</ele>
        <time>2019-06-15T09:01:53.028Z</time>
      </trkpt>
      <trkpt lat="45.03248" lon="5.38811">
        <ele>479</ele>
        <time>2019-06-15T09:01:54.028Z</time>
      </trkpt>
      <trkpt lat="45.03249" lon="5.38809">
        <ele>480</ele>
        <time>2019-06-15T09:01:55.028Z</time>
      </trkpt>
      <trkpt lat="45.03249" lon="5.38808">
        <ele>480</ele>
        <time>2019-06-15T09:01:56.028Z</time>
      </trkpt>
      <trkpt lat="45.03249" lon="5.38806">
        <ele>480</ele>
        <time>2019-06-15T09:01:57.028Z</time>
      </trkpt>
      <trkpt lat="45.0325" lon="5.38804">
        <ele>481</ele>
        <time>2019-06-15T09:01:58.028Z</time>
      </trkpt>
      <trkpt lat="45.0325" lon="5.38802">
        <ele>481</ele>
        <time>2019-06-15T09:01:59.028Z</time>
      </trkpt>
      <trkpt lat="45.0325" lon="5.38801">
        <ele>481</ele>
        <time>2019-06-15T09:02:00.028Z</time>
      </trkpt>
      <trkpt lat="45.0325" lon="5.38799">
        <ele>482</ele>
        <time>2019-06-15T09:02:01.028Z</time>
      </trkpt>
      <trkpt lat="45.0325" lon="5.38797">
        <ele>483</ele>
        <time>2019-06-15T09:02:02.028Z</time>
      </trkpt>
      <trkpt lat="45.03251" lon="5.38795">
        <ele>483</ele>
        <time>2019-06-15T09:02:03.028Z</time>
      </trkpt>
      <trkpt lat="45.03251" lon="5.38794">
        <ele>483</ele>
        <time>2019-06-15T09:02:04.028Z</time>
      </trkpt>
      <trkpt lat="45.03251" lon="5.38792">
        <ele>484</ele>
        <time>2019-06-15T09:02:05.028Z</time>
      </trkpt>
      <trkpt lat="45.03251" lon="5.38791">
        <ele>484</ele>
        <time>2019-06-15T09:02:06.028Z</time>
      </trkpt>
      <trkpt lat="45.03252" lon="5.3879">
        <ele>485</ele>
        <time>2019-06-15T09:02:07.028Z</time>
      </trkpt>
      <trkpt lat="45.03252" lon="5.38788">
        <ele>485</ele>
        <time>2019-06-15T09:02:08.028Z</time>
      </trkpt>
      <trkpt lat="45.03253" lon="5.38787">
        <ele>486</ele>
        <time>2019-06-15T09:02:09.028Z</time>
      </trkpt>
      <trkpt lat="45.03254" lon="5.38786">
        <ele>485</ele>
        <time>2019-06-15T09:02:10.028Z</time>
      </trkpt>
      <trkpt lat="45.03254" lon="5.38785">
        <ele>485</ele>
        <time>2019-06-15T09:02:11.028Z</time>
      </trkpt>
      <trkpt lat="45.03255" lon="5.38784">
        <ele>485</ele>
        <time>2019-06-15T09:02:12.028Z</time>
      </trkpt>
      <trkpt lat="45.03256" lon="5.38782">
        <ele>485</ele>
        <time>2019-06-15T09:02:13.028Z</time>
      </trkpt>
      <trkpt lat="45.03256" lon="5.38781">
        <ele>486</ele>
        <time>2019-06-15T09:02:14.028Z</time>
      </trkpt>
      <trkpt lat="45.03256" lon="5.3878">
        <ele>486</ele>
        <time>2019-06-15T09:02:15.028Z</time>
      </trkpt>
      <trkpt lat="45.03256" lon="5.38779">
        <ele>486</ele>
        <time>2019-06-15T09:02:16.028Z</time>
      </trkpt>
      <trkpt lat="45.03256" lon="5.38777">
        <ele>486</ele>
        <time>2019-06-15T09:02:17.028Z</time>
      </trkpt>
      <trkpt lat="45.03257" lon="5.38776">
        <ele>486</ele>
        <time>2019-06-15T09:02:18.028Z</time>
      </trkpt>
      <trkpt lat="45.03258" lon="5.38775">
        <ele>485</ele>
        <time>2019-06-15T09:02:19.028Z</time>
      </trkpt>
      <trkpt lat="45.03259" lon="5.38773">
        <ele>483</ele>
        <time>2019-06-15T09:02:20.028Z</time>
      </trkpt>
      <trkpt lat="45.0326" lon="5.38771">
        <ele>483</ele>
        <time>2019-06-15T09:02:21.028Z</time>
      </trkpt>
      <trkpt lat="45.03261" lon="5.3877">
        <ele>483</ele>
        <time>2019-06-15T09:02:22.028Z</time>
      </trkpt>
      <trkpt lat="45.03262" lon="5.38768">
        <ele>483</ele>
        <time>2019-06-15T09:02:23.028Z</time>
      </trkpt>
      <trkpt lat="45.03263" lon="5.38767">
        <ele>484</ele>
        <time>2019-06-15T09:02:24.028Z</time>
      </trkpt>
      <trkpt lat="45.03265" lon="5.38765">
        <ele>485</ele>
        <time>2019-06-15T09:02:25.028Z</time>
      </trkpt>
      <trkpt lat="45.03266" lon="5.38764">
        <ele>485</ele>
        <time>2019-06-15T09:02:26.028Z</time>
      </trkpt>
      <trkpt lat="45.03267" lon="5.38762">
        <ele>485</ele>
        <time>2019-06-15T09:02:27.028Z</time>
      </trkpt>
      <trkpt lat="45.03268" lon="5.3876">
        <ele>486</ele>
        <time>2019-06-15T09:02:28.028Z</time>
      </trkpt>
      <trkpt lat="45.03269" lon="5.38758">
        <ele>486</ele>
        <time>2019-06-15T09:02:29.028Z</time>
      </trkpt>
      <trkpt lat="45.0327" lon="5.38757">
        <ele>487</ele>
        <time>2019-06-15T09:02:30.028Z</time>
      </trkpt>
      <trkpt lat="45.03271" lon="5.38757">
        <ele>487</ele>
        <time>2019-06-15T09:02:31.028Z</time>
      </trkpt>
      <trkpt lat="45.03272" lon="5.38756">
        <ele>487</ele>
        <time>2019-06-15T09:02:32.028Z</time>
      </trkpt>
      <trkpt lat="45.03274" lon="5.38756">
        <ele>488</ele>
        <time>2019-06-15T09:02:33.028Z</time>
      </trkpt>
      <trkpt lat="45.03275" lon="5.38755">
        <ele>488</ele>
        <time>2019-06-15T09:02:34.028Z</time>
      </trkpt>
      <trkpt lat="45.03276" lon="5.38755">
        <ele>489</ele>
        <time>2019-06-15T09:02:35.028Z</time>
      </trkpt>
      <trkpt lat="45.03278" lon="5.38755">
        <ele>490</ele>
        <time>2019-06-15T09:02:36.028Z</time>
      </trkpt>
      <trkpt lat="45.03279" lon="5.38755">
        <ele>490</ele>
        <time>2019-06-15T09:02:37.028Z</time>
      </trkpt>
      <trkpt lat="45.0328" lon="5.38756">
        <ele>490</ele>
        <time>2019-06-15T09:02:38.028Z</time>
      </trkpt>
      <trkpt lat="45.03282" lon="5.38756">
        <ele>490</ele>
        <time>2019-06-15T09:02:39.028Z</time>
      </trkpt>
      <trkpt lat="45.03283" lon="5.38756">
        <ele>491</ele>
        <time>2019-06-15T09:02:40.028Z</time>
      </trkpt>
      <trkpt lat="45.03285" lon="5.38755">
        <ele>492</ele>
        <time>2019-06-15T09:02:41.028Z</time>
      </trkpt>
      <trkpt lat="45.03286" lon="5.38755">
        <ele>492</ele>
        <time>2019-06-15T09:02:42.028Z</time>
      </trkpt>
      <trkpt lat="45.03288" lon="5.38755">
        <ele>493</ele>
        <time>2019-06-15T09:02:43.028Z</time>
      </trkpt>
      <trkpt lat="45.03289" lon="5.38754">
        <ele>493</ele>
        <time>2019-06-15T09:02:44.028Z</time>
      </trkpt>
      <trkpt lat="45.0329" lon="5.38754">
        <ele>494</ele>
        <time>2019-06-15T09:02:45.028Z</time>
      </trkpt>
      <trkpt lat="45.03291" lon="5.38753">
        <ele>494</ele>
        <time>2019-06-15T09:02:46.028Z</time>
      </trkpt>
      <trkpt lat="45.03291" lon="5.38752">
        <ele>495</ele>
        <time>2019-06-15T09:02:47.028Z</time>
      </trkpt>
      <trkpt lat="45.03292" lon="5.38751">
        <ele>495</ele>
        <time>2019-06-15T09:02:48.028Z</time>
      </trkpt>
      <trkpt lat="45.03293" lon="5.38749">
        <ele>495</ele>
        <time>2019-06-15T09:02:49.028Z</time>
      </trkpt>
      <trkpt lat="45.03293" lon="5.38747">
        <ele>495</ele>
        <time>2019-06-15T09:02:50.028Z</time>
      </trkpt>
      <trkpt lat="45.03293" lon="5.38743">
        <ele>495</ele>
        <time>2019-06-15T09:02:51.028Z</time>
      </trkpt>
      <trkpt lat="45.03293" lon="5.3874">
        <ele>495</ele>
        <time>2019-06-15T09:02:52.028Z</time>
      </trkpt>
      <trkpt lat="45.03294" lon="5.38738">
        <ele>494</ele>
        <time>2019-06-15T09:02:53.028Z</time>
      </trkpt>
      <trkpt lat="45.03294" lon="5.38735">
        <ele>494</ele>
        <time>2019-06-15T09:02:54.028Z</time>
      </trkpt>
      <trkpt lat="45.03294" lon="5.38733">
        <ele>495</ele>
        <time>2019-06-15T09:02:55.028Z</time>
      </trkpt>
      <trkpt lat="45.03295" lon="5.38731">
        <ele>494</ele>
        <time>2019-06-15T09:02:56.028Z</time>
      </trkpt>
      <trkpt lat="45.03296" lon="5.38729">
        <ele>494</ele>
        <time>2019-06-15T09:02:57.028Z</time>
      </trkpt>
      <trkpt lat="45.03296" lon="5.38726">
        <ele>493</ele>
        <time>2019-06-15T09:02:58.028Z</time>
      </trkpt>
      <trkpt lat="45.03297" lon="5.38724">
        <ele>493</ele>
        <time>2019-06-15T09:02:59.028Z</time>
      </trkpt>
      <trkpt lat="45.03298" lon="5.38722">
        <ele>494</ele>
        <time>2019-06-15T09:03:00.028Z</time>
      </trkpt>
      <trkpt lat="45.03298" lon="5.3872">
        <ele>494</ele>
        <time>2019-06-15T09:03:01.028Z</time>
      </trkpt>
      <trkpt lat="45.03299" lon="5.38718">
        <ele>494</ele>
        <time>2019-06-15T09:03:02.028Z</time>
      </trkpt>
      <trkpt lat="45.03299" lon="5.38716">
        <ele>495</ele>
        <time>2019-06-15T09:03:03.028Z</time>
      </trkpt>
      <trkpt lat="45.03299" lon="5.38713">
        <ele>495</ele>
        <time>2019-06-15T09:03:04.028Z</time>
      </trkpt>
      <trkpt lat="45.033" lon="5.38711">
        <ele>496</ele>
        <time>2019-06-15T09:03:05.028Z</time>
      </trkpt>
      <trkpt lat="45.033" lon="5.38709">
        <ele>496</ele>
        <time>2019-06-15T09:03:06.028Z</time>
      </trkpt>
      <trkpt lat="45.03301" lon="5.38707">
        <ele>496</ele>
        <time>2019-06-15T09:03:07.028Z</time>
      </trkpt>
      <trkpt lat="45.03301" lon="5.38705">
        <ele>496</ele>
        <time>2019-06-15T09:03:08.028Z</time>
      </trkpt>
      <trkpt lat="45.03302" lon="5.38703">
        <ele>497</ele>
        <time>2019-06-15T09:03:09.028Z</time>
      </trkpt>
      <trkpt lat="45.03302" lon="5.38701">
        <ele>497</ele>
        <time>2019-06-15T09:03:10.028Z</time>
      </trkpt>
      <trkpt lat="45.03302" lon="5.38698">
        <ele>498</ele>
        <time>2019-06-15T09:03:11.028Z</time>
      </trkpt>
      <trkpt lat="45.03303" lon="5.38696">
        <ele>498</ele>
        <time>2019-06-15T09:03:12.028Z</time>
      </trkpt>
      <trkpt lat="45.03303" lon="5.38694">
        <ele>498</ele>
        <time>2019-06-15T09:03:13.028Z</time>
      </trkpt>
      <trkpt lat="45.03304" lon="5.38692">
        <ele>498</ele>
        <time>2019-06-15T09:03:14.028Z</time>
      </trkpt>
      <trkpt lat="45.03304" lon="5.3869">
        <ele>498</ele>
        <time>2019-06-15T09:03:15.028Z</time>
      </trkpt>
      <trkpt lat="45.03305" lon="5.38688">
        <ele>498</ele>
        <time>2019-06-15T09:03:16.028Z</time>
      </trkpt>
      <trkpt lat="45.03306" lon="5.38687">
        <ele>498</ele>
        <time>2019-06-15T09:03:17.028Z</time>
      </trkpt>
      <trkpt lat="45.03306" lon="5.38685">
        <ele>498</ele>
        <time>2019-06-15T09:03:18.028Z</time>
      </trkpt>
      <trkpt lat="45.03307" lon="5.38683">
        <ele>498</ele>
        <time>2019-06-15T09:03:19.028Z</time>
      </trkpt>
      <trkpt lat="45.03307" lon="5.38681">
        <ele>499</ele>
        <time>2019-06-15T09:03:20.028Z</time>
      </trkpt>
      <trkpt lat="45.03308" lon="5.38679">
        <ele>499</ele>
        <time>2019-06-15T09:03:21.028Z</time>
      </trkpt>
      <trkpt lat="45.03308" lon="5.38677">
        <ele>499</ele>
        <time>2019-06-15T09:03:22.028Z</time>
      </trkpt>
      <trkpt lat="45.03308" lon="5.38675">
        <ele>499</ele>
        <time>2019-06-15T09:03:23.028Z</time>
      </trkpt>
      <trkpt lat="45.03309" lon="5.38673">
        <ele>499</ele>
        <time>2019-06-15T09:03:24.028Z</time>
      </trkpt>
      <trkpt lat="45.03309" lon="5.38672">
        <ele>500</ele>
        <time>2019-06-15T09:03:25.028Z</time>
      </trkpt>
      <trkpt lat="45.0331" lon="5.3867">
        <ele>500</ele>
        <time>2019-06-15T09:03:26.028Z</time>
      </trkpt>
      <trkpt lat="45.0331" lon="5.38668">
        <ele>501</ele>
        <time>2019-06-15T09:03:27.028Z</time>
      </trkpt>
      <trkpt lat="45.0331" lon="5.38667">
        <ele>500</ele>
        <time>2019-06-15T09:03:28.028Z</time>
      </trkpt>
      <trkpt lat="45.03311" lon="5.38665">
        <ele>501</ele>
        <time>2019-06-15T09:03:29.028Z</time>
      </trkpt>
      <trkpt lat="45.03311" lon="5.38663">
        <ele>501</ele>
        <time>2019-06-15T09:03:30.028Z</time>
      </trkpt>
      <trkpt lat="45.03312" lon="5.38662">
        <ele>501</ele>
        <time>2019-06-15T09:03:31.028Z</time>
      </trkpt>
      <trkpt lat="45.03312" lon="5.3866">
        <ele>502</ele>
        <time>2019-06-15T09:03:32.028Z</time>
      </trkpt>
      <trkpt lat="45.03312" lon="5.38659">
        <ele>502</ele>
        <time>2019-06-15T09:03:33.028Z</time>
      </trkpt>
      <trkpt lat="45.03313" lon="5.38657">
        <ele>502</ele>
        <time>2019-06-15T09:03:34.028Z</time>
      </trkpt>
      <trkpt lat="45.03313" lon="5.38656">
        <ele>502</ele>
        <time>2019-06-15T09:03:35.028Z</time>
      </trkpt>
      <trkpt lat="45.03313" lon="5.38655">
        <ele>502</ele>
        <time>2019-06-15T09:03:36.028Z</time>
      </trkpt>
      <trkpt lat="45.03314" lon="5.38654">
        <ele>502</ele>
        <time>2019-06-15T09:03:37.028Z</time>
      </trkpt>
      <trkpt lat="45.03314" lon="5.38652">
        <ele>502</ele>
        <time>2019-06-15T09:03:38.028Z</time>
      </trkpt>
      <trkpt lat="45.03315" lon="5.38651">
        <ele>503</ele>
        <time>2019-06-15T09:03:39.028Z</time>
      </trkpt>
      <trkpt lat="45.03315" lon="5.38649">
        <ele>503</ele>
        <time>2019-06-15T09:03:40.028Z</time>
      </trkpt>
      <trkpt lat="45.03316" lon="5.38648">
        <ele>503</ele>
        <time>2019-06-15T09:03:41.028Z</time>
      </trkpt>
      <trkpt lat="45.03316" lon="5.38646">
        <ele>504</ele>
        <time>2019-06-15T09:03:42.028Z</time>
      </trkpt>
      <trkpt lat="45.03316" lon="5.38645">
        <ele>504</ele>
        <time>2019-06-15T09:03:43.028Z</time>
      </trkpt>
      <trkpt lat="45.03317" lon="5.38644">
        <ele>504</ele>
        <time>2019-06-15T09:03:44.028Z</time>
      </trkpt>
      <trkpt lat="45.03317" lon="5.38643">
        <ele>504</ele>
        <time>2019-06-15T09:03:45.028Z</time>
      </trkpt>
      <trkpt lat="45.03317" lon="5.38642">
        <ele>505</ele>
        <time>2019-06-15T09:03:46.028Z</time>
      </trkpt>
      <trkpt lat="45.03318" lon="5.3864">
        <ele>505</ele>
        <time>2019-06-15T09:03:47.028Z</time>
      </trkpt>
      <trkpt lat="45.03318" lon="5.38639">
        <ele>505</ele>
        <time>2019-06-15T09:03:48.028Z</time>
      </trkpt>
      <trkpt lat="45.03318" lon="5.38638">
        <ele>506</ele>
        <time>2019-06-15T09:03:49.028Z</time>
      </trkpt>
      <trkpt lat="45.03318" lon="5.38637">
        <ele>506</ele>
        <time>2019-06-15T09:03:50.028Z</time>
      </trkpt>
      <trkpt lat="45.03319" lon="5.38636">
        <ele>506</ele>
        <time>2019-06-15T09:03:51.028Z</time>
      </trkpt>
      <trkpt lat="45.03319" lon="5.38635">
        <ele>506</ele>
        <time>2019-06-15T09:03:52.028Z</time>
      </trkpt>
      <trkpt lat="45.0332" lon="5.38634">
        <ele>506</ele>
        <time>2019-06-15T09:03:53.028Z</time>
      </trkpt>
      <trkpt lat="45.03321" lon="5.38633">
        <ele>507</ele>
        <time>2019-06-15T09:03:54.028Z</time>
      </trkpt>
      <trkpt lat="45.03321" lon="5.38632">
        <ele>507</ele>
        <time>2019-06-15T09:03:55.028Z</time>
      </trkpt>
      <trkpt lat="45.03322" lon="5.38631">
        <ele>507</ele>
        <time>2019-06-15T09:03:56.028Z</time>
      </trkpt>
      <trkpt lat="45.03322" lon="5.3863">
        <ele>507</ele>
        <time>2019-06-15T09:03:57.028Z</time>
      </trkpt>
      <trkpt lat="45.03323" lon="5.38629">
        <ele>507</ele>
        <time>2019-06-15T09:03:58.028Z</time>
      </trkpt>
      <trkpt lat="45.03324" lon="5.38628">
        <ele>508</ele>
        <time>2019-06-15T09:03:59.028Z</time>
      </trkpt>
      <trkpt lat="45.03325" lon="5.38627">
        <ele>508</ele>
        <time>2019-06-15T09:04:00.028Z</time>
      </trkpt>
      <trkpt lat="45.03325" lon="5.38626">
        <ele>508</ele>
        <time>2019-06-15T09:04:01.028Z</time>
      </trkpt>
      <trkpt lat="45.03326" lon="5.38625">
        <ele>509</ele>
        <time>2019-06-15T09:04:02.028Z</time>
      </trkpt>
      <trkpt lat="45.03326" lon="5.38624">
        <ele>509</ele>
        <time>2019-06-15T09:04:03.028Z</time>
      </trkpt>
      <trkpt lat="45.03327" lon="5.38623">
        <ele>509</ele>
        <time>2019-06-15T09:04:04.028Z</time>
      </trkpt>
      <trkpt lat="45.03327" lon="5.38621">
        <ele>510</ele>
        <time>2019-06-15T09:04:05.028Z</time>
      </trkpt>
      <trkpt lat="45.03328" lon="5.3862">
        <ele>510</ele>
        <time>2019-06-15T09:04:06.028Z</time>
      </trkpt>
      <trkpt lat="45.03328" lon="5.38619">
        <ele>510</ele>
        <time>2019-06-15T09:04:07.028Z</time>
      </trkpt>
      <trkpt lat="45.03329" lon="5.38617">
        <ele>511</ele>
        <time>2019-06-15T09:04:08.028Z</time>
      </trkpt>
      <trkpt lat="45.03329" lon="5.38616">
        <ele>511</ele>
        <time>2019-06-15T09:04:09.028Z</time>
      </trkpt>
      <trkpt lat="45.0333" lon="5.38614">
        <ele>512</ele>
        <time>2019-06-15T09:04:10.028Z</time>
      </trkpt>
      <trkpt lat="45.0333" lon="5.38613">
        <ele>512</ele>
        <time>2019-06-15T09:04:11.028Z</time>
      </trkpt>
      <trkpt lat="45.0333" lon="5.38612">
        <ele>512</ele>
        <time>2019-06-15T09:04:12.028Z</time>
      </trkpt>
      <trkpt lat="45.03331" lon="5.38611">
        <ele>513</ele>
        <time>2019-06-15T09:04:13.028Z</time>
      </trkpt>
      <trkpt lat="45.03331" lon="5.3861">
        <ele>513</ele>
        <time>2019-06-15T09:04:14.028Z</time>
      </trkpt>
      <trkpt lat="45.03331" lon="5.38609">
        <ele>514</ele>
        <time>2019-06-15T09:04:15.028Z</time>
      </trkpt>
      <trkpt lat="45.03331" lon="5.38608">
        <ele>514</ele>
        <time>2019-06-15T09:04:16.028Z</time>
      </trkpt>
      <trkpt lat="45.03332" lon="5.38607">
        <ele>514</ele>
        <time>2019-06-15T09:04:17.028Z</time>
      </trkpt>
      <trkpt lat="45.03332" lon="5.38606">
        <ele>516</ele>
        <time>2019-06-15T09:04:18.028Z</time>
      </trkpt>
      <trkpt lat="45.03332" lon="5.38605">
        <ele>515</ele>
        <time>2019-06-15T09:04:19.028Z</time>
      </trkpt>
      <trkpt lat="45.03332" lon="5.38603">
        <ele>515</ele>
        <time>2019-06-15T09:04:20.028Z</time>
      </trkpt>
      <trkpt lat="45.03332" lon="5.38602">
        <ele>516</ele>
        <time>2019-06-15T09:04:21.028Z</time>
      </trkpt>
      <trkpt lat="45.03333" lon="5.38601">
        <ele>516</ele>
        <time>2019-06-15T09:04:22.028Z</time>
      </trkpt>
      <trkpt lat="45.03333" lon="5.386">
        <ele>516</ele>
        <time>2019-06-15T09:04:23.028Z</time>
      </trkpt>
      <trkpt lat="45.03333" lon="5.38598">
        <ele>516</ele>
        <time>2019-06-15T09:04:24.028Z</time>
      </trkpt>
      <trkpt lat="45.03333" lon="5.38597">
        <ele>518</ele>
        <time>2019-06-15T09:04:25.028Z</time>
      </trkpt>
      <trkpt lat="45.03334" lon="5.38595">
        <ele>518</ele>
        <time>2019-06-15T09:04:26.028Z</time>
      </trkpt>
      <trkpt lat="45.03334" lon="5.38593">
        <ele>519</ele>
        <time>2019-06-15T09:04:27.028Z</time>
      </trkpt>
      <trkpt lat="45.03335" lon="5.38592">
        <ele>519</ele>
        <time>2019-06-15T09:04:28.028Z</time>
      </trkpt>
      <trkpt lat="45.03336" lon="5.3859">
        <ele>521</ele>
        <time>2019-06-15T09:04:29.028Z</time>
      </trkpt>
      <trkpt lat="45.03336" lon="5.38589">
        <ele>521</ele>
        <time>2019-06-15T09:04:30.028Z</time>
      </trkpt>
      <trkpt lat="45.03337" lon="5.38588">
        <ele>521</ele>
        <time>2019-06-15T09:04:31.028Z</time>
      </trkpt>
      <trkpt lat="45.03337" lon="5.38586">
        <ele>520</ele>
        <time>2019-06-15T09:04:32.028Z</time>
      </trkpt>
      <trkpt lat="45.03338" lon="5.38584">
        <ele>520</ele>
        <time>2019-06-15T09:04:33.028Z</time>
      </trkpt>
      <trkpt lat="45.03339" lon="5.38583">
        <ele>520</ele>
        <time>2019-06-15T09:04:34.028Z</time>
      </trkpt>
      <trkpt lat="45.03339" lon="5.38581">
        <ele>521</ele>
        <time>2019-06-15T09:04:35.028Z</time>
      </trkpt>
      <trkpt lat="45.0334" lon="5.3858">
        <ele>520</ele>
        <time>2019-06-15T09:04:36.028Z</time>
      </trkpt>
      <trkpt lat="45.0334" lon="5.38578">
        <ele>521</ele>
        <time>2019-06-15T09:04:37.028Z</time>
      </trkpt>
      <trkpt lat="45.03341" lon="5.38577">
        <ele>519</ele>
        <time>2019-06-15T09:04:38.028Z</time>
      </trkpt>
      <trkpt lat="45.03341" lon="5.38576">
        <ele>519</ele>
        <time>2019-06-15T09:04:39.028Z</time>
      </trkpt>
      <trkpt lat="45.03342" lon="5.38575">
        <ele>520</ele>
        <time>2019-06-15T09:04:40.028Z</time>
      </trkpt>
      <trkpt lat="45.03343" lon="5.38574">
        <ele>520</ele>
        <time>2019-06-15T09:04:41.028Z</time>
      </trkpt>
      <trkpt lat="45.03345" lon="5.38574">
        <ele>521</ele>
        <time>2019-06-15T09:04:42.028Z</time>
      </trkpt>
      <trkpt lat="45.03346" lon="5.38573">
        <ele>521</ele>
        <time>2019-06-15T09:04:43.028Z</time>
      </trkpt>
      <trkpt lat="45.03347" lon="5.38573">
        <ele>521</ele>
        <time>2019-06-15T09:04:44.028Z</time>
      </trkpt>
      <trkpt lat="45.03348" lon="5.38573">
        <ele>521</ele>
        <time>2019-06-15T09:04:45.028Z</time>
      </trkpt>
      <trkpt lat="45.03349" lon="5.38573">
        <ele>521</ele>
        <time>2019-06-15T09:04:46.028Z</time>
      </trkpt>
      <trkpt lat="45.03351" lon="5.38573">
        <ele>522</ele>
        <time>2019-06-15T09:04:47.028Z</time>
      </trkpt>
      <trkpt lat="45.03352" lon="5.38573">
        <ele>522</ele>
        <time>2019-06-15T09:04:48.028Z</time>
      </trkpt>
      <trkpt lat="45.03353" lon="5.38573">
        <ele>523</ele>
        <time>2019-06-15T09:04:49.028Z</time>
      </trkpt>
      <trkpt lat="45.03354" lon="5.38573">
        <ele>522</ele>
        <time>2019-06-15T09:04:50.028Z</time>
      </trkpt>
      <trkpt lat="45.03355" lon="5.38572">
        <ele>523</ele>
        <time>2019-06-15T09:04:51.028Z</time>
      </trkpt>
      <trkpt lat="45.03355" lon="5.38572">
        <ele>524</ele>
        <time>2019-06-15T09:04:52.028Z</time>
      </trkpt>
      <trkpt lat="45.03356" lon="5.38572">
        <ele>524</ele>
        <time>2019-06-15T09:04:53.028Z</time>
      </trkpt>
      <trkpt lat="45.03357" lon="5.38571">
        <ele>524</ele>
        <time>2019-06-15T09:04:54.028Z</time>
      </trkpt>
      <trkpt lat="45.03358" lon="5.38571">
        <ele>524</ele>
        <time>2019-06-15T09:04:55.028Z</time>
      </trkpt>
      <trkpt lat="45.0336" lon="5.3857">
        <ele>525</ele>
        <time>2019-06-15T09:04:56.028Z</time>
      </trkpt>
      <trkpt lat="45.03361" lon="5.3857">
        <ele>526</ele>
        <time>2019-06-15T09:04:57.028Z</time>
      </trkpt>
      <trkpt lat="45.03363" lon="5.3857">
        <ele>526</ele>
        <time>2019-06-15T09:04:58.028Z</time>
      </trkpt>
      <trkpt lat="45.03364" lon="5.3857">
        <ele>526</ele>
        <time>2019-06-15T09:04:59.028Z</time>
      </trkpt>
      <trkpt lat="45.03366" lon="5.38569">
        <ele>526</ele>
        <time>2019-06-15T09:05:00.028Z</time>
      </trkpt>
      <trkpt lat="45.03367" lon="5.38569">
        <ele>526</ele>
        <time>2019-06-15T09:05:01.028Z</time>
      </trkpt>
      <trkpt lat="45.03368" lon="5.38569">
        <ele>526</ele>
        <time>2019-06-15T09:05:02.028Z</time>
      </trkpt>
      <trkpt lat="45.03369" lon="5.38569">
        <ele>526</ele>
        <time>2019-06-15T09:05:03.028Z</time>
      </trkpt>
      <trkpt lat="45.0337" lon="5.38569">
        <ele>527</ele>
        <time>2019-06-15T09:05:04.028Z</time>
      </trkpt>
      <trkpt lat="45.03371" lon="5.38569">
        <ele>527</ele>
        <time>2019-06-15T09:05:05.028Z</time>
      </trkpt>
      <trkpt lat="45.03372" lon="5.38569">
        <ele>527</ele>
        <time>2019-06-15T09:05:06.028Z</time>
      </trkpt>
      <trkpt lat="45.03373" lon="5.38569">
        <ele>527</ele>
        <time>2019-06-15T09:05:07.028Z</time>
      </trkpt>
      <trkpt lat="45.03374" lon="5.38569">
        <ele>528</ele>
        <time>2019-06-15T09:05:08.028Z</time>
      </trkpt>
      <trkpt lat="45.03375" lon="5.38568">
        <ele>528</ele>
        <time>2019-06-15T09:05:09.028Z</time>
      </trkpt>
      <trkpt lat="45.03376" lon="5.38568">
        <ele>528</ele>
        <time>2019-06-15T09:05:10.028Z</time>
      </trkpt>
      <trkpt lat="45.03377" lon="5.38568">
        <ele>528</ele>
        <time>2019-06-15T09:05:11.028Z</time>
      </trkpt>
      <trkpt lat="45.03379" lon="5.38568">
        <ele>528</ele>
        <time>2019-06-15T09:05:12.028Z</time>
      </trkpt>
      <trkpt lat="45.0338" lon="5.38568">
        <ele>528</ele>
        <time>2019-06-15T09:05:13.028Z</time>
      </trkpt>
      <trkpt lat="45.03382" lon="5.38567">
        <ele>528</ele>
        <time>2019-06-15T09:05:14.028Z</time>
      </trkpt>
      <trkpt lat="45.03383" lon="5.38567">
        <ele>528</ele>
        <time>2019-06-15T09:05:15.028Z</time>
      </trkpt>
      <trkpt lat="45.03385" lon="5.38567">
        <ele>528</ele>
        <time>2019-06-15T09:05:16.028Z</time>
      </trkpt>
      <trkpt lat="45.03386" lon="5.38567">
        <ele>529</ele>
        <time>2019-06-15T09:05:17.028Z</time>
      </trkpt>
      <trkpt lat="45.03387" lon="5.38567">
        <ele>529</ele>
        <time>2019-06-15T09:05:18.028Z</time>
      </trkpt>
      <trkpt lat="45.03388" lon="5.38567">
        <ele>529</ele>
        <time>2019-06-15T09:05:19.028Z</time>
      </trkpt>
      <trkpt lat="45.03389" lon="5.38566">
        <ele>529</ele>
        <time>2019-06-15T09:05:20.028Z</time>
      </trkpt>
      <trkpt lat="45.0339" lon="5.38566">
        <ele>530</ele>
        <time>2019-06-15T09:05:21.028Z</time>
      </trkpt>
      <trkpt lat="45.03391" lon="5.38567">
        <ele>531</ele>
        <time>2019-06-15T09:05:22.028Z</time>
      </trkpt>
      <trkpt lat="45.03392" lon="5.38567">
        <ele>531</ele>
        <time>2019-06-15T09:05:23.028Z</time>
      </trkpt>
      <trkpt lat="45.03393" lon="5.38566">
        <ele>532</ele>
        <time>2019-06-15T09:05:24.028Z</time>
      </trkpt>
      <trkpt lat="45.03395" lon="5.38566">
        <ele>532</ele>
        <time>2019-06-15T09:05:25.028Z</time>
      </trkpt>
      <trkpt lat="45.03397" lon="5.38565">
        <ele>532</ele>
        <time>2019-06-15T09:05:26.028Z</time>
      </trkpt>
      <trkpt lat="45.03399" lon="5.38565">
        <ele>532</ele>
        <time>2019-06-15T09:05:27.028Z</time>
      </trkpt>
      <trkpt lat="45.03401" lon="5.38564">
        <ele>532</ele>
        <time>2019-06-15T09:05:28.028Z</time>
      </trkpt>
      <trkpt lat="45.03403" lon="5.38564">
        <ele>532</ele>
        <time>2019-06-15T09:05:29.028Z</time>
      </trkpt>
      <trkpt lat="45.03404" lon="5.38563">
        <ele>532</ele>
        <time>2019-06-15T09:05:30.028Z</time>
      </trkpt>
      <trkpt lat="45.03406" lon="5.38563">
        <ele>532</ele>
        <time>2019-06-15T09:05:31.028Z</time>
      </trkpt>
      <trkpt lat="45.03407" lon="5.38563">
        <ele>533</ele>
        <time>2019-06-15T09:05:32.028Z</time>
      </trkpt>
      <trkpt lat="45.03408" lon="5.38563">
        <ele>534</ele>
        <time>2019-06-15T09:05:33.028Z</time>
      </trkpt>
      <trkpt lat="45.0341" lon="5.38563">
        <ele>535</ele>
        <time>2019-06-15T09:05:34.028Z</time>
      </trkpt>
      <trkpt lat="45.03411" lon="5.38563">
        <ele>535</ele>
        <time>2019-06-15T09:05:35.028Z</time>
      </trkpt>
      <trkpt lat="45.03412" lon="5.38563">
        <ele>536</ele>
        <time>2019-06-15T09:05:36.028Z</time>
      </trkpt>
      <trkpt lat="45.03413" lon="5.38562">
        <ele>535</ele>
        <time>2019-06-15T09:05:37.028Z</time>
      </trkpt>
      <trkpt lat="45.03415" lon="5.38562">
        <ele>536</ele>
        <time>2019-06-15T09:05:38.028Z</time>
      </trkpt>
      <trkpt lat="45.03416" lon="5.38562">
        <ele>536</ele>
        <time>2019-06-15T09:05:39.028Z</time>
      </trkpt>
      <trkpt lat="45.03418" lon="5.38561">
        <ele>537</ele>
        <time>2019-06-15T09:05:40.028Z</time>
      </trkpt>
      <trkpt lat="45.03419" lon="5.38561">
        <ele>537</ele>
        <time>2019-06-15T09:05:41.028Z</time>
      </trkpt>
      <trkpt lat="45.03421" lon="5.38561">
        <ele>538</ele>
        <time>2019-06-15T09:05:42.028Z</time>
      </trkpt>
      <trkpt lat="45.03422" lon="5.38561">
        <ele>538</ele>
        <time>2019-06-15T09:05:43.028Z</time>
      </trkpt>
      <trkpt lat="45.03423" lon="5.3856">
        <ele>538</ele>
        <time>2019-06-15T09:05:44.028Z</time>
      </trkpt>
      <trkpt lat="45.03425" lon="5.3856">
        <ele>539</ele>
        <time>2019-06-15T09:05:45.028Z</time>
      </trkpt>
      <trkpt lat="45.03426" lon="5.38559">
        <ele>539</ele>
        <time>2019-06-15T09:05:46.028Z</time>
      </trkpt>
      <trkpt lat="45.03428" lon="5.38559">
        <ele>539</ele>
        <time>2019-06-15T09:05:47.028Z</time>
      </trkpt>
      <trkpt lat="45.03429" lon="5.38558">
        <ele>540</ele>
        <time>2019-06-15T09:05:48.028Z</time>
      </trkpt>
      <trkpt lat="45.03431" lon="5.38557">
        <ele>540</ele>
        <time>2019-06-15T09:05:49.028Z</time>
      </trkpt>
      <trkpt lat="45.03433" lon="5.38556">
        <ele>539</ele>
        <time>2019-06-15T09:05:50.028Z</time>
      </trkpt>
      <trkpt lat="45.03435" lon="5.38555">
        <ele>539</ele>
        <time>2019-06-15T09:05:51.028Z</time>
      </trkpt>
      <trkpt lat="45.03437" lon="5.38554">
        <ele>539</ele>
        <time>2019-06-15T09:05:52.028Z</time>
      </trkpt>
      <trkpt lat="45.03439" lon="5.38553">
        <ele>540</ele>
        <time>2019-06-15T09:05:53.028Z</time>
      </trkpt>
      <trkpt lat="45.03441" lon="5.38552">
        <ele>540</ele>
        <time>2019-06-15T09:05:54.028Z</time>
      </trkpt>
      <trkpt lat="45.03443" lon="5.38551">
        <ele>540</ele>
        <time>2019-06-15T09:05:55.028Z</time>
      </trkpt>
      <trkpt lat="45.03445" lon="5.3855">
        <ele>540</ele>
        <time>2019-06-15T09:05:56.028Z</time>
      </trkpt>
      <trkpt lat="45.03448" lon="5.38549">
        <ele>539</ele>
        <time>2019-06-15T09:05:57.028Z</time>
      </trkpt>
      <trkpt lat="45.03451" lon="5.38548">
        <ele>539</ele>
        <time>2019-06-15T09:05:58.028Z</time>
      </trkpt>
      <trkpt lat="45.03454" lon="5.38547">
        <ele>539</ele>
        <time>2019-06-15T09:05:59.028Z</time>
      </trkpt>
      <trkpt lat="45.03457" lon="5.38546">
        <ele>539</ele>
        <time>2019-06-15T09:06:00.028Z</time>
      </trkpt>
      <trkpt lat="45.03459" lon="5.38545">
        <ele>538</ele>
        <time>2019-06-15T09:06:01.028Z</time>
      </trkpt>
      <trkpt lat="45.03463" lon="5.38544">
        <ele>537</ele>
        <time>2019-06-15T09:06:02.028Z</time>
      </trkpt>
      <trkpt lat="45.03466" lon="5.38544">
        <ele>537</ele>
        <time>2019-06-15T09:06:03.028Z</time>
      </trkpt>
      <trkpt lat="45.03469" lon="5.38544">
        <ele>537</ele>
        <time>2019-06-15T09:06:04.028Z</time>
      </trkpt>
      <trkpt lat="45.03472" lon="5.38543">
        <ele>538</ele>
        <time>2019-06-15T09:06:05.028Z</time>
      </trkpt>
      <trkpt lat="45.03475" lon="5.38543">
        <ele>538</ele>
        <time>2019-06-15T09:06:06.028Z</time>
      </trkpt>
      <trkpt lat="45.03478" lon="5.38544">
        <ele>537</ele>
        <time>2019-06-15T09:06:07.028Z</time>
      </trkpt>
      <trkpt lat="45.03481" lon="5.38544">
        <ele>537</ele>
        <time>2019-06-15T09:06:08.028Z</time>
      </trkpt>
      <trkpt lat="45.03484" lon="5.38545">
        <ele>537</ele>
        <time>2019-06-15T09:06:09.028Z</time>
      </trkpt>
      <trkpt lat="45.03486" lon="5.38545">
        <ele>538</ele>
        <time>2019-06-15T09:06:10.028Z</time>
      </trkpt>
      <trkpt lat="45.03489" lon="5.38545">
        <ele>539</ele>
        <time>2019-06-15T09:06:11.028Z</time>
      </trkpt>
      <trkpt lat="45.03491" lon="5.38545">
        <ele>539</ele>
        <time>2019-06-15T09:06:12.028Z</time>
      </trkpt>
      <trkpt lat="45.03494" lon="5.38546">
        <ele>539</ele>
        <time>2019-06-15T09:06:13.028Z</time>
      </trkpt>
      <trkpt lat="45.03497" lon="5.38545">
        <ele>539</ele>
        <time>2019-06-15T09:06:14.028Z</time>
      </trkpt>
      <trkpt lat="45.03499" lon="5.38544">
        <ele>539</ele>
        <time>2019-06-15T09:06:15.028Z</time>
      </trkpt>
      <trkpt lat="45.03502" lon="5.38543">
        <ele>538</ele>
        <time>2019-06-15T09:06:16.028Z</time>
      </trkpt>
      <trkpt lat="45.03504" lon="5.38543">
        <ele>538</ele>
        <time>2019-06-15T09:06:17.028Z</time>
      </trkpt>
      <trkpt lat="45.03506" lon="5.38543">
        <ele>536</ele>
        <time>2019-06-15T09:06:18.028Z</time>
      </trkpt>
      <trkpt lat="45.03508" lon="5.38542">
        <ele>536</ele>
        <time>2019-06-15T09:06:19.028Z</time>
      </trkpt>
      <trkpt lat="45.03511" lon="5.38541">
        <ele>536</ele>
        <time>2019-06-15T09:06:20.028Z</time>
      </trkpt>
      <trkpt lat="45.03513" lon="5.38539">
        <ele>537</ele>
        <time>2019-06-15T09:06:21.028Z</time>
      </trkpt>
      <trkpt lat="45.03516" lon="5.38538">
        <ele>538</ele>
        <time>2019-06-15T09:06:22.028Z</time>
      </trkpt>
      <trkpt lat="45.03518" lon="5.38537">
        <ele>539</ele>
        <time>2019-06-15T09:06:23.028Z</time>
      </trkpt>
      <trkpt lat="45.03521" lon="5.38536">
        <ele>539</ele>
        <time>2019-06-15T09:06:24.028Z</time>
      </trkpt>
      <trkpt lat="45.03523" lon="5.38535">
        <ele>539</ele>
        <time>2019-06-15T09:06:25.028Z</time>
      </trkpt>
      <trkpt lat="45.03525" lon="5.38534">
        <ele>539</ele>
        <time>2019-06-15T09:06:26.028Z</time>
      </trkpt>
      <trkpt lat="45.03528" lon="5.38533">
        <ele>538</ele>
        <time>2019-06-15T09:06:27.028Z</time>
      </trkpt>
      <trkpt lat="45.0353" lon="5.38532">
        <ele>539</ele>
        <time>2019-06-15T09:06:28.028Z</time>
      </trkpt>
      <trkpt lat="45.03533" lon="5.38532">
        <ele>539</ele>
        <time>2019-06-15T09:06:29.028Z</time>
      </trkpt>
      <trkpt lat="45.03535" lon="5.38531">
        <ele>540</ele>
        <time>2019-06-15T09:06:30.028Z</time>
      </trkpt>
      <trkpt lat="45.03538" lon="5.38531">
        <ele>539</ele>
        <time>2019-06-15T09:06:31.028Z</time>
      </trkpt>
      <trkpt lat="45.0354" lon="5.3853">
        <ele>539</ele>
        <time>2019-06-15T09:06:32.028Z</time>
      </trkpt>
      <trkpt lat="45.03542" lon="5.38529">
        <ele>540</ele>
        <time>2019-06-15T09:06:33.028Z</time>
      </trkpt>
      <trkpt lat="45.03544" lon="5.38528">
        <ele>539</ele>
        <time>2019-06-15T09:06:34.028Z</time>
      </trkpt>
      <trkpt lat="45.03547" lon="5.38527">
        <ele>539</ele>
        <time>2019-06-15T09:06:35.028Z</time>
      </trkpt>
      <trkpt lat="45.03549" lon="5.38526">
        <ele>539</ele>
        <time>2019-06-15T09:06:36.028Z</time>
      </trkpt>
      <trkpt lat="45.03551" lon="5.38526">
        <ele>538</ele>
        <time>2019-06-15T09:06:37.028Z</time>
      </trkpt>
      <trkpt lat="45.03553" lon="5.38526">
        <ele>537</ele>
        <time>2019-06-15T09:06:38.028Z</time>
      </trkpt>
      <trkpt lat="45.03555" lon="5.38525">
        <ele>536</ele>
        <time>2019-06-15T09:06:39.028Z</time>
      </trkpt>
      <trkpt lat="45.03557" lon="5.38524">
        <ele>535</ele>
        <time>2019-06-15T09:06:40.028Z</time>
      </trkpt>
      <trkpt lat="45.03559" lon="5.38522">
        <ele>536</ele>
        <time>2019-06-15T09:06:41.028Z</time>
      </trkpt>
      <trkpt lat="45.03561" lon="5.38519">
        <ele>537</ele>
        <time>2019-06-15T09:06:42.028Z</time>
      </trkpt>
      <trkpt lat="45.03563" lon="5.38517">
        <ele>537</ele>
        <time>2019-06-15T09:06:43.028Z</time>
      </trkpt>
      <trkpt lat="45.03565" lon="5.38515">
        <ele>536</ele>
        <time>2019-06-15T09:06:44.028Z</time>
      </trkpt>
      <trkpt lat="45.03567" lon="5.38513">
        <ele>538</ele>
        <time>2019-06-15T09:06:45.028Z</time>
      </trkpt>
      <trkpt lat="45.03569" lon="5.38511">
        <ele>539</ele>
        <time>2019-06-15T09:06:46.028Z</time>
      </trkpt>
      <trkpt lat="45.03571" lon="5.38508">
        <ele>538</ele>
        <time>2019-06-15T09:06:47.028Z</time>
      </trkpt>
      <trkpt lat="45.03572" lon="5.38505">
        <ele>539</ele>
        <time>2019-06-15T09:06:48.028Z</time>
      </trkpt>
      <trkpt lat="45.03574" lon="5.38503">
        <ele>539</ele>
        <time>2019-06-15T09:06:49.028Z</time>
      </trkpt>
      <trkpt lat="45.03575" lon="5.385">
        <ele>539</ele>
        <time>2019-06-15T09:06:50.028Z</time>
      </trkpt>
      <trkpt lat="45.03577" lon="5.38497">
        <ele>540</ele>
        <time>2019-06-15T09:06:51.028Z</time>
      </trkpt>
      <trkpt lat="45.03579" lon="5.38495">
        <ele>540</ele>
        <time>2019-06-15T09:06:52.028Z</time>
      </trkpt>
      <trkpt lat="45.03581" lon="5.38493">
        <ele>541</ele>
        <time>2019-06-15T09:06:53.028Z</time>
      </trkpt>
      <trkpt lat="45.03582" lon="5.38491">
        <ele>541</ele>
        <time>2019-06-15T09:06:54.028Z</time>
      </trkpt>
      <trkpt lat="45.03584" lon="5.38489">
        <ele>542</ele>
        <time>2019-06-15T09:06:55.028Z</time>
      </trkpt>
      <trkpt lat="45.03586" lon="5.38487">
        <ele>542</ele>
        <time>2019-06-15T09:06:56.028Z</time>
      </trkpt>
      <trkpt lat="45.03588" lon="5.38485">
        <ele>542</ele>
        <time>2019-06-15T09:06:57.028Z</time>
      </trkpt>
      <trkpt lat="45.0359" lon="5.38484">
        <ele>542</ele>
        <time>2019-06-15T09:06:58.028Z</time>
      </trkpt>
      <trkpt lat="45.03593" lon="5.38483">
        <ele>543</ele>
        <time>2019-06-15T09:06:59.028Z</time>
      </trkpt>
      <trkpt lat="45.03595" lon="5.38483">
        <ele>543</ele>
        <time>2019-06-15T09:07:00.028Z</time>
      </trkpt>
      <trkpt lat="45.03597" lon="5.38482">
        <ele>543</ele>
        <time>2019-06-15T09:07:01.028Z</time>
      </trkpt>
      <trkpt lat="45.03599" lon="5.38482">
        <ele>543</ele>
        <time>2019-06-15T09:07:02.028Z</time>
      </trkpt>
      <trkpt lat="45.03601" lon="5.38483">
        <ele>542</ele>
        <time>2019-06-15T09:07:03.028Z</time>
      </trkpt>
      <trkpt lat="45.03603" lon="5.38483">
        <ele>542</ele>
        <time>2019-06-15T09:07:04.028Z</time>
      </trkpt>
      <trkpt lat="45.03605" lon="5.38484">
        <ele>543</ele>
        <time>2019-06-15T09:07:05.028Z</time>
      </trkpt>
      <trkpt lat="45.03607" lon="5.38484">
        <ele>543</ele>
        <time>2019-06-15T09:07:06.028Z</time>
      </trkpt>
      <trkpt lat="45.03609" lon="5.38485">
        <ele>544</ele>
        <time>2019-06-15T09:07:07.028Z</time>
      </trkpt>
      <trkpt lat="45.03611" lon="5.38486">
        <ele>544</ele>
        <time>2019-06-15T09:07:08.028Z</time>
      </trkpt>
      <trkpt lat="45.03613" lon="5.38486">
        <ele>545</ele>
        <time>2019-06-15T09:07:09.028Z</time>
      </trkpt>
      <trkpt lat="45.03615" lon="5.38487">
        <ele>545</ele>
        <time>2019-06-15T09:07:10.028Z</time>
      </trkpt>
      <trkpt lat="45.03617" lon="5.38488">
        <ele>546</ele>
        <time>2019-06-15T09:07:11.028Z</time>
      </trkpt>
      <trkpt lat="45.03619" lon="5.3849">
        <ele>544</ele>
        <time>2019-06-15T09:07:12.028Z</time>
      </trkpt>
      <trkpt lat="45.03621" lon="5.38492">
        <ele>544</ele>
        <time>2019-06-15T09:07:13.028Z</time>
      </trkpt>
      <trkpt lat="45.03623" lon="5.38494">
        <ele>544</ele>
        <time>2019-06-15T09:07:14.028Z</time>
      </trkpt>
      <trkpt lat="45.03625" lon="5.38495">
        <ele>544</ele>
        <time>2019-06-15T09:07:15.028Z</time>
      </trkpt>
      <trkpt lat="45.03627" lon="5.38497">
        <ele>543</ele>
        <time>2019-06-15T09:07:16.028Z</time>
      </trkpt>
      <trkpt lat="45.03629" lon="5.38498">
        <ele>543</ele>
        <time>2019-06-15T09:07:17.028Z</time>
      </trkpt>
      <trkpt lat="45.03632" lon="5.38498">
        <ele>544</ele>
        <time>2019-06-15T09:07:18.028Z</time>
      </trkpt>
      <trkpt lat="45.03634" lon="5.38499">
        <ele>544</ele>
        <time>2019-06-15T09:07:19.028Z</time>
      </trkpt>
      <trkpt lat="45.03636" lon="5.385">
        <ele>543</ele>
        <time>2019-06-15T09:07:20.028Z</time>
      </trkpt>
      <trkpt lat="45.03639" lon="5.38501">
        <ele>544</ele>
        <time>2019-06-15T09:07:21.028Z</time>
      </trkpt>
      <trkpt lat="45.03641" lon="5.38501">
        <ele>544</ele>
        <time>2019-06-15T09:07:22.028Z</time>
      </trkpt>
      <trkpt lat="45.03643" lon="5.38502">
        <ele>544</ele>
        <time>2019-06-15T09:07:23.028Z</time>
      </trkpt>
      <trkpt lat="45.03645" lon="5.38503">
        <ele>544</ele>
        <time>2019-06-15T09:07:24.028Z</time>
      </trkpt>
      <trkpt lat="45.03647" lon="5.38504">
        <ele>545</ele>
        <time>2019-06-15T09:07:25.028Z</time>
      </trkpt>
      <trkpt lat="45.03649" lon="5.38504">
        <ele>544</ele>
        <time>2019-06-15T09:07:26.028Z</time>
      </trkpt>
      <trkpt lat="45.03651" lon="5.38505">
        <ele>545</ele>
        <time>2019-06-15T09:07:27.028Z</time>
      </trkpt>
      <trkpt lat="45.03653" lon="5.38505">
        <ele>545</ele>
        <time>2019-06-15T09:07:28.028Z</time>
      </trkpt>
      <trkpt lat="45.03655" lon="5.38505">
        <ele>545</ele>
        <time>2019-06-15T09:07:29.028Z</time>
      </trkpt>
      <trkpt lat="45.03657" lon="5.38506">
        <ele>545</ele>
        <time>2019-06-15T09:07:30.028Z</time>
      </trkpt>
      <trkpt lat="45.03659" lon="5.38506">
        <ele>545</ele>
        <time>2019-06-15T09:07:31.028Z</time>
      </trkpt>
      <trkpt lat="45.03661" lon="5.38507">
        <ele>545</ele>
        <time>2019-06-15T09:07:32.028Z</time>
      </trkpt>
      <trkpt lat="45.03663" lon="5.38508">
        <ele>546</ele>
        <time>2019-06-15T09:07:33.028Z</time>
      </trkpt>
      <trkpt lat="45.03665" lon="5.38508">
        <ele>546</ele>
        <time>2019-06-15T09:07:34.028Z</time>
      </trkpt>
      <trkpt lat="45.03667" lon="5.38509">
        <ele>547</ele>
        <time>2019-06-15T09:07:35.028Z</time>
      </trkpt>
      <trkpt lat="45.03669" lon="5.3851">
        <ele>546</ele>
        <time>2019-06-15T09:07:36.028Z</time>
      </trkpt>
      <trkpt lat="45.03671" lon="5.3851">
        <ele>546</ele>
        <time>2019-06-15T09:07:37.028Z</time>
      </trkpt>
      <trkpt lat="45.03674" lon="5.3851">
        <ele>546</ele>
        <time>2019-06-15T09:07:38.028Z</time>
      </trkpt>
      <trkpt lat="45.03676" lon="5.3851">
        <ele>546</ele>
        <time>2019-06-15T09:07:39.028Z</time>
      </trkpt>
      <trkpt lat="45.03679" lon="5.3851">
        <ele>545</ele>
        <time>2019-06-15T09:07:40.028Z</time>
      </trkpt>
      <trkpt lat="45.03682" lon="5.38509">
        <ele>545</ele>
        <time>2019-06-15T09:07:41.028Z</time>
      </trkpt>
      <trkpt lat="45.03684" lon="5.38508">
        <ele>545</ele>
        <time>2019-06-15T09:07:42.028Z</time>
      </trkpt>
      <trkpt lat="45.03686" lon="5.38506">
        <ele>545</ele>
        <time>2019-06-15T09:07:43.028Z</time>
      </trkpt>
      <trkpt lat="45.03688" lon="5.38504">
        <ele>545</ele>
        <time>2019-06-15T09:07:44.028Z</time>
      </trkpt>
      <trkpt lat="45.0369" lon="5.38502">
        <ele>545</ele>
        <time>2019-06-15T09:07:45.028Z</time>
      </trkpt>
      <trkpt lat="45.03692" lon="5.385">
        <ele>545</ele>
        <time>2019-06-15T09:07:46.028Z</time>
      </trkpt>
      <trkpt lat="45.03694" lon="5.38497">
        <ele>542</ele>
        <time>2019-06-15T09:07:47.028Z</time>
      </trkpt>
      <trkpt lat="45.03695" lon="5.38495">
        <ele>541</ele>
        <time>2019-06-15T09:07:48.028Z</time>
      </trkpt>
      <trkpt lat="45.03697" lon="5.38492">
        <ele>539</ele>
        <time>2019-06-15T09:07:49.028Z</time>
      </trkpt>
      <trkpt lat="45.03699" lon="5.38489">
        <ele>537</ele>
        <time>2019-06-15T09:07:50.028Z</time>
      </trkpt>
      <trkpt lat="45.037" lon="5.38486">
        <ele>536</ele>
        <time>2019-06-15T09:07:51.028Z</time>
      </trkpt>
      <trkpt lat="45.03702" lon="5.38484">
        <ele>535</ele>
        <time>2019-06-15T09:07:52.028Z</time>
      </trkpt>
      <trkpt lat="45.03704" lon="5.38481">
        <ele>535</ele>
        <time>2019-06-15T09:07:53.028Z</time>
      </trkpt>
      <trkpt lat="45.03706" lon="5.38479">
        <ele>535</ele>
        <time>2019-06-15T09:07:54.028Z</time>
      </trkpt>
      <trkpt lat="45.03708" lon="5.38476">
        <ele>534</ele>
        <time>2019-06-15T09:07:55.028Z</time>
      </trkpt>
      <trkpt lat="45.0371" lon="5.38474">
        <ele>534</ele>
        <time>2019-06-15T09:07:56.028Z</time>
      </trkpt>
      <trkpt lat="45.03712" lon="5.3847">
        <ele>534</ele>
        <time>2019-06-15T09:07:57.028Z</time>
      </trkpt>
      <trkpt lat="45.03713" lon="5.38467">
        <ele>534</ele>
        <time>2019-06-15T09:07:58.028Z</time>
      </trkpt>
      <trkpt lat="45.03715" lon="5.38463">
        <ele>535</ele>
        <time>2019-06-15T09:07:59.028Z</time>
      </trkpt>
      <trkpt lat="45.03716" lon="5.38459">
        <ele>535</ele>
        <time>2019-06-15T09:08:00.028Z</time>
      </trkpt>
      <trkpt lat="45.03718" lon="5.38456">
        <ele>536</ele>
        <time>2019-06-15T09:08:01.028Z</time>
      </trkpt>
      <trkpt lat="45.0372" lon="5.38452">
        <ele>536</ele>
        <time>2019-06-15T09:08:02.028Z</time>
      </trkpt>
      <trkpt lat="45.03722" lon="5.38449">
        <ele>535</ele>
        <time>2019-06-15T09:08:03.028Z</time>
      </trkpt>
      <trkpt lat="45.03724" lon="5.38446">
        <ele>535</ele>
        <time>2019-06-15T09:08:04.028Z</time>
      </trkpt>
      <trkpt lat="45.03726" lon="5.38442">
        <ele>536</ele>
        <time>2019-06-15T09:08:05.028Z</time>
      </trkpt>
      <trkpt lat="45.03727" lon="5.38439">
        <ele>536</ele>
        <time>2019-06-15T09:08:06.028Z</time>
      </trkpt>
      <trkpt lat="45.03729" lon="5.38435">
        <ele>536</ele>
        <time>2019-06-15T09:08:07.028Z</time>
      </trkpt>
      <trkpt lat="45.03731" lon="5.38432">
        <ele>536</ele>
        <time>2019-06-15T09:08:08.028Z</time>
      </trkpt>
      <trkpt lat="45.03734" lon="5.3843">
        <ele>536</ele>
        <time>2019-06-15T09:08:09.028Z</time>
      </trkpt>
      <trkpt lat="45.03736" lon="5.38427">
        <ele>536</ele>
        <time>2019-06-15T09:08:10.028Z</time>
      </trkpt>
      <trkpt lat="45.03738" lon="5.38424">
        <ele>536</ele>
        <time>2019-06-15T09:08:11.028Z</time>
      </trkpt>
      <trkpt lat="45.0374" lon="5.38421">
        <ele>536</ele>
        <time>2019-06-15T09:08:12.028Z</time>
      </trkpt>
      <trkpt lat="45.03741" lon="5.38418">
        <ele>536</ele>
        <time>2019-06-15T09:08:13.028Z</time>
      </trkpt>
      <trkpt lat="45.03743" lon="5.38415">
        <ele>534</ele>
        <time>2019-06-15T09:08:14.028Z</time>
      </trkpt>
      <trkpt lat="45.03745" lon="5.38411">
        <ele>533</ele>
        <time>2019-06-15T09:08:15.028Z</time>
      </trkpt>
      <trkpt lat="45.03747" lon="5.38408">
        <ele>532</ele>
        <time>2019-06-15T09:08:16.028Z</time>
      </trkpt>
      <trkpt lat="45.03749" lon="5.38404">
        <ele>531</ele>
        <time>2019-06-15T09:08:17.028Z</time>
      </trkpt>
      <trkpt lat="45.03751" lon="5.38401">
        <ele>530</ele>
        <time>2019-06-15T09:08:18.028Z</time>
      </trkpt>
      <trkpt lat="45.03753" lon="5.38398">
        <ele>530</ele>
        <time>2019-06-15T09:08:19.028Z</time>
      </trkpt>
      <trkpt lat="45.03755" lon="5.38395">
        <ele>528</ele>
        <time>2019-06-15T09:08:20.028Z</time>
      </trkpt>
      <trkpt lat="45.03757" lon="5.38393">
        <ele>528</ele>
        <time>2019-06-15T09:08:21.028Z</time>
      </trkpt>
      <trkpt lat="45.03758" lon="5.3839">
        <ele>527</ele>
        <time>2019-06-15T09:08:22.028Z</time>
      </trkpt>
      <trkpt lat="45.0376" lon="5.38386">
        <ele>526</ele>
        <time>2019-06-15T09:08:23.028Z</time>
      </trkpt>
      <trkpt lat="45.03762" lon="5.38383">
        <ele>526</ele>
        <time>2019-06-15T09:08:24.028Z</time>
      </trkpt>
      <trkpt lat="45.03764" lon="5.3838">
        <ele>525</ele>
        <time>2019-06-15T09:08:25.028Z</time>
      </trkpt>
      <trkpt lat="45.03766" lon="5.38376">
        <ele>524</ele>
        <time>2019-06-15T09:08:26.028Z</time>
      </trkpt>
      <trkpt lat="45.03768" lon="5.38373">
        <ele>524</ele>
        <time>2019-06-15T09:08:27.028Z</time>
      </trkpt>
      <trkpt lat="45.0377" lon="5.3837">
        <ele>523</ele>
        <time>2019-06-15T09:08:28.028Z</time>
      </trkpt>
      <trkpt lat="45.03772" lon="5.38367">
        <ele>523</ele>
        <time>2019-06-15T09:08:29.028Z</time>
      </trkpt>
      <trkpt lat="45.03775" lon="5.38365">
        <ele>523</ele>
        <time>2019-06-15T09:08:30.028Z</time>
      </trkpt>
      <trkpt lat="45.03778" lon="5.38363">
        <ele>523</ele>
        <time>2019-06-15T09:08:31.028Z</time>
      </trkpt>
      <trkpt lat="45.03781" lon="5.38361">
        <ele>523</ele>
        <time>2019-06-15T09:08:32.028Z</time>
      </trkpt>
      <trkpt lat="45.03784" lon="5.3836">
        <ele>523</ele>
        <time>2019-06-15T09:08:33.028Z</time>
      </trkpt>
      <trkpt lat="45.03788" lon="5.38358">
        <ele>523</ele>
        <time>2019-06-15T09:08:34.028Z</time>
      </trkpt>
      <trkpt lat="45.03791" lon="5.38357">
        <ele>524</ele>
        <time>2019-06-15T09:08:35.028Z</time>
      </trkpt>
      <trkpt lat="45.03794" lon="5.38356">
        <ele>525</ele>
        <time>2019-06-15T09:08:36.028Z</time>
      </trkpt>
      <trkpt lat="45.03797" lon="5.38354">
        <ele>525</ele>
        <time>2019-06-15T09:08:37.028Z</time>
      </trkpt>
      <trkpt lat="45.03801" lon="5.38353">
        <ele>525</ele>
        <time>2019-06-15T09:08:38.028Z</time>
      </trkpt>
      <trkpt lat="45.03803" lon="5.38353">
        <ele>525</ele>
        <time>2019-06-15T09:08:39.028Z</time>
      </trkpt>
      <trkpt lat="45.03806" lon="5.38353">
        <ele>524</ele>
        <time>2019-06-15T09:08:40.028Z</time>
      </trkpt>
      <trkpt lat="45.03809" lon="5.38352">
        <ele>524</ele>
        <time>2019-06-15T09:08:41.028Z</time>
      </trkpt>
      <trkpt lat="45.03812" lon="5.38352">
        <ele>523</ele>
        <time>2019-06-15T09:08:42.028Z</time>
      </trkpt>
      <trkpt lat="45.03815" lon="5.38352">
        <ele>524</ele>
        <time>2019-06-15T09:08:43.028Z</time>
      </trkpt>
      <trkpt lat="45.03819" lon="5.38353">
        <ele>525</ele>
        <time>2019-06-15T09:08:44.028Z</time>
      </trkpt>
      <trkpt lat="45.03822" lon="5.38353">
        <ele>525</ele>
        <time>2019-06-15T09:08:45.028Z</time>
      </trkpt>
      <trkpt lat="45.03825" lon="5.38353">
        <ele>524</ele>
        <time>2019-06-15T09:08:46.028Z</time>
      </trkpt>
      <trkpt lat="45.03828" lon="5.38353">
        <ele>523</ele>
        <time>2019-06-15T09:08:47.028Z</time>
      </trkpt>
      <trkpt lat="45.03832" lon="5.38353">
        <ele>523</ele>
        <time>2019-06-15T09:08:48.028Z</time>
      </trkpt>
      <trkpt lat="45.03835" lon="5.38353">
        <ele>523</ele>
        <time>2019-06-15T09:08:49.028Z</time>
      </trkpt>
      <trkpt lat="45.03838" lon="5.38354">
        <ele>523</ele>
        <time>2019-06-15T09:08:50.028Z</time>
      </trkpt>
      <trkpt lat="45.03841" lon="5.38355">
        <ele>523</ele>
        <time>2019-06-15T09:08:51.028Z</time>
      </trkpt>
      <trkpt lat="45.03843" lon="5.38356">
        <ele>523</ele>
        <time>2019-06-15T09:08:52.028Z</time>
      </trkpt>
      <trkpt lat="45.03846" lon="5.38357">
        <ele>524</ele>
        <time>2019-06-15T09:08:53.028Z</time>
      </trkpt>
      <trkpt lat="45.03848" lon="5.38359">
        <ele>524</ele>
        <time>2019-06-15T09:08:54.028Z</time>
      </trkpt>
      <trkpt lat="45.03851" lon="5.3836">
        <ele>524</ele>
        <time>2019-06-15T09:08:55.028Z</time>
      </trkpt>
      <trkpt lat="45.03854" lon="5.38362">
        <ele>524</ele>
        <time>2019-06-15T09:08:56.028Z</time>
      </trkpt>
      <trkpt lat="45.03857" lon="5.38363">
        <ele>525</ele>
        <time>2019-06-15T09:08:57.028Z</time>
      </trkpt>
      <trkpt lat="45.0386" lon="5.38365">
        <ele>525</ele>
        <time>2019-06-15T09:08:58.028Z</time>
      </trkpt>
      <trkpt lat="45.03863" lon="5.38366">
        <ele>525</ele>
        <time>2019-06-15T09:08:59.028Z</time>
      </trkpt>
      <trkpt lat="45.03866" lon="5.38368">
        <ele>525</ele>
        <time>2019-06-15T09:09:00.028Z</time>
      </trkpt>
      <trkpt lat="45.03868" lon="5.38369">
        <ele>526</ele>
        <time>2019-06-15T09:09:01.028Z</time>
      </trkpt>
      <trkpt lat="45.03871" lon="5.38372">
        <ele>525</ele>
        <time>2019-06-15T09:09:02.028Z</time>
      </trkpt>
      <trkpt lat="45.03874" lon="5.38374">
        <ele>526</ele>
        <time>2019-06-15T09:09:03.028Z</time>
      </trkpt>
      <trkpt lat="45.03876" lon="5.38376">
        <ele>527</ele>
        <time>2019-06-15T09:09:04.028Z</time>
      </trkpt>
      <trkpt lat="45.03879" lon="5.38377">
        <ele>527</ele>
        <time>2019-06-15T09:09:05.028Z</time>
      </trkpt>
      <trkpt lat="45.03882" lon="5.38379">
        <ele>528</ele>
        <time>2019-06-15T09:09:06.028Z</time>
      </trkpt>
      <trkpt lat="45.03885" lon="5.3838">
        <ele>528</ele>
        <time>2019-06-15T09:09:07.028Z</time>
      </trkpt>
      <trkpt lat="45.03887" lon="5.38381">
        <ele>528</ele>
        <time>2019-06-15T09:09:08.028Z</time>
      </trkpt>
      <trkpt lat="45.0389" lon="5.38383">
        <ele>528</ele>
        <time>2019-06-15T09:09:09.028Z</time>
      </trkpt>
      <trkpt lat="45.03892" lon="5.38385">
        <ele>529</ele>
        <time>2019-06-15T09:09:10.028Z</time>
      </trkpt>
      <trkpt lat="45.03895" lon="5.38387">
        <ele>529</ele>
        <time>2019-06-15T09:09:11.028Z</time>
      </trkpt>
      <trkpt lat="45.03897" lon="5.38388">
        <ele>529</ele>
        <time>2019-06-15T09:09:12.028Z</time>
      </trkpt>
      <trkpt lat="45.03899" lon="5.38389">
        <ele>530</ele>
        <time>2019-06-15T09:09:13.028Z</time>
      </trkpt>
      <trkpt lat="45.03902" lon="5.3839">
        <ele>530</ele>
        <time>2019-06-15T09:09:14.028Z</time>
      </trkpt>
      <trkpt lat="45.03905" lon="5.38391">
        <ele>530</ele>
        <time>2019-06-15T09:09:15.028Z</time>
      </trkpt>
      <trkpt lat="45.03907" lon="5.38393">
        <ele>530</ele>
        <time>2019-06-15T09:09:16.028Z</time>
      </trkpt>
      <trkpt lat="45.0391" lon="5.38394">
        <ele>530</ele>
        <time>2019-06-15T09:09:17.028Z</time>
      </trkpt>
      <trkpt lat="45.03912" lon="5.38395">
        <ele>531</ele>
        <time>2019-06-15T09:09:18.028Z</time>
      </trkpt>
      <trkpt lat="45.03914" lon="5.38395">
        <ele>531</ele>
        <time>2019-06-15T09:09:19.028Z</time>
      </trkpt>
      <trkpt lat="45.03917" lon="5.38396">
        <ele>531</ele>
        <time>2019-06-15T09:09:20.028Z</time>
      </trkpt>
      <trkpt lat="45.03919" lon="5.38397">
        <ele>531</ele>
        <time>2019-06-15T09:09:21.028Z</time>
      </trkpt>
      <trkpt lat="45.03922" lon="5.38397">
        <ele>532</ele>
        <time>2019-06-15T09:09:22.028Z</time>
      </trkpt>
      <trkpt lat="45.03924" lon="5.38398">
        <ele>533</ele>
        <time>2019-06-15T09:09:23.028Z</time>
      </trkpt>
      <trkpt lat="45.03927" lon="5.38399">
        <ele>533</ele>
        <time>2019-06-15T09:09:24.028Z</time>
      </trkpt>
      <trkpt lat="45.03929" lon="5.384">
        <ele>533</ele>
        <time>2019-06-15T09:09:25.028Z</time>
      </trkpt>
      <trkpt lat="45.03931" lon="5.384">
        <ele>533</ele>
        <time>2019-06-15T09:09:26.028Z</time>
      </trkpt>
      <trkpt lat="45.03934" lon="5.38401">
        <ele>533</ele>
        <time>2019-06-15T09:09:27.028Z</time>
      </trkpt>
      <trkpt lat="45.03936" lon="5.38401">
        <ele>533</ele>
        <time>2019-06-15T09:09:28.028Z</time>
      </trkpt>
      <trkpt lat="45.03939" lon="5.38402">
        <ele>533</ele>
        <time>2019-06-15T09:09:29.028Z</time>
      </trkpt>
      <trkpt lat="45.03941" lon="5.38402">
        <ele>533</ele>
        <time>2019-06-15T09:09:30.028Z</time>
      </trkpt>
      <trkpt lat="45.03943" lon="5.38402">
        <ele>534</ele>
        <time>2019-06-15T09:09:31.028Z</time>
      </trkpt>
      <trkpt lat="45.03945" lon="5.38401">
        <ele>533</ele>
        <time>2019-06-15T09:09:32.028Z</time>
      </trkpt>
      <trkpt lat="45.03948" lon="5.38401">
        <ele>533</ele>
        <time>2019-06-15T09:09:33.028Z</time>
      </trkpt>
      <trkpt lat="45.0395" lon="5.384">
        <ele>533</ele>
        <time>2019-06-15T09:09:34.028Z</time>
      </trkpt>
      <trkpt lat="45.03952" lon="5.384">
        <ele>532</ele>
        <time>2019-06-15T09:09:35.028Z</time>
      </trkpt>
      <trkpt lat="45.03954" lon="5.38399">
        <ele>531</ele>
        <time>2019-06-15T09:09:36.028Z</time>
      </trkpt>
      <trkpt lat="45.03956" lon="5.38398">
        <ele>531</ele>
        <time>2019-06-15T09:09:37.028Z</time>
      </trkpt>
      <trkpt lat="45.03958" lon="5.38397">
        <ele>531</ele>
        <time>2019-06-15T09:09:38.028Z</time>
      </trkpt>
      <trkpt lat="45.0396" lon="5.38396">
        <ele>530</ele>
        <time>2019-06-15T09:09:39.028Z</time>
      </trkpt>
      <trkpt lat="45.03961" lon="5.38394">
        <ele>531</ele>
        <time>2019-06-15T09:09:40.028Z</time>
      </trkpt>
      <trkpt lat="45.03963" lon="5.38393">
        <ele>530</ele>
        <time>2019-06-15T09:09:41.028Z</time>
      </trkpt>
      <trkpt lat="45.03965" lon="5.38392">
        <ele>531</ele>
        <time>2019-06-15T09:09:42.028Z</time>
      </trkpt>
      <trkpt lat="45.03967" lon="5.38391">
        <ele>531</ele>
        <time>2019-06-15T09:09:43.028Z</time>
      </trkpt>
      <trkpt lat="45.03969" lon="5.38389">
        <ele>531</ele>
        <time>2019-06-15T09:09:44.028Z</time>
      </trkpt>
      <trkpt lat="45.03971" lon="5.38388">
        <ele>530</ele>
        <time>2019-06-15T09:09:45.028Z</time>
      </trkpt>
      <trkpt lat="45.03973" lon="5.38386">
        <ele>530</ele>
        <time>2019-06-15T09:09:46.028Z</time>
      </trkpt>
      <trkpt lat="45.03974" lon="5.38385">
        <ele>529</ele>
        <time>2019-06-15T09:09:47.028Z</time>
      </trkpt>
      <trkpt lat="45.03976" lon="5.38383">
        <ele>529</ele>
        <time>2019-06-15T09:09:48.028Z</time>
      </trkpt>
      <trkpt lat="45.03978" lon="5.38381">
        <ele>529</ele>
        <time>2019-06-15T09:09:49.028Z</time>
      </trkpt>
      <trkpt lat="45.03979" lon="5.38379">
        <ele>528</ele>
        <time>2019-06-15T09:09:50.028Z</time>
      </trkpt>
      <trkpt lat="45.03981" lon="5.38377">
        <ele>530</ele>
        <time>2019-06-15T09:09:51.028Z</time>
      </trkpt>
      <trkpt lat="45.03982" lon="5.38374">
        <ele>531</ele>
        <time>2019-06-15T09:09:52.028Z</time>
      </trkpt>
      <trkpt lat="45.03984" lon="5.3837">
        <ele>532</ele>
        <time>2019-06-15T09:09:53.028Z</time>
      </trkpt>
      <trkpt lat="45.03985" lon="5.38367">
        <ele>533</ele>
        <time>2019-06-15T09:09:54.028Z</time>
      </trkpt>
      <trkpt lat="45.03986" lon="5.38365">
        <ele>534</ele>
        <time>2019-06-15T09:09:55.028Z</time>
      </trkpt>
      <trkpt lat="45.03987" lon="5.38362">
        <ele>534</ele>
        <time>2019-06-15T09:09:56.028Z</time>
      </trkpt>
      <trkpt lat="45.03989" lon="5.38359">
        <ele>535</ele>
        <time>2019-06-15T09:09:57.028Z</time>
      </trkpt>
      <trkpt lat="45.0399" lon="5.38357">
        <ele>535</ele>
        <time>2019-06-15T09:09:58.028Z</time>
      </trkpt>
      <trkpt lat="45.03991" lon="5.38355">
        <ele>536</ele>
        <time>2019-06-15T09:09:59.028Z</time>
      </trkpt>
      <trkpt lat="45.03993" lon="5.38353">
        <ele>536</ele>
        <time>2019-06-15T09:10:00.028Z</time>
      </trkpt>
      <trkpt lat="45.03994" lon="5.38351">
        <ele>536</ele>
        <time>2019-06-15T09:10:01.028Z</time>
      </trkpt>
      <trkpt lat="45.03996" lon="5.3835">
        <ele>537</ele>
        <time>2019-06-15T09:10:02.028Z</time>
      </trkpt>
      <trkpt lat="45.03998" lon="5.38349">
        <ele>537</ele>
        <time>2019-06-15T09:10:03.028Z</time>
      </trkpt>
      <trkpt lat="45.04" lon="5.38347">
        <ele>538</ele>
        <time>2019-06-15T09:10:04.028Z</time>
      </trkpt>
      <trkpt lat="45.04001" lon="5.38346">
        <ele>538</ele>
        <time>2019-06-15T09:10:05.028Z</time>
      </trkpt>
      <trkpt lat="45.04003" lon="5.38345">
        <ele>538</ele>
        <time>2019-06-15T09:10:06.028Z</time>
      </trkpt>
      <trkpt lat="45.04005" lon="5.38344">
        <ele>538</ele>
        <time>2019-06-15T09:10:07.028Z</time>
      </trkpt>
      <trkpt lat="45.04006" lon="5.38342">
        <ele>539</ele>
        <time>2019-06-15T09:10:08.028Z</time>
      </trkpt>
      <trkpt lat="45.04008" lon="5.38341">
        <ele>539</ele>
        <time>2019-06-15T09:10:09.028Z</time>
      </trkpt>
      <trkpt lat="45.04009" lon="5.38339">
        <ele>539</ele>
        <time>2019-06-15T09:10:10.028Z</time>
      </trkpt>
      <trkpt lat="45.0401" lon="5.38337">
        <ele>539</ele>
        <time>2019-06-15T09:10:11.028Z</time>
      </trkpt>
      <trkpt lat="45.04012" lon="5.38335">
        <ele>540</ele>
        <time>2019-06-15T09:10:12.028Z</time>
      </trkpt>
      <trkpt lat="45.04013" lon="5.38333">
        <ele>540</ele>
        <time>2019-06-15T09:10:13.028Z</time>
      </trkpt>
      <trkpt lat="45.04014" lon="5.3833">
        <ele>540</ele>
        <time>2019-06-15T09:10:14.028Z</time>
      </trkpt>
      <trkpt lat="45.04015" lon="5.38328">
        <ele>540</ele>
        <time>2019-06-15T09:10:15.028Z</time>
      </trkpt>
      <trkpt lat="45.04017" lon="5.38325">
        <ele>540</ele>
        <time>2019-06-15T09:10:16.028Z</time>
      </trkpt>
      <trkpt lat="45.04018" lon="5.38322">
        <ele>540</ele>
        <time>2019-06-15T09:10:17.028Z</time>
      </trkpt>
      <trkpt lat="45.04018" lon="5.38319">
        <ele>540</ele>
        <time>2019-06-15T09:10:18.028Z</time>
      </trkpt>
      <trkpt lat="45.04019" lon="5.38316">
        <ele>540</ele>
        <time>2019-06-15T09:10:19.028Z</time>
      </trkpt>
      <trkpt lat="45.0402" lon="5.38314">
        <ele>540</ele>
        <time>2019-06-15T09:10:20.028Z</time>
      </trkpt>
      <trkpt lat="45.0402" lon="5.38311">
        <ele>541</ele>
        <time>2019-06-15T09:10:21.028Z</time>
      </trkpt>
      <trkpt lat="45.0402" lon="5.38308">
        <ele>541</ele>
        <time>2019-06-15T09:10:22.028Z</time>
      </trkpt>
      <trkpt lat="45.04021" lon="5.38305">
        <ele>542</ele>
        <time>2019-06-15T09:10:23.028Z</time>
      </trkpt>
      <trkpt lat="45.04021" lon="5.38302">
        <ele>542</ele>
        <time>2019-06-15T09:10:24.028Z</time>
      </trkpt>
      <trkpt lat="45.04021" lon="5.38299">
        <ele>542</ele>
        <time>2019-06-15T09:10:25.028Z</time>
      </trkpt>
      <trkpt lat="45.04022" lon="5.38296">
        <ele>542</ele>
        <time>2019-06-15T09:10:26.028Z</time>
      </trkpt>
      <trkpt lat="45.04022" lon="5.38294">
        <ele>542</ele>
        <time>2019-06-15T09:10:27.028Z</time>
      </trkpt>
      <trkpt lat="45.04022" lon="5.38291">
        <ele>543</ele>
        <time>2019-06-15T09:10:28.028Z</time>
      </trkpt>
      <trkpt lat="45.04023" lon="5.38288">
        <ele>543</ele>
        <time>2019-06-15T09:10:29.028Z</time>
      </trkpt>
      <trkpt lat="45.04024" lon="5.38286">
        <ele>543</ele>
        <time>2019-06-15T09:10:30.028Z</time>
      </trkpt>
      <trkpt lat="45.04024" lon="5.38283">
        <ele>543</ele>
        <time>2019-06-15T09:10:31.028Z</time>
      </trkpt>
      <trkpt lat="45.04025" lon="5.38281">
        <ele>544</ele>
        <time>2019-06-15T09:10:32.028Z</time>
      </trkpt>
      <trkpt lat="45.04025" lon="5.38278">
        <ele>544</ele>
        <time>2019-06-15T09:10:33.028Z</time>
      </trkpt>
      <trkpt lat="45.04024" lon="5.38275">
        <ele>545</ele>
        <time>2019-06-15T09:10:34.028Z</time>
      </trkpt>
      <trkpt lat="45.04024" lon="5.38273">
        <ele>545</ele>
        <time>2019-06-15T09:10:35.028Z</time>
      </trkpt>
      <trkpt lat="45.04024" lon="5.3827">
        <ele>546</ele>
        <time>2019-06-15T09:10:36.028Z</time>
      </trkpt>
      <trkpt lat="45.04024" lon="5.38267">
        <ele>546</ele>
        <time>2019-06-15T09:10:37.028Z</time>
      </trkpt>
      <trkpt lat="45.04024" lon="5.38265">
        <ele>546</ele>
        <time>2019-06-15T09:10:38.028Z</time>
      </trkpt>
      <trkpt lat="45.04023" lon="5.38262">
        <ele>546</ele>
        <time>2019-06-15T09:10:39.028Z</time>
      </trkpt>
      <trkpt lat="45.04024" lon="5.38259">
        <ele>547</ele>
        <time>2019-06-15T09:10:40.028Z</time>
      </trkpt>
      <trkpt lat="45.04024" lon="5.38256">
        <ele>547</ele>
        <time>2019-06-15T09:10:41.028Z</time>
      </trkpt>
      <trkpt lat="45.04025" lon="5.38254">
        <ele>547</ele>
        <time>2019-06-15T09:10:42.028Z</time>
      </trkpt>
      <trkpt lat="45.04027" lon="5.38251">
        <ele>546</ele>
        <time>2019-06-15T09:10:43.028Z</time>
      </trkpt>
      <trkpt lat="45.04028" lon="5.38249">
        <ele>545</ele>
        <time>2019-06-15T09:10:44.028Z</time>
      </trkpt>
      <trkpt lat="45.0403" lon="5.38248">
        <ele>546</ele>
        <time>2019-06-15T09:10:45.028Z</time>
      </trkpt>
      <trkpt lat="45.04031" lon="5.38246">
        <ele>546</ele>
        <time>2019-06-15T09:10:46.028Z</time>
      </trkpt>
      <trkpt lat="45.04032" lon="5.38244">
        <ele>546</ele>
        <time>2019-06-15T09:10:47.028Z</time>
      </trkpt>
      <trkpt lat="45.04033" lon="5.38242">
        <ele>547</ele>
        <time>2019-06-15T09:10:48.028Z</time>
      </trkpt>
      <trkpt lat="45.04034" lon="5.3824">
        <ele>547</ele>
        <time>2019-06-15T09:10:49.028Z</time>
      </trkpt>
      <trkpt lat="45.04036" lon="5.38238">
        <ele>547</ele>
        <time>2019-06-15T09:10:50.028Z</time>
      </trkpt>
      <trkpt lat="45.04037" lon="5.38237">
        <ele>547</ele>
        <time>2019-06-15T09:10:51.028Z</time>
      </trkpt>
      <trkpt lat="45.04038" lon="5.38235">
        <ele>547</ele>
        <time>2019-06-15T09:10:52.028Z</time>
      </trkpt>
      <trkpt lat="45.04039" lon="5.38234">
        <ele>546</ele>
        <time>2019-06-15T09:10:53.028Z</time>
      </trkpt>
      <trkpt lat="45.04041" lon="5.38233">
        <ele>547</ele>
        <time>2019-06-15T09:10:54.028Z</time>
      </trkpt>
      <trkpt lat="45.04042" lon="5.38232">
        <ele>547</ele>
        <time>2019-06-15T09:10:55.028Z</time>
      </trkpt>
      <trkpt lat="45.04043" lon="5.38232">
        <ele>547</ele>
        <time>2019-06-15T09:10:56.028Z</time>
      </trkpt>
      <trkpt lat="45.04045" lon="5.38231">
        <ele>547</ele>
        <time>2019-06-15T09:10:57.028Z</time>
      </trkpt>
      <trkpt lat="45.04046" lon="5.3823">
        <ele>547</ele>
        <time>2019-06-15T09:10:58.028Z</time>
      </trkpt>
      <trkpt lat="45.04047" lon="5.3823">
        <ele>547</ele>
        <time>2019-06-15T09:10:59.028Z</time>
      </trkpt>
      <trkpt lat="45.04049" lon="5.3823">
        <ele>547</ele>
        <time>2019-06-15T09:11:00.028Z</time>
      </trkpt>
      <trkpt lat="45.0405" lon="5.3823">
        <ele>548</ele>
        <time>2019-06-15T09:11:01.028Z</time>
      </trkpt>
      <trkpt lat="45.04051" lon="5.3823">
        <ele>548</ele>
        <time>2019-06-15T09:11:02.028Z</time>
      </trkpt>
      <trkpt lat="45.04052" lon="5.3823">
        <ele>548</ele>
        <time>2019-06-15T09:11:03.028Z</time>
      </trkpt>
      <trkpt lat="45.04053" lon="5.38231">
        <ele>549</ele>
        <time>2019-06-15T09:11:04.028Z</time>
      </trkpt>
      <trkpt lat="45.04055" lon="5.38232">
        <ele>549</ele>
        <time>2019-06-15T09:11:05.028Z</time>
      </trkpt>
      <trkpt lat="45.04056" lon="5.38232">
        <ele>549</ele>
        <time>2019-06-15T09:11:06.028Z</time>
      </trkpt>
      <trkpt lat="45.04057" lon="5.38233">
        <ele>549</ele>
        <time>2019-06-15T09:11:07.028Z</time>
      </trkpt>
      <trkpt lat="45.04058" lon="5.38233">
        <ele>550</ele>
        <time>2019-06-15T09:11:08.028Z</time>
      </trkpt>
      <trkpt lat="45.04059" lon="5.38234">
        <ele>549</ele>
        <time>2019-06-15T09:11:09.028Z</time>
      </trkpt>
      <trkpt lat="45.04061" lon="5.38236">
        <ele>551</ele>
        <time>2019-06-15T09:11:10.028Z</time>
      </trkpt>
      <trkpt lat="45.04062" lon="5.38237">
        <ele>551</ele>
        <time>2019-06-15T09:11:11.028Z</time>
      </trkpt>
      <trkpt lat="45.04063" lon="5.38238">
        <ele>551</ele>
        <time>2019-06-15T09:11:12.028Z</time>
      </trkpt>
      <trkpt lat="45.04064" lon="5.38239">
        <ele>551</ele>
        <time>2019-06-15T09:11:13.028Z</time>
      </trkpt>
      <trkpt lat="45.04065" lon="5.3824">
        <ele>552</ele>
        <time>2019-06-15T09:11:14.028Z</time>
      </trkpt>
      <trkpt lat="45.04066" lon="5.38242">
        <ele>552</ele>
        <time>2019-06-15T09:11:15.028Z</time>
      </trkpt>
      <trkpt lat="45.04068" lon="5.38243">
        <ele>553</ele>
        <time>2019-06-15T09:11:16.028Z</time>
      </trkpt>
      <trkpt lat="45.04069" lon="5.38244">
        <ele>554</ele>
        <time>2019-06-15T09:11:17.028Z</time>
      </trkpt>
      <trkpt lat="45.0407" lon="5.38246">
        <ele>554</ele>
        <time>2019-06-15T09:11:18.028Z</time>
      </trkpt>
      <trkpt lat="45.04071" lon="5.38247">
        <ele>555</ele>
        <time>2019-06-15T09:11:19.028Z</time>
      </trkpt>
      <trkpt lat="45.04072" lon="5.38248">
        <ele>555</ele>
        <time>2019-06-15T09:11:20.028Z</time>
      </trkpt>
      <trkpt lat="45.04073" lon="5.38249">
        <ele>555</ele>
        <time>2019-06-15T09:11:21.028Z</time>
      </trkpt>
      <trkpt lat="45.04074" lon="5.3825">
        <ele>556</ele>
        <time>2019-06-15T09:11:22.028Z</time>
      </trkpt>
      <trkpt lat="45.04075" lon="5.38251">
        <ele>556</ele>
        <time>2019-06-15T09:11:23.028Z</time>
      </trkpt>
      <trkpt lat="45.04076" lon="5.38252">
        <ele>556</ele>
        <time>2019-06-15T09:11:24.028Z</time>
      </trkpt>
      <trkpt lat="45.04078" lon="5.38253">
        <ele>556</ele>
        <time>2019-06-15T09:11:25.028Z</time>
      </trkpt>
      <trkpt lat="45.04079" lon="5.38254">
        <ele>556</ele>
        <time>2019-06-15T09:11:26.028Z</time>
      </trkpt>
      <trkpt lat="45.0408" lon="5.38256">
        <ele>556</ele>
        <time>2019-06-15T09:11:27.028Z</time>
      </trkpt>
      <trkpt lat="45.04082" lon="5.38257">
        <ele>556</ele>
        <time>2019-06-15T09:11:28.028Z</time>
      </trkpt>
      <trkpt lat="45.04083" lon="5.38259">
        <ele>556</ele>
        <time>2019-06-15T09:11:29.028Z</time>
      </trkpt>
      <trkpt lat="45.04085" lon="5.3826">
        <ele>556</ele>
        <time>2019-06-15T09:11:30.028Z</time>
      </trkpt>
      <trkpt lat="45.04086" lon="5.38261">
        <ele>557</ele>
        <time>2019-06-15T09:11:31.028Z</time>
      </trkpt>
      <trkpt lat="45.04088" lon="5.38262">
        <ele>557</ele>
        <time>2019-06-15T09:11:32.028Z</time>
      </trkpt>
      <trkpt lat="45.04089" lon="5.38263">
        <ele>558</ele>
        <time>2019-06-15T09:11:33.028Z</time>
      </trkpt>
      <trkpt lat="45.04091" lon="5.38265">
        <ele>558</ele>
        <time>2019-06-15T09:11:34.028Z</time>
      </trkpt>
      <trkpt lat="45.04093" lon="5.38267">
        <ele>558</ele>
        <time>2019-06-15T09:11:35.028Z</time>
      </trkpt>
      <trkpt lat="45.04095" lon="5.38269">
        <ele>558</ele>
        <time>2019-06-15T09:11:36.028Z</time>
      </trkpt>
      <trkpt lat="45.04096" lon="5.38271">
        <ele>558</ele>
        <time>2019-06-15T09:11:37.028Z</time>
      </trkpt>
      <trkpt lat="45.04098" lon="5.38273">
        <ele>558</ele>
        <time>2019-06-15T09:11:38.028Z</time>
      </trkpt>
      <trkpt lat="45.04101" lon="5.38275">
        <ele>557</ele>
        <time>2019-06-15T09:11:39.028Z</time>
      </trkpt>
      <trkpt lat="45.04103" lon="5.38277">
        <ele>558</ele>
        <time>2019-06-15T09:11:40.028Z</time>
      </trkpt>
      <trkpt lat="45.04106" lon="5.38279">
        <ele>557</ele>
        <time>2019-06-15T09:11:41.028Z</time>
      </trkpt>
      <trkpt lat="45.04108" lon="5.3828">
        <ele>557</ele>
        <time>2019-06-15T09:11:42.028Z</time>
      </trkpt>
      <trkpt lat="45.04111" lon="5.38282">
        <ele>557</ele>
        <time>2019-06-15T09:11:43.028Z</time>
      </trkpt>
      <trkpt lat="45.04113" lon="5.38283">
        <ele>556</ele>
        <time>2019-06-15T09:11:44.028Z</time>
      </trkpt>
      <trkpt lat="45.04115" lon="5.38284">
        <ele>556</ele>
        <time>2019-06-15T09:11:45.028Z</time>
      </trkpt>
      <trkpt lat="45.04118" lon="5.38284">
        <ele>554</ele>
        <time>2019-06-15T09:11:46.028Z</time>
      </trkpt>
      <trkpt lat="45.04121" lon="5.38285">
        <ele>553</ele>
        <time>2019-06-15T09:11:47.028Z</time>
      </trkpt>
      <trkpt lat="45.04124" lon="5.38285">
        <ele>554</ele>
        <time>2019-06-15T09:11:48.028Z</time>
      </trkpt>
      <trkpt lat="45.04127" lon="5.38286">
        <ele>553</ele>
        <time>2019-06-15T09:11:49.028Z</time>
      </trkpt>
      <trkpt lat="45.0413" lon="5.38285">
        <ele>554</ele>
        <time>2019-06-15T09:11:50.028Z</time>
      </trkpt>
      <trkpt lat="45.04132" lon="5.38285">
        <ele>555</ele>
        <time>2019-06-15T09:11:51.028Z</time>
      </trkpt>
      <trkpt lat="45.04135" lon="5.38284">
        <ele>555</ele>
        <time>2019-06-15T09:11:52.028Z</time>
      </trkpt>
      <trkpt lat="45.04138" lon="5.38283">
        <ele>555</ele>
        <time>2019-06-15T09:11:53.028Z</time>
      </trkpt>
      <trkpt lat="45.0414" lon="5.38283">
        <ele>556</ele>
        <time>2019-06-15T09:11:54.028Z</time>
      </trkpt>
      <trkpt lat="45.04143" lon="5.38281">
        <ele>557</ele>
        <time>2019-06-15T09:11:55.028Z</time>
      </trkpt>
      <trkpt lat="45.04145" lon="5.3828">
        <ele>557</ele>
        <time>2019-06-15T09:11:56.028Z</time>
      </trkpt>
      <trkpt lat="45.04147" lon="5.38279">
        <ele>558</ele>
        <time>2019-06-15T09:11:57.028Z</time>
      </trkpt>
      <trkpt lat="45.04149" lon="5.38279">
        <ele>558</ele>
        <time>2019-06-15T09:11:58.028Z</time>
      </trkpt>
      <trkpt lat="45.04152" lon="5.38279">
        <ele>558</ele>
        <time>2019-06-15T09:11:59.028Z</time>
      </trkpt>
      <trkpt lat="45.04153" lon="5.38281">
        <ele>558</ele>
        <time>2019-06-15T09:12:00.028Z</time>
      </trkpt>
      <trkpt lat="45.04154" lon="5.38284">
        <ele>555</ele>
        <time>2019-06-15T09:12:01.028Z</time>
      </trkpt>
      <trkpt lat="45.04153" lon="5.38287">
        <ele>554</ele>
        <time>2019-06-15T09:12:02.028Z</time>
      </trkpt>
      <trkpt lat="45.04152" lon="5.38289">
        <ele>553</ele>
        <time>2019-06-15T09:12:03.028Z</time>
      </trkpt>
      <trkpt lat="45.04152" lon="5.38291">
        <ele>553</ele>
        <time>2019-06-15T09:12:04.028Z</time>
      </trkpt>
      <trkpt lat="45.04151" lon="5.38293">
        <ele>553</ele>
        <time>2019-06-15T09:12:05.028Z</time>
      </trkpt>
      <trkpt lat="45.0415" lon="5.38295">
        <ele>553</ele>
        <time>2019-06-15T09:12:06.028Z</time>
      </trkpt>
      <trkpt lat="45.04149" lon="5.38297">
        <ele>553</ele>
        <time>2019-06-15T09:12:07.028Z</time>
      </trkpt>
      <trkpt lat="45.04147" lon="5.38299">
        <ele>552</ele>
        <time>2019-06-15T09:12:08.028Z</time>
      </trkpt>
      <trkpt lat="45.04145" lon="5.383">
        <ele>552</ele>
        <time>2019-06-15T09:12:09.028Z</time>
      </trkpt>
      <trkpt lat="45.04143" lon="5.38302">
        <ele>551</ele>
        <time>2019-06-15T09:12:10.028Z</time>
      </trkpt>
      <trkpt lat="45.04141" lon="5.38303">
        <ele>551</ele>
        <time>2019-06-15T09:12:11.028Z</time>
      </trkpt>
      <trkpt lat="45.04139" lon="5.38304">
        <ele>551</ele>
        <time>2019-06-15T09:12:12.028Z</time>
      </trkpt>
      <trkpt lat="45.04137" lon="5.38305">
        <ele>551</ele>
        <time>2019-06-15T09:12:13.028Z</time>
      </trkpt>
      <trkpt lat="45.04135" lon="5.38306">
        <ele>553</ele>
        <time>2019-06-15T09:12:14.028Z</time>
      </trkpt>
      <trkpt lat="45.04133" lon="5.38307">
        <ele>553</ele>
        <time>2019-06-15T09:12:15.028Z</time>
      </trkpt>
      <trkpt lat="45.04131" lon="5.38308">
        <ele>553</ele>
        <time>2019-06-15T09:12:16.028Z</time>
      </trkpt>
      <trkpt lat="45.04129" lon="5.3831">
        <ele>553</ele>
        <time>2019-06-15T09:12:17.028Z</time>
      </trkpt>
      <trkpt lat="45.04127" lon="5.38311">
        <ele>553</ele>
        <time>2019-06-15T09:12:18.028Z</time>
      </trkpt>
      <trkpt lat="45.04125" lon="5.38312">
        <ele>553</ele>
        <time>2019-06-15T09:12:19.028Z</time>
      </trkpt>
      <trkpt lat="45.04123" lon="5.38312">
        <ele>553</ele>
        <time>2019-06-15T09:12:20.028Z</time>
      </trkpt>
      <trkpt lat="45.04122" lon="5.38312">
        <ele>553</ele>
        <time>2019-06-15T09:12:21.028Z</time>
      </trkpt>
      <trkpt lat="45.0412" lon="5.38312">
        <ele>554</ele>
        <time>2019-06-15T09:12:22.028Z</time>
      </trkpt>
      <trkpt lat="45.04119" lon="5.38312">
        <ele>554</ele>
        <time>2019-06-15T09:12:23.028Z</time>
      </trkpt>
      <trkpt lat="45.04117" lon="5.38312">
        <ele>555</ele>
        <time>2019-06-15T09:12:24.028Z</time>
      </trkpt>
      <trkpt lat="45.04116" lon="5.38313">
        <ele>555</ele>
        <time>2019-06-15T09:12:25.028Z</time>
      </trkpt>
      <trkpt lat="45.04115" lon="5.38313">
        <ele>555</ele>
        <time>2019-06-15T09:12:26.028Z</time>
      </trkpt>
      <trkpt lat="45.04114" lon="5.38313">
        <ele>556</ele>
        <time>2019-06-15T09:12:27.028Z</time>
      </trkpt>
      <trkpt lat="45.04113" lon="5.38313">
        <ele>556</ele>
        <time>2019-06-15T09:12:28.028Z</time>
      </trkpt>
      <trkpt lat="45.04111" lon="5.38314">
        <ele>557</ele>
        <time>2019-06-15T09:12:29.028Z</time>
      </trkpt>
      <trkpt lat="45.0411" lon="5.38314">
        <ele>557</ele>
        <time>2019-06-15T09:12:30.028Z</time>
      </trkpt>
      <trkpt lat="45.04109" lon="5.38315">
        <ele>557</ele>
        <time>2019-06-15T09:12:31.028Z</time>
      </trkpt>
      <trkpt lat="45.04108" lon="5.38315">
        <ele>557</ele>
        <time>2019-06-15T09:12:32.028Z</time>
      </trkpt>
      <trkpt lat="45.04107" lon="5.38317">
        <ele>559</ele>
        <time>2019-06-15T09:12:33.028Z</time>
      </trkpt>
      <trkpt lat="45.04106" lon="5.38318">
        <ele>559</ele>
        <time>2019-06-15T09:12:34.028Z</time>
      </trkpt>
      <trkpt lat="45.04104" lon="5.3832">
        <ele>559</ele>
        <time>2019-06-15T09:12:35.028Z</time>
      </trkpt>
      <trkpt lat="45.04104" lon="5.38322">
        <ele>560</ele>
        <time>2019-06-15T09:12:36.028Z</time>
      </trkpt>
      <trkpt lat="45.04103" lon="5.38323">
        <ele>561</ele>
        <time>2019-06-15T09:12:37.028Z</time>
      </trkpt>
      <trkpt lat="45.04102" lon="5.38325">
        <ele>562</ele>
        <time>2019-06-15T09:12:38.028Z</time>
      </trkpt>
      <trkpt lat="45.04102" lon="5.38327">
        <ele>562</ele>
        <time>2019-06-15T09:12:39.028Z</time>
      </trkpt>
      <trkpt lat="45.04102" lon="5.38329">
        <ele>563</ele>
        <time>2019-06-15T09:12:40.028Z</time>
      </trkpt>
      <trkpt lat="45.04102" lon="5.38331">
        <ele>563</ele>
        <time>2019-06-15T09:12:41.028Z</time>
      </trkpt>
      <trkpt lat="45.04102" lon="5.38332">
        <ele>563</ele>
        <time>2019-06-15T09:12:42.028Z</time>
      </trkpt>
      <trkpt lat="45.04102" lon="5.38334">
        <ele>564</ele>
        <time>2019-06-15T09:12:43.028Z</time>
      </trkpt>
      <trkpt lat="45.04102" lon="5.38335">
        <ele>564</ele>
        <time>2019-06-15T09:12:44.028Z</time>
      </trkpt>
      <trkpt lat="45.04102" lon="5.38336">
        <ele>564</ele>
        <time>2019-06-15T09:12:45.028Z</time>
      </trkpt>
      <trkpt lat="45.04103" lon="5.38337">
        <ele>565</ele>
        <time>2019-06-15T09:12:46.028Z</time>
      </trkpt>
      <trkpt lat="45.04104" lon="5.38338">
        <ele>565</ele>
        <time>2019-06-15T09:12:47.028Z</time>
      </trkpt>
      <trkpt lat="45.04104" lon="5.38339">
        <ele>565</ele>
        <time>2019-06-15T09:12:48.028Z</time>
      </trkpt>
      <trkpt lat="45.04105" lon="5.3834">
        <ele>565</ele>
        <time>2019-06-15T09:12:49.028Z</time>
      </trkpt>
      <trkpt lat="45.04105" lon="5.38341">
        <ele>566</ele>
        <time>2019-06-15T09:12:50.028Z</time>
      </trkpt>
      <trkpt lat="45.04105" lon="5.38342">
        <ele>566</ele>
        <time>2019-06-15T09:12:51.028Z</time>
      </trkpt>
      <trkpt lat="45.04106" lon="5.38343">
        <ele>567</ele>
        <time>2019-06-15T09:12:52.028Z</time>
      </trkpt>
      <trkpt lat="45.04107" lon="5.38344">
        <ele>567</ele>
        <time>2019-06-15T09:12:53.028Z</time>
      </trkpt>
      <trkpt lat="45.04107" lon="5.38345">
        <ele>568</ele>
        <time>2019-06-15T09:12:54.028Z</time>
      </trkpt>
      <trkpt lat="45.04108" lon="5.38346">
        <ele>568</ele>
        <time>2019-06-15T09:12:55.028Z</time>
      </trkpt>
      <trkpt lat="45.04109" lon="5.38347">
        <ele>569</ele>
        <time>2019-06-15T09:12:56.028Z</time>
      </trkpt>
      <trkpt lat="45.04109" lon="5.38348">
        <ele>569</ele>
        <time>2019-06-15T09:12:57.028Z</time>
      </trkpt>
      <trkpt lat="45.0411" lon="5.38349">
        <ele>569</ele>
        <time>2019-06-15T09:12:58.028Z</time>
      </trkpt>
      <trkpt lat="45.0411" lon="5.3835">
        <ele>570</ele>
        <time>2019-06-15T09:12:59.028Z</time>
      </trkpt>
      <trkpt lat="45.04111" lon="5.38351">
        <ele>570</ele>
        <time>2019-06-15T09:13:00.028Z</time>
      </trkpt>
      <trkpt lat="45.04111" lon="5.38352">
        <ele>570</ele>
        <time>2019-06-15T09:13:01.028Z</time>
      </trkpt>
      <trkpt lat="45.04112" lon="5.38353">
        <ele>570</ele>
        <time>2019-06-15T09:13:02.028Z</time>
      </trkpt>
      <trkpt lat="45.04112" lon="5.38354">
        <ele>571</ele>
        <time>2019-06-15T09:13:03.028Z</time>
      </trkpt>
      <trkpt lat="45.04113" lon="5.38356">
        <ele>571</ele>
        <time>2019-06-15T09:13:04.028Z</time>
      </trkpt>
      <trkpt lat="45.04113" lon="5.38357">
        <ele>571</ele>
        <time>2019-06-15T09:13:05.028Z</time>
      </trkpt>
      <trkpt lat="45.04114" lon="5.38358">
        <ele>571</ele>
        <time>2019-06-15T09:13:06.028Z</time>
      </trkpt>
      <trkpt lat="45.04114" lon="5.38359">
        <ele>572</ele>
        <time>2019-06-15T09:13:07.028Z</time>
      </trkpt>
      <trkpt lat="45.04115" lon="5.3836">
        <ele>572</ele>
        <time>2019-06-15T09:13:08.028Z</time>
      </trkpt>
      <trkpt lat="45.04115" lon="5.38361">
        <ele>572</ele>
        <time>2019-06-15T09:13:09.028Z</time>
      </trkpt>
      <trkpt lat="45.04116" lon="5.38362">
        <ele>573</ele>
        <time>2019-06-15T09:13:10.028Z</time>
      </trkpt>
      <trkpt lat="45.04116" lon="5.38364">
        <ele>574</ele>
        <time>2019-06-15T09:13:11.028Z</time>
      </trkpt>
      <trkpt lat="45.04116" lon="5.38365">
        <ele>574</ele>
        <time>2019-06-15T09:13:12.028Z</time>
      </trkpt>
      <trkpt lat="45.04117" lon="5.38366">
        <ele>574</ele>
        <time>2019-06-15T09:13:13.028Z</time>
      </trkpt>
      <trkpt lat="45.04117" lon="5.38367">
        <ele>574</ele>
        <time>2019-06-15T09:13:14.028Z</time>
      </trkpt>
      <trkpt lat="45.04117" lon="5.38368">
        <ele>575</ele>
        <time>2019-06-15T09:13:15.028Z</time>
      </trkpt>
      <trkpt lat="45.04118" lon="5.38369">
        <ele>575</ele>
        <time>2019-06-15T09:13:16.028Z</time>
      </trkpt>
      <trkpt lat="45.04118" lon="5.3837">
        <ele>575</ele>
        <time>2019-06-15T09:13:17.028Z</time>
      </trkpt>
      <trkpt lat="45.04119" lon="5.38372">
        <ele>576</ele>
        <time>2019-06-15T09:13:18.028Z</time>
      </trkpt>
      <trkpt lat="45.04119" lon="5.38373">
        <ele>576</ele>
        <time>2019-06-15T09:13:19.028Z</time>
      </trkpt>
      <trkpt lat="45.04119" lon="5.38374">
        <ele>577</ele>
        <time>2019-06-15T09:13:20.028Z</time>
      </trkpt>
      <trkpt lat="45.04119" lon="5.38375">
        <ele>577</ele>
        <time>2019-06-15T09:13:21.028Z</time>
      </trkpt>
      <trkpt lat="45.0412" lon="5.38376">
        <ele>577</ele>
        <time>2019-06-15T09:13:22.028Z</time>
      </trkpt>
      <trkpt lat="45.04121" lon="5.38377">
        <ele>577</ele>
        <time>2019-06-15T09:13:23.028Z</time>
      </trkpt>
      <trkpt lat="45.04121" lon="5.38378">
        <ele>578</ele>
        <time>2019-06-15T09:13:24.028Z</time>
      </trkpt>
      <trkpt lat="45.04122" lon="5.38379">
        <ele>578</ele>
        <time>2019-06-15T09:13:25.028Z</time>
      </trkpt>
      <trkpt lat="45.04122" lon="5.3838">
        <ele>578</ele>
        <time>2019-06-15T09:13:26.028Z</time>
      </trkpt>
      <trkpt lat="45.04123" lon="5.38381">
        <ele>578</ele>
        <time>2019-06-15T09:13:27.028Z</time>
      </trkpt>
      <trkpt lat="45.04123" lon="5.38382">
        <ele>578</ele>
        <time>2019-06-15T09:13:28.028Z</time>
      </trkpt>
      <trkpt lat="45.04124" lon="5.38383">
        <ele>579</ele>
        <time>2019-06-15T09:13:29.028Z</time>
      </trkpt>
      <trkpt lat="45.04125" lon="5.38384">
        <ele>579</ele>
        <time>2019-06-15T09:13:30.028Z</time>
      </trkpt>
      <trkpt lat="45.04125" lon="5.38385">
        <ele>579</ele>
        <time>2019-06-15T09:13:31.028Z</time>
      </trkpt>
      <trkpt lat="45.04126" lon="5.38386">
        <ele>580</ele>
        <time>2019-06-15T09:13:32.028Z</time>
      </trkpt>
      <trkpt lat="45.04127" lon="5.38387">
        <ele>580</ele>
        <time>2019-06-15T09:13:33.028Z</time>
      </trkpt>
      <trkpt lat="45.04127" lon="5.38387">
        <ele>581</ele>
        <time>2019-06-15T09:13:34.028Z</time>
      </trkpt>
      <trkpt lat="45.04128" lon="5.38388">
        <ele>581</ele>
        <time>2019-06-15T09:13:35.028Z</time>
      </trkpt>
      <trkpt lat="45.04128" lon="5.38389">
        <ele>581</ele>
        <time>2019-06-15T09:13:36.028Z</time>
      </trkpt>
      <trkpt lat="45.04129" lon="5.38389">
        <ele>582</ele>
        <time>2019-06-15T09:13:37.028Z</time>
      </trkpt>
      <trkpt lat="45.0413" lon="5.3839">
        <ele>583</ele>
        <time>2019-06-15T09:13:38.028Z</time>
      </trkpt>
      <trkpt lat="45.04131" lon="5.3839">
        <ele>583</ele>
        <time>2019-06-15T09:13:39.028Z</time>
      </trkpt>
      <trkpt lat="45.04131" lon="5.38391">
        <ele>584</ele>
        <time>2019-06-15T09:13:40.028Z</time>
      </trkpt>
      <trkpt lat="45.04132" lon="5.38391">
        <ele>584</ele>
        <time>2019-06-15T09:13:41.028Z</time>
      </trkpt>
      <trkpt lat="45.04133" lon="5.38391">
        <ele>585</ele>
        <time>2019-06-15T09:13:42.028Z</time>
      </trkpt>
      <trkpt lat="45.04134" lon="5.38391">
        <ele>585</ele>
        <time>2019-06-15T09:13:43.028Z</time>
      </trkpt>
      <trkpt lat="45.04134" lon="5.38392">
        <ele>585</ele>
        <time>2019-06-15T09:13:44.028Z</time>
      </trkpt>
      <trkpt lat="45.04135" lon="5.38392">
        <ele>584</ele>
        <time>2019-06-15T09:13:45.028Z</time>
      </trkpt>
      <trkpt lat="45.04136" lon="5.38393">
        <ele>584</ele>
        <time>2019-06-15T09:13:46.028Z</time>
      </trkpt>
      <trkpt lat="45.04137" lon="5.38394">
        <ele>585</ele>
        <time>2019-06-15T09:13:47.028Z</time>
      </trkpt>
      <trkpt lat="45.04137" lon="5.38395">
        <ele>585</ele>
        <time>2019-06-15T09:13:48.028Z</time>
      </trkpt>
      <trkpt lat="45.04138" lon="5.38395">
        <ele>585</ele>
        <time>2019-06-15T09:13:49.028Z</time>
      </trkpt>
      <trkpt lat="45.04139" lon="5.38396">
        <ele>586</ele>
        <time>2019-06-15T09:13:50.028Z</time>
      </trkpt>
      <trkpt lat="45.0414" lon="5.38397">
        <ele>586</ele>
        <time>2019-06-15T09:13:51.028Z</time>
      </trkpt>
      <trkpt lat="45.04141" lon="5.38397">
        <ele>586</ele>
        <time>2019-06-15T09:13:52.028Z</time>
      </trkpt>
      <trkpt lat="45.04141" lon="5.38398">
        <ele>586</ele>
        <time>2019-06-15T09:13:53.028Z</time>
      </trkpt>
      <trkpt lat="45.04142" lon="5.38399">
        <ele>587</ele>
        <time>2019-06-15T09:13:54.028Z</time>
      </trkpt>
      <trkpt lat="45.04142" lon="5.38399">
        <ele>586</ele>
        <time>2019-06-15T09:13:55.028Z</time>
      </trkpt>
      <trkpt lat="45.04143" lon="5.384">
        <ele>587</ele>
        <time>2019-06-15T09:13:56.028Z</time>
      </trkpt>
      <trkpt lat="45.04144" lon="5.384">
        <ele>586</ele>
        <time>2019-06-15T09:13:57.028Z</time>
      </trkpt>
      <trkpt lat="45.04144" lon="5.38401">
        <ele>587</ele>
        <time>2019-06-15T09:13:58.028Z</time>
      </trkpt>
      <trkpt lat="45.04145" lon="5.38401">
        <ele>589</ele>
        <time>2019-06-15T09:13:59.028Z</time>
      </trkpt>
      <trkpt lat="45.04146" lon="5.38401">
        <ele>589</ele>
        <time>2019-06-15T09:14:00.028Z</time>
      </trkpt>
      <trkpt lat="45.04147" lon="5.38402">
        <ele>589</ele>
        <time>2019-06-15T09:14:01.028Z</time>
      </trkpt>
      <trkpt lat="45.04147" lon="5.38402">
        <ele>589</ele>
        <time>2019-06-15T09:14:02.028Z</time>
      </trkpt>
      <trkpt lat="45.04148" lon="5.38403">
        <ele>589</ele>
        <time>2019-06-15T09:14:03.028Z</time>
      </trkpt>
      <trkpt lat="45.04148" lon="5.38404">
        <ele>589</ele>
        <time>2019-06-15T09:14:04.028Z</time>
      </trkpt>
      <trkpt lat="45.04149" lon="5.38404">
        <ele>589</ele>
        <time>2019-06-15T09:14:05.028Z</time>
      </trkpt>
      <trkpt lat="45.0415" lon="5.38405">
        <ele>589</ele>
        <time>2019-06-15T09:14:06.028Z</time>
      </trkpt>
      <trkpt lat="45.04151" lon="5.38406">
        <ele>589</ele>
        <time>2019-06-15T09:14:07.028Z</time>
      </trkpt>
      <trkpt lat="45.04151" lon="5.38406">
        <ele>589</ele>
        <time>2019-06-15T09:14:08.028Z</time>
      </trkpt>
      <trkpt lat="45.04152" lon="5.38407">
        <ele>590</ele>
        <time>2019-06-15T09:14:09.028Z</time>
      </trkpt>
      <trkpt lat="45.04153" lon="5.38407">
        <ele>590</ele>
        <time>2019-06-15T09:14:10.028Z</time>
      </trkpt>
      <trkpt lat="45.04154" lon="5.38407">
        <ele>591</ele>
        <time>2019-06-15T09:14:11.028Z</time>
      </trkpt>
      <trkpt lat="45.04154" lon="5.38408">
        <ele>591</ele>
        <time>2019-06-15T09:14:12.028Z</time>
      </trkpt>
      <trkpt lat="45.04155" lon="5.38408">
        <ele>592</ele>
        <time>2019-06-15T09:14:13.028Z</time>
      </trkpt>
      <trkpt lat="45.04156" lon="5.38409">
        <ele>591</ele>
        <time>2019-06-15T09:14:14.028Z</time>
      </trkpt>
      <trkpt lat="45.04157" lon="5.38409">
        <ele>592</ele>
        <time>2019-06-15T09:14:15.028Z</time>
      </trkpt>
      <trkpt lat="45.04158" lon="5.3841">
        <ele>592</ele>
        <time>2019-06-15T09:14:16.028Z</time>
      </trkpt>
      <trkpt lat="45.04159" lon="5.3841">
        <ele>593</ele>
        <time>2019-06-15T09:14:17.028Z</time>
      </trkpt>
      <trkpt lat="45.04159" lon="5.3841">
        <ele>593</ele>
        <time>2019-06-15T09:14:18.028Z</time>
      </trkpt>
      <trkpt lat="45.0416" lon="5.38411">
        <ele>594</ele>
        <time>2019-06-15T09:14:19.028Z</time>
      </trkpt>
      <trkpt lat="45.04161" lon="5.38411">
        <ele>594</ele>
        <time>2019-06-15T09:14:20.028Z</time>
      </trkpt>
      <trkpt lat="45.04162" lon="5.38412">
        <ele>595</ele>
        <time>2019-06-15T09:14:21.028Z</time>
      </trkpt>
      <trkpt lat="45.04163" lon="5.38412">
        <ele>595</ele>
        <time>2019-06-15T09:14:22.028Z</time>
      </trkpt>
      <trkpt lat="45.04164" lon="5.38413">
        <ele>595</ele>
        <time>2019-06-15T09:14:23.028Z</time>
      </trkpt>
      <trkpt lat="45.04164" lon="5.38414">
        <ele>596</ele>
        <time>2019-06-15T09:14:24.028Z</time>
      </trkpt>
      <trkpt lat="45.04165" lon="5.38414">
        <ele>596</ele>
        <time>2019-06-15T09:14:25.028Z</time>
      </trkpt>
      <trkpt lat="45.04166" lon="5.38414">
        <ele>596</ele>
        <time>2019-06-15T09:14:26.028Z</time>
      </trkpt>
      <trkpt lat="45.04166" lon="5.38415">
        <ele>597</ele>
        <time>2019-06-15T09:14:27.028Z</time>
      </trkpt>
      <trkpt lat="45.04167" lon="5.38415">
        <ele>597</ele>
        <time>2019-06-15T09:14:28.028Z</time>
      </trkpt>
      <trkpt lat="45.04168" lon="5.38415">
        <ele>597</ele>
        <time>2019-06-15T09:14:29.028Z</time>
      </trkpt>
      <trkpt lat="45.04169" lon="5.38415">
        <ele>598</ele>
        <time>2019-06-15T09:14:30.028Z</time>
      </trkpt>
      <trkpt lat="45.0417" lon="5.38416">
        <ele>598</ele>
        <time>2019-06-15T09:14:31.028Z</time>
      </trkpt>
      <trkpt lat="45.0417" lon="5.38416">
        <ele>598</ele>
        <time>2019-06-15T09:14:32.028Z</time>
      </trkpt>
      <trkpt lat="45.04171" lon="5.38417">
        <ele>597</ele>
        <time>2019-06-15T09:14:33.028Z</time>
      </trkpt>
      <trkpt lat="45.04172" lon="5.38417">
        <ele>597</ele>
        <time>2019-06-15T09:14:34.028Z</time>
      </trkpt>
      <trkpt lat="45.04173" lon="5.38417">
        <ele>598</ele>
        <time>2019-06-15T09:14:35.028Z</time>
      </trkpt>
      <trkpt lat="45.04174" lon="5.38418">
        <ele>597</ele>
        <time>2019-06-15T09:14:36.028Z</time>
      </trkpt>
      <trkpt lat="45.04175" lon="5.38418">
        <ele>598</ele>
        <time>2019-06-15T09:14:37.028Z</time>
      </trkpt>
      <trkpt lat="45.04175" lon="5.38418">
        <ele>598</ele>
        <time>2019-06-15T09:14:38.028Z</time>
      </trkpt>
      <trkpt lat="45.04176" lon="5.38419">
        <ele>598</ele>
        <time>2019-06-15T09:14:39.028Z</time>
      </trkpt>
      <trkpt lat="45.04177" lon="5.38419">
        <ele>598</ele>
        <time>2019-06-15T09:14:40.028Z</time>
      </trkpt>
      <trkpt lat="45.04178" lon="5.38419">
        <ele>598</ele>
        <time>2019-06-15T09:14:41.028Z</time>
      </trkpt>
      <trkpt lat="45.04179" lon="5.38419">
        <ele>598</ele>
        <time>2019-06-15T09:14:42.028Z</time>
      </trkpt>
      <trkpt lat="45.0418" lon="5.3842">
        <ele>597</ele>
        <time>2019-06-15T09:14:43.028Z</time>
      </trkpt>
      <trkpt lat="45.04181" lon="5.3842">
        <ele>597</ele>
        <time>2019-06-15T09:14:44.028Z</time>
      </trkpt>
      <trkpt lat="45.04182" lon="5.3842">
        <ele>597</ele>
        <time>2019-06-15T09:14:45.028Z</time>
      </trkpt>
      <trkpt lat="45.04183" lon="5.38421">
        <ele>596</ele>
        <time>2019-06-15T09:14:46.028Z</time>
      </trkpt>
      <trkpt lat="45.04183" lon="5.38421">
        <ele>596</ele>
        <time>2019-06-15T09:14:47.028Z</time>
      </trkpt>
      <trkpt lat="45.04184" lon="5.38421">
        <ele>596</ele>
        <time>2019-06-15T09:14:48.028Z</time>
      </trkpt>
      <trkpt lat="45.04185" lon="5.38421">
        <ele>596</ele>
        <time>2019-06-15T09:14:49.028Z</time>
      </trkpt>
      <trkpt lat="45.04186" lon="5.38422">
        <ele>597</ele>
        <time>2019-06-15T09:14:50.028Z</time>
      </trkpt>
      <trkpt lat="45.04187" lon="5.38422">
        <ele>598</ele>
        <time>2019-06-15T09:14:51.028Z</time>
      </trkpt>
      <trkpt lat="45.04188" lon="5.38421">
        <ele>600</ele>
        <time>2019-06-15T09:14:52.028Z</time>
      </trkpt>
      <trkpt lat="45.04188" lon="5.38421">
        <ele>599</ele>
        <time>2019-06-15T09:14:53.028Z</time>
      </trkpt>
      <trkpt lat="45.04189" lon="5.38421">
        <ele>600</ele>
        <time>2019-06-15T09:14:54.028Z</time>
      </trkpt>
      <trkpt lat="45.04189" lon="5.38421">
        <ele>601</ele>
        <time>2019-06-15T09:14:55.028Z</time>
      </trkpt>
      <trkpt lat="45.0419" lon="5.3842">
        <ele>601</ele>
        <time>2019-06-15T09:14:56.028Z</time>
      </trkpt>
      <trkpt lat="45.04191" lon="5.3842">
        <ele>602</ele>
        <time>2019-06-15T09:14:57.028Z</time>
      </trkpt>
      <trkpt lat="45.04191" lon="5.3842">
        <ele>603</ele>
        <time>2019-06-15T09:14:58.028Z</time>
      </trkpt>
      <trkpt lat="45.04192" lon="5.38419">
        <ele>603</ele>
        <time>2019-06-15T09:14:59.028Z</time>
      </trkpt>
      <trkpt lat="45.04193" lon="5.38419">
        <ele>603</ele>
        <time>2019-06-15T09:15:00.028Z</time>
      </trkpt>
      <trkpt lat="45.04194" lon="5.38419">
        <ele>603</ele>
        <time>2019-06-15T09:15:01.028Z</time>
      </trkpt>
      <trkpt lat="45.04195" lon="5.38419">
        <ele>605</ele>
        <time>2019-06-15T09:15:02.028Z</time>
      </trkpt>
      <trkpt lat="45.04195" lon="5.38418">
        <ele>606</ele>
        <time>2019-06-15T09:15:03.028Z</time>
      </trkpt>
      <trkpt lat="45.04196" lon="5.38418">
        <ele>606</ele>
        <time>2019-06-15T09:15:04.028Z</time>
      </trkpt>
      <trkpt lat="45.04197" lon="5.38418">
        <ele>607</ele>
        <time>2019-06-15T09:15:05.028Z</time>
      </trkpt>
      <trkpt lat="45.04198" lon="5.38417">
        <ele>607</ele>
        <time>2019-06-15T09:15:06.028Z</time>
      </trkpt>
      <trkpt lat="45.04198" lon="5.38417">
        <ele>607</ele>
        <time>2019-06-15T09:15:07.028Z</time>
      </trkpt>
      <trkpt lat="45.04199" lon="5.38417">
        <ele>608</ele>
        <time>2019-06-15T09:15:08.028Z</time>
      </trkpt>
      <trkpt lat="45.042" lon="5.38417">
        <ele>609</ele>
        <time>2019-06-15T09:15:09.028Z</time>
      </trkpt>
      <trkpt lat="45.04201" lon="5.38416">
        <ele>609</ele>
        <time>2019-06-15T09:15:10.028Z</time>
      </trkpt>
      <trkpt lat="45.04202" lon="5.38416">
        <ele>610</ele>
        <time>2019-06-15T09:15:11.028Z</time>
      </trkpt>
      <trkpt lat="45.04202" lon="5.38416">
        <ele>611</ele>
        <time>2019-06-15T09:15:12.028Z</time>
      </trkpt>
      <trkpt lat="45.04203" lon="5.38415">
        <ele>611</ele>
        <time>2019-06-15T09:15:13.028Z</time>
      </trkpt>
      <trkpt lat="45.04204" lon="5.38415">
        <ele>612</ele>
        <time>2019-06-15T09:15:14.028Z</time>
      </trkpt>
      <trkpt lat="45.04205" lon="5.38414">
        <ele>612</ele>
        <time>2019-06-15T09:15:15.028Z</time>
      </trkpt>
      <trkpt lat="45.04206" lon="5.38414">
        <ele>612</ele>
        <time>2019-06-15T09:15:16.028Z</time>
      </trkpt>
      <trkpt lat="45.04207" lon="5.38414">
        <ele>613</ele>
        <time>2019-06-15T09:15:17.028Z</time>
      </trkpt>
      <trkpt lat="45.04208" lon="5.38414">
        <ele>613</ele>
        <time>2019-06-15T09:15:18.028Z</time>
      </trkpt>
      <trkpt lat="45.04208" lon="5.38413">
        <ele>613</ele>
        <time>2019-06-15T09:15:19.028Z</time>
      </trkpt>
      <trkpt lat="45.04209" lon="5.38413">
        <ele>614</ele>
        <time>2019-06-15T09:15:20.028Z</time>
      </trkpt>
      <trkpt lat="45.0421" lon="5.38413">
        <ele>613</ele>
        <time>2019-06-15T09:15:21.028Z</time>
      </trkpt>
      <trkpt lat="45.04211" lon="5.38413">
        <ele>613</ele>
        <time>2019-06-15T09:15:22.028Z</time>
      </trkpt>
      <trkpt lat="45.04212" lon="5.38412">
        <ele>614</ele>
        <time>2019-06-15T09:15:23.028Z</time>
      </trkpt>
      <trkpt lat="45.04213" lon="5.38412">
        <ele>614</ele>
        <time>2019-06-15T09:15:24.028Z</time>
      </trkpt>
      <trkpt lat="45.04213" lon="5.38412">
        <ele>614</ele>
        <time>2019-06-15T09:15:25.028Z</time>
      </trkpt>
      <trkpt lat="45.04214" lon="5.38411">
        <ele>614</ele>
        <time>2019-06-15T09:15:26.028Z</time>
      </trkpt>
      <trkpt lat="45.04215" lon="5.38411">
        <ele>614</ele>
        <time>2019-06-15T09:15:27.028Z</time>
      </trkpt>
      <trkpt lat="45.04216" lon="5.38411">
        <ele>614</ele>
        <time>2019-06-15T09:15:28.028Z</time>
      </trkpt>
      <trkpt lat="45.04217" lon="5.38411">
        <ele>614</ele>
        <time>2019-06-15T09:15:29.028Z</time>
      </trkpt>
      <trkpt lat="45.04218" lon="5.38411">
        <ele>614</ele>
        <time>2019-06-15T09:15:30.028Z</time>
      </trkpt>
      <trkpt lat="45.04219" lon="5.38411">
        <ele>614</ele>
        <time>2019-06-15T09:15:31.028Z</time>
      </trkpt>
      <trkpt lat="45.04221" lon="5.38411">
        <ele>614</ele>
        <time>2019-06-15T09:15:32.028Z</time>
      </trkpt>
      <trkpt lat="45.04222" lon="5.38411">
        <ele>614</ele>
        <time>2019-06-15T09:15:33.028Z</time>
      </trkpt>
      <trkpt lat="45.04223" lon="5.38411">
        <ele>614</ele>
        <time>2019-06-15T09:15:34.028Z</time>
      </trkpt>
      <trkpt lat="45.04223" lon="5.38411">
        <ele>615</ele>
        <time>2019-06-15T09:15:35.028Z</time>
      </trkpt>
      <trkpt lat="45.04224" lon="5.38411">
        <ele>615</ele>
        <time>2019-06-15T09:15:36.028Z</time>
      </trkpt>
      <trkpt lat="45.04225" lon="5.38411">
        <ele>615</ele>
        <time>2019-06-15T09:15:37.028Z</time>
      </trkpt>
      <trkpt lat="45.04226" lon="5.3841">
        <ele>615</ele>
        <time>2019-06-15T09:15:38.028Z</time>
      </trkpt>
      <trkpt lat="45.04227" lon="5.3841">
        <ele>615</ele>
        <time>2019-06-15T09:15:39.028Z</time>
      </trkpt>
      <trkpt lat="45.04228" lon="5.3841">
        <ele>615</ele>
        <time>2019-06-15T09:15:40.028Z</time>
      </trkpt>
      <trkpt lat="45.04228" lon="5.3841">
        <ele>615</ele>
        <time>2019-06-15T09:15:41.028Z</time>
      </trkpt>
      <trkpt lat="45.04229" lon="5.3841">
        <ele>615</ele>
        <time>2019-06-15T09:15:42.028Z</time>
      </trkpt>
      <trkpt lat="45.0423" lon="5.38409">
        <ele>615</ele>
        <time>2019-06-15T09:15:43.028Z</time>
      </trkpt>
      <trkpt lat="45.04231" lon="5.38409">
        <ele>615</ele>
        <time>2019-06-15T09:15:44.028Z</time>
      </trkpt>
      <trkpt lat="45.04231" lon="5.38409">
        <ele>615</ele>
        <time>2019-06-15T09:15:45.028Z</time>
      </trkpt>
      <trkpt lat="45.04232" lon="5.38409">
        <ele>615</ele>
        <time>2019-06-15T09:15:46.028Z</time>
      </trkpt>
      <trkpt lat="45.04233" lon="5.38409">
        <ele>615</ele>
        <time>2019-06-15T09:15:47.028Z</time>
      </trkpt>
      <trkpt lat="45.04234" lon="5.38409">
        <ele>615</ele>
        <time>2019-06-15T09:15:48.028Z</time>
      </trkpt>
      <trkpt lat="45.04235" lon="5.38409">
        <ele>615</ele>
        <time>2019-06-15T09:15:49.028Z</time>
      </trkpt>
      <trkpt lat="45.04236" lon="5.38409">
        <ele>615</ele>
        <time>2019-06-15T09:15:50.028Z</time>
      </trkpt>
      <trkpt lat="45.04237" lon="5.38409">
        <ele>615</ele>
        <time>2019-06-15T09:15:51.028Z</time>
      </trkpt>
      <trkpt lat="45.04238" lon="5.38409">
        <ele>616</ele>
        <time>2019-06-15T09:15:52.028Z</time>
      </trkpt>
      <trkpt lat="45.04239" lon="5.38408">
        <ele>616</ele>
        <time>2019-06-15T09:15:53.028Z</time>
      </trkpt>
      <trkpt lat="45.04239" lon="5.38409">
        <ele>616</ele>
        <time>2019-06-15T09:15:54.028Z</time>
      </trkpt>
      <trkpt lat="45.0424" lon="5.38409">
        <ele>616</ele>
        <time>2019-06-15T09:15:55.028Z</time>
      </trkpt>
      <trkpt lat="45.04241" lon="5.38409">
        <ele>617</ele>
        <time>2019-06-15T09:15:56.028Z</time>
      </trkpt>
      <trkpt lat="45.04241" lon="5.38409">
        <ele>617</ele>
        <time>2019-06-15T09:15:57.028Z</time>
      </trkpt>
      <trkpt lat="45.04242" lon="5.38408">
        <ele>617</ele>
        <time>2019-06-15T09:15:58.028Z</time>
      </trkpt>
      <trkpt lat="45.04243" lon="5.38408">
        <ele>618</ele>
        <time>2019-06-15T09:15:59.028Z</time>
      </trkpt>
      <trkpt lat="45.04245" lon="5.38409">
        <ele>618</ele>
        <time>2019-06-15T09:16:00.028Z</time>
      </trkpt>
      <trkpt lat="45.04246" lon="5.38409">
        <ele>618</ele>
        <time>2019-06-15T09:16:01.028Z</time>
      </trkpt>
      <trkpt lat="45.04247" lon="5.3841">
        <ele>617</ele>
        <time>2019-06-15T09:16:02.028Z</time>
      </trkpt>
      <trkpt lat="45.04249" lon="5.3841">
        <ele>617</ele>
        <time>2019-06-15T09:16:03.028Z</time>
      </trkpt>
      <trkpt lat="45.0425" lon="5.3841">
        <ele>618</ele>
        <time>2019-06-15T09:16:04.028Z</time>
      </trkpt>
      <trkpt lat="45.04251" lon="5.3841">
        <ele>618</ele>
        <time>2019-06-15T09:16:05.028Z</time>
      </trkpt>
      <trkpt lat="45.04251" lon="5.3841">
        <ele>618</ele>
        <time>2019-06-15T09:16:06.028Z</time>
      </trkpt>
      <trkpt lat="45.04252" lon="5.38411">
        <ele>618</ele>
        <time>2019-06-15T09:16:07.028Z</time>
      </trkpt>
      <trkpt lat="45.04253" lon="5.38411">
        <ele>618</ele>
        <time>2019-06-15T09:16:08.028Z</time>
      </trkpt>
      <trkpt lat="45.04254" lon="5.38411">
        <ele>618</ele>
        <time>2019-06-15T09:16:09.028Z</time>
      </trkpt>
      <trkpt lat="45.04255" lon="5.38411">
        <ele>618</ele>
        <time>2019-06-15T09:16:10.028Z</time>
      </trkpt>
      <trkpt lat="45.04256" lon="5.38412">
        <ele>617</ele>
        <time>2019-06-15T09:16:11.028Z</time>
      </trkpt>
      <trkpt lat="45.04257" lon="5.38412">
        <ele>617</ele>
        <time>2019-06-15T09:16:12.028Z</time>
      </trkpt>
      <trkpt lat="45.04258" lon="5.38413">
        <ele>617</ele>
        <time>2019-06-15T09:16:13.028Z</time>
      </trkpt>
      <trkpt lat="45.04259" lon="5.38413">
        <ele>617</ele>
        <time>2019-06-15T09:16:14.028Z</time>
      </trkpt>
      <trkpt lat="45.0426" lon="5.38414">
        <ele>618</ele>
        <time>2019-06-15T09:16:15.028Z</time>
      </trkpt>
      <trkpt lat="45.04261" lon="5.38414">
        <ele>618</ele>
        <time>2019-06-15T09:16:16.028Z</time>
      </trkpt>
      <trkpt lat="45.04262" lon="5.38414">
        <ele>618</ele>
        <time>2019-06-15T09:16:17.028Z</time>
      </trkpt>
      <trkpt lat="45.04263" lon="5.38415">
        <ele>619</ele>
        <time>2019-06-15T09:16:18.028Z</time>
      </trkpt>
      <trkpt lat="45.04264" lon="5.38415">
        <ele>618</ele>
        <time>2019-06-15T09:16:19.028Z</time>
      </trkpt>
      <trkpt lat="45.04265" lon="5.38415">
        <ele>619</ele>
        <time>2019-06-15T09:16:20.028Z</time>
      </trkpt>
      <trkpt lat="45.04266" lon="5.38415">
        <ele>620</ele>
        <time>2019-06-15T09:16:21.028Z</time>
      </trkpt>
      <trkpt lat="45.04267" lon="5.38415">
        <ele>620</ele>
        <time>2019-06-15T09:16:22.028Z</time>
      </trkpt>
      <trkpt lat="45.04268" lon="5.38414">
        <ele>621</ele>
        <time>2019-06-15T09:16:23.028Z</time>
      </trkpt>
      <trkpt lat="45.04269" lon="5.38414">
        <ele>620</ele>
        <time>2019-06-15T09:16:24.028Z</time>
      </trkpt>
      <trkpt lat="45.0427" lon="5.38414">
        <ele>620</ele>
        <time>2019-06-15T09:16:25.028Z</time>
      </trkpt>
      <trkpt lat="45.04271" lon="5.38414">
        <ele>621</ele>
        <time>2019-06-15T09:16:26.028Z</time>
      </trkpt>
      <trkpt lat="45.04272" lon="5.38414">
        <ele>621</ele>
        <time>2019-06-15T09:16:27.028Z</time>
      </trkpt>
      <trkpt lat="45.04273" lon="5.38414">
        <ele>620</ele>
        <time>2019-06-15T09:16:28.028Z</time>
      </trkpt>
      <trkpt lat="45.04274" lon="5.38413">
        <ele>621</ele>
        <time>2019-06-15T09:16:29.028Z</time>
      </trkpt>
      <trkpt lat="45.04275" lon="5.38413">
        <ele>621</ele>
        <time>2019-06-15T09:16:30.028Z</time>
      </trkpt>
      <trkpt lat="45.04275" lon="5.38412">
        <ele>622</ele>
        <time>2019-06-15T09:16:31.028Z</time>
      </trkpt>
      <trkpt lat="45.04276" lon="5.38411">
        <ele>623</ele>
        <time>2019-06-15T09:16:32.028Z</time>
      </trkpt>
      <trkpt lat="45.04277" lon="5.38409">
        <ele>625</ele>
        <time>2019-06-15T09:16:33.028Z</time>
      </trkpt>
      <trkpt lat="45.04278" lon="5.38408">
        <ele>625</ele>
        <time>2019-06-15T09:16:34.028Z</time>
      </trkpt>
      <trkpt lat="45.04278" lon="5.38406">
        <ele>626</ele>
        <time>2019-06-15T09:16:35.028Z</time>
      </trkpt>
      <trkpt lat="45.04279" lon="5.38404">
        <ele>629</ele>
        <time>2019-06-15T09:16:36.028Z</time>
      </trkpt>
      <trkpt lat="45.0428" lon="5.38402">
        <ele>630</ele>
        <time>2019-06-15T09:16:37.028Z</time>
      </trkpt>
      <trkpt lat="45.04281" lon="5.384">
        <ele>630</ele>
        <time>2019-06-15T09:16:38.028Z</time>
      </trkpt>
      <trkpt lat="45.04281" lon="5.38398">
        <ele>630</ele>
        <time>2019-06-15T09:16:39.028Z</time>
      </trkpt>
      <trkpt lat="45.04282" lon="5.38397">
        <ele>630</ele>
        <time>2019-06-15T09:16:40.028Z</time>
      </trkpt>
      <trkpt lat="45.04282" lon="5.38396">
        <ele>630</ele>
        <time>2019-06-15T09:16:41.028Z</time>
      </trkpt>
      <trkpt lat="45.04283" lon="5.38394">
        <ele>630</ele>
        <time>2019-06-15T09:16:42.028Z</time>
      </trkpt>
      <trkpt lat="45.04283" lon="5.38393">
        <ele>631</ele>
        <time>2019-06-15T09:16:43.028Z</time>
      </trkpt>
      <trkpt lat="45.04284" lon="5.38392">
        <ele>631</ele>
        <time>2019-06-15T09:16:44.028Z</time>
      </trkpt>
      <trkpt lat="45.04284" lon="5.38391">
        <ele>631</ele>
        <time>2019-06-15T09:16:45.028Z</time>
      </trkpt>
      <trkpt lat="45.04285" lon="5.38389">
        <ele>632</ele>
        <time>2019-06-15T09:16:46.028Z</time>
      </trkpt>
      <trkpt lat="45.04286" lon="5.38388">
        <ele>633</ele>
        <time>2019-06-15T09:16:47.028Z</time>
      </trkpt>
      <trkpt lat="45.04287" lon="5.38386">
        <ele>634</ele>
        <time>2019-06-15T09:16:48.028Z</time>
      </trkpt>
      <trkpt lat="45.04288" lon="5.38384">
        <ele>634</ele>
        <time>2019-06-15T09:16:49.028Z</time>
      </trkpt>
      <trkpt lat="45.04288" lon="5.38383">
        <ele>634</ele>
        <time>2019-06-15T09:16:50.028Z</time>
      </trkpt>
      <trkpt lat="45.04289" lon="5.38381">
        <ele>635</ele>
        <time>2019-06-15T09:16:51.028Z</time>
      </trkpt>
      <trkpt lat="45.04289" lon="5.38379">
        <ele>635</ele>
        <time>2019-06-15T09:16:52.028Z</time>
      </trkpt>
      <trkpt lat="45.0429" lon="5.38378">
        <ele>635</ele>
        <time>2019-06-15T09:16:53.028Z</time>
      </trkpt>
      <trkpt lat="45.04291" lon="5.38377">
        <ele>635</ele>
        <time>2019-06-15T09:16:54.028Z</time>
      </trkpt>
      <trkpt lat="45.04292" lon="5.38376">
        <ele>635</ele>
        <time>2019-06-15T09:16:55.028Z</time>
      </trkpt>
      <trkpt lat="45.04293" lon="5.38375">
        <ele>636</ele>
        <time>2019-06-15T09:16:56.028Z</time>
      </trkpt>
      <trkpt lat="45.04293" lon="5.38373">
        <ele>636</ele>
        <time>2019-06-15T09:16:57.028Z</time>
      </trkpt>
      <trkpt lat="45.04294" lon="5.38372">
        <ele>636</ele>
        <time>2019-06-15T09:16:58.028Z</time>
      </trkpt>
      <trkpt lat="45.04295" lon="5.38371">
        <ele>636</ele>
        <time>2019-06-15T09:16:59.028Z</time>
      </trkpt>
      <trkpt lat="45.04295" lon="5.3837">
        <ele>636</ele>
        <time>2019-06-15T09:17:00.028Z</time>
      </trkpt>
      <trkpt lat="45.04296" lon="5.38368">
        <ele>637</ele>
        <time>2019-06-15T09:17:01.028Z</time>
      </trkpt>
      <trkpt lat="45.04297" lon="5.38367">
        <ele>636</ele>
        <time>2019-06-15T09:17:02.028Z</time>
      </trkpt>
      <trkpt lat="45.04298" lon="5.38365">
        <ele>637</ele>
        <time>2019-06-15T09:17:03.028Z</time>
      </trkpt>
      <trkpt lat="45.04299" lon="5.38364">
        <ele>638</ele>
        <time>2019-06-15T09:17:04.028Z</time>
      </trkpt>
      <trkpt lat="45.043" lon="5.38362">
        <ele>637</ele>
        <time>2019-06-15T09:17:05.028Z</time>
      </trkpt>
      <trkpt lat="45.04301" lon="5.38361">
        <ele>637</ele>
        <time>2019-06-15T09:17:06.028Z</time>
      </trkpt>
      <trkpt lat="45.04302" lon="5.3836">
        <ele>638</ele>
        <time>2019-06-15T09:17:07.028Z</time>
      </trkpt>
      <trkpt lat="45.04304" lon="5.38358">
        <ele>637</ele>
        <time>2019-06-15T09:17:08.028Z</time>
      </trkpt>
      <trkpt lat="45.04305" lon="5.38357">
        <ele>637</ele>
        <time>2019-06-15T09:17:09.028Z</time>
      </trkpt>
      <trkpt lat="45.04306" lon="5.38357">
        <ele>638</ele>
        <time>2019-06-15T09:17:10.028Z</time>
      </trkpt>
      <trkpt lat="45.04307" lon="5.38356">
        <ele>638</ele>
        <time>2019-06-15T09:17:11.028Z</time>
      </trkpt>
      <trkpt lat="45.04308" lon="5.38355">
        <ele>639</ele>
        <time>2019-06-15T09:17:12.028Z</time>
      </trkpt>
      <trkpt lat="45.0431" lon="5.38355">
        <ele>639</ele>
        <time>2019-06-15T09:17:13.028Z</time>
      </trkpt>
      <trkpt lat="45.04311" lon="5.38354">
        <ele>639</ele>
        <time>2019-06-15T09:17:14.028Z</time>
      </trkpt>
      <trkpt lat="45.04312" lon="5.38353">
        <ele>639</ele>
        <time>2019-06-15T09:17:15.028Z</time>
      </trkpt>
      <trkpt lat="45.04313" lon="5.38353">
        <ele>640</ele>
        <time>2019-06-15T09:17:16.028Z</time>
      </trkpt>
      <trkpt lat="45.04315" lon="5.38352">
        <ele>640</ele>
        <time>2019-06-15T09:17:17.028Z</time>
      </trkpt>
      <trkpt lat="45.04316" lon="5.38351">
        <ele>640</ele>
        <time>2019-06-15T09:17:18.028Z</time>
      </trkpt>
      <trkpt lat="45.04317" lon="5.38351">
        <ele>640</ele>
        <time>2019-06-15T09:17:19.028Z</time>
      </trkpt>
      <trkpt lat="45.04318" lon="5.3835">
        <ele>641</ele>
        <time>2019-06-15T09:17:20.028Z</time>
      </trkpt>
      <trkpt lat="45.04319" lon="5.38349">
        <ele>641</ele>
        <time>2019-06-15T09:17:21.028Z</time>
      </trkpt>
      <trkpt lat="45.0432" lon="5.38348">
        <ele>641</ele>
        <time>2019-06-15T09:17:22.028Z</time>
      </trkpt>
      <trkpt lat="45.04321" lon="5.38348">
        <ele>641</ele>
        <time>2019-06-15T09:17:23.028Z</time>
      </trkpt>
      <trkpt lat="45.04322" lon="5.38347">
        <ele>642</ele>
        <time>2019-06-15T09:17:24.028Z</time>
      </trkpt>
      <trkpt lat="45.04323" lon="5.38346">
        <ele>642</ele>
        <time>2019-06-15T09:17:25.028Z</time>
      </trkpt>
      <trkpt lat="45.04324" lon="5.38345">
        <ele>643</ele>
        <time>2019-06-15T09:17:26.028Z</time>
      </trkpt>
      <trkpt lat="45.04325" lon="5.38344">
        <ele>644</ele>
        <time>2019-06-15T09:17:27.028Z</time>
      </trkpt>
      <trkpt lat="45.04326" lon="5.38343">
        <ele>644</ele>
        <time>2019-06-15T09:17:28.028Z</time>
      </trkpt>
      <trkpt lat="45.04327" lon="5.38343">
        <ele>644</ele>
        <time>2019-06-15T09:17:29.028Z</time>
      </trkpt>
      <trkpt lat="45.04328" lon="5.38343">
        <ele>644</ele>
        <time>2019-06-15T09:17:30.028Z</time>
      </trkpt>
      <trkpt lat="45.0433" lon="5.38342">
        <ele>645</ele>
        <time>2019-06-15T09:17:31.028Z</time>
      </trkpt>
      <trkpt lat="45.04331" lon="5.38341">
        <ele>645</ele>
        <time>2019-06-15T09:17:32.028Z</time>
      </trkpt>
      <trkpt lat="45.04332" lon="5.38341">
        <ele>645</ele>
        <time>2019-06-15T09:17:33.028Z</time>
      </trkpt>
      <trkpt lat="45.04333" lon="5.38341">
        <ele>645</ele>
        <time>2019-06-15T09:17:34.028Z</time>
      </trkpt>
      <trkpt lat="45.04335" lon="5.3834">
        <ele>646</ele>
        <time>2019-06-15T09:17:35.028Z</time>
      </trkpt>
      <trkpt lat="45.04336" lon="5.38339">
        <ele>646</ele>
        <time>2019-06-15T09:17:36.028Z</time>
      </trkpt>
      <trkpt lat="45.04337" lon="5.38339">
        <ele>646</ele>
        <time>2019-06-15T09:17:37.028Z</time>
      </trkpt>
      <trkpt lat="45.04338" lon="5.38338">
        <ele>647</ele>
        <time>2019-06-15T09:17:38.028Z</time>
      </trkpt>
      <trkpt lat="45.0434" lon="5.38338">
        <ele>647</ele>
        <time>2019-06-15T09:17:39.028Z</time>
      </trkpt>
      <trkpt lat="45.04341" lon="5.38337">
        <ele>647</ele>
        <time>2019-06-15T09:17:40.028Z</time>
      </trkpt>
      <trkpt lat="45.04342" lon="5.38337">
        <ele>648</ele>
        <time>2019-06-15T09:17:41.028Z</time>
      </trkpt>
      <trkpt lat="45.04344" lon="5.38337">
        <ele>648</ele>
        <time>2019-06-15T09:17:42.028Z</time>
      </trkpt>
      <trkpt lat="45.04345" lon="5.38336">
        <ele>648</ele>
        <time>2019-06-15T09:17:43.028Z</time>
      </trkpt>
      <trkpt lat="45.04346" lon="5.38336">
        <ele>648</ele>
        <time>2019-06-15T09:17:44.028Z</time>
      </trkpt>
      <trkpt lat="45.04347" lon="5.38336">
        <ele>649</ele>
        <time>2019-06-15T09:17:45.028Z</time>
      </trkpt>
      <trkpt lat="45.04348" lon="5.38336">
        <ele>649</ele>
        <time>2019-06-15T09:17:46.028Z</time>
      </trkpt>
      <trkpt lat="45.04349" lon="5.38335">
        <ele>649</ele>
        <time>2019-06-15T09:17:47.028Z</time>
      </trkpt>
      <trkpt lat="45.0435" lon="5.38335">
        <ele>649</ele>
        <time>2019-06-15T09:17:48.028Z</time>
      </trkpt>
      <trkpt lat="45.04351" lon="5.38335">
        <ele>649</ele>
        <time>2019-06-15T09:17:49.028Z</time>
      </trkpt>
      <trkpt lat="45.04352" lon="5.38335">
        <ele>649</ele>
        <time>2019-06-15T09:17:50.028Z</time>
      </trkpt>
      <trkpt lat="45.04353" lon="5.38335">
        <ele>649</ele>
        <time>2019-06-15T09:17:51.028Z</time>
      </trkpt>
      <trkpt lat="45.04354" lon="5.38335">
        <ele>649</ele>
        <time>2019-06-15T09:17:52.028Z</time>
      </trkpt>
      <trkpt lat="45.04355" lon="5.38336">
        <ele>649</ele>
        <time>2019-06-15T09:17:53.028Z</time>
      </trkpt>
      <trkpt lat="45.04357" lon="5.38336">
        <ele>650</ele>
        <time>2019-06-15T09:17:54.028Z</time>
      </trkpt>
      <trkpt lat="45.04358" lon="5.38335">
        <ele>650</ele>
        <time>2019-06-15T09:17:55.028Z</time>
      </trkpt>
      <trkpt lat="45.04359" lon="5.38335">
        <ele>650</ele>
        <time>2019-06-15T09:17:56.028Z</time>
      </trkpt>
      <trkpt lat="45.0436" lon="5.38336">
        <ele>650</ele>
        <time>2019-06-15T09:17:57.028Z</time>
      </trkpt>
      <trkpt lat="45.04361" lon="5.38336">
        <ele>651</ele>
        <time>2019-06-15T09:17:58.028Z</time>
      </trkpt>
      <trkpt lat="45.04362" lon="5.38335">
        <ele>652</ele>
        <time>2019-06-15T09:17:59.028Z</time>
      </trkpt>
      <trkpt lat="45.04363" lon="5.38335">
        <ele>652</ele>
        <time>2019-06-15T09:18:00.028Z</time>
      </trkpt>
      <trkpt lat="45.04364" lon="5.38335">
        <ele>652</ele>
        <time>2019-06-15T09:18:01.028Z</time>
      </trkpt>
      <trkpt lat="45.04365" lon="5.38335">
        <ele>652</ele>
        <time>2019-06-15T09:18:02.028Z</time>
      </trkpt>
      <trkpt lat="45.04366" lon="5.38335">
        <ele>652</ele>
        <time>2019-06-15T09:18:03.028Z</time>
      </trkpt>
      <trkpt lat="45.04367" lon="5.38335">
        <ele>652</ele>
        <time>2019-06-15T09:18:04.028Z</time>
      </trkpt>
      <trkpt lat="45.04368" lon="5.38334">
        <ele>653</ele>
        <time>2019-06-15T09:18:05.028Z</time>
      </trkpt>
      <trkpt lat="45.04369" lon="5.38334">
        <ele>654</ele>
        <time>2019-06-15T09:18:06.028Z</time>
      </trkpt>
      <trkpt lat="45.0437" lon="5.38334">
        <ele>653</ele>
        <time>2019-06-15T09:18:07.028Z</time>
      </trkpt>
      <trkpt lat="45.04371" lon="5.38335">
        <ele>653</ele>
        <time>2019-06-15T09:18:08.028Z</time>
      </trkpt>
      <trkpt lat="45.04372" lon="5.38335">
        <ele>654</ele>
        <time>2019-06-15T09:18:09.028Z</time>
      </trkpt>
      <trkpt lat="45.04373" lon="5.38335">
        <ele>654</ele>
        <time>2019-06-15T09:18:10.028Z</time>
      </trkpt>
      <trkpt lat="45.04375" lon="5.38335">
        <ele>655</ele>
        <time>2019-06-15T09:18:11.028Z</time>
      </trkpt>
      <trkpt lat="45.04376" lon="5.38334">
        <ele>655</ele>
        <time>2019-06-15T09:18:12.028Z</time>
      </trkpt>
      <trkpt lat="45.04377" lon="5.38334">
        <ele>656</ele>
        <time>2019-06-15T09:18:13.028Z</time>
      </trkpt>
      <trkpt lat="45.04378" lon="5.38334">
        <ele>656</ele>
        <time>2019-06-15T09:18:14.028Z</time>
      </trkpt>
      <trkpt lat="45.04379" lon="5.38334">
        <ele>655</ele>
        <time>2019-06-15T09:18:15.028Z</time>
      </trkpt>
      <trkpt lat="45.0438" lon="5.38334">
        <ele>656</ele>
        <time>2019-06-15T09:18:16.028Z</time>
      </trkpt>
      <trkpt lat="45.04381" lon="5.38334">
        <ele>656</ele>
        <time>2019-06-15T09:18:17.028Z</time>
      </trkpt>
      <trkpt lat="45.04382" lon="5.38334">
        <ele>656</ele>
        <time>2019-06-15T09:18:18.028Z</time>
      </trkpt>
      <trkpt lat="45.04383" lon="5.38334">
        <ele>657</ele>
        <time>2019-06-15T09:18:19.028Z</time>
      </trkpt>
      <trkpt lat="45.04384" lon="5.38333">
        <ele>656</ele>
        <time>2019-06-15T09:18:20.028Z</time>
      </trkpt>
      <trkpt lat="45.04385" lon="5.38333">
        <ele>658</ele>
        <time>2019-06-15T09:18:21.028Z</time>
      </trkpt>
      <trkpt lat="45.04386" lon="5.38332">
        <ele>658</ele>
        <time>2019-06-15T09:18:22.028Z</time>
      </trkpt>
      <trkpt lat="45.04387" lon="5.38332">
        <ele>658</ele>
        <time>2019-06-15T09:18:23.028Z</time>
      </trkpt>
      <trkpt lat="45.04388" lon="5.38331">
        <ele>659</ele>
        <time>2019-06-15T09:18:24.028Z</time>
      </trkpt>
      <trkpt lat="45.04389" lon="5.38331">
        <ele>659</ele>
        <time>2019-06-15T09:18:25.028Z</time>
      </trkpt>
      <trkpt lat="45.0439" lon="5.3833">
        <ele>659</ele>
        <time>2019-06-15T09:18:26.028Z</time>
      </trkpt>
      <trkpt lat="45.04391" lon="5.3833">
        <ele>659</ele>
        <time>2019-06-15T09:18:27.028Z</time>
      </trkpt>
      <trkpt lat="45.04392" lon="5.3833">
        <ele>659</ele>
        <time>2019-06-15T09:18:28.028Z</time>
      </trkpt>
      <trkpt lat="45.04393" lon="5.3833">
        <ele>659</ele>
        <time>2019-06-15T09:18:29.028Z</time>
      </trkpt>
      <trkpt lat="45.04394" lon="5.38331">
        <ele>659</ele>
        <time>2019-06-15T09:18:30.028Z</time>
      </trkpt>
      <trkpt lat="45.04395" lon="5.38331">
        <ele>659</ele>
        <time>2019-06-15T09:18:31.028Z</time>
      </trkpt>
      <trkpt lat="45.04396" lon="5.38331">
        <ele>659</ele>
        <time>2019-06-15T09:18:32.028Z</time>
      </trkpt>
      <trkpt lat="45.04397" lon="5.38331">
        <ele>659</ele>
        <time>2019-06-15T09:18:33.028Z</time>
      </trkpt>
      <trkpt lat="45.04398" lon="5.38331">
        <ele>659</ele>
        <time>2019-06-15T09:18:34.028Z</time>
      </trkpt>
      <trkpt lat="45.04399" lon="5.38332">
        <ele>659</ele>
        <time>2019-06-15T09:18:35.028Z</time>
      </trkpt>
      <trkpt lat="45.044" lon="5.38332">
        <ele>659</ele>
        <time>2019-06-15T09:18:36.028Z</time>
      </trkpt>
      <trkpt lat="45.04401" lon="5.38332">
        <ele>659</ele>
        <time>2019-06-15T09:18:37.028Z</time>
      </trkpt>
      <trkpt lat="45.04402" lon="5.38332">
        <ele>659</ele>
        <time>2019-06-15T09:18:38.028Z</time>
      </trkpt>
      <trkpt lat="45.04403" lon="5.38332">
        <ele>660</ele>
        <time>2019-06-15T09:18:39.028Z</time>
      </trkpt>
      <trkpt lat="45.04403" lon="5.38332">
        <ele>660</ele>
        <time>2019-06-15T09:18:40.028Z</time>
      </trkpt>
      <trkpt lat="45.04404" lon="5.38332">
        <ele>660</ele>
        <time>2019-06-15T09:18:41.028Z</time>
      </trkpt>
      <trkpt lat="45.04405" lon="5.38332">
        <ele>661</ele>
        <time>2019-06-15T09:18:42.028Z</time>
      </trkpt>
      <trkpt lat="45.04406" lon="5.38331">
        <ele>661</ele>
        <time>2019-06-15T09:18:43.028Z</time>
      </trkpt>
      <trkpt lat="45.04407" lon="5.38331">
        <ele>662</ele>
        <time>2019-06-15T09:18:44.028Z</time>
      </trkpt>
      <trkpt lat="45.04408" lon="5.3833">
        <ele>662</ele>
        <time>2019-06-15T09:18:45.028Z</time>
      </trkpt>
      <trkpt lat="45.0441" lon="5.3833">
        <ele>663</ele>
        <time>2019-06-15T09:18:46.028Z</time>
      </trkpt>
      <trkpt lat="45.04411" lon="5.38329">
        <ele>663</ele>
        <time>2019-06-15T09:18:47.028Z</time>
      </trkpt>
      <trkpt lat="45.04412" lon="5.38328">
        <ele>664</ele>
        <time>2019-06-15T09:18:48.028Z</time>
      </trkpt>
      <trkpt lat="45.04413" lon="5.38328">
        <ele>665</ele>
        <time>2019-06-15T09:18:49.028Z</time>
      </trkpt>
      <trkpt lat="45.04413" lon="5.38327">
        <ele>666</ele>
        <time>2019-06-15T09:18:50.028Z</time>
      </trkpt>
      <trkpt lat="45.04414" lon="5.38327">
        <ele>667</ele>
        <time>2019-06-15T09:18:51.028Z</time>
      </trkpt>
      <trkpt lat="45.04415" lon="5.38327">
        <ele>668</ele>
        <time>2019-06-15T09:18:52.028Z</time>
      </trkpt>
      <trkpt lat="45.04416" lon="5.38326">
        <ele>668</ele>
        <time>2019-06-15T09:18:53.028Z</time>
      </trkpt>
      <trkpt lat="45.04417" lon="5.38326">
        <ele>668</ele>
        <time>2019-06-15T09:18:54.028Z</time>
      </trkpt>
      <trkpt lat="45.04418" lon="5.38326">
        <ele>668</ele>
        <time>2019-06-15T09:18:55.028Z</time>
      </trkpt>
      <trkpt lat="45.04419" lon="5.38327">
        <ele>668</ele>
        <time>2019-06-15T09:18:56.028Z</time>
      </trkpt>
      <trkpt lat="45.0442" lon="5.38327">
        <ele>669</ele>
        <time>2019-06-15T09:18:57.028Z</time>
      </trkpt>
      <trkpt lat="45.04421" lon="5.38326">
        <ele>669</ele>
        <time>2019-06-15T09:18:58.028Z</time>
      </trkpt>
      <trkpt lat="45.04423" lon="5.38326">
        <ele>670</ele>
        <time>2019-06-15T09:18:59.028Z</time>
      </trkpt>
      <trkpt lat="45.04424" lon="5.38326">
        <ele>670</ele>
        <time>2019-06-15T09:19:00.028Z</time>
      </trkpt>
      <trkpt lat="45.04425" lon="5.38326">
        <ele>671</ele>
        <time>2019-06-15T09:19:01.028Z</time>
      </trkpt>
      <trkpt lat="45.04426" lon="5.38326">
        <ele>671</ele>
        <time>2019-06-15T09:19:02.028Z</time>
      </trkpt>
      <trkpt lat="45.04427" lon="5.38326">
        <ele>671</ele>
        <time>2019-06-15T09:19:03.028Z</time>
      </trkpt>
      <trkpt lat="45.04427" lon="5.38326">
        <ele>671</ele>
        <time>2019-06-15T09:19:04.028Z</time>
      </trkpt>
      <trkpt lat="45.04428" lon="5.38326">
        <ele>672</ele>
        <time>2019-06-15T09:19:05.028Z</time>
      </trkpt>
      <trkpt lat="45.04429" lon="5.38326">
        <ele>672</ele>
        <time>2019-06-15T09:19:06.028Z</time>
      </trkpt>
      <trkpt lat="45.0443" lon="5.38325">
        <ele>672</ele>
        <time>2019-06-15T09:19:07.028Z</time>
      </trkpt>
      <trkpt lat="45.04431" lon="5.38325">
        <ele>674</ele>
        <time>2019-06-15T09:19:08.028Z</time>
      </trkpt>
      <trkpt lat="45.04432" lon="5.38324">
        <ele>675</ele>
        <time>2019-06-15T09:19:09.028Z</time>
      </trkpt>
      <trkpt lat="45.04434" lon="5.38324">
        <ele>675</ele>
        <time>2019-06-15T09:19:10.028Z</time>
      </trkpt>
      <trkpt lat="45.04435" lon="5.38323">
        <ele>676</ele>
        <time>2019-06-15T09:19:11.028Z</time>
      </trkpt>
      <trkpt lat="45.04436" lon="5.38323">
        <ele>676</ele>
        <time>2019-06-15T09:19:12.028Z</time>
      </trkpt>
      <trkpt lat="45.04437" lon="5.38322">
        <ele>676</ele>
        <time>2019-06-15T09:19:13.028Z</time>
      </trkpt>
      <trkpt lat="45.04438" lon="5.38322">
        <ele>676</ele>
        <time>2019-06-15T09:19:14.028Z</time>
      </trkpt>
      <trkpt lat="45.04439" lon="5.38322">
        <ele>678</ele>
        <time>2019-06-15T09:19:15.028Z</time>
      </trkpt>
      <trkpt lat="45.0444" lon="5.38321">
        <ele>678</ele>
        <time>2019-06-15T09:19:16.028Z</time>
      </trkpt>
      <trkpt lat="45.04441" lon="5.38321">
        <ele>679</ele>
        <time>2019-06-15T09:19:17.028Z</time>
      </trkpt>
      <trkpt lat="45.04442" lon="5.3832">
        <ele>679</ele>
        <time>2019-06-15T09:19:18.028Z</time>
      </trkpt>
      <trkpt lat="45.04443" lon="5.3832">
        <ele>679</ele>
        <time>2019-06-15T09:19:19.028Z</time>
      </trkpt>
      <trkpt lat="45.04444" lon="5.3832">
        <ele>679</ele>
        <time>2019-06-15T09:19:20.028Z</time>
      </trkpt>
      <trkpt lat="45.04445" lon="5.3832">
        <ele>679</ele>
        <time>2019-06-15T09:19:21.028Z</time>
      </trkpt>
      <trkpt lat="45.04446" lon="5.3832">
        <ele>679</ele>
        <time>2019-06-15T09:19:22.028Z</time>
      </trkpt>
      <trkpt lat="45.04447" lon="5.3832">
        <ele>680</ele>
        <time>2019-06-15T09:19:23.028Z</time>
      </trkpt>
      <trkpt lat="45.04448" lon="5.38319">
        <ele>681</ele>
        <time>2019-06-15T09:19:24.028Z</time>
      </trkpt>
      <trkpt lat="45.04449" lon="5.38318">
        <ele>681</ele>
        <time>2019-06-15T09:19:25.028Z</time>
      </trkpt>
      <trkpt lat="45.04451" lon="5.38318">
        <ele>682</ele>
        <time>2019-06-15T09:19:26.028Z</time>
      </trkpt>
      <trkpt lat="45.04452" lon="5.38317">
        <ele>681</ele>
        <time>2019-06-15T09:19:27.028Z</time>
      </trkpt>
      <trkpt lat="45.04453" lon="5.38316">
        <ele>682</ele>
        <time>2019-06-15T09:19:28.028Z</time>
      </trkpt>
      <trkpt lat="45.04455" lon="5.38316">
        <ele>683</ele>
        <time>2019-06-15T09:19:29.028Z</time>
      </trkpt>
      <trkpt lat="45.04456" lon="5.38315">
        <ele>682</ele>
        <time>2019-06-15T09:19:30.028Z</time>
      </trkpt>
      <trkpt lat="45.04457" lon="5.38314">
        <ele>683</ele>
        <time>2019-06-15T09:19:31.028Z</time>
      </trkpt>
      <trkpt lat="45.04458" lon="5.38314">
        <ele>682</ele>
        <time>2019-06-15T09:19:32.028Z</time>
      </trkpt>
      <trkpt lat="45.0446" lon="5.38313">
        <ele>682</ele>
        <time>2019-06-15T09:19:33.028Z</time>
      </trkpt>
      <trkpt lat="45.04461" lon="5.38313">
        <ele>682</ele>
        <time>2019-06-15T09:19:34.028Z</time>
      </trkpt>
      <trkpt lat="45.04462" lon="5.38313">
        <ele>682</ele>
        <time>2019-06-15T09:19:35.028Z</time>
      </trkpt>
      <trkpt lat="45.04463" lon="5.38312">
        <ele>682</ele>
        <time>2019-06-15T09:19:36.028Z</time>
      </trkpt>
      <trkpt lat="45.04464" lon="5.38312">
        <ele>682</ele>
        <time>2019-06-15T09:19:37.028Z</time>
      </trkpt>
      <trkpt lat="45.04465" lon="5.38311">
        <ele>683</ele>
        <time>2019-06-15T09:19:38.028Z</time>
      </trkpt>
      <trkpt lat="45.04467" lon="5.3831">
        <ele>684</ele>
        <time>2019-06-15T09:19:39.028Z</time>
      </trkpt>
      <trkpt lat="45.04468" lon="5.3831">
        <ele>684</ele>
        <time>2019-06-15T09:19:40.028Z</time>
      </trkpt>
      <trkpt lat="45.04469" lon="5.38309">
        <ele>684</ele>
        <time>2019-06-15T09:19:41.028Z</time>
      </trkpt>
      <trkpt lat="45.04469" lon="5.38308">
        <ele>684</ele>
        <time>2019-06-15T09:19:42.028Z</time>
      </trkpt>
      <trkpt lat="45.0447" lon="5.38308">
        <ele>684</ele>
        <time>2019-06-15T09:19:43.028Z</time>
      </trkpt>
      <trkpt lat="45.04471" lon="5.38308">
        <ele>683</ele>
        <time>2019-06-15T09:19:44.028Z</time>
      </trkpt>
      <trkpt lat="45.04473" lon="5.38308">
        <ele>683</ele>
        <time>2019-06-15T09:19:45.028Z</time>
      </trkpt>
      <trkpt lat="45.04474" lon="5.38307">
        <ele>683</ele>
        <time>2019-06-15T09:19:46.028Z</time>
      </trkpt>
      <trkpt lat="45.04475" lon="5.38307">
        <ele>683</ele>
        <time>2019-06-15T09:19:47.028Z</time>
      </trkpt>
      <trkpt lat="45.04475" lon="5.38306">
        <ele>683</ele>
        <time>2019-06-15T09:19:48.028Z</time>
      </trkpt>
      <trkpt lat="45.04476" lon="5.38306">
        <ele>683</ele>
        <time>2019-06-15T09:19:49.028Z</time>
      </trkpt>
      <trkpt lat="45.04477" lon="5.38305">
        <ele>682</ele>
        <time>2019-06-15T09:19:50.028Z</time>
      </trkpt>
      <trkpt lat="45.04478" lon="5.38305">
        <ele>682</ele>
        <time>2019-06-15T09:19:51.028Z</time>
      </trkpt>
      <trkpt lat="45.04479" lon="5.38304">
        <ele>682</ele>
        <time>2019-06-15T09:19:52.028Z</time>
      </trkpt>
      <trkpt lat="45.0448" lon="5.38304">
        <ele>683</ele>
        <time>2019-06-15T09:19:53.028Z</time>
      </trkpt>
      <trkpt lat="45.04481" lon="5.38303">
        <ele>682</ele>
        <time>2019-06-15T09:19:54.028Z</time>
      </trkpt>
      <trkpt lat="45.04482" lon="5.38303">
        <ele>683</ele>
        <time>2019-06-15T09:19:55.028Z</time>
      </trkpt>
      <trkpt lat="45.04483" lon="5.38302">
        <ele>683</ele>
        <time>2019-06-15T09:19:56.028Z</time>
      </trkpt>
      <trkpt lat="45.04484" lon="5.38301">
        <ele>683</ele>
        <time>2019-06-15T09:19:57.028Z</time>
      </trkpt>
      <trkpt lat="45.04485" lon="5.383">
        <ele>684</ele>
        <time>2019-06-15T09:19:58.028Z</time>
      </trkpt>
      <trkpt lat="45.04486" lon="5.38299">
        <ele>684</ele>
        <time>2019-06-15T09:19:59.028Z</time>
      </trkpt>
      <trkpt lat="45.04487" lon="5.38298">
        <ele>685</ele>
        <time>2019-06-15T09:20:00.028Z</time>
      </trkpt>
      <trkpt lat="45.04488" lon="5.38297">
        <ele>684</ele>
        <time>2019-06-15T09:20:01.028Z</time>
      </trkpt>
      <trkpt lat="45.0449" lon="5.38297">
        <ele>684</ele>
        <time>2019-06-15T09:20:02.028Z</time>
      </trkpt>
      <trkpt lat="45.04491" lon="5.38296">
        <ele>684</ele>
        <time>2019-06-15T09:20:03.028Z</time>
      </trkpt>
      <trkpt lat="45.04492" lon="5.38296">
        <ele>684</ele>
        <time>2019-06-15T09:20:04.028Z</time>
      </trkpt>
      <trkpt lat="45.04493" lon="5.38295">
        <ele>684</ele>
        <time>2019-06-15T09:20:05.028Z</time>
      </trkpt>
      <trkpt lat="45.04494" lon="5.38295">
        <ele>685</ele>
        <time>2019-06-15T09:20:06.028Z</time>
      </trkpt>
      <trkpt lat="45.04495" lon="5.38294">
        <ele>685</ele>
        <time>2019-06-15T09:20:07.028Z</time>
      </trkpt>
      <trkpt lat="45.04496" lon="5.38293">
        <ele>685</ele>
        <time>2019-06-15T09:20:08.028Z</time>
      </trkpt>
      <trkpt lat="45.04497" lon="5.38292">
        <ele>686</ele>
        <time>2019-06-15T09:20:09.028Z</time>
      </trkpt>
      <trkpt lat="45.04498" lon="5.38291">
        <ele>686</ele>
        <time>2019-06-15T09:20:10.028Z</time>
      </trkpt>
      <trkpt lat="45.04499" lon="5.3829">
        <ele>686</ele>
        <time>2019-06-15T09:20:11.028Z</time>
      </trkpt>
      <trkpt lat="45.045" lon="5.38289">
        <ele>686</ele>
        <time>2019-06-15T09:20:12.028Z</time>
      </trkpt>
      <trkpt lat="45.04501" lon="5.38288">
        <ele>686</ele>
        <time>2019-06-15T09:20:13.028Z</time>
      </trkpt>
      <trkpt lat="45.04502" lon="5.38287">
        <ele>687</ele>
        <time>2019-06-15T09:20:14.028Z</time>
      </trkpt>
      <trkpt lat="45.04503" lon="5.38287">
        <ele>687</ele>
        <time>2019-06-15T09:20:15.028Z</time>
      </trkpt>
      <trkpt lat="45.04504" lon="5.38286">
        <ele>687</ele>
        <time>2019-06-15T09:20:16.028Z</time>
      </trkpt>
      <trkpt lat="45.04505" lon="5.38285">
        <ele>687</ele>
        <time>2019-06-15T09:20:17.028Z</time>
      </trkpt>
      <trkpt lat="45.04506" lon="5.38285">
        <ele>687</ele>
        <time>2019-06-15T09:20:18.028Z</time>
      </trkpt>
      <trkpt lat="45.04507" lon="5.38284">
        <ele>686</ele>
        <time>2019-06-15T09:20:19.028Z</time>
      </trkpt>
      <trkpt lat="45.04508" lon="5.38284">
        <ele>686</ele>
        <time>2019-06-15T09:20:20.028Z</time>
      </trkpt>
      <trkpt lat="45.04509" lon="5.38284">
        <ele>686</ele>
        <time>2019-06-15T09:20:21.028Z</time>
      </trkpt>
      <trkpt lat="45.0451" lon="5.38283">
        <ele>686</ele>
        <time>2019-06-15T09:20:22.028Z</time>
      </trkpt>
      <trkpt lat="45.04512" lon="5.38283">
        <ele>686</ele>
        <time>2019-06-15T09:20:23.028Z</time>
      </trkpt>
      <trkpt lat="45.04513" lon="5.38282">
        <ele>686</ele>
        <time>2019-06-15T09:20:24.028Z</time>
      </trkpt>
      <trkpt lat="45.04514" lon="5.38281">
        <ele>687</ele>
        <time>2019-06-15T09:20:25.028Z</time>
      </trkpt>
      <trkpt lat="45.04515" lon="5.3828">
        <ele>687</ele>
        <time>2019-06-15T09:20:26.028Z</time>
      </trkpt>
      <trkpt lat="45.04516" lon="5.3828">
        <ele>687</ele>
        <time>2019-06-15T09:20:27.028Z</time>
      </trkpt>
      <trkpt lat="45.04517" lon="5.38279">
        <ele>687</ele>
        <time>2019-06-15T09:20:28.028Z</time>
      </trkpt>
      <trkpt lat="45.04518" lon="5.38278">
        <ele>687</ele>
        <time>2019-06-15T09:20:29.028Z</time>
      </trkpt>
      <trkpt lat="45.04519" lon="5.38277">
        <ele>688</ele>
        <time>2019-06-15T09:20:30.028Z</time>
      </trkpt>
      <trkpt lat="45.0452" lon="5.38277">
        <ele>688</ele>
        <time>2019-06-15T09:20:31.028Z</time>
      </trkpt>
      <trkpt lat="45.04522" lon="5.38276">
        <ele>688</ele>
        <time>2019-06-15T09:20:32.028Z</time>
      </trkpt>
      <trkpt lat="45.04523" lon="5.38275">
        <ele>688</ele>
        <time>2019-06-15T09:20:33.028Z</time>
      </trkpt>
      <trkpt lat="45.04523" lon="5.38274">
        <ele>689</ele>
        <time>2019-06-15T09:20:34.028Z</time>
      </trkpt>
      <trkpt lat="45.04524" lon="5.38273">
        <ele>689</ele>
        <time>2019-06-15T09:20:35.028Z</time>
      </trkpt>
      <trkpt lat="45.04525" lon="5.38272">
        <ele>690</ele>
        <time>2019-06-15T09:20:36.028Z</time>
      </trkpt>
      <trkpt lat="45.04526" lon="5.38271">
        <ele>689</ele>
        <time>2019-06-15T09:20:37.028Z</time>
      </trkpt>
      <trkpt lat="45.04527" lon="5.3827">
        <ele>690</ele>
        <time>2019-06-15T09:20:38.028Z</time>
      </trkpt>
      <trkpt lat="45.04528" lon="5.38269">
        <ele>690</ele>
        <time>2019-06-15T09:20:39.028Z</time>
      </trkpt>
      <trkpt lat="45.04529" lon="5.38268">
        <ele>691</ele>
        <time>2019-06-15T09:20:40.028Z</time>
      </trkpt>
      <trkpt lat="45.04531" lon="5.38267">
        <ele>692</ele>
        <time>2019-06-15T09:20:41.028Z</time>
      </trkpt>
      <trkpt lat="45.04532" lon="5.38266">
        <ele>692</ele>
        <time>2019-06-15T09:20:42.028Z</time>
      </trkpt>
      <trkpt lat="45.04533" lon="5.38265">
        <ele>693</ele>
        <time>2019-06-15T09:20:43.028Z</time>
      </trkpt>
      <trkpt lat="45.04534" lon="5.38264">
        <ele>693</ele>
        <time>2019-06-15T09:20:44.028Z</time>
      </trkpt>
      <trkpt lat="45.04535" lon="5.38263">
        <ele>693</ele>
        <time>2019-06-15T09:20:45.028Z</time>
      </trkpt>
      <trkpt lat="45.04536" lon="5.38263">
        <ele>694</ele>
        <time>2019-06-15T09:20:46.028Z</time>
      </trkpt>
      <trkpt lat="45.04537" lon="5.38262">
        <ele>694</ele>
        <time>2019-06-15T09:20:47.028Z</time>
      </trkpt>
      <trkpt lat="45.04538" lon="5.38262">
        <ele>694</ele>
        <time>2019-06-15T09:20:48.028Z</time>
      </trkpt>
      <trkpt lat="45.04538" lon="5.38261">
        <ele>694</ele>
        <time>2019-06-15T09:20:49.028Z</time>
      </trkpt>
      <trkpt lat="45.04539" lon="5.38261">
        <ele>694</ele>
        <time>2019-06-15T09:20:50.028Z</time>
      </trkpt>
      <trkpt lat="45.0454" lon="5.3826">
        <ele>695</ele>
        <time>2019-06-15T09:20:51.028Z</time>
      </trkpt>
      <trkpt lat="45.04541" lon="5.38259">
        <ele>695</ele>
        <time>2019-06-15T09:20:52.028Z</time>
      </trkpt>
      <trkpt lat="45.04542" lon="5.38259">
        <ele>695</ele>
        <time>2019-06-15T09:20:53.028Z</time>
      </trkpt>
      <trkpt lat="45.04543" lon="5.38258">
        <ele>696</ele>
        <time>2019-06-15T09:20:54.028Z</time>
      </trkpt>
      <trkpt lat="45.04544" lon="5.38257">
        <ele>696</ele>
        <time>2019-06-15T09:20:55.028Z</time>
      </trkpt>
      <trkpt lat="45.04545" lon="5.38256">
        <ele>697</ele>
        <time>2019-06-15T09:20:56.028Z</time>
      </trkpt>
      <trkpt lat="45.04545" lon="5.38255">
        <ele>698</ele>
        <time>2019-06-15T09:20:57.028Z</time>
      </trkpt>
      <trkpt lat="45.04546" lon="5.38254">
        <ele>698</ele>
        <time>2019-06-15T09:20:58.028Z</time>
      </trkpt>
      <trkpt lat="45.04546" lon="5.38253">
        <ele>698</ele>
        <time>2019-06-15T09:20:59.028Z</time>
      </trkpt>
      <trkpt lat="45.04547" lon="5.38253">
        <ele>699</ele>
        <time>2019-06-15T09:21:00.028Z</time>
      </trkpt>
      <trkpt lat="45.04547" lon="5.38252">
        <ele>698</ele>
        <time>2019-06-15T09:21:01.028Z</time>
      </trkpt>
      <trkpt lat="45.04548" lon="5.38251">
        <ele>699</ele>
        <time>2019-06-15T09:21:02.028Z</time>
      </trkpt>
      <trkpt lat="45.04548" lon="5.38249">
        <ele>700</ele>
        <time>2019-06-15T09:21:03.028Z</time>
      </trkpt>
      <trkpt lat="45.04548" lon="5.38248">
        <ele>700</ele>
        <time>2019-06-15T09:21:04.028Z</time>
      </trkpt>
      <trkpt lat="45.04549" lon="5.38247">
        <ele>700</ele>
        <time>2019-06-15T09:21:05.028Z</time>
      </trkpt>
      <trkpt lat="45.04549" lon="5.38246">
        <ele>700</ele>
        <time>2019-06-15T09:21:06.028Z</time>
      </trkpt>
      <trkpt lat="45.04549" lon="5.38245">
        <ele>701</ele>
        <time>2019-06-15T09:21:07.028Z</time>
      </trkpt>
      <trkpt lat="45.0455" lon="5.38243">
        <ele>701</ele>
        <time>2019-06-15T09:21:08.028Z</time>
      </trkpt>
      <trkpt lat="45.0455" lon="5.38242">
        <ele>701</ele>
        <time>2019-06-15T09:21:09.028Z</time>
      </trkpt>
      <trkpt lat="45.0455" lon="5.38241">
        <ele>701</ele>
        <time>2019-06-15T09:21:10.028Z</time>
      </trkpt>
      <trkpt lat="45.04551" lon="5.3824">
        <ele>701</ele>
        <time>2019-06-15T09:21:11.028Z</time>
      </trkpt>
      <trkpt lat="45.04551" lon="5.38239">
        <ele>701</ele>
        <time>2019-06-15T09:21:12.028Z</time>
      </trkpt>
      <trkpt lat="45.04551" lon="5.38238">
        <ele>702</ele>
        <time>2019-06-15T09:21:13.028Z</time>
      </trkpt>
      <trkpt lat="45.04552" lon="5.38237">
        <ele>702</ele>
        <time>2019-06-15T09:21:14.028Z</time>
      </trkpt>
      <trkpt lat="45.04552" lon="5.38236">
        <ele>702</ele>
        <time>2019-06-15T09:21:15.028Z</time>
      </trkpt>
      <trkpt lat="45.04552" lon="5.38235">
        <ele>703</ele>
        <time>2019-06-15T09:21:16.028Z</time>
      </trkpt>
      <trkpt lat="45.04553" lon="5.38234">
        <ele>703</ele>
        <time>2019-06-15T09:21:17.028Z</time>
      </trkpt>
      <trkpt lat="45.04553" lon="5.38233">
        <ele>703</ele>
        <time>2019-06-15T09:21:18.028Z</time>
      </trkpt>
      <trkpt lat="45.04554" lon="5.38232">
        <ele>703</ele>
        <time>2019-06-15T09:21:19.028Z</time>
      </trkpt>
      <trkpt lat="45.04554" lon="5.38231">
        <ele>704</ele>
        <time>2019-06-15T09:21:20.028Z</time>
      </trkpt>
      <trkpt lat="45.04554" lon="5.3823">
        <ele>704</ele>
        <time>2019-06-15T09:21:21.028Z</time>
      </trkpt>
      <trkpt lat="45.04555" lon="5.38229">
        <ele>704</ele>
        <time>2019-06-15T09:21:22.028Z</time>
      </trkpt>
      <trkpt lat="45.04555" lon="5.38228">
        <ele>705</ele>
        <time>2019-06-15T09:21:23.028Z</time>
      </trkpt>
      <trkpt lat="45.04556" lon="5.38227">
        <ele>705</ele>
        <time>2019-06-15T09:21:24.028Z</time>
      </trkpt>
      <trkpt lat="45.04556" lon="5.38226">
        <ele>705</ele>
        <time>2019-06-15T09:21:25.028Z</time>
      </trkpt>
      <trkpt lat="45.04557" lon="5.38225">
        <ele>706</ele>
        <time>2019-06-15T09:21:26.028Z</time>
      </trkpt>
      <trkpt lat="45.04558" lon="5.38224">
        <ele>706</ele>
        <time>2019-06-15T09:21:27.028Z</time>
      </trkpt>
      <trkpt lat="45.04558" lon="5.38223">
        <ele>706</ele>
        <time>2019-06-15T09:21:28.028Z</time>
      </trkpt>
      <trkpt lat="45.04559" lon="5.38222">
        <ele>706</ele>
        <time>2019-06-15T09:21:29.028Z</time>
      </trkpt>
      <trkpt lat="45.0456" lon="5.38222">
        <ele>707</ele>
        <time>2019-06-15T09:21:30.028Z</time>
      </trkpt>
      <trkpt lat="45.04561" lon="5.38221">
        <ele>708</ele>
        <time>2019-06-15T09:21:31.028Z</time>
      </trkpt>
      <trkpt lat="45.04562" lon="5.3822">
        <ele>708</ele>
        <time>2019-06-15T09:21:32.028Z</time>
      </trkpt>
      <trkpt lat="45.04563" lon="5.3822">
        <ele>709</ele>
        <time>2019-06-15T09:21:33.028Z</time>
      </trkpt>
      <trkpt lat="45.04564" lon="5.38219">
        <ele>709</ele>
        <time>2019-06-15T09:21:34.028Z</time>
      </trkpt>
      <trkpt lat="45.04565" lon="5.38219">
        <ele>709</ele>
        <time>2019-06-15T09:21:35.028Z</time>
      </trkpt>
      <trkpt lat="45.04566" lon="5.38219">
        <ele>710</ele>
        <time>2019-06-15T09:21:36.028Z</time>
      </trkpt>
      <trkpt lat="45.04567" lon="5.38219">
        <ele>710</ele>
        <time>2019-06-15T09:21:37.028Z</time>
      </trkpt>
      <trkpt lat="45.04567" lon="5.38219">
        <ele>710</ele>
        <time>2019-06-15T09:21:38.028Z</time>
      </trkpt>
      <trkpt lat="45.04568" lon="5.38219">
        <ele>710</ele>
        <time>2019-06-15T09:21:39.028Z</time>
      </trkpt>
      <trkpt lat="45.04569" lon="5.38219">
        <ele>711</ele>
        <time>2019-06-15T09:21:40.028Z</time>
      </trkpt>
      <trkpt lat="45.04569" lon="5.3822">
        <ele>711</ele>
        <time>2019-06-15T09:21:41.028Z</time>
      </trkpt>
      <trkpt lat="45.0457" lon="5.3822">
        <ele>712</ele>
        <time>2019-06-15T09:21:42.028Z</time>
      </trkpt>
      <trkpt lat="45.04571" lon="5.3822">
        <ele>712</ele>
        <time>2019-06-15T09:21:43.028Z</time>
      </trkpt>
      <trkpt lat="45.04571" lon="5.38221">
        <ele>712</ele>
        <time>2019-06-15T09:21:44.028Z</time>
      </trkpt>
      <trkpt lat="45.04572" lon="5.38222">
        <ele>712</ele>
        <time>2019-06-15T09:21:45.028Z</time>
      </trkpt>
      <trkpt lat="45.04573" lon="5.38223">
        <ele>713</ele>
        <time>2019-06-15T09:21:46.028Z</time>
      </trkpt>
      <trkpt lat="45.04573" lon="5.38223">
        <ele>713</ele>
        <time>2019-06-15T09:21:47.028Z</time>
      </trkpt>
      <trkpt lat="45.04574" lon="5.38224">
        <ele>713</ele>
        <time>2019-06-15T09:21:48.028Z</time>
      </trkpt>
      <trkpt lat="45.04574" lon="5.38224">
        <ele>714</ele>
        <time>2019-06-15T09:21:49.028Z</time>
      </trkpt>
      <trkpt lat="45.04575" lon="5.38225">
        <ele>715</ele>
        <time>2019-06-15T09:21:50.028Z</time>
      </trkpt>
      <trkpt lat="45.04575" lon="5.38225">
        <ele>715</ele>
        <time>2019-06-15T09:21:51.028Z</time>
      </trkpt>
      <trkpt lat="45.04576" lon="5.38226">
        <ele>715</ele>
        <time>2019-06-15T09:21:52.028Z</time>
      </trkpt>
      <trkpt lat="45.04576" lon="5.38227">
        <ele>715</ele>
        <time>2019-06-15T09:21:53.028Z</time>
      </trkpt>
      <trkpt lat="45.04577" lon="5.38227">
        <ele>716</ele>
        <time>2019-06-15T09:21:54.028Z</time>
      </trkpt>
      <trkpt lat="45.04577" lon="5.38228">
        <ele>716</ele>
        <time>2019-06-15T09:21:55.028Z</time>
      </trkpt>
      <trkpt lat="45.04578" lon="5.38228">
        <ele>716</ele>
        <time>2019-06-15T09:21:56.028Z</time>
      </trkpt>
      <trkpt lat="45.04578" lon="5.38229">
        <ele>717</ele>
        <time>2019-06-15T09:21:57.028Z</time>
      </trkpt>
      <trkpt lat="45.04579" lon="5.3823">
        <ele>717</ele>
        <time>2019-06-15T09:21:58.028Z</time>
      </trkpt>
      <trkpt lat="45.04579" lon="5.3823">
        <ele>717</ele>
        <time>2019-06-15T09:21:59.028Z</time>
      </trkpt>
      <trkpt lat="45.0458" lon="5.38231">
        <ele>718</ele>
        <time>2019-06-15T09:22:00.028Z</time>
      </trkpt>
      <trkpt lat="45.04581" lon="5.38231">
        <ele>718</ele>
        <time>2019-06-15T09:22:01.028Z</time>
      </trkpt>
      <trkpt lat="45.04581" lon="5.38231">
        <ele>718</ele>
        <time>2019-06-15T09:22:02.028Z</time>
      </trkpt>
      <trkpt lat="45.04582" lon="5.38232">
        <ele>718</ele>
        <time>2019-06-15T09:22:03.028Z</time>
      </trkpt>
      <trkpt lat="45.04582" lon="5.38232">
        <ele>718</ele>
        <time>2019-06-15T09:22:04.028Z</time>
      </trkpt>
      <trkpt lat="45.04583" lon="5.38233">
        <ele>719</ele>
        <time>2019-06-15T09:22:05.028Z</time>
      </trkpt>
      <trkpt lat="45.04583" lon="5.38233">
        <ele>719</ele>
        <time>2019-06-15T09:22:06.028Z</time>
      </trkpt>
      <trkpt lat="45.04583" lon="5.38233">
        <ele>719</ele>
        <time>2019-06-15T09:22:07.028Z</time>
      </trkpt>
      <trkpt lat="45.04584" lon="5.38233">
        <ele>719</ele>
        <time>2019-06-15T09:22:08.028Z</time>
      </trkpt>
      <trkpt lat="45.04584" lon="5.38233">
        <ele>719</ele>
        <time>2019-06-15T09:22:09.028Z</time>
      </trkpt>
      <trkpt lat="45.04585" lon="5.38233">
        <ele>719</ele>
        <time>2019-06-15T09:22:10.028Z</time>
      </trkpt>
      <trkpt lat="45.04585" lon="5.38233">
        <ele>720</ele>
        <time>2019-06-15T09:22:11.028Z</time>
      </trkpt>
      <trkpt lat="45.04586" lon="5.38233">
        <ele>719</ele>
        <time>2019-06-15T09:22:12.028Z</time>
      </trkpt>
      <trkpt lat="45.04587" lon="5.38234">
        <ele>719</ele>
        <time>2019-06-15T09:22:13.028Z</time>
      </trkpt>
      <trkpt lat="45.04587" lon="5.38234">
        <ele>720</ele>
        <time>2019-06-15T09:22:14.028Z</time>
      </trkpt>
      <trkpt lat="45.04588" lon="5.38234">
        <ele>721</ele>
        <time>2019-06-15T09:22:15.028Z</time>
      </trkpt>
      <trkpt lat="45.04589" lon="5.38234">
        <ele>721</ele>
        <time>2019-06-15T09:22:16.028Z</time>
      </trkpt>
      <trkpt lat="45.04589" lon="5.38234">
        <ele>721</ele>
        <time>2019-06-15T09:22:17.028Z</time>
      </trkpt>
      <trkpt lat="45.04589" lon="5.38234">
        <ele>721</ele>
        <time>2019-06-15T09:22:18.028Z</time>
      </trkpt>
      <trkpt lat="45.0459" lon="5.38235">
        <ele>721</ele>
        <time>2019-06-15T09:22:19.028Z</time>
      </trkpt>
      <trkpt lat="45.04591" lon="5.38235">
        <ele>722</ele>
        <time>2019-06-15T09:22:20.028Z</time>
      </trkpt>
      <trkpt lat="45.04592" lon="5.38236">
        <ele>722</ele>
        <time>2019-06-15T09:22:21.028Z</time>
      </trkpt>
      <trkpt lat="45.04593" lon="5.38236">
        <ele>722</ele>
        <time>2019-06-15T09:22:22.028Z</time>
      </trkpt>
      <trkpt lat="45.04593" lon="5.38237">
        <ele>722</ele>
        <time>2019-06-15T09:22:23.028Z</time>
      </trkpt>
      <trkpt lat="45.04594" lon="5.38237">
        <ele>723</ele>
        <time>2019-06-15T09:22:24.028Z</time>
      </trkpt>
      <trkpt lat="45.04594" lon="5.38238">
        <ele>723</ele>
        <time>2019-06-15T09:22:25.028Z</time>
      </trkpt>
      <trkpt lat="45.04595" lon="5.38238">
        <ele>723</ele>
        <time>2019-06-15T09:22:26.028Z</time>
      </trkpt>
      <trkpt lat="45.04596" lon="5.38239">
        <ele>723</ele>
        <time>2019-06-15T09:22:27.028Z</time>
      </trkpt>
      <trkpt lat="45.04596" lon="5.3824">
        <ele>723</ele>
        <time>2019-06-15T09:22:28.028Z</time>
      </trkpt>
      <trkpt lat="45.04597" lon="5.3824">
        <ele>724</ele>
        <time>2019-06-15T09:22:29.028Z</time>
      </trkpt>
      <trkpt lat="45.04597" lon="5.38241">
        <ele>724</ele>
        <time>2019-06-15T09:22:30.028Z</time>
      </trkpt>
      <trkpt lat="45.04598" lon="5.38242">
        <ele>724</ele>
        <time>2019-06-15T09:22:31.028Z</time>
      </trkpt>
      <trkpt lat="45.04598" lon="5.38242">
        <ele>725</ele>
        <time>2019-06-15T09:22:32.028Z</time>
      </trkpt>
      <trkpt lat="45.04598" lon="5.38243">
        <ele>725</ele>
        <time>2019-06-15T09:22:33.028Z</time>
      </trkpt>
      <trkpt lat="45.04598" lon="5.38244">
        <ele>725</ele>
        <time>2019-06-15T09:22:34.028Z</time>
      </trkpt>
      <trkpt lat="45.04599" lon="5.38244">
        <ele>725</ele>
        <time>2019-06-15T09:22:35.028Z</time>
      </trkpt>
      <trkpt lat="45.04599" lon="5.38245">
        <ele>726</ele>
        <time>2019-06-15T09:22:36.028Z</time>
      </trkpt>
      <trkpt lat="45.04599" lon="5.38246">
        <ele>726</ele>
        <time>2019-06-15T09:22:37.028Z</time>
      </trkpt>
      <trkpt lat="45.046" lon="5.38246">
        <ele>727</ele>
        <time>2019-06-15T09:22:38.028Z</time>
      </trkpt>
      <trkpt lat="45.046" lon="5.38247">
        <ele>727</ele>
        <time>2019-06-15T09:22:39.028Z</time>
      </trkpt>
      <trkpt lat="45.04601" lon="5.38248">
        <ele>728</ele>
        <time>2019-06-15T09:22:40.028Z</time>
      </trkpt>
      <trkpt lat="45.04601" lon="5.38248">
        <ele>729</ele>
        <time>2019-06-15T09:22:41.028Z</time>
      </trkpt>
      <trkpt lat="45.04601" lon="5.38249">
        <ele>729</ele>
        <time>2019-06-15T09:22:42.028Z</time>
      </trkpt>
      <trkpt lat="45.04602" lon="5.3825">
        <ele>730</ele>
        <time>2019-06-15T09:22:43.028Z</time>
      </trkpt>
      <trkpt lat="45.04602" lon="5.3825">
        <ele>730</ele>
        <time>2019-06-15T09:22:44.028Z</time>
      </trkpt>
      <trkpt lat="45.04603" lon="5.38251">
        <ele>730</ele>
        <time>2019-06-15T09:22:45.028Z</time>
      </trkpt>
      <trkpt lat="45.04603" lon="5.38251">
        <ele>731</ele>
        <time>2019-06-15T09:22:46.028Z</time>
      </trkpt>
      <trkpt lat="45.04604" lon="5.38251">
        <ele>731</ele>
        <time>2019-06-15T09:22:47.028Z</time>
      </trkpt>
      <trkpt lat="45.04605" lon="5.38251">
        <ele>732</ele>
        <time>2019-06-15T09:22:48.028Z</time>
      </trkpt>
      <trkpt lat="45.04605" lon="5.38252">
        <ele>732</ele>
        <time>2019-06-15T09:22:49.028Z</time>
      </trkpt>
      <trkpt lat="45.04606" lon="5.38252">
        <ele>732</ele>
        <time>2019-06-15T09:22:50.028Z</time>
      </trkpt>
      <trkpt lat="45.04606" lon="5.38253">
        <ele>732</ele>
        <time>2019-06-15T09:22:51.028Z</time>
      </trkpt>
      <trkpt lat="45.04607" lon="5.38253">
        <ele>732</ele>
        <time>2019-06-15T09:22:52.028Z</time>
      </trkpt>
      <trkpt lat="45.04607" lon="5.38254">
        <ele>732</ele>
        <time>2019-06-15T09:22:53.028Z</time>
      </trkpt>
      <trkpt lat="45.04607" lon="5.38255">
        <ele>733</ele>
        <time>2019-06-15T09:22:54.028Z</time>
      </trkpt>
      <trkpt lat="45.04608" lon="5.38255">
        <ele>733</ele>
        <time>2019-06-15T09:22:55.028Z</time>
      </trkpt>
      <trkpt lat="45.04608" lon="5.38256">
        <ele>734</ele>
        <time>2019-06-15T09:22:56.028Z</time>
      </trkpt>
      <trkpt lat="45.04609" lon="5.38256">
        <ele>734</ele>
        <time>2019-06-15T09:22:57.028Z</time>
      </trkpt>
      <trkpt lat="45.04609" lon="5.38257">
        <ele>733</ele>
        <time>2019-06-15T09:22:58.028Z</time>
      </trkpt>
      <trkpt lat="45.0461" lon="5.38257">
        <ele>733</ele>
        <time>2019-06-15T09:22:59.028Z</time>
      </trkpt>
      <trkpt lat="45.0461" lon="5.38258">
        <ele>734</ele>
        <time>2019-06-15T09:23:00.028Z</time>
      </trkpt>
      <trkpt lat="45.0461" lon="5.38258">
        <ele>735</ele>
        <time>2019-06-15T09:23:01.028Z</time>
      </trkpt>
      <trkpt lat="45.0461" lon="5.38259">
        <ele>736</ele>
        <time>2019-06-15T09:23:02.028Z</time>
      </trkpt>
      <trkpt lat="45.0461" lon="5.38259">
        <ele>736</ele>
        <time>2019-06-15T09:23:03.028Z</time>
      </trkpt>
      <trkpt lat="45.04611" lon="5.3826">
        <ele>736</ele>
        <time>2019-06-15T09:23:04.028Z</time>
      </trkpt>
      <trkpt lat="45.04611" lon="5.3826">
        <ele>736</ele>
        <time>2019-06-15T09:23:05.028Z</time>
      </trkpt>
      <trkpt lat="45.04611" lon="5.38261">
        <ele>736</ele>
        <time>2019-06-15T09:23:06.028Z</time>
      </trkpt>
      <trkpt lat="45.04611" lon="5.38262">
        <ele>736</ele>
        <time>2019-06-15T09:23:07.028Z</time>
      </trkpt>
      <trkpt lat="45.04612" lon="5.38263">
        <ele>737</ele>
        <time>2019-06-15T09:23:08.028Z</time>
      </trkpt>
      <trkpt lat="45.04612" lon="5.38263">
        <ele>737</ele>
        <time>2019-06-15T09:23:09.028Z</time>
      </trkpt>
      <trkpt lat="45.04612" lon="5.38264">
        <ele>738</ele>
        <time>2019-06-15T09:23:10.028Z</time>
      </trkpt>
      <trkpt lat="45.04612" lon="5.38265">
        <ele>738</ele>
        <time>2019-06-15T09:23:11.028Z</time>
      </trkpt>
      <trkpt lat="45.04612" lon="5.38265">
        <ele>738</ele>
        <time>2019-06-15T09:23:12.028Z</time>
      </trkpt>
      <trkpt lat="45.04612" lon="5.38266">
        <ele>738</ele>
        <time>2019-06-15T09:23:13.028Z</time>
      </trkpt>
      <trkpt lat="45.04613" lon="5.38267">
        <ele>738</ele>
        <time>2019-06-15T09:23:14.028Z</time>
      </trkpt>
      <trkpt lat="45.04613" lon="5.38268">
        <ele>738</ele>
        <time>2019-06-15T09:23:15.028Z</time>
      </trkpt>
      <trkpt lat="45.04613" lon="5.38268">
        <ele>738</ele>
        <time>2019-06-15T09:23:16.028Z</time>
      </trkpt>
      <trkpt lat="45.04614" lon="5.38269">
        <ele>738</ele>
        <time>2019-06-15T09:23:17.028Z</time>
      </trkpt>
      <trkpt lat="45.04614" lon="5.3827">
        <ele>738</ele>
        <time>2019-06-15T09:23:18.028Z</time>
      </trkpt>
      <trkpt lat="45.04615" lon="5.3827">
        <ele>738</ele>
        <time>2019-06-15T09:23:19.028Z</time>
      </trkpt>
      <trkpt lat="45.04615" lon="5.38271">
        <ele>738</ele>
        <time>2019-06-15T09:23:20.028Z</time>
      </trkpt>
      <trkpt lat="45.04615" lon="5.38271">
        <ele>739</ele>
        <time>2019-06-15T09:23:21.028Z</time>
      </trkpt>
      <trkpt lat="45.04616" lon="5.38272">
        <ele>738</ele>
        <time>2019-06-15T09:23:22.028Z</time>
      </trkpt>
      <trkpt lat="45.04616" lon="5.38273">
        <ele>738</ele>
        <time>2019-06-15T09:23:23.028Z</time>
      </trkpt>
      <trkpt lat="45.04616" lon="5.38275">
        <ele>739</ele>
        <time>2019-06-15T09:23:24.028Z</time>
      </trkpt>
      <trkpt lat="45.04616" lon="5.38276">
        <ele>739</ele>
        <time>2019-06-15T09:23:25.028Z</time>
      </trkpt>
      <trkpt lat="45.04617" lon="5.38277">
        <ele>740</ele>
        <time>2019-06-15T09:23:26.028Z</time>
      </trkpt>
      <trkpt lat="45.04617" lon="5.38277">
        <ele>739</ele>
        <time>2019-06-15T09:23:27.028Z</time>
      </trkpt>
      <trkpt lat="45.04618" lon="5.38278">
        <ele>739</ele>
        <time>2019-06-15T09:23:28.028Z</time>
      </trkpt>
      <trkpt lat="45.04619" lon="5.38278">
        <ele>740</ele>
        <time>2019-06-15T09:23:29.028Z</time>
      </trkpt>
      <trkpt lat="45.04619" lon="5.38279">
        <ele>740</ele>
        <time>2019-06-15T09:23:30.028Z</time>
      </trkpt>
      <trkpt lat="45.04619" lon="5.38279">
        <ele>741</ele>
        <time>2019-06-15T09:23:31.028Z</time>
      </trkpt>
      <trkpt lat="45.04619" lon="5.3828">
        <ele>741</ele>
        <time>2019-06-15T09:23:32.028Z</time>
      </trkpt>
      <trkpt lat="45.04618" lon="5.38281">
        <ele>741</ele>
        <time>2019-06-15T09:23:33.028Z</time>
      </trkpt>
      <trkpt lat="45.04618" lon="5.38283">
        <ele>742</ele>
        <time>2019-06-15T09:23:34.028Z</time>
      </trkpt>
      <trkpt lat="45.04617" lon="5.38284">
        <ele>742</ele>
        <time>2019-06-15T09:23:35.028Z</time>
      </trkpt>
      <trkpt lat="45.04617" lon="5.38285">
        <ele>742</ele>
        <time>2019-06-15T09:23:36.028Z</time>
      </trkpt>
      <trkpt lat="45.04616" lon="5.38287">
        <ele>742</ele>
        <time>2019-06-15T09:23:37.028Z</time>
      </trkpt>
      <trkpt lat="45.04615" lon="5.38288">
        <ele>741</ele>
        <time>2019-06-15T09:23:38.028Z</time>
      </trkpt>
      <trkpt lat="45.04614" lon="5.3829">
        <ele>742</ele>
        <time>2019-06-15T09:23:39.028Z</time>
      </trkpt>
      <trkpt lat="45.04614" lon="5.38291">
        <ele>742</ele>
        <time>2019-06-15T09:23:40.028Z</time>
      </trkpt>
      <trkpt lat="45.04613" lon="5.38292">
        <ele>742</ele>
        <time>2019-06-15T09:23:41.028Z</time>
      </trkpt>
      <trkpt lat="45.04612" lon="5.38294">
        <ele>742</ele>
        <time>2019-06-15T09:23:42.028Z</time>
      </trkpt>
      <trkpt lat="45.04612" lon="5.38296">
        <ele>742</ele>
        <time>2019-06-15T09:23:43.028Z</time>
      </trkpt>
      <trkpt lat="45.04611" lon="5.38297">
        <ele>743</ele>
        <time>2019-06-15T09:23:44.028Z</time>
      </trkpt>
      <trkpt lat="45.0461" lon="5.38299">
        <ele>742</ele>
        <time>2019-06-15T09:23:45.028Z</time>
      </trkpt>
      <trkpt lat="45.0461" lon="5.38301">
        <ele>743</ele>
        <time>2019-06-15T09:23:46.028Z</time>
      </trkpt>
      <trkpt lat="45.0461" lon="5.38302">
        <ele>743</ele>
        <time>2019-06-15T09:23:47.028Z</time>
      </trkpt>
      <trkpt lat="45.04609" lon="5.38303">
        <ele>744</ele>
        <time>2019-06-15T09:23:48.028Z</time>
      </trkpt>
      <trkpt lat="45.04608" lon="5.38304">
        <ele>744</ele>
        <time>2019-06-15T09:23:49.028Z</time>
      </trkpt>
      <trkpt lat="45.04608" lon="5.38305">
        <ele>744</ele>
        <time>2019-06-15T09:23:50.028Z</time>
      </trkpt>
      <trkpt lat="45.04607" lon="5.38307">
        <ele>745</ele>
        <time>2019-06-15T09:23:51.028Z</time>
      </trkpt>
      <trkpt lat="45.04606" lon="5.38308">
        <ele>744</ele>
        <time>2019-06-15T09:23:52.028Z</time>
      </trkpt>
      <trkpt lat="45.04606" lon="5.3831">
        <ele>744</ele>
        <time>2019-06-15T09:23:53.028Z</time>
      </trkpt>
      <trkpt lat="45.04606" lon="5.38311">
        <ele>745</ele>
        <time>2019-06-15T09:23:54.028Z</time>
      </trkpt>
      <trkpt lat="45.04605" lon="5.38313">
        <ele>745</ele>
        <time>2019-06-15T09:23:55.028Z</time>
      </trkpt>
      <trkpt lat="45.04604" lon="5.38314">
        <ele>745</ele>
        <time>2019-06-15T09:23:56.028Z</time>
      </trkpt>
      <trkpt lat="45.04603" lon="5.38316">
        <ele>745</ele>
        <time>2019-06-15T09:23:57.028Z</time>
      </trkpt>
      <trkpt lat="45.04602" lon="5.38317">
        <ele>746</ele>
        <time>2019-06-15T09:23:58.028Z</time>
      </trkpt>
      <trkpt lat="45.04601" lon="5.38318">
        <ele>746</ele>
        <time>2019-06-15T09:23:59.028Z</time>
      </trkpt>
      <trkpt lat="45.046" lon="5.3832">
        <ele>746</ele>
        <time>2019-06-15T09:24:00.028Z</time>
      </trkpt>
      <trkpt lat="45.04599" lon="5.38321">
        <ele>746</ele>
        <time>2019-06-15T09:24:01.028Z</time>
      </trkpt>
      <trkpt lat="45.04598" lon="5.38323">
        <ele>746</ele>
        <time>2019-06-15T09:24:02.028Z</time>
      </trkpt>
      <trkpt lat="45.04597" lon="5.38324">
        <ele>746</ele>
        <time>2019-06-15T09:24:03.028Z</time>
      </trkpt>
      <trkpt lat="45.04596" lon="5.38326">
        <ele>747</ele>
        <time>2019-06-15T09:24:04.028Z</time>
      </trkpt>
      <trkpt lat="45.04595" lon="5.38327">
        <ele>747</ele>
        <time>2019-06-15T09:24:05.028Z</time>
      </trkpt>
      <trkpt lat="45.04595" lon="5.38328">
        <ele>747</ele>
        <time>2019-06-15T09:24:06.028Z</time>
      </trkpt>
      <trkpt lat="45.04594" lon="5.38329">
        <ele>747</ele>
        <time>2019-06-15T09:24:07.028Z</time>
      </trkpt>
      <trkpt lat="45.04593" lon="5.3833">
        <ele>747</ele>
        <time>2019-06-15T09:24:08.028Z</time>
      </trkpt>
      <trkpt lat="45.04593" lon="5.38331">
        <ele>748</ele>
        <time>2019-06-15T09:24:09.028Z</time>
      </trkpt>
      <trkpt lat="45.04592" lon="5.38332">
        <ele>748</ele>
        <time>2019-06-15T09:24:10.028Z</time>
      </trkpt>
      <trkpt lat="45.04592" lon="5.38333">
        <ele>748</ele>
        <time>2019-06-15T09:24:11.028Z</time>
      </trkpt>
      <trkpt lat="45.04591" lon="5.38334">
        <ele>749</ele>
        <time>2019-06-15T09:24:12.028Z</time>
      </trkpt>
      <trkpt lat="45.0459" lon="5.38335">
        <ele>749</ele>
        <time>2019-06-15T09:24:13.028Z</time>
      </trkpt>
      <trkpt lat="45.0459" lon="5.38337">
        <ele>750</ele>
        <time>2019-06-15T09:24:14.028Z</time>
      </trkpt>
      <trkpt lat="45.04589" lon="5.38339">
        <ele>750</ele>
        <time>2019-06-15T09:24:15.028Z</time>
      </trkpt>
      <trkpt lat="45.04588" lon="5.38341">
        <ele>751</ele>
        <time>2019-06-15T09:24:16.028Z</time>
      </trkpt>
      <trkpt lat="45.04588" lon="5.38342">
        <ele>751</ele>
        <time>2019-06-15T09:24:17.028Z</time>
      </trkpt>
      <trkpt lat="45.04588" lon="5.38343">
        <ele>752</ele>
        <time>2019-06-15T09:24:18.028Z</time>
      </trkpt>
      <trkpt lat="45.04587" lon="5.38345">
        <ele>753</ele>
        <time>2019-06-15T09:24:19.028Z</time>
      </trkpt>
      <trkpt lat="45.04586" lon="5.38346">
        <ele>754</ele>
        <time>2019-06-15T09:24:20.028Z</time>
      </trkpt>
      <trkpt lat="45.04585" lon="5.38347">
        <ele>754</ele>
        <time>2019-06-15T09:24:21.028Z</time>
      </trkpt>
      <trkpt lat="45.04584" lon="5.38348">
        <ele>754</ele>
        <time>2019-06-15T09:24:22.028Z</time>
      </trkpt>
      <trkpt lat="45.04584" lon="5.3835">
        <ele>754</ele>
        <time>2019-06-15T09:24:23.028Z</time>
      </trkpt>
      <trkpt lat="45.04583" lon="5.38351">
        <ele>754</ele>
        <time>2019-06-15T09:24:24.028Z</time>
      </trkpt>
      <trkpt lat="45.04583" lon="5.38353">
        <ele>755</ele>
        <time>2019-06-15T09:24:25.028Z</time>
      </trkpt>
      <trkpt lat="45.04582" lon="5.38355">
        <ele>755</ele>
        <time>2019-06-15T09:24:26.028Z</time>
      </trkpt>
      <trkpt lat="45.04581" lon="5.38356">
        <ele>755</ele>
        <time>2019-06-15T09:24:27.028Z</time>
      </trkpt>
      <trkpt lat="45.04581" lon="5.38358">
        <ele>756</ele>
        <time>2019-06-15T09:24:28.028Z</time>
      </trkpt>
      <trkpt lat="45.0458" lon="5.3836">
        <ele>756</ele>
        <time>2019-06-15T09:24:29.028Z</time>
      </trkpt>
      <trkpt lat="45.0458" lon="5.38362">
        <ele>756</ele>
        <time>2019-06-15T09:24:30.028Z</time>
      </trkpt>
      <trkpt lat="45.04579" lon="5.38363">
        <ele>757</ele>
        <time>2019-06-15T09:24:31.028Z</time>
      </trkpt>
      <trkpt lat="45.04579" lon="5.38364">
        <ele>757</ele>
        <time>2019-06-15T09:24:32.028Z</time>
      </trkpt>
      <trkpt lat="45.04579" lon="5.38366">
        <ele>758</ele>
        <time>2019-06-15T09:24:33.028Z</time>
      </trkpt>
      <trkpt lat="45.04578" lon="5.38367">
        <ele>758</ele>
        <time>2019-06-15T09:24:34.028Z</time>
      </trkpt>
      <trkpt lat="45.04577" lon="5.38368">
        <ele>758</ele>
        <time>2019-06-15T09:24:35.028Z</time>
      </trkpt>
      <trkpt lat="45.04577" lon="5.3837">
        <ele>757</ele>
        <time>2019-06-15T09:24:36.028Z</time>
      </trkpt>
      <trkpt lat="45.04576" lon="5.38372">
        <ele>757</ele>
        <time>2019-06-15T09:24:37.028Z</time>
      </trkpt>
      <trkpt lat="45.04576" lon="5.38373">
        <ele>758</ele>
        <time>2019-06-15T09:24:38.028Z</time>
      </trkpt>
      <trkpt lat="45.04575" lon="5.38375">
        <ele>758</ele>
        <time>2019-06-15T09:24:39.028Z</time>
      </trkpt>
      <trkpt lat="45.04575" lon="5.38377">
        <ele>758</ele>
        <time>2019-06-15T09:24:40.028Z</time>
      </trkpt>
      <trkpt lat="45.04575" lon="5.38379">
        <ele>759</ele>
        <time>2019-06-15T09:24:41.028Z</time>
      </trkpt>
      <trkpt lat="45.04574" lon="5.3838">
        <ele>759</ele>
        <time>2019-06-15T09:24:42.028Z</time>
      </trkpt>
      <trkpt lat="45.04574" lon="5.38383">
        <ele>759</ele>
        <time>2019-06-15T09:24:43.028Z</time>
      </trkpt>
      <trkpt lat="45.04573" lon="5.38385">
        <ele>759</ele>
        <time>2019-06-15T09:24:44.028Z</time>
      </trkpt>
      <trkpt lat="45.04572" lon="5.38386">
        <ele>760</ele>
        <time>2019-06-15T09:24:45.028Z</time>
      </trkpt>
      <trkpt lat="45.04571" lon="5.38388">
        <ele>760</ele>
        <time>2019-06-15T09:24:46.028Z</time>
      </trkpt>
      <trkpt lat="45.04571" lon="5.38389">
        <ele>760</ele>
        <time>2019-06-15T09:24:47.028Z</time>
      </trkpt>
      <trkpt lat="45.0457" lon="5.38391">
        <ele>761</ele>
        <time>2019-06-15T09:24:48.028Z</time>
      </trkpt>
      <trkpt lat="45.04569" lon="5.38392">
        <ele>762</ele>
        <time>2019-06-15T09:24:49.028Z</time>
      </trkpt>
      <trkpt lat="45.04569" lon="5.38394">
        <ele>762</ele>
        <time>2019-06-15T09:24:50.028Z</time>
      </trkpt>
      <trkpt lat="45.04568" lon="5.38396">
        <ele>762</ele>
        <time>2019-06-15T09:24:51.028Z</time>
      </trkpt>
      <trkpt lat="45.04568" lon="5.38398">
        <ele>763</ele>
        <time>2019-06-15T09:24:52.028Z</time>
      </trkpt>
      <trkpt lat="45.04567" lon="5.38399">
        <ele>763</ele>
        <time>2019-06-15T09:24:53.028Z</time>
      </trkpt>
      <trkpt lat="45.04566" lon="5.38401">
        <ele>764</ele>
        <time>2019-06-15T09:24:54.028Z</time>
      </trkpt>
      <trkpt lat="45.04566" lon="5.38402">
        <ele>764</ele>
        <time>2019-06-15T09:24:55.028Z</time>
      </trkpt>
      <trkpt lat="45.04566" lon="5.38403">
        <ele>765</ele>
        <time>2019-06-15T09:24:56.028Z</time>
      </trkpt>
      <trkpt lat="45.04565" lon="5.38404">
        <ele>765</ele>
        <time>2019-06-15T09:24:57.028Z</time>
      </trkpt>
      <trkpt lat="45.04564" lon="5.38406">
        <ele>766</ele>
        <time>2019-06-15T09:24:58.028Z</time>
      </trkpt>
      <trkpt lat="45.04564" lon="5.38407">
        <ele>767</ele>
        <time>2019-06-15T09:24:59.028Z</time>
      </trkpt>
      <trkpt lat="45.04563" lon="5.38408">
        <ele>768</ele>
        <time>2019-06-15T09:25:00.028Z</time>
      </trkpt>
      <trkpt lat="45.04563" lon="5.38409">
        <ele>769</ele>
        <time>2019-06-15T09:25:01.028Z</time>
      </trkpt>
      <trkpt lat="45.04562" lon="5.3841">
        <ele>769</ele>
        <time>2019-06-15T09:25:02.028Z</time>
      </trkpt>
      <trkpt lat="45.04562" lon="5.38411">
        <ele>770</ele>
        <time>2019-06-15T09:25:03.028Z</time>
      </trkpt>
      <trkpt lat="45.04561" lon="5.38412">
        <ele>770</ele>
        <time>2019-06-15T09:25:04.028Z</time>
      </trkpt>
      <trkpt lat="45.04561" lon="5.38413">
        <ele>771</ele>
        <time>2019-06-15T09:25:05.028Z</time>
      </trkpt>
      <trkpt lat="45.04561" lon="5.38414">
        <ele>771</ele>
        <time>2019-06-15T09:25:06.028Z</time>
      </trkpt>
      <trkpt lat="45.0456" lon="5.38415">
        <ele>771</ele>
        <time>2019-06-15T09:25:07.028Z</time>
      </trkpt>
      <trkpt lat="45.0456" lon="5.38417">
        <ele>771</ele>
        <time>2019-06-15T09:25:08.028Z</time>
      </trkpt>
      <trkpt lat="45.04559" lon="5.38418">
        <ele>771</ele>
        <time>2019-06-15T09:25:09.028Z</time>
      </trkpt>
      <trkpt lat="45.04559" lon="5.3842">
        <ele>770</ele>
        <time>2019-06-15T09:25:10.028Z</time>
      </trkpt>
      <trkpt lat="45.04558" lon="5.38422">
        <ele>770</ele>
        <time>2019-06-15T09:25:11.028Z</time>
      </trkpt>
      <trkpt lat="45.04557" lon="5.38424">
        <ele>770</ele>
        <time>2019-06-15T09:25:12.028Z</time>
      </trkpt>
      <trkpt lat="45.04556" lon="5.38426">
        <ele>770</ele>
        <time>2019-06-15T09:25:13.028Z</time>
      </trkpt>
      <trkpt lat="45.04555" lon="5.38427">
        <ele>770</ele>
        <time>2019-06-15T09:25:14.028Z</time>
      </trkpt>
      <trkpt lat="45.04555" lon="5.38428">
        <ele>770</ele>
        <time>2019-06-15T09:25:15.028Z</time>
      </trkpt>
      <trkpt lat="45.04554" lon="5.3843">
        <ele>770</ele>
        <time>2019-06-15T09:25:16.028Z</time>
      </trkpt>
      <trkpt lat="45.04553" lon="5.38431">
        <ele>770</ele>
        <time>2019-06-15T09:25:17.028Z</time>
      </trkpt>
      <trkpt lat="45.04553" lon="5.38432">
        <ele>770</ele>
        <time>2019-06-15T09:25:18.028Z</time>
      </trkpt>
      <trkpt lat="45.04552" lon="5.38433">
        <ele>770</ele>
        <time>2019-06-15T09:25:19.028Z</time>
      </trkpt>
      <trkpt lat="45.04551" lon="5.38434">
        <ele>770</ele>
        <time>2019-06-15T09:25:20.028Z</time>
      </trkpt>
      <trkpt lat="45.0455" lon="5.38435">
        <ele>770</ele>
        <time>2019-06-15T09:25:21.028Z</time>
      </trkpt>
      <trkpt lat="45.04549" lon="5.38436">
        <ele>770</ele>
        <time>2019-06-15T09:25:22.028Z</time>
      </trkpt>
      <trkpt lat="45.04548" lon="5.38437">
        <ele>770</ele>
        <time>2019-06-15T09:25:23.028Z</time>
      </trkpt>
      <trkpt lat="45.04548" lon="5.38438">
        <ele>770</ele>
        <time>2019-06-15T09:25:24.028Z</time>
      </trkpt>
      <trkpt lat="45.04547" lon="5.38439">
        <ele>770</ele>
        <time>2019-06-15T09:25:25.028Z</time>
      </trkpt>
      <trkpt lat="45.04547" lon="5.38441">
        <ele>769</ele>
        <time>2019-06-15T09:25:26.028Z</time>
      </trkpt>
      <trkpt lat="45.04546" lon="5.38442">
        <ele>770</ele>
        <time>2019-06-15T09:25:27.028Z</time>
      </trkpt>
      <trkpt lat="45.04546" lon="5.38443">
        <ele>769</ele>
        <time>2019-06-15T09:25:28.028Z</time>
      </trkpt>
      <trkpt lat="45.04545" lon="5.38445">
        <ele>769</ele>
        <time>2019-06-15T09:25:29.028Z</time>
      </trkpt>
      <trkpt lat="45.04545" lon="5.38446">
        <ele>769</ele>
        <time>2019-06-15T09:25:30.028Z</time>
      </trkpt>
      <trkpt lat="45.04544" lon="5.38447">
        <ele>769</ele>
        <time>2019-06-15T09:25:31.028Z</time>
      </trkpt>
      <trkpt lat="45.04543" lon="5.38448">
        <ele>769</ele>
        <time>2019-06-15T09:25:32.028Z</time>
      </trkpt>
      <trkpt lat="45.04543" lon="5.38449">
        <ele>769</ele>
        <time>2019-06-15T09:25:33.028Z</time>
      </trkpt>
      <trkpt lat="45.04542" lon="5.38449">
        <ele>770</ele>
        <time>2019-06-15T09:25:34.028Z</time>
      </trkpt>
      <trkpt lat="45.04542" lon="5.3845">
        <ele>770</ele>
        <time>2019-06-15T09:25:35.028Z</time>
      </trkpt>
      <trkpt lat="45.04541" lon="5.38451">
        <ele>769</ele>
        <time>2019-06-15T09:25:36.028Z</time>
      </trkpt>
      <trkpt lat="45.04541" lon="5.38452">
        <ele>769</ele>
        <time>2019-06-15T09:25:37.028Z</time>
      </trkpt>
      <trkpt lat="45.04539" lon="5.38454">
        <ele>768</ele>
        <time>2019-06-15T09:25:38.028Z</time>
      </trkpt>
      <trkpt lat="45.04538" lon="5.38456">
        <ele>769</ele>
        <time>2019-06-15T09:25:39.028Z</time>
      </trkpt>
      <trkpt lat="45.04537" lon="5.38458">
        <ele>768</ele>
        <time>2019-06-15T09:25:40.028Z</time>
      </trkpt>
      <trkpt lat="45.04536" lon="5.38459">
        <ele>767</ele>
        <time>2019-06-15T09:25:41.028Z</time>
      </trkpt>
      <trkpt lat="45.04535" lon="5.38461">
        <ele>767</ele>
        <time>2019-06-15T09:25:42.028Z</time>
      </trkpt>
      <trkpt lat="45.04534" lon="5.38462">
        <ele>767</ele>
        <time>2019-06-15T09:25:43.028Z</time>
      </trkpt>
      <trkpt lat="45.04533" lon="5.38464">
        <ele>767</ele>
        <time>2019-06-15T09:25:44.028Z</time>
      </trkpt>
      <trkpt lat="45.04532" lon="5.38465">
        <ele>768</ele>
        <time>2019-06-15T09:25:45.028Z</time>
      </trkpt>
      <trkpt lat="45.04532" lon="5.38466">
        <ele>768</ele>
        <time>2019-06-15T09:25:46.028Z</time>
      </trkpt>
      <trkpt lat="45.04531" lon="5.38467">
        <ele>768</ele>
        <time>2019-06-15T09:25:47.028Z</time>
      </trkpt>
      <trkpt lat="45.0453" lon="5.38468">
        <ele>769</ele>
        <time>2019-06-15T09:25:48.028Z</time>
      </trkpt>
      <trkpt lat="45.0453" lon="5.38469">
        <ele>769</ele>
        <time>2019-06-15T09:25:49.028Z</time>
      </trkpt>
      <trkpt lat="45.04529" lon="5.3847">
        <ele>769</ele>
        <time>2019-06-15T09:25:50.028Z</time>
      </trkpt>
      <trkpt lat="45.04528" lon="5.38471">
        <ele>769</ele>
        <time>2019-06-15T09:25:51.028Z</time>
      </trkpt>
      <trkpt lat="45.04527" lon="5.38473">
        <ele>768</ele>
        <time>2019-06-15T09:25:52.028Z</time>
      </trkpt>
      <trkpt lat="45.04526" lon="5.38475">
        <ele>768</ele>
        <time>2019-06-15T09:25:53.028Z</time>
      </trkpt>
      <trkpt lat="45.04526" lon="5.38477">
        <ele>768</ele>
        <time>2019-06-15T09:25:54.028Z</time>
      </trkpt>
      <trkpt lat="45.04525" lon="5.38478">
        <ele>768</ele>
        <time>2019-06-15T09:25:55.028Z</time>
      </trkpt>
      <trkpt lat="45.04524" lon="5.3848">
        <ele>768</ele>
        <time>2019-06-15T09:25:56.028Z</time>
      </trkpt>
      <trkpt lat="45.04524" lon="5.38481">
        <ele>768</ele>
        <time>2019-06-15T09:25:57.028Z</time>
      </trkpt>
      <trkpt lat="45.04523" lon="5.38483">
        <ele>767</ele>
        <time>2019-06-15T09:25:58.028Z</time>
      </trkpt>
      <trkpt lat="45.04522" lon="5.38484">
        <ele>768</ele>
        <time>2019-06-15T09:25:59.028Z</time>
      </trkpt>
      <trkpt lat="45.04522" lon="5.38486">
        <ele>769</ele>
        <time>2019-06-15T09:26:00.028Z</time>
      </trkpt>
      <trkpt lat="45.04522" lon="5.38487">
        <ele>770</ele>
        <time>2019-06-15T09:26:01.028Z</time>
      </trkpt>
      <trkpt lat="45.04521" lon="5.38488">
        <ele>770</ele>
        <time>2019-06-15T09:26:02.028Z</time>
      </trkpt>
      <trkpt lat="45.0452" lon="5.38489">
        <ele>770</ele>
        <time>2019-06-15T09:26:03.028Z</time>
      </trkpt>
      <trkpt lat="45.0452" lon="5.3849">
        <ele>771</ele>
        <time>2019-06-15T09:26:04.028Z</time>
      </trkpt>
      <trkpt lat="45.04519" lon="5.3849">
        <ele>771</ele>
        <time>2019-06-15T09:26:05.028Z</time>
      </trkpt>
      <trkpt lat="45.04518" lon="5.38491">
        <ele>771</ele>
        <time>2019-06-15T09:26:06.028Z</time>
      </trkpt>
      <trkpt lat="45.04517" lon="5.38493">
        <ele>771</ele>
        <time>2019-06-15T09:26:07.028Z</time>
      </trkpt>
      <trkpt lat="45.04516" lon="5.38494">
        <ele>772</ele>
        <time>2019-06-15T09:26:08.028Z</time>
      </trkpt>
      <trkpt lat="45.04515" lon="5.38495">
        <ele>772</ele>
        <time>2019-06-15T09:26:09.028Z</time>
      </trkpt>
      <trkpt lat="45.04514" lon="5.38496">
        <ele>772</ele>
        <time>2019-06-15T09:26:10.028Z</time>
      </trkpt>
      <trkpt lat="45.04513" lon="5.38497">
        <ele>773</ele>
        <time>2019-06-15T09:26:11.028Z</time>
      </trkpt>
      <trkpt lat="45.04513" lon="5.38498">
        <ele>773</ele>
        <time>2019-06-15T09:26:12.028Z</time>
      </trkpt>
      <trkpt lat="45.04512" lon="5.385">
        <ele>772</ele>
        <time>2019-06-15T09:26:13.028Z</time>
      </trkpt>
      <trkpt lat="45.04511" lon="5.38501">
        <ele>773</ele>
        <time>2019-06-15T09:26:14.028Z</time>
      </trkpt>
      <trkpt lat="45.0451" lon="5.38502">
        <ele>774</ele>
        <time>2019-06-15T09:26:15.028Z</time>
      </trkpt>
      <trkpt lat="45.0451" lon="5.38503">
        <ele>774</ele>
        <time>2019-06-15T09:26:16.028Z</time>
      </trkpt>
      <trkpt lat="45.04509" lon="5.38504">
        <ele>775</ele>
        <time>2019-06-15T09:26:17.028Z</time>
      </trkpt>
      <trkpt lat="45.04509" lon="5.38505">
        <ele>775</ele>
        <time>2019-06-15T09:26:18.028Z</time>
      </trkpt>
      <trkpt lat="45.04508" lon="5.38507">
        <ele>775</ele>
        <time>2019-06-15T09:26:19.028Z</time>
      </trkpt>
      <trkpt lat="45.04507" lon="5.38508">
        <ele>774</ele>
        <time>2019-06-15T09:26:20.028Z</time>
      </trkpt>
      <trkpt lat="45.04506" lon="5.3851">
        <ele>774</ele>
        <time>2019-06-15T09:26:21.028Z</time>
      </trkpt>
      <trkpt lat="45.04506" lon="5.38511">
        <ele>773</ele>
        <time>2019-06-15T09:26:22.028Z</time>
      </trkpt>
      <trkpt lat="45.04505" lon="5.38513">
        <ele>775</ele>
        <time>2019-06-15T09:26:23.028Z</time>
      </trkpt>
      <trkpt lat="45.04505" lon="5.38515">
        <ele>774</ele>
        <time>2019-06-15T09:26:24.028Z</time>
      </trkpt>
      <trkpt lat="45.04504" lon="5.38516">
        <ele>775</ele>
        <time>2019-06-15T09:26:25.028Z</time>
      </trkpt>
      <trkpt lat="45.04504" lon="5.38518">
        <ele>775</ele>
        <time>2019-06-15T09:26:26.028Z</time>
      </trkpt>
      <trkpt lat="45.04503" lon="5.38519">
        <ele>775</ele>
        <time>2019-06-15T09:26:27.028Z</time>
      </trkpt>
      <trkpt lat="45.04502" lon="5.3852">
        <ele>776</ele>
        <time>2019-06-15T09:26:28.028Z</time>
      </trkpt>
      <trkpt lat="45.04501" lon="5.38521">
        <ele>777</ele>
        <time>2019-06-15T09:26:29.028Z</time>
      </trkpt>
      <trkpt lat="45.045" lon="5.38521">
        <ele>777</ele>
        <time>2019-06-15T09:26:30.028Z</time>
      </trkpt>
      <trkpt lat="45.045" lon="5.38523">
        <ele>776</ele>
        <time>2019-06-15T09:26:31.028Z</time>
      </trkpt>
      <trkpt lat="45.04499" lon="5.38524">
        <ele>776</ele>
        <time>2019-06-15T09:26:32.028Z</time>
      </trkpt>
      <trkpt lat="45.04499" lon="5.38526">
        <ele>776</ele>
        <time>2019-06-15T09:26:33.028Z</time>
      </trkpt>
      <trkpt lat="45.04498" lon="5.38528">
        <ele>775</ele>
        <time>2019-06-15T09:26:34.028Z</time>
      </trkpt>
      <trkpt lat="45.04498" lon="5.38529">
        <ele>776</ele>
        <time>2019-06-15T09:26:35.028Z</time>
      </trkpt>
      <trkpt lat="45.04497" lon="5.3853">
        <ele>776</ele>
        <time>2019-06-15T09:26:36.028Z</time>
      </trkpt>
      <trkpt lat="45.04496" lon="5.38531">
        <ele>777</ele>
        <time>2019-06-15T09:26:37.028Z</time>
      </trkpt>
      <trkpt lat="45.04496" lon="5.38532">
        <ele>777</ele>
        <time>2019-06-15T09:26:38.028Z</time>
      </trkpt>
      <trkpt lat="45.04495" lon="5.38533">
        <ele>778</ele>
        <time>2019-06-15T09:26:39.028Z</time>
      </trkpt>
      <trkpt lat="45.04495" lon="5.38534">
        <ele>780</ele>
        <time>2019-06-15T09:26:40.028Z</time>
      </trkpt>
      <trkpt lat="45.04494" lon="5.38534">
        <ele>780</ele>
        <time>2019-06-15T09:26:41.028Z</time>
      </trkpt>
      <trkpt lat="45.04494" lon="5.38536">
        <ele>780</ele>
        <time>2019-06-15T09:26:42.028Z</time>
      </trkpt>
      <trkpt lat="45.04493" lon="5.38538">
        <ele>781</ele>
        <time>2019-06-15T09:26:43.028Z</time>
      </trkpt>
      <trkpt lat="45.04492" lon="5.3854">
        <ele>781</ele>
        <time>2019-06-15T09:26:44.028Z</time>
      </trkpt>
      <trkpt lat="45.04492" lon="5.38541">
        <ele>781</ele>
        <time>2019-06-15T09:26:45.028Z</time>
      </trkpt>
      <trkpt lat="45.04491" lon="5.38543">
        <ele>781</ele>
        <time>2019-06-15T09:26:46.028Z</time>
      </trkpt>
      <trkpt lat="45.04491" lon="5.38544">
        <ele>782</ele>
        <time>2019-06-15T09:26:47.028Z</time>
      </trkpt>
      <trkpt lat="45.0449" lon="5.38545">
        <ele>782</ele>
        <time>2019-06-15T09:26:48.028Z</time>
      </trkpt>
      <trkpt lat="45.0449" lon="5.38547">
        <ele>782</ele>
        <time>2019-06-15T09:26:49.028Z</time>
      </trkpt>
      <trkpt lat="45.0449" lon="5.38548">
        <ele>783</ele>
        <time>2019-06-15T09:26:50.028Z</time>
      </trkpt>
      <trkpt lat="45.0449" lon="5.38549">
        <ele>782</ele>
        <time>2019-06-15T09:26:51.028Z</time>
      </trkpt>
      <trkpt lat="45.04489" lon="5.38551">
        <ele>783</ele>
        <time>2019-06-15T09:26:52.028Z</time>
      </trkpt>
      <trkpt lat="45.04489" lon="5.38552">
        <ele>785</ele>
        <time>2019-06-15T09:26:53.028Z</time>
      </trkpt>
      <trkpt lat="45.04489" lon="5.38553">
        <ele>785</ele>
        <time>2019-06-15T09:26:54.028Z</time>
      </trkpt>
      <trkpt lat="45.04488" lon="5.38554">
        <ele>786</ele>
        <time>2019-06-15T09:26:55.028Z</time>
      </trkpt>
      <trkpt lat="45.04488" lon="5.38555">
        <ele>786</ele>
        <time>2019-06-15T09:26:56.028Z</time>
      </trkpt>
      <trkpt lat="45.04487" lon="5.38556">
        <ele>786</ele>
        <time>2019-06-15T09:26:57.028Z</time>
      </trkpt>
      <trkpt lat="45.04486" lon="5.38557">
        <ele>786</ele>
        <time>2019-06-15T09:26:58.028Z</time>
      </trkpt>
      <trkpt lat="45.04486" lon="5.38559">
        <ele>787</ele>
        <time>2019-06-15T09:26:59.028Z</time>
      </trkpt>
      <trkpt lat="45.04486" lon="5.3856">
        <ele>787</ele>
        <time>2019-06-15T09:27:00.028Z</time>
      </trkpt>
      <trkpt lat="45.04486" lon="5.38561">
        <ele>787</ele>
        <time>2019-06-15T09:27:01.028Z</time>
      </trkpt>
      <trkpt lat="45.04485" lon="5.38563">
        <ele>788</ele>
        <time>2019-06-15T09:27:02.028Z</time>
      </trkpt>
      <trkpt lat="45.04485" lon="5.38565">
        <ele>789</ele>
        <time>2019-06-15T09:27:03.028Z</time>
      </trkpt>
      <trkpt lat="45.04485" lon="5.38566">
        <ele>790</ele>
        <time>2019-06-15T09:27:04.028Z</time>
      </trkpt>
      <trkpt lat="45.04484" lon="5.38567">
        <ele>791</ele>
        <time>2019-06-15T09:27:05.028Z</time>
      </trkpt>
      <trkpt lat="45.04483" lon="5.38568">
        <ele>792</ele>
        <time>2019-06-15T09:27:06.028Z</time>
      </trkpt>
      <trkpt lat="45.04483" lon="5.38569">
        <ele>792</ele>
        <time>2019-06-15T09:27:07.028Z</time>
      </trkpt>
      <trkpt lat="45.04482" lon="5.38571">
        <ele>793</ele>
        <time>2019-06-15T09:27:08.028Z</time>
      </trkpt>
      <trkpt lat="45.04481" lon="5.38573">
        <ele>794</ele>
        <time>2019-06-15T09:27:09.028Z</time>
      </trkpt>
      <trkpt lat="45.04481" lon="5.38575">
        <ele>794</ele>
        <time>2019-06-15T09:27:10.028Z</time>
      </trkpt>
      <trkpt lat="45.0448" lon="5.38576">
        <ele>794</ele>
        <time>2019-06-15T09:27:11.028Z</time>
      </trkpt>
      <trkpt lat="45.04479" lon="5.38578">
        <ele>794</ele>
        <time>2019-06-15T09:27:12.028Z</time>
      </trkpt>
      <trkpt lat="45.04478" lon="5.3858">
        <ele>794</ele>
        <time>2019-06-15T09:27:13.028Z</time>
      </trkpt>
      <trkpt lat="45.04477" lon="5.38582">
        <ele>794</ele>
        <time>2019-06-15T09:27:14.028Z</time>
      </trkpt>
      <trkpt lat="45.04476" lon="5.38583">
        <ele>794</ele>
        <time>2019-06-15T09:27:15.028Z</time>
      </trkpt>
      <trkpt lat="45.04475" lon="5.38585">
        <ele>793</ele>
        <time>2019-06-15T09:27:16.028Z</time>
      </trkpt>
      <trkpt lat="45.04474" lon="5.38587">
        <ele>793</ele>
        <time>2019-06-15T09:27:17.028Z</time>
      </trkpt>
      <trkpt lat="45.04473" lon="5.38589">
        <ele>792</ele>
        <time>2019-06-15T09:27:18.028Z</time>
      </trkpt>
      <trkpt lat="45.04472" lon="5.38591">
        <ele>792</ele>
        <time>2019-06-15T09:27:19.028Z</time>
      </trkpt>
      <trkpt lat="45.04471" lon="5.38592">
        <ele>791</ele>
        <time>2019-06-15T09:27:20.028Z</time>
      </trkpt>
      <trkpt lat="45.04471" lon="5.38594">
        <ele>791</ele>
        <time>2019-06-15T09:27:21.028Z</time>
      </trkpt>
      <trkpt lat="45.0447" lon="5.38596">
        <ele>791</ele>
        <time>2019-06-15T09:27:22.028Z</time>
      </trkpt>
      <trkpt lat="45.0447" lon="5.38599">
        <ele>792</ele>
        <time>2019-06-15T09:27:23.028Z</time>
      </trkpt>
      <trkpt lat="45.0447" lon="5.38601">
        <ele>792</ele>
        <time>2019-06-15T09:27:24.028Z</time>
      </trkpt>
      <trkpt lat="45.0447" lon="5.38603">
        <ele>792</ele>
        <time>2019-06-15T09:27:25.028Z</time>
      </trkpt>
      <trkpt lat="45.04469" lon="5.38604">
        <ele>792</ele>
        <time>2019-06-15T09:27:26.028Z</time>
      </trkpt>
      <trkpt lat="45.04469" lon="5.38606">
        <ele>792</ele>
        <time>2019-06-15T09:27:27.028Z</time>
      </trkpt>
      <trkpt lat="45.04469" lon="5.38608">
        <ele>793</ele>
        <time>2019-06-15T09:27:28.028Z</time>
      </trkpt>
      <trkpt lat="45.04469" lon="5.38609">
        <ele>794</ele>
        <time>2019-06-15T09:27:29.028Z</time>
      </trkpt>
      <trkpt lat="45.04469" lon="5.38611">
        <ele>794</ele>
        <time>2019-06-15T09:27:30.028Z</time>
      </trkpt>
      <trkpt lat="45.04469" lon="5.38613">
        <ele>794</ele>
        <time>2019-06-15T09:27:31.028Z</time>
      </trkpt>
      <trkpt lat="45.04469" lon="5.38614">
        <ele>793</ele>
        <time>2019-06-15T09:27:32.028Z</time>
      </trkpt>
      <trkpt lat="45.04469" lon="5.38616">
        <ele>794</ele>
        <time>2019-06-15T09:27:33.028Z</time>
      </trkpt>
      <trkpt lat="45.04469" lon="5.38618">
        <ele>794</ele>
        <time>2019-06-15T09:27:34.028Z</time>
      </trkpt>
      <trkpt lat="45.04469" lon="5.3862">
        <ele>795</ele>
        <time>2019-06-15T09:27:35.028Z</time>
      </trkpt>
      <trkpt lat="45.04469" lon="5.38622">
        <ele>795</ele>
        <time>2019-06-15T09:27:36.028Z</time>
      </trkpt>
      <trkpt lat="45.04469" lon="5.38624">
        <ele>796</ele>
        <time>2019-06-15T09:27:37.028Z</time>
      </trkpt>
      <trkpt lat="45.04469" lon="5.38626">
        <ele>796</ele>
        <time>2019-06-15T09:27:38.028Z</time>
      </trkpt>
      <trkpt lat="45.04469" lon="5.38627">
        <ele>796</ele>
        <time>2019-06-15T09:27:39.028Z</time>
      </trkpt>
      <trkpt lat="45.04469" lon="5.38629">
        <ele>797</ele>
        <time>2019-06-15T09:27:40.028Z</time>
      </trkpt>
      <trkpt lat="45.04469" lon="5.38631">
        <ele>797</ele>
        <time>2019-06-15T09:27:41.028Z</time>
      </trkpt>
      <trkpt lat="45.04469" lon="5.38632">
        <ele>797</ele>
        <time>2019-06-15T09:27:42.028Z</time>
      </trkpt>
      <trkpt lat="45.04469" lon="5.38634">
        <ele>797</ele>
        <time>2019-06-15T09:27:43.028Z</time>
      </trkpt>
      <trkpt lat="45.04468" lon="5.38636">
        <ele>797</ele>
        <time>2019-06-15T09:27:44.028Z</time>
      </trkpt>
      <trkpt lat="45.04468" lon="5.38637">
        <ele>797</ele>
        <time>2019-06-15T09:27:45.028Z</time>
      </trkpt>
      <trkpt lat="45.04467" lon="5.38639">
        <ele>797</ele>
        <time>2019-06-15T09:27:46.028Z</time>
      </trkpt>
      <trkpt lat="45.04467" lon="5.38641">
        <ele>797</ele>
        <time>2019-06-15T09:27:47.028Z</time>
      </trkpt>
      <trkpt lat="45.04467" lon="5.38643">
        <ele>797</ele>
        <time>2019-06-15T09:27:48.028Z</time>
      </trkpt>
      <trkpt lat="45.04467" lon="5.38645">
        <ele>796</ele>
        <time>2019-06-15T09:27:49.028Z</time>
      </trkpt>
      <trkpt lat="45.04467" lon="5.38647">
        <ele>796</ele>
        <time>2019-06-15T09:27:50.028Z</time>
      </trkpt>
      <trkpt lat="45.04467" lon="5.38649">
        <ele>796</ele>
        <time>2019-06-15T09:27:51.028Z</time>
      </trkpt>
      <trkpt lat="45.04467" lon="5.38651">
        <ele>796</ele>
        <time>2019-06-15T09:27:52.028Z</time>
      </trkpt>
      <trkpt lat="45.04467" lon="5.38653">
        <ele>796</ele>
        <time>2019-06-15T09:27:53.028Z</time>
      </trkpt>
      <trkpt lat="45.04467" lon="5.38655">
        <ele>797</ele>
        <time>2019-06-15T09:27:54.028Z</time>
      </trkpt>
      <trkpt lat="45.04467" lon="5.38656">
        <ele>797</ele>
        <time>2019-06-15T09:27:55.028Z</time>
      </trkpt>
      <trkpt lat="45.04467" lon="5.38657">
        <ele>797</ele>
        <time>2019-06-15T09:27:56.028Z</time>
      </trkpt>
      <trkpt lat="45.04466" lon="5.38659">
        <ele>798</ele>
        <time>2019-06-15T09:27:57.028Z</time>
      </trkpt>
      <trkpt lat="45.04467" lon="5.38661">
        <ele>798</ele>
        <time>2019-06-15T09:27:58.028Z</time>
      </trkpt>
      <trkpt lat="45.04467" lon="5.38662">
        <ele>798</ele>
        <time>2019-06-15T09:27:59.028Z</time>
      </trkpt>
      <trkpt lat="45.04467" lon="5.38664">
        <ele>799</ele>
        <time>2019-06-15T09:28:00.028Z</time>
      </trkpt>
      <trkpt lat="45.04467" lon="5.38665">
        <ele>799</ele>
        <time>2019-06-15T09:28:01.028Z</time>
      </trkpt>
      <trkpt lat="45.04467" lon="5.38667">
        <ele>800</ele>
        <time>2019-06-15T09:28:02.028Z</time>
      </trkpt>
      <trkpt lat="45.04467" lon="5.38669">
        <ele>800</ele>
        <time>2019-06-15T09:28:03.028Z</time>
      </trkpt>
      <trkpt lat="45.04467" lon="5.3867">
        <ele>800</ele>
        <time>2019-06-15T09:28:04.028Z</time>
      </trkpt>
      <trkpt lat="45.04467" lon="5.38672">
        <ele>801</ele>
        <time>2019-06-15T09:28:05.028Z</time>
      </trkpt>
      <trkpt lat="45.04467" lon="5.38673">
        <ele>801</ele>
        <time>2019-06-15T09:28:06.028Z</time>
      </trkpt>
      <trkpt lat="45.04467" lon="5.38674">
        <ele>802</ele>
        <time>2019-06-15T09:28:07.028Z</time>
      </trkpt>
      <trkpt lat="45.04467" lon="5.38676">
        <ele>802</ele>
        <time>2019-06-15T09:28:08.028Z</time>
      </trkpt>
      <trkpt lat="45.04467" lon="5.38677">
        <ele>802</ele>
        <time>2019-06-15T09:28:09.028Z</time>
      </trkpt>
      <trkpt lat="45.04466" lon="5.38679">
        <ele>802</ele>
        <time>2019-06-15T09:28:10.028Z</time>
      </trkpt>
      <trkpt lat="45.04467" lon="5.3868">
        <ele>802</ele>
        <time>2019-06-15T09:28:11.028Z</time>
      </trkpt>
      <trkpt lat="45.04467" lon="5.38681">
        <ele>802</ele>
        <time>2019-06-15T09:28:12.028Z</time>
      </trkpt>
      <trkpt lat="45.04467" lon="5.38683">
        <ele>803</ele>
        <time>2019-06-15T09:28:13.028Z</time>
      </trkpt>
      <trkpt lat="45.04467" lon="5.38684">
        <ele>804</ele>
        <time>2019-06-15T09:28:14.028Z</time>
      </trkpt>
      <trkpt lat="45.04466" lon="5.38686">
        <ele>804</ele>
        <time>2019-06-15T09:28:15.028Z</time>
      </trkpt>
      <trkpt lat="45.04465" lon="5.38687">
        <ele>804</ele>
        <time>2019-06-15T09:28:16.028Z</time>
      </trkpt>
      <trkpt lat="45.04464" lon="5.3869">
        <ele>805</ele>
        <time>2019-06-15T09:28:17.028Z</time>
      </trkpt>
      <trkpt lat="45.04463" lon="5.38692">
        <ele>804</ele>
        <time>2019-06-15T09:28:18.028Z</time>
      </trkpt>
      <trkpt lat="45.04463" lon="5.38694">
        <ele>804</ele>
        <time>2019-06-15T09:28:19.028Z</time>
      </trkpt>
      <trkpt lat="45.04463" lon="5.38696">
        <ele>804</ele>
        <time>2019-06-15T09:28:20.028Z</time>
      </trkpt>
      <trkpt lat="45.04463" lon="5.38698">
        <ele>804</ele>
        <time>2019-06-15T09:28:21.028Z</time>
      </trkpt>
      <trkpt lat="45.04463" lon="5.387">
        <ele>804</ele>
        <time>2019-06-15T09:28:22.028Z</time>
      </trkpt>
      <trkpt lat="45.04463" lon="5.38701">
        <ele>804</ele>
        <time>2019-06-15T09:28:23.028Z</time>
      </trkpt>
      <trkpt lat="45.04463" lon="5.38703">
        <ele>805</ele>
        <time>2019-06-15T09:28:24.028Z</time>
      </trkpt>
      <trkpt lat="45.04463" lon="5.38704">
        <ele>805</ele>
        <time>2019-06-15T09:28:25.028Z</time>
      </trkpt>
      <trkpt lat="45.04463" lon="5.38705">
        <ele>805</ele>
        <time>2019-06-15T09:28:26.028Z</time>
      </trkpt>
      <trkpt lat="45.04463" lon="5.38707">
        <ele>805</ele>
        <time>2019-06-15T09:28:27.028Z</time>
      </trkpt>
      <trkpt lat="45.04462" lon="5.38708">
        <ele>805</ele>
        <time>2019-06-15T09:28:28.028Z</time>
      </trkpt>
      <trkpt lat="45.04462" lon="5.38709">
        <ele>804</ele>
        <time>2019-06-15T09:28:29.028Z</time>
      </trkpt>
      <trkpt lat="45.04462" lon="5.38711">
        <ele>804</ele>
        <time>2019-06-15T09:28:30.028Z</time>
      </trkpt>
      <trkpt lat="45.04462" lon="5.38712">
        <ele>804</ele>
        <time>2019-06-15T09:28:31.028Z</time>
      </trkpt>
      <trkpt lat="45.04461" lon="5.38714">
        <ele>804</ele>
        <time>2019-06-15T09:28:32.028Z</time>
      </trkpt>
      <trkpt lat="45.04461" lon="5.38715">
        <ele>804</ele>
        <time>2019-06-15T09:28:33.028Z</time>
      </trkpt>
      <trkpt lat="45.04461" lon="5.38716">
        <ele>804</ele>
        <time>2019-06-15T09:28:34.028Z</time>
      </trkpt>
      <trkpt lat="45.04461" lon="5.38718">
        <ele>803</ele>
        <time>2019-06-15T09:28:35.028Z</time>
      </trkpt>
      <trkpt lat="45.04461" lon="5.38719">
        <ele>805</ele>
        <time>2019-06-15T09:28:36.028Z</time>
      </trkpt>
      <trkpt lat="45.04461" lon="5.38719">
        <ele>804</ele>
        <time>2019-06-15T09:28:37.028Z</time>
      </trkpt>
      <trkpt lat="45.04461" lon="5.3872">
        <ele>805</ele>
        <time>2019-06-15T09:28:38.028Z</time>
      </trkpt>
      <trkpt lat="45.04461" lon="5.38722">
        <ele>803</ele>
        <time>2019-06-15T09:28:39.028Z</time>
      </trkpt>
      <trkpt lat="45.04461" lon="5.38724">
        <ele>803</ele>
        <time>2019-06-15T09:28:40.028Z</time>
      </trkpt>
      <trkpt lat="45.0446" lon="5.38726">
        <ele>804</ele>
        <time>2019-06-15T09:28:41.028Z</time>
      </trkpt>
      <trkpt lat="45.0446" lon="5.38727">
        <ele>804</ele>
        <time>2019-06-15T09:28:42.028Z</time>
      </trkpt>
      <trkpt lat="45.04459" lon="5.38729">
        <ele>804</ele>
        <time>2019-06-15T09:28:43.028Z</time>
      </trkpt>
      <trkpt lat="45.04459" lon="5.38732">
        <ele>804</ele>
        <time>2019-06-15T09:28:44.028Z</time>
      </trkpt>
      <trkpt lat="45.04458" lon="5.38734">
        <ele>803</ele>
        <time>2019-06-15T09:28:45.028Z</time>
      </trkpt>
      <trkpt lat="45.04457" lon="5.38737">
        <ele>802</ele>
        <time>2019-06-15T09:28:46.028Z</time>
      </trkpt>
      <trkpt lat="45.04456" lon="5.3874">
        <ele>802</ele>
        <time>2019-06-15T09:28:47.028Z</time>
      </trkpt>
      <trkpt lat="45.04456" lon="5.38742">
        <ele>801</ele>
        <time>2019-06-15T09:28:48.028Z</time>
      </trkpt>
      <trkpt lat="45.04455" lon="5.38744">
        <ele>801</ele>
        <time>2019-06-15T09:28:49.028Z</time>
      </trkpt>
      <trkpt lat="45.04454" lon="5.38746">
        <ele>801</ele>
        <time>2019-06-15T09:28:50.028Z</time>
      </trkpt>
      <trkpt lat="45.04453" lon="5.38747">
        <ele>801</ele>
        <time>2019-06-15T09:28:51.028Z</time>
      </trkpt>
      <trkpt lat="45.04452" lon="5.38748">
        <ele>801</ele>
        <time>2019-06-15T09:28:52.028Z</time>
      </trkpt>
      <trkpt lat="45.04452" lon="5.38749">
        <ele>803</ele>
        <time>2019-06-15T09:28:53.028Z</time>
      </trkpt>
      <trkpt lat="45.04451" lon="5.3875">
        <ele>803</ele>
        <time>2019-06-15T09:28:54.028Z</time>
      </trkpt>
      <trkpt lat="45.0445" lon="5.38751">
        <ele>804</ele>
        <time>2019-06-15T09:28:55.028Z</time>
      </trkpt>
      <trkpt lat="45.0445" lon="5.38752">
        <ele>804</ele>
        <time>2019-06-15T09:28:56.028Z</time>
      </trkpt>
      <trkpt lat="45.04449" lon="5.38753">
        <ele>804</ele>
        <time>2019-06-15T09:28:57.028Z</time>
      </trkpt>
      <trkpt lat="45.04448" lon="5.38754">
        <ele>805</ele>
        <time>2019-06-15T09:28:58.028Z</time>
      </trkpt>
      <trkpt lat="45.04448" lon="5.38754">
        <ele>805</ele>
        <time>2019-06-15T09:28:59.028Z</time>
      </trkpt>
      <trkpt lat="45.04447" lon="5.38755">
        <ele>806</ele>
        <time>2019-06-15T09:29:00.028Z</time>
      </trkpt>
      <trkpt lat="45.04446" lon="5.38756">
        <ele>805</ele>
        <time>2019-06-15T09:29:01.028Z</time>
      </trkpt>
      <trkpt lat="45.04445" lon="5.38757">
        <ele>805</ele>
        <time>2019-06-15T09:29:02.028Z</time>
      </trkpt>
      <trkpt lat="45.04443" lon="5.38758">
        <ele>805</ele>
        <time>2019-06-15T09:29:03.028Z</time>
      </trkpt>
      <trkpt lat="45.04442" lon="5.38759">
        <ele>805</ele>
        <time>2019-06-15T09:29:04.028Z</time>
      </trkpt>
      <trkpt lat="45.04441" lon="5.38759">
        <ele>806</ele>
        <time>2019-06-15T09:29:05.028Z</time>
      </trkpt>
      <trkpt lat="45.0444" lon="5.3876">
        <ele>807</ele>
        <time>2019-06-15T09:29:06.028Z</time>
      </trkpt>
      <trkpt lat="45.04439" lon="5.3876">
        <ele>807</ele>
        <time>2019-06-15T09:29:07.028Z</time>
      </trkpt>
      <trkpt lat="45.04438" lon="5.38761">
        <ele>806</ele>
        <time>2019-06-15T09:29:08.028Z</time>
      </trkpt>
      <trkpt lat="45.04437" lon="5.38761">
        <ele>807</ele>
        <time>2019-06-15T09:29:09.028Z</time>
      </trkpt>
      <trkpt lat="45.04436" lon="5.38761">
        <ele>807</ele>
        <time>2019-06-15T09:29:10.028Z</time>
      </trkpt>
      <trkpt lat="45.04435" lon="5.38762">
        <ele>807</ele>
        <time>2019-06-15T09:29:11.028Z</time>
      </trkpt>
      <trkpt lat="45.04434" lon="5.38762">
        <ele>807</ele>
        <time>2019-06-15T09:29:12.028Z</time>
      </trkpt>
      <trkpt lat="45.04433" lon="5.38763">
        <ele>809</ele>
        <time>2019-06-15T09:29:13.028Z</time>
      </trkpt>
      <trkpt lat="45.04433" lon="5.38762">
        <ele>810</ele>
        <time>2019-06-15T09:29:14.028Z</time>
      </trkpt>
      <trkpt lat="45.04432" lon="5.38762">
        <ele>811</ele>
        <time>2019-06-15T09:29:15.028Z</time>
      </trkpt>
      <trkpt lat="45.04431" lon="5.38762">
        <ele>811</ele>
        <time>2019-06-15T09:29:16.028Z</time>
      </trkpt>
      <trkpt lat="45.0443" lon="5.38763">
        <ele>811</ele>
        <time>2019-06-15T09:29:17.028Z</time>
      </trkpt>
      <trkpt lat="45.04429" lon="5.38763">
        <ele>813</ele>
        <time>2019-06-15T09:29:18.028Z</time>
      </trkpt>
      <trkpt lat="45.04427" lon="5.38764">
        <ele>811</ele>
        <time>2019-06-15T09:29:19.028Z</time>
      </trkpt>
      <trkpt lat="45.04426" lon="5.38765">
        <ele>812</ele>
        <time>2019-06-15T09:29:20.028Z</time>
      </trkpt>
      <trkpt lat="45.04425" lon="5.38767">
        <ele>811</ele>
        <time>2019-06-15T09:29:21.028Z</time>
      </trkpt>
      <trkpt lat="45.04424" lon="5.38768">
        <ele>812</ele>
        <time>2019-06-15T09:29:22.028Z</time>
      </trkpt>
      <trkpt lat="45.04422" lon="5.38768">
        <ele>814</ele>
        <time>2019-06-15T09:29:23.028Z</time>
      </trkpt>
      <trkpt lat="45.04421" lon="5.38769">
        <ele>814</ele>
        <time>2019-06-15T09:29:24.028Z</time>
      </trkpt>
      <trkpt lat="45.04421" lon="5.3877">
        <ele>813</ele>
        <time>2019-06-15T09:29:25.028Z</time>
      </trkpt>
      <trkpt lat="45.0442" lon="5.38772">
        <ele>813</ele>
        <time>2019-06-15T09:29:26.028Z</time>
      </trkpt>
      <trkpt lat="45.04419" lon="5.38774">
        <ele>813</ele>
        <time>2019-06-15T09:29:27.028Z</time>
      </trkpt>
      <trkpt lat="45.04418" lon="5.38775">
        <ele>813</ele>
        <time>2019-06-15T09:29:28.028Z</time>
      </trkpt>
      <trkpt lat="45.04418" lon="5.38776">
        <ele>814</ele>
        <time>2019-06-15T09:29:29.028Z</time>
      </trkpt>
      <trkpt lat="45.04417" lon="5.38778">
        <ele>815</ele>
        <time>2019-06-15T09:29:30.028Z</time>
      </trkpt>
      <trkpt lat="45.04417" lon="5.38779">
        <ele>815</ele>
        <time>2019-06-15T09:29:31.028Z</time>
      </trkpt>
      <trkpt lat="45.04416" lon="5.3878">
        <ele>816</ele>
        <time>2019-06-15T09:29:32.028Z</time>
      </trkpt>
      <trkpt lat="45.04416" lon="5.3878">
        <ele>817</ele>
        <time>2019-06-15T09:29:33.028Z</time>
      </trkpt>
      <trkpt lat="45.04415" lon="5.38781">
        <ele>818</ele>
        <time>2019-06-15T09:29:34.028Z</time>
      </trkpt>
      <trkpt lat="45.04414" lon="5.38782">
        <ele>819</ele>
        <time>2019-06-15T09:29:35.028Z</time>
      </trkpt>
      <trkpt lat="45.04414" lon="5.38783">
        <ele>819</ele>
        <time>2019-06-15T09:29:36.028Z</time>
      </trkpt>
      <trkpt lat="45.04413" lon="5.38784">
        <ele>820</ele>
        <time>2019-06-15T09:29:37.028Z</time>
      </trkpt>
      <trkpt lat="45.04413" lon="5.38785">
        <ele>821</ele>
        <time>2019-06-15T09:29:38.028Z</time>
      </trkpt>
      <trkpt lat="45.04412" lon="5.38786">
        <ele>821</ele>
        <time>2019-06-15T09:29:39.028Z</time>
      </trkpt>
      <trkpt lat="45.04412" lon="5.38787">
        <ele>822</ele>
        <time>2019-06-15T09:29:40.028Z</time>
      </trkpt>
      <trkpt lat="45.04411" lon="5.38789">
        <ele>822</ele>
        <time>2019-06-15T09:29:41.028Z</time>
      </trkpt>
      <trkpt lat="45.0441" lon="5.3879">
        <ele>823</ele>
        <time>2019-06-15T09:29:42.028Z</time>
      </trkpt>
      <trkpt lat="45.04409" lon="5.38791">
        <ele>822</ele>
        <time>2019-06-15T09:29:43.028Z</time>
      </trkpt>
      <trkpt lat="45.04409" lon="5.38792">
        <ele>823</ele>
        <time>2019-06-15T09:29:44.028Z</time>
      </trkpt>
      <trkpt lat="45.04408" lon="5.38792">
        <ele>825</ele>
        <time>2019-06-15T09:29:45.028Z</time>
      </trkpt>
      <trkpt lat="45.04408" lon="5.38793">
        <ele>826</ele>
        <time>2019-06-15T09:29:46.028Z</time>
      </trkpt>
      <trkpt lat="45.04408" lon="5.38794">
        <ele>826</ele>
        <time>2019-06-15T09:29:47.028Z</time>
      </trkpt>
      <trkpt lat="45.04408" lon="5.38795">
        <ele>826</ele>
        <time>2019-06-15T09:29:48.028Z</time>
      </trkpt>
      <trkpt lat="45.04407" lon="5.38796">
        <ele>826</ele>
        <time>2019-06-15T09:29:49.028Z</time>
      </trkpt>
      <trkpt lat="45.04407" lon="5.38797">
        <ele>827</ele>
        <time>2019-06-15T09:29:50.028Z</time>
      </trkpt>
      <trkpt lat="45.04407" lon="5.38797">
        <ele>828</ele>
        <time>2019-06-15T09:29:51.028Z</time>
      </trkpt>
      <trkpt lat="45.04406" lon="5.38798">
        <ele>828</ele>
        <time>2019-06-15T09:29:52.028Z</time>
      </trkpt>
      <trkpt lat="45.04406" lon="5.38799">
        <ele>828</ele>
        <time>2019-06-15T09:29:53.028Z</time>
      </trkpt>
      <trkpt lat="45.04406" lon="5.388">
        <ele>829</ele>
        <time>2019-06-15T09:29:54.028Z</time>
      </trkpt>
      <trkpt lat="45.04405" lon="5.38801">
        <ele>829</ele>
        <time>2019-06-15T09:29:55.028Z</time>
      </trkpt>
      <trkpt lat="45.04405" lon="5.38802">
        <ele>830</ele>
        <time>2019-06-15T09:29:56.028Z</time>
      </trkpt>
      <trkpt lat="45.04406" lon="5.38803">
        <ele>831</ele>
        <time>2019-06-15T09:29:57.028Z</time>
      </trkpt>
      <trkpt lat="45.04406" lon="5.38804">
        <ele>831</ele>
        <time>2019-06-15T09:29:58.028Z</time>
      </trkpt>
      <trkpt lat="45.04407" lon="5.38805">
        <ele>832</ele>
        <time>2019-06-15T09:29:59.028Z</time>
      </trkpt>
      <trkpt lat="45.04407" lon="5.38806">
        <ele>832</ele>
        <time>2019-06-15T09:30:00.028Z</time>
      </trkpt>
      <trkpt lat="45.04407" lon="5.38807">
        <ele>832</ele>
        <time>2019-06-15T09:30:01.028Z</time>
      </trkpt>
      <trkpt lat="45.04407" lon="5.38808">
        <ele>832</ele>
        <time>2019-06-15T09:30:02.028Z</time>
      </trkpt>
      <trkpt lat="45.04407" lon="5.3881">
        <ele>832</ele>
        <time>2019-06-15T09:30:03.028Z</time>
      </trkpt>
      <trkpt lat="45.04408" lon="5.38811">
        <ele>832</ele>
        <time>2019-06-15T09:30:04.028Z</time>
      </trkpt>
      <trkpt lat="45.04408" lon="5.38812">
        <ele>832</ele>
        <time>2019-06-15T09:30:05.028Z</time>
      </trkpt>
      <trkpt lat="45.04408" lon="5.38813">
        <ele>832</ele>
        <time>2019-06-15T09:30:06.028Z</time>
      </trkpt>
      <trkpt lat="45.04408" lon="5.38814">
        <ele>832</ele>
        <time>2019-06-15T09:30:07.028Z</time>
      </trkpt>
      <trkpt lat="45.04408" lon="5.38815">
        <ele>832</ele>
        <time>2019-06-15T09:30:08.028Z</time>
      </trkpt>
      <trkpt lat="45.04408" lon="5.38817">
        <ele>832</ele>
        <time>2019-06-15T09:30:09.028Z</time>
      </trkpt>
      <trkpt lat="45.04408" lon="5.38818">
        <ele>832</ele>
        <time>2019-06-15T09:30:10.028Z</time>
      </trkpt>
      <trkpt lat="45.04408" lon="5.38819">
        <ele>832</ele>
        <time>2019-06-15T09:30:11.028Z</time>
      </trkpt>
      <trkpt lat="45.04408" lon="5.3882">
        <ele>833</ele>
        <time>2019-06-15T09:30:12.028Z</time>
      </trkpt>
      <trkpt lat="45.04408" lon="5.38821">
        <ele>833</ele>
        <time>2019-06-15T09:30:13.028Z</time>
      </trkpt>
      <trkpt lat="45.04407" lon="5.38822">
        <ele>834</ele>
        <time>2019-06-15T09:30:14.028Z</time>
      </trkpt>
      <trkpt lat="45.04407" lon="5.38822">
        <ele>835</ele>
        <time>2019-06-15T09:30:15.028Z</time>
      </trkpt>
      <trkpt lat="45.04406" lon="5.38823">
        <ele>835</ele>
        <time>2019-06-15T09:30:16.028Z</time>
      </trkpt>
      <trkpt lat="45.04406" lon="5.38823">
        <ele>836</ele>
        <time>2019-06-15T09:30:17.028Z</time>
      </trkpt>
      <trkpt lat="45.04405" lon="5.38824">
        <ele>835</ele>
        <time>2019-06-15T09:30:18.028Z</time>
      </trkpt>
      <trkpt lat="45.04404" lon="5.38826">
        <ele>834</ele>
        <time>2019-06-15T09:30:19.028Z</time>
      </trkpt>
      <trkpt lat="45.04404" lon="5.38828">
        <ele>835</ele>
        <time>2019-06-15T09:30:20.028Z</time>
      </trkpt>
      <trkpt lat="45.04404" lon="5.3883">
        <ele>837</ele>
        <time>2019-06-15T09:30:21.028Z</time>
      </trkpt>
      <trkpt lat="45.04404" lon="5.38831">
        <ele>837</ele>
        <time>2019-06-15T09:30:22.028Z</time>
      </trkpt>
      <trkpt lat="45.04404" lon="5.38832">
        <ele>838</ele>
        <time>2019-06-15T09:30:23.028Z</time>
      </trkpt>
      <trkpt lat="45.04404" lon="5.38833">
        <ele>839</ele>
        <time>2019-06-15T09:30:24.028Z</time>
      </trkpt>
      <trkpt lat="45.04404" lon="5.38834">
        <ele>838</ele>
        <time>2019-06-15T09:30:25.028Z</time>
      </trkpt>
      <trkpt lat="45.04404" lon="5.38835">
        <ele>837</ele>
        <time>2019-06-15T09:30:26.028Z</time>
      </trkpt>
      <trkpt lat="45.04404" lon="5.38838">
        <ele>837</ele>
        <time>2019-06-15T09:30:27.028Z</time>
      </trkpt>
      <trkpt lat="45.04403" lon="5.38839">
        <ele>837</ele>
        <time>2019-06-15T09:30:28.028Z</time>
      </trkpt>
      <trkpt lat="45.04403" lon="5.38841">
        <ele>837</ele>
        <time>2019-06-15T09:30:29.028Z</time>
      </trkpt>
      <trkpt lat="45.04402" lon="5.38842">
        <ele>837</ele>
        <time>2019-06-15T09:30:30.028Z</time>
      </trkpt>
      <trkpt lat="45.04402" lon="5.38844">
        <ele>836</ele>
        <time>2019-06-15T09:30:31.028Z</time>
      </trkpt>
      <trkpt lat="45.04402" lon="5.38845">
        <ele>836</ele>
        <time>2019-06-15T09:30:32.028Z</time>
      </trkpt>
      <trkpt lat="45.04403" lon="5.38847">
        <ele>835</ele>
        <time>2019-06-15T09:30:33.028Z</time>
      </trkpt>
      <trkpt lat="45.04403" lon="5.38848">
        <ele>835</ele>
        <time>2019-06-15T09:30:34.028Z</time>
      </trkpt>
      <trkpt lat="45.04403" lon="5.38849">
        <ele>835</ele>
        <time>2019-06-15T09:30:35.028Z</time>
      </trkpt>
      <trkpt lat="45.04403" lon="5.3885">
        <ele>836</ele>
        <time>2019-06-15T09:30:36.028Z</time>
      </trkpt>
      <trkpt lat="45.04402" lon="5.38851">
        <ele>836</ele>
        <time>2019-06-15T09:30:37.028Z</time>
      </trkpt>
      <trkpt lat="45.04402" lon="5.38852">
        <ele>836</ele>
        <time>2019-06-15T09:30:38.028Z</time>
      </trkpt>
      <trkpt lat="45.04402" lon="5.38854">
        <ele>836</ele>
        <time>2019-06-15T09:30:39.028Z</time>
      </trkpt>
      <trkpt lat="45.04402" lon="5.38855">
        <ele>836</ele>
        <time>2019-06-15T09:30:40.028Z</time>
      </trkpt>
      <trkpt lat="45.04401" lon="5.38856">
        <ele>835</ele>
        <time>2019-06-15T09:30:41.028Z</time>
      </trkpt>
      <trkpt lat="45.04401" lon="5.38858">
        <ele>835</ele>
        <time>2019-06-15T09:30:42.028Z</time>
      </trkpt>
      <trkpt lat="45.044" lon="5.38859">
        <ele>836</ele>
        <time>2019-06-15T09:30:43.028Z</time>
      </trkpt>
      <trkpt lat="45.04399" lon="5.3886">
        <ele>836</ele>
        <time>2019-06-15T09:30:44.028Z</time>
      </trkpt>
      <trkpt lat="45.04399" lon="5.38861">
        <ele>836</ele>
        <time>2019-06-15T09:30:45.028Z</time>
      </trkpt>
      <trkpt lat="45.04399" lon="5.38862">
        <ele>837</ele>
        <time>2019-06-15T09:30:46.028Z</time>
      </trkpt>
      <trkpt lat="45.04398" lon="5.38864">
        <ele>836</ele>
        <time>2019-06-15T09:30:47.028Z</time>
      </trkpt>
      <trkpt lat="45.04398" lon="5.38865">
        <ele>836</ele>
        <time>2019-06-15T09:30:48.028Z</time>
      </trkpt>
      <trkpt lat="45.04397" lon="5.38866">
        <ele>837</ele>
        <time>2019-06-15T09:30:49.028Z</time>
      </trkpt>
      <trkpt lat="45.04397" lon="5.38868">
        <ele>836</ele>
        <time>2019-06-15T09:30:50.028Z</time>
      </trkpt>
      <trkpt lat="45.04396" lon="5.38868">
        <ele>837</ele>
        <time>2019-06-15T09:30:51.028Z</time>
      </trkpt>
      <trkpt lat="45.04395" lon="5.3887">
        <ele>837</ele>
        <time>2019-06-15T09:30:52.028Z</time>
      </trkpt>
      <trkpt lat="45.04395" lon="5.38871">
        <ele>837</ele>
        <time>2019-06-15T09:30:53.028Z</time>
      </trkpt>
      <trkpt lat="45.04394" lon="5.38872">
        <ele>837</ele>
        <time>2019-06-15T09:30:54.028Z</time>
      </trkpt>
      <trkpt lat="45.04393" lon="5.38873">
        <ele>837</ele>
        <time>2019-06-15T09:30:55.028Z</time>
      </trkpt>
      <trkpt lat="45.04393" lon="5.38874">
        <ele>836</ele>
        <time>2019-06-15T09:30:56.028Z</time>
      </trkpt>
      <trkpt lat="45.04392" lon="5.38876">
        <ele>836</ele>
        <time>2019-06-15T09:30:57.028Z</time>
      </trkpt>
      <trkpt lat="45.04391" lon="5.38878">
        <ele>836</ele>
        <time>2019-06-15T09:30:58.028Z</time>
      </trkpt>
      <trkpt lat="45.04391" lon="5.38879">
        <ele>836</ele>
        <time>2019-06-15T09:30:59.028Z</time>
      </trkpt>
      <trkpt lat="45.0439" lon="5.3888">
        <ele>837</ele>
        <time>2019-06-15T09:31:00.028Z</time>
      </trkpt>
      <trkpt lat="45.04389" lon="5.38881">
        <ele>838</ele>
        <time>2019-06-15T09:31:01.028Z</time>
      </trkpt>
      <trkpt lat="45.04389" lon="5.38882">
        <ele>839</ele>
        <time>2019-06-15T09:31:02.028Z</time>
      </trkpt>
      <trkpt lat="45.04388" lon="5.38882">
        <ele>838</ele>
        <time>2019-06-15T09:31:03.028Z</time>
      </trkpt>
      <trkpt lat="45.04388" lon="5.38884">
        <ele>838</ele>
        <time>2019-06-15T09:31:04.028Z</time>
      </trkpt>
      <trkpt lat="45.04387" lon="5.38885">
        <ele>839</ele>
        <time>2019-06-15T09:31:05.028Z</time>
      </trkpt>
      <trkpt lat="45.04387" lon="5.38886">
        <ele>839</ele>
        <time>2019-06-15T09:31:06.028Z</time>
      </trkpt>
      <trkpt lat="45.04386" lon="5.38887">
        <ele>839</ele>
        <time>2019-06-15T09:31:07.028Z</time>
      </trkpt>
      <trkpt lat="45.04386" lon="5.38889">
        <ele>839</ele>
        <time>2019-06-15T09:31:08.028Z</time>
      </trkpt>
      <trkpt lat="45.04385" lon="5.3889">
        <ele>840</ele>
        <time>2019-06-15T09:31:09.028Z</time>
      </trkpt>
      <trkpt lat="45.04385" lon="5.38891">
        <ele>840</ele>
        <time>2019-06-15T09:31:10.028Z</time>
      </trkpt>
      <trkpt lat="45.04385" lon="5.38893">
        <ele>840</ele>
        <time>2019-06-15T09:31:11.028Z</time>
      </trkpt>
      <trkpt lat="45.04384" lon="5.38894">
        <ele>841</ele>
        <time>2019-06-15T09:31:12.028Z</time>
      </trkpt>
      <trkpt lat="45.04384" lon="5.38895">
        <ele>842</ele>
        <time>2019-06-15T09:31:13.028Z</time>
      </trkpt>
      <trkpt lat="45.04383" lon="5.38896">
        <ele>841</ele>
        <time>2019-06-15T09:31:14.028Z</time>
      </trkpt>
      <trkpt lat="45.04382" lon="5.38898">
        <ele>840</ele>
        <time>2019-06-15T09:31:15.028Z</time>
      </trkpt>
      <trkpt lat="45.04381" lon="5.38899">
        <ele>841</ele>
        <time>2019-06-15T09:31:16.028Z</time>
      </trkpt>
      <trkpt lat="45.0438" lon="5.389">
        <ele>841</ele>
        <time>2019-06-15T09:31:17.028Z</time>
      </trkpt>
      <trkpt lat="45.04379" lon="5.38901">
        <ele>841</ele>
        <time>2019-06-15T09:31:18.028Z</time>
      </trkpt>
      <trkpt lat="45.04378" lon="5.38902">
        <ele>842</ele>
        <time>2019-06-15T09:31:19.028Z</time>
      </trkpt>
      <trkpt lat="45.04378" lon="5.38903">
        <ele>841</ele>
        <time>2019-06-15T09:31:20.028Z</time>
      </trkpt>
      <trkpt lat="45.04377" lon="5.38905">
        <ele>841</ele>
        <time>2019-06-15T09:31:21.028Z</time>
      </trkpt>
      <trkpt lat="45.04376" lon="5.38906">
        <ele>841</ele>
        <time>2019-06-15T09:31:22.028Z</time>
      </trkpt>
      <trkpt lat="45.04375" lon="5.38907">
        <ele>842</ele>
        <time>2019-06-15T09:31:23.028Z</time>
      </trkpt>
      <trkpt lat="45.04374" lon="5.38908">
        <ele>841</ele>
        <time>2019-06-15T09:31:24.028Z</time>
      </trkpt>
      <trkpt lat="45.04374" lon="5.38909">
        <ele>842</ele>
        <time>2019-06-15T09:31:25.028Z</time>
      </trkpt>
      <trkpt lat="45.04373" lon="5.38911">
        <ele>842</ele>
        <time>2019-06-15T09:31:26.028Z</time>
      </trkpt>
      <trkpt lat="45.04372" lon="5.38912">
        <ele>841</ele>
        <time>2019-06-15T09:31:27.028Z</time>
      </trkpt>
      <trkpt lat="45.04371" lon="5.38913">
        <ele>842</ele>
        <time>2019-06-15T09:31:28.028Z</time>
      </trkpt>
      <trkpt lat="45.0437" lon="5.38914">
        <ele>842</ele>
        <time>2019-06-15T09:31:29.028Z</time>
      </trkpt>
      <trkpt lat="45.04369" lon="5.38915">
        <ele>842</ele>
        <time>2019-06-15T09:31:30.028Z</time>
      </trkpt>
      <trkpt lat="45.04368" lon="5.38916">
        <ele>843</ele>
        <time>2019-06-15T09:31:31.028Z</time>
      </trkpt>
      <trkpt lat="45.04367" lon="5.38917">
        <ele>843</ele>
        <time>2019-06-15T09:31:32.028Z</time>
      </trkpt>
      <trkpt lat="45.04366" lon="5.38918">
        <ele>844</ele>
        <time>2019-06-15T09:31:33.028Z</time>
      </trkpt>
      <trkpt lat="45.04365" lon="5.38919">
        <ele>844</ele>
        <time>2019-06-15T09:31:34.028Z</time>
      </trkpt>
      <trkpt lat="45.04364" lon="5.38921">
        <ele>844</ele>
        <time>2019-06-15T09:31:35.028Z</time>
      </trkpt>
      <trkpt lat="45.04364" lon="5.38922">
        <ele>845</ele>
        <time>2019-06-15T09:31:36.028Z</time>
      </trkpt>
      <trkpt lat="45.04363" lon="5.38924">
        <ele>846</ele>
        <time>2019-06-15T09:31:37.028Z</time>
      </trkpt>
      <trkpt lat="45.04361" lon="5.38925">
        <ele>846</ele>
        <time>2019-06-15T09:31:38.028Z</time>
      </trkpt>
      <trkpt lat="45.0436" lon="5.38927">
        <ele>846</ele>
        <time>2019-06-15T09:31:39.028Z</time>
      </trkpt>
      <trkpt lat="45.04359" lon="5.38928">
        <ele>847</ele>
        <time>2019-06-15T09:31:40.028Z</time>
      </trkpt>
      <trkpt lat="45.04358" lon="5.38929">
        <ele>847</ele>
        <time>2019-06-15T09:31:41.028Z</time>
      </trkpt>
      <trkpt lat="45.04357" lon="5.3893">
        <ele>847</ele>
        <time>2019-06-15T09:31:42.028Z</time>
      </trkpt>
      <trkpt lat="45.04357" lon="5.38931">
        <ele>847</ele>
        <time>2019-06-15T09:31:43.028Z</time>
      </trkpt>
      <trkpt lat="45.04357" lon="5.38932">
        <ele>848</ele>
        <time>2019-06-15T09:31:44.028Z</time>
      </trkpt>
      <trkpt lat="45.04356" lon="5.38934">
        <ele>849</ele>
        <time>2019-06-15T09:31:45.028Z</time>
      </trkpt>
      <trkpt lat="45.04356" lon="5.38935">
        <ele>850</ele>
        <time>2019-06-15T09:31:46.028Z</time>
      </trkpt>
      <trkpt lat="45.04355" lon="5.38936">
        <ele>851</ele>
        <time>2019-06-15T09:31:47.028Z</time>
      </trkpt>
      <trkpt lat="45.04354" lon="5.38937">
        <ele>850</ele>
        <time>2019-06-15T09:31:48.028Z</time>
      </trkpt>
      <trkpt lat="45.04353" lon="5.38939">
        <ele>851</ele>
        <time>2019-06-15T09:31:49.028Z</time>
      </trkpt>
      <trkpt lat="45.04352" lon="5.38941">
        <ele>851</ele>
        <time>2019-06-15T09:31:50.028Z</time>
      </trkpt>
      <trkpt lat="45.04351" lon="5.38943">
        <ele>853</ele>
        <time>2019-06-15T09:31:51.028Z</time>
      </trkpt>
      <trkpt lat="45.0435" lon="5.38944">
        <ele>853</ele>
        <time>2019-06-15T09:31:52.028Z</time>
      </trkpt>
      <trkpt lat="45.0435" lon="5.38946">
        <ele>853</ele>
        <time>2019-06-15T09:31:53.028Z</time>
      </trkpt>
      <trkpt lat="45.04349" lon="5.38947">
        <ele>852</ele>
        <time>2019-06-15T09:31:54.028Z</time>
      </trkpt>
      <trkpt lat="45.04348" lon="5.38949">
        <ele>853</ele>
        <time>2019-06-15T09:31:55.028Z</time>
      </trkpt>
      <trkpt lat="45.04347" lon="5.3895">
        <ele>853</ele>
        <time>2019-06-15T09:31:56.028Z</time>
      </trkpt>
      <trkpt lat="45.04346" lon="5.38951">
        <ele>852</ele>
        <time>2019-06-15T09:31:57.028Z</time>
      </trkpt>
      <trkpt lat="45.04345" lon="5.38953">
        <ele>853</ele>
        <time>2019-06-15T09:31:58.028Z</time>
      </trkpt>
      <trkpt lat="45.04345" lon="5.38954">
        <ele>853</ele>
        <time>2019-06-15T09:31:59.028Z</time>
      </trkpt>
      <trkpt lat="45.04345" lon="5.38955">
        <ele>854</ele>
        <time>2019-06-15T09:32:00.028Z</time>
      </trkpt>
      <trkpt lat="45.04345" lon="5.38956">
        <ele>854</ele>
        <time>2019-06-15T09:32:01.028Z</time>
      </trkpt>
      <trkpt lat="45.04344" lon="5.38957">
        <ele>854</ele>
        <time>2019-06-15T09:32:02.028Z</time>
      </trkpt>
      <trkpt lat="45.04344" lon="5.38958">
        <ele>854</ele>
        <time>2019-06-15T09:32:03.028Z</time>
      </trkpt>
      <trkpt lat="45.04343" lon="5.38959">
        <ele>855</ele>
        <time>2019-06-15T09:32:04.028Z</time>
      </trkpt>
      <trkpt lat="45.04343" lon="5.3896">
        <ele>855</ele>
        <time>2019-06-15T09:32:05.028Z</time>
      </trkpt>
      <trkpt lat="45.04342" lon="5.38961">
        <ele>857</ele>
        <time>2019-06-15T09:32:06.028Z</time>
      </trkpt>
      <trkpt lat="45.04341" lon="5.38961">
        <ele>858</ele>
        <time>2019-06-15T09:32:07.028Z</time>
      </trkpt>
      <trkpt lat="45.0434" lon="5.38961">
        <ele>859</ele>
        <time>2019-06-15T09:32:08.028Z</time>
      </trkpt>
      <trkpt lat="45.04339" lon="5.38962">
        <ele>860</ele>
        <time>2019-06-15T09:32:09.028Z</time>
      </trkpt>
      <trkpt lat="45.04338" lon="5.38963">
        <ele>861</ele>
        <time>2019-06-15T09:32:10.028Z</time>
      </trkpt>
      <trkpt lat="45.04337" lon="5.38965">
        <ele>862</ele>
        <time>2019-06-15T09:32:11.028Z</time>
      </trkpt>
      <trkpt lat="45.04336" lon="5.38966">
        <ele>863</ele>
        <time>2019-06-15T09:32:12.028Z</time>
      </trkpt>
      <trkpt lat="45.04336" lon="5.38967">
        <ele>864</ele>
        <time>2019-06-15T09:32:13.028Z</time>
      </trkpt>
      <trkpt lat="45.04335" lon="5.38968">
        <ele>865</ele>
        <time>2019-06-15T09:32:14.028Z</time>
      </trkpt>
      <trkpt lat="45.04334" lon="5.38969">
        <ele>864</ele>
        <time>2019-06-15T09:32:15.028Z</time>
      </trkpt>
      <trkpt lat="45.04333" lon="5.38971">
        <ele>864</ele>
        <time>2019-06-15T09:32:16.028Z</time>
      </trkpt>
      <trkpt lat="45.04333" lon="5.38973">
        <ele>864</ele>
        <time>2019-06-15T09:32:17.028Z</time>
      </trkpt>
      <trkpt lat="45.04332" lon="5.38974">
        <ele>864</ele>
        <time>2019-06-15T09:32:18.028Z</time>
      </trkpt>
      <trkpt lat="45.04332" lon="5.38975">
        <ele>864</ele>
        <time>2019-06-15T09:32:19.028Z</time>
      </trkpt>
      <trkpt lat="45.04331" lon="5.38977">
        <ele>865</ele>
        <time>2019-06-15T09:32:20.028Z</time>
      </trkpt>
      <trkpt lat="45.0433" lon="5.38978">
        <ele>865</ele>
        <time>2019-06-15T09:32:21.028Z</time>
      </trkpt>
      <trkpt lat="45.04329" lon="5.3898">
        <ele>865</ele>
        <time>2019-06-15T09:32:22.028Z</time>
      </trkpt>
      <trkpt lat="45.04328" lon="5.38981">
        <ele>865</ele>
        <time>2019-06-15T09:32:23.028Z</time>
      </trkpt>
      <trkpt lat="45.04326" lon="5.38983">
        <ele>864</ele>
        <time>2019-06-15T09:32:24.028Z</time>
      </trkpt>
      <trkpt lat="45.04325" lon="5.38985">
        <ele>865</ele>
        <time>2019-06-15T09:32:25.028Z</time>
      </trkpt>
      <trkpt lat="45.04324" lon="5.38987">
        <ele>864</ele>
        <time>2019-06-15T09:32:26.028Z</time>
      </trkpt>
      <trkpt lat="45.04323" lon="5.38989">
        <ele>864</ele>
        <time>2019-06-15T09:32:27.028Z</time>
      </trkpt>
      <trkpt lat="45.04321" lon="5.3899">
        <ele>863</ele>
        <time>2019-06-15T09:32:28.028Z</time>
      </trkpt>
      <trkpt lat="45.04321" lon="5.38991">
        <ele>863</ele>
        <time>2019-06-15T09:32:29.028Z</time>
      </trkpt>
      <trkpt lat="45.0432" lon="5.38993">
        <ele>862</ele>
        <time>2019-06-15T09:32:30.028Z</time>
      </trkpt>
      <trkpt lat="45.04319" lon="5.38995">
        <ele>862</ele>
        <time>2019-06-15T09:32:31.028Z</time>
      </trkpt>
      <trkpt lat="45.04319" lon="5.38998">
        <ele>862</ele>
        <time>2019-06-15T09:32:32.028Z</time>
      </trkpt>
      <trkpt lat="45.04318" lon="5.38999">
        <ele>863</ele>
        <time>2019-06-15T09:32:33.028Z</time>
      </trkpt>
      <trkpt lat="45.04317" lon="5.39">
        <ele>864</ele>
        <time>2019-06-15T09:32:34.028Z</time>
      </trkpt>
      <trkpt lat="45.04316" lon="5.39001">
        <ele>863</ele>
        <time>2019-06-15T09:32:35.028Z</time>
      </trkpt>
      <trkpt lat="45.04316" lon="5.39002">
        <ele>863</ele>
        <time>2019-06-15T09:32:36.028Z</time>
      </trkpt>
      <trkpt lat="45.04315" lon="5.39003">
        <ele>864</ele>
        <time>2019-06-15T09:32:37.028Z</time>
      </trkpt>
      <trkpt lat="45.04314" lon="5.39004">
        <ele>864</ele>
        <time>2019-06-15T09:32:38.028Z</time>
      </trkpt>
      <trkpt lat="45.04312" lon="5.39005">
        <ele>864</ele>
        <time>2019-06-15T09:32:39.028Z</time>
      </trkpt>
      <trkpt lat="45.04311" lon="5.39008">
        <ele>863</ele>
        <time>2019-06-15T09:32:40.028Z</time>
      </trkpt>
      <trkpt lat="45.0431" lon="5.3901">
        <ele>863</ele>
        <time>2019-06-15T09:32:41.028Z</time>
      </trkpt>
      <trkpt lat="45.04309" lon="5.39013">
        <ele>862</ele>
        <time>2019-06-15T09:32:42.028Z</time>
      </trkpt>
      <trkpt lat="45.04307" lon="5.39016">
        <ele>862</ele>
        <time>2019-06-15T09:32:43.028Z</time>
      </trkpt>
      <trkpt lat="45.04306" lon="5.39018">
        <ele>862</ele>
        <time>2019-06-15T09:32:44.028Z</time>
      </trkpt>
      <trkpt lat="45.04304" lon="5.3902">
        <ele>861</ele>
        <time>2019-06-15T09:32:45.028Z</time>
      </trkpt>
      <trkpt lat="45.04303" lon="5.39022">
        <ele>863</ele>
        <time>2019-06-15T09:32:46.028Z</time>
      </trkpt>
      <trkpt lat="45.04302" lon="5.39022">
        <ele>865</ele>
        <time>2019-06-15T09:32:47.028Z</time>
      </trkpt>
      <trkpt lat="45.04301" lon="5.39021">
        <ele>867</ele>
        <time>2019-06-15T09:32:48.028Z</time>
      </trkpt>
      <trkpt lat="45.043" lon="5.39021">
        <ele>868</ele>
        <time>2019-06-15T09:32:49.028Z</time>
      </trkpt>
      <trkpt lat="45.043" lon="5.39021">
        <ele>870</ele>
        <time>2019-06-15T09:32:50.028Z</time>
      </trkpt>
      <trkpt lat="45.043" lon="5.3902">
        <ele>872</ele>
        <time>2019-06-15T09:32:51.028Z</time>
      </trkpt>
      <trkpt lat="45.04299" lon="5.3902">
        <ele>872</ele>
        <time>2019-06-15T09:32:52.028Z</time>
      </trkpt>
      <trkpt lat="45.04299" lon="5.3902">
        <ele>873</ele>
        <time>2019-06-15T09:32:53.028Z</time>
      </trkpt>
      <trkpt lat="45.04299" lon="5.3902">
        <ele>874</ele>
        <time>2019-06-15T09:32:54.028Z</time>
      </trkpt>
      <trkpt lat="45.04299" lon="5.39021">
        <ele>874</ele>
        <time>2019-06-15T09:32:55.028Z</time>
      </trkpt>
      <trkpt lat="45.04298" lon="5.39022">
        <ele>873</ele>
        <time>2019-06-15T09:32:56.028Z</time>
      </trkpt>
      <trkpt lat="45.04298" lon="5.39023">
        <ele>873</ele>
        <time>2019-06-15T09:32:57.028Z</time>
      </trkpt>
      <trkpt lat="45.04297" lon="5.39025">
        <ele>872</ele>
        <time>2019-06-15T09:32:58.028Z</time>
      </trkpt>
      <trkpt lat="45.04295" lon="5.39025">
        <ele>873</ele>
        <time>2019-06-15T09:32:59.028Z</time>
      </trkpt>
      <trkpt lat="45.04294" lon="5.39026">
        <ele>873</ele>
        <time>2019-06-15T09:33:00.028Z</time>
      </trkpt>
      <trkpt lat="45.04293" lon="5.39026">
        <ele>874</ele>
        <time>2019-06-15T09:33:01.028Z</time>
      </trkpt>
      <trkpt lat="45.04292" lon="5.39027">
        <ele>875</ele>
        <time>2019-06-15T09:33:02.028Z</time>
      </trkpt>
      <trkpt lat="45.04291" lon="5.39028">
        <ele>876</ele>
        <time>2019-06-15T09:33:03.028Z</time>
      </trkpt>
      <trkpt lat="45.04289" lon="5.3903">
        <ele>876</ele>
        <time>2019-06-15T09:33:04.028Z</time>
      </trkpt>
      <trkpt lat="45.04288" lon="5.39031">
        <ele>877</ele>
        <time>2019-06-15T09:33:05.028Z</time>
      </trkpt>
      <trkpt lat="45.04287" lon="5.39034">
        <ele>875</ele>
        <time>2019-06-15T09:33:06.028Z</time>
      </trkpt>
      <trkpt lat="45.04285" lon="5.39035">
        <ele>875</ele>
        <time>2019-06-15T09:33:07.028Z</time>
      </trkpt>
      <trkpt lat="45.04284" lon="5.39037">
        <ele>875</ele>
        <time>2019-06-15T09:33:08.028Z</time>
      </trkpt>
      <trkpt lat="45.04282" lon="5.39039">
        <ele>876</ele>
        <time>2019-06-15T09:33:09.028Z</time>
      </trkpt>
      <trkpt lat="45.0428" lon="5.3904">
        <ele>877</ele>
        <time>2019-06-15T09:33:10.028Z</time>
      </trkpt>
      <trkpt lat="45.04278" lon="5.3904">
        <ele>878</ele>
        <time>2019-06-15T09:33:11.028Z</time>
      </trkpt>
      <trkpt lat="45.04275" lon="5.3904">
        <ele>877</ele>
        <time>2019-06-15T09:33:12.028Z</time>
      </trkpt>
      <trkpt lat="45.04273" lon="5.39042">
        <ele>877</ele>
        <time>2019-06-15T09:33:13.028Z</time>
      </trkpt>
      <trkpt lat="45.04272" lon="5.39045">
        <ele>876</ele>
        <time>2019-06-15T09:33:14.028Z</time>
      </trkpt>
      <trkpt lat="45.04271" lon="5.39048">
        <ele>875</ele>
        <time>2019-06-15T09:33:15.028Z</time>
      </trkpt>
      <trkpt lat="45.04269" lon="5.3905">
        <ele>875</ele>
        <time>2019-06-15T09:33:16.028Z</time>
      </trkpt>
      <trkpt lat="45.04267" lon="5.39053">
        <ele>875</ele>
        <time>2019-06-15T09:33:17.028Z</time>
      </trkpt>
      <trkpt lat="45.04265" lon="5.39055">
        <ele>875</ele>
        <time>2019-06-15T09:33:18.028Z</time>
      </trkpt>
      <trkpt lat="45.04263" lon="5.39057">
        <ele>876</ele>
        <time>2019-06-15T09:33:19.028Z</time>
      </trkpt>
      <trkpt lat="45.0426" lon="5.39057">
        <ele>877</ele>
        <time>2019-06-15T09:33:20.028Z</time>
      </trkpt>
      <trkpt lat="45.04258" lon="5.39058">
        <ele>878</ele>
        <time>2019-06-15T09:33:21.028Z</time>
      </trkpt>
      <trkpt lat="45.04257" lon="5.3906">
        <ele>878</ele>
        <time>2019-06-15T09:33:22.028Z</time>
      </trkpt>
      <trkpt lat="45.04255" lon="5.39061">
        <ele>879</ele>
        <time>2019-06-15T09:33:23.028Z</time>
      </trkpt>
      <trkpt lat="45.04254" lon="5.39063">
        <ele>879</ele>
        <time>2019-06-15T09:33:24.028Z</time>
      </trkpt>
      <trkpt lat="45.04252" lon="5.39064">
        <ele>880</ele>
        <time>2019-06-15T09:33:25.028Z</time>
      </trkpt>
      <trkpt lat="45.0425" lon="5.39064">
        <ele>881</ele>
        <time>2019-06-15T09:33:26.028Z</time>
      </trkpt>
      <trkpt lat="45.04249" lon="5.39066">
        <ele>881</ele>
        <time>2019-06-15T09:33:27.028Z</time>
      </trkpt>
      <trkpt lat="45.04247" lon="5.39067">
        <ele>881</ele>
        <time>2019-06-15T09:33:28.028Z</time>
      </trkpt>
      <trkpt lat="45.04246" lon="5.39069">
        <ele>882</ele>
        <time>2019-06-15T09:33:29.028Z</time>
      </trkpt>
      <trkpt lat="45.04244" lon="5.3907">
        <ele>882</ele>
        <time>2019-06-15T09:33:30.028Z</time>
      </trkpt>
      <trkpt lat="45.04243" lon="5.39072">
        <ele>883</ele>
        <time>2019-06-15T09:33:31.028Z</time>
      </trkpt>
      <trkpt lat="45.04242" lon="5.39073">
        <ele>883</ele>
        <time>2019-06-15T09:33:32.028Z</time>
      </trkpt>
      <trkpt lat="45.0424" lon="5.39075">
        <ele>883</ele>
        <time>2019-06-15T09:33:33.028Z</time>
      </trkpt>
      <trkpt lat="45.04239" lon="5.39077">
        <ele>883</ele>
        <time>2019-06-15T09:33:34.028Z</time>
      </trkpt>
      <trkpt lat="45.04237" lon="5.3908">
        <ele>883</ele>
        <time>2019-06-15T09:33:35.028Z</time>
      </trkpt>
      <trkpt lat="45.04236" lon="5.39083">
        <ele>883</ele>
        <time>2019-06-15T09:33:36.028Z</time>
      </trkpt>
      <trkpt lat="45.04235" lon="5.39086">
        <ele>883</ele>
        <time>2019-06-15T09:33:37.028Z</time>
      </trkpt>
      <trkpt lat="45.04234" lon="5.39088">
        <ele>883</ele>
        <time>2019-06-15T09:33:38.028Z</time>
      </trkpt>
      <trkpt lat="45.04233" lon="5.3909">
        <ele>883</ele>
        <time>2019-06-15T09:33:39.028Z</time>
      </trkpt>
      <trkpt lat="45.04232" lon="5.39092">
        <ele>883</ele>
        <time>2019-06-15T09:33:40.028Z</time>
      </trkpt>
      <trkpt lat="45.04231" lon="5.39094">
        <ele>882</ele>
        <time>2019-06-15T09:33:41.028Z</time>
      </trkpt>
      <trkpt lat="45.0423" lon="5.39097">
        <ele>882</ele>
        <time>2019-06-15T09:33:42.028Z</time>
      </trkpt>
      <trkpt lat="45.04229" lon="5.39099">
        <ele>882</ele>
        <time>2019-06-15T09:33:43.028Z</time>
      </trkpt>
      <trkpt lat="45.04228" lon="5.39101">
        <ele>882</ele>
        <time>2019-06-15T09:33:44.028Z</time>
      </trkpt>
      <trkpt lat="45.04226" lon="5.39103">
        <ele>882</ele>
        <time>2019-06-15T09:33:45.028Z</time>
      </trkpt>
      <trkpt lat="45.04224" lon="5.39105">
        <ele>882</ele>
        <time>2019-06-15T09:33:46.028Z</time>
      </trkpt>
      <trkpt lat="45.04222" lon="5.39107">
        <ele>883</ele>
        <time>2019-06-15T09:33:47.028Z</time>
      </trkpt>
      <trkpt lat="45.0422" lon="5.39109">
        <ele>883</ele>
        <time>2019-06-15T09:33:48.028Z</time>
      </trkpt>
      <trkpt lat="45.04218" lon="5.39111">
        <ele>883</ele>
        <time>2019-06-15T09:33:49.028Z</time>
      </trkpt>
      <trkpt lat="45.04217" lon="5.39113">
        <ele>883</ele>
        <time>2019-06-15T09:33:50.028Z</time>
      </trkpt>
      <trkpt lat="45.04215" lon="5.39115">
        <ele>884</ele>
        <time>2019-06-15T09:33:51.028Z</time>
      </trkpt>
      <trkpt lat="45.04214" lon="5.39117">
        <ele>884</ele>
        <time>2019-06-15T09:33:52.028Z</time>
      </trkpt>
      <trkpt lat="45.04212" lon="5.39118">
        <ele>885</ele>
        <time>2019-06-15T09:33:53.028Z</time>
      </trkpt>
      <trkpt lat="45.0421" lon="5.39119">
        <ele>885</ele>
        <time>2019-06-15T09:33:54.028Z</time>
      </trkpt>
      <trkpt lat="45.04208" lon="5.3912">
        <ele>885</ele>
        <time>2019-06-15T09:33:55.028Z</time>
      </trkpt>
      <trkpt lat="45.04207" lon="5.39121">
        <ele>885</ele>
        <time>2019-06-15T09:33:56.028Z</time>
      </trkpt>
      <trkpt lat="45.04206" lon="5.39123">
        <ele>886</ele>
        <time>2019-06-15T09:33:57.028Z</time>
      </trkpt>
      <trkpt lat="45.04204" lon="5.39124">
        <ele>887</ele>
        <time>2019-06-15T09:33:58.028Z</time>
      </trkpt>
      <trkpt lat="45.04202" lon="5.39125">
        <ele>888</ele>
        <time>2019-06-15T09:33:59.028Z</time>
      </trkpt>
      <trkpt lat="45.042" lon="5.39127">
        <ele>888</ele>
        <time>2019-06-15T09:34:00.028Z</time>
      </trkpt>
      <trkpt lat="45.04198" lon="5.39128">
        <ele>889</ele>
        <time>2019-06-15T09:34:01.028Z</time>
      </trkpt>
      <trkpt lat="45.04196" lon="5.39129">
        <ele>889</ele>
        <time>2019-06-15T09:34:02.028Z</time>
      </trkpt>
      <trkpt lat="45.04194" lon="5.39129">
        <ele>889</ele>
        <time>2019-06-15T09:34:03.028Z</time>
      </trkpt>
      <trkpt lat="45.04193" lon="5.3913">
        <ele>890</ele>
        <time>2019-06-15T09:34:04.028Z</time>
      </trkpt>
      <trkpt lat="45.04192" lon="5.39132">
        <ele>890</ele>
        <time>2019-06-15T09:34:05.028Z</time>
      </trkpt>
      <trkpt lat="45.0419" lon="5.39133">
        <ele>890</ele>
        <time>2019-06-15T09:34:06.028Z</time>
      </trkpt>
      <trkpt lat="45.04188" lon="5.39134">
        <ele>891</ele>
        <time>2019-06-15T09:34:07.028Z</time>
      </trkpt>
      <trkpt lat="45.04186" lon="5.39135">
        <ele>891</ele>
        <time>2019-06-15T09:34:08.028Z</time>
      </trkpt>
      <trkpt lat="45.04184" lon="5.39136">
        <ele>891</ele>
        <time>2019-06-15T09:34:09.028Z</time>
      </trkpt>
      <trkpt lat="45.04182" lon="5.39138">
        <ele>891</ele>
        <time>2019-06-15T09:34:10.028Z</time>
      </trkpt>
      <trkpt lat="45.0418" lon="5.39139">
        <ele>891</ele>
        <time>2019-06-15T09:34:11.028Z</time>
      </trkpt>
      <trkpt lat="45.04179" lon="5.39141">
        <ele>891</ele>
        <time>2019-06-15T09:34:12.028Z</time>
      </trkpt>
      <trkpt lat="45.04177" lon="5.39142">
        <ele>891</ele>
        <time>2019-06-15T09:34:13.028Z</time>
      </trkpt>
      <trkpt lat="45.04175" lon="5.39143">
        <ele>891</ele>
        <time>2019-06-15T09:34:14.028Z</time>
      </trkpt>
      <trkpt lat="45.04174" lon="5.39144">
        <ele>891</ele>
        <time>2019-06-15T09:34:15.028Z</time>
      </trkpt>
      <trkpt lat="45.04173" lon="5.39146">
        <ele>891</ele>
        <time>2019-06-15T09:34:16.028Z</time>
      </trkpt>
      <trkpt lat="45.04172" lon="5.39146">
        <ele>892</ele>
        <time>2019-06-15T09:34:17.028Z</time>
      </trkpt>
      <trkpt lat="45.04171" lon="5.39148">
        <ele>891</ele>
        <time>2019-06-15T09:34:18.028Z</time>
      </trkpt>
      <trkpt lat="45.0417" lon="5.39149">
        <ele>891</ele>
        <time>2019-06-15T09:34:19.028Z</time>
      </trkpt>
      <trkpt lat="45.04168" lon="5.39151">
        <ele>891</ele>
        <time>2019-06-15T09:34:20.028Z</time>
      </trkpt>
      <trkpt lat="45.04168" lon="5.39152">
        <ele>892</ele>
        <time>2019-06-15T09:34:21.028Z</time>
      </trkpt>
      <trkpt lat="45.04167" lon="5.39152">
        <ele>891</ele>
        <time>2019-06-15T09:34:22.028Z</time>
      </trkpt>
      <trkpt lat="45.04166" lon="5.39153">
        <ele>891</ele>
        <time>2019-06-15T09:34:23.028Z</time>
      </trkpt>
      <trkpt lat="45.04166" lon="5.39154">
        <ele>891</ele>
        <time>2019-06-15T09:34:24.028Z</time>
      </trkpt>
      <trkpt lat="45.04165" lon="5.39154">
        <ele>892</ele>
        <time>2019-06-15T09:34:25.028Z</time>
      </trkpt>
      <trkpt lat="45.04164" lon="5.39154">
        <ele>892</ele>
        <time>2019-06-15T09:34:26.028Z</time>
      </trkpt>
      <trkpt lat="45.04164" lon="5.39154">
        <ele>892</ele>
        <time>2019-06-15T09:34:27.028Z</time>
      </trkpt>
      <trkpt lat="45.04164" lon="5.39154">
        <ele>891</ele>
        <time>2019-06-15T09:34:28.028Z</time>
      </trkpt>
      <trkpt lat="45.04163" lon="5.39154">
        <ele>890</ele>
        <time>2019-06-15T09:34:29.028Z</time>
      </trkpt>
      <trkpt lat="45.04162" lon="5.39154">
        <ele>890</ele>
        <time>2019-06-15T09:34:30.028Z</time>
      </trkpt>
      <trkpt lat="45.04161" lon="5.39154">
        <ele>890</ele>
        <time>2019-06-15T09:34:31.028Z</time>
      </trkpt>
      <trkpt lat="45.0416" lon="5.39154">
        <ele>889</ele>
        <time>2019-06-15T09:34:32.028Z</time>
      </trkpt>
      <trkpt lat="45.04159" lon="5.39154">
        <ele>889</ele>
        <time>2019-06-15T09:34:33.028Z</time>
      </trkpt>
      <trkpt lat="45.04159" lon="5.39154">
        <ele>888</ele>
        <time>2019-06-15T09:34:34.028Z</time>
      </trkpt>
      <trkpt lat="45.04158" lon="5.39154">
        <ele>888</ele>
        <time>2019-06-15T09:34:35.028Z</time>
      </trkpt>
      <trkpt lat="45.04157" lon="5.39154">
        <ele>889</ele>
        <time>2019-06-15T09:34:36.028Z</time>
      </trkpt>
      <trkpt lat="45.04156" lon="5.39154">
        <ele>889</ele>
        <time>2019-06-15T09:34:37.028Z</time>
      </trkpt>
      <trkpt lat="45.04156" lon="5.39155">
        <ele>886</ele>
        <time>2019-06-15T09:34:38.028Z</time>
      </trkpt>
      <trkpt lat="45.04155" lon="5.39156">
        <ele>886</ele>
        <time>2019-06-15T09:34:39.028Z</time>
      </trkpt>
      <trkpt lat="45.04153" lon="5.39157">
        <ele>885</ele>
        <time>2019-06-15T09:34:40.028Z</time>
      </trkpt>
      <trkpt lat="45.04152" lon="5.39157">
        <ele>884</ele>
        <time>2019-06-15T09:34:41.028Z</time>
      </trkpt>
      <trkpt lat="45.04151" lon="5.39157">
        <ele>884</ele>
        <time>2019-06-15T09:34:42.028Z</time>
      </trkpt>
      <trkpt lat="45.0415" lon="5.39157">
        <ele>884</ele>
        <time>2019-06-15T09:34:43.028Z</time>
      </trkpt>
      <trkpt lat="45.04148" lon="5.39156">
        <ele>884</ele>
        <time>2019-06-15T09:34:44.028Z</time>
      </trkpt>
      <trkpt lat="45.04147" lon="5.39156">
        <ele>884</ele>
        <time>2019-06-15T09:34:45.028Z</time>
      </trkpt>
      <trkpt lat="45.04145" lon="5.39155">
        <ele>884</ele>
        <time>2019-06-15T09:34:46.028Z</time>
      </trkpt>
      <trkpt lat="45.04144" lon="5.39155">
        <ele>884</ele>
        <time>2019-06-15T09:34:47.028Z</time>
      </trkpt>
      <trkpt lat="45.04143" lon="5.39155">
        <ele>884</ele>
        <time>2019-06-15T09:34:48.028Z</time>
      </trkpt>
      <trkpt lat="45.04142" lon="5.39156">
        <ele>883</ele>
        <time>2019-06-15T09:34:49.028Z</time>
      </trkpt>
      <trkpt lat="45.04141" lon="5.39157">
        <ele>883</ele>
        <time>2019-06-15T09:34:50.028Z</time>
      </trkpt>
      <trkpt lat="45.0414" lon="5.39158">
        <ele>882</ele>
        <time>2019-06-15T09:34:51.028Z</time>
      </trkpt>
      <trkpt lat="45.04139" lon="5.39158">
        <ele>882</ele>
        <time>2019-06-15T09:34:52.028Z</time>
      </trkpt>
      <trkpt lat="45.04138" lon="5.39158">
        <ele>883</ele>
        <time>2019-06-15T09:34:53.028Z</time>
      </trkpt>
      <trkpt lat="45.04137" lon="5.39158">
        <ele>883</ele>
        <time>2019-06-15T09:34:54.028Z</time>
      </trkpt>
      <trkpt lat="45.04136" lon="5.39157">
        <ele>883</ele>
        <time>2019-06-15T09:34:55.028Z</time>
      </trkpt>
      <trkpt lat="45.04135" lon="5.39156">
        <ele>883</ele>
        <time>2019-06-15T09:34:56.028Z</time>
      </trkpt>
      <trkpt lat="45.04134" lon="5.39154">
        <ele>883</ele>
        <time>2019-06-15T09:34:57.028Z</time>
      </trkpt>
      <trkpt lat="45.04134" lon="5.39153">
        <ele>883</ele>
        <time>2019-06-15T09:34:58.028Z</time>
      </trkpt>
      <trkpt lat="45.04133" lon="5.39153">
        <ele>882</ele>
        <time>2019-06-15T09:34:59.028Z</time>
      </trkpt>
      <trkpt lat="45.04132" lon="5.39154">
        <ele>883</ele>
        <time>2019-06-15T09:35:00.028Z</time>
      </trkpt>
      <trkpt lat="45.04131" lon="5.39155">
        <ele>883</ele>
        <time>2019-06-15T09:35:01.028Z</time>
      </trkpt>
      <trkpt lat="45.0413" lon="5.39156">
        <ele>883</ele>
        <time>2019-06-15T09:35:02.028Z</time>
      </trkpt>
      <trkpt lat="45.04129" lon="5.39156">
        <ele>884</ele>
        <time>2019-06-15T09:35:03.028Z</time>
      </trkpt>
      <trkpt lat="45.04127" lon="5.39157">
        <ele>883</ele>
        <time>2019-06-15T09:35:04.028Z</time>
      </trkpt>
      <trkpt lat="45.04126" lon="5.39157">
        <ele>884</ele>
        <time>2019-06-15T09:35:05.028Z</time>
      </trkpt>
      <trkpt lat="45.04124" lon="5.39157">
        <ele>883</ele>
        <time>2019-06-15T09:35:06.028Z</time>
      </trkpt>
      <trkpt lat="45.04123" lon="5.39157">
        <ele>883</ele>
        <time>2019-06-15T09:35:07.028Z</time>
      </trkpt>
      <trkpt lat="45.04122" lon="5.39158">
        <ele>883</ele>
        <time>2019-06-15T09:35:08.028Z</time>
      </trkpt>
      <trkpt lat="45.04121" lon="5.39157">
        <ele>884</ele>
        <time>2019-06-15T09:35:09.028Z</time>
      </trkpt>
      <trkpt lat="45.04119" lon="5.39157">
        <ele>884</ele>
        <time>2019-06-15T09:35:10.028Z</time>
      </trkpt>
      <trkpt lat="45.04117" lon="5.39156">
        <ele>885</ele>
        <time>2019-06-15T09:35:11.028Z</time>
      </trkpt>
      <trkpt lat="45.04116" lon="5.39155">
        <ele>884</ele>
        <time>2019-06-15T09:35:12.028Z</time>
      </trkpt>
      <trkpt lat="45.04115" lon="5.39155">
        <ele>884</ele>
        <time>2019-06-15T09:35:13.028Z</time>
      </trkpt>
      <trkpt lat="45.04114" lon="5.39155">
        <ele>885</ele>
        <time>2019-06-15T09:35:14.028Z</time>
      </trkpt>
      <trkpt lat="45.04113" lon="5.39155">
        <ele>885</ele>
        <time>2019-06-15T09:35:15.028Z</time>
      </trkpt>
      <trkpt lat="45.04112" lon="5.39154">
        <ele>885</ele>
        <time>2019-06-15T09:35:16.028Z</time>
      </trkpt>
      <trkpt lat="45.04111" lon="5.39154">
        <ele>885</ele>
        <time>2019-06-15T09:35:17.028Z</time>
      </trkpt>
      <trkpt lat="45.04109" lon="5.39154">
        <ele>885</ele>
        <time>2019-06-15T09:35:18.028Z</time>
      </trkpt>
      <trkpt lat="45.04108" lon="5.39153">
        <ele>885</ele>
        <time>2019-06-15T09:35:19.028Z</time>
      </trkpt>
      <trkpt lat="45.04107" lon="5.39154">
        <ele>884</ele>
        <time>2019-06-15T09:35:20.028Z</time>
      </trkpt>
      <trkpt lat="45.04106" lon="5.39154">
        <ele>884</ele>
        <time>2019-06-15T09:35:21.028Z</time>
      </trkpt>
      <trkpt lat="45.04104" lon="5.39154">
        <ele>883</ele>
        <time>2019-06-15T09:35:22.028Z</time>
      </trkpt>
      <trkpt lat="45.04102" lon="5.39154">
        <ele>883</ele>
        <time>2019-06-15T09:35:23.028Z</time>
      </trkpt>
      <trkpt lat="45.041" lon="5.39154">
        <ele>884</ele>
        <time>2019-06-15T09:35:24.028Z</time>
      </trkpt>
      <trkpt lat="45.04098" lon="5.39154">
        <ele>884</ele>
        <time>2019-06-15T09:35:25.028Z</time>
      </trkpt>
      <trkpt lat="45.04096" lon="5.39154">
        <ele>884</ele>
        <time>2019-06-15T09:35:26.028Z</time>
      </trkpt>
      <trkpt lat="45.04094" lon="5.39154">
        <ele>884</ele>
        <time>2019-06-15T09:35:27.028Z</time>
      </trkpt>
      <trkpt lat="45.04092" lon="5.39155">
        <ele>884</ele>
        <time>2019-06-15T09:35:28.028Z</time>
      </trkpt>
      <trkpt lat="45.04091" lon="5.39156">
        <ele>884</ele>
        <time>2019-06-15T09:35:29.028Z</time>
      </trkpt>
      <trkpt lat="45.04089" lon="5.39156">
        <ele>884</ele>
        <time>2019-06-15T09:35:30.028Z</time>
      </trkpt>
      <trkpt lat="45.04088" lon="5.39157">
        <ele>884</ele>
        <time>2019-06-15T09:35:31.028Z</time>
      </trkpt>
      <trkpt lat="45.04086" lon="5.39158">
        <ele>884</ele>
        <time>2019-06-15T09:35:32.028Z</time>
      </trkpt>
      <trkpt lat="45.04084" lon="5.39159">
        <ele>884</ele>
        <time>2019-06-15T09:35:33.028Z</time>
      </trkpt>
      <trkpt lat="45.04082" lon="5.3916">
        <ele>884</ele>
        <time>2019-06-15T09:35:34.028Z</time>
      </trkpt>
      <trkpt lat="45.04081" lon="5.39161">
        <ele>884</ele>
        <time>2019-06-15T09:35:35.028Z</time>
      </trkpt>
      <trkpt lat="45.04079" lon="5.39162">
        <ele>884</ele>
        <time>2019-06-15T09:35:36.028Z</time>
      </trkpt>
      <trkpt lat="45.04077" lon="5.39163">
        <ele>885</ele>
        <time>2019-06-15T09:35:37.028Z</time>
      </trkpt>
      <trkpt lat="45.04074" lon="5.39164">
        <ele>885</ele>
        <time>2019-06-15T09:35:38.028Z</time>
      </trkpt>
      <trkpt lat="45.04073" lon="5.39164">
        <ele>885</ele>
        <time>2019-06-15T09:35:39.028Z</time>
      </trkpt>
      <trkpt lat="45.04071" lon="5.39165">
        <ele>885</ele>
        <time>2019-06-15T09:35:40.028Z</time>
      </trkpt>
      <trkpt lat="45.0407" lon="5.39166">
        <ele>885</ele>
        <time>2019-06-15T09:35:41.028Z</time>
      </trkpt>
      <trkpt lat="45.04068" lon="5.39167">
        <ele>886</ele>
        <time>2019-06-15T09:35:42.028Z</time>
      </trkpt>
      <trkpt lat="45.04067" lon="5.39168">
        <ele>886</ele>
        <time>2019-06-15T09:35:43.028Z</time>
      </trkpt>
      <trkpt lat="45.04065" lon="5.39169">
        <ele>887</ele>
        <time>2019-06-15T09:35:44.028Z</time>
      </trkpt>
      <trkpt lat="45.04063" lon="5.39169">
        <ele>888</ele>
        <time>2019-06-15T09:35:45.028Z</time>
      </trkpt>
      <trkpt lat="45.04062" lon="5.3917">
        <ele>888</ele>
        <time>2019-06-15T09:35:46.028Z</time>
      </trkpt>
      <trkpt lat="45.0406" lon="5.39171">
        <ele>888</ele>
        <time>2019-06-15T09:35:47.028Z</time>
      </trkpt>
      <trkpt lat="45.04059" lon="5.39173">
        <ele>888</ele>
        <time>2019-06-15T09:35:48.028Z</time>
      </trkpt>
      <trkpt lat="45.04057" lon="5.39175">
        <ele>889</ele>
        <time>2019-06-15T09:35:49.028Z</time>
      </trkpt>
      <trkpt lat="45.04056" lon="5.39177">
        <ele>888</ele>
        <time>2019-06-15T09:35:50.028Z</time>
      </trkpt>
      <trkpt lat="45.04055" lon="5.39179">
        <ele>889</ele>
        <time>2019-06-15T09:35:51.028Z</time>
      </trkpt>
      <trkpt lat="45.04053" lon="5.39181">
        <ele>889</ele>
        <time>2019-06-15T09:35:52.028Z</time>
      </trkpt>
      <trkpt lat="45.04052" lon="5.39183">
        <ele>889</ele>
        <time>2019-06-15T09:35:53.028Z</time>
      </trkpt>
      <trkpt lat="45.04051" lon="5.39185">
        <ele>890</ele>
        <time>2019-06-15T09:35:54.028Z</time>
      </trkpt>
      <trkpt lat="45.0405" lon="5.39186">
        <ele>890</ele>
        <time>2019-06-15T09:35:55.028Z</time>
      </trkpt>
      <trkpt lat="45.04049" lon="5.39187">
        <ele>890</ele>
        <time>2019-06-15T09:35:56.028Z</time>
      </trkpt>
      <trkpt lat="45.04048" lon="5.39189">
        <ele>891</ele>
        <time>2019-06-15T09:35:57.028Z</time>
      </trkpt>
      <trkpt lat="45.04047" lon="5.3919">
        <ele>892</ele>
        <time>2019-06-15T09:35:58.028Z</time>
      </trkpt>
      <trkpt lat="45.04046" lon="5.3919">
        <ele>893</ele>
        <time>2019-06-15T09:35:59.028Z</time>
      </trkpt>
      <trkpt lat="45.04045" lon="5.39191">
        <ele>894</ele>
        <time>2019-06-15T09:36:00.028Z</time>
      </trkpt>
      <trkpt lat="45.04045" lon="5.39193">
        <ele>892</ele>
        <time>2019-06-15T09:36:01.028Z</time>
      </trkpt>
      <trkpt lat="45.04045" lon="5.39194">
        <ele>894</ele>
        <time>2019-06-15T09:36:02.028Z</time>
      </trkpt>
      <trkpt lat="45.04045" lon="5.39196">
        <ele>893</ele>
        <time>2019-06-15T09:36:03.028Z</time>
      </trkpt>
      <trkpt lat="45.04044" lon="5.39196">
        <ele>894</ele>
        <time>2019-06-15T09:36:04.028Z</time>
      </trkpt>
      <trkpt lat="45.04044" lon="5.39197">
        <ele>894</ele>
        <time>2019-06-15T09:36:05.028Z</time>
      </trkpt>
      <trkpt lat="45.04043" lon="5.39197">
        <ele>895</ele>
        <time>2019-06-15T09:36:06.028Z</time>
      </trkpt>
      <trkpt lat="45.04042" lon="5.39197">
        <ele>896</ele>
        <time>2019-06-15T09:36:07.028Z</time>
      </trkpt>
      <trkpt lat="45.04041" lon="5.39198">
        <ele>896</ele>
        <time>2019-06-15T09:36:08.028Z</time>
      </trkpt>
      <trkpt lat="45.04041" lon="5.39198">
        <ele>896</ele>
        <time>2019-06-15T09:36:09.028Z</time>
      </trkpt>
      <trkpt lat="45.04039" lon="5.39199">
        <ele>898</ele>
        <time>2019-06-15T09:36:10.028Z</time>
      </trkpt>
      <trkpt lat="45.04038" lon="5.39199">
        <ele>898</ele>
        <time>2019-06-15T09:36:11.028Z</time>
      </trkpt>
      <trkpt lat="45.04037" lon="5.392">
        <ele>897</ele>
        <time>2019-06-15T09:36:12.028Z</time>
      </trkpt>
      <trkpt lat="45.04036" lon="5.39201">
        <ele>897</ele>
        <time>2019-06-15T09:36:13.028Z</time>
      </trkpt>
      <trkpt lat="45.04035" lon="5.39202">
        <ele>897</ele>
        <time>2019-06-15T09:36:14.028Z</time>
      </trkpt>
      <trkpt lat="45.04035" lon="5.39203">
        <ele>897</ele>
        <time>2019-06-15T09:36:15.028Z</time>
      </trkpt>
      <trkpt lat="45.04034" lon="5.39203">
        <ele>898</ele>
        <time>2019-06-15T09:36:16.028Z</time>
      </trkpt>
      <trkpt lat="45.04033" lon="5.39204">
        <ele>899</ele>
        <time>2019-06-15T09:36:17.028Z</time>
      </trkpt>
      <trkpt lat="45.04033" lon="5.39205">
        <ele>899</ele>
        <time>2019-06-15T09:36:18.028Z</time>
      </trkpt>
      <trkpt lat="45.04032" lon="5.39205">
        <ele>899</ele>
        <time>2019-06-15T09:36:19.028Z</time>
      </trkpt>
      <trkpt lat="45.04031" lon="5.39206">
        <ele>900</ele>
        <time>2019-06-15T09:36:20.028Z</time>
      </trkpt>
      <trkpt lat="45.04031" lon="5.39207">
        <ele>899</ele>
        <time>2019-06-15T09:36:21.028Z</time>
      </trkpt>
      <trkpt lat="45.0403" lon="5.39208">
        <ele>899</ele>
        <time>2019-06-15T09:36:22.028Z</time>
      </trkpt>
      <trkpt lat="45.0403" lon="5.39208">
        <ele>899</ele>
        <time>2019-06-15T09:36:23.028Z</time>
      </trkpt>
      <trkpt lat="45.04028" lon="5.39209">
        <ele>898</ele>
        <time>2019-06-15T09:36:24.028Z</time>
      </trkpt>
      <trkpt lat="45.04027" lon="5.39209">
        <ele>898</ele>
        <time>2019-06-15T09:36:25.028Z</time>
      </trkpt>
      <trkpt lat="45.04026" lon="5.3921">
        <ele>897</ele>
        <time>2019-06-15T09:36:26.028Z</time>
      </trkpt>
      <trkpt lat="45.04026" lon="5.3921">
        <ele>896</ele>
        <time>2019-06-15T09:36:27.028Z</time>
      </trkpt>
      <trkpt lat="45.04025" lon="5.39211">
        <ele>897</ele>
        <time>2019-06-15T09:36:28.028Z</time>
      </trkpt>
      <trkpt lat="45.04023" lon="5.39212">
        <ele>897</ele>
        <time>2019-06-15T09:36:29.028Z</time>
      </trkpt>
      <trkpt lat="45.04022" lon="5.39213">
        <ele>898</ele>
        <time>2019-06-15T09:36:30.028Z</time>
      </trkpt>
      <trkpt lat="45.0402" lon="5.39214">
        <ele>898</ele>
        <time>2019-06-15T09:36:31.028Z</time>
      </trkpt>
      <trkpt lat="45.04019" lon="5.39215">
        <ele>898</ele>
        <time>2019-06-15T09:36:32.028Z</time>
      </trkpt>
      <trkpt lat="45.04018" lon="5.39217">
        <ele>898</ele>
        <time>2019-06-15T09:36:33.028Z</time>
      </trkpt>
      <trkpt lat="45.04017" lon="5.39218">
        <ele>899</ele>
        <time>2019-06-15T09:36:34.028Z</time>
      </trkpt>
      <trkpt lat="45.04016" lon="5.39219">
        <ele>899</ele>
        <time>2019-06-15T09:36:35.028Z</time>
      </trkpt>
      <trkpt lat="45.04015" lon="5.3922">
        <ele>899</ele>
        <time>2019-06-15T09:36:36.028Z</time>
      </trkpt>
      <trkpt lat="45.04014" lon="5.39221">
        <ele>900</ele>
        <time>2019-06-15T09:36:37.028Z</time>
      </trkpt>
      <trkpt lat="45.04013" lon="5.39222">
        <ele>900</ele>
        <time>2019-06-15T09:36:38.028Z</time>
      </trkpt>
      <trkpt lat="45.04012" lon="5.39223">
        <ele>900</ele>
        <time>2019-06-15T09:36:39.028Z</time>
      </trkpt>
      <trkpt lat="45.04011" lon="5.39224">
        <ele>900</ele>
        <time>2019-06-15T09:36:40.028Z</time>
      </trkpt>
      <trkpt lat="45.0401" lon="5.39224">
        <ele>900</ele>
        <time>2019-06-15T09:36:41.028Z</time>
      </trkpt>
      <trkpt lat="45.04009" lon="5.39225">
        <ele>899</ele>
        <time>2019-06-15T09:36:42.028Z</time>
      </trkpt>
      <trkpt lat="45.04009" lon="5.39225">
        <ele>900</ele>
        <time>2019-06-15T09:36:43.028Z</time>
      </trkpt>
      <trkpt lat="45.04008" lon="5.39226">
        <ele>901</ele>
        <time>2019-06-15T09:36:44.028Z</time>
      </trkpt>
      <trkpt lat="45.04008" lon="5.39226">
        <ele>901</ele>
        <time>2019-06-15T09:36:45.028Z</time>
      </trkpt>
      <trkpt lat="45.04007" lon="5.39227">
        <ele>902</ele>
        <time>2019-06-15T09:36:46.028Z</time>
      </trkpt>
      <trkpt lat="45.04006" lon="5.39227">
        <ele>903</ele>
        <time>2019-06-15T09:36:47.028Z</time>
      </trkpt>
      <trkpt lat="45.04005" lon="5.39227">
        <ele>903</ele>
        <time>2019-06-15T09:36:48.028Z</time>
      </trkpt>
      <trkpt lat="45.04005" lon="5.39227">
        <ele>903</ele>
        <time>2019-06-15T09:36:49.028Z</time>
      </trkpt>
      <trkpt lat="45.04004" lon="5.39228">
        <ele>904</ele>
        <time>2019-06-15T09:36:50.028Z</time>
      </trkpt>
      <trkpt lat="45.04004" lon="5.3923">
        <ele>904</ele>
        <time>2019-06-15T09:36:51.028Z</time>
      </trkpt>
      <trkpt lat="45.04003" lon="5.39231">
        <ele>904</ele>
        <time>2019-06-15T09:36:52.028Z</time>
      </trkpt>
      <trkpt lat="45.04003" lon="5.39232">
        <ele>905</ele>
        <time>2019-06-15T09:36:53.028Z</time>
      </trkpt>
      <trkpt lat="45.04003" lon="5.39233">
        <ele>905</ele>
        <time>2019-06-15T09:36:54.028Z</time>
      </trkpt>
      <trkpt lat="45.04002" lon="5.39234">
        <ele>906</ele>
        <time>2019-06-15T09:36:55.028Z</time>
      </trkpt>
      <trkpt lat="45.04002" lon="5.39235">
        <ele>904</ele>
        <time>2019-06-15T09:36:56.028Z</time>
      </trkpt>
      <trkpt lat="45.04001" lon="5.39236">
        <ele>905</ele>
        <time>2019-06-15T09:36:57.028Z</time>
      </trkpt>
      <trkpt lat="45.04001" lon="5.39236">
        <ele>906</ele>
        <time>2019-06-15T09:36:58.028Z</time>
      </trkpt>
      <trkpt lat="45.04" lon="5.39237">
        <ele>906</ele>
        <time>2019-06-15T09:36:59.028Z</time>
      </trkpt>
      <trkpt lat="45.04" lon="5.39238">
        <ele>905</ele>
        <time>2019-06-15T09:37:00.028Z</time>
      </trkpt>
      <trkpt lat="45.03999" lon="5.39239">
        <ele>906</ele>
        <time>2019-06-15T09:37:01.028Z</time>
      </trkpt>
      <trkpt lat="45.03998" lon="5.3924">
        <ele>906</ele>
        <time>2019-06-15T09:37:02.028Z</time>
      </trkpt>
      <trkpt lat="45.03998" lon="5.39241">
        <ele>906</ele>
        <time>2019-06-15T09:37:03.028Z</time>
      </trkpt>
      <trkpt lat="45.03997" lon="5.39242">
        <ele>906</ele>
        <time>2019-06-15T09:37:04.028Z</time>
      </trkpt>
      <trkpt lat="45.03997" lon="5.39243">
        <ele>906</ele>
        <time>2019-06-15T09:37:05.028Z</time>
      </trkpt>
      <trkpt lat="45.03997" lon="5.39245">
        <ele>905</ele>
        <time>2019-06-15T09:37:06.028Z</time>
      </trkpt>
      <trkpt lat="45.03996" lon="5.39247">
        <ele>905</ele>
        <time>2019-06-15T09:37:07.028Z</time>
      </trkpt>
      <trkpt lat="45.03996" lon="5.39249">
        <ele>906</ele>
        <time>2019-06-15T09:37:08.028Z</time>
      </trkpt>
      <trkpt lat="45.03996" lon="5.3925">
        <ele>905</ele>
        <time>2019-06-15T09:37:09.028Z</time>
      </trkpt>
      <trkpt lat="45.03995" lon="5.39251">
        <ele>906</ele>
        <time>2019-06-15T09:37:10.028Z</time>
      </trkpt>
      <trkpt lat="45.03995" lon="5.39252">
        <ele>906</ele>
        <time>2019-06-15T09:37:11.028Z</time>
      </trkpt>
      <trkpt lat="45.03994" lon="5.39253">
        <ele>905</ele>
        <time>2019-06-15T09:37:12.028Z</time>
      </trkpt>
      <trkpt lat="45.03994" lon="5.39254">
        <ele>905</ele>
        <time>2019-06-15T09:37:13.028Z</time>
      </trkpt>
      <trkpt lat="45.03994" lon="5.39255">
        <ele>906</ele>
        <time>2019-06-15T09:37:14.028Z</time>
      </trkpt>
      <trkpt lat="45.03993" lon="5.39256">
        <ele>907</ele>
        <time>2019-06-15T09:37:15.028Z</time>
      </trkpt>
      <trkpt lat="45.03992" lon="5.39257">
        <ele>908</ele>
        <time>2019-06-15T09:37:16.028Z</time>
      </trkpt>
      <trkpt lat="45.03992" lon="5.39257">
        <ele>908</ele>
        <time>2019-06-15T09:37:17.028Z</time>
      </trkpt>
      <trkpt lat="45.03992" lon="5.39258">
        <ele>908</ele>
        <time>2019-06-15T09:37:18.028Z</time>
      </trkpt>
      <trkpt lat="45.03992" lon="5.39259">
        <ele>908</ele>
        <time>2019-06-15T09:37:19.028Z</time>
      </trkpt>
      <trkpt lat="45.03992" lon="5.3926">
        <ele>908</ele>
        <time>2019-06-15T09:37:20.028Z</time>
      </trkpt>
      <trkpt lat="45.03992" lon="5.39261">
        <ele>907</ele>
        <time>2019-06-15T09:37:21.028Z</time>
      </trkpt>
      <trkpt lat="45.03992" lon="5.39261">
        <ele>908</ele>
        <time>2019-06-15T09:37:22.028Z</time>
      </trkpt>
      <trkpt lat="45.03992" lon="5.39262">
        <ele>908</ele>
        <time>2019-06-15T09:37:23.028Z</time>
      </trkpt>
      <trkpt lat="45.03991" lon="5.39263">
        <ele>909</ele>
        <time>2019-06-15T09:37:24.028Z</time>
      </trkpt>
      <trkpt lat="45.03991" lon="5.39263">
        <ele>910</ele>
        <time>2019-06-15T09:37:25.028Z</time>
      </trkpt>
      <trkpt lat="45.03991" lon="5.39264">
        <ele>910</ele>
        <time>2019-06-15T09:37:26.028Z</time>
      </trkpt>
      <trkpt lat="45.0399" lon="5.39264">
        <ele>910</ele>
        <time>2019-06-15T09:37:27.028Z</time>
      </trkpt>
      <trkpt lat="45.0399" lon="5.39265">
        <ele>911</ele>
        <time>2019-06-15T09:37:28.028Z</time>
      </trkpt>
      <trkpt lat="45.03989" lon="5.39266">
        <ele>911</ele>
        <time>2019-06-15T09:37:29.028Z</time>
      </trkpt>
      <trkpt lat="45.03988" lon="5.39267">
        <ele>911</ele>
        <time>2019-06-15T09:37:30.028Z</time>
      </trkpt>
      <trkpt lat="45.03987" lon="5.39268">
        <ele>911</ele>
        <time>2019-06-15T09:37:31.028Z</time>
      </trkpt>
      <trkpt lat="45.03987" lon="5.39268">
        <ele>912</ele>
        <time>2019-06-15T09:37:32.028Z</time>
      </trkpt>
      <trkpt lat="45.03986" lon="5.39269">
        <ele>913</ele>
        <time>2019-06-15T09:37:33.028Z</time>
      </trkpt>
      <trkpt lat="45.03986" lon="5.39269">
        <ele>912</ele>
        <time>2019-06-15T09:37:34.028Z</time>
      </trkpt>
      <trkpt lat="45.03985" lon="5.3927">
        <ele>913</ele>
        <time>2019-06-15T09:37:35.028Z</time>
      </trkpt>
      <trkpt lat="45.03984" lon="5.39271">
        <ele>913</ele>
        <time>2019-06-15T09:37:36.028Z</time>
      </trkpt>
      <trkpt lat="45.03984" lon="5.39271">
        <ele>914</ele>
        <time>2019-06-15T09:37:37.028Z</time>
      </trkpt>
      <trkpt lat="45.03983" lon="5.39273">
        <ele>914</ele>
        <time>2019-06-15T09:37:38.028Z</time>
      </trkpt>
      <trkpt lat="45.03982" lon="5.39274">
        <ele>914</ele>
        <time>2019-06-15T09:37:39.028Z</time>
      </trkpt>
      <trkpt lat="45.03982" lon="5.39276">
        <ele>914</ele>
        <time>2019-06-15T09:37:40.028Z</time>
      </trkpt>
      <trkpt lat="45.03982" lon="5.39277">
        <ele>915</ele>
        <time>2019-06-15T09:37:41.028Z</time>
      </trkpt>
      <trkpt lat="45.03981" lon="5.39278">
        <ele>915</ele>
        <time>2019-06-15T09:37:42.028Z</time>
      </trkpt>
      <trkpt lat="45.03981" lon="5.39279">
        <ele>915</ele>
        <time>2019-06-15T09:37:43.028Z</time>
      </trkpt>
      <trkpt lat="45.03981" lon="5.3928">
        <ele>915</ele>
        <time>2019-06-15T09:37:44.028Z</time>
      </trkpt>
      <trkpt lat="45.0398" lon="5.39282">
        <ele>916</ele>
        <time>2019-06-15T09:37:45.028Z</time>
      </trkpt>
      <trkpt lat="45.0398" lon="5.39283">
        <ele>916</ele>
        <time>2019-06-15T09:37:46.028Z</time>
      </trkpt>
      <trkpt lat="45.0398" lon="5.39284">
        <ele>916</ele>
        <time>2019-06-15T09:37:47.028Z</time>
      </trkpt>
      <trkpt lat="45.0398" lon="5.39285">
        <ele>917</ele>
        <time>2019-06-15T09:37:48.028Z</time>
      </trkpt>
      <trkpt lat="45.03979" lon="5.39286">
        <ele>919</ele>
        <time>2019-06-15T09:37:49.028Z</time>
      </trkpt>
      <trkpt lat="45.03978" lon="5.39287">
        <ele>918</ele>
        <time>2019-06-15T09:37:50.028Z</time>
      </trkpt>
      <trkpt lat="45.03977" lon="5.39287">
        <ele>919</ele>
        <time>2019-06-15T09:37:51.028Z</time>
      </trkpt>
      <trkpt lat="45.03976" lon="5.39288">
        <ele>919</ele>
        <time>2019-06-15T09:37:52.028Z</time>
      </trkpt>
      <trkpt lat="45.03975" lon="5.39289">
        <ele>919</ele>
        <time>2019-06-15T09:37:53.028Z</time>
      </trkpt>
      <trkpt lat="45.03974" lon="5.39289">
        <ele>920</ele>
        <time>2019-06-15T09:37:54.028Z</time>
      </trkpt>
      <trkpt lat="45.03974" lon="5.3929">
        <ele>919</ele>
        <time>2019-06-15T09:37:55.028Z</time>
      </trkpt>
      <trkpt lat="45.03974" lon="5.39291">
        <ele>920</ele>
        <time>2019-06-15T09:37:56.028Z</time>
      </trkpt>
      <trkpt lat="45.03973" lon="5.39292">
        <ele>920</ele>
        <time>2019-06-15T09:37:57.028Z</time>
      </trkpt>
      <trkpt lat="45.03973" lon="5.39294">
        <ele>918</ele>
        <time>2019-06-15T09:37:58.028Z</time>
      </trkpt>
      <trkpt lat="45.03973" lon="5.39295">
        <ele>919</ele>
        <time>2019-06-15T09:37:59.028Z</time>
      </trkpt>
      <trkpt lat="45.03974" lon="5.39296">
        <ele>918</ele>
        <time>2019-06-15T09:38:00.028Z</time>
      </trkpt>
      <trkpt lat="45.03973" lon="5.39297">
        <ele>918</ele>
        <time>2019-06-15T09:38:01.028Z</time>
      </trkpt>
      <trkpt lat="45.03973" lon="5.39299">
        <ele>919</ele>
        <time>2019-06-15T09:38:02.028Z</time>
      </trkpt>
      <trkpt lat="45.03972" lon="5.393">
        <ele>919</ele>
        <time>2019-06-15T09:38:03.028Z</time>
      </trkpt>
      <trkpt lat="45.03971" lon="5.39302">
        <ele>918</ele>
        <time>2019-06-15T09:38:04.028Z</time>
      </trkpt>
      <trkpt lat="45.0397" lon="5.39303">
        <ele>919</ele>
        <time>2019-06-15T09:38:05.028Z</time>
      </trkpt>
      <trkpt lat="45.03969" lon="5.39304">
        <ele>919</ele>
        <time>2019-06-15T09:38:06.028Z</time>
      </trkpt>
      <trkpt lat="45.03969" lon="5.39305">
        <ele>919</ele>
        <time>2019-06-15T09:38:07.028Z</time>
      </trkpt>
      <trkpt lat="45.03968" lon="5.39306">
        <ele>921</ele>
        <time>2019-06-15T09:38:08.028Z</time>
      </trkpt>
      <trkpt lat="45.03967" lon="5.39307">
        <ele>921</ele>
        <time>2019-06-15T09:38:09.028Z</time>
      </trkpt>
      <trkpt lat="45.03966" lon="5.39308">
        <ele>921</ele>
        <time>2019-06-15T09:38:10.028Z</time>
      </trkpt>
      <trkpt lat="45.03966" lon="5.3931">
        <ele>921</ele>
        <time>2019-06-15T09:38:11.028Z</time>
      </trkpt>
      <trkpt lat="45.03965" lon="5.39311">
        <ele>921</ele>
        <time>2019-06-15T09:38:12.028Z</time>
      </trkpt>
      <trkpt lat="45.03965" lon="5.39313">
        <ele>921</ele>
        <time>2019-06-15T09:38:13.028Z</time>
      </trkpt>
      <trkpt lat="45.03964" lon="5.39315">
        <ele>921</ele>
        <time>2019-06-15T09:38:14.028Z</time>
      </trkpt>
      <trkpt lat="45.03963" lon="5.39316">
        <ele>921</ele>
        <time>2019-06-15T09:38:15.028Z</time>
      </trkpt>
      <trkpt lat="45.03962" lon="5.39317">
        <ele>921</ele>
        <time>2019-06-15T09:38:16.028Z</time>
      </trkpt>
      <trkpt lat="45.03961" lon="5.39318">
        <ele>921</ele>
        <time>2019-06-15T09:38:17.028Z</time>
      </trkpt>
      <trkpt lat="45.03961" lon="5.39319">
        <ele>921</ele>
        <time>2019-06-15T09:38:18.028Z</time>
      </trkpt>
      <trkpt lat="45.0396" lon="5.3932">
        <ele>921</ele>
        <time>2019-06-15T09:38:19.028Z</time>
      </trkpt>
      <trkpt lat="45.0396" lon="5.39321">
        <ele>921</ele>
        <time>2019-06-15T09:38:20.028Z</time>
      </trkpt>
      <trkpt lat="45.03959" lon="5.39322">
        <ele>922</ele>
        <time>2019-06-15T09:38:21.028Z</time>
      </trkpt>
      <trkpt lat="45.03958" lon="5.39323">
        <ele>922</ele>
        <time>2019-06-15T09:38:22.028Z</time>
      </trkpt>
      <trkpt lat="45.03958" lon="5.39324">
        <ele>922</ele>
        <time>2019-06-15T09:38:23.028Z</time>
      </trkpt>
      <trkpt lat="45.03957" lon="5.39325">
        <ele>922</ele>
        <time>2019-06-15T09:38:24.028Z</time>
      </trkpt>
      <trkpt lat="45.03957" lon="5.39327">
        <ele>922</ele>
        <time>2019-06-15T09:38:25.028Z</time>
      </trkpt>
      <trkpt lat="45.03956" lon="5.39328">
        <ele>922</ele>
        <time>2019-06-15T09:38:26.028Z</time>
      </trkpt>
      <trkpt lat="45.03955" lon="5.39329">
        <ele>922</ele>
        <time>2019-06-15T09:38:27.028Z</time>
      </trkpt>
      <trkpt lat="45.03955" lon="5.3933">
        <ele>922</ele>
        <time>2019-06-15T09:38:28.028Z</time>
      </trkpt>
      <trkpt lat="45.03954" lon="5.39331">
        <ele>923</ele>
        <time>2019-06-15T09:38:29.028Z</time>
      </trkpt>
      <trkpt lat="45.03953" lon="5.39332">
        <ele>924</ele>
        <time>2019-06-15T09:38:30.028Z</time>
      </trkpt>
      <trkpt lat="45.03953" lon="5.39333">
        <ele>924</ele>
        <time>2019-06-15T09:38:31.028Z</time>
      </trkpt>
      <trkpt lat="45.03952" lon="5.39333">
        <ele>924</ele>
        <time>2019-06-15T09:38:32.028Z</time>
      </trkpt>
      <trkpt lat="45.03951" lon="5.39335">
        <ele>924</ele>
        <time>2019-06-15T09:38:33.028Z</time>
      </trkpt>
      <trkpt lat="45.03951" lon="5.39336">
        <ele>924</ele>
        <time>2019-06-15T09:38:34.028Z</time>
      </trkpt>
      <trkpt lat="45.0395" lon="5.39337">
        <ele>925</ele>
        <time>2019-06-15T09:38:35.028Z</time>
      </trkpt>
      <trkpt lat="45.0395" lon="5.39338">
        <ele>925</ele>
        <time>2019-06-15T09:38:36.028Z</time>
      </trkpt>
      <trkpt lat="45.03949" lon="5.39339">
        <ele>926</ele>
        <time>2019-06-15T09:38:37.028Z</time>
      </trkpt>
      <trkpt lat="45.03948" lon="5.39339">
        <ele>927</ele>
        <time>2019-06-15T09:38:38.028Z</time>
      </trkpt>
      <trkpt lat="45.03947" lon="5.3934">
        <ele>928</ele>
        <time>2019-06-15T09:38:39.028Z</time>
      </trkpt>
      <trkpt lat="45.03946" lon="5.39341">
        <ele>928</ele>
        <time>2019-06-15T09:38:40.028Z</time>
      </trkpt>
      <trkpt lat="45.03946" lon="5.39341">
        <ele>929</ele>
        <time>2019-06-15T09:38:41.028Z</time>
      </trkpt>
      <trkpt lat="45.03945" lon="5.39342">
        <ele>930</ele>
        <time>2019-06-15T09:38:42.028Z</time>
      </trkpt>
      <trkpt lat="45.03945" lon="5.39343">
        <ele>930</ele>
        <time>2019-06-15T09:38:43.028Z</time>
      </trkpt>
      <trkpt lat="45.03944" lon="5.39344">
        <ele>931</ele>
        <time>2019-06-15T09:38:44.028Z</time>
      </trkpt>
      <trkpt lat="45.03943" lon="5.39345">
        <ele>931</ele>
        <time>2019-06-15T09:38:45.028Z</time>
      </trkpt>
      <trkpt lat="45.03943" lon="5.39346">
        <ele>931</ele>
        <time>2019-06-15T09:38:46.028Z</time>
      </trkpt>
      <trkpt lat="45.03942" lon="5.39347">
        <ele>932</ele>
        <time>2019-06-15T09:38:47.028Z</time>
      </trkpt>
      <trkpt lat="45.03942" lon="5.39348">
        <ele>932</ele>
        <time>2019-06-15T09:38:48.028Z</time>
      </trkpt>
      <trkpt lat="45.03942" lon="5.39349">
        <ele>932</ele>
        <time>2019-06-15T09:38:49.028Z</time>
      </trkpt>
      <trkpt lat="45.03942" lon="5.3935">
        <ele>932</ele>
        <time>2019-06-15T09:38:50.028Z</time>
      </trkpt>
      <trkpt lat="45.03942" lon="5.39352">
        <ele>932</ele>
        <time>2019-06-15T09:38:51.028Z</time>
      </trkpt>
      <trkpt lat="45.03942" lon="5.39353">
        <ele>933</ele>
        <time>2019-06-15T09:38:52.028Z</time>
      </trkpt>
      <trkpt lat="45.03942" lon="5.39354">
        <ele>933</ele>
        <time>2019-06-15T09:38:53.028Z</time>
      </trkpt>
      <trkpt lat="45.03942" lon="5.39355">
        <ele>933</ele>
        <time>2019-06-15T09:38:54.028Z</time>
      </trkpt>
      <trkpt lat="45.03941" lon="5.39356">
        <ele>933</ele>
        <time>2019-06-15T09:38:55.028Z</time>
      </trkpt>
      <trkpt lat="45.03941" lon="5.39357">
        <ele>934</ele>
        <time>2019-06-15T09:38:56.028Z</time>
      </trkpt>
      <trkpt lat="45.03941" lon="5.39358">
        <ele>934</ele>
        <time>2019-06-15T09:38:57.028Z</time>
      </trkpt>
      <trkpt lat="45.0394" lon="5.39359">
        <ele>935</ele>
        <time>2019-06-15T09:38:58.028Z</time>
      </trkpt>
      <trkpt lat="45.0394" lon="5.3936">
        <ele>935</ele>
        <time>2019-06-15T09:38:59.028Z</time>
      </trkpt>
      <trkpt lat="45.03939" lon="5.3936">
        <ele>935</ele>
        <time>2019-06-15T09:39:00.028Z</time>
      </trkpt>
      <trkpt lat="45.03939" lon="5.39361">
        <ele>935</ele>
        <time>2019-06-15T09:39:01.028Z</time>
      </trkpt>
      <trkpt lat="45.03938" lon="5.39362">
        <ele>936</ele>
        <time>2019-06-15T09:39:02.028Z</time>
      </trkpt>
      <trkpt lat="45.03938" lon="5.39364">
        <ele>936</ele>
        <time>2019-06-15T09:39:03.028Z</time>
      </trkpt>
      <trkpt lat="45.03938" lon="5.39365">
        <ele>935</ele>
        <time>2019-06-15T09:39:04.028Z</time>
      </trkpt>
      <trkpt lat="45.03937" lon="5.39366">
        <ele>936</ele>
        <time>2019-06-15T09:39:05.028Z</time>
      </trkpt>
      <trkpt lat="45.03937" lon="5.39367">
        <ele>936</ele>
        <time>2019-06-15T09:39:06.028Z</time>
      </trkpt>
      <trkpt lat="45.03937" lon="5.39369">
        <ele>935</ele>
        <time>2019-06-15T09:39:07.028Z</time>
      </trkpt>
      <trkpt lat="45.03937" lon="5.3937">
        <ele>936</ele>
        <time>2019-06-15T09:39:08.028Z</time>
      </trkpt>
      <trkpt lat="45.03936" lon="5.39371">
        <ele>937</ele>
        <time>2019-06-15T09:39:09.028Z</time>
      </trkpt>
      <trkpt lat="45.03935" lon="5.39372">
        <ele>936</ele>
        <time>2019-06-15T09:39:10.028Z</time>
      </trkpt>
      <trkpt lat="45.03934" lon="5.39373">
        <ele>936</ele>
        <time>2019-06-15T09:39:11.028Z</time>
      </trkpt>
      <trkpt lat="45.03933" lon="5.39374">
        <ele>937</ele>
        <time>2019-06-15T09:39:12.028Z</time>
      </trkpt>
      <trkpt lat="45.03933" lon="5.39375">
        <ele>937</ele>
        <time>2019-06-15T09:39:13.028Z</time>
      </trkpt>
      <trkpt lat="45.03932" lon="5.39376">
        <ele>937</ele>
        <time>2019-06-15T09:39:14.028Z</time>
      </trkpt>
      <trkpt lat="45.03932" lon="5.39376">
        <ele>937</ele>
        <time>2019-06-15T09:39:15.028Z</time>
      </trkpt>
      <trkpt lat="45.03931" lon="5.39377">
        <ele>937</ele>
        <time>2019-06-15T09:39:16.028Z</time>
      </trkpt>
      <trkpt lat="45.0393" lon="5.39378">
        <ele>937</ele>
        <time>2019-06-15T09:39:17.028Z</time>
      </trkpt>
      <trkpt lat="45.0393" lon="5.39379">
        <ele>937</ele>
        <time>2019-06-15T09:39:18.028Z</time>
      </trkpt>
      <trkpt lat="45.03929" lon="5.3938">
        <ele>936</ele>
        <time>2019-06-15T09:39:19.028Z</time>
      </trkpt>
      <trkpt lat="45.03928" lon="5.39381">
        <ele>937</ele>
        <time>2019-06-15T09:39:20.028Z</time>
      </trkpt>
      <trkpt lat="45.03928" lon="5.39382">
        <ele>937</ele>
        <time>2019-06-15T09:39:21.028Z</time>
      </trkpt>
      <trkpt lat="45.03927" lon="5.39383">
        <ele>937</ele>
        <time>2019-06-15T09:39:22.028Z</time>
      </trkpt>
      <trkpt lat="45.03925" lon="5.39384">
        <ele>937</ele>
        <time>2019-06-15T09:39:23.028Z</time>
      </trkpt>
      <trkpt lat="45.03924" lon="5.39384">
        <ele>937</ele>
        <time>2019-06-15T09:39:24.028Z</time>
      </trkpt>
      <trkpt lat="45.03923" lon="5.39385">
        <ele>938</ele>
        <time>2019-06-15T09:39:25.028Z</time>
      </trkpt>
      <trkpt lat="45.03922" lon="5.39385">
        <ele>938</ele>
        <time>2019-06-15T09:39:26.028Z</time>
      </trkpt>
      <trkpt lat="45.03922" lon="5.39386">
        <ele>938</ele>
        <time>2019-06-15T09:39:27.028Z</time>
      </trkpt>
      <trkpt lat="45.03922" lon="5.39386">
        <ele>939</ele>
        <time>2019-06-15T09:39:28.028Z</time>
      </trkpt>
      <trkpt lat="45.03921" lon="5.39387">
        <ele>939</ele>
        <time>2019-06-15T09:39:29.028Z</time>
      </trkpt>
      <trkpt lat="45.03921" lon="5.39388">
        <ele>940</ele>
        <time>2019-06-15T09:39:30.028Z</time>
      </trkpt>
      <trkpt lat="45.0392" lon="5.3939">
        <ele>940</ele>
        <time>2019-06-15T09:39:31.028Z</time>
      </trkpt>
      <trkpt lat="45.0392" lon="5.39391">
        <ele>940</ele>
        <time>2019-06-15T09:39:32.028Z</time>
      </trkpt>
      <trkpt lat="45.03919" lon="5.39392">
        <ele>941</ele>
        <time>2019-06-15T09:39:33.028Z</time>
      </trkpt>
      <trkpt lat="45.03919" lon="5.39393">
        <ele>941</ele>
        <time>2019-06-15T09:39:34.028Z</time>
      </trkpt>
      <trkpt lat="45.03919" lon="5.39394">
        <ele>941</ele>
        <time>2019-06-15T09:39:35.028Z</time>
      </trkpt>
      <trkpt lat="45.03918" lon="5.39395">
        <ele>941</ele>
        <time>2019-06-15T09:39:36.028Z</time>
      </trkpt>
      <trkpt lat="45.03919" lon="5.39396">
        <ele>943</ele>
        <time>2019-06-15T09:39:37.028Z</time>
      </trkpt>
      <trkpt lat="45.03918" lon="5.39396">
        <ele>943</ele>
        <time>2019-06-15T09:39:38.028Z</time>
      </trkpt>
      <trkpt lat="45.03918" lon="5.39397">
        <ele>944</ele>
        <time>2019-06-15T09:39:39.028Z</time>
      </trkpt>
      <trkpt lat="45.03917" lon="5.39398">
        <ele>944</ele>
        <time>2019-06-15T09:39:40.028Z</time>
      </trkpt>
      <trkpt lat="45.03917" lon="5.39399">
        <ele>944</ele>
        <time>2019-06-15T09:39:41.028Z</time>
      </trkpt>
      <trkpt lat="45.03917" lon="5.394">
        <ele>945</ele>
        <time>2019-06-15T09:39:42.028Z</time>
      </trkpt>
      <trkpt lat="45.03917" lon="5.39401">
        <ele>945</ele>
        <time>2019-06-15T09:39:43.028Z</time>
      </trkpt>
      <trkpt lat="45.03916" lon="5.39401">
        <ele>946</ele>
        <time>2019-06-15T09:39:44.028Z</time>
      </trkpt>
      <trkpt lat="45.03916" lon="5.39402">
        <ele>946</ele>
        <time>2019-06-15T09:39:45.028Z</time>
      </trkpt>
      <trkpt lat="45.03915" lon="5.39403">
        <ele>946</ele>
        <time>2019-06-15T09:39:46.028Z</time>
      </trkpt>
      <trkpt lat="45.03915" lon="5.39403">
        <ele>947</ele>
        <time>2019-06-15T09:39:47.028Z</time>
      </trkpt>
      <trkpt lat="45.03915" lon="5.39404">
        <ele>946</ele>
        <time>2019-06-15T09:39:48.028Z</time>
      </trkpt>
      <trkpt lat="45.03915" lon="5.39405">
        <ele>947</ele>
        <time>2019-06-15T09:39:49.028Z</time>
      </trkpt>
      <trkpt lat="45.03915" lon="5.39406">
        <ele>948</ele>
        <time>2019-06-15T09:39:50.028Z</time>
      </trkpt>
      <trkpt lat="45.03914" lon="5.39407">
        <ele>948</ele>
        <time>2019-06-15T09:39:51.028Z</time>
      </trkpt>
      <trkpt lat="45.03913" lon="5.39407">
        <ele>948</ele>
        <time>2019-06-15T09:39:52.028Z</time>
      </trkpt>
      <trkpt lat="45.03913" lon="5.39408">
        <ele>949</ele>
        <time>2019-06-15T09:39:53.028Z</time>
      </trkpt>
      <trkpt lat="45.03912" lon="5.39408">
        <ele>950</ele>
        <time>2019-06-15T09:39:54.028Z</time>
      </trkpt>
      <trkpt lat="45.03911" lon="5.39409">
        <ele>950</ele>
        <time>2019-06-15T09:39:55.028Z</time>
      </trkpt>
      <trkpt lat="45.03911" lon="5.3941">
        <ele>951</ele>
        <time>2019-06-15T09:39:56.028Z</time>
      </trkpt>
      <trkpt lat="45.03911" lon="5.39411">
        <ele>952</ele>
        <time>2019-06-15T09:39:57.028Z</time>
      </trkpt>
      <trkpt lat="45.03911" lon="5.39412">
        <ele>952</ele>
        <time>2019-06-15T09:39:58.028Z</time>
      </trkpt>
      <trkpt lat="45.03911" lon="5.39413">
        <ele>953</ele>
        <time>2019-06-15T09:39:59.028Z</time>
      </trkpt>
      <trkpt lat="45.0391" lon="5.39414">
        <ele>954</ele>
        <time>2019-06-15T09:40:00.028Z</time>
      </trkpt>
      <trkpt lat="45.0391" lon="5.39414">
        <ele>955</ele>
        <time>2019-06-15T09:40:01.028Z</time>
      </trkpt>
      <trkpt lat="45.0391" lon="5.39415">
        <ele>955</ele>
        <time>2019-06-15T09:40:02.028Z</time>
      </trkpt>
      <trkpt lat="45.03909" lon="5.39415">
        <ele>955</ele>
        <time>2019-06-15T09:40:03.028Z</time>
      </trkpt>
      <trkpt lat="45.03909" lon="5.39416">
        <ele>956</ele>
        <time>2019-06-15T09:40:04.028Z</time>
      </trkpt>
      <trkpt lat="45.03908" lon="5.39416">
        <ele>956</ele>
        <time>2019-06-15T09:40:05.028Z</time>
      </trkpt>
      <trkpt lat="45.03908" lon="5.39417">
        <ele>956</ele>
        <time>2019-06-15T09:40:06.028Z</time>
      </trkpt>
      <trkpt lat="45.03907" lon="5.39418">
        <ele>956</ele>
        <time>2019-06-15T09:40:07.028Z</time>
      </trkpt>
      <trkpt lat="45.03907" lon="5.39418">
        <ele>957</ele>
        <time>2019-06-15T09:40:08.028Z</time>
      </trkpt>
      <trkpt lat="45.03906" lon="5.39419">
        <ele>957</ele>
        <time>2019-06-15T09:40:09.028Z</time>
      </trkpt>
      <trkpt lat="45.03906" lon="5.3942">
        <ele>957</ele>
        <time>2019-06-15T09:40:10.028Z</time>
      </trkpt>
      <trkpt lat="45.03906" lon="5.3942">
        <ele>958</ele>
        <time>2019-06-15T09:40:11.028Z</time>
      </trkpt>
      <trkpt lat="45.03906" lon="5.39421">
        <ele>958</ele>
        <time>2019-06-15T09:40:12.028Z</time>
      </trkpt>
      <trkpt lat="45.03906" lon="5.39421">
        <ele>959</ele>
        <time>2019-06-15T09:40:13.028Z</time>
      </trkpt>
      <trkpt lat="45.03906" lon="5.39422">
        <ele>958</ele>
        <time>2019-06-15T09:40:14.028Z</time>
      </trkpt>
      <trkpt lat="45.03905" lon="5.39423">
        <ele>958</ele>
        <time>2019-06-15T09:40:15.028Z</time>
      </trkpt>
      <trkpt lat="45.03905" lon="5.39424">
        <ele>958</ele>
        <time>2019-06-15T09:40:16.028Z</time>
      </trkpt>
      <trkpt lat="45.03905" lon="5.39425">
        <ele>958</ele>
        <time>2019-06-15T09:40:17.028Z</time>
      </trkpt>
      <trkpt lat="45.03905" lon="5.39426">
        <ele>958</ele>
        <time>2019-06-15T09:40:18.028Z</time>
      </trkpt>
      <trkpt lat="45.03904" lon="5.39427">
        <ele>958</ele>
        <time>2019-06-15T09:40:19.028Z</time>
      </trkpt>
      <trkpt lat="45.03903" lon="5.39428">
        <ele>958</ele>
        <time>2019-06-15T09:40:20.028Z</time>
      </trkpt>
      <trkpt lat="45.03902" lon="5.39429">
        <ele>959</ele>
        <time>2019-06-15T09:40:21.028Z</time>
      </trkpt>
      <trkpt lat="45.03901" lon="5.39429">
        <ele>960</ele>
        <time>2019-06-15T09:40:22.028Z</time>
      </trkpt>
      <trkpt lat="45.039" lon="5.39429">
        <ele>961</ele>
        <time>2019-06-15T09:40:23.028Z</time>
      </trkpt>
      <trkpt lat="45.03899" lon="5.39429">
        <ele>961</ele>
        <time>2019-06-15T09:40:24.028Z</time>
      </trkpt>
      <trkpt lat="45.03898" lon="5.3943">
        <ele>962</ele>
        <time>2019-06-15T09:40:25.028Z</time>
      </trkpt>
      <trkpt lat="45.03897" lon="5.39431">
        <ele>962</ele>
        <time>2019-06-15T09:40:26.028Z</time>
      </trkpt>
      <trkpt lat="45.03896" lon="5.39431">
        <ele>962</ele>
        <time>2019-06-15T09:40:27.028Z</time>
      </trkpt>
      <trkpt lat="45.03896" lon="5.39432">
        <ele>963</ele>
        <time>2019-06-15T09:40:28.028Z</time>
      </trkpt>
      <trkpt lat="45.03895" lon="5.39432">
        <ele>963</ele>
        <time>2019-06-15T09:40:29.028Z</time>
      </trkpt>
      <trkpt lat="45.03895" lon="5.39433">
        <ele>964</ele>
        <time>2019-06-15T09:40:30.028Z</time>
      </trkpt>
      <trkpt lat="45.03893" lon="5.39433">
        <ele>965</ele>
        <time>2019-06-15T09:40:31.028Z</time>
      </trkpt>
      <trkpt lat="45.03892" lon="5.39434">
        <ele>965</ele>
        <time>2019-06-15T09:40:32.028Z</time>
      </trkpt>
      <trkpt lat="45.03892" lon="5.39435">
        <ele>965</ele>
        <time>2019-06-15T09:40:33.028Z</time>
      </trkpt>
      <trkpt lat="45.03891" lon="5.39436">
        <ele>966</ele>
        <time>2019-06-15T09:40:34.028Z</time>
      </trkpt>
      <trkpt lat="45.03891" lon="5.39437">
        <ele>966</ele>
        <time>2019-06-15T09:40:35.028Z</time>
      </trkpt>
      <trkpt lat="45.0389" lon="5.39438">
        <ele>966</ele>
        <time>2019-06-15T09:40:36.028Z</time>
      </trkpt>
      <trkpt lat="45.03889" lon="5.39439">
        <ele>967</ele>
        <time>2019-06-15T09:40:37.028Z</time>
      </trkpt>
      <trkpt lat="45.03889" lon="5.39439">
        <ele>967</ele>
        <time>2019-06-15T09:40:38.028Z</time>
      </trkpt>
      <trkpt lat="45.03888" lon="5.3944">
        <ele>968</ele>
        <time>2019-06-15T09:40:39.028Z</time>
      </trkpt>
      <trkpt lat="45.03887" lon="5.3944">
        <ele>968</ele>
        <time>2019-06-15T09:40:40.028Z</time>
      </trkpt>
      <trkpt lat="45.03886" lon="5.39441">
        <ele>968</ele>
        <time>2019-06-15T09:40:41.028Z</time>
      </trkpt>
      <trkpt lat="45.03885" lon="5.39442">
        <ele>968</ele>
        <time>2019-06-15T09:40:42.028Z</time>
      </trkpt>
      <trkpt lat="45.03884" lon="5.39442">
        <ele>969</ele>
        <time>2019-06-15T09:40:43.028Z</time>
      </trkpt>
      <trkpt lat="45.03883" lon="5.39443">
        <ele>968</ele>
        <time>2019-06-15T09:40:44.028Z</time>
      </trkpt>
      <trkpt lat="45.03882" lon="5.39444">
        <ele>968</ele>
        <time>2019-06-15T09:40:45.028Z</time>
      </trkpt>
      <trkpt lat="45.03881" lon="5.39444">
        <ele>969</ele>
        <time>2019-06-15T09:40:46.028Z</time>
      </trkpt>
      <trkpt lat="45.03881" lon="5.39445">
        <ele>969</ele>
        <time>2019-06-15T09:40:47.028Z</time>
      </trkpt>
      <trkpt lat="45.0388" lon="5.39446">
        <ele>968</ele>
        <time>2019-06-15T09:40:48.028Z</time>
      </trkpt>
      <trkpt lat="45.0388" lon="5.39447">
        <ele>968</ele>
        <time>2019-06-15T09:40:49.028Z</time>
      </trkpt>
      <trkpt lat="45.0388" lon="5.39448">
        <ele>968</ele>
        <time>2019-06-15T09:40:50.028Z</time>
      </trkpt>
      <trkpt lat="45.03879" lon="5.39448">
        <ele>968</ele>
        <time>2019-06-15T09:40:51.028Z</time>
      </trkpt>
      <trkpt lat="45.03879" lon="5.39449">
        <ele>966</ele>
        <time>2019-06-15T09:40:52.028Z</time>
      </trkpt>
      <trkpt lat="45.03878" lon="5.39449">
        <ele>966</ele>
        <time>2019-06-15T09:40:53.028Z</time>
      </trkpt>
      <trkpt lat="45.03878" lon="5.3945">
        <ele>966</ele>
        <time>2019-06-15T09:40:54.028Z</time>
      </trkpt>
      <trkpt lat="45.03878" lon="5.39451">
        <ele>966</ele>
        <time>2019-06-15T09:40:55.028Z</time>
      </trkpt>
      <trkpt lat="45.03877" lon="5.39451">
        <ele>967</ele>
        <time>2019-06-15T09:40:56.028Z</time>
      </trkpt>
      <trkpt lat="45.03876" lon="5.39452">
        <ele>968</ele>
        <time>2019-06-15T09:40:57.028Z</time>
      </trkpt>
      <trkpt lat="45.03875" lon="5.39452">
        <ele>968</ele>
        <time>2019-06-15T09:40:58.028Z</time>
      </trkpt>
      <trkpt lat="45.03875" lon="5.39453">
        <ele>968</ele>
        <time>2019-06-15T09:40:59.028Z</time>
      </trkpt>
      <trkpt lat="45.03874" lon="5.39453">
        <ele>968</ele>
        <time>2019-06-15T09:41:00.028Z</time>
      </trkpt>
      <trkpt lat="45.03874" lon="5.39454">
        <ele>968</ele>
        <time>2019-06-15T09:41:01.028Z</time>
      </trkpt>
      <trkpt lat="45.03874" lon="5.39455">
        <ele>967</ele>
        <time>2019-06-15T09:41:02.028Z</time>
      </trkpt>
      <trkpt lat="45.03874" lon="5.39455">
        <ele>967</ele>
        <time>2019-06-15T09:41:03.028Z</time>
      </trkpt>
      <trkpt lat="45.03874" lon="5.39456">
        <ele>967</ele>
        <time>2019-06-15T09:41:04.028Z</time>
      </trkpt>
      <trkpt lat="45.03873" lon="5.39457">
        <ele>967</ele>
        <time>2019-06-15T09:41:05.028Z</time>
      </trkpt>
      <trkpt lat="45.03869" lon="5.39463">
        <ele>968</ele>
        <time>2019-06-15T09:41:06.024Z</time>
      </trkpt>
      <trkpt lat="45.03868" lon="5.39464">
        <ele>968</ele>
        <time>2019-06-15T09:41:07.024Z</time>
      </trkpt>
      <trkpt lat="45.03867" lon="5.39466">
        <ele>967</ele>
        <time>2019-06-15T09:41:08.024Z</time>
      </trkpt>
      <trkpt lat="45.03866" lon="5.39469">
        <ele>964</ele>
        <time>2019-06-15T09:41:09.024Z</time>
      </trkpt>
      <trkpt lat="45.03866" lon="5.39471">
        <ele>964</ele>
        <time>2019-06-15T09:41:10.024Z</time>
      </trkpt>
      <trkpt lat="45.03866" lon="5.39473">
        <ele>964</ele>
        <time>2019-06-15T09:41:11.024Z</time>
      </trkpt>
      <trkpt lat="45.03865" lon="5.39475">
        <ele>964</ele>
        <time>2019-06-15T09:41:12.024Z</time>
      </trkpt>
      <trkpt lat="45.03865" lon="5.39476">
        <ele>964</ele>
        <time>2019-06-15T09:41:13.024Z</time>
      </trkpt>
      <trkpt lat="45.03865" lon="5.39477">
        <ele>964</ele>
        <time>2019-06-15T09:41:14.024Z</time>
      </trkpt>
      <trkpt lat="45.03864" lon="5.39478">
        <ele>964</ele>
        <time>2019-06-15T09:41:15.024Z</time>
      </trkpt>
      <trkpt lat="45.03864" lon="5.39479">
        <ele>965</ele>
        <time>2019-06-15T09:41:16.024Z</time>
      </trkpt>
      <trkpt lat="45.03863" lon="5.3948">
        <ele>965</ele>
        <time>2019-06-15T09:41:17.024Z</time>
      </trkpt>
      <trkpt lat="45.03862" lon="5.39481">
        <ele>966</ele>
        <time>2019-06-15T09:41:18.024Z</time>
      </trkpt>
      <trkpt lat="45.03862" lon="5.39482">
        <ele>966</ele>
        <time>2019-06-15T09:41:19.024Z</time>
      </trkpt>
      <trkpt lat="45.03861" lon="5.39483">
        <ele>966</ele>
        <time>2019-06-15T09:41:20.024Z</time>
      </trkpt>
      <trkpt lat="45.03861" lon="5.39484">
        <ele>966</ele>
        <time>2019-06-15T09:41:21.024Z</time>
      </trkpt>
      <trkpt lat="45.0386" lon="5.39485">
        <ele>966</ele>
        <time>2019-06-15T09:41:22.024Z</time>
      </trkpt>
      <trkpt lat="45.03859" lon="5.39486">
        <ele>966</ele>
        <time>2019-06-15T09:41:23.024Z</time>
      </trkpt>
      <trkpt lat="45.03858" lon="5.39487">
        <ele>966</ele>
        <time>2019-06-15T09:41:24.024Z</time>
      </trkpt>
      <trkpt lat="45.03857" lon="5.39488">
        <ele>966</ele>
        <time>2019-06-15T09:41:25.024Z</time>
      </trkpt>
      <trkpt lat="45.03857" lon="5.39489">
        <ele>965</ele>
        <time>2019-06-15T09:41:26.024Z</time>
      </trkpt>
      <trkpt lat="45.03857" lon="5.3949">
        <ele>966</ele>
        <time>2019-06-15T09:41:27.024Z</time>
      </trkpt>
      <trkpt lat="45.03857" lon="5.39491">
        <ele>966</ele>
        <time>2019-06-15T09:41:28.024Z</time>
      </trkpt>
      <trkpt lat="45.03856" lon="5.39492">
        <ele>966</ele>
        <time>2019-06-15T09:41:29.024Z</time>
      </trkpt>
      <trkpt lat="45.03856" lon="5.39492">
        <ele>967</ele>
        <time>2019-06-15T09:41:30.024Z</time>
      </trkpt>
      <trkpt lat="45.03855" lon="5.39493">
        <ele>968</ele>
        <time>2019-06-15T09:41:31.024Z</time>
      </trkpt>
      <trkpt lat="45.03854" lon="5.39494">
        <ele>968</ele>
        <time>2019-06-15T09:41:32.024Z</time>
      </trkpt>
      <trkpt lat="45.03853" lon="5.39495">
        <ele>969</ele>
        <time>2019-06-15T09:41:33.024Z</time>
      </trkpt>
      <trkpt lat="45.03853" lon="5.39496">
        <ele>970</ele>
        <time>2019-06-15T09:41:34.024Z</time>
      </trkpt>
      <trkpt lat="45.03852" lon="5.39496">
        <ele>970</ele>
        <time>2019-06-15T09:41:35.024Z</time>
      </trkpt>
      <trkpt lat="45.03851" lon="5.39497">
        <ele>971</ele>
        <time>2019-06-15T09:41:36.024Z</time>
      </trkpt>
      <trkpt lat="45.03851" lon="5.39497">
        <ele>970</ele>
        <time>2019-06-15T09:41:37.024Z</time>
      </trkpt>
      <trkpt lat="45.0385" lon="5.39499">
        <ele>969</ele>
        <time>2019-06-15T09:41:38.024Z</time>
      </trkpt>
      <trkpt lat="45.03849" lon="5.395">
        <ele>970</ele>
        <time>2019-06-15T09:41:39.024Z</time>
      </trkpt>
      <trkpt lat="45.03848" lon="5.39501">
        <ele>970</ele>
        <time>2019-06-15T09:41:40.024Z</time>
      </trkpt>
      <trkpt lat="45.03847" lon="5.39502">
        <ele>969</ele>
        <time>2019-06-15T09:41:41.024Z</time>
      </trkpt>
      <trkpt lat="45.03847" lon="5.39503">
        <ele>969</ele>
        <time>2019-06-15T09:41:42.024Z</time>
      </trkpt>
      <trkpt lat="45.03846" lon="5.39504">
        <ele>970</ele>
        <time>2019-06-15T09:41:43.024Z</time>
      </trkpt>
      <trkpt lat="45.03845" lon="5.39504">
        <ele>971</ele>
        <time>2019-06-15T09:41:44.024Z</time>
      </trkpt>
      <trkpt lat="45.03845" lon="5.39506">
        <ele>969</ele>
        <time>2019-06-15T09:41:45.024Z</time>
      </trkpt>
      <trkpt lat="45.03844" lon="5.39507">
        <ele>970</ele>
        <time>2019-06-15T09:41:46.024Z</time>
      </trkpt>
      <trkpt lat="45.03844" lon="5.39509">
        <ele>970</ele>
        <time>2019-06-15T09:41:47.024Z</time>
      </trkpt>
      <trkpt lat="45.03844" lon="5.3951">
        <ele>970</ele>
        <time>2019-06-15T09:41:48.024Z</time>
      </trkpt>
      <trkpt lat="45.03843" lon="5.39511">
        <ele>970</ele>
        <time>2019-06-15T09:41:49.024Z</time>
      </trkpt>
      <trkpt lat="45.03843" lon="5.39512">
        <ele>971</ele>
        <time>2019-06-15T09:41:50.024Z</time>
      </trkpt>
      <trkpt lat="45.03842" lon="5.39512">
        <ele>971</ele>
        <time>2019-06-15T09:41:51.024Z</time>
      </trkpt>
      <trkpt lat="45.03841" lon="5.39513">
        <ele>972</ele>
        <time>2019-06-15T09:41:52.024Z</time>
      </trkpt>
      <trkpt lat="45.03841" lon="5.39514">
        <ele>972</ele>
        <time>2019-06-15T09:41:53.024Z</time>
      </trkpt>
      <trkpt lat="45.0384" lon="5.39516">
        <ele>972</ele>
        <time>2019-06-15T09:41:54.024Z</time>
      </trkpt>
      <trkpt lat="45.03839" lon="5.39517">
        <ele>972</ele>
        <time>2019-06-15T09:41:55.024Z</time>
      </trkpt>
      <trkpt lat="45.03838" lon="5.39518">
        <ele>972</ele>
        <time>2019-06-15T09:41:56.024Z</time>
      </trkpt>
      <trkpt lat="45.03838" lon="5.39519">
        <ele>973</ele>
        <time>2019-06-15T09:41:57.024Z</time>
      </trkpt>
      <trkpt lat="45.03837" lon="5.3952">
        <ele>973</ele>
        <time>2019-06-15T09:41:58.024Z</time>
      </trkpt>
      <trkpt lat="45.03836" lon="5.39521">
        <ele>974</ele>
        <time>2019-06-15T09:41:59.024Z</time>
      </trkpt>
      <trkpt lat="45.03836" lon="5.39522">
        <ele>973</ele>
        <time>2019-06-15T09:42:00.024Z</time>
      </trkpt>
      <trkpt lat="45.03836" lon="5.39523">
        <ele>973</ele>
        <time>2019-06-15T09:42:01.024Z</time>
      </trkpt>
      <trkpt lat="45.03836" lon="5.39524">
        <ele>973</ele>
        <time>2019-06-15T09:42:02.024Z</time>
      </trkpt>
      <trkpt lat="45.03836" lon="5.39525">
        <ele>973</ele>
        <time>2019-06-15T09:42:03.024Z</time>
      </trkpt>
      <trkpt lat="45.03835" lon="5.39526">
        <ele>974</ele>
        <time>2019-06-15T09:42:04.024Z</time>
      </trkpt>
      <trkpt lat="45.03835" lon="5.39526">
        <ele>975</ele>
        <time>2019-06-15T09:42:05.024Z</time>
      </trkpt>
      <trkpt lat="45.03835" lon="5.39527">
        <ele>975</ele>
        <time>2019-06-15T09:42:06.024Z</time>
      </trkpt>
      <trkpt lat="45.03834" lon="5.39527">
        <ele>976</ele>
        <time>2019-06-15T09:42:07.024Z</time>
      </trkpt>
      <trkpt lat="45.03834" lon="5.39528">
        <ele>976</ele>
        <time>2019-06-15T09:42:08.024Z</time>
      </trkpt>
      <trkpt lat="45.03833" lon="5.39528">
        <ele>976</ele>
        <time>2019-06-15T09:42:09.024Z</time>
      </trkpt>
      <trkpt lat="45.03824" lon="5.39535">
        <ele>982</ele>
        <time>2019-06-15T09:42:10.036Z</time>
      </trkpt>
      <trkpt lat="45.03823" lon="5.39536">
        <ele>983</ele>
        <time>2019-06-15T09:42:11.036Z</time>
      </trkpt>
      <trkpt lat="45.03822" lon="5.39537">
        <ele>983</ele>
        <time>2019-06-15T09:42:12.036Z</time>
      </trkpt>
      <trkpt lat="45.03821" lon="5.39538">
        <ele>984</ele>
        <time>2019-06-15T09:42:13.036Z</time>
      </trkpt>
      <trkpt lat="45.0382" lon="5.39539">
        <ele>984</ele>
        <time>2019-06-15T09:42:14.036Z</time>
      </trkpt>
      <trkpt lat="45.0382" lon="5.3954">
        <ele>984</ele>
        <time>2019-06-15T09:42:15.036Z</time>
      </trkpt>
      <trkpt lat="45.03819" lon="5.39541">
        <ele>984</ele>
        <time>2019-06-15T09:42:16.036Z</time>
      </trkpt>
      <trkpt lat="45.03819" lon="5.39542">
        <ele>985</ele>
        <time>2019-06-15T09:42:17.036Z</time>
      </trkpt>
      <trkpt lat="45.03818" lon="5.39543">
        <ele>985</ele>
        <time>2019-06-15T09:42:18.036Z</time>
      </trkpt>
      <trkpt lat="45.03817" lon="5.39544">
        <ele>985</ele>
        <time>2019-06-15T09:42:19.036Z</time>
      </trkpt>
      <trkpt lat="45.03816" lon="5.39545">
        <ele>985</ele>
        <time>2019-06-15T09:42:20.036Z</time>
      </trkpt>
      <trkpt lat="45.03816" lon="5.39547">
        <ele>985</ele>
        <time>2019-06-15T09:42:21.036Z</time>
      </trkpt>
      <trkpt lat="45.03815" lon="5.39548">
        <ele>985</ele>
        <time>2019-06-15T09:42:22.036Z</time>
      </trkpt>
      <trkpt lat="45.03814" lon="5.39549">
        <ele>985</ele>
        <time>2019-06-15T09:42:23.036Z</time>
      </trkpt>
      <trkpt lat="45.03813" lon="5.3955">
        <ele>986</ele>
        <time>2019-06-15T09:42:24.036Z</time>
      </trkpt>
      <trkpt lat="45.03813" lon="5.3955">
        <ele>986</ele>
        <time>2019-06-15T09:42:25.036Z</time>
      </trkpt>
      <trkpt lat="45.03812" lon="5.39551">
        <ele>986</ele>
        <time>2019-06-15T09:42:26.036Z</time>
      </trkpt>
      <trkpt lat="45.03811" lon="5.39552">
        <ele>987</ele>
        <time>2019-06-15T09:42:27.036Z</time>
      </trkpt>
      <trkpt lat="45.0381" lon="5.39553">
        <ele>987</ele>
        <time>2019-06-15T09:42:28.036Z</time>
      </trkpt>
      <trkpt lat="45.0381" lon="5.39554">
        <ele>987</ele>
        <time>2019-06-15T09:42:29.036Z</time>
      </trkpt>
      <trkpt lat="45.03809" lon="5.39554">
        <ele>987</ele>
        <time>2019-06-15T09:42:30.036Z</time>
      </trkpt>
      <trkpt lat="45.03808" lon="5.39555">
        <ele>987</ele>
        <time>2019-06-15T09:42:31.036Z</time>
      </trkpt>
      <trkpt lat="45.03807" lon="5.39555">
        <ele>988</ele>
        <time>2019-06-15T09:42:32.036Z</time>
      </trkpt>
      <trkpt lat="45.03806" lon="5.39556">
        <ele>988</ele>
        <time>2019-06-15T09:42:33.036Z</time>
      </trkpt>
      <trkpt lat="45.03806" lon="5.39556">
        <ele>988</ele>
        <time>2019-06-15T09:42:34.036Z</time>
      </trkpt>
      <trkpt lat="45.03805" lon="5.39557">
        <ele>989</ele>
        <time>2019-06-15T09:42:35.036Z</time>
      </trkpt>
      <trkpt lat="45.03803" lon="5.39558">
        <ele>990</ele>
        <time>2019-06-15T09:42:36.036Z</time>
      </trkpt>
      <trkpt lat="45.03802" lon="5.39559">
        <ele>990</ele>
        <time>2019-06-15T09:42:37.036Z</time>
      </trkpt>
      <trkpt lat="45.038" lon="5.3956">
        <ele>993</ele>
        <time>2019-06-15T09:42:38.036Z</time>
      </trkpt>
      <trkpt lat="45.03799" lon="5.39561">
        <ele>994</ele>
        <time>2019-06-15T09:42:39.036Z</time>
      </trkpt>
      <trkpt lat="45.03798" lon="5.39562">
        <ele>994</ele>
        <time>2019-06-15T09:42:40.036Z</time>
      </trkpt>
      <trkpt lat="45.03797" lon="5.39562">
        <ele>995</ele>
        <time>2019-06-15T09:42:41.036Z</time>
      </trkpt>
      <trkpt lat="45.03796" lon="5.39564">
        <ele>995</ele>
        <time>2019-06-15T09:42:42.036Z</time>
      </trkpt>
      <trkpt lat="45.03795" lon="5.39565">
        <ele>996</ele>
        <time>2019-06-15T09:42:43.036Z</time>
      </trkpt>
      <trkpt lat="45.03795" lon="5.39566">
        <ele>996</ele>
        <time>2019-06-15T09:42:44.036Z</time>
      </trkpt>
      <trkpt lat="45.03794" lon="5.39568">
        <ele>997</ele>
        <time>2019-06-15T09:42:45.036Z</time>
      </trkpt>
      <trkpt lat="45.03793" lon="5.39569">
        <ele>998</ele>
        <time>2019-06-15T09:42:46.036Z</time>
      </trkpt>
      <trkpt lat="45.03792" lon="5.39571">
        <ele>998</ele>
        <time>2019-06-15T09:42:47.036Z</time>
      </trkpt>
      <trkpt lat="45.03791" lon="5.39572">
        <ele>998</ele>
        <time>2019-06-15T09:42:48.036Z</time>
      </trkpt>
      <trkpt lat="45.0379" lon="5.39573">
        <ele>998</ele>
        <time>2019-06-15T09:42:49.036Z</time>
      </trkpt>
      <trkpt lat="45.03789" lon="5.39574">
        <ele>999</ele>
        <time>2019-06-15T09:42:50.036Z</time>
      </trkpt>
      <trkpt lat="45.03788" lon="5.39575">
        <ele>999</ele>
        <time>2019-06-15T09:42:51.036Z</time>
      </trkpt>
      <trkpt lat="45.03788" lon="5.39576">
        <ele>999</ele>
        <time>2019-06-15T09:42:52.036Z</time>
      </trkpt>
      <trkpt lat="45.03787" lon="5.39578">
        <ele>999</ele>
        <time>2019-06-15T09:42:53.036Z</time>
      </trkpt>
      <trkpt lat="45.03787" lon="5.39579">
        <ele>1000</ele>
        <time>2019-06-15T09:42:54.036Z</time>
      </trkpt>
      <trkpt lat="45.03786" lon="5.3958">
        <ele>1000</ele>
        <time>2019-06-15T09:42:55.036Z</time>
      </trkpt>
      <trkpt lat="45.03785" lon="5.39581">
        <ele>1000</ele>
        <time>2019-06-15T09:42:56.036Z</time>
      </trkpt>
      <trkpt lat="45.03784" lon="5.39582">
        <ele>1000</ele>
        <time>2019-06-15T09:42:57.036Z</time>
      </trkpt>
      <trkpt lat="45.03783" lon="5.39583">
        <ele>1000</ele>
        <time>2019-06-15T09:42:58.036Z</time>
      </trkpt>
      <trkpt lat="45.03783" lon="5.39584">
        <ele>1000</ele>
        <time>2019-06-15T09:42:59.036Z</time>
      </trkpt>
      <trkpt lat="45.03782" lon="5.39585">
        <ele>1000</ele>
        <time>2019-06-15T09:43:00.036Z</time>
      </trkpt>
      <trkpt lat="45.03781" lon="5.39586">
        <ele>1000</ele>
        <time>2019-06-15T09:43:01.036Z</time>
      </trkpt>
      <trkpt lat="45.0378" lon="5.39588">
        <ele>1000</ele>
        <time>2019-06-15T09:43:02.036Z</time>
      </trkpt>
      <trkpt lat="45.0378" lon="5.39589">
        <ele>1001</ele>
        <time>2019-06-15T09:43:03.036Z</time>
      </trkpt>
      <trkpt lat="45.03778" lon="5.3959">
        <ele>1002</ele>
        <time>2019-06-15T09:43:04.036Z</time>
      </trkpt>
      <trkpt lat="45.03777" lon="5.39591">
        <ele>1003</ele>
        <time>2019-06-15T09:43:05.036Z</time>
      </trkpt>
      <trkpt lat="45.03776" lon="5.39592">
        <ele>1005</ele>
        <time>2019-06-15T09:43:06.036Z</time>
      </trkpt>
      <trkpt lat="45.03774" lon="5.39592">
        <ele>1006</ele>
        <time>2019-06-15T09:43:07.036Z</time>
      </trkpt>
      <trkpt lat="45.03774" lon="5.39593">
        <ele>1005</ele>
        <time>2019-06-15T09:43:08.036Z</time>
      </trkpt>
      <trkpt lat="45.03773" lon="5.39594">
        <ele>1005</ele>
        <time>2019-06-15T09:43:09.036Z</time>
      </trkpt>
      <trkpt lat="45.03773" lon="5.39596">
        <ele>1005</ele>
        <time>2019-06-15T09:43:10.036Z</time>
      </trkpt>
      <trkpt lat="45.03771" lon="5.39597">
        <ele>1006</ele>
        <time>2019-06-15T09:43:11.036Z</time>
      </trkpt>
      <trkpt lat="45.0377" lon="5.39598">
        <ele>1006</ele>
        <time>2019-06-15T09:43:12.036Z</time>
      </trkpt>
      <trkpt lat="45.03769" lon="5.39599">
        <ele>1006</ele>
        <time>2019-06-15T09:43:13.036Z</time>
      </trkpt>
      <trkpt lat="45.03769" lon="5.39599">
        <ele>1006</ele>
        <time>2019-06-15T09:43:14.036Z</time>
      </trkpt>
      <trkpt lat="45.03768" lon="5.396">
        <ele>1007</ele>
        <time>2019-06-15T09:43:15.036Z</time>
      </trkpt>
      <trkpt lat="45.03766" lon="5.39601">
        <ele>1008</ele>
        <time>2019-06-15T09:43:16.036Z</time>
      </trkpt>
      <trkpt lat="45.03765" lon="5.39602">
        <ele>1008</ele>
        <time>2019-06-15T09:43:17.036Z</time>
      </trkpt>
      <trkpt lat="45.03765" lon="5.39603">
        <ele>1007</ele>
        <time>2019-06-15T09:43:18.036Z</time>
      </trkpt>
      <trkpt lat="45.03764" lon="5.39603">
        <ele>1007</ele>
        <time>2019-06-15T09:43:19.036Z</time>
      </trkpt>
      <trkpt lat="45.03764" lon="5.39604">
        <ele>1007</ele>
        <time>2019-06-15T09:43:20.036Z</time>
      </trkpt>
      <trkpt lat="45.03763" lon="5.39605">
        <ele>1008</ele>
        <time>2019-06-15T09:43:21.036Z</time>
      </trkpt>
      <trkpt lat="45.03762" lon="5.39606">
        <ele>1008</ele>
        <time>2019-06-15T09:43:22.036Z</time>
      </trkpt>
      <trkpt lat="45.03761" lon="5.39607">
        <ele>1009</ele>
        <time>2019-06-15T09:43:23.036Z</time>
      </trkpt>
      <trkpt lat="45.0376" lon="5.39608">
        <ele>1009</ele>
        <time>2019-06-15T09:43:24.036Z</time>
      </trkpt>
      <trkpt lat="45.03759" lon="5.39609">
        <ele>1009</ele>
        <time>2019-06-15T09:43:25.036Z</time>
      </trkpt>
      <trkpt lat="45.03758" lon="5.3961">
        <ele>1009</ele>
        <time>2019-06-15T09:43:26.036Z</time>
      </trkpt>
      <trkpt lat="45.03757" lon="5.39611">
        <ele>1009</ele>
        <time>2019-06-15T09:43:27.036Z</time>
      </trkpt>
      <trkpt lat="45.03757" lon="5.39611">
        <ele>1009</ele>
        <time>2019-06-15T09:43:28.036Z</time>
      </trkpt>
      <trkpt lat="45.03756" lon="5.39613">
        <ele>1009</ele>
        <time>2019-06-15T09:43:29.036Z</time>
      </trkpt>
      <trkpt lat="45.03755" lon="5.39613">
        <ele>1009</ele>
        <time>2019-06-15T09:43:30.036Z</time>
      </trkpt>
      <trkpt lat="45.03755" lon="5.39614">
        <ele>1009</ele>
        <time>2019-06-15T09:43:31.036Z</time>
      </trkpt>
      <trkpt lat="45.03754" lon="5.39615">
        <ele>1009</ele>
        <time>2019-06-15T09:43:32.036Z</time>
      </trkpt>
      <trkpt lat="45.03754" lon="5.39616">
        <ele>1010</ele>
        <time>2019-06-15T09:43:33.036Z</time>
      </trkpt>
      <trkpt lat="45.03753" lon="5.39617">
        <ele>1012</ele>
        <time>2019-06-15T09:43:34.036Z</time>
      </trkpt>
      <trkpt lat="45.03752" lon="5.39618">
        <ele>1012</ele>
        <time>2019-06-15T09:43:35.036Z</time>
      </trkpt>
      <trkpt lat="45.03751" lon="5.39619">
        <ele>1012</ele>
        <time>2019-06-15T09:43:36.036Z</time>
      </trkpt>
      <trkpt lat="45.0375" lon="5.3962">
        <ele>1012</ele>
        <time>2019-06-15T09:43:37.036Z</time>
      </trkpt>
      <trkpt lat="45.03749" lon="5.39621">
        <ele>1012</ele>
        <time>2019-06-15T09:43:38.036Z</time>
      </trkpt>
      <trkpt lat="45.03748" lon="5.39622">
        <ele>1012</ele>
        <time>2019-06-15T09:43:39.036Z</time>
      </trkpt>
      <trkpt lat="45.03747" lon="5.39623">
        <ele>1012</ele>
        <time>2019-06-15T09:43:40.036Z</time>
      </trkpt>
      <trkpt lat="45.03746" lon="5.39624">
        <ele>1012</ele>
        <time>2019-06-15T09:43:41.036Z</time>
      </trkpt>
      <trkpt lat="45.03746" lon="5.39625">
        <ele>1012</ele>
        <time>2019-06-15T09:43:42.036Z</time>
      </trkpt>
      <trkpt lat="45.03745" lon="5.39626">
        <ele>1012</ele>
        <time>2019-06-15T09:43:43.036Z</time>
      </trkpt>
      <trkpt lat="45.03744" lon="5.39626">
        <ele>1013</ele>
        <time>2019-06-15T09:43:44.036Z</time>
      </trkpt>
      <trkpt lat="45.03744" lon="5.39627">
        <ele>1013</ele>
        <time>2019-06-15T09:43:45.036Z</time>
      </trkpt>
      <trkpt lat="45.03743" lon="5.39628">
        <ele>1013</ele>
        <time>2019-06-15T09:43:46.036Z</time>
      </trkpt>
      <trkpt lat="45.03742" lon="5.39628">
        <ele>1014</ele>
        <time>2019-06-15T09:43:47.036Z</time>
      </trkpt>
      <trkpt lat="45.03742" lon="5.39629">
        <ele>1013</ele>
        <time>2019-06-15T09:43:48.036Z</time>
      </trkpt>
      <trkpt lat="45.03741" lon="5.3963">
        <ele>1014</ele>
        <time>2019-06-15T09:43:49.036Z</time>
      </trkpt>
      <trkpt lat="45.0374" lon="5.39631">
        <ele>1015</ele>
        <time>2019-06-15T09:43:50.036Z</time>
      </trkpt>
      <trkpt lat="45.0374" lon="5.39632">
        <ele>1015</ele>
        <time>2019-06-15T09:43:51.036Z</time>
      </trkpt>
      <trkpt lat="45.03739" lon="5.39632">
        <ele>1016</ele>
        <time>2019-06-15T09:43:52.036Z</time>
      </trkpt>
      <trkpt lat="45.03738" lon="5.39633">
        <ele>1016</ele>
        <time>2019-06-15T09:43:53.036Z</time>
      </trkpt>
      <trkpt lat="45.03737" lon="5.39634">
        <ele>1016</ele>
        <time>2019-06-15T09:43:54.036Z</time>
      </trkpt>
      <trkpt lat="45.03736" lon="5.39635">
        <ele>1016</ele>
        <time>2019-06-15T09:43:55.036Z</time>
      </trkpt>
      <trkpt lat="45.03736" lon="5.39636">
        <ele>1015</ele>
        <time>2019-06-15T09:43:56.036Z</time>
      </trkpt>
      <trkpt lat="45.03736" lon="5.39637">
        <ele>1015</ele>
        <time>2019-06-15T09:43:57.036Z</time>
      </trkpt>
      <trkpt lat="45.03735" lon="5.39638">
        <ele>1015</ele>
        <time>2019-06-15T09:43:58.036Z</time>
      </trkpt>
      <trkpt lat="45.03735" lon="5.39639">
        <ele>1015</ele>
        <time>2019-06-15T09:43:59.036Z</time>
      </trkpt>
      <trkpt lat="45.03735" lon="5.3964">
        <ele>1015</ele>
        <time>2019-06-15T09:44:00.036Z</time>
      </trkpt>
      <trkpt lat="45.03734" lon="5.39641">
        <ele>1016</ele>
        <time>2019-06-15T09:44:01.036Z</time>
      </trkpt>
      <trkpt lat="45.03734" lon="5.39642">
        <ele>1016</ele>
        <time>2019-06-15T09:44:02.036Z</time>
      </trkpt>
      <trkpt lat="45.03733" lon="5.39643">
        <ele>1018</ele>
        <time>2019-06-15T09:44:03.036Z</time>
      </trkpt>
      <trkpt lat="45.03732" lon="5.39644">
        <ele>1019</ele>
        <time>2019-06-15T09:44:04.036Z</time>
      </trkpt>
      <trkpt lat="45.03731" lon="5.39645">
        <ele>1019</ele>
        <time>2019-06-15T09:44:05.036Z</time>
      </trkpt>
      <trkpt lat="45.03731" lon="5.39646">
        <ele>1019</ele>
        <time>2019-06-15T09:44:06.036Z</time>
      </trkpt>
      <trkpt lat="45.0373" lon="5.39647">
        <ele>1019</ele>
        <time>2019-06-15T09:44:07.036Z</time>
      </trkpt>
      <trkpt lat="45.03729" lon="5.39648">
        <ele>1019</ele>
        <time>2019-06-15T09:44:08.036Z</time>
      </trkpt>
      <trkpt lat="45.03728" lon="5.39648">
        <ele>1019</ele>
        <time>2019-06-15T09:44:09.036Z</time>
      </trkpt>
      <trkpt lat="45.03727" lon="5.39649">
        <ele>1021</ele>
        <time>2019-06-15T09:44:10.036Z</time>
      </trkpt>
      <trkpt lat="45.03726" lon="5.3965">
        <ele>1021</ele>
        <time>2019-06-15T09:44:11.036Z</time>
      </trkpt>
      <trkpt lat="45.03725" lon="5.39651">
        <ele>1021</ele>
        <time>2019-06-15T09:44:12.036Z</time>
      </trkpt>
      <trkpt lat="45.03724" lon="5.39652">
        <ele>1022</ele>
        <time>2019-06-15T09:44:13.036Z</time>
      </trkpt>
      <trkpt lat="45.03723" lon="5.39653">
        <ele>1022</ele>
        <time>2019-06-15T09:44:14.036Z</time>
      </trkpt>
      <trkpt lat="45.03723" lon="5.39654">
        <ele>1022</ele>
        <time>2019-06-15T09:44:15.036Z</time>
      </trkpt>
      <trkpt lat="45.03722" lon="5.39655">
        <ele>1022</ele>
        <time>2019-06-15T09:44:16.036Z</time>
      </trkpt>
      <trkpt lat="45.03722" lon="5.39656">
        <ele>1022</ele>
        <time>2019-06-15T09:44:17.036Z</time>
      </trkpt>
      <trkpt lat="45.03721" lon="5.39657">
        <ele>1022</ele>
        <time>2019-06-15T09:44:18.036Z</time>
      </trkpt>
      <trkpt lat="45.03721" lon="5.39658">
        <ele>1022</ele>
        <time>2019-06-15T09:44:19.036Z</time>
      </trkpt>
      <trkpt lat="45.0372" lon="5.39659">
        <ele>1022</ele>
        <time>2019-06-15T09:44:20.036Z</time>
      </trkpt>
      <trkpt lat="45.03719" lon="5.3966">
        <ele>1022</ele>
        <time>2019-06-15T09:44:21.036Z</time>
      </trkpt>
      <trkpt lat="45.03719" lon="5.39661">
        <ele>1022</ele>
        <time>2019-06-15T09:44:22.036Z</time>
      </trkpt>
      <trkpt lat="45.03718" lon="5.39662">
        <ele>1022</ele>
        <time>2019-06-15T09:44:23.036Z</time>
      </trkpt>
      <trkpt lat="45.03717" lon="5.39664">
        <ele>1022</ele>
        <time>2019-06-15T09:44:24.036Z</time>
      </trkpt>
      <trkpt lat="45.03716" lon="5.39665">
        <ele>1022</ele>
        <time>2019-06-15T09:44:25.036Z</time>
      </trkpt>
      <trkpt lat="45.03715" lon="5.39666">
        <ele>1022</ele>
        <time>2019-06-15T09:44:26.036Z</time>
      </trkpt>
      <trkpt lat="45.03714" lon="5.39667">
        <ele>1022</ele>
        <time>2019-06-15T09:44:27.036Z</time>
      </trkpt>
      <trkpt lat="45.03713" lon="5.39668">
        <ele>1022</ele>
        <time>2019-06-15T09:44:28.036Z</time>
      </trkpt>
      <trkpt lat="45.03712" lon="5.39668">
        <ele>1023</ele>
        <time>2019-06-15T09:44:29.036Z</time>
      </trkpt>
      <trkpt lat="45.03711" lon="5.39669">
        <ele>1023</ele>
        <time>2019-06-15T09:44:30.036Z</time>
      </trkpt>
      <trkpt lat="45.0371" lon="5.39669">
        <ele>1023</ele>
        <time>2019-06-15T09:44:31.036Z</time>
      </trkpt>
      <trkpt lat="45.0371" lon="5.3967">
        <ele>1022</ele>
        <time>2019-06-15T09:44:32.036Z</time>
      </trkpt>
      <trkpt lat="45.03709" lon="5.39671">
        <ele>1022</ele>
        <time>2019-06-15T09:44:33.036Z</time>
      </trkpt>
      <trkpt lat="45.03708" lon="5.39672">
        <ele>1022</ele>
        <time>2019-06-15T09:44:34.036Z</time>
      </trkpt>
      <trkpt lat="45.03708" lon="5.39673">
        <ele>1022</ele>
        <time>2019-06-15T09:44:35.036Z</time>
      </trkpt>
      <trkpt lat="45.03707" lon="5.39674">
        <ele>1023</ele>
        <time>2019-06-15T09:44:36.036Z</time>
      </trkpt>
      <trkpt lat="45.03706" lon="5.39675">
        <ele>1023</ele>
        <time>2019-06-15T09:44:37.036Z</time>
      </trkpt>
      <trkpt lat="45.03706" lon="5.39676">
        <ele>1022</ele>
        <time>2019-06-15T09:44:38.036Z</time>
      </trkpt>
      <trkpt lat="45.03705" lon="5.39677">
        <ele>1023</ele>
        <time>2019-06-15T09:44:39.036Z</time>
      </trkpt>
      <trkpt lat="45.03705" lon="5.39678">
        <ele>1022</ele>
        <time>2019-06-15T09:44:40.036Z</time>
      </trkpt>
      <trkpt lat="45.03705" lon="5.39678">
        <ele>1022</ele>
        <time>2019-06-15T09:44:41.036Z</time>
      </trkpt>
      <trkpt lat="45.03706" lon="5.39679">
        <ele>1022</ele>
        <time>2019-06-15T09:44:42.036Z</time>
      </trkpt>
      <trkpt lat="45.03706" lon="5.39679">
        <ele>1022</ele>
        <time>2019-06-15T09:44:43.036Z</time>
      </trkpt>
      <trkpt lat="45.03707" lon="5.39679">
        <ele>1023</ele>
        <time>2019-06-15T09:44:44.036Z</time>
      </trkpt>
      <trkpt lat="45.03707" lon="5.39678">
        <ele>1024</ele>
        <time>2019-06-15T09:44:45.036Z</time>
      </trkpt>
      <trkpt lat="45.03708" lon="5.39678">
        <ele>1024</ele>
        <time>2019-06-15T09:44:46.036Z</time>
      </trkpt>
      <trkpt lat="45.03709" lon="5.39677">
        <ele>1023</ele>
        <time>2019-06-15T09:44:47.036Z</time>
      </trkpt>
      <trkpt lat="45.03709" lon="5.39677">
        <ele>1024</ele>
        <time>2019-06-15T09:44:48.036Z</time>
      </trkpt>
      <trkpt lat="45.0371" lon="5.39676">
        <ele>1025</ele>
        <time>2019-06-15T09:44:49.036Z</time>
      </trkpt>
      <trkpt lat="45.0371" lon="5.39675">
        <ele>1026</ele>
        <time>2019-06-15T09:44:50.036Z</time>
      </trkpt>
      <trkpt lat="45.03711" lon="5.39674">
        <ele>1026</ele>
        <time>2019-06-15T09:44:51.036Z</time>
      </trkpt>
      <trkpt lat="45.03712" lon="5.39674">
        <ele>1026</ele>
        <time>2019-06-15T09:44:52.036Z</time>
      </trkpt>
      <trkpt lat="45.03713" lon="5.39674">
        <ele>1026</ele>
        <time>2019-06-15T09:44:53.036Z</time>
      </trkpt>
      <trkpt lat="45.03714" lon="5.39674">
        <ele>1026</ele>
        <time>2019-06-15T09:44:54.036Z</time>
      </trkpt>
      <trkpt lat="45.03714" lon="5.39673">
        <ele>1026</ele>
        <time>2019-06-15T09:44:55.036Z</time>
      </trkpt>
      <trkpt lat="45.03715" lon="5.39673">
        <ele>1027</ele>
        <time>2019-06-15T09:44:56.036Z</time>
      </trkpt>
      <trkpt lat="45.03716" lon="5.39673">
        <ele>1028</ele>
        <time>2019-06-15T09:44:57.036Z</time>
      </trkpt>
      <trkpt lat="45.03716" lon="5.39672">
        <ele>1028</ele>
        <time>2019-06-15T09:44:58.036Z</time>
      </trkpt>
      <trkpt lat="45.03717" lon="5.39673">
        <ele>1029</ele>
        <time>2019-06-15T09:44:59.036Z</time>
      </trkpt>
      <trkpt lat="45.03717" lon="5.39674">
        <ele>1028</ele>
        <time>2019-06-15T09:45:00.036Z</time>
      </trkpt>
      <trkpt lat="45.03717" lon="5.39674">
        <ele>1028</ele>
        <time>2019-06-15T09:45:01.036Z</time>
      </trkpt>
      <trkpt lat="45.03717" lon="5.39675">
        <ele>1028</ele>
        <time>2019-06-15T09:45:02.036Z</time>
      </trkpt>
      <trkpt lat="45.03716" lon="5.39675">
        <ele>1028</ele>
        <time>2019-06-15T09:45:03.036Z</time>
      </trkpt>
      <trkpt lat="45.03716" lon="5.39675">
        <ele>1029</ele>
        <time>2019-06-15T09:45:04.036Z</time>
      </trkpt>
      <trkpt lat="45.03716" lon="5.39676">
        <ele>1029</ele>
        <time>2019-06-15T09:45:05.036Z</time>
      </trkpt>
      <trkpt lat="45.03716" lon="5.39676">
        <ele>1029</ele>
        <time>2019-06-15T09:45:06.036Z</time>
      </trkpt>
      <trkpt lat="45.03715" lon="5.39677">
        <ele>1030</ele>
        <time>2019-06-15T09:45:07.036Z</time>
      </trkpt>
      <trkpt lat="45.03715" lon="5.39678">
        <ele>1030</ele>
        <time>2019-06-15T09:45:08.036Z</time>
      </trkpt>
      <trkpt lat="45.03715" lon="5.39679">
        <ele>1030</ele>
        <time>2019-06-15T09:45:09.036Z</time>
      </trkpt>
      <trkpt lat="45.03715" lon="5.3968">
        <ele>1031</ele>
        <time>2019-06-15T09:45:10.036Z</time>
      </trkpt>
      <trkpt lat="45.03714" lon="5.39681">
        <ele>1031</ele>
        <time>2019-06-15T09:45:11.036Z</time>
      </trkpt>
      <trkpt lat="45.03714" lon="5.39681">
        <ele>1031</ele>
        <time>2019-06-15T09:45:12.036Z</time>
      </trkpt>
      <trkpt lat="45.03714" lon="5.39682">
        <ele>1031</ele>
        <time>2019-06-15T09:45:13.036Z</time>
      </trkpt>
      <trkpt lat="45.03713" lon="5.39683">
        <ele>1032</ele>
        <time>2019-06-15T09:45:14.036Z</time>
      </trkpt>
      <trkpt lat="45.03713" lon="5.39683">
        <ele>1032</ele>
        <time>2019-06-15T09:45:15.036Z</time>
      </trkpt>
      <trkpt lat="45.03712" lon="5.39684">
        <ele>1032</ele>
        <time>2019-06-15T09:45:16.036Z</time>
      </trkpt>
      <trkpt lat="45.03711" lon="5.39684">
        <ele>1033</ele>
        <time>2019-06-15T09:45:17.036Z</time>
      </trkpt>
      <trkpt lat="45.03711" lon="5.39685">
        <ele>1033</ele>
        <time>2019-06-15T09:45:18.036Z</time>
      </trkpt>
      <trkpt lat="45.0371" lon="5.39686">
        <ele>1034</ele>
        <time>2019-06-15T09:45:19.036Z</time>
      </trkpt>
      <trkpt lat="45.03709" lon="5.39686">
        <ele>1035</ele>
        <time>2019-06-15T09:45:20.036Z</time>
      </trkpt>
      <trkpt lat="45.03708" lon="5.39687">
        <ele>1035</ele>
        <time>2019-06-15T09:45:21.036Z</time>
      </trkpt>
      <trkpt lat="45.03707" lon="5.39688">
        <ele>1036</ele>
        <time>2019-06-15T09:45:22.036Z</time>
      </trkpt>
      <trkpt lat="45.03706" lon="5.39689">
        <ele>1036</ele>
        <time>2019-06-15T09:45:23.036Z</time>
      </trkpt>
      <trkpt lat="45.03706" lon="5.3969">
        <ele>1036</ele>
        <time>2019-06-15T09:45:24.036Z</time>
      </trkpt>
      <trkpt lat="45.03705" lon="5.39691">
        <ele>1036</ele>
        <time>2019-06-15T09:45:25.036Z</time>
      </trkpt>
      <trkpt lat="45.03704" lon="5.39692">
        <ele>1036</ele>
        <time>2019-06-15T09:45:26.036Z</time>
      </trkpt>
      <trkpt lat="45.03703" lon="5.39693">
        <ele>1037</ele>
        <time>2019-06-15T09:45:27.036Z</time>
      </trkpt>
      <trkpt lat="45.03702" lon="5.39694">
        <ele>1036</ele>
        <time>2019-06-15T09:45:28.036Z</time>
      </trkpt>
      <trkpt lat="45.03702" lon="5.39695">
        <ele>1036</ele>
        <time>2019-06-15T09:45:29.036Z</time>
      </trkpt>
      <trkpt lat="45.03701" lon="5.39696">
        <ele>1037</ele>
        <time>2019-06-15T09:45:30.036Z</time>
      </trkpt>
      <trkpt lat="45.037" lon="5.39696">
        <ele>1037</ele>
        <time>2019-06-15T09:45:31.036Z</time>
      </trkpt>
      <trkpt lat="45.03699" lon="5.39697">
        <ele>1037</ele>
        <time>2019-06-15T09:45:32.036Z</time>
      </trkpt>
      <trkpt lat="45.03699" lon="5.39698">
        <ele>1036</ele>
        <time>2019-06-15T09:45:33.036Z</time>
      </trkpt>
      <trkpt lat="45.03699" lon="5.39699">
        <ele>1037</ele>
        <time>2019-06-15T09:45:34.036Z</time>
      </trkpt>
      <trkpt lat="45.03698" lon="5.397">
        <ele>1037</ele>
        <time>2019-06-15T09:45:35.036Z</time>
      </trkpt>
      <trkpt lat="45.03697" lon="5.39702">
        <ele>1037</ele>
        <time>2019-06-15T09:45:36.036Z</time>
      </trkpt>
      <trkpt lat="45.03697" lon="5.39703">
        <ele>1037</ele>
        <time>2019-06-15T09:45:37.036Z</time>
      </trkpt>
      <trkpt lat="45.03696" lon="5.39704">
        <ele>1037</ele>
        <time>2019-06-15T09:45:38.036Z</time>
      </trkpt>
      <trkpt lat="45.03696" lon="5.39705">
        <ele>1037</ele>
        <time>2019-06-15T09:45:39.036Z</time>
      </trkpt>
      <trkpt lat="45.03695" lon="5.39706">
        <ele>1037</ele>
        <time>2019-06-15T09:45:40.036Z</time>
      </trkpt>
      <trkpt lat="45.03694" lon="5.39707">
        <ele>1037</ele>
        <time>2019-06-15T09:45:41.036Z</time>
      </trkpt>
      <trkpt lat="45.03694" lon="5.39708">
        <ele>1037</ele>
        <time>2019-06-15T09:45:42.036Z</time>
      </trkpt>
      <trkpt lat="45.03693" lon="5.39709">
        <ele>1037</ele>
        <time>2019-06-15T09:45:43.036Z</time>
      </trkpt>
      <trkpt lat="45.03693" lon="5.3971">
        <ele>1037</ele>
        <time>2019-06-15T09:45:44.036Z</time>
      </trkpt>
      <trkpt lat="45.03692" lon="5.3971">
        <ele>1037</ele>
        <time>2019-06-15T09:45:45.036Z</time>
      </trkpt>
      <trkpt lat="45.03692" lon="5.39711">
        <ele>1038</ele>
        <time>2019-06-15T09:45:46.036Z</time>
      </trkpt>
      <trkpt lat="45.03691" lon="5.39712">
        <ele>1038</ele>
        <time>2019-06-15T09:45:47.036Z</time>
      </trkpt>
      <trkpt lat="45.0369" lon="5.39713">
        <ele>1038</ele>
        <time>2019-06-15T09:45:48.036Z</time>
      </trkpt>
      <trkpt lat="45.03689" lon="5.39714">
        <ele>1038</ele>
        <time>2019-06-15T09:45:49.036Z</time>
      </trkpt>
      <trkpt lat="45.03688" lon="5.39716">
        <ele>1038</ele>
        <time>2019-06-15T09:45:50.036Z</time>
      </trkpt>
      <trkpt lat="45.03687" lon="5.39717">
        <ele>1039</ele>
        <time>2019-06-15T09:45:51.036Z</time>
      </trkpt>
      <trkpt lat="45.03687" lon="5.39719">
        <ele>1039</ele>
        <time>2019-06-15T09:45:52.036Z</time>
      </trkpt>
      <trkpt lat="45.03686" lon="5.3972">
        <ele>1039</ele>
        <time>2019-06-15T09:45:53.036Z</time>
      </trkpt>
      <trkpt lat="45.03685" lon="5.39721">
        <ele>1040</ele>
        <time>2019-06-15T09:45:54.036Z</time>
      </trkpt>
      <trkpt lat="45.03685" lon="5.39722">
        <ele>1040</ele>
        <time>2019-06-15T09:45:55.036Z</time>
      </trkpt>
      <trkpt lat="45.03684" lon="5.39723">
        <ele>1041</ele>
        <time>2019-06-15T09:45:56.036Z</time>
      </trkpt>
      <trkpt lat="45.03684" lon="5.39724">
        <ele>1041</ele>
        <time>2019-06-15T09:45:57.036Z</time>
      </trkpt>
      <trkpt lat="45.03683" lon="5.39725">
        <ele>1041</ele>
        <time>2019-06-15T09:45:58.036Z</time>
      </trkpt>
      <trkpt lat="45.03683" lon="5.39726">
        <ele>1042</ele>
        <time>2019-06-15T09:45:59.036Z</time>
      </trkpt>
      <trkpt lat="45.03682" lon="5.39727">
        <ele>1042</ele>
        <time>2019-06-15T09:46:00.036Z</time>
      </trkpt>
      <trkpt lat="45.03681" lon="5.39727">
        <ele>1042</ele>
        <time>2019-06-15T09:46:01.036Z</time>
      </trkpt>
      <trkpt lat="45.03681" lon="5.39728">
        <ele>1043</ele>
        <time>2019-06-15T09:46:02.036Z</time>
      </trkpt>
      <trkpt lat="45.03681" lon="5.39729">
        <ele>1043</ele>
        <time>2019-06-15T09:46:03.036Z</time>
      </trkpt>
      <trkpt lat="45.0368" lon="5.3973">
        <ele>1043</ele>
        <time>2019-06-15T09:46:04.036Z</time>
      </trkpt>
      <trkpt lat="45.0368" lon="5.3973">
        <ele>1043</ele>
        <time>2019-06-15T09:46:05.036Z</time>
      </trkpt>
      <trkpt lat="45.03679" lon="5.39731">
        <ele>1042</ele>
        <time>2019-06-15T09:46:06.036Z</time>
      </trkpt>
      <trkpt lat="45.03679" lon="5.39731">
        <ele>1044</ele>
        <time>2019-06-15T09:46:07.036Z</time>
      </trkpt>
      <trkpt lat="45.03678" lon="5.39732">
        <ele>1045</ele>
        <time>2019-06-15T09:46:08.036Z</time>
      </trkpt>
      <trkpt lat="45.03678" lon="5.39733">
        <ele>1045</ele>
        <time>2019-06-15T09:46:09.036Z</time>
      </trkpt>
      <trkpt lat="45.03677" lon="5.39734">
        <ele>1045</ele>
        <time>2019-06-15T09:46:10.036Z</time>
      </trkpt>
      <trkpt lat="45.03678" lon="5.39734">
        <ele>1045</ele>
        <time>2019-06-15T09:46:11.036Z</time>
      </trkpt>
      <trkpt lat="45.03679" lon="5.39735">
        <ele>1046</ele>
        <time>2019-06-15T09:46:12.036Z</time>
      </trkpt>
      <trkpt lat="45.03679" lon="5.39734">
        <ele>1047</ele>
        <time>2019-06-15T09:46:13.036Z</time>
      </trkpt>
      <trkpt lat="45.0368" lon="5.39734">
        <ele>1047</ele>
        <time>2019-06-15T09:46:14.036Z</time>
      </trkpt>
      <trkpt lat="45.03681" lon="5.39734">
        <ele>1047</ele>
        <time>2019-06-15T09:46:15.036Z</time>
      </trkpt>
      <trkpt lat="45.03682" lon="5.39734">
        <ele>1048</ele>
        <time>2019-06-15T09:46:16.036Z</time>
      </trkpt>
      <trkpt lat="45.03683" lon="5.39733">
        <ele>1048</ele>
        <time>2019-06-15T09:46:17.036Z</time>
      </trkpt>
      <trkpt lat="45.03683" lon="5.39733">
        <ele>1048</ele>
        <time>2019-06-15T09:46:18.036Z</time>
      </trkpt>
      <trkpt lat="45.03684" lon="5.39733">
        <ele>1048</ele>
        <time>2019-06-15T09:46:19.036Z</time>
      </trkpt>
      <trkpt lat="45.03685" lon="5.39732">
        <ele>1048</ele>
        <time>2019-06-15T09:46:20.036Z</time>
      </trkpt>
      <trkpt lat="45.03686" lon="5.39732">
        <ele>1048</ele>
        <time>2019-06-15T09:46:21.036Z</time>
      </trkpt>
      <trkpt lat="45.03686" lon="5.39731">
        <ele>1049</ele>
        <time>2019-06-15T09:46:22.036Z</time>
      </trkpt>
      <trkpt lat="45.03687" lon="5.39731">
        <ele>1049</ele>
        <time>2019-06-15T09:46:23.036Z</time>
      </trkpt>
      <trkpt lat="45.03688" lon="5.39731">
        <ele>1049</ele>
        <time>2019-06-15T09:46:24.036Z</time>
      </trkpt>
      <trkpt lat="45.03689" lon="5.3973">
        <ele>1049</ele>
        <time>2019-06-15T09:46:25.036Z</time>
      </trkpt>
      <trkpt lat="45.0369" lon="5.3973">
        <ele>1049</ele>
        <time>2019-06-15T09:46:26.036Z</time>
      </trkpt>
      <trkpt lat="45.03691" lon="5.39731">
        <ele>1048</ele>
        <time>2019-06-15T09:46:27.036Z</time>
      </trkpt>
      <trkpt lat="45.03692" lon="5.39732">
        <ele>1048</ele>
        <time>2019-06-15T09:46:28.036Z</time>
      </trkpt>
      <trkpt lat="45.03692" lon="5.39734">
        <ele>1047</ele>
        <time>2019-06-15T09:46:29.036Z</time>
      </trkpt>
      <trkpt lat="45.03692" lon="5.39735">
        <ele>1047</ele>
        <time>2019-06-15T09:46:30.036Z</time>
      </trkpt>
      <trkpt lat="45.03692" lon="5.39736">
        <ele>1046</ele>
        <time>2019-06-15T09:46:31.036Z</time>
      </trkpt>
      <trkpt lat="45.03692" lon="5.39737">
        <ele>1047</ele>
        <time>2019-06-15T09:46:32.036Z</time>
      </trkpt>
      <trkpt lat="45.03691" lon="5.39738">
        <ele>1047</ele>
        <time>2019-06-15T09:46:33.036Z</time>
      </trkpt>
      <trkpt lat="45.03691" lon="5.39738">
        <ele>1047</ele>
        <time>2019-06-15T09:46:34.036Z</time>
      </trkpt>
      <trkpt lat="45.03691" lon="5.39739">
        <ele>1047</ele>
        <time>2019-06-15T09:46:35.036Z</time>
      </trkpt>
      <trkpt lat="45.03691" lon="5.39739">
        <ele>1047</ele>
        <time>2019-06-15T09:46:36.036Z</time>
      </trkpt>
      <trkpt lat="45.03691" lon="5.3974">
        <ele>1047</ele>
        <time>2019-06-15T09:46:37.036Z</time>
      </trkpt>
      <trkpt lat="45.0369" lon="5.3974">
        <ele>1048</ele>
        <time>2019-06-15T09:46:38.036Z</time>
      </trkpt>
      <trkpt lat="45.0369" lon="5.3974">
        <ele>1048</ele>
        <time>2019-06-15T09:46:39.036Z</time>
      </trkpt>
      <trkpt lat="45.03689" lon="5.3974">
        <ele>1048</ele>
        <time>2019-06-15T09:46:40.036Z</time>
      </trkpt>
      <trkpt lat="45.03688" lon="5.3974">
        <ele>1049</ele>
        <time>2019-06-15T09:46:41.036Z</time>
      </trkpt>
      <trkpt lat="45.03688" lon="5.39741">
        <ele>1048</ele>
        <time>2019-06-15T09:46:42.036Z</time>
      </trkpt>
      <trkpt lat="45.03687" lon="5.39742">
        <ele>1047</ele>
        <time>2019-06-15T09:46:43.036Z</time>
      </trkpt>
      <trkpt lat="45.03687" lon="5.39743">
        <ele>1048</ele>
        <time>2019-06-15T09:46:44.036Z</time>
      </trkpt>
      <trkpt lat="45.03686" lon="5.39743">
        <ele>1048</ele>
        <time>2019-06-15T09:46:45.036Z</time>
      </trkpt>
      <trkpt lat="45.03686" lon="5.39744">
        <ele>1047</ele>
        <time>2019-06-15T09:46:46.036Z</time>
      </trkpt>
      <trkpt lat="45.03685" lon="5.39745">
        <ele>1047</ele>
        <time>2019-06-15T09:46:47.036Z</time>
      </trkpt>
      <trkpt lat="45.03685" lon="5.39745">
        <ele>1047</ele>
        <time>2019-06-15T09:46:48.036Z</time>
      </trkpt>
      <trkpt lat="45.03684" lon="5.39745">
        <ele>1048</ele>
        <time>2019-06-15T09:46:49.036Z</time>
      </trkpt>
      <trkpt lat="45.03683" lon="5.39745">
        <ele>1048</ele>
        <time>2019-06-15T09:46:50.036Z</time>
      </trkpt>
      <trkpt lat="45.03682" lon="5.39745">
        <ele>1048</ele>
        <time>2019-06-15T09:46:51.036Z</time>
      </trkpt>
      <trkpt lat="45.03681" lon="5.39745">
        <ele>1049</ele>
        <time>2019-06-15T09:46:52.036Z</time>
      </trkpt>
      <trkpt lat="45.0368" lon="5.39746">
        <ele>1049</ele>
        <time>2019-06-15T09:46:53.036Z</time>
      </trkpt>
      <trkpt lat="45.03679" lon="5.39746">
        <ele>1049</ele>
        <time>2019-06-15T09:46:54.036Z</time>
      </trkpt>
      <trkpt lat="45.03678" lon="5.39747">
        <ele>1051</ele>
        <time>2019-06-15T09:46:55.036Z</time>
      </trkpt>
      <trkpt lat="45.03677" lon="5.39747">
        <ele>1051</ele>
        <time>2019-06-15T09:46:56.036Z</time>
      </trkpt>
      <trkpt lat="45.03676" lon="5.39748">
        <ele>1052</ele>
        <time>2019-06-15T09:46:57.036Z</time>
      </trkpt>
      <trkpt lat="45.03675" lon="5.39748">
        <ele>1052</ele>
        <time>2019-06-15T09:46:58.036Z</time>
      </trkpt>
      <trkpt lat="45.03674" lon="5.3975">
        <ele>1052</ele>
        <time>2019-06-15T09:46:59.036Z</time>
      </trkpt>
      <trkpt lat="45.03673" lon="5.39751">
        <ele>1052</ele>
        <time>2019-06-15T09:47:00.036Z</time>
      </trkpt>
      <trkpt lat="45.03672" lon="5.39752">
        <ele>1052</ele>
        <time>2019-06-15T09:47:01.036Z</time>
      </trkpt>
      <trkpt lat="45.03671" lon="5.39753">
        <ele>1052</ele>
        <time>2019-06-15T09:47:02.036Z</time>
      </trkpt>
      <trkpt lat="45.0367" lon="5.39754">
        <ele>1052</ele>
        <time>2019-06-15T09:47:03.036Z</time>
      </trkpt>
      <trkpt lat="45.03669" lon="5.39755">
        <ele>1052</ele>
        <time>2019-06-15T09:47:04.036Z</time>
      </trkpt>
      <trkpt lat="45.03669" lon="5.39755">
        <ele>1051</ele>
        <time>2019-06-15T09:47:05.036Z</time>
      </trkpt>
      <trkpt lat="45.03668" lon="5.39756">
        <ele>1052</ele>
        <time>2019-06-15T09:47:06.036Z</time>
      </trkpt>
      <trkpt lat="45.03667" lon="5.39756">
        <ele>1052</ele>
        <time>2019-06-15T09:47:07.036Z</time>
      </trkpt>
      <trkpt lat="45.03666" lon="5.39757">
        <ele>1052</ele>
        <time>2019-06-15T09:47:08.036Z</time>
      </trkpt>
      <trkpt lat="45.03665" lon="5.39757">
        <ele>1052</ele>
        <time>2019-06-15T09:47:09.036Z</time>
      </trkpt>
      <trkpt lat="45.03663" lon="5.39758">
        <ele>1053</ele>
        <time>2019-06-15T09:47:10.036Z</time>
      </trkpt>
      <trkpt lat="45.03663" lon="5.39758">
        <ele>1053</ele>
        <time>2019-06-15T09:47:11.036Z</time>
      </trkpt>
      <trkpt lat="45.03662" lon="5.39758">
        <ele>1053</ele>
        <time>2019-06-15T09:47:12.036Z</time>
      </trkpt>
      <trkpt lat="45.03661" lon="5.39758">
        <ele>1053</ele>
        <time>2019-06-15T09:47:13.036Z</time>
      </trkpt>
      <trkpt lat="45.0366" lon="5.39759">
        <ele>1053</ele>
        <time>2019-06-15T09:47:14.036Z</time>
      </trkpt>
      <trkpt lat="45.03659" lon="5.39759">
        <ele>1053</ele>
        <time>2019-06-15T09:47:15.036Z</time>
      </trkpt>
      <trkpt lat="45.03657" lon="5.3976">
        <ele>1054</ele>
        <time>2019-06-15T09:47:16.036Z</time>
      </trkpt>
      <trkpt lat="45.03655" lon="5.3976">
        <ele>1054</ele>
        <time>2019-06-15T09:47:17.036Z</time>
      </trkpt>
      <trkpt lat="45.03654" lon="5.3976">
        <ele>1054</ele>
        <time>2019-06-15T09:47:18.036Z</time>
      </trkpt>
      <trkpt lat="45.03654" lon="5.3976">
        <ele>1055</ele>
        <time>2019-06-15T09:47:19.036Z</time>
      </trkpt>
      <trkpt lat="45.03653" lon="5.3976">
        <ele>1055</ele>
        <time>2019-06-15T09:47:20.036Z</time>
      </trkpt>
      <trkpt lat="45.03652" lon="5.3976">
        <ele>1055</ele>
        <time>2019-06-15T09:47:21.036Z</time>
      </trkpt>
      <trkpt lat="45.03651" lon="5.39761">
        <ele>1056</ele>
        <time>2019-06-15T09:47:22.036Z</time>
      </trkpt>
      <trkpt lat="45.0365" lon="5.39762">
        <ele>1056</ele>
        <time>2019-06-15T09:47:23.036Z</time>
      </trkpt>
      <trkpt lat="45.03649" lon="5.39763">
        <ele>1056</ele>
        <time>2019-06-15T09:47:24.036Z</time>
      </trkpt>
      <trkpt lat="45.03648" lon="5.39763">
        <ele>1056</ele>
        <time>2019-06-15T09:47:25.036Z</time>
      </trkpt>
      <trkpt lat="45.03648" lon="5.39764">
        <ele>1055</ele>
        <time>2019-06-15T09:47:26.036Z</time>
      </trkpt>
      <trkpt lat="45.03647" lon="5.39764">
        <ele>1056</ele>
        <time>2019-06-15T09:47:27.036Z</time>
      </trkpt>
      <trkpt lat="45.03645" lon="5.39764">
        <ele>1057</ele>
        <time>2019-06-15T09:47:28.036Z</time>
      </trkpt>
      <trkpt lat="45.03644" lon="5.39765">
        <ele>1057</ele>
        <time>2019-06-15T09:47:29.036Z</time>
      </trkpt>
      <trkpt lat="45.03643" lon="5.39765">
        <ele>1058</ele>
        <time>2019-06-15T09:47:30.036Z</time>
      </trkpt>
      <trkpt lat="45.03642" lon="5.39765">
        <ele>1058</ele>
        <time>2019-06-15T09:47:31.036Z</time>
      </trkpt>
      <trkpt lat="45.03641" lon="5.39765">
        <ele>1059</ele>
        <time>2019-06-15T09:47:32.036Z</time>
      </trkpt>
      <trkpt lat="45.0364" lon="5.39765">
        <ele>1058</ele>
        <time>2019-06-15T09:47:33.036Z</time>
      </trkpt>
      <trkpt lat="45.03639" lon="5.39765">
        <ele>1058</ele>
        <time>2019-06-15T09:47:34.036Z</time>
      </trkpt>
      <trkpt lat="45.03638" lon="5.39765">
        <ele>1058</ele>
        <time>2019-06-15T09:47:35.036Z</time>
      </trkpt>
      <trkpt lat="45.03637" lon="5.39765">
        <ele>1059</ele>
        <time>2019-06-15T09:47:36.036Z</time>
      </trkpt>
      <trkpt lat="45.03636" lon="5.39764">
        <ele>1059</ele>
        <time>2019-06-15T09:47:37.036Z</time>
      </trkpt>
      <trkpt lat="45.03635" lon="5.39764">
        <ele>1058</ele>
        <time>2019-06-15T09:47:38.036Z</time>
      </trkpt>
      <trkpt lat="45.03633" lon="5.39764">
        <ele>1059</ele>
        <time>2019-06-15T09:47:39.036Z</time>
      </trkpt>
      <trkpt lat="45.03632" lon="5.39764">
        <ele>1059</ele>
        <time>2019-06-15T09:47:40.036Z</time>
      </trkpt>
      <trkpt lat="45.0363" lon="5.39764">
        <ele>1058</ele>
        <time>2019-06-15T09:47:41.036Z</time>
      </trkpt>
      <trkpt lat="45.03629" lon="5.39765">
        <ele>1058</ele>
        <time>2019-06-15T09:47:42.036Z</time>
      </trkpt>
      <trkpt lat="45.03628" lon="5.39765">
        <ele>1059</ele>
        <time>2019-06-15T09:47:43.036Z</time>
      </trkpt>
      <trkpt lat="45.03627" lon="5.39766">
        <ele>1060</ele>
        <time>2019-06-15T09:47:44.036Z</time>
      </trkpt>
      <trkpt lat="45.03625" lon="5.39766">
        <ele>1060</ele>
        <time>2019-06-15T09:47:45.036Z</time>
      </trkpt>
      <trkpt lat="45.03624" lon="5.39767">
        <ele>1061</ele>
        <time>2019-06-15T09:47:46.036Z</time>
      </trkpt>
      <trkpt lat="45.03623" lon="5.39768">
        <ele>1061</ele>
        <time>2019-06-15T09:47:47.036Z</time>
      </trkpt>
      <trkpt lat="45.03622" lon="5.3977">
        <ele>1060</ele>
        <time>2019-06-15T09:47:48.036Z</time>
      </trkpt>
      <trkpt lat="45.03621" lon="5.39771">
        <ele>1061</ele>
        <time>2019-06-15T09:47:49.036Z</time>
      </trkpt>
      <trkpt lat="45.03621" lon="5.39772">
        <ele>1061</ele>
        <time>2019-06-15T09:47:50.036Z</time>
      </trkpt>
      <trkpt lat="45.0362" lon="5.39773">
        <ele>1061</ele>
        <time>2019-06-15T09:47:51.036Z</time>
      </trkpt>
      <trkpt lat="45.0362" lon="5.39775">
        <ele>1061</ele>
        <time>2019-06-15T09:47:52.036Z</time>
      </trkpt>
      <trkpt lat="45.03619" lon="5.39775">
        <ele>1062</ele>
        <time>2019-06-15T09:47:53.036Z</time>
      </trkpt>
      <trkpt lat="45.03618" lon="5.39776">
        <ele>1062</ele>
        <time>2019-06-15T09:47:54.036Z</time>
      </trkpt>
      <trkpt lat="45.03617" lon="5.39777">
        <ele>1062</ele>
        <time>2019-06-15T09:47:55.036Z</time>
      </trkpt>
      <trkpt lat="45.03616" lon="5.39778">
        <ele>1063</ele>
        <time>2019-06-15T09:47:56.036Z</time>
      </trkpt>
      <trkpt lat="45.03615" lon="5.39779">
        <ele>1063</ele>
        <time>2019-06-15T09:47:57.036Z</time>
      </trkpt>
      <trkpt lat="45.03613" lon="5.3978">
        <ele>1064</ele>
        <time>2019-06-15T09:47:58.036Z</time>
      </trkpt>
      <trkpt lat="45.03612" lon="5.39782">
        <ele>1064</ele>
        <time>2019-06-15T09:47:59.036Z</time>
      </trkpt>
      <trkpt lat="45.03611" lon="5.39782">
        <ele>1065</ele>
        <time>2019-06-15T09:48:00.036Z</time>
      </trkpt>
      <trkpt lat="45.0361" lon="5.39783">
        <ele>1065</ele>
        <time>2019-06-15T09:48:01.036Z</time>
      </trkpt>
      <trkpt lat="45.03609" lon="5.39783">
        <ele>1065</ele>
        <time>2019-06-15T09:48:02.036Z</time>
      </trkpt>
      <trkpt lat="45.03608" lon="5.39784">
        <ele>1065</ele>
        <time>2019-06-15T09:48:03.036Z</time>
      </trkpt>
      <trkpt lat="45.03607" lon="5.39784">
        <ele>1065</ele>
        <time>2019-06-15T09:48:04.036Z</time>
      </trkpt>
      <trkpt lat="45.03606" lon="5.39784">
        <ele>1065</ele>
        <time>2019-06-15T09:48:05.036Z</time>
      </trkpt>
      <trkpt lat="45.03605" lon="5.39785">
        <ele>1065</ele>
        <time>2019-06-15T09:48:06.036Z</time>
      </trkpt>
      <trkpt lat="45.03604" lon="5.39785">
        <ele>1066</ele>
        <time>2019-06-15T09:48:07.036Z</time>
      </trkpt>
      <trkpt lat="45.03603" lon="5.39785">
        <ele>1066</ele>
        <time>2019-06-15T09:48:08.036Z</time>
      </trkpt>
      <trkpt lat="45.03602" lon="5.39786">
        <ele>1066</ele>
        <time>2019-06-15T09:48:09.036Z</time>
      </trkpt>
      <trkpt lat="45.03601" lon="5.39786">
        <ele>1066</ele>
        <time>2019-06-15T09:48:10.036Z</time>
      </trkpt>
      <trkpt lat="45.036" lon="5.39787">
        <ele>1066</ele>
        <time>2019-06-15T09:48:11.036Z</time>
      </trkpt>
      <trkpt lat="45.03598" lon="5.39787">
        <ele>1067</ele>
        <time>2019-06-15T09:48:12.036Z</time>
      </trkpt>
      <trkpt lat="45.03597" lon="5.39787">
        <ele>1067</ele>
        <time>2019-06-15T09:48:13.036Z</time>
      </trkpt>
      <trkpt lat="45.03596" lon="5.39788">
        <ele>1068</ele>
        <time>2019-06-15T09:48:14.036Z</time>
      </trkpt>
      <trkpt lat="45.03595" lon="5.39789">
        <ele>1067</ele>
        <time>2019-06-15T09:48:15.036Z</time>
      </trkpt>
      <trkpt lat="45.03594" lon="5.39789">
        <ele>1068</ele>
        <time>2019-06-15T09:48:16.036Z</time>
      </trkpt>
      <trkpt lat="45.03592" lon="5.3979">
        <ele>1068</ele>
        <time>2019-06-15T09:48:17.036Z</time>
      </trkpt>
      <trkpt lat="45.03591" lon="5.3979">
        <ele>1068</ele>
        <time>2019-06-15T09:48:18.036Z</time>
      </trkpt>
      <trkpt lat="45.0359" lon="5.39791">
        <ele>1068</ele>
        <time>2019-06-15T09:48:19.036Z</time>
      </trkpt>
      <trkpt lat="45.03588" lon="5.39792">
        <ele>1069</ele>
        <time>2019-06-15T09:48:20.036Z</time>
      </trkpt>
      <trkpt lat="45.03587" lon="5.39792">
        <ele>1069</ele>
        <time>2019-06-15T09:48:21.036Z</time>
      </trkpt>
      <trkpt lat="45.03586" lon="5.39793">
        <ele>1068</ele>
        <time>2019-06-15T09:48:22.036Z</time>
      </trkpt>
      <trkpt lat="45.03586" lon="5.39793">
        <ele>1069</ele>
        <time>2019-06-15T09:48:23.036Z</time>
      </trkpt>
      <trkpt lat="45.03585" lon="5.39794">
        <ele>1069</ele>
        <time>2019-06-15T09:48:24.036Z</time>
      </trkpt>
      <trkpt lat="45.03584" lon="5.39794">
        <ele>1069</ele>
        <time>2019-06-15T09:48:25.036Z</time>
      </trkpt>
      <trkpt lat="45.03582" lon="5.39794">
        <ele>1069</ele>
        <time>2019-06-15T09:48:26.036Z</time>
      </trkpt>
      <trkpt lat="45.03581" lon="5.39795">
        <ele>1069</ele>
        <time>2019-06-15T09:48:27.036Z</time>
      </trkpt>
      <trkpt lat="45.0358" lon="5.39795">
        <ele>1070</ele>
        <time>2019-06-15T09:48:28.036Z</time>
      </trkpt>
      <trkpt lat="45.03579" lon="5.39796">
        <ele>1070</ele>
        <time>2019-06-15T09:48:29.036Z</time>
      </trkpt>
      <trkpt lat="45.03577" lon="5.39796">
        <ele>1070</ele>
        <time>2019-06-15T09:48:30.036Z</time>
      </trkpt>
      <trkpt lat="45.03576" lon="5.39797">
        <ele>1071</ele>
        <time>2019-06-15T09:48:31.036Z</time>
      </trkpt>
      <trkpt lat="45.03575" lon="5.39797">
        <ele>1072</ele>
        <time>2019-06-15T09:48:32.036Z</time>
      </trkpt>
      <trkpt lat="45.03575" lon="5.39797">
        <ele>1073</ele>
        <time>2019-06-15T09:48:33.036Z</time>
      </trkpt>
      <trkpt lat="45.03574" lon="5.39798">
        <ele>1072</ele>
        <time>2019-06-15T09:48:34.036Z</time>
      </trkpt>
      <trkpt lat="45.03573" lon="5.39799">
        <ele>1071</ele>
        <time>2019-06-15T09:48:35.036Z</time>
      </trkpt>
      <trkpt lat="45.03573" lon="5.398">
        <ele>1071</ele>
        <time>2019-06-15T09:48:36.036Z</time>
      </trkpt>
      <trkpt lat="45.03572" lon="5.39801">
        <ele>1072</ele>
        <time>2019-06-15T09:48:37.036Z</time>
      </trkpt>
      <trkpt lat="45.0357" lon="5.39802">
        <ele>1072</ele>
        <time>2019-06-15T09:48:38.036Z</time>
      </trkpt>
      <trkpt lat="45.03569" lon="5.39803">
        <ele>1072</ele>
        <time>2019-06-15T09:48:39.036Z</time>
      </trkpt>
      <trkpt lat="45.03568" lon="5.39804">
        <ele>1073</ele>
        <time>2019-06-15T09:48:40.036Z</time>
      </trkpt>
      <trkpt lat="45.03567" lon="5.39804">
        <ele>1073</ele>
        <time>2019-06-15T09:48:41.036Z</time>
      </trkpt>
      <trkpt lat="45.03566" lon="5.39805">
        <ele>1074</ele>
        <time>2019-06-15T09:48:42.036Z</time>
      </trkpt>
      <trkpt lat="45.03564" lon="5.39806">
        <ele>1074</ele>
        <time>2019-06-15T09:48:43.036Z</time>
      </trkpt>
      <trkpt lat="45.03563" lon="5.39807">
        <ele>1075</ele>
        <time>2019-06-15T09:48:44.036Z</time>
      </trkpt>
      <trkpt lat="45.03563" lon="5.39807">
        <ele>1075</ele>
        <time>2019-06-15T09:48:45.036Z</time>
      </trkpt>
      <trkpt lat="45.03562" lon="5.39808">
        <ele>1075</ele>
        <time>2019-06-15T09:48:46.036Z</time>
      </trkpt>
      <trkpt lat="45.03562" lon="5.39809">
        <ele>1075</ele>
        <time>2019-06-15T09:48:47.036Z</time>
      </trkpt>
      <trkpt lat="45.03561" lon="5.39809">
        <ele>1076</ele>
        <time>2019-06-15T09:48:48.036Z</time>
      </trkpt>
      <trkpt lat="45.0356" lon="5.39809">
        <ele>1077</ele>
        <time>2019-06-15T09:48:49.036Z</time>
      </trkpt>
      <trkpt lat="45.03558" lon="5.39809">
        <ele>1077</ele>
        <time>2019-06-15T09:48:50.036Z</time>
      </trkpt>
      <trkpt lat="45.03557" lon="5.39809">
        <ele>1077</ele>
        <time>2019-06-15T09:48:51.036Z</time>
      </trkpt>
      <trkpt lat="45.03556" lon="5.39809">
        <ele>1078</ele>
        <time>2019-06-15T09:48:52.036Z</time>
      </trkpt>
      <trkpt lat="45.03554" lon="5.3981">
        <ele>1078</ele>
        <time>2019-06-15T09:48:53.036Z</time>
      </trkpt>
      <trkpt lat="45.03553" lon="5.3981">
        <ele>1077</ele>
        <time>2019-06-15T09:48:54.036Z</time>
      </trkpt>
      <trkpt lat="45.03552" lon="5.3981">
        <ele>1078</ele>
        <time>2019-06-15T09:48:55.036Z</time>
      </trkpt>
      <trkpt lat="45.03552" lon="5.3981">
        <ele>1079</ele>
        <time>2019-06-15T09:48:56.036Z</time>
      </trkpt>
      <trkpt lat="45.03551" lon="5.3981">
        <ele>1080</ele>
        <time>2019-06-15T09:48:57.036Z</time>
      </trkpt>
      <trkpt lat="45.0355" lon="5.39811">
        <ele>1080</ele>
        <time>2019-06-15T09:48:58.036Z</time>
      </trkpt>
      <trkpt lat="45.03549" lon="5.39811">
        <ele>1080</ele>
        <time>2019-06-15T09:48:59.036Z</time>
      </trkpt>
      <trkpt lat="45.03548" lon="5.39812">
        <ele>1080</ele>
        <time>2019-06-15T09:49:00.036Z</time>
      </trkpt>
      <trkpt lat="45.03548" lon="5.39812">
        <ele>1081</ele>
        <time>2019-06-15T09:49:01.036Z</time>
      </trkpt>
      <trkpt lat="45.03547" lon="5.39813">
        <ele>1082</ele>
        <time>2019-06-15T09:49:02.036Z</time>
      </trkpt>
      <trkpt lat="45.03546" lon="5.39814">
        <ele>1082</ele>
        <time>2019-06-15T09:49:03.036Z</time>
      </trkpt>
      <trkpt lat="45.03546" lon="5.39814">
        <ele>1082</ele>
        <time>2019-06-15T09:49:04.036Z</time>
      </trkpt>
      <trkpt lat="45.03545" lon="5.39814">
        <ele>1083</ele>
        <time>2019-06-15T09:49:05.036Z</time>
      </trkpt>
      <trkpt lat="45.03545" lon="5.39815">
        <ele>1082</ele>
        <time>2019-06-15T09:49:06.036Z</time>
      </trkpt>
      <trkpt lat="45.03544" lon="5.39817">
        <ele>1083</ele>
        <time>2019-06-15T09:49:07.036Z</time>
      </trkpt>
      <trkpt lat="45.03544" lon="5.39818">
        <ele>1083</ele>
        <time>2019-06-15T09:49:08.036Z</time>
      </trkpt>
      <trkpt lat="45.03543" lon="5.39818">
        <ele>1084</ele>
        <time>2019-06-15T09:49:09.036Z</time>
      </trkpt>
      <trkpt lat="45.03541" lon="5.39818">
        <ele>1085</ele>
        <time>2019-06-15T09:49:10.036Z</time>
      </trkpt>
      <trkpt lat="45.0354" lon="5.39818">
        <ele>1086</ele>
        <time>2019-06-15T09:49:11.036Z</time>
      </trkpt>
      <trkpt lat="45.03539" lon="5.39818">
        <ele>1086</ele>
        <time>2019-06-15T09:49:12.036Z</time>
      </trkpt>
      <trkpt lat="45.03537" lon="5.39818">
        <ele>1088</ele>
        <time>2019-06-15T09:49:13.036Z</time>
      </trkpt>
      <trkpt lat="45.03536" lon="5.39818">
        <ele>1089</ele>
        <time>2019-06-15T09:49:14.036Z</time>
      </trkpt>
      <trkpt lat="45.03535" lon="5.39818">
        <ele>1088</ele>
        <time>2019-06-15T09:49:15.036Z</time>
      </trkpt>
      <trkpt lat="45.03534" lon="5.39818">
        <ele>1089</ele>
        <time>2019-06-15T09:49:16.036Z</time>
      </trkpt>
      <trkpt lat="45.03533" lon="5.39817">
        <ele>1089</ele>
        <time>2019-06-15T09:49:17.036Z</time>
      </trkpt>
      <trkpt lat="45.03532" lon="5.39817">
        <ele>1090</ele>
        <time>2019-06-15T09:49:18.036Z</time>
      </trkpt>
      <trkpt lat="45.0353" lon="5.39817">
        <ele>1090</ele>
        <time>2019-06-15T09:49:19.036Z</time>
      </trkpt>
      <trkpt lat="45.03529" lon="5.39817">
        <ele>1091</ele>
        <time>2019-06-15T09:49:20.036Z</time>
      </trkpt>
      <trkpt lat="45.03527" lon="5.39817">
        <ele>1092</ele>
        <time>2019-06-15T09:49:21.036Z</time>
      </trkpt>
      <trkpt lat="45.03526" lon="5.39818">
        <ele>1092</ele>
        <time>2019-06-15T09:49:22.036Z</time>
      </trkpt>
      <trkpt lat="45.03525" lon="5.39818">
        <ele>1092</ele>
        <time>2019-06-15T09:49:23.036Z</time>
      </trkpt>
      <trkpt lat="45.03523" lon="5.39817">
        <ele>1092</ele>
        <time>2019-06-15T09:49:24.036Z</time>
      </trkpt>
      <trkpt lat="45.03522" lon="5.39817">
        <ele>1092</ele>
        <time>2019-06-15T09:49:25.036Z</time>
      </trkpt>
      <trkpt lat="45.0352" lon="5.39816">
        <ele>1092</ele>
        <time>2019-06-15T09:49:26.036Z</time>
      </trkpt>
      <trkpt lat="45.03519" lon="5.39816">
        <ele>1093</ele>
        <time>2019-06-15T09:49:27.036Z</time>
      </trkpt>
      <trkpt lat="45.03518" lon="5.39816">
        <ele>1093</ele>
        <time>2019-06-15T09:49:28.036Z</time>
      </trkpt>
      <trkpt lat="45.03517" lon="5.39817">
        <ele>1093</ele>
        <time>2019-06-15T09:49:29.036Z</time>
      </trkpt>
      <trkpt lat="45.03516" lon="5.39817">
        <ele>1094</ele>
        <time>2019-06-15T09:49:30.036Z</time>
      </trkpt>
      <trkpt lat="45.03514" lon="5.39817">
        <ele>1094</ele>
        <time>2019-06-15T09:49:31.036Z</time>
      </trkpt>
      <trkpt lat="45.03513" lon="5.39817">
        <ele>1094</ele>
        <time>2019-06-15T09:49:32.036Z</time>
      </trkpt>
      <trkpt lat="45.03513" lon="5.39817">
        <ele>1094</ele>
        <time>2019-06-15T09:49:33.036Z</time>
      </trkpt>
      <trkpt lat="45.03512" lon="5.39817">
        <ele>1093</ele>
        <time>2019-06-15T09:49:34.036Z</time>
      </trkpt>
      <trkpt lat="45.03512" lon="5.39818">
        <ele>1093</ele>
        <time>2019-06-15T09:49:35.036Z</time>
      </trkpt>
      <trkpt lat="45.03511" lon="5.39818">
        <ele>1093</ele>
        <time>2019-06-15T09:49:36.036Z</time>
      </trkpt>
      <trkpt lat="45.0351" lon="5.39819">
        <ele>1093</ele>
        <time>2019-06-15T09:49:37.036Z</time>
      </trkpt>
      <trkpt lat="45.03509" lon="5.39819">
        <ele>1094</ele>
        <time>2019-06-15T09:49:38.036Z</time>
      </trkpt>
      <trkpt lat="45.03507" lon="5.39818">
        <ele>1095</ele>
        <time>2019-06-15T09:49:39.036Z</time>
      </trkpt>
      <trkpt lat="45.03506" lon="5.39818">
        <ele>1095</ele>
        <time>2019-06-15T09:49:40.036Z</time>
      </trkpt>
      <trkpt lat="45.03505" lon="5.39818">
        <ele>1096</ele>
        <time>2019-06-15T09:49:41.036Z</time>
      </trkpt>
      <trkpt lat="45.03504" lon="5.39818">
        <ele>1096</ele>
        <time>2019-06-15T09:49:42.036Z</time>
      </trkpt>
      <trkpt lat="45.03502" lon="5.39818">
        <ele>1096</ele>
        <time>2019-06-15T09:49:43.036Z</time>
      </trkpt>
      <trkpt lat="45.03501" lon="5.39818">
        <ele>1096</ele>
        <time>2019-06-15T09:49:44.036Z</time>
      </trkpt>
      <trkpt lat="45.035" lon="5.39818">
        <ele>1097</ele>
        <time>2019-06-15T09:49:45.036Z</time>
      </trkpt>
      <trkpt lat="45.03499" lon="5.39818">
        <ele>1096</ele>
        <time>2019-06-15T09:49:46.036Z</time>
      </trkpt>
      <trkpt lat="45.03498" lon="5.39819">
        <ele>1096</ele>
        <time>2019-06-15T09:49:47.036Z</time>
      </trkpt>
      <trkpt lat="45.03497" lon="5.39819">
        <ele>1096</ele>
        <time>2019-06-15T09:49:48.036Z</time>
      </trkpt>
      <trkpt lat="45.03496" lon="5.3982">
        <ele>1096</ele>
        <time>2019-06-15T09:49:49.036Z</time>
      </trkpt>
      <trkpt lat="45.03494" lon="5.3982">
        <ele>1096</ele>
        <time>2019-06-15T09:49:50.036Z</time>
      </trkpt>
      <trkpt lat="45.03493" lon="5.3982">
        <ele>1096</ele>
        <time>2019-06-15T09:49:51.036Z</time>
      </trkpt>
      <trkpt lat="45.03493" lon="5.39821">
        <ele>1095</ele>
        <time>2019-06-15T09:49:52.036Z</time>
      </trkpt>
      <trkpt lat="45.03492" lon="5.39821">
        <ele>1095</ele>
        <time>2019-06-15T09:49:53.036Z</time>
      </trkpt>
      <trkpt lat="45.03491" lon="5.39822">
        <ele>1095</ele>
        <time>2019-06-15T09:49:54.036Z</time>
      </trkpt>
      <trkpt lat="45.0349" lon="5.39822">
        <ele>1096</ele>
        <time>2019-06-15T09:49:55.036Z</time>
      </trkpt>
      <trkpt lat="45.03489" lon="5.39823">
        <ele>1095</ele>
        <time>2019-06-15T09:49:56.036Z</time>
      </trkpt>
      <trkpt lat="45.03488" lon="5.39823">
        <ele>1096</ele>
        <time>2019-06-15T09:49:57.036Z</time>
      </trkpt>
      <trkpt lat="45.03487" lon="5.39824">
        <ele>1095</ele>
        <time>2019-06-15T09:49:58.036Z</time>
      </trkpt>
      <trkpt lat="45.03485" lon="5.39824">
        <ele>1095</ele>
        <time>2019-06-15T09:49:59.036Z</time>
      </trkpt>
      <trkpt lat="45.03484" lon="5.39825">
        <ele>1095</ele>
        <time>2019-06-15T09:50:00.036Z</time>
      </trkpt>
      <trkpt lat="45.03483" lon="5.39825">
        <ele>1096</ele>
        <time>2019-06-15T09:50:01.036Z</time>
      </trkpt>
      <trkpt lat="45.03482" lon="5.39825">
        <ele>1097</ele>
        <time>2019-06-15T09:50:02.036Z</time>
      </trkpt>
      <trkpt lat="45.03481" lon="5.39824">
        <ele>1097</ele>
        <time>2019-06-15T09:50:03.036Z</time>
      </trkpt>
      <trkpt lat="45.0348" lon="5.39825">
        <ele>1097</ele>
        <time>2019-06-15T09:50:04.036Z</time>
      </trkpt>
      <trkpt lat="45.03479" lon="5.39825">
        <ele>1096</ele>
        <time>2019-06-15T09:50:05.036Z</time>
      </trkpt>
      <trkpt lat="45.03478" lon="5.39826">
        <ele>1097</ele>
        <time>2019-06-15T09:50:06.036Z</time>
      </trkpt>
      <trkpt lat="45.03477" lon="5.39827">
        <ele>1097</ele>
        <time>2019-06-15T09:50:07.036Z</time>
      </trkpt>
      <trkpt lat="45.03477" lon="5.39827">
        <ele>1096</ele>
        <time>2019-06-15T09:50:08.036Z</time>
      </trkpt>
      <trkpt lat="45.03476" lon="5.39827">
        <ele>1096</ele>
        <time>2019-06-15T09:50:09.036Z</time>
      </trkpt>
      <trkpt lat="45.03476" lon="5.39827">
        <ele>1097</ele>
        <time>2019-06-15T09:50:10.036Z</time>
      </trkpt>
      <trkpt lat="45.03475" lon="5.39827">
        <ele>1097</ele>
        <time>2019-06-15T09:50:11.036Z</time>
      </trkpt>
      <trkpt lat="45.03475" lon="5.39827">
        <ele>1097</ele>
        <time>2019-06-15T09:50:12.036Z</time>
      </trkpt>
      <trkpt lat="45.03474" lon="5.39828">
        <ele>1097</ele>
        <time>2019-06-15T09:50:13.036Z</time>
      </trkpt>
      <trkpt lat="45.03474" lon="5.39828">
        <ele>1097</ele>
        <time>2019-06-15T09:50:14.036Z</time>
      </trkpt>
      <trkpt lat="45.03473" lon="5.39829">
        <ele>1097</ele>
        <time>2019-06-15T09:50:15.036Z</time>
      </trkpt>
      <trkpt lat="45.03473" lon="5.39829">
        <ele>1097</ele>
        <time>2019-06-15T09:50:16.036Z</time>
      </trkpt>
      <trkpt lat="45.03472" lon="5.39829">
        <ele>1097</ele>
        <time>2019-06-15T09:50:17.036Z</time>
      </trkpt>
      <trkpt lat="45.03471" lon="5.39829">
        <ele>1096</ele>
        <time>2019-06-15T09:50:18.036Z</time>
      </trkpt>
      <trkpt lat="45.0347" lon="5.39829">
        <ele>1097</ele>
        <time>2019-06-15T09:50:19.036Z</time>
      </trkpt>
      <trkpt lat="45.03469" lon="5.39829">
        <ele>1096</ele>
        <time>2019-06-15T09:50:20.036Z</time>
      </trkpt>
      <trkpt lat="45.03468" lon="5.39829">
        <ele>1095</ele>
        <time>2019-06-15T09:50:21.036Z</time>
      </trkpt>
      <trkpt lat="45.03468" lon="5.39829">
        <ele>1096</ele>
        <time>2019-06-15T09:50:22.036Z</time>
      </trkpt>
      <trkpt lat="45.03467" lon="5.3983">
        <ele>1094</ele>
        <time>2019-06-15T09:50:23.036Z</time>
      </trkpt>
      <trkpt lat="45.03465" lon="5.3983">
        <ele>1095</ele>
        <time>2019-06-15T09:50:24.036Z</time>
      </trkpt>
      <trkpt lat="45.03464" lon="5.39831">
        <ele>1095</ele>
        <time>2019-06-15T09:50:25.036Z</time>
      </trkpt>
      <trkpt lat="45.03463" lon="5.39831">
        <ele>1095</ele>
        <time>2019-06-15T09:50:26.036Z</time>
      </trkpt>
      <trkpt lat="45.03462" lon="5.39831">
        <ele>1095</ele>
        <time>2019-06-15T09:50:27.036Z</time>
      </trkpt>
      <trkpt lat="45.03461" lon="5.39831">
        <ele>1095</ele>
        <time>2019-06-15T09:50:28.036Z</time>
      </trkpt>
      <trkpt lat="45.0346" lon="5.39831">
        <ele>1095</ele>
        <time>2019-06-15T09:50:29.036Z</time>
      </trkpt>
      <trkpt lat="45.03458" lon="5.39832">
        <ele>1095</ele>
        <time>2019-06-15T09:50:30.036Z</time>
      </trkpt>
      <trkpt lat="45.03457" lon="5.39831">
        <ele>1096</ele>
        <time>2019-06-15T09:50:31.036Z</time>
      </trkpt>
      <trkpt lat="45.03456" lon="5.39832">
        <ele>1095</ele>
        <time>2019-06-15T09:50:32.036Z</time>
      </trkpt>
      <trkpt lat="45.03455" lon="5.39832">
        <ele>1095</ele>
        <time>2019-06-15T09:50:33.036Z</time>
      </trkpt>
      <trkpt lat="45.03455" lon="5.39833">
        <ele>1094</ele>
        <time>2019-06-15T09:50:34.036Z</time>
      </trkpt>
      <trkpt lat="45.03454" lon="5.39834">
        <ele>1094</ele>
        <time>2019-06-15T09:50:35.036Z</time>
      </trkpt>
      <trkpt lat="45.03453" lon="5.39835">
        <ele>1094</ele>
        <time>2019-06-15T09:50:36.036Z</time>
      </trkpt>
      <trkpt lat="45.03452" lon="5.39835">
        <ele>1094</ele>
        <time>2019-06-15T09:50:37.036Z</time>
      </trkpt>
      <trkpt lat="45.03451" lon="5.39835">
        <ele>1094</ele>
        <time>2019-06-15T09:50:38.036Z</time>
      </trkpt>
      <trkpt lat="45.0345" lon="5.39836">
        <ele>1094</ele>
        <time>2019-06-15T09:50:39.036Z</time>
      </trkpt>
      <trkpt lat="45.03449" lon="5.39836">
        <ele>1094</ele>
        <time>2019-06-15T09:50:40.036Z</time>
      </trkpt>
      <trkpt lat="45.03449" lon="5.39836">
        <ele>1094</ele>
        <time>2019-06-15T09:50:41.036Z</time>
      </trkpt>
      <trkpt lat="45.03448" lon="5.39837">
        <ele>1093</ele>
        <time>2019-06-15T09:50:42.036Z</time>
      </trkpt>
      <trkpt lat="45.03448" lon="5.39838">
        <ele>1093</ele>
        <time>2019-06-15T09:50:43.036Z</time>
      </trkpt>
      <trkpt lat="45.03447" lon="5.3984">
        <ele>1092</ele>
        <time>2019-06-15T09:50:44.036Z</time>
      </trkpt>
      <trkpt lat="45.03446" lon="5.39841">
        <ele>1092</ele>
        <time>2019-06-15T09:50:45.036Z</time>
      </trkpt>
      <trkpt lat="45.03446" lon="5.39842">
        <ele>1092</ele>
        <time>2019-06-15T09:50:46.036Z</time>
      </trkpt>
      <trkpt lat="45.03445" lon="5.39843">
        <ele>1093</ele>
        <time>2019-06-15T09:50:47.036Z</time>
      </trkpt>
      <trkpt lat="45.03444" lon="5.39843">
        <ele>1093</ele>
        <time>2019-06-15T09:50:48.036Z</time>
      </trkpt>
      <trkpt lat="45.03442" lon="5.39844">
        <ele>1093</ele>
        <time>2019-06-15T09:50:49.036Z</time>
      </trkpt>
      <trkpt lat="45.03441" lon="5.39846">
        <ele>1094</ele>
        <time>2019-06-15T09:50:50.036Z</time>
      </trkpt>
      <trkpt lat="45.0344" lon="5.39847">
        <ele>1094</ele>
        <time>2019-06-15T09:50:51.036Z</time>
      </trkpt>
      <trkpt lat="45.03439" lon="5.39848">
        <ele>1095</ele>
        <time>2019-06-15T09:50:52.036Z</time>
      </trkpt>
      <trkpt lat="45.03438" lon="5.39849">
        <ele>1094</ele>
        <time>2019-06-15T09:50:53.036Z</time>
      </trkpt>
      <trkpt lat="45.03437" lon="5.39849">
        <ele>1094</ele>
        <time>2019-06-15T09:50:54.036Z</time>
      </trkpt>
      <trkpt lat="45.03436" lon="5.3985">
        <ele>1094</ele>
        <time>2019-06-15T09:50:55.036Z</time>
      </trkpt>
      <trkpt lat="45.03435" lon="5.3985">
        <ele>1095</ele>
        <time>2019-06-15T09:50:56.036Z</time>
      </trkpt>
      <trkpt lat="45.03434" lon="5.39851">
        <ele>1094</ele>
        <time>2019-06-15T09:50:57.036Z</time>
      </trkpt>
      <trkpt lat="45.03433" lon="5.39852">
        <ele>1094</ele>
        <time>2019-06-15T09:50:58.036Z</time>
      </trkpt>
      <trkpt lat="45.03432" lon="5.39852">
        <ele>1094</ele>
        <time>2019-06-15T09:50:59.036Z</time>
      </trkpt>
      <trkpt lat="45.03431" lon="5.39853">
        <ele>1095</ele>
        <time>2019-06-15T09:51:00.036Z</time>
      </trkpt>
      <trkpt lat="45.0343" lon="5.39854">
        <ele>1095</ele>
        <time>2019-06-15T09:51:01.036Z</time>
      </trkpt>
      <trkpt lat="45.03429" lon="5.39855">
        <ele>1095</ele>
        <time>2019-06-15T09:51:02.036Z</time>
      </trkpt>
      <trkpt lat="45.03428" lon="5.39855">
        <ele>1095</ele>
        <time>2019-06-15T09:51:03.036Z</time>
      </trkpt>
      <trkpt lat="45.03427" lon="5.39856">
        <ele>1096</ele>
        <time>2019-06-15T09:51:04.036Z</time>
      </trkpt>
      <trkpt lat="45.03426" lon="5.39858">
        <ele>1096</ele>
        <time>2019-06-15T09:51:05.036Z</time>
      </trkpt>
      <trkpt lat="45.03424" lon="5.39858">
        <ele>1097</ele>
        <time>2019-06-15T09:51:06.036Z</time>
      </trkpt>
      <trkpt lat="45.03423" lon="5.39859">
        <ele>1097</ele>
        <time>2019-06-15T09:51:07.036Z</time>
      </trkpt>
      <trkpt lat="45.03422" lon="5.3986">
        <ele>1096</ele>
        <time>2019-06-15T09:51:08.036Z</time>
      </trkpt>
      <trkpt lat="45.03421" lon="5.39861">
        <ele>1096</ele>
        <time>2019-06-15T09:51:09.036Z</time>
      </trkpt>
      <trkpt lat="45.03419" lon="5.39862">
        <ele>1096</ele>
        <time>2019-06-15T09:51:10.036Z</time>
      </trkpt>
      <trkpt lat="45.03418" lon="5.39862">
        <ele>1096</ele>
        <time>2019-06-15T09:51:11.036Z</time>
      </trkpt>
      <trkpt lat="45.03417" lon="5.39863">
        <ele>1096</ele>
        <time>2019-06-15T09:51:12.036Z</time>
      </trkpt>
      <trkpt lat="45.03416" lon="5.39863">
        <ele>1096</ele>
        <time>2019-06-15T09:51:13.036Z</time>
      </trkpt>
      <trkpt lat="45.03415" lon="5.39864">
        <ele>1096</ele>
        <time>2019-06-15T09:51:14.036Z</time>
      </trkpt>
      <trkpt lat="45.03414" lon="5.39865">
        <ele>1097</ele>
        <time>2019-06-15T09:51:15.036Z</time>
      </trkpt>
      <trkpt lat="45.03413" lon="5.39866">
        <ele>1097</ele>
        <time>2019-06-15T09:51:16.036Z</time>
      </trkpt>
      <trkpt lat="45.03411" lon="5.39867">
        <ele>1097</ele>
        <time>2019-06-15T09:51:17.036Z</time>
      </trkpt>
      <trkpt lat="45.0341" lon="5.39867">
        <ele>1097</ele>
        <time>2019-06-15T09:51:18.036Z</time>
      </trkpt>
      <trkpt lat="45.03409" lon="5.39868">
        <ele>1097</ele>
        <time>2019-06-15T09:51:19.036Z</time>
      </trkpt>
      <trkpt lat="45.03408" lon="5.39869">
        <ele>1097</ele>
        <time>2019-06-15T09:51:20.036Z</time>
      </trkpt>
      <trkpt lat="45.03407" lon="5.3987">
        <ele>1097</ele>
        <time>2019-06-15T09:51:21.036Z</time>
      </trkpt>
      <trkpt lat="45.03406" lon="5.39871">
        <ele>1097</ele>
        <time>2019-06-15T09:51:22.036Z</time>
      </trkpt>
      <trkpt lat="45.03404" lon="5.39871">
        <ele>1096</ele>
        <time>2019-06-15T09:51:23.036Z</time>
      </trkpt>
      <trkpt lat="45.03403" lon="5.39871">
        <ele>1095</ele>
        <time>2019-06-15T09:51:24.036Z</time>
      </trkpt>
      <trkpt lat="45.03401" lon="5.39872">
        <ele>1095</ele>
        <time>2019-06-15T09:51:25.036Z</time>
      </trkpt>
      <trkpt lat="45.034" lon="5.39872">
        <ele>1095</ele>
        <time>2019-06-15T09:51:26.036Z</time>
      </trkpt>
      <trkpt lat="45.03398" lon="5.39873">
        <ele>1095</ele>
        <time>2019-06-15T09:51:27.036Z</time>
      </trkpt>
      <trkpt lat="45.03397" lon="5.39873">
        <ele>1094</ele>
        <time>2019-06-15T09:51:28.036Z</time>
      </trkpt>
      <trkpt lat="45.03396" lon="5.39874">
        <ele>1094</ele>
        <time>2019-06-15T09:51:29.036Z</time>
      </trkpt>
      <trkpt lat="45.03394" lon="5.39875">
        <ele>1094</ele>
        <time>2019-06-15T09:51:30.036Z</time>
      </trkpt>
      <trkpt lat="45.03392" lon="5.39876">
        <ele>1094</ele>
        <time>2019-06-15T09:51:31.036Z</time>
      </trkpt>
      <trkpt lat="45.0339" lon="5.39877">
        <ele>1094</ele>
        <time>2019-06-15T09:51:32.036Z</time>
      </trkpt>
      <trkpt lat="45.03388" lon="5.39878">
        <ele>1094</ele>
        <time>2019-06-15T09:51:33.036Z</time>
      </trkpt>
      <trkpt lat="45.03387" lon="5.3988">
        <ele>1093</ele>
        <time>2019-06-15T09:51:34.036Z</time>
      </trkpt>
      <trkpt lat="45.03385" lon="5.39882">
        <ele>1093</ele>
        <time>2019-06-15T09:51:35.036Z</time>
      </trkpt>
      <trkpt lat="45.03383" lon="5.39883">
        <ele>1093</ele>
        <time>2019-06-15T09:51:36.036Z</time>
      </trkpt>
      <trkpt lat="45.03381" lon="5.39884">
        <ele>1092</ele>
        <time>2019-06-15T09:51:37.036Z</time>
      </trkpt>
      <trkpt lat="45.0338" lon="5.39885">
        <ele>1092</ele>
        <time>2019-06-15T09:51:38.036Z</time>
      </trkpt>
      <trkpt lat="45.03378" lon="5.39887">
        <ele>1093</ele>
        <time>2019-06-15T09:51:39.036Z</time>
      </trkpt>
      <trkpt lat="45.03376" lon="5.39888">
        <ele>1092</ele>
        <time>2019-06-15T09:51:40.036Z</time>
      </trkpt>
      <trkpt lat="45.03375" lon="5.39889">
        <ele>1093</ele>
        <time>2019-06-15T09:51:41.036Z</time>
      </trkpt>
      <trkpt lat="45.03373" lon="5.3989">
        <ele>1093</ele>
        <time>2019-06-15T09:51:42.036Z</time>
      </trkpt>
      <trkpt lat="45.03372" lon="5.39891">
        <ele>1093</ele>
        <time>2019-06-15T09:51:43.036Z</time>
      </trkpt>
      <trkpt lat="45.03371" lon="5.39892">
        <ele>1093</ele>
        <time>2019-06-15T09:51:44.036Z</time>
      </trkpt>
      <trkpt lat="45.03369" lon="5.39893">
        <ele>1093</ele>
        <time>2019-06-15T09:51:45.036Z</time>
      </trkpt>
      <trkpt lat="45.03368" lon="5.39895">
        <ele>1095</ele>
        <time>2019-06-15T09:51:46.036Z</time>
      </trkpt>
      <trkpt lat="45.03366" lon="5.39896">
        <ele>1097</ele>
        <time>2019-06-15T09:51:47.036Z</time>
      </trkpt>
      <trkpt lat="45.03364" lon="5.39898">
        <ele>1098</ele>
        <time>2019-06-15T09:51:48.036Z</time>
      </trkpt>
      <trkpt lat="45.03362" lon="5.399">
        <ele>1098</ele>
        <time>2019-06-15T09:51:49.036Z</time>
      </trkpt>
      <trkpt lat="45.03361" lon="5.39901">
        <ele>1099</ele>
        <time>2019-06-15T09:51:50.036Z</time>
      </trkpt>
      <trkpt lat="45.0336" lon="5.39902">
        <ele>1099</ele>
        <time>2019-06-15T09:51:51.036Z</time>
      </trkpt>
      <trkpt lat="45.03359" lon="5.39903">
        <ele>1099</ele>
        <time>2019-06-15T09:51:52.036Z</time>
      </trkpt>
      <trkpt lat="45.03358" lon="5.39905">
        <ele>1100</ele>
        <time>2019-06-15T09:51:53.036Z</time>
      </trkpt>
      <trkpt lat="45.03356" lon="5.39906">
        <ele>1101</ele>
        <time>2019-06-15T09:51:54.036Z</time>
      </trkpt>
      <trkpt lat="45.03355" lon="5.39907">
        <ele>1101</ele>
        <time>2019-06-15T09:51:55.036Z</time>
      </trkpt>
      <trkpt lat="45.03354" lon="5.39909">
        <ele>1102</ele>
        <time>2019-06-15T09:51:56.036Z</time>
      </trkpt>
      <trkpt lat="45.03353" lon="5.3991">
        <ele>1102</ele>
        <time>2019-06-15T09:51:57.036Z</time>
      </trkpt>
      <trkpt lat="45.03352" lon="5.39912">
        <ele>1102</ele>
        <time>2019-06-15T09:51:58.036Z</time>
      </trkpt>
      <trkpt lat="45.03351" lon="5.39914">
        <ele>1103</ele>
        <time>2019-06-15T09:51:59.036Z</time>
      </trkpt>
      <trkpt lat="45.0335" lon="5.39915">
        <ele>1102</ele>
        <time>2019-06-15T09:52:00.036Z</time>
      </trkpt>
      <trkpt lat="45.03349" lon="5.39917">
        <ele>1104</ele>
        <time>2019-06-15T09:52:01.036Z</time>
      </trkpt>
      <trkpt lat="45.03347" lon="5.39917">
        <ele>1105</ele>
        <time>2019-06-15T09:52:02.036Z</time>
      </trkpt>
      <trkpt lat="45.03346" lon="5.39918">
        <ele>1106</ele>
        <time>2019-06-15T09:52:03.036Z</time>
      </trkpt>
      <trkpt lat="45.03345" lon="5.39919">
        <ele>1106</ele>
        <time>2019-06-15T09:52:04.036Z</time>
      </trkpt>
      <trkpt lat="45.03344" lon="5.3992">
        <ele>1106</ele>
        <time>2019-06-15T09:52:05.036Z</time>
      </trkpt>
      <trkpt lat="45.03343" lon="5.39921">
        <ele>1107</ele>
        <time>2019-06-15T09:52:06.036Z</time>
      </trkpt>
      <trkpt lat="45.03342" lon="5.39922">
        <ele>1107</ele>
        <time>2019-06-15T09:52:07.036Z</time>
      </trkpt>
      <trkpt lat="45.03342" lon="5.39923">
        <ele>1107</ele>
        <time>2019-06-15T09:52:08.036Z</time>
      </trkpt>
      <trkpt lat="45.03341" lon="5.39924">
        <ele>1108</ele>
        <time>2019-06-15T09:52:09.036Z</time>
      </trkpt>
      <trkpt lat="45.0334" lon="5.39925">
        <ele>1108</ele>
        <time>2019-06-15T09:52:10.036Z</time>
      </trkpt>
      <trkpt lat="45.03339" lon="5.39926">
        <ele>1107</ele>
        <time>2019-06-15T09:52:11.036Z</time>
      </trkpt>
      <trkpt lat="45.03338" lon="5.39927">
        <ele>1108</ele>
        <time>2019-06-15T09:52:12.036Z</time>
      </trkpt>
      <trkpt lat="45.03338" lon="5.39928">
        <ele>1109</ele>
        <time>2019-06-15T09:52:13.036Z</time>
      </trkpt>
      <trkpt lat="45.03337" lon="5.39929">
        <ele>1108</ele>
        <time>2019-06-15T09:52:14.036Z</time>
      </trkpt>
      <trkpt lat="45.03336" lon="5.3993">
        <ele>1109</ele>
        <time>2019-06-15T09:52:15.036Z</time>
      </trkpt>
      <trkpt lat="45.03337" lon="5.39931">
        <ele>1108</ele>
        <time>2019-06-15T09:52:16.036Z</time>
      </trkpt>
      <trkpt lat="45.03337" lon="5.39931">
        <ele>1110</ele>
        <time>2019-06-15T09:52:17.036Z</time>
      </trkpt>
      <trkpt lat="45.03338" lon="5.39931">
        <ele>1110</ele>
        <time>2019-06-15T09:52:18.036Z</time>
      </trkpt>
      <trkpt lat="45.03339" lon="5.39931">
        <ele>1111</ele>
        <time>2019-06-15T09:52:19.036Z</time>
      </trkpt>
      <trkpt lat="45.0334" lon="5.3993">
        <ele>1111</ele>
        <time>2019-06-15T09:52:20.036Z</time>
      </trkpt>
      <trkpt lat="45.03341" lon="5.3993">
        <ele>1112</ele>
        <time>2019-06-15T09:52:21.036Z</time>
      </trkpt>
      <trkpt lat="45.03342" lon="5.3993">
        <ele>1112</ele>
        <time>2019-06-15T09:52:22.036Z</time>
      </trkpt>
      <trkpt lat="45.03343" lon="5.3993">
        <ele>1112</ele>
        <time>2019-06-15T09:52:23.036Z</time>
      </trkpt>
      <trkpt lat="45.03344" lon="5.39929">
        <ele>1112</ele>
        <time>2019-06-15T09:52:24.036Z</time>
      </trkpt>
      <trkpt lat="45.03345" lon="5.39929">
        <ele>1112</ele>
        <time>2019-06-15T09:52:25.036Z</time>
      </trkpt>
      <trkpt lat="45.03346" lon="5.39929">
        <ele>1112</ele>
        <time>2019-06-15T09:52:26.036Z</time>
      </trkpt>
      <trkpt lat="45.03347" lon="5.39929">
        <ele>1113</ele>
        <time>2019-06-15T09:52:27.036Z</time>
      </trkpt>
      <trkpt lat="45.03347" lon="5.39929">
        <ele>1113</ele>
        <time>2019-06-15T09:52:28.036Z</time>
      </trkpt>
      <trkpt lat="45.03348" lon="5.39929">
        <ele>1113</ele>
        <time>2019-06-15T09:52:29.036Z</time>
      </trkpt>
      <trkpt lat="45.03349" lon="5.39928">
        <ele>1113</ele>
        <time>2019-06-15T09:52:30.036Z</time>
      </trkpt>
      <trkpt lat="45.0335" lon="5.39928">
        <ele>1113</ele>
        <time>2019-06-15T09:52:31.036Z</time>
      </trkpt>
      <trkpt lat="45.03351" lon="5.39928">
        <ele>1113</ele>
        <time>2019-06-15T09:52:32.036Z</time>
      </trkpt>
      <trkpt lat="45.03352" lon="5.39928">
        <ele>1113</ele>
        <time>2019-06-15T09:52:33.036Z</time>
      </trkpt>
      <trkpt lat="45.03353" lon="5.39928">
        <ele>1114</ele>
        <time>2019-06-15T09:52:34.036Z</time>
      </trkpt>
      <trkpt lat="45.03354" lon="5.39928">
        <ele>1114</ele>
        <time>2019-06-15T09:52:35.036Z</time>
      </trkpt>
      <trkpt lat="45.03355" lon="5.39927">
        <ele>1114</ele>
        <time>2019-06-15T09:52:36.036Z</time>
      </trkpt>
      <trkpt lat="45.03356" lon="5.39928">
        <ele>1114</ele>
        <time>2019-06-15T09:52:37.036Z</time>
      </trkpt>
      <trkpt lat="45.03357" lon="5.39928">
        <ele>1115</ele>
        <time>2019-06-15T09:52:38.036Z</time>
      </trkpt>
      <trkpt lat="45.03358" lon="5.39927">
        <ele>1115</ele>
        <time>2019-06-15T09:52:39.036Z</time>
      </trkpt>
      <trkpt lat="45.03359" lon="5.39927">
        <ele>1116</ele>
        <time>2019-06-15T09:52:40.036Z</time>
      </trkpt>
      <trkpt lat="45.0336" lon="5.39927">
        <ele>1116</ele>
        <time>2019-06-15T09:52:41.036Z</time>
      </trkpt>
      <trkpt lat="45.03361" lon="5.39927">
        <ele>1116</ele>
        <time>2019-06-15T09:52:42.036Z</time>
      </trkpt>
      <trkpt lat="45.03361" lon="5.39926">
        <ele>1117</ele>
        <time>2019-06-15T09:52:43.036Z</time>
      </trkpt>
      <trkpt lat="45.03362" lon="5.39926">
        <ele>1117</ele>
        <time>2019-06-15T09:52:44.036Z</time>
      </trkpt>
      <trkpt lat="45.03363" lon="5.39926">
        <ele>1117</ele>
        <time>2019-06-15T09:52:45.036Z</time>
      </trkpt>
      <trkpt lat="45.03364" lon="5.39925">
        <ele>1118</ele>
        <time>2019-06-15T09:52:46.036Z</time>
      </trkpt>
      <trkpt lat="45.03365" lon="5.39925">
        <ele>1119</ele>
        <time>2019-06-15T09:52:47.036Z</time>
      </trkpt>
      <trkpt lat="45.03365" lon="5.39925">
        <ele>1119</ele>
        <time>2019-06-15T09:52:48.036Z</time>
      </trkpt>
      <trkpt lat="45.03366" lon="5.39925">
        <ele>1119</ele>
        <time>2019-06-15T09:52:49.036Z</time>
      </trkpt>
      <trkpt lat="45.03367" lon="5.39924">
        <ele>1119</ele>
        <time>2019-06-15T09:52:50.036Z</time>
      </trkpt>
      <trkpt lat="45.03368" lon="5.39924">
        <ele>1119</ele>
        <time>2019-06-15T09:52:51.036Z</time>
      </trkpt>
      <trkpt lat="45.03369" lon="5.39923">
        <ele>1118</ele>
        <time>2019-06-15T09:52:52.036Z</time>
      </trkpt>
      <trkpt lat="45.0337" lon="5.39923">
        <ele>1119</ele>
        <time>2019-06-15T09:52:53.036Z</time>
      </trkpt>
      <trkpt lat="45.03371" lon="5.39923">
        <ele>1119</ele>
        <time>2019-06-15T09:52:54.036Z</time>
      </trkpt>
      <trkpt lat="45.03372" lon="5.39923">
        <ele>1119</ele>
        <time>2019-06-15T09:52:55.036Z</time>
      </trkpt>
      <trkpt lat="45.03373" lon="5.39923">
        <ele>1118</ele>
        <time>2019-06-15T09:52:56.036Z</time>
      </trkpt>
      <trkpt lat="45.03374" lon="5.39924">
        <ele>1119</ele>
        <time>2019-06-15T09:52:57.036Z</time>
      </trkpt>
      <trkpt lat="45.03375" lon="5.39924">
        <ele>1119</ele>
        <time>2019-06-15T09:52:58.036Z</time>
      </trkpt>
      <trkpt lat="45.03376" lon="5.39924">
        <ele>1119</ele>
        <time>2019-06-15T09:52:59.036Z</time>
      </trkpt>
      <trkpt lat="45.03377" lon="5.39924">
        <ele>1120</ele>
        <time>2019-06-15T09:53:00.036Z</time>
      </trkpt>
      <trkpt lat="45.03377" lon="5.39924">
        <ele>1119</ele>
        <time>2019-06-15T09:53:01.036Z</time>
      </trkpt>
      <trkpt lat="45.03378" lon="5.39924">
        <ele>1120</ele>
        <time>2019-06-15T09:53:02.036Z</time>
      </trkpt>
      <trkpt lat="45.03379" lon="5.39923">
        <ele>1120</ele>
        <time>2019-06-15T09:53:03.036Z</time>
      </trkpt>
      <trkpt lat="45.0338" lon="5.39923">
        <ele>1121</ele>
        <time>2019-06-15T09:53:04.036Z</time>
      </trkpt>
      <trkpt lat="45.03381" lon="5.39922">
        <ele>1122</ele>
        <time>2019-06-15T09:53:05.036Z</time>
      </trkpt>
      <trkpt lat="45.03382" lon="5.39922">
        <ele>1122</ele>
        <time>2019-06-15T09:53:06.036Z</time>
      </trkpt>
      <trkpt lat="45.03383" lon="5.39921">
        <ele>1123</ele>
        <time>2019-06-15T09:53:07.036Z</time>
      </trkpt>
      <trkpt lat="45.03384" lon="5.39921">
        <ele>1123</ele>
        <time>2019-06-15T09:53:08.036Z</time>
      </trkpt>
      <trkpt lat="45.03385" lon="5.39921">
        <ele>1123</ele>
        <time>2019-06-15T09:53:09.036Z</time>
      </trkpt>
      <trkpt lat="45.03386" lon="5.39921">
        <ele>1123</ele>
        <time>2019-06-15T09:53:10.036Z</time>
      </trkpt>
      <trkpt lat="45.03387" lon="5.39921">
        <ele>1123</ele>
        <time>2019-06-15T09:53:11.036Z</time>
      </trkpt>
      <trkpt lat="45.03388" lon="5.3992">
        <ele>1123</ele>
        <time>2019-06-15T09:53:12.036Z</time>
      </trkpt>
      <trkpt lat="45.03389" lon="5.3992">
        <ele>1124</ele>
        <time>2019-06-15T09:53:13.036Z</time>
      </trkpt>
      <trkpt lat="45.0339" lon="5.3992">
        <ele>1124</ele>
        <time>2019-06-15T09:53:14.036Z</time>
      </trkpt>
      <trkpt lat="45.03392" lon="5.3992">
        <ele>1124</ele>
        <time>2019-06-15T09:53:15.036Z</time>
      </trkpt>
      <trkpt lat="45.03393" lon="5.3992">
        <ele>1124</ele>
        <time>2019-06-15T09:53:16.036Z</time>
      </trkpt>
      <trkpt lat="45.03394" lon="5.3992">
        <ele>1124</ele>
        <time>2019-06-15T09:53:17.036Z</time>
      </trkpt>
      <trkpt lat="45.03395" lon="5.3992">
        <ele>1125</ele>
        <time>2019-06-15T09:53:18.036Z</time>
      </trkpt>
      <trkpt lat="45.03396" lon="5.3992">
        <ele>1125</ele>
        <time>2019-06-15T09:53:19.036Z</time>
      </trkpt>
      <trkpt lat="45.03397" lon="5.3992">
        <ele>1125</ele>
        <time>2019-06-15T09:53:20.036Z</time>
      </trkpt>
      <trkpt lat="45.03398" lon="5.39919">
        <ele>1125</ele>
        <time>2019-06-15T09:53:21.036Z</time>
      </trkpt>
      <trkpt lat="45.03398" lon="5.39919">
        <ele>1126</ele>
        <time>2019-06-15T09:53:22.036Z</time>
      </trkpt>
      <trkpt lat="45.03399" lon="5.39919">
        <ele>1126</ele>
        <time>2019-06-15T09:53:23.036Z</time>
      </trkpt>
      <trkpt lat="45.034" lon="5.39919">
        <ele>1126</ele>
        <time>2019-06-15T09:53:24.036Z</time>
      </trkpt>
      <trkpt lat="45.03401" lon="5.39919">
        <ele>1127</ele>
        <time>2019-06-15T09:53:25.036Z</time>
      </trkpt>
      <trkpt lat="45.03402" lon="5.39919">
        <ele>1127</ele>
        <time>2019-06-15T09:53:26.036Z</time>
      </trkpt>
      <trkpt lat="45.03402" lon="5.39919">
        <ele>1127</ele>
        <time>2019-06-15T09:53:27.036Z</time>
      </trkpt>
      <trkpt lat="45.03403" lon="5.39918">
        <ele>1128</ele>
        <time>2019-06-15T09:53:28.036Z</time>
      </trkpt>
      <trkpt lat="45.03404" lon="5.39918">
        <ele>1128</ele>
        <time>2019-06-15T09:53:29.036Z</time>
      </trkpt>
      <trkpt lat="45.03405" lon="5.39918">
        <ele>1129</ele>
        <time>2019-06-15T09:53:30.036Z</time>
      </trkpt>
      <trkpt lat="45.03406" lon="5.39918">
        <ele>1129</ele>
        <time>2019-06-15T09:53:31.036Z</time>
      </trkpt>
      <trkpt lat="45.03407" lon="5.39918">
        <ele>1129</ele>
        <time>2019-06-15T09:53:32.036Z</time>
      </trkpt>
      <trkpt lat="45.03408" lon="5.39918">
        <ele>1130</ele>
        <time>2019-06-15T09:53:33.036Z</time>
      </trkpt>
      <trkpt lat="45.03409" lon="5.39918">
        <ele>1130</ele>
        <time>2019-06-15T09:53:34.036Z</time>
      </trkpt>
      <trkpt lat="45.03409" lon="5.39917">
        <ele>1130</ele>
        <time>2019-06-15T09:53:35.036Z</time>
      </trkpt>
      <trkpt lat="45.0341" lon="5.39917">
        <ele>1131</ele>
        <time>2019-06-15T09:53:36.036Z</time>
      </trkpt>
      <trkpt lat="45.03411" lon="5.39917">
        <ele>1131</ele>
        <time>2019-06-15T09:53:37.036Z</time>
      </trkpt>
      <trkpt lat="45.03412" lon="5.39917">
        <ele>1131</ele>
        <time>2019-06-15T09:53:38.036Z</time>
      </trkpt>
      <trkpt lat="45.03413" lon="5.39916">
        <ele>1131</ele>
        <time>2019-06-15T09:53:39.036Z</time>
      </trkpt>
      <trkpt lat="45.03413" lon="5.39916">
        <ele>1132</ele>
        <time>2019-06-15T09:53:40.036Z</time>
      </trkpt>
      <trkpt lat="45.03414" lon="5.39916">
        <ele>1132</ele>
        <time>2019-06-15T09:53:41.036Z</time>
      </trkpt>
      <trkpt lat="45.03415" lon="5.39916">
        <ele>1133</ele>
        <time>2019-06-15T09:53:42.036Z</time>
      </trkpt>
      <trkpt lat="45.03416" lon="5.39915">
        <ele>1133</ele>
        <time>2019-06-15T09:53:43.036Z</time>
      </trkpt>
      <trkpt lat="45.03417" lon="5.39915">
        <ele>1133</ele>
        <time>2019-06-15T09:53:44.036Z</time>
      </trkpt>
      <trkpt lat="45.03418" lon="5.39914">
        <ele>1134</ele>
        <time>2019-06-15T09:53:45.036Z</time>
      </trkpt>
      <trkpt lat="45.03418" lon="5.39914">
        <ele>1134</ele>
        <time>2019-06-15T09:53:46.036Z</time>
      </trkpt>
      <trkpt lat="45.03419" lon="5.39914">
        <ele>1134</ele>
        <time>2019-06-15T09:53:47.036Z</time>
      </trkpt>
      <trkpt lat="45.0342" lon="5.39914">
        <ele>1135</ele>
        <time>2019-06-15T09:53:48.036Z</time>
      </trkpt>
      <trkpt lat="45.03421" lon="5.39913">
        <ele>1135</ele>
        <time>2019-06-15T09:53:49.036Z</time>
      </trkpt>
      <trkpt lat="45.03422" lon="5.39913">
        <ele>1136</ele>
        <time>2019-06-15T09:53:50.036Z</time>
      </trkpt>
      <trkpt lat="45.03423" lon="5.39912">
        <ele>1136</ele>
        <time>2019-06-15T09:53:51.036Z</time>
      </trkpt>
      <trkpt lat="45.03424" lon="5.39912">
        <ele>1136</ele>
        <time>2019-06-15T09:53:52.036Z</time>
      </trkpt>
      <trkpt lat="45.03425" lon="5.39912">
        <ele>1136</ele>
        <time>2019-06-15T09:53:53.036Z</time>
      </trkpt>
      <trkpt lat="45.03426" lon="5.39912">
        <ele>1136</ele>
        <time>2019-06-15T09:53:54.036Z</time>
      </trkpt>
      <trkpt lat="45.03427" lon="5.39911">
        <ele>1136</ele>
        <time>2019-06-15T09:53:55.036Z</time>
      </trkpt>
      <trkpt lat="45.03428" lon="5.39911">
        <ele>1136</ele>
        <time>2019-06-15T09:53:56.036Z</time>
      </trkpt>
      <trkpt lat="45.03429" lon="5.39911">
        <ele>1136</ele>
        <time>2019-06-15T09:53:57.036Z</time>
      </trkpt>
      <trkpt lat="45.0343" lon="5.39911">
        <ele>1136</ele>
        <time>2019-06-15T09:53:58.036Z</time>
      </trkpt>
      <trkpt lat="45.03431" lon="5.3991">
        <ele>1136</ele>
        <time>2019-06-15T09:53:59.036Z</time>
      </trkpt>
      <trkpt lat="45.03433" lon="5.3991">
        <ele>1135</ele>
        <time>2019-06-15T09:54:00.036Z</time>
      </trkpt>
      <trkpt lat="45.03434" lon="5.3991">
        <ele>1135</ele>
        <time>2019-06-15T09:54:01.036Z</time>
      </trkpt>
      <trkpt lat="45.03435" lon="5.3991">
        <ele>1136</ele>
        <time>2019-06-15T09:54:02.036Z</time>
      </trkpt>
      <trkpt lat="45.03436" lon="5.3991">
        <ele>1136</ele>
        <time>2019-06-15T09:54:03.036Z</time>
      </trkpt>
      <trkpt lat="45.03437" lon="5.39909">
        <ele>1136</ele>
        <time>2019-06-15T09:54:04.036Z</time>
      </trkpt>
      <trkpt lat="45.03438" lon="5.39909">
        <ele>1136</ele>
        <time>2019-06-15T09:54:05.036Z</time>
      </trkpt>
      <trkpt lat="45.03439" lon="5.39909">
        <ele>1137</ele>
        <time>2019-06-15T09:54:06.036Z</time>
      </trkpt>
      <trkpt lat="45.0344" lon="5.39908">
        <ele>1137</ele>
        <time>2019-06-15T09:54:07.036Z</time>
      </trkpt>
      <trkpt lat="45.03441" lon="5.39907">
        <ele>1138</ele>
        <time>2019-06-15T09:54:08.036Z</time>
      </trkpt>
      <trkpt lat="45.03441" lon="5.39906">
        <ele>1138</ele>
        <time>2019-06-15T09:54:09.036Z</time>
      </trkpt>
      <trkpt lat="45.03442" lon="5.39906">
        <ele>1139</ele>
        <time>2019-06-15T09:54:10.036Z</time>
      </trkpt>
      <trkpt lat="45.03443" lon="5.39905">
        <ele>1139</ele>
        <time>2019-06-15T09:54:11.036Z</time>
      </trkpt>
      <trkpt lat="45.03444" lon="5.39905">
        <ele>1139</ele>
        <time>2019-06-15T09:54:12.036Z</time>
      </trkpt>
      <trkpt lat="45.03445" lon="5.39905">
        <ele>1139</ele>
        <time>2019-06-15T09:54:13.036Z</time>
      </trkpt>
      <trkpt lat="45.03446" lon="5.39904">
        <ele>1139</ele>
        <time>2019-06-15T09:54:14.036Z</time>
      </trkpt>
      <trkpt lat="45.03447" lon="5.39905">
        <ele>1139</ele>
        <time>2019-06-15T09:54:15.036Z</time>
      </trkpt>
      <trkpt lat="45.03447" lon="5.39906">
        <ele>1140</ele>
        <time>2019-06-15T09:54:16.036Z</time>
      </trkpt>
      <trkpt lat="45.03447" lon="5.39907">
        <ele>1139</ele>
        <time>2019-06-15T09:54:17.036Z</time>
      </trkpt>
      <trkpt lat="45.03447" lon="5.39908">
        <ele>1138</ele>
        <time>2019-06-15T09:54:18.036Z</time>
      </trkpt>
      <trkpt lat="45.03447" lon="5.39909">
        <ele>1138</ele>
        <time>2019-06-15T09:54:19.036Z</time>
      </trkpt>
      <trkpt lat="45.03446" lon="5.3991">
        <ele>1138</ele>
        <time>2019-06-15T09:54:20.036Z</time>
      </trkpt>
      <trkpt lat="45.03445" lon="5.39911">
        <ele>1138</ele>
        <time>2019-06-15T09:54:21.036Z</time>
      </trkpt>
      <trkpt lat="45.03444" lon="5.39912">
        <ele>1138</ele>
        <time>2019-06-15T09:54:22.036Z</time>
      </trkpt>
      <trkpt lat="45.03443" lon="5.39913">
        <ele>1138</ele>
        <time>2019-06-15T09:54:23.036Z</time>
      </trkpt>
      <trkpt lat="45.03442" lon="5.39914">
        <ele>1138</ele>
        <time>2019-06-15T09:54:24.036Z</time>
      </trkpt>
      <trkpt lat="45.03442" lon="5.39914">
        <ele>1138</ele>
        <time>2019-06-15T09:54:25.036Z</time>
      </trkpt>
      <trkpt lat="45.0344" lon="5.39915">
        <ele>1139</ele>
        <time>2019-06-15T09:54:26.036Z</time>
      </trkpt>
      <trkpt lat="45.03439" lon="5.39915">
        <ele>1139</ele>
        <time>2019-06-15T09:54:27.036Z</time>
      </trkpt>
      <trkpt lat="45.03438" lon="5.39915">
        <ele>1139</ele>
        <time>2019-06-15T09:54:28.036Z</time>
      </trkpt>
      <trkpt lat="45.03437" lon="5.39915">
        <ele>1139</ele>
        <time>2019-06-15T09:54:29.036Z</time>
      </trkpt>
      <trkpt lat="45.03436" lon="5.39916">
        <ele>1139</ele>
        <time>2019-06-15T09:54:30.036Z</time>
      </trkpt>
      <trkpt lat="45.03435" lon="5.39916">
        <ele>1139</ele>
        <time>2019-06-15T09:54:31.036Z</time>
      </trkpt>
      <trkpt lat="45.03434" lon="5.39917">
        <ele>1139</ele>
        <time>2019-06-15T09:54:32.036Z</time>
      </trkpt>
      <trkpt lat="45.03433" lon="5.39918">
        <ele>1139</ele>
        <time>2019-06-15T09:54:33.036Z</time>
      </trkpt>
      <trkpt lat="45.03432" lon="5.39918">
        <ele>1140</ele>
        <time>2019-06-15T09:54:34.036Z</time>
      </trkpt>
      <trkpt lat="45.03431" lon="5.39919">
        <ele>1141</ele>
        <time>2019-06-15T09:54:35.036Z</time>
      </trkpt>
      <trkpt lat="45.0343" lon="5.39919">
        <ele>1141</ele>
        <time>2019-06-15T09:54:36.036Z</time>
      </trkpt>
      <trkpt lat="45.03429" lon="5.3992">
        <ele>1141</ele>
        <time>2019-06-15T09:54:37.036Z</time>
      </trkpt>
      <trkpt lat="45.03428" lon="5.39921">
        <ele>1142</ele>
        <time>2019-06-15T09:54:38.036Z</time>
      </trkpt>
      <trkpt lat="45.03427" lon="5.39921">
        <ele>1142</ele>
        <time>2019-06-15T09:54:39.036Z</time>
      </trkpt>
      <trkpt lat="45.03426" lon="5.39922">
        <ele>1143</ele>
        <time>2019-06-15T09:54:40.036Z</time>
      </trkpt>
      <trkpt lat="45.03425" lon="5.39922">
        <ele>1143</ele>
        <time>2019-06-15T09:54:41.036Z</time>
      </trkpt>
      <trkpt lat="45.03424" lon="5.39923">
        <ele>1144</ele>
        <time>2019-06-15T09:54:42.036Z</time>
      </trkpt>
      <trkpt lat="45.03423" lon="5.39924">
        <ele>1145</ele>
        <time>2019-06-15T09:54:43.036Z</time>
      </trkpt>
      <trkpt lat="45.03422" lon="5.39924">
        <ele>1146</ele>
        <time>2019-06-15T09:54:44.036Z</time>
      </trkpt>
      <trkpt lat="45.03421" lon="5.39925">
        <ele>1146</ele>
        <time>2019-06-15T09:54:45.036Z</time>
      </trkpt>
      <trkpt lat="45.0342" lon="5.39926">
        <ele>1146</ele>
        <time>2019-06-15T09:54:46.036Z</time>
      </trkpt>
      <trkpt lat="45.03419" lon="5.39927">
        <ele>1147</ele>
        <time>2019-06-15T09:54:47.036Z</time>
      </trkpt>
      <trkpt lat="45.03419" lon="5.39927">
        <ele>1147</ele>
        <time>2019-06-15T09:54:48.036Z</time>
      </trkpt>
      <trkpt lat="45.03418" lon="5.39928">
        <ele>1148</ele>
        <time>2019-06-15T09:54:49.036Z</time>
      </trkpt>
      <trkpt lat="45.03417" lon="5.39929">
        <ele>1148</ele>
        <time>2019-06-15T09:54:50.036Z</time>
      </trkpt>
      <trkpt lat="45.03416" lon="5.3993">
        <ele>1148</ele>
        <time>2019-06-15T09:54:51.036Z</time>
      </trkpt>
      <trkpt lat="45.03415" lon="5.39931">
        <ele>1148</ele>
        <time>2019-06-15T09:54:52.036Z</time>
      </trkpt>
      <trkpt lat="45.03415" lon="5.39932">
        <ele>1148</ele>
        <time>2019-06-15T09:54:53.036Z</time>
      </trkpt>
      <trkpt lat="45.03414" lon="5.39933">
        <ele>1149</ele>
        <time>2019-06-15T09:54:54.036Z</time>
      </trkpt>
      <trkpt lat="45.03413" lon="5.39933">
        <ele>1149</ele>
        <time>2019-06-15T09:54:55.036Z</time>
      </trkpt>
      <trkpt lat="45.03412" lon="5.39934">
        <ele>1149</ele>
        <time>2019-06-15T09:54:56.036Z</time>
      </trkpt>
      <trkpt lat="45.03411" lon="5.39935">
        <ele>1149</ele>
        <time>2019-06-15T09:54:57.036Z</time>
      </trkpt>
      <trkpt lat="45.0341" lon="5.39936">
        <ele>1149</ele>
        <time>2019-06-15T09:54:58.036Z</time>
      </trkpt>
      <trkpt lat="45.03409" lon="5.39937">
        <ele>1150</ele>
        <time>2019-06-15T09:54:59.036Z</time>
      </trkpt>
      <trkpt lat="45.03408" lon="5.39938">
        <ele>1149</ele>
        <time>2019-06-15T09:55:00.036Z</time>
      </trkpt>
      <trkpt lat="45.03408" lon="5.39939">
        <ele>1150</ele>
        <time>2019-06-15T09:55:01.036Z</time>
      </trkpt>
      <trkpt lat="45.03407" lon="5.39939">
        <ele>1151</ele>
        <time>2019-06-15T09:55:02.036Z</time>
      </trkpt>
      <trkpt lat="45.03405" lon="5.3994">
        <ele>1152</ele>
        <time>2019-06-15T09:55:03.036Z</time>
      </trkpt>
      <trkpt lat="45.03404" lon="5.3994">
        <ele>1152</ele>
        <time>2019-06-15T09:55:04.036Z</time>
      </trkpt>
      <trkpt lat="45.03403" lon="5.39941">
        <ele>1152</ele>
        <time>2019-06-15T09:55:05.036Z</time>
      </trkpt>
      <trkpt lat="45.03402" lon="5.39942">
        <ele>1153</ele>
        <time>2019-06-15T09:55:06.036Z</time>
      </trkpt>
      <trkpt lat="45.03401" lon="5.39942">
        <ele>1153</ele>
        <time>2019-06-15T09:55:07.036Z</time>
      </trkpt>
      <trkpt lat="45.034" lon="5.39943">
        <ele>1153</ele>
        <time>2019-06-15T09:55:08.036Z</time>
      </trkpt>
      <trkpt lat="45.03399" lon="5.39944">
        <ele>1154</ele>
        <time>2019-06-15T09:55:09.036Z</time>
      </trkpt>
      <trkpt lat="45.03398" lon="5.39945">
        <ele>1153</ele>
        <time>2019-06-15T09:55:10.036Z</time>
      </trkpt>
      <trkpt lat="45.03397" lon="5.39945">
        <ele>1153</ele>
        <time>2019-06-15T09:55:11.036Z</time>
      </trkpt>
      <trkpt lat="45.03396" lon="5.39946">
        <ele>1154</ele>
        <time>2019-06-15T09:55:12.036Z</time>
      </trkpt>
      <trkpt lat="45.03395" lon="5.39947">
        <ele>1154</ele>
        <time>2019-06-15T09:55:13.036Z</time>
      </trkpt>
      <trkpt lat="45.03395" lon="5.39948">
        <ele>1154</ele>
        <time>2019-06-15T09:55:14.036Z</time>
      </trkpt>
      <trkpt lat="45.03394" lon="5.39949">
        <ele>1154</ele>
        <time>2019-06-15T09:55:15.036Z</time>
      </trkpt>
      <trkpt lat="45.03393" lon="5.3995">
        <ele>1155</ele>
        <time>2019-06-15T09:55:16.036Z</time>
      </trkpt>
      <trkpt lat="45.03392" lon="5.39951">
        <ele>1155</ele>
        <time>2019-06-15T09:55:17.036Z</time>
      </trkpt>
      <trkpt lat="45.03392" lon="5.39952">
        <ele>1155</ele>
        <time>2019-06-15T09:55:18.036Z</time>
      </trkpt>
      <trkpt lat="45.03391" lon="5.39952">
        <ele>1154</ele>
        <time>2019-06-15T09:55:19.036Z</time>
      </trkpt>
      <trkpt lat="45.0339" lon="5.39953">
        <ele>1154</ele>
        <time>2019-06-15T09:55:20.036Z</time>
      </trkpt>
      <trkpt lat="45.0339" lon="5.39954">
        <ele>1155</ele>
        <time>2019-06-15T09:55:21.036Z</time>
      </trkpt>
      <trkpt lat="45.03389" lon="5.39955">
        <ele>1155</ele>
        <time>2019-06-15T09:55:22.036Z</time>
      </trkpt>
      <trkpt lat="45.03388" lon="5.39956">
        <ele>1156</ele>
        <time>2019-06-15T09:55:23.036Z</time>
      </trkpt>
      <trkpt lat="45.03387" lon="5.39957">
        <ele>1156</ele>
        <time>2019-06-15T09:55:24.036Z</time>
      </trkpt>
      <trkpt lat="45.03386" lon="5.39958">
        <ele>1157</ele>
        <time>2019-06-15T09:55:25.036Z</time>
      </trkpt>
      <trkpt lat="45.03385" lon="5.39959">
        <ele>1157</ele>
        <time>2019-06-15T09:55:26.036Z</time>
      </trkpt>
      <trkpt lat="45.03384" lon="5.39959">
        <ele>1157</ele>
        <time>2019-06-15T09:55:27.036Z</time>
      </trkpt>
      <trkpt lat="45.03383" lon="5.3996">
        <ele>1157</ele>
        <time>2019-06-15T09:55:28.036Z</time>
      </trkpt>
      <trkpt lat="45.03382" lon="5.39961">
        <ele>1158</ele>
        <time>2019-06-15T09:55:29.036Z</time>
      </trkpt>
      <trkpt lat="45.03382" lon="5.39961">
        <ele>1158</ele>
        <time>2019-06-15T09:55:30.036Z</time>
      </trkpt>
      <trkpt lat="45.03381" lon="5.39962">
        <ele>1158</ele>
        <time>2019-06-15T09:55:31.036Z</time>
      </trkpt>
      <trkpt lat="45.0338" lon="5.39963">
        <ele>1158</ele>
        <time>2019-06-15T09:55:32.036Z</time>
      </trkpt>
      <trkpt lat="45.03379" lon="5.39963">
        <ele>1158</ele>
        <time>2019-06-15T09:55:33.036Z</time>
      </trkpt>
      <trkpt lat="45.03378" lon="5.39964">
        <ele>1158</ele>
        <time>2019-06-15T09:55:34.036Z</time>
      </trkpt>
      <trkpt lat="45.03377" lon="5.39965">
        <ele>1158</ele>
        <time>2019-06-15T09:55:35.036Z</time>
      </trkpt>
      <trkpt lat="45.03377" lon="5.39965">
        <ele>1159</ele>
        <time>2019-06-15T09:55:36.036Z</time>
      </trkpt>
      <trkpt lat="45.03376" lon="5.39966">
        <ele>1159</ele>
        <time>2019-06-15T09:55:37.036Z</time>
      </trkpt>
      <trkpt lat="45.03375" lon="5.39967">
        <ele>1158</ele>
        <time>2019-06-15T09:55:38.036Z</time>
      </trkpt>
      <trkpt lat="45.03374" lon="5.39967">
        <ele>1158</ele>
        <time>2019-06-15T09:55:39.036Z</time>
      </trkpt>
      <trkpt lat="45.03373" lon="5.39967">
        <ele>1158</ele>
        <time>2019-06-15T09:55:40.036Z</time>
      </trkpt>
      <trkpt lat="45.03373" lon="5.39968">
        <ele>1158</ele>
        <time>2019-06-15T09:55:41.036Z</time>
      </trkpt>
      <trkpt lat="45.03373" lon="5.39969">
        <ele>1157</ele>
        <time>2019-06-15T09:55:42.036Z</time>
      </trkpt>
      <trkpt lat="45.03372" lon="5.39971">
        <ele>1156</ele>
        <time>2019-06-15T09:55:43.036Z</time>
      </trkpt>
      <trkpt lat="45.03372" lon="5.39972">
        <ele>1157</ele>
        <time>2019-06-15T09:55:44.036Z</time>
      </trkpt>
      <trkpt lat="45.03371" lon="5.39973">
        <ele>1157</ele>
        <time>2019-06-15T09:55:45.036Z</time>
      </trkpt>
      <trkpt lat="45.03371" lon="5.39973">
        <ele>1158</ele>
        <time>2019-06-15T09:55:46.036Z</time>
      </trkpt>
      <trkpt lat="45.0337" lon="5.39974">
        <ele>1157</ele>
        <time>2019-06-15T09:55:47.036Z</time>
      </trkpt>
      <trkpt lat="45.0337" lon="5.39975">
        <ele>1155</ele>
        <time>2019-06-15T09:55:48.036Z</time>
      </trkpt>
      <trkpt lat="45.0337" lon="5.39977">
        <ele>1155</ele>
        <time>2019-06-15T09:55:49.036Z</time>
      </trkpt>
      <trkpt lat="45.03369" lon="5.39977">
        <ele>1155</ele>
        <time>2019-06-15T09:55:50.036Z</time>
      </trkpt>
      <trkpt lat="45.03368" lon="5.39978">
        <ele>1155</ele>
        <time>2019-06-15T09:55:51.036Z</time>
      </trkpt>
      <trkpt lat="45.03368" lon="5.39978">
        <ele>1155</ele>
        <time>2019-06-15T09:55:52.036Z</time>
      </trkpt>
      <trkpt lat="45.03367" lon="5.39978">
        <ele>1155</ele>
        <time>2019-06-15T09:55:53.036Z</time>
      </trkpt>
      <trkpt lat="45.03366" lon="5.39979">
        <ele>1156</ele>
        <time>2019-06-15T09:55:54.036Z</time>
      </trkpt>
      <trkpt lat="45.03365" lon="5.39979">
        <ele>1156</ele>
        <time>2019-06-15T09:55:55.036Z</time>
      </trkpt>
      <trkpt lat="45.03364" lon="5.39979">
        <ele>1157</ele>
        <time>2019-06-15T09:55:56.036Z</time>
      </trkpt>
      <trkpt lat="45.03363" lon="5.39979">
        <ele>1157</ele>
        <time>2019-06-15T09:55:57.036Z</time>
      </trkpt>
      <trkpt lat="45.03362" lon="5.39979">
        <ele>1157</ele>
        <time>2019-06-15T09:55:58.036Z</time>
      </trkpt>
      <trkpt lat="45.03362" lon="5.3998">
        <ele>1157</ele>
        <time>2019-06-15T09:55:59.036Z</time>
      </trkpt>
      <trkpt lat="45.03361" lon="5.3998">
        <ele>1158</ele>
        <time>2019-06-15T09:56:00.036Z</time>
      </trkpt>
      <trkpt lat="45.0336" lon="5.3998">
        <ele>1159</ele>
        <time>2019-06-15T09:56:01.036Z</time>
      </trkpt>
      <trkpt lat="45.03359" lon="5.39981">
        <ele>1159</ele>
        <time>2019-06-15T09:56:02.036Z</time>
      </trkpt>
      <trkpt lat="45.03358" lon="5.39981">
        <ele>1159</ele>
        <time>2019-06-15T09:56:03.036Z</time>
      </trkpt>
      <trkpt lat="45.03357" lon="5.39982">
        <ele>1159</ele>
        <time>2019-06-15T09:56:04.036Z</time>
      </trkpt>
      <trkpt lat="45.03356" lon="5.39982">
        <ele>1161</ele>
        <time>2019-06-15T09:56:05.036Z</time>
      </trkpt>
      <trkpt lat="45.03355" lon="5.39983">
        <ele>1161</ele>
        <time>2019-06-15T09:56:06.036Z</time>
      </trkpt>
      <trkpt lat="45.03354" lon="5.39984">
        <ele>1161</ele>
        <time>2019-06-15T09:56:07.036Z</time>
      </trkpt>
      <trkpt lat="45.03353" lon="5.39984">
        <ele>1162</ele>
        <time>2019-06-15T09:56:08.036Z</time>
      </trkpt>
      <trkpt lat="45.03352" lon="5.39985">
        <ele>1162</ele>
        <time>2019-06-15T09:56:09.036Z</time>
      </trkpt>
      <trkpt lat="45.03351" lon="5.39985">
        <ele>1163</ele>
        <time>2019-06-15T09:56:10.036Z</time>
      </trkpt>
      <trkpt lat="45.0335" lon="5.39986">
        <ele>1164</ele>
        <time>2019-06-15T09:56:11.036Z</time>
      </trkpt>
      <trkpt lat="45.03349" lon="5.39987">
        <ele>1164</ele>
        <time>2019-06-15T09:56:12.036Z</time>
      </trkpt>
      <trkpt lat="45.03348" lon="5.39987">
        <ele>1164</ele>
        <time>2019-06-15T09:56:13.036Z</time>
      </trkpt>
      <trkpt lat="45.03347" lon="5.39988">
        <ele>1164</ele>
        <time>2019-06-15T09:56:14.036Z</time>
      </trkpt>
      <trkpt lat="45.03346" lon="5.39989">
        <ele>1165</ele>
        <time>2019-06-15T09:56:15.036Z</time>
      </trkpt>
      <trkpt lat="45.03345" lon="5.3999">
        <ele>1165</ele>
        <time>2019-06-15T09:56:16.036Z</time>
      </trkpt>
      <trkpt lat="45.03344" lon="5.39991">
        <ele>1165</ele>
        <time>2019-06-15T09:56:17.036Z</time>
      </trkpt>
      <trkpt lat="45.03343" lon="5.39992">
        <ele>1166</ele>
        <time>2019-06-15T09:56:18.036Z</time>
      </trkpt>
      <trkpt lat="45.03342" lon="5.39992">
        <ele>1167</ele>
        <time>2019-06-15T09:56:19.036Z</time>
      </trkpt>
      <trkpt lat="45.03341" lon="5.39992">
        <ele>1168</ele>
        <time>2019-06-15T09:56:20.036Z</time>
      </trkpt>
      <trkpt lat="45.0334" lon="5.39992">
        <ele>1169</ele>
        <time>2019-06-15T09:56:21.036Z</time>
      </trkpt>
      <trkpt lat="45.03339" lon="5.39992">
        <ele>1168</ele>
        <time>2019-06-15T09:56:22.036Z</time>
      </trkpt>
      <trkpt lat="45.03338" lon="5.39993">
        <ele>1168</ele>
        <time>2019-06-15T09:56:23.036Z</time>
      </trkpt>
      <trkpt lat="45.03338" lon="5.39994">
        <ele>1168</ele>
        <time>2019-06-15T09:56:24.036Z</time>
      </trkpt>
      <trkpt lat="45.03337" lon="5.39996">
        <ele>1168</ele>
        <time>2019-06-15T09:56:25.036Z</time>
      </trkpt>
      <trkpt lat="45.03336" lon="5.39996">
        <ele>1168</ele>
        <time>2019-06-15T09:56:26.036Z</time>
      </trkpt>
      <trkpt lat="45.03336" lon="5.39997">
        <ele>1168</ele>
        <time>2019-06-15T09:56:27.036Z</time>
      </trkpt>
      <trkpt lat="45.03335" lon="5.39998">
        <ele>1168</ele>
        <time>2019-06-15T09:56:28.036Z</time>
      </trkpt>
      <trkpt lat="45.03335" lon="5.39998">
        <ele>1168</ele>
        <time>2019-06-15T09:56:29.036Z</time>
      </trkpt>
      <trkpt lat="45.03334" lon="5.39998">
        <ele>1168</ele>
        <time>2019-06-15T09:56:30.036Z</time>
      </trkpt>
      <trkpt lat="45.03333" lon="5.39999">
        <ele>1168</ele>
        <time>2019-06-15T09:56:31.036Z</time>
      </trkpt>
      <trkpt lat="45.03333" lon="5.39999">
        <ele>1169</ele>
        <time>2019-06-15T09:56:32.036Z</time>
      </trkpt>
      <trkpt lat="45.03332" lon="5.39999">
        <ele>1170</ele>
        <time>2019-06-15T09:56:33.036Z</time>
      </trkpt>
      <trkpt lat="45.03331" lon="5.39998">
        <ele>1171</ele>
        <time>2019-06-15T09:56:34.036Z</time>
      </trkpt>
      <trkpt lat="45.03331" lon="5.39998">
        <ele>1173</ele>
        <time>2019-06-15T09:56:35.036Z</time>
      </trkpt>
      <trkpt lat="45.0333" lon="5.39999">
        <ele>1174</ele>
        <time>2019-06-15T09:56:36.036Z</time>
      </trkpt>
      <trkpt lat="45.03329" lon="5.39999">
        <ele>1174</ele>
        <time>2019-06-15T09:56:37.036Z</time>
      </trkpt>
      <trkpt lat="45.03329" lon="5.39999">
        <ele>1175</ele>
        <time>2019-06-15T09:56:38.036Z</time>
      </trkpt>
      <trkpt lat="45.03328" lon="5.39999">
        <ele>1175</ele>
        <time>2019-06-15T09:56:39.036Z</time>
      </trkpt>
      <trkpt lat="45.03327" lon="5.4">
        <ele>1175</ele>
        <time>2019-06-15T09:56:40.036Z</time>
      </trkpt>
      <trkpt lat="45.03327" lon="5.4">
        <ele>1174</ele>
        <time>2019-06-15T09:56:41.036Z</time>
      </trkpt>
      <trkpt lat="45.03326" lon="5.40001">
        <ele>1174</ele>
        <time>2019-06-15T09:56:42.036Z</time>
      </trkpt>
      <trkpt lat="45.03326" lon="5.40002">
        <ele>1174</ele>
        <time>2019-06-15T09:56:43.036Z</time>
      </trkpt>
      <trkpt lat="45.03326" lon="5.40002">
        <ele>1174</ele>
        <time>2019-06-15T09:56:44.036Z</time>
      </trkpt>
      <trkpt lat="45.03325" lon="5.40002">
        <ele>1174</ele>
        <time>2019-06-15T09:56:45.036Z</time>
      </trkpt>
      <trkpt lat="45.03325" lon="5.40002">
        <ele>1174</ele>
        <time>2019-06-15T09:56:46.036Z</time>
      </trkpt>
      <trkpt lat="45.03325" lon="5.40002">
        <ele>1175</ele>
        <time>2019-06-15T09:56:47.036Z</time>
      </trkpt>
      <trkpt lat="45.03324" lon="5.40002">
        <ele>1175</ele>
        <time>2019-06-15T09:56:48.036Z</time>
      </trkpt>
      <trkpt lat="45.03326" lon="5.40002">
        <ele>1176</ele>
        <time>2019-06-15T09:56:49.048Z</time>
      </trkpt>
      <trkpt lat="45.03326" lon="5.40003">
        <ele>1176</ele>
        <time>2019-06-15T09:56:50.048Z</time>
      </trkpt>
      <trkpt lat="45.03326" lon="5.40004">
        <ele>1176</ele>
        <time>2019-06-15T09:56:51.048Z</time>
      </trkpt>
      <trkpt lat="45.03326" lon="5.40004">
        <ele>1176</ele>
        <time>2019-06-15T09:56:52.048Z</time>
      </trkpt>
      <trkpt lat="45.03327" lon="5.40004">
        <ele>1176</ele>
        <time>2019-06-15T09:56:53.048Z</time>
      </trkpt>
      <trkpt lat="45.03326" lon="5.40004">
        <ele>1176</ele>
        <time>2019-06-15T09:56:54.048Z</time>
      </trkpt>
      <trkpt lat="45.03326" lon="5.40004">
        <ele>1176</ele>
        <time>2019-06-15T09:56:55.048Z</time>
      </trkpt>
      <trkpt lat="45.03326" lon="5.40004">
        <ele>1176</ele>
        <time>2019-06-15T09:56:56.048Z</time>
      </trkpt>
      <trkpt lat="45.03326" lon="5.40004">
        <ele>1176</ele>
        <time>2019-06-15T09:56:57.048Z</time>
      </trkpt>
      <trkpt lat="45.03327" lon="5.40004">
        <ele>1176</ele>
        <time>2019-06-15T09:56:58.048Z</time>
      </trkpt>
      <trkpt lat="45.03323" lon="5.40001">
        <ele>1178</ele>
        <time>2019-06-15T09:56:59.060Z</time>
      </trkpt>
      <trkpt lat="45.03323" lon="5.40001">
        <ele>1178</ele>
        <time>2019-06-15T09:57:00.060Z</time>
      </trkpt>
      <trkpt lat="45.03323" lon="5.4">
        <ele>1178</ele>
        <time>2019-06-15T09:57:01.060Z</time>
      </trkpt>
      <trkpt lat="45.03323" lon="5.4">
        <ele>1178</ele>
        <time>2019-06-15T09:57:02.060Z</time>
      </trkpt>
      <trkpt lat="45.03323" lon="5.4">
        <ele>1179</ele>
        <time>2019-06-15T09:57:03.060Z</time>
      </trkpt>
      <trkpt lat="45.03319" lon="5.40001">
        <ele>1178</ele>
        <time>2019-06-15T09:57:04.072Z</time>
      </trkpt>
      <trkpt lat="45.03319" lon="5.40001">
        <ele>1178</ele>
        <time>2019-06-15T09:57:05.072Z</time>
      </trkpt>
      <trkpt lat="45.03319" lon="5.40001">
        <ele>1178</ele>
        <time>2019-06-15T09:57:06.072Z</time>
      </trkpt>
      <trkpt lat="45.03319" lon="5.40001">
        <ele>1178</ele>
        <time>2019-06-15T09:57:07.072Z</time>
      </trkpt>
      <trkpt lat="45.03319" lon="5.40002">
        <ele>1179</ele>
        <time>2019-06-15T09:57:08.072Z</time>
      </trkpt>
      <trkpt lat="45.03319" lon="5.40001">
        <ele>1179</ele>
        <time>2019-06-15T09:57:09.072Z</time>
      </trkpt>
      <trkpt lat="45.03318" lon="5.40001">
        <ele>1179</ele>
        <time>2019-06-15T09:57:10.072Z</time>
      </trkpt>
      <trkpt lat="45.03315" lon="5.40007">
        <ele>1179</ele>
        <time>2019-06-15T09:57:11.080Z</time>
      </trkpt>
      <trkpt lat="45.03315" lon="5.40008">
        <ele>1179</ele>
        <time>2019-06-15T09:57:12.080Z</time>
      </trkpt>
      <trkpt lat="45.03315" lon="5.40009">
        <ele>1180</ele>
        <time>2019-06-15T09:57:13.080Z</time>
      </trkpt>
      <trkpt lat="45.03316" lon="5.40009">
        <ele>1180</ele>
        <time>2019-06-15T09:57:14.080Z</time>
      </trkpt>
      <trkpt lat="45.03316" lon="5.4001">
        <ele>1180</ele>
        <time>2019-06-15T09:57:15.080Z</time>
      </trkpt>
      <trkpt lat="45.03316" lon="5.40011">
        <ele>1179</ele>
        <time>2019-06-15T09:57:16.080Z</time>
      </trkpt>
      <trkpt lat="45.03317" lon="5.40012">
        <ele>1179</ele>
        <time>2019-06-15T09:57:17.080Z</time>
      </trkpt>
      <trkpt lat="45.03318" lon="5.40013">
        <ele>1178</ele>
        <time>2019-06-15T09:57:18.080Z</time>
      </trkpt>
      <trkpt lat="45.03319" lon="5.40013">
        <ele>1178</ele>
        <time>2019-06-15T09:57:19.080Z</time>
      </trkpt>
      <trkpt lat="45.03319" lon="5.40014">
        <ele>1178</ele>
        <time>2019-06-15T09:57:20.080Z</time>
      </trkpt>
      <trkpt lat="45.0332" lon="5.40014">
        <ele>1178</ele>
        <time>2019-06-15T09:57:21.080Z</time>
      </trkpt>
      <trkpt lat="45.0332" lon="5.40014">
        <ele>1178</ele>
        <time>2019-06-15T09:57:22.080Z</time>
      </trkpt>
      <trkpt lat="45.03321" lon="5.40015">
        <ele>1178</ele>
        <time>2019-06-15T09:57:23.080Z</time>
      </trkpt>
      <trkpt lat="45.03322" lon="5.40015">
        <ele>1177</ele>
        <time>2019-06-15T09:57:24.080Z</time>
      </trkpt>
      <trkpt lat="45.03322" lon="5.40016">
        <ele>1177</ele>
        <time>2019-06-15T09:57:25.080Z</time>
      </trkpt>
      <trkpt lat="45.03323" lon="5.40016">
        <ele>1176</ele>
        <time>2019-06-15T09:57:26.080Z</time>
      </trkpt>
      <trkpt lat="45.03324" lon="5.40017">
        <ele>1175</ele>
        <time>2019-06-15T09:57:27.080Z</time>
      </trkpt>
      <trkpt lat="45.03324" lon="5.40018">
        <ele>1175</ele>
        <time>2019-06-15T09:57:28.080Z</time>
      </trkpt>
      <trkpt lat="45.03324" lon="5.40019">
        <ele>1174</ele>
        <time>2019-06-15T09:57:29.080Z</time>
      </trkpt>
      <trkpt lat="45.03325" lon="5.4002">
        <ele>1174</ele>
        <time>2019-06-15T09:57:30.080Z</time>
      </trkpt>
      <trkpt lat="45.03325" lon="5.40021">
        <ele>1173</ele>
        <time>2019-06-15T09:57:31.080Z</time>
      </trkpt>
      <trkpt lat="45.03325" lon="5.40023">
        <ele>1173</ele>
        <time>2019-06-15T09:57:32.080Z</time>
      </trkpt>
      <trkpt lat="45.03326" lon="5.40024">
        <ele>1172</ele>
        <time>2019-06-15T09:57:33.080Z</time>
      </trkpt>
      <trkpt lat="45.03326" lon="5.40025">
        <ele>1172</ele>
        <time>2019-06-15T09:57:34.080Z</time>
      </trkpt>
      <trkpt lat="45.03327" lon="5.40026">
        <ele>1172</ele>
        <time>2019-06-15T09:57:35.080Z</time>
      </trkpt>
      <trkpt lat="45.03327" lon="5.40027">
        <ele>1172</ele>
        <time>2019-06-15T09:57:36.080Z</time>
      </trkpt>
      <trkpt lat="45.03328" lon="5.40028">
        <ele>1172</ele>
        <time>2019-06-15T09:57:37.080Z</time>
      </trkpt>
      <trkpt lat="45.03328" lon="5.40029">
        <ele>1171</ele>
        <time>2019-06-15T09:57:38.080Z</time>
      </trkpt>
      <trkpt lat="45.03328" lon="5.40031">
        <ele>1171</ele>
        <time>2019-06-15T09:57:39.080Z</time>
      </trkpt>
      <trkpt lat="45.03328" lon="5.40033">
        <ele>1171</ele>
        <time>2019-06-15T09:57:40.080Z</time>
      </trkpt>
      <trkpt lat="45.03328" lon="5.40035">
        <ele>1171</ele>
        <time>2019-06-15T09:57:41.080Z</time>
      </trkpt>
      <trkpt lat="45.03328" lon="5.40037">
        <ele>1170</ele>
        <time>2019-06-15T09:57:42.080Z</time>
      </trkpt>
      <trkpt lat="45.03328" lon="5.40038">
        <ele>1170</ele>
        <time>2019-06-15T09:57:43.080Z</time>
      </trkpt>
      <trkpt lat="45.03328" lon="5.4004">
        <ele>1171</ele>
        <time>2019-06-15T09:57:44.080Z</time>
      </trkpt>
      <trkpt lat="45.03328" lon="5.40041">
        <ele>1171</ele>
        <time>2019-06-15T09:57:45.080Z</time>
      </trkpt>
      <trkpt lat="45.03327" lon="5.40043">
        <ele>1172</ele>
        <time>2019-06-15T09:57:46.080Z</time>
      </trkpt>
      <trkpt lat="45.03327" lon="5.40044">
        <ele>1173</ele>
        <time>2019-06-15T09:57:47.080Z</time>
      </trkpt>
      <trkpt lat="45.03326" lon="5.40046">
        <ele>1173</ele>
        <time>2019-06-15T09:57:48.080Z</time>
      </trkpt>
      <trkpt lat="45.03325" lon="5.40047">
        <ele>1173</ele>
        <time>2019-06-15T09:57:49.080Z</time>
      </trkpt>
      <trkpt lat="45.03324" lon="5.40048">
        <ele>1172</ele>
        <time>2019-06-15T09:57:50.080Z</time>
      </trkpt>
      <trkpt lat="45.03323" lon="5.40049">
        <ele>1173</ele>
        <time>2019-06-15T09:57:51.080Z</time>
      </trkpt>
      <trkpt lat="45.03323" lon="5.4005">
        <ele>1173</ele>
        <time>2019-06-15T09:57:52.080Z</time>
      </trkpt>
      <trkpt lat="45.03321" lon="5.4005">
        <ele>1172</ele>
        <time>2019-06-15T09:57:53.080Z</time>
      </trkpt>
      <trkpt lat="45.0332" lon="5.40051">
        <ele>1173</ele>
        <time>2019-06-15T09:57:54.080Z</time>
      </trkpt>
      <trkpt lat="45.03319" lon="5.40052">
        <ele>1173</ele>
        <time>2019-06-15T09:57:55.080Z</time>
      </trkpt>
      <trkpt lat="45.03318" lon="5.40053">
        <ele>1173</ele>
        <time>2019-06-15T09:57:56.080Z</time>
      </trkpt>
      <trkpt lat="45.03316" lon="5.40054">
        <ele>1174</ele>
        <time>2019-06-15T09:57:57.080Z</time>
      </trkpt>
      <trkpt lat="45.03315" lon="5.40054">
        <ele>1174</ele>
        <time>2019-06-15T09:57:58.080Z</time>
      </trkpt>
      <trkpt lat="45.03314" lon="5.40055">
        <ele>1174</ele>
        <time>2019-06-15T09:57:59.080Z</time>
      </trkpt>
      <trkpt lat="45.03312" lon="5.40055">
        <ele>1174</ele>
        <time>2019-06-15T09:58:00.080Z</time>
      </trkpt>
      <trkpt lat="45.03311" lon="5.40056">
        <ele>1174</ele>
        <time>2019-06-15T09:58:01.080Z</time>
      </trkpt>
      <trkpt lat="45.0331" lon="5.40056">
        <ele>1174</ele>
        <time>2019-06-15T09:58:02.080Z</time>
      </trkpt>
      <trkpt lat="45.03309" lon="5.40057">
        <ele>1174</ele>
        <time>2019-06-15T09:58:03.080Z</time>
      </trkpt>
      <trkpt lat="45.03308" lon="5.40057">
        <ele>1175</ele>
        <time>2019-06-15T09:58:04.080Z</time>
      </trkpt>
      <trkpt lat="45.03307" lon="5.40058">
        <ele>1174</ele>
        <time>2019-06-15T09:58:05.080Z</time>
      </trkpt>
      <trkpt lat="45.03306" lon="5.40058">
        <ele>1174</ele>
        <time>2019-06-15T09:58:06.080Z</time>
      </trkpt>
      <trkpt lat="45.03305" lon="5.40058">
        <ele>1174</ele>
        <time>2019-06-15T09:58:07.080Z</time>
      </trkpt>
      <trkpt lat="45.03304" lon="5.40058">
        <ele>1173</ele>
        <time>2019-06-15T09:58:08.080Z</time>
      </trkpt>
      <trkpt lat="45.03303" lon="5.40058">
        <ele>1173</ele>
        <time>2019-06-15T09:58:09.080Z</time>
      </trkpt>
      <trkpt lat="45.03302" lon="5.40059">
        <ele>1174</ele>
        <time>2019-06-15T09:58:10.080Z</time>
      </trkpt>
      <trkpt lat="45.03301" lon="5.4006">
        <ele>1173</ele>
        <time>2019-06-15T09:58:11.080Z</time>
      </trkpt>
      <trkpt lat="45.033" lon="5.40061">
        <ele>1173</ele>
        <time>2019-06-15T09:58:12.080Z</time>
      </trkpt>
      <trkpt lat="45.03299" lon="5.40062">
        <ele>1173</ele>
        <time>2019-06-15T09:58:13.080Z</time>
      </trkpt>
      <trkpt lat="45.03298" lon="5.40063">
        <ele>1172</ele>
        <time>2019-06-15T09:58:14.080Z</time>
      </trkpt>
      <trkpt lat="45.03296" lon="5.40065">
        <ele>1172</ele>
        <time>2019-06-15T09:58:15.080Z</time>
      </trkpt>
      <trkpt lat="45.03295" lon="5.40066">
        <ele>1171</ele>
        <time>2019-06-15T09:58:16.080Z</time>
      </trkpt>
      <trkpt lat="45.03294" lon="5.40067">
        <ele>1170</ele>
        <time>2019-06-15T09:58:17.080Z</time>
      </trkpt>
      <trkpt lat="45.03292" lon="5.40069">
        <ele>1170</ele>
        <time>2019-06-15T09:58:18.080Z</time>
      </trkpt>
      <trkpt lat="45.03291" lon="5.4007">
        <ele>1170</ele>
        <time>2019-06-15T09:58:19.080Z</time>
      </trkpt>
      <trkpt lat="45.0329" lon="5.40071">
        <ele>1169</ele>
        <time>2019-06-15T09:58:20.080Z</time>
      </trkpt>
      <trkpt lat="45.03288" lon="5.40073">
        <ele>1168</ele>
        <time>2019-06-15T09:58:21.080Z</time>
      </trkpt>
      <trkpt lat="45.03287" lon="5.40074">
        <ele>1167</ele>
        <time>2019-06-15T09:58:22.080Z</time>
      </trkpt>
      <trkpt lat="45.03285" lon="5.40075">
        <ele>1166</ele>
        <time>2019-06-15T09:58:23.080Z</time>
      </trkpt>
      <trkpt lat="45.03283" lon="5.40076">
        <ele>1166</ele>
        <time>2019-06-15T09:58:24.080Z</time>
      </trkpt>
      <trkpt lat="45.03281" lon="5.40078">
        <ele>1166</ele>
        <time>2019-06-15T09:58:25.080Z</time>
      </trkpt>
      <trkpt lat="45.03279" lon="5.40079">
        <ele>1166</ele>
        <time>2019-06-15T09:58:26.080Z</time>
      </trkpt>
      <trkpt lat="45.03277" lon="5.4008">
        <ele>1166</ele>
        <time>2019-06-15T09:58:27.080Z</time>
      </trkpt>
      <trkpt lat="45.03275" lon="5.4008">
        <ele>1166</ele>
        <time>2019-06-15T09:58:28.080Z</time>
      </trkpt>
      <trkpt lat="45.03273" lon="5.40081">
        <ele>1165</ele>
        <time>2019-06-15T09:58:29.080Z</time>
      </trkpt>
      <trkpt lat="45.03271" lon="5.40082">
        <ele>1165</ele>
        <time>2019-06-15T09:58:30.080Z</time>
      </trkpt>
      <trkpt lat="45.03269" lon="5.40082">
        <ele>1165</ele>
        <time>2019-06-15T09:58:31.080Z</time>
      </trkpt>
      <trkpt lat="45.03267" lon="5.40082">
        <ele>1165</ele>
        <time>2019-06-15T09:58:32.080Z</time>
      </trkpt>
      <trkpt lat="45.03265" lon="5.40083">
        <ele>1164</ele>
        <time>2019-06-15T09:58:33.080Z</time>
      </trkpt>
      <trkpt lat="45.03263" lon="5.40083">
        <ele>1164</ele>
        <time>2019-06-15T09:58:34.080Z</time>
      </trkpt>
      <trkpt lat="45.03261" lon="5.40084">
        <ele>1164</ele>
        <time>2019-06-15T09:58:35.080Z</time>
      </trkpt>
      <trkpt lat="45.0326" lon="5.40085">
        <ele>1164</ele>
        <time>2019-06-15T09:58:36.080Z</time>
      </trkpt>
      <trkpt lat="45.03258" lon="5.40086">
        <ele>1164</ele>
        <time>2019-06-15T09:58:37.080Z</time>
      </trkpt>
      <trkpt lat="45.03256" lon="5.40087">
        <ele>1164</ele>
        <time>2019-06-15T09:58:38.080Z</time>
      </trkpt>
      <trkpt lat="45.03254" lon="5.40088">
        <ele>1164</ele>
        <time>2019-06-15T09:58:39.080Z</time>
      </trkpt>
      <trkpt lat="45.03253" lon="5.40089">
        <ele>1163</ele>
        <time>2019-06-15T09:58:40.080Z</time>
      </trkpt>
      <trkpt lat="45.03251" lon="5.40091">
        <ele>1162</ele>
        <time>2019-06-15T09:58:41.080Z</time>
      </trkpt>
      <trkpt lat="45.03249" lon="5.40093">
        <ele>1162</ele>
        <time>2019-06-15T09:58:42.080Z</time>
      </trkpt>
      <trkpt lat="45.03246" lon="5.40095">
        <ele>1161</ele>
        <time>2019-06-15T09:58:43.080Z</time>
      </trkpt>
      <trkpt lat="45.03243" lon="5.40096">
        <ele>1161</ele>
        <time>2019-06-15T09:58:44.080Z</time>
      </trkpt>
      <trkpt lat="45.03241" lon="5.40098">
        <ele>1160</ele>
        <time>2019-06-15T09:58:45.080Z</time>
      </trkpt>
      <trkpt lat="45.03239" lon="5.401">
        <ele>1159</ele>
        <time>2019-06-15T09:58:46.080Z</time>
      </trkpt>
      <trkpt lat="45.03237" lon="5.40101">
        <ele>1158</ele>
        <time>2019-06-15T09:58:47.080Z</time>
      </trkpt>
      <trkpt lat="45.03235" lon="5.40102">
        <ele>1158</ele>
        <time>2019-06-15T09:58:48.080Z</time>
      </trkpt>
      <trkpt lat="45.03233" lon="5.40103">
        <ele>1157</ele>
        <time>2019-06-15T09:58:49.080Z</time>
      </trkpt>
      <trkpt lat="45.03231" lon="5.40104">
        <ele>1156</ele>
        <time>2019-06-15T09:58:50.080Z</time>
      </trkpt>
      <trkpt lat="45.03229" lon="5.40106">
        <ele>1156</ele>
        <time>2019-06-15T09:58:51.080Z</time>
      </trkpt>
      <trkpt lat="45.03226" lon="5.40107">
        <ele>1156</ele>
        <time>2019-06-15T09:58:52.080Z</time>
      </trkpt>
      <trkpt lat="45.03224" lon="5.40108">
        <ele>1156</ele>
        <time>2019-06-15T09:58:53.080Z</time>
      </trkpt>
      <trkpt lat="45.03222" lon="5.40109">
        <ele>1156</ele>
        <time>2019-06-15T09:58:54.080Z</time>
      </trkpt>
      <trkpt lat="45.0322" lon="5.4011">
        <ele>1156</ele>
        <time>2019-06-15T09:58:55.080Z</time>
      </trkpt>
      <trkpt lat="45.03217" lon="5.40112">
        <ele>1156</ele>
        <time>2019-06-15T09:58:56.080Z</time>
      </trkpt>
      <trkpt lat="45.03215" lon="5.40113">
        <ele>1156</ele>
        <time>2019-06-15T09:58:57.080Z</time>
      </trkpt>
      <trkpt lat="45.03213" lon="5.40114">
        <ele>1156</ele>
        <time>2019-06-15T09:58:58.080Z</time>
      </trkpt>
      <trkpt lat="45.0321" lon="5.40115">
        <ele>1156</ele>
        <time>2019-06-15T09:58:59.080Z</time>
      </trkpt>
      <trkpt lat="45.03208" lon="5.40116">
        <ele>1156</ele>
        <time>2019-06-15T09:59:00.080Z</time>
      </trkpt>
      <trkpt lat="45.03206" lon="5.40117">
        <ele>1157</ele>
        <time>2019-06-15T09:59:01.080Z</time>
      </trkpt>
      <trkpt lat="45.03204" lon="5.40118">
        <ele>1156</ele>
        <time>2019-06-15T09:59:02.080Z</time>
      </trkpt>
      <trkpt lat="45.03201" lon="5.40119">
        <ele>1157</ele>
        <time>2019-06-15T09:59:03.080Z</time>
      </trkpt>
      <trkpt lat="45.03199" lon="5.40121">
        <ele>1156</ele>
        <time>2019-06-15T09:59:04.080Z</time>
      </trkpt>
      <trkpt lat="45.03196" lon="5.40122">
        <ele>1156</ele>
        <time>2019-06-15T09:59:05.080Z</time>
      </trkpt>
      <trkpt lat="45.03194" lon="5.40124">
        <ele>1155</ele>
        <time>2019-06-15T09:59:06.080Z</time>
      </trkpt>
      <trkpt lat="45.03191" lon="5.40125">
        <ele>1154</ele>
        <time>2019-06-15T09:59:07.080Z</time>
      </trkpt>
      <trkpt lat="45.03189" lon="5.40127">
        <ele>1154</ele>
        <time>2019-06-15T09:59:08.080Z</time>
      </trkpt>
      <trkpt lat="45.03187" lon="5.40128">
        <ele>1153</ele>
        <time>2019-06-15T09:59:09.080Z</time>
      </trkpt>
      <trkpt lat="45.03184" lon="5.40129">
        <ele>1153</ele>
        <time>2019-06-15T09:59:10.080Z</time>
      </trkpt>
      <trkpt lat="45.03183" lon="5.4013">
        <ele>1152</ele>
        <time>2019-06-15T09:59:11.080Z</time>
      </trkpt>
      <trkpt lat="45.03181" lon="5.40131">
        <ele>1153</ele>
        <time>2019-06-15T09:59:12.080Z</time>
      </trkpt>
      <trkpt lat="45.03179" lon="5.40132">
        <ele>1152</ele>
        <time>2019-06-15T09:59:13.080Z</time>
      </trkpt>
      <trkpt lat="45.03177" lon="5.40132">
        <ele>1152</ele>
        <time>2019-06-15T09:59:14.080Z</time>
      </trkpt>
      <trkpt lat="45.03174" lon="5.40134">
        <ele>1152</ele>
        <time>2019-06-15T09:59:15.080Z</time>
      </trkpt>
      <trkpt lat="45.03172" lon="5.40135">
        <ele>1151</ele>
        <time>2019-06-15T09:59:16.080Z</time>
      </trkpt>
      <trkpt lat="45.03169" lon="5.40136">
        <ele>1151</ele>
        <time>2019-06-15T09:59:17.080Z</time>
      </trkpt>
      <trkpt lat="45.03167" lon="5.40137">
        <ele>1151</ele>
        <time>2019-06-15T09:59:18.080Z</time>
      </trkpt>
      <trkpt lat="45.03165" lon="5.40138">
        <ele>1151</ele>
        <time>2019-06-15T09:59:19.080Z</time>
      </trkpt>
      <trkpt lat="45.03163" lon="5.4014">
        <ele>1150</ele>
        <time>2019-06-15T09:59:20.080Z</time>
      </trkpt>
      <trkpt lat="45.03161" lon="5.40142">
        <ele>1150</ele>
        <time>2019-06-15T09:59:21.080Z</time>
      </trkpt>
      <trkpt lat="45.03159" lon="5.40144">
        <ele>1149</ele>
        <time>2019-06-15T09:59:22.080Z</time>
      </trkpt>
      <trkpt lat="45.03157" lon="5.40147">
        <ele>1148</ele>
        <time>2019-06-15T09:59:23.080Z</time>
      </trkpt>
      <trkpt lat="45.03155" lon="5.40149">
        <ele>1147</ele>
        <time>2019-06-15T09:59:24.080Z</time>
      </trkpt>
      <trkpt lat="45.03154" lon="5.40152">
        <ele>1147</ele>
        <time>2019-06-15T09:59:25.080Z</time>
      </trkpt>
      <trkpt lat="45.03152" lon="5.40154">
        <ele>1145</ele>
        <time>2019-06-15T09:59:26.080Z</time>
      </trkpt>
      <trkpt lat="45.03151" lon="5.40157">
        <ele>1145</ele>
        <time>2019-06-15T09:59:27.080Z</time>
      </trkpt>
      <trkpt lat="45.03149" lon="5.4016">
        <ele>1143</ele>
        <time>2019-06-15T09:59:28.080Z</time>
      </trkpt>
      <trkpt lat="45.03148" lon="5.40163">
        <ele>1143</ele>
        <time>2019-06-15T09:59:29.080Z</time>
      </trkpt>
      <trkpt lat="45.03146" lon="5.40167">
        <ele>1143</ele>
        <time>2019-06-15T09:59:30.080Z</time>
      </trkpt>
      <trkpt lat="45.03144" lon="5.4017">
        <ele>1143</ele>
        <time>2019-06-15T09:59:31.080Z</time>
      </trkpt>
      <trkpt lat="45.03143" lon="5.40173">
        <ele>1143</ele>
        <time>2019-06-15T09:59:32.080Z</time>
      </trkpt>
      <trkpt lat="45.03142" lon="5.40176">
        <ele>1142</ele>
        <time>2019-06-15T09:59:33.080Z</time>
      </trkpt>
      <trkpt lat="45.03141" lon="5.40179">
        <ele>1142</ele>
        <time>2019-06-15T09:59:34.080Z</time>
      </trkpt>
      <trkpt lat="45.0314" lon="5.40183">
        <ele>1142</ele>
        <time>2019-06-15T09:59:35.080Z</time>
      </trkpt>
      <trkpt lat="45.03139" lon="5.40186">
        <ele>1142</ele>
        <time>2019-06-15T09:59:36.080Z</time>
      </trkpt>
      <trkpt lat="45.03138" lon="5.4019">
        <ele>1142</ele>
        <time>2019-06-15T09:59:37.080Z</time>
      </trkpt>
      <trkpt lat="45.03137" lon="5.40194">
        <ele>1141</ele>
        <time>2019-06-15T09:59:38.080Z</time>
      </trkpt>
      <trkpt lat="45.03136" lon="5.40197">
        <ele>1141</ele>
        <time>2019-06-15T09:59:39.080Z</time>
      </trkpt>
      <trkpt lat="45.03136" lon="5.402">
        <ele>1141</ele>
        <time>2019-06-15T09:59:40.080Z</time>
      </trkpt>
      <trkpt lat="45.03136" lon="5.40203">
        <ele>1141</ele>
        <time>2019-06-15T09:59:41.080Z</time>
      </trkpt>
      <trkpt lat="45.03136" lon="5.40206">
        <ele>1141</ele>
        <time>2019-06-15T09:59:42.080Z</time>
      </trkpt>
      <trkpt lat="45.03135" lon="5.40209">
        <ele>1141</ele>
        <time>2019-06-15T09:59:43.080Z</time>
      </trkpt>
      <trkpt lat="45.03136" lon="5.40212">
        <ele>1141</ele>
        <time>2019-06-15T09:59:44.080Z</time>
      </trkpt>
      <trkpt lat="45.03136" lon="5.40215">
        <ele>1140</ele>
        <time>2019-06-15T09:59:45.080Z</time>
      </trkpt>
      <trkpt lat="45.03137" lon="5.40218">
        <ele>1140</ele>
        <time>2019-06-15T09:59:46.080Z</time>
      </trkpt>
      <trkpt lat="45.03138" lon="5.40221">
        <ele>1140</ele>
        <time>2019-06-15T09:59:47.080Z</time>
      </trkpt>
      <trkpt lat="45.03138" lon="5.40223">
        <ele>1140</ele>
        <time>2019-06-15T09:59:48.080Z</time>
      </trkpt>
      <trkpt lat="45.03138" lon="5.40226">
        <ele>1140</ele>
        <time>2019-06-15T09:59:49.080Z</time>
      </trkpt>
      <trkpt lat="45.03138" lon="5.4023">
        <ele>1139</ele>
        <time>2019-06-15T09:59:50.080Z</time>
      </trkpt>
      <trkpt lat="45.03138" lon="5.40233">
        <ele>1139</ele>
        <time>2019-06-15T09:59:51.080Z</time>
      </trkpt>
      <trkpt lat="45.03137" lon="5.40236">
        <ele>1139</ele>
        <time>2019-06-15T09:59:52.080Z</time>
      </trkpt>
      <trkpt lat="45.03136" lon="5.40239">
        <ele>1139</ele>
        <time>2019-06-15T09:59:53.080Z</time>
      </trkpt>
      <trkpt lat="45.03136" lon="5.40242">
        <ele>1139</ele>
        <time>2019-06-15T09:59:54.080Z</time>
      </trkpt>
      <trkpt lat="45.03135" lon="5.40245">
        <ele>1139</ele>
        <time>2019-06-15T09:59:55.080Z</time>
      </trkpt>
      <trkpt lat="45.03134" lon="5.40249">
        <ele>1138</ele>
        <time>2019-06-15T09:59:56.080Z</time>
      </trkpt>
      <trkpt lat="45.03133" lon="5.40252">
        <ele>1138</ele>
        <time>2019-06-15T09:59:57.080Z</time>
      </trkpt>
      <trkpt lat="45.03132" lon="5.40256">
        <ele>1138</ele>
        <time>2019-06-15T09:59:58.080Z</time>
      </trkpt>
      <trkpt lat="45.03131" lon="5.40259">
        <ele>1138</ele>
        <time>2019-06-15T09:59:59.080Z</time>
      </trkpt>
      <trkpt lat="45.0313" lon="5.40262">
        <ele>1137</ele>
        <time>2019-06-15T10:00:00.080Z</time>
      </trkpt>
      <trkpt lat="45.03129" lon="5.40264">
        <ele>1137</ele>
        <time>2019-06-15T10:00:01.080Z</time>
      </trkpt>
      <trkpt lat="45.03127" lon="5.40267">
        <ele>1137</ele>
        <time>2019-06-15T10:00:02.080Z</time>
      </trkpt>
      <trkpt lat="45.03126" lon="5.4027">
        <ele>1137</ele>
        <time>2019-06-15T10:00:03.080Z</time>
      </trkpt>
      <trkpt lat="45.03125" lon="5.40273">
        <ele>1138</ele>
        <time>2019-06-15T10:00:04.080Z</time>
      </trkpt>
      <trkpt lat="45.03124" lon="5.40277">
        <ele>1139</ele>
        <time>2019-06-15T10:00:05.080Z</time>
      </trkpt>
      <trkpt lat="45.03123" lon="5.40282">
        <ele>1139</ele>
        <time>2019-06-15T10:00:06.080Z</time>
      </trkpt>
      <trkpt lat="45.03122" lon="5.40286">
        <ele>1139</ele>
        <time>2019-06-15T10:00:07.080Z</time>
      </trkpt>
      <trkpt lat="45.03121" lon="5.40291">
        <ele>1139</ele>
        <time>2019-06-15T10:00:08.080Z</time>
      </trkpt>
      <trkpt lat="45.0312" lon="5.40294">
        <ele>1140</ele>
        <time>2019-06-15T10:00:09.080Z</time>
      </trkpt>
      <trkpt lat="45.0312" lon="5.40298">
        <ele>1140</ele>
        <time>2019-06-15T10:00:10.080Z</time>
      </trkpt>
      <trkpt lat="45.03119" lon="5.40301">
        <ele>1140</ele>
        <time>2019-06-15T10:00:11.080Z</time>
      </trkpt>
      <trkpt lat="45.03118" lon="5.40305">
        <ele>1140</ele>
        <time>2019-06-15T10:00:12.080Z</time>
      </trkpt>
      <trkpt lat="45.03117" lon="5.40309">
        <ele>1140</ele>
        <time>2019-06-15T10:00:13.080Z</time>
      </trkpt>
      <trkpt lat="45.03116" lon="5.40313">
        <ele>1140</ele>
        <time>2019-06-15T10:00:14.080Z</time>
      </trkpt>
      <trkpt lat="45.03116" lon="5.40317">
        <ele>1140</ele>
        <time>2019-06-15T10:00:15.080Z</time>
      </trkpt>
      <trkpt lat="45.03116" lon="5.40321">
        <ele>1140</ele>
        <time>2019-06-15T10:00:16.080Z</time>
      </trkpt>
      <trkpt lat="45.03116" lon="5.40324">
        <ele>1141</ele>
        <time>2019-06-15T10:00:17.080Z</time>
      </trkpt>
      <trkpt lat="45.03115" lon="5.40328">
        <ele>1141</ele>
        <time>2019-06-15T10:00:18.080Z</time>
      </trkpt>
      <trkpt lat="45.03115" lon="5.40331">
        <ele>1139</ele>
        <time>2019-06-15T10:00:19.080Z</time>
      </trkpt>
      <trkpt lat="45.03115" lon="5.40335">
        <ele>1139</ele>
        <time>2019-06-15T10:00:20.080Z</time>
      </trkpt>
      <trkpt lat="45.03115" lon="5.40339">
        <ele>1139</ele>
        <time>2019-06-15T10:00:21.080Z</time>
      </trkpt>
      <trkpt lat="45.03115" lon="5.40342">
        <ele>1140</ele>
        <time>2019-06-15T10:00:22.080Z</time>
      </trkpt>
      <trkpt lat="45.03114" lon="5.40345">
        <ele>1140</ele>
        <time>2019-06-15T10:00:23.080Z</time>
      </trkpt>
      <trkpt lat="45.03114" lon="5.40348">
        <ele>1140</ele>
        <time>2019-06-15T10:00:24.080Z</time>
      </trkpt>
      <trkpt lat="45.03113" lon="5.40351">
        <ele>1141</ele>
        <time>2019-06-15T10:00:25.080Z</time>
      </trkpt>
      <trkpt lat="45.03113" lon="5.40354">
        <ele>1141</ele>
        <time>2019-06-15T10:00:26.080Z</time>
      </trkpt>
      <trkpt lat="45.03112" lon="5.40357">
        <ele>1140</ele>
        <time>2019-06-15T10:00:27.080Z</time>
      </trkpt>
      <trkpt lat="45.03111" lon="5.4036">
        <ele>1141</ele>
        <time>2019-06-15T10:00:28.080Z</time>
      </trkpt>
      <trkpt lat="45.0311" lon="5.40362">
        <ele>1142</ele>
        <time>2019-06-15T10:00:29.080Z</time>
      </trkpt>
      <trkpt lat="45.0311" lon="5.40365">
        <ele>1142</ele>
        <time>2019-06-15T10:00:30.080Z</time>
      </trkpt>
      <trkpt lat="45.0311" lon="5.40367">
        <ele>1142</ele>
        <time>2019-06-15T10:00:31.080Z</time>
      </trkpt>
      <trkpt lat="45.03109" lon="5.4037">
        <ele>1142</ele>
        <time>2019-06-15T10:00:32.080Z</time>
      </trkpt>
      <trkpt lat="45.03108" lon="5.40372">
        <ele>1142</ele>
        <time>2019-06-15T10:00:33.080Z</time>
      </trkpt>
      <trkpt lat="45.03107" lon="5.40375">
        <ele>1143</ele>
        <time>2019-06-15T10:00:34.080Z</time>
      </trkpt>
      <trkpt lat="45.03106" lon="5.40378">
        <ele>1143</ele>
        <time>2019-06-15T10:00:35.080Z</time>
      </trkpt>
      <trkpt lat="45.03106" lon="5.4038">
        <ele>1144</ele>
        <time>2019-06-15T10:00:36.080Z</time>
      </trkpt>
      <trkpt lat="45.03105" lon="5.40383">
        <ele>1144</ele>
        <time>2019-06-15T10:00:37.080Z</time>
      </trkpt>
      <trkpt lat="45.03105" lon="5.40385">
        <ele>1145</ele>
        <time>2019-06-15T10:00:38.080Z</time>
      </trkpt>
      <trkpt lat="45.03104" lon="5.40387">
        <ele>1145</ele>
        <time>2019-06-15T10:00:39.080Z</time>
      </trkpt>
      <trkpt lat="45.03103" lon="5.4039">
        <ele>1146</ele>
        <time>2019-06-15T10:00:40.080Z</time>
      </trkpt>
      <trkpt lat="45.03103" lon="5.40392">
        <ele>1146</ele>
        <time>2019-06-15T10:00:41.080Z</time>
      </trkpt>
      <trkpt lat="45.03102" lon="5.40394">
        <ele>1147</ele>
        <time>2019-06-15T10:00:42.080Z</time>
      </trkpt>
      <trkpt lat="45.03101" lon="5.40397">
        <ele>1147</ele>
        <time>2019-06-15T10:00:43.080Z</time>
      </trkpt>
      <trkpt lat="45.031" lon="5.40399">
        <ele>1147</ele>
        <time>2019-06-15T10:00:44.080Z</time>
      </trkpt>
      <trkpt lat="45.03098" lon="5.40402">
        <ele>1148</ele>
        <time>2019-06-15T10:00:45.080Z</time>
      </trkpt>
      <trkpt lat="45.03097" lon="5.40405">
        <ele>1148</ele>
        <time>2019-06-15T10:00:46.080Z</time>
      </trkpt>
      <trkpt lat="45.03096" lon="5.40408">
        <ele>1148</ele>
        <time>2019-06-15T10:00:47.080Z</time>
      </trkpt>
      <trkpt lat="45.03094" lon="5.40411">
        <ele>1148</ele>
        <time>2019-06-15T10:00:48.080Z</time>
      </trkpt>
      <trkpt lat="45.03093" lon="5.40414">
        <ele>1149</ele>
        <time>2019-06-15T10:00:49.080Z</time>
      </trkpt>
      <trkpt lat="45.03092" lon="5.40417">
        <ele>1149</ele>
        <time>2019-06-15T10:00:50.080Z</time>
      </trkpt>
      <trkpt lat="45.03092" lon="5.4042">
        <ele>1150</ele>
        <time>2019-06-15T10:00:51.080Z</time>
      </trkpt>
      <trkpt lat="45.03091" lon="5.40422">
        <ele>1150</ele>
        <time>2019-06-15T10:00:52.080Z</time>
      </trkpt>
      <trkpt lat="45.0309" lon="5.40425">
        <ele>1150</ele>
        <time>2019-06-15T10:00:53.080Z</time>
      </trkpt>
      <trkpt lat="45.0309" lon="5.40427">
        <ele>1149</ele>
        <time>2019-06-15T10:00:54.080Z</time>
      </trkpt>
      <trkpt lat="45.0309" lon="5.4043">
        <ele>1150</ele>
        <time>2019-06-15T10:00:55.080Z</time>
      </trkpt>
      <trkpt lat="45.03089" lon="5.40434">
        <ele>1149</ele>
        <time>2019-06-15T10:00:56.080Z</time>
      </trkpt>
      <trkpt lat="45.03089" lon="5.40437">
        <ele>1149</ele>
        <time>2019-06-15T10:00:57.080Z</time>
      </trkpt>
      <trkpt lat="45.03089" lon="5.40441">
        <ele>1150</ele>
        <time>2019-06-15T10:00:58.080Z</time>
      </trkpt>
      <trkpt lat="45.03088" lon="5.40443">
        <ele>1150</ele>
        <time>2019-06-15T10:00:59.080Z</time>
      </trkpt>
      <trkpt lat="45.03088" lon="5.40446">
        <ele>1150</ele>
        <time>2019-06-15T10:01:00.080Z</time>
      </trkpt>
      <trkpt lat="45.03087" lon="5.40449">
        <ele>1151</ele>
        <time>2019-06-15T10:01:01.080Z</time>
      </trkpt>
      <trkpt lat="45.03087" lon="5.40453">
        <ele>1152</ele>
        <time>2019-06-15T10:01:02.080Z</time>
      </trkpt>
      <trkpt lat="45.03087" lon="5.40456">
        <ele>1152</ele>
        <time>2019-06-15T10:01:03.080Z</time>
      </trkpt>
      <trkpt lat="45.03086" lon="5.40458">
        <ele>1153</ele>
        <time>2019-06-15T10:01:04.080Z</time>
      </trkpt>
      <trkpt lat="45.03086" lon="5.40461">
        <ele>1154</ele>
        <time>2019-06-15T10:01:05.080Z</time>
      </trkpt>
      <trkpt lat="45.03085" lon="5.40463">
        <ele>1154</ele>
        <time>2019-06-15T10:01:06.080Z</time>
      </trkpt>
      <trkpt lat="45.03085" lon="5.40465">
        <ele>1154</ele>
        <time>2019-06-15T10:01:07.080Z</time>
      </trkpt>
      <trkpt lat="45.03084" lon="5.40467">
        <ele>1154</ele>
        <time>2019-06-15T10:01:08.080Z</time>
      </trkpt>
      <trkpt lat="45.03084" lon="5.40469">
        <ele>1155</ele>
        <time>2019-06-15T10:01:09.080Z</time>
      </trkpt>
      <trkpt lat="45.03083" lon="5.40472">
        <ele>1155</ele>
        <time>2019-06-15T10:01:10.080Z</time>
      </trkpt>
      <trkpt lat="45.03083" lon="5.40474">
        <ele>1155</ele>
        <time>2019-06-15T10:01:11.080Z</time>
      </trkpt>
      <trkpt lat="45.03082" lon="5.40477">
        <ele>1155</ele>
        <time>2019-06-15T10:01:12.080Z</time>
      </trkpt>
      <trkpt lat="45.03081" lon="5.40479">
        <ele>1155</ele>
        <time>2019-06-15T10:01:13.080Z</time>
      </trkpt>
      <trkpt lat="45.0308" lon="5.40482">
        <ele>1155</ele>
        <time>2019-06-15T10:01:14.080Z</time>
      </trkpt>
      <trkpt lat="45.0308" lon="5.40484">
        <ele>1155</ele>
        <time>2019-06-15T10:01:15.080Z</time>
      </trkpt>
      <trkpt lat="45.03079" lon="5.40487">
        <ele>1155</ele>
        <time>2019-06-15T10:01:16.080Z</time>
      </trkpt>
      <trkpt lat="45.03078" lon="5.40489">
        <ele>1155</ele>
        <time>2019-06-15T10:01:17.080Z</time>
      </trkpt>
      <trkpt lat="45.03077" lon="5.40492">
        <ele>1156</ele>
        <time>2019-06-15T10:01:18.080Z</time>
      </trkpt>
      <trkpt lat="45.03077" lon="5.40493">
        <ele>1157</ele>
        <time>2019-06-15T10:01:19.080Z</time>
      </trkpt>
      <trkpt lat="45.03077" lon="5.40495">
        <ele>1157</ele>
        <time>2019-06-15T10:01:20.080Z</time>
      </trkpt>
      <trkpt lat="45.03077" lon="5.40497">
        <ele>1157</ele>
        <time>2019-06-15T10:01:21.080Z</time>
      </trkpt>
      <trkpt lat="45.03077" lon="5.40499">
        <ele>1158</ele>
        <time>2019-06-15T10:01:22.080Z</time>
      </trkpt>
      <trkpt lat="45.03076" lon="5.40501">
        <ele>1158</ele>
        <time>2019-06-15T10:01:23.080Z</time>
      </trkpt>
      <trkpt lat="45.03075" lon="5.40503">
        <ele>1158</ele>
        <time>2019-06-15T10:01:24.080Z</time>
      </trkpt>
      <trkpt lat="45.03075" lon="5.40506">
        <ele>1158</ele>
        <time>2019-06-15T10:01:25.080Z</time>
      </trkpt>
      <trkpt lat="45.03075" lon="5.40508">
        <ele>1158</ele>
        <time>2019-06-15T10:01:26.080Z</time>
      </trkpt>
      <trkpt lat="45.03075" lon="5.4051">
        <ele>1158</ele>
        <time>2019-06-15T10:01:27.080Z</time>
      </trkpt>
      <trkpt lat="45.03074" lon="5.40512">
        <ele>1158</ele>
        <time>2019-06-15T10:01:28.080Z</time>
      </trkpt>
      <trkpt lat="45.03073" lon="5.40515">
        <ele>1158</ele>
        <time>2019-06-15T10:01:29.080Z</time>
      </trkpt>
      <trkpt lat="45.03072" lon="5.40519">
        <ele>1158</ele>
        <time>2019-06-15T10:01:30.080Z</time>
      </trkpt>
      <trkpt lat="45.03071" lon="5.40522">
        <ele>1158</ele>
        <time>2019-06-15T10:01:31.080Z</time>
      </trkpt>
      <trkpt lat="45.0307" lon="5.40526">
        <ele>1158</ele>
        <time>2019-06-15T10:01:32.080Z</time>
      </trkpt>
      <trkpt lat="45.03068" lon="5.40529">
        <ele>1158</ele>
        <time>2019-06-15T10:01:33.080Z</time>
      </trkpt>
      <trkpt lat="45.03067" lon="5.40532">
        <ele>1158</ele>
        <time>2019-06-15T10:01:34.080Z</time>
      </trkpt>
      <trkpt lat="45.03066" lon="5.40534">
        <ele>1157</ele>
        <time>2019-06-15T10:01:35.080Z</time>
      </trkpt>
      <trkpt lat="45.03064" lon="5.40536">
        <ele>1157</ele>
        <time>2019-06-15T10:01:36.080Z</time>
      </trkpt>
      <trkpt lat="45.03062" lon="5.40539">
        <ele>1157</ele>
        <time>2019-06-15T10:01:37.080Z</time>
      </trkpt>
      <trkpt lat="45.03061" lon="5.40542">
        <ele>1158</ele>
        <time>2019-06-15T10:01:38.080Z</time>
      </trkpt>
      <trkpt lat="45.0306" lon="5.40544">
        <ele>1158</ele>
        <time>2019-06-15T10:01:39.080Z</time>
      </trkpt>
      <trkpt lat="45.03058" lon="5.40546">
        <ele>1158</ele>
        <time>2019-06-15T10:01:40.080Z</time>
      </trkpt>
      <trkpt lat="45.03057" lon="5.40548">
        <ele>1157</ele>
        <time>2019-06-15T10:01:41.080Z</time>
      </trkpt>
      <trkpt lat="45.03055" lon="5.4055">
        <ele>1158</ele>
        <time>2019-06-15T10:01:42.080Z</time>
      </trkpt>
      <trkpt lat="45.03053" lon="5.40552">
        <ele>1157</ele>
        <time>2019-06-15T10:01:43.080Z</time>
      </trkpt>
      <trkpt lat="45.03051" lon="5.40554">
        <ele>1157</ele>
        <time>2019-06-15T10:01:44.080Z</time>
      </trkpt>
      <trkpt lat="45.03049" lon="5.40556">
        <ele>1156</ele>
        <time>2019-06-15T10:01:45.080Z</time>
      </trkpt>
      <trkpt lat="45.03048" lon="5.40558">
        <ele>1157</ele>
        <time>2019-06-15T10:01:46.080Z</time>
      </trkpt>
      <trkpt lat="45.03046" lon="5.4056">
        <ele>1156</ele>
        <time>2019-06-15T10:01:47.080Z</time>
      </trkpt>
      <trkpt lat="45.03045" lon="5.40563">
        <ele>1156</ele>
        <time>2019-06-15T10:01:48.080Z</time>
      </trkpt>
      <trkpt lat="45.03043" lon="5.40566">
        <ele>1156</ele>
        <time>2019-06-15T10:01:49.080Z</time>
      </trkpt>
      <trkpt lat="45.03042" lon="5.40569">
        <ele>1156</ele>
        <time>2019-06-15T10:01:50.080Z</time>
      </trkpt>
      <trkpt lat="45.03041" lon="5.40573">
        <ele>1155</ele>
        <time>2019-06-15T10:01:51.080Z</time>
      </trkpt>
      <trkpt lat="45.0304" lon="5.40577">
        <ele>1154</ele>
        <time>2019-06-15T10:01:52.080Z</time>
      </trkpt>
      <trkpt lat="45.03039" lon="5.40581">
        <ele>1155</ele>
        <time>2019-06-15T10:01:53.080Z</time>
      </trkpt>
      <trkpt lat="45.03037" lon="5.40585">
        <ele>1155</ele>
        <time>2019-06-15T10:01:54.080Z</time>
      </trkpt>
      <trkpt lat="45.03036" lon="5.40589">
        <ele>1154</ele>
        <time>2019-06-15T10:01:55.080Z</time>
      </trkpt>
      <trkpt lat="45.03035" lon="5.40593">
        <ele>1154</ele>
        <time>2019-06-15T10:01:56.080Z</time>
      </trkpt>
      <trkpt lat="45.03034" lon="5.40596">
        <ele>1154</ele>
        <time>2019-06-15T10:01:57.080Z</time>
      </trkpt>
      <trkpt lat="45.03033" lon="5.40599">
        <ele>1154</ele>
        <time>2019-06-15T10:01:58.080Z</time>
      </trkpt>
      <trkpt lat="45.03032" lon="5.40602">
        <ele>1154</ele>
        <time>2019-06-15T10:01:59.080Z</time>
      </trkpt>
      <trkpt lat="45.03031" lon="5.40605">
        <ele>1154</ele>
        <time>2019-06-15T10:02:00.080Z</time>
      </trkpt>
      <trkpt lat="45.0303" lon="5.40608">
        <ele>1153</ele>
        <time>2019-06-15T10:02:01.080Z</time>
      </trkpt>
      <trkpt lat="45.03029" lon="5.40611">
        <ele>1153</ele>
        <time>2019-06-15T10:02:02.080Z</time>
      </trkpt>
      <trkpt lat="45.03028" lon="5.40614">
        <ele>1153</ele>
        <time>2019-06-15T10:02:03.080Z</time>
      </trkpt>
      <trkpt lat="45.03027" lon="5.40617">
        <ele>1152</ele>
        <time>2019-06-15T10:02:04.080Z</time>
      </trkpt>
      <trkpt lat="45.03025" lon="5.4062">
        <ele>1154</ele>
        <time>2019-06-15T10:02:05.080Z</time>
      </trkpt>
      <trkpt lat="45.03024" lon="5.40624">
        <ele>1154</ele>
        <time>2019-06-15T10:02:06.080Z</time>
      </trkpt>
      <trkpt lat="45.03023" lon="5.40628">
        <ele>1154</ele>
        <time>2019-06-15T10:02:07.080Z</time>
      </trkpt>
      <trkpt lat="45.03022" lon="5.40632">
        <ele>1153</ele>
        <time>2019-06-15T10:02:08.080Z</time>
      </trkpt>
      <trkpt lat="45.03021" lon="5.40635">
        <ele>1153</ele>
        <time>2019-06-15T10:02:09.080Z</time>
      </trkpt>
      <trkpt lat="45.0302" lon="5.40639">
        <ele>1154</ele>
        <time>2019-06-15T10:02:10.080Z</time>
      </trkpt>
      <trkpt lat="45.03019" lon="5.40642">
        <ele>1154</ele>
        <time>2019-06-15T10:02:11.080Z</time>
      </trkpt>
      <trkpt lat="45.03018" lon="5.40646">
        <ele>1154</ele>
        <time>2019-06-15T10:02:12.080Z</time>
      </trkpt>
      <trkpt lat="45.03016" lon="5.40649">
        <ele>1154</ele>
        <time>2019-06-15T10:02:13.080Z</time>
      </trkpt>
      <trkpt lat="45.03015" lon="5.40652">
        <ele>1154</ele>
        <time>2019-06-15T10:02:14.080Z</time>
      </trkpt>
      <trkpt lat="45.03014" lon="5.40656">
        <ele>1154</ele>
        <time>2019-06-15T10:02:15.080Z</time>
      </trkpt>
      <trkpt lat="45.03013" lon="5.40659">
        <ele>1154</ele>
        <time>2019-06-15T10:02:16.080Z</time>
      </trkpt>
      <trkpt lat="45.03012" lon="5.40662">
        <ele>1154</ele>
        <time>2019-06-15T10:02:17.080Z</time>
      </trkpt>
      <trkpt lat="45.03011" lon="5.40666">
        <ele>1154</ele>
        <time>2019-06-15T10:02:18.080Z</time>
      </trkpt>
      <trkpt lat="45.0301" lon="5.40669">
        <ele>1154</ele>
        <time>2019-06-15T10:02:19.080Z</time>
      </trkpt>
      <trkpt lat="45.03009" lon="5.40673">
        <ele>1153</ele>
        <time>2019-06-15T10:02:20.080Z</time>
      </trkpt>
      <trkpt lat="45.03009" lon="5.40676">
        <ele>1153</ele>
        <time>2019-06-15T10:02:21.080Z</time>
      </trkpt>
      <trkpt lat="45.03009" lon="5.4068">
        <ele>1152</ele>
        <time>2019-06-15T10:02:22.080Z</time>
      </trkpt>
      <trkpt lat="45.0301" lon="5.40684">
        <ele>1151</ele>
        <time>2019-06-15T10:02:23.080Z</time>
      </trkpt>
      <trkpt lat="45.0301" lon="5.40687">
        <ele>1151</ele>
        <time>2019-06-15T10:02:24.080Z</time>
      </trkpt>
      <trkpt lat="45.03011" lon="5.40691">
        <ele>1150</ele>
        <time>2019-06-15T10:02:25.080Z</time>
      </trkpt>
      <trkpt lat="45.03011" lon="5.40694">
        <ele>1150</ele>
        <time>2019-06-15T10:02:26.080Z</time>
      </trkpt>
      <trkpt lat="45.03012" lon="5.40697">
        <ele>1149</ele>
        <time>2019-06-15T10:02:27.080Z</time>
      </trkpt>
      <trkpt lat="45.03013" lon="5.407">
        <ele>1149</ele>
        <time>2019-06-15T10:02:28.080Z</time>
      </trkpt>
      <trkpt lat="45.03013" lon="5.40703">
        <ele>1148</ele>
        <time>2019-06-15T10:02:29.080Z</time>
      </trkpt>
      <trkpt lat="45.03013" lon="5.40706">
        <ele>1147</ele>
        <time>2019-06-15T10:02:30.080Z</time>
      </trkpt>
      <trkpt lat="45.03014" lon="5.40709">
        <ele>1147</ele>
        <time>2019-06-15T10:02:31.080Z</time>
      </trkpt>
      <trkpt lat="45.03014" lon="5.40713">
        <ele>1146</ele>
        <time>2019-06-15T10:02:32.080Z</time>
      </trkpt>
      <trkpt lat="45.03014" lon="5.40716">
        <ele>1146</ele>
        <time>2019-06-15T10:02:33.080Z</time>
      </trkpt>
      <trkpt lat="45.03014" lon="5.40719">
        <ele>1145</ele>
        <time>2019-06-15T10:02:34.080Z</time>
      </trkpt>
      <trkpt lat="45.03014" lon="5.40723">
        <ele>1145</ele>
        <time>2019-06-15T10:02:35.080Z</time>
      </trkpt>
      <trkpt lat="45.03014" lon="5.40727">
        <ele>1145</ele>
        <time>2019-06-15T10:02:36.080Z</time>
      </trkpt>
      <trkpt lat="45.03014" lon="5.4073">
        <ele>1145</ele>
        <time>2019-06-15T10:02:37.080Z</time>
      </trkpt>
      <trkpt lat="45.03014" lon="5.40734">
        <ele>1145</ele>
        <time>2019-06-15T10:02:38.080Z</time>
      </trkpt>
      <trkpt lat="45.03014" lon="5.40737">
        <ele>1145</ele>
        <time>2019-06-15T10:02:39.080Z</time>
      </trkpt>
      <trkpt lat="45.03014" lon="5.40741">
        <ele>1144</ele>
        <time>2019-06-15T10:02:40.080Z</time>
      </trkpt>
      <trkpt lat="45.03014" lon="5.40744">
        <ele>1144</ele>
        <time>2019-06-15T10:02:41.080Z</time>
      </trkpt>
      <trkpt lat="45.03014" lon="5.40747">
        <ele>1143</ele>
        <time>2019-06-15T10:02:42.080Z</time>
      </trkpt>
      <trkpt lat="45.03014" lon="5.4075">
        <ele>1143</ele>
        <time>2019-06-15T10:02:43.080Z</time>
      </trkpt>
      <trkpt lat="45.03014" lon="5.40753">
        <ele>1143</ele>
        <time>2019-06-15T10:02:44.080Z</time>
      </trkpt>
      <trkpt lat="45.03015" lon="5.40756">
        <ele>1143</ele>
        <time>2019-06-15T10:02:45.080Z</time>
      </trkpt>
      <trkpt lat="45.03015" lon="5.40758">
        <ele>1143</ele>
        <time>2019-06-15T10:02:46.080Z</time>
      </trkpt>
      <trkpt lat="45.03015" lon="5.40761">
        <ele>1143</ele>
        <time>2019-06-15T10:02:47.080Z</time>
      </trkpt>
      <trkpt lat="45.03015" lon="5.40763">
        <ele>1144</ele>
        <time>2019-06-15T10:02:48.080Z</time>
      </trkpt>
      <trkpt lat="45.03015" lon="5.40766">
        <ele>1144</ele>
        <time>2019-06-15T10:02:49.080Z</time>
      </trkpt>
      <trkpt lat="45.03016" lon="5.40768">
        <ele>1143</ele>
        <time>2019-06-15T10:02:50.080Z</time>
      </trkpt>
      <trkpt lat="45.03016" lon="5.40771">
        <ele>1143</ele>
        <time>2019-06-15T10:02:51.080Z</time>
      </trkpt>
      <trkpt lat="45.03016" lon="5.40773">
        <ele>1143</ele>
        <time>2019-06-15T10:02:52.080Z</time>
      </trkpt>
      <trkpt lat="45.03016" lon="5.40776">
        <ele>1142</ele>
        <time>2019-06-15T10:02:53.080Z</time>
      </trkpt>
      <trkpt lat="45.03015" lon="5.40777">
        <ele>1142</ele>
        <time>2019-06-15T10:02:54.080Z</time>
      </trkpt>
      <trkpt lat="45.03014" lon="5.40778">
        <ele>1142</ele>
        <time>2019-06-15T10:02:55.080Z</time>
      </trkpt>
      <trkpt lat="45.03014" lon="5.40779">
        <ele>1142</ele>
        <time>2019-06-15T10:02:56.080Z</time>
      </trkpt>
      <trkpt lat="45.03013" lon="5.40781">
        <ele>1142</ele>
        <time>2019-06-15T10:02:57.080Z</time>
      </trkpt>
      <trkpt lat="45.03013" lon="5.40782">
        <ele>1142</ele>
        <time>2019-06-15T10:02:58.080Z</time>
      </trkpt>
      <trkpt lat="45.03012" lon="5.40784">
        <ele>1142</ele>
        <time>2019-06-15T10:02:59.080Z</time>
      </trkpt>
      <trkpt lat="45.03011" lon="5.40786">
        <ele>1142</ele>
        <time>2019-06-15T10:03:00.080Z</time>
      </trkpt>
      <trkpt lat="45.0301" lon="5.40787">
        <ele>1142</ele>
        <time>2019-06-15T10:03:01.080Z</time>
      </trkpt>
      <trkpt lat="45.03009" lon="5.40789">
        <ele>1141</ele>
        <time>2019-06-15T10:03:02.080Z</time>
      </trkpt>
      <trkpt lat="45.03008" lon="5.40791">
        <ele>1140</ele>
        <time>2019-06-15T10:03:03.080Z</time>
      </trkpt>
      <trkpt lat="45.03007" lon="5.40792">
        <ele>1140</ele>
        <time>2019-06-15T10:03:04.080Z</time>
      </trkpt>
      <trkpt lat="45.03005" lon="5.40793">
        <ele>1139</ele>
        <time>2019-06-15T10:03:05.080Z</time>
      </trkpt>
      <trkpt lat="45.03004" lon="5.40793">
        <ele>1139</ele>
        <time>2019-06-15T10:03:06.080Z</time>
      </trkpt>
      <trkpt lat="45.03003" lon="5.40795">
        <ele>1139</ele>
        <time>2019-06-15T10:03:07.080Z</time>
      </trkpt>
      <trkpt lat="45.03001" lon="5.40796">
        <ele>1140</ele>
        <time>2019-06-15T10:03:08.080Z</time>
      </trkpt>
      <trkpt lat="45.02999" lon="5.40796">
        <ele>1141</ele>
        <time>2019-06-15T10:03:09.080Z</time>
      </trkpt>
      <trkpt lat="45.02997" lon="5.40797">
        <ele>1140</ele>
        <time>2019-06-15T10:03:10.080Z</time>
      </trkpt>
      <trkpt lat="45.02995" lon="5.40798">
        <ele>1140</ele>
        <time>2019-06-15T10:03:11.080Z</time>
      </trkpt>
      <trkpt lat="45.02992" lon="5.40799">
        <ele>1141</ele>
        <time>2019-06-15T10:03:12.080Z</time>
      </trkpt>
      <trkpt lat="45.02989" lon="5.40801">
        <ele>1140</ele>
        <time>2019-06-15T10:03:13.080Z</time>
      </trkpt>
      <trkpt lat="45.02987" lon="5.40803">
        <ele>1138</ele>
        <time>2019-06-15T10:03:14.080Z</time>
      </trkpt>
      <trkpt lat="45.02986" lon="5.40805">
        <ele>1139</ele>
        <time>2019-06-15T10:03:15.080Z</time>
      </trkpt>
      <trkpt lat="45.02984" lon="5.40807">
        <ele>1139</ele>
        <time>2019-06-15T10:03:16.080Z</time>
      </trkpt>
      <trkpt lat="45.02982" lon="5.40808">
        <ele>1138</ele>
        <time>2019-06-15T10:03:17.080Z</time>
      </trkpt>
      <trkpt lat="45.0298" lon="5.4081">
        <ele>1138</ele>
        <time>2019-06-15T10:03:18.080Z</time>
      </trkpt>
      <trkpt lat="45.02978" lon="5.40811">
        <ele>1139</ele>
        <time>2019-06-15T10:03:19.080Z</time>
      </trkpt>
      <trkpt lat="45.02975" lon="5.40813">
        <ele>1141</ele>
        <time>2019-06-15T10:03:20.080Z</time>
      </trkpt>
      <trkpt lat="45.02972" lon="5.40814">
        <ele>1143</ele>
        <time>2019-06-15T10:03:21.080Z</time>
      </trkpt>
      <trkpt lat="45.02969" lon="5.40815">
        <ele>1144</ele>
        <time>2019-06-15T10:03:22.080Z</time>
      </trkpt>
      <trkpt lat="45.02966" lon="5.40816">
        <ele>1146</ele>
        <time>2019-06-15T10:03:23.080Z</time>
      </trkpt>
      <trkpt lat="45.02964" lon="5.40817">
        <ele>1148</ele>
        <time>2019-06-15T10:03:24.080Z</time>
      </trkpt>
      <trkpt lat="45.02961" lon="5.40818">
        <ele>1149</ele>
        <time>2019-06-15T10:03:25.080Z</time>
      </trkpt>
      <trkpt lat="45.02958" lon="5.40819">
        <ele>1151</ele>
        <time>2019-06-15T10:03:26.080Z</time>
      </trkpt>
      <trkpt lat="45.02956" lon="5.40819">
        <ele>1152</ele>
        <time>2019-06-15T10:03:27.080Z</time>
      </trkpt>
      <trkpt lat="45.02955" lon="5.4082">
        <ele>1153</ele>
        <time>2019-06-15T10:03:28.080Z</time>
      </trkpt>
      <trkpt lat="45.02953" lon="5.4082">
        <ele>1155</ele>
        <time>2019-06-15T10:03:29.080Z</time>
      </trkpt>
      <trkpt lat="45.02952" lon="5.40821">
        <ele>1155</ele>
        <time>2019-06-15T10:03:30.080Z</time>
      </trkpt>
      <trkpt lat="45.0295" lon="5.40821">
        <ele>1156</ele>
        <time>2019-06-15T10:03:31.080Z</time>
      </trkpt>
      <trkpt lat="45.02948" lon="5.40821">
        <ele>1156</ele>
        <time>2019-06-15T10:03:32.080Z</time>
      </trkpt>
      <trkpt lat="45.02945" lon="5.40821">
        <ele>1156</ele>
        <time>2019-06-15T10:03:33.080Z</time>
      </trkpt>
      <trkpt lat="45.02943" lon="5.40821">
        <ele>1157</ele>
        <time>2019-06-15T10:03:34.080Z</time>
      </trkpt>
      <trkpt lat="45.02941" lon="5.40821">
        <ele>1156</ele>
        <time>2019-06-15T10:03:35.080Z</time>
      </trkpt>
      <trkpt lat="45.02939" lon="5.4082">
        <ele>1156</ele>
        <time>2019-06-15T10:03:36.080Z</time>
      </trkpt>
      <trkpt lat="45.02937" lon="5.4082">
        <ele>1156</ele>
        <time>2019-06-15T10:03:37.080Z</time>
      </trkpt>
      <trkpt lat="45.02934" lon="5.40819">
        <ele>1155</ele>
        <time>2019-06-15T10:03:38.080Z</time>
      </trkpt>
      <trkpt lat="45.02932" lon="5.40819">
        <ele>1155</ele>
        <time>2019-06-15T10:03:39.080Z</time>
      </trkpt>
      <trkpt lat="45.02928" lon="5.40818">
        <ele>1155</ele>
        <time>2019-06-15T10:03:40.080Z</time>
      </trkpt>
      <trkpt lat="45.02925" lon="5.40818">
        <ele>1154</ele>
        <time>2019-06-15T10:03:41.080Z</time>
      </trkpt>
      <trkpt lat="45.02922" lon="5.40817">
        <ele>1154</ele>
        <time>2019-06-15T10:03:42.080Z</time>
      </trkpt>
      <trkpt lat="45.0292" lon="5.40816">
        <ele>1154</ele>
        <time>2019-06-15T10:03:43.080Z</time>
      </trkpt>
      <trkpt lat="45.02918" lon="5.40815">
        <ele>1154</ele>
        <time>2019-06-15T10:03:44.080Z</time>
      </trkpt>
      <trkpt lat="45.02915" lon="5.40814">
        <ele>1152</ele>
        <time>2019-06-15T10:03:45.080Z</time>
      </trkpt>
      <trkpt lat="45.02913" lon="5.40813">
        <ele>1151</ele>
        <time>2019-06-15T10:03:46.080Z</time>
      </trkpt>
      <trkpt lat="45.02911" lon="5.40811">
        <ele>1151</ele>
        <time>2019-06-15T10:03:47.080Z</time>
      </trkpt>
      <trkpt lat="45.02909" lon="5.4081">
        <ele>1150</ele>
        <time>2019-06-15T10:03:48.080Z</time>
      </trkpt>
      <trkpt lat="45.02906" lon="5.40809">
        <ele>1150</ele>
        <time>2019-06-15T10:03:49.080Z</time>
      </trkpt>
      <trkpt lat="45.02903" lon="5.40808">
        <ele>1150</ele>
        <time>2019-06-15T10:03:50.080Z</time>
      </trkpt>
      <trkpt lat="45.02901" lon="5.40808">
        <ele>1150</ele>
        <time>2019-06-15T10:03:51.080Z</time>
      </trkpt>
      <trkpt lat="45.02897" lon="5.40807">
        <ele>1150</ele>
        <time>2019-06-15T10:03:52.080Z</time>
      </trkpt>
      <trkpt lat="45.02894" lon="5.40807">
        <ele>1150</ele>
        <time>2019-06-15T10:03:53.080Z</time>
      </trkpt>
      <trkpt lat="45.02891" lon="5.40807">
        <ele>1150</ele>
        <time>2019-06-15T10:03:54.080Z</time>
      </trkpt>
      <trkpt lat="45.02888" lon="5.40807">
        <ele>1149</ele>
        <time>2019-06-15T10:03:55.080Z</time>
      </trkpt>
      <trkpt lat="45.02886" lon="5.40806">
        <ele>1148</ele>
        <time>2019-06-15T10:03:56.080Z</time>
      </trkpt>
      <trkpt lat="45.02884" lon="5.40806">
        <ele>1148</ele>
        <time>2019-06-15T10:03:57.080Z</time>
      </trkpt>
      <trkpt lat="45.02881" lon="5.40805">
        <ele>1149</ele>
        <time>2019-06-15T10:03:58.080Z</time>
      </trkpt>
      <trkpt lat="45.02878" lon="5.40803">
        <ele>1150</ele>
        <time>2019-06-15T10:03:59.080Z</time>
      </trkpt>
      <trkpt lat="45.02874" lon="5.40801">
        <ele>1151</ele>
        <time>2019-06-15T10:04:00.080Z</time>
      </trkpt>
      <trkpt lat="45.02871" lon="5.408">
        <ele>1151</ele>
        <time>2019-06-15T10:04:01.080Z</time>
      </trkpt>
      <trkpt lat="45.02868" lon="5.40799">
        <ele>1151</ele>
        <time>2019-06-15T10:04:02.080Z</time>
      </trkpt>
      <trkpt lat="45.02866" lon="5.40798">
        <ele>1151</ele>
        <time>2019-06-15T10:04:03.080Z</time>
      </trkpt>
      <trkpt lat="45.02863" lon="5.40797">
        <ele>1151</ele>
        <time>2019-06-15T10:04:04.080Z</time>
      </trkpt>
      <trkpt lat="45.0286" lon="5.40797">
        <ele>1150</ele>
        <time>2019-06-15T10:04:05.080Z</time>
      </trkpt>
      <trkpt lat="45.02858" lon="5.40796">
        <ele>1150</ele>
        <time>2019-06-15T10:04:06.080Z</time>
      </trkpt>
      <trkpt lat="45.02855" lon="5.40796">
        <ele>1150</ele>
        <time>2019-06-15T10:04:07.080Z</time>
      </trkpt>
      <trkpt lat="45.02852" lon="5.40795">
        <ele>1151</ele>
        <time>2019-06-15T10:04:08.080Z</time>
      </trkpt>
      <trkpt lat="45.0285" lon="5.40794">
        <ele>1151</ele>
        <time>2019-06-15T10:04:09.080Z</time>
      </trkpt>
      <trkpt lat="45.02847" lon="5.40793">
        <ele>1150</ele>
        <time>2019-06-15T10:04:10.080Z</time>
      </trkpt>
      <trkpt lat="45.02845" lon="5.40792">
        <ele>1150</ele>
        <time>2019-06-15T10:04:11.080Z</time>
      </trkpt>
      <trkpt lat="45.02843" lon="5.40791">
        <ele>1150</ele>
        <time>2019-06-15T10:04:12.080Z</time>
      </trkpt>
      <trkpt lat="45.02841" lon="5.40789">
        <ele>1150</ele>
        <time>2019-06-15T10:04:13.080Z</time>
      </trkpt>
      <trkpt lat="45.02839" lon="5.40788">
        <ele>1150</ele>
        <time>2019-06-15T10:04:14.080Z</time>
      </trkpt>
      <trkpt lat="45.02837" lon="5.40787">
        <ele>1150</ele>
        <time>2019-06-15T10:04:15.080Z</time>
      </trkpt>
      <trkpt lat="45.02835" lon="5.40786">
        <ele>1150</ele>
        <time>2019-06-15T10:04:16.080Z</time>
      </trkpt>
      <trkpt lat="45.02834" lon="5.40785">
        <ele>1150</ele>
        <time>2019-06-15T10:04:17.080Z</time>
      </trkpt>
      <trkpt lat="45.02832" lon="5.40783">
        <ele>1151</ele>
        <time>2019-06-15T10:04:18.080Z</time>
      </trkpt>
      <trkpt lat="45.02829" lon="5.40782">
        <ele>1151</ele>
        <time>2019-06-15T10:04:19.080Z</time>
      </trkpt>
      <trkpt lat="45.02827" lon="5.40781">
        <ele>1152</ele>
        <time>2019-06-15T10:04:20.080Z</time>
      </trkpt>
      <trkpt lat="45.02824" lon="5.4078">
        <ele>1152</ele>
        <time>2019-06-15T10:04:21.080Z</time>
      </trkpt>
      <trkpt lat="45.02821" lon="5.40779">
        <ele>1153</ele>
        <time>2019-06-15T10:04:22.080Z</time>
      </trkpt>
      <trkpt lat="45.02818" lon="5.40777">
        <ele>1153</ele>
        <time>2019-06-15T10:04:23.080Z</time>
      </trkpt>
      <trkpt lat="45.02815" lon="5.40775">
        <ele>1153</ele>
        <time>2019-06-15T10:04:24.080Z</time>
      </trkpt>
      <trkpt lat="45.02812" lon="5.40774">
        <ele>1153</ele>
        <time>2019-06-15T10:04:25.080Z</time>
      </trkpt>
      <trkpt lat="45.02808" lon="5.40773">
        <ele>1153</ele>
        <time>2019-06-15T10:04:26.080Z</time>
      </trkpt>
      <trkpt lat="45.02806" lon="5.40772">
        <ele>1153</ele>
        <time>2019-06-15T10:04:27.080Z</time>
      </trkpt>
      <trkpt lat="45.02803" lon="5.40771">
        <ele>1152</ele>
        <time>2019-06-15T10:04:28.080Z</time>
      </trkpt>
      <trkpt lat="45.028" lon="5.4077">
        <ele>1152</ele>
        <time>2019-06-15T10:04:29.080Z</time>
      </trkpt>
      <trkpt lat="45.02797" lon="5.40768">
        <ele>1152</ele>
        <time>2019-06-15T10:04:30.080Z</time>
      </trkpt>
      <trkpt lat="45.02795" lon="5.40767">
        <ele>1152</ele>
        <time>2019-06-15T10:04:31.080Z</time>
      </trkpt>
      <trkpt lat="45.02793" lon="5.40766">
        <ele>1152</ele>
        <time>2019-06-15T10:04:32.080Z</time>
      </trkpt>
      <trkpt lat="45.02791" lon="5.40765">
        <ele>1152</ele>
        <time>2019-06-15T10:04:33.080Z</time>
      </trkpt>
      <trkpt lat="45.02789" lon="5.40764">
        <ele>1151</ele>
        <time>2019-06-15T10:04:34.080Z</time>
      </trkpt>
      <trkpt lat="45.02787" lon="5.40763">
        <ele>1150</ele>
        <time>2019-06-15T10:04:35.080Z</time>
      </trkpt>
      <trkpt lat="45.02785" lon="5.40762">
        <ele>1150</ele>
        <time>2019-06-15T10:04:36.080Z</time>
      </trkpt>
      <trkpt lat="45.02783" lon="5.40761">
        <ele>1150</ele>
        <time>2019-06-15T10:04:37.080Z</time>
      </trkpt>
      <trkpt lat="45.02781" lon="5.40759">
        <ele>1150</ele>
        <time>2019-06-15T10:04:38.080Z</time>
      </trkpt>
      <trkpt lat="45.0278" lon="5.40757">
        <ele>1150</ele>
        <time>2019-06-15T10:04:39.080Z</time>
      </trkpt>
      <trkpt lat="45.02778" lon="5.40755">
        <ele>1150</ele>
        <time>2019-06-15T10:04:40.080Z</time>
      </trkpt>
      <trkpt lat="45.02776" lon="5.40753">
        <ele>1150</ele>
        <time>2019-06-15T10:04:41.080Z</time>
      </trkpt>
      <trkpt lat="45.02774" lon="5.40751">
        <ele>1150</ele>
        <time>2019-06-15T10:04:42.080Z</time>
      </trkpt>
      <trkpt lat="45.02771" lon="5.40748">
        <ele>1150</ele>
        <time>2019-06-15T10:04:43.080Z</time>
      </trkpt>
      <trkpt lat="45.02769" lon="5.40746">
        <ele>1150</ele>
        <time>2019-06-15T10:04:44.080Z</time>
      </trkpt>
      <trkpt lat="45.02766" lon="5.40744">
        <ele>1150</ele>
        <time>2019-06-15T10:04:45.080Z</time>
      </trkpt>
      <trkpt lat="45.02764" lon="5.40742">
        <ele>1150</ele>
        <time>2019-06-15T10:04:46.080Z</time>
      </trkpt>
      <trkpt lat="45.0276" lon="5.4074">
        <ele>1150</ele>
        <time>2019-06-15T10:04:47.080Z</time>
      </trkpt>
      <trkpt lat="45.02757" lon="5.40738">
        <ele>1150</ele>
        <time>2019-06-15T10:04:48.080Z</time>
      </trkpt>
      <trkpt lat="45.02754" lon="5.40737">
        <ele>1151</ele>
        <time>2019-06-15T10:04:49.080Z</time>
      </trkpt>
      <trkpt lat="45.02751" lon="5.40736">
        <ele>1151</ele>
        <time>2019-06-15T10:04:50.080Z</time>
      </trkpt>
      <trkpt lat="45.02748" lon="5.40735">
        <ele>1151</ele>
        <time>2019-06-15T10:04:51.080Z</time>
      </trkpt>
      <trkpt lat="45.02745" lon="5.40734">
        <ele>1150</ele>
        <time>2019-06-15T10:04:52.080Z</time>
      </trkpt>
      <trkpt lat="45.02742" lon="5.40734">
        <ele>1150</ele>
        <time>2019-06-15T10:04:53.080Z</time>
      </trkpt>
      <trkpt lat="45.02739" lon="5.40733">
        <ele>1150</ele>
        <time>2019-06-15T10:04:54.080Z</time>
      </trkpt>
      <trkpt lat="45.02736" lon="5.40733">
        <ele>1150</ele>
        <time>2019-06-15T10:04:55.080Z</time>
      </trkpt>
      <trkpt lat="45.02733" lon="5.40733">
        <ele>1150</ele>
        <time>2019-06-15T10:04:56.080Z</time>
      </trkpt>
      <trkpt lat="45.02729" lon="5.40733">
        <ele>1150</ele>
        <time>2019-06-15T10:04:57.080Z</time>
      </trkpt>
      <trkpt lat="45.02726" lon="5.40732">
        <ele>1150</ele>
        <time>2019-06-15T10:04:58.080Z</time>
      </trkpt>
      <trkpt lat="45.02723" lon="5.40732">
        <ele>1150</ele>
        <time>2019-06-15T10:04:59.080Z</time>
      </trkpt>
      <trkpt lat="45.02721" lon="5.40731">
        <ele>1150</ele>
        <time>2019-06-15T10:05:00.080Z</time>
      </trkpt>
      <trkpt lat="45.02718" lon="5.40731">
        <ele>1150</ele>
        <time>2019-06-15T10:05:01.080Z</time>
      </trkpt>
      <trkpt lat="45.02716" lon="5.40731">
        <ele>1150</ele>
        <time>2019-06-15T10:05:02.080Z</time>
      </trkpt>
      <trkpt lat="45.02714" lon="5.40731">
        <ele>1150</ele>
        <time>2019-06-15T10:05:03.080Z</time>
      </trkpt>
      <trkpt lat="45.02712" lon="5.40731">
        <ele>1150</ele>
        <time>2019-06-15T10:05:04.080Z</time>
      </trkpt>
      <trkpt lat="45.0271" lon="5.40731">
        <ele>1150</ele>
        <time>2019-06-15T10:05:05.080Z</time>
      </trkpt>
      <trkpt lat="45.02708" lon="5.40731">
        <ele>1150</ele>
        <time>2019-06-15T10:05:06.080Z</time>
      </trkpt>
      <trkpt lat="45.02706" lon="5.40732">
        <ele>1149</ele>
        <time>2019-06-15T10:05:07.080Z</time>
      </trkpt>
      <trkpt lat="45.02704" lon="5.40732">
        <ele>1149</ele>
        <time>2019-06-15T10:05:08.080Z</time>
      </trkpt>
      <trkpt lat="45.02703" lon="5.40732">
        <ele>1149</ele>
        <time>2019-06-15T10:05:09.080Z</time>
      </trkpt>
      <trkpt lat="45.02701" lon="5.40732">
        <ele>1149</ele>
        <time>2019-06-15T10:05:10.080Z</time>
      </trkpt>
      <trkpt lat="45.027" lon="5.40733">
        <ele>1149</ele>
        <time>2019-06-15T10:05:11.080Z</time>
      </trkpt>
      <trkpt lat="45.02698" lon="5.40734">
        <ele>1149</ele>
        <time>2019-06-15T10:05:12.080Z</time>
      </trkpt>
      <trkpt lat="45.02696" lon="5.40736">
        <ele>1149</ele>
        <time>2019-06-15T10:05:13.080Z</time>
      </trkpt>
      <trkpt lat="45.02694" lon="5.40737">
        <ele>1150</ele>
        <time>2019-06-15T10:05:14.080Z</time>
      </trkpt>
      <trkpt lat="45.02691" lon="5.40739">
        <ele>1149</ele>
        <time>2019-06-15T10:05:15.080Z</time>
      </trkpt>
      <trkpt lat="45.02686" lon="5.4074">
        <ele>1149</ele>
        <time>2019-06-15T10:05:16.080Z</time>
      </trkpt>
      <trkpt lat="45.0268" lon="5.40741">
        <ele>1149</ele>
        <time>2019-06-15T10:05:17.080Z</time>
      </trkpt>
      <trkpt lat="45.02676" lon="5.40742">
        <ele>1149</ele>
        <time>2019-06-15T10:05:18.080Z</time>
      </trkpt>
      <trkpt lat="45.02673" lon="5.40744">
        <ele>1149</ele>
        <time>2019-06-15T10:05:19.080Z</time>
      </trkpt>
      <trkpt lat="45.0267" lon="5.40745">
        <ele>1149</ele>
        <time>2019-06-15T10:05:20.080Z</time>
      </trkpt>
      <trkpt lat="45.02668" lon="5.40746">
        <ele>1149</ele>
        <time>2019-06-15T10:05:21.080Z</time>
      </trkpt>
      <trkpt lat="45.02666" lon="5.40747">
        <ele>1149</ele>
        <time>2019-06-15T10:05:22.080Z</time>
      </trkpt>
      <trkpt lat="45.02664" lon="5.40748">
        <ele>1150</ele>
        <time>2019-06-15T10:05:23.080Z</time>
      </trkpt>
      <trkpt lat="45.02662" lon="5.40748">
        <ele>1150</ele>
        <time>2019-06-15T10:05:24.080Z</time>
      </trkpt>
      <trkpt lat="45.0266" lon="5.40749">
        <ele>1150</ele>
        <time>2019-06-15T10:05:25.080Z</time>
      </trkpt>
      <trkpt lat="45.02657" lon="5.4075">
        <ele>1150</ele>
        <time>2019-06-15T10:05:26.080Z</time>
      </trkpt>
      <trkpt lat="45.02656" lon="5.40751">
        <ele>1150</ele>
        <time>2019-06-15T10:05:27.080Z</time>
      </trkpt>
      <trkpt lat="45.02654" lon="5.40752">
        <ele>1150</ele>
        <time>2019-06-15T10:05:28.080Z</time>
      </trkpt>
      <trkpt lat="45.02652" lon="5.40753">
        <ele>1150</ele>
        <time>2019-06-15T10:05:29.080Z</time>
      </trkpt>
      <trkpt lat="45.02651" lon="5.40754">
        <ele>1150</ele>
        <time>2019-06-15T10:05:30.080Z</time>
      </trkpt>
      <trkpt lat="45.02649" lon="5.40755">
        <ele>1149</ele>
        <time>2019-06-15T10:05:31.080Z</time>
      </trkpt>
      <trkpt lat="45.02647" lon="5.40756">
        <ele>1149</ele>
        <time>2019-06-15T10:05:32.080Z</time>
      </trkpt>
      <trkpt lat="45.02645" lon="5.40757">
        <ele>1149</ele>
        <time>2019-06-15T10:05:33.080Z</time>
      </trkpt>
      <trkpt lat="45.02643" lon="5.40758">
        <ele>1149</ele>
        <time>2019-06-15T10:05:34.080Z</time>
      </trkpt>
      <trkpt lat="45.02642" lon="5.40759">
        <ele>1149</ele>
        <time>2019-06-15T10:05:35.080Z</time>
      </trkpt>
      <trkpt lat="45.0264" lon="5.4076">
        <ele>1149</ele>
        <time>2019-06-15T10:05:36.080Z</time>
      </trkpt>
      <trkpt lat="45.02638" lon="5.40761">
        <ele>1149</ele>
        <time>2019-06-15T10:05:37.080Z</time>
      </trkpt>
      <trkpt lat="45.02637" lon="5.40762">
        <ele>1148</ele>
        <time>2019-06-15T10:05:38.080Z</time>
      </trkpt>
      <trkpt lat="45.02635" lon="5.40763">
        <ele>1148</ele>
        <time>2019-06-15T10:05:39.080Z</time>
      </trkpt>
      <trkpt lat="45.02634" lon="5.40764">
        <ele>1148</ele>
        <time>2019-06-15T10:05:40.080Z</time>
      </trkpt>
      <trkpt lat="45.02632" lon="5.40765">
        <ele>1148</ele>
        <time>2019-06-15T10:05:41.080Z</time>
      </trkpt>
      <trkpt lat="45.0263" lon="5.40766">
        <ele>1148</ele>
        <time>2019-06-15T10:05:42.080Z</time>
      </trkpt>
      <trkpt lat="45.02628" lon="5.40767">
        <ele>1148</ele>
        <time>2019-06-15T10:05:43.080Z</time>
      </trkpt>
      <trkpt lat="45.02626" lon="5.40767">
        <ele>1147</ele>
        <time>2019-06-15T10:05:44.080Z</time>
      </trkpt>
      <trkpt lat="45.02624" lon="5.40767">
        <ele>1147</ele>
        <time>2019-06-15T10:05:45.080Z</time>
      </trkpt>
      <trkpt lat="45.02622" lon="5.40768">
        <ele>1147</ele>
        <time>2019-06-15T10:05:46.080Z</time>
      </trkpt>
      <trkpt lat="45.0262" lon="5.40768">
        <ele>1147</ele>
        <time>2019-06-15T10:05:47.080Z</time>
      </trkpt>
      <trkpt lat="45.02619" lon="5.40769">
        <ele>1147</ele>
        <time>2019-06-15T10:05:48.080Z</time>
      </trkpt>
      <trkpt lat="45.02618" lon="5.4077">
        <ele>1147</ele>
        <time>2019-06-15T10:05:49.080Z</time>
      </trkpt>
      <trkpt lat="45.02616" lon="5.40772">
        <ele>1147</ele>
        <time>2019-06-15T10:05:50.080Z</time>
      </trkpt>
      <trkpt lat="45.02614" lon="5.40773">
        <ele>1147</ele>
        <time>2019-06-15T10:05:51.080Z</time>
      </trkpt>
      <trkpt lat="45.02613" lon="5.40774">
        <ele>1147</ele>
        <time>2019-06-15T10:05:52.080Z</time>
      </trkpt>
      <trkpt lat="45.02611" lon="5.40776">
        <ele>1148</ele>
        <time>2019-06-15T10:05:53.080Z</time>
      </trkpt>
      <trkpt lat="45.02609" lon="5.40777">
        <ele>1149</ele>
        <time>2019-06-15T10:05:54.080Z</time>
      </trkpt>
      <trkpt lat="45.02606" lon="5.40779">
        <ele>1149</ele>
        <time>2019-06-15T10:05:55.080Z</time>
      </trkpt>
      <trkpt lat="45.02604" lon="5.40781">
        <ele>1149</ele>
        <time>2019-06-15T10:05:56.080Z</time>
      </trkpt>
      <trkpt lat="45.02603" lon="5.40783">
        <ele>1149</ele>
        <time>2019-06-15T10:05:57.080Z</time>
      </trkpt>
      <trkpt lat="45.02601" lon="5.40785">
        <ele>1150</ele>
        <time>2019-06-15T10:05:58.080Z</time>
      </trkpt>
      <trkpt lat="45.026" lon="5.40787">
        <ele>1149</ele>
        <time>2019-06-15T10:05:59.080Z</time>
      </trkpt>
      <trkpt lat="45.02599" lon="5.40789">
        <ele>1150</ele>
        <time>2019-06-15T10:06:00.080Z</time>
      </trkpt>
      <trkpt lat="45.02597" lon="5.40791">
        <ele>1151</ele>
        <time>2019-06-15T10:06:01.080Z</time>
      </trkpt>
      <trkpt lat="45.02596" lon="5.40793">
        <ele>1151</ele>
        <time>2019-06-15T10:06:02.080Z</time>
      </trkpt>
      <trkpt lat="45.02595" lon="5.40795">
        <ele>1153</ele>
        <time>2019-06-15T10:06:03.080Z</time>
      </trkpt>
      <trkpt lat="45.02594" lon="5.40798">
        <ele>1154</ele>
        <time>2019-06-15T10:06:04.080Z</time>
      </trkpt>
      <trkpt lat="45.02593" lon="5.408">
        <ele>1155</ele>
        <time>2019-06-15T10:06:05.080Z</time>
      </trkpt>
      <trkpt lat="45.02592" lon="5.40802">
        <ele>1156</ele>
        <time>2019-06-15T10:06:06.080Z</time>
      </trkpt>
      <trkpt lat="45.02592" lon="5.40804">
        <ele>1157</ele>
        <time>2019-06-15T10:06:07.080Z</time>
      </trkpt>
      <trkpt lat="45.02591" lon="5.40806">
        <ele>1157</ele>
        <time>2019-06-15T10:06:08.080Z</time>
      </trkpt>
      <trkpt lat="45.0259" lon="5.40809">
        <ele>1157</ele>
        <time>2019-06-15T10:06:09.080Z</time>
      </trkpt>
      <trkpt lat="45.0259" lon="5.40811">
        <ele>1157</ele>
        <time>2019-06-15T10:06:10.080Z</time>
      </trkpt>
      <trkpt lat="45.02589" lon="5.40813">
        <ele>1157</ele>
        <time>2019-06-15T10:06:11.080Z</time>
      </trkpt>
      <trkpt lat="45.02589" lon="5.40816">
        <ele>1158</ele>
        <time>2019-06-15T10:06:12.080Z</time>
      </trkpt>
      <trkpt lat="45.02588" lon="5.40818">
        <ele>1159</ele>
        <time>2019-06-15T10:06:13.080Z</time>
      </trkpt>
      <trkpt lat="45.02588" lon="5.4082">
        <ele>1159</ele>
        <time>2019-06-15T10:06:14.080Z</time>
      </trkpt>
      <trkpt lat="45.02587" lon="5.40822">
        <ele>1160</ele>
        <time>2019-06-15T10:06:15.080Z</time>
      </trkpt>
      <trkpt lat="45.02587" lon="5.40825">
        <ele>1160</ele>
        <time>2019-06-15T10:06:16.080Z</time>
      </trkpt>
      <trkpt lat="45.02586" lon="5.40827">
        <ele>1160</ele>
        <time>2019-06-15T10:06:17.080Z</time>
      </trkpt>
      <trkpt lat="45.02586" lon="5.40829">
        <ele>1159</ele>
        <time>2019-06-15T10:06:18.080Z</time>
      </trkpt>
      <trkpt lat="45.02586" lon="5.40831">
        <ele>1160</ele>
        <time>2019-06-15T10:06:19.080Z</time>
      </trkpt>
      <trkpt lat="45.02586" lon="5.40832">
        <ele>1160</ele>
        <time>2019-06-15T10:06:20.080Z</time>
      </trkpt>
      <trkpt lat="45.02585" lon="5.40834">
        <ele>1161</ele>
        <time>2019-06-15T10:06:21.080Z</time>
      </trkpt>
      <trkpt lat="45.02585" lon="5.40836">
        <ele>1162</ele>
        <time>2019-06-15T10:06:22.080Z</time>
      </trkpt>
      <trkpt lat="45.02584" lon="5.40837">
        <ele>1163</ele>
        <time>2019-06-15T10:06:23.080Z</time>
      </trkpt>
      <trkpt lat="45.02583" lon="5.40839">
        <ele>1164</ele>
        <time>2019-06-15T10:06:24.080Z</time>
      </trkpt>
      <trkpt lat="45.02582" lon="5.40841">
        <ele>1164</ele>
        <time>2019-06-15T10:06:25.080Z</time>
      </trkpt>
      <trkpt lat="45.02581" lon="5.40842">
        <ele>1164</ele>
        <time>2019-06-15T10:06:26.080Z</time>
      </trkpt>
      <trkpt lat="45.0258" lon="5.40844">
        <ele>1164</ele>
        <time>2019-06-15T10:06:27.080Z</time>
      </trkpt>
      <trkpt lat="45.02579" lon="5.40846">
        <ele>1163</ele>
        <time>2019-06-15T10:06:28.080Z</time>
      </trkpt>
      <trkpt lat="45.02578" lon="5.40848">
        <ele>1164</ele>
        <time>2019-06-15T10:06:29.080Z</time>
      </trkpt>
      <trkpt lat="45.02577" lon="5.4085">
        <ele>1164</ele>
        <time>2019-06-15T10:06:30.080Z</time>
      </trkpt>
      <trkpt lat="45.02576" lon="5.40853">
        <ele>1164</ele>
        <time>2019-06-15T10:06:31.080Z</time>
      </trkpt>
      <trkpt lat="45.02575" lon="5.40855">
        <ele>1162</ele>
        <time>2019-06-15T10:06:32.080Z</time>
      </trkpt>
      <trkpt lat="45.02574" lon="5.40857">
        <ele>1162</ele>
        <time>2019-06-15T10:06:33.080Z</time>
      </trkpt>
      <trkpt lat="45.02573" lon="5.4086">
        <ele>1163</ele>
        <time>2019-06-15T10:06:34.080Z</time>
      </trkpt>
      <trkpt lat="45.02571" lon="5.40863">
        <ele>1163</ele>
        <time>2019-06-15T10:06:35.080Z</time>
      </trkpt>
      <trkpt lat="45.02569" lon="5.40865">
        <ele>1163</ele>
        <time>2019-06-15T10:06:36.080Z</time>
      </trkpt>
      <trkpt lat="45.02567" lon="5.40867">
        <ele>1164</ele>
        <time>2019-06-15T10:06:37.080Z</time>
      </trkpt>
      <trkpt lat="45.02566" lon="5.4087">
        <ele>1165</ele>
        <time>2019-06-15T10:06:38.080Z</time>
      </trkpt>
      <trkpt lat="45.02564" lon="5.40873">
        <ele>1165</ele>
        <time>2019-06-15T10:06:39.080Z</time>
      </trkpt>
      <trkpt lat="45.02563" lon="5.40876">
        <ele>1165</ele>
        <time>2019-06-15T10:06:40.080Z</time>
      </trkpt>
      <trkpt lat="45.02562" lon="5.40879">
        <ele>1165</ele>
        <time>2019-06-15T10:06:41.080Z</time>
      </trkpt>
      <trkpt lat="45.02561" lon="5.40882">
        <ele>1165</ele>
        <time>2019-06-15T10:06:42.080Z</time>
      </trkpt>
      <trkpt lat="45.02559" lon="5.40885">
        <ele>1165</ele>
        <time>2019-06-15T10:06:43.080Z</time>
      </trkpt>
      <trkpt lat="45.02558" lon="5.40888">
        <ele>1166</ele>
        <time>2019-06-15T10:06:44.080Z</time>
      </trkpt>
      <trkpt lat="45.02557" lon="5.40891">
        <ele>1165</ele>
        <time>2019-06-15T10:06:45.080Z</time>
      </trkpt>
      <trkpt lat="45.02556" lon="5.40894">
        <ele>1165</ele>
        <time>2019-06-15T10:06:46.080Z</time>
      </trkpt>
      <trkpt lat="45.02554" lon="5.40897">
        <ele>1164</ele>
        <time>2019-06-15T10:06:47.080Z</time>
      </trkpt>
      <trkpt lat="45.02553" lon="5.409">
        <ele>1164</ele>
        <time>2019-06-15T10:06:48.080Z</time>
      </trkpt>
      <trkpt lat="45.02551" lon="5.40903">
        <ele>1165</ele>
        <time>2019-06-15T10:06:49.080Z</time>
      </trkpt>
      <trkpt lat="45.02549" lon="5.40907">
        <ele>1167</ele>
        <time>2019-06-15T10:06:50.080Z</time>
      </trkpt>
      <trkpt lat="45.02548" lon="5.4091">
        <ele>1167</ele>
        <time>2019-06-15T10:06:51.080Z</time>
      </trkpt>
      <trkpt lat="45.02547" lon="5.40913">
        <ele>1167</ele>
        <time>2019-06-15T10:06:52.080Z</time>
      </trkpt>
      <trkpt lat="45.02546" lon="5.40915">
        <ele>1167</ele>
        <time>2019-06-15T10:06:53.080Z</time>
      </trkpt>
      <trkpt lat="45.02545" lon="5.40918">
        <ele>1166</ele>
        <time>2019-06-15T10:06:54.080Z</time>
      </trkpt>
      <trkpt lat="45.02544" lon="5.40921">
        <ele>1167</ele>
        <time>2019-06-15T10:06:55.080Z</time>
      </trkpt>
      <trkpt lat="45.02543" lon="5.40923">
        <ele>1167</ele>
        <time>2019-06-15T10:06:56.080Z</time>
      </trkpt>
      <trkpt lat="45.02542" lon="5.40926">
        <ele>1167</ele>
        <time>2019-06-15T10:06:57.080Z</time>
      </trkpt>
      <trkpt lat="45.02541" lon="5.40929">
        <ele>1166</ele>
        <time>2019-06-15T10:06:58.080Z</time>
      </trkpt>
      <trkpt lat="45.0254" lon="5.40932">
        <ele>1166</ele>
        <time>2019-06-15T10:06:59.080Z</time>
      </trkpt>
      <trkpt lat="45.02538" lon="5.40935">
        <ele>1166</ele>
        <time>2019-06-15T10:07:00.080Z</time>
      </trkpt>
      <trkpt lat="45.02538" lon="5.40938">
        <ele>1166</ele>
        <time>2019-06-15T10:07:01.080Z</time>
      </trkpt>
      <trkpt lat="45.02537" lon="5.4094">
        <ele>1165</ele>
        <time>2019-06-15T10:07:02.080Z</time>
      </trkpt>
      <trkpt lat="45.02536" lon="5.40942">
        <ele>1165</ele>
        <time>2019-06-15T10:07:03.080Z</time>
      </trkpt>
      <trkpt lat="45.02535" lon="5.40945">
        <ele>1164</ele>
        <time>2019-06-15T10:07:04.080Z</time>
      </trkpt>
      <trkpt lat="45.02534" lon="5.40948">
        <ele>1164</ele>
        <time>2019-06-15T10:07:05.080Z</time>
      </trkpt>
      <trkpt lat="45.02533" lon="5.4095">
        <ele>1164</ele>
        <time>2019-06-15T10:07:06.080Z</time>
      </trkpt>
      <trkpt lat="45.02532" lon="5.40952">
        <ele>1164</ele>
        <time>2019-06-15T10:07:07.080Z</time>
      </trkpt>
      <trkpt lat="45.02531" lon="5.40954">
        <ele>1165</ele>
        <time>2019-06-15T10:07:08.080Z</time>
      </trkpt>
      <trkpt lat="45.02529" lon="5.40957">
        <ele>1165</ele>
        <time>2019-06-15T10:07:09.080Z</time>
      </trkpt>
      <trkpt lat="45.02528" lon="5.40959">
        <ele>1165</ele>
        <time>2019-06-15T10:07:10.080Z</time>
      </trkpt>
      <trkpt lat="45.02526" lon="5.40962">
        <ele>1165</ele>
        <time>2019-06-15T10:07:11.080Z</time>
      </trkpt>
      <trkpt lat="45.02525" lon="5.40965">
        <ele>1166</ele>
        <time>2019-06-15T10:07:12.080Z</time>
      </trkpt>
      <trkpt lat="45.02524" lon="5.40967">
        <ele>1166</ele>
        <time>2019-06-15T10:07:13.080Z</time>
      </trkpt>
      <trkpt lat="45.02523" lon="5.4097">
        <ele>1166</ele>
        <time>2019-06-15T10:07:14.080Z</time>
      </trkpt>
      <trkpt lat="45.02521" lon="5.40973">
        <ele>1166</ele>
        <time>2019-06-15T10:07:15.080Z</time>
      </trkpt>
      <trkpt lat="45.0252" lon="5.40976">
        <ele>1167</ele>
        <time>2019-06-15T10:07:16.080Z</time>
      </trkpt>
      <trkpt lat="45.02519" lon="5.40979">
        <ele>1167</ele>
        <time>2019-06-15T10:07:17.080Z</time>
      </trkpt>
      <trkpt lat="45.02517" lon="5.40982">
        <ele>1167</ele>
        <time>2019-06-15T10:07:18.080Z</time>
      </trkpt>
      <trkpt lat="45.02516" lon="5.40985">
        <ele>1167</ele>
        <time>2019-06-15T10:07:19.080Z</time>
      </trkpt>
      <trkpt lat="45.02515" lon="5.40989">
        <ele>1168</ele>
        <time>2019-06-15T10:07:20.080Z</time>
      </trkpt>
      <trkpt lat="45.02515" lon="5.40992">
        <ele>1169</ele>
        <time>2019-06-15T10:07:21.080Z</time>
      </trkpt>
      <trkpt lat="45.02515" lon="5.40996">
        <ele>1169</ele>
        <time>2019-06-15T10:07:22.080Z</time>
      </trkpt>
      <trkpt lat="45.02514" lon="5.40999">
        <ele>1168</ele>
        <time>2019-06-15T10:07:23.080Z</time>
      </trkpt>
      <trkpt lat="45.02513" lon="5.41003">
        <ele>1167</ele>
        <time>2019-06-15T10:07:24.080Z</time>
      </trkpt>
      <trkpt lat="45.02511" lon="5.41006">
        <ele>1167</ele>
        <time>2019-06-15T10:07:25.080Z</time>
      </trkpt>
      <trkpt lat="45.02511" lon="5.41009">
        <ele>1167</ele>
        <time>2019-06-15T10:07:26.080Z</time>
      </trkpt>
      <trkpt lat="45.0251" lon="5.41012">
        <ele>1167</ele>
        <time>2019-06-15T10:07:27.080Z</time>
      </trkpt>
      <trkpt lat="45.02509" lon="5.41016">
        <ele>1166</ele>
        <time>2019-06-15T10:07:28.080Z</time>
      </trkpt>
      <trkpt lat="45.02509" lon="5.41019">
        <ele>1165</ele>
        <time>2019-06-15T10:07:29.080Z</time>
      </trkpt>
      <trkpt lat="45.02509" lon="5.41022">
        <ele>1163</ele>
        <time>2019-06-15T10:07:30.080Z</time>
      </trkpt>
      <trkpt lat="45.02509" lon="5.41026">
        <ele>1163</ele>
        <time>2019-06-15T10:07:31.080Z</time>
      </trkpt>
      <trkpt lat="45.02509" lon="5.41029">
        <ele>1163</ele>
        <time>2019-06-15T10:07:32.080Z</time>
      </trkpt>
      <trkpt lat="45.02509" lon="5.41032">
        <ele>1162</ele>
        <time>2019-06-15T10:07:33.080Z</time>
      </trkpt>
      <trkpt lat="45.02509" lon="5.41035">
        <ele>1161</ele>
        <time>2019-06-15T10:07:34.080Z</time>
      </trkpt>
      <trkpt lat="45.02508" lon="5.41039">
        <ele>1160</ele>
        <time>2019-06-15T10:07:35.080Z</time>
      </trkpt>
      <trkpt lat="45.02508" lon="5.41042">
        <ele>1160</ele>
        <time>2019-06-15T10:07:36.080Z</time>
      </trkpt>
      <trkpt lat="45.02507" lon="5.41047">
        <ele>1159</ele>
        <time>2019-06-15T10:07:37.080Z</time>
      </trkpt>
      <trkpt lat="45.02507" lon="5.41051">
        <ele>1159</ele>
        <time>2019-06-15T10:07:38.080Z</time>
      </trkpt>
      <trkpt lat="45.02507" lon="5.41055">
        <ele>1158</ele>
        <time>2019-06-15T10:07:39.080Z</time>
      </trkpt>
      <trkpt lat="45.02506" lon="5.41059">
        <ele>1158</ele>
        <time>2019-06-15T10:07:40.080Z</time>
      </trkpt>
      <trkpt lat="45.02506" lon="5.41063">
        <ele>1158</ele>
        <time>2019-06-15T10:07:41.080Z</time>
      </trkpt>
      <trkpt lat="45.02505" lon="5.41068">
        <ele>1158</ele>
        <time>2019-06-15T10:07:42.080Z</time>
      </trkpt>
      <trkpt lat="45.02505" lon="5.41072">
        <ele>1158</ele>
        <time>2019-06-15T10:07:43.080Z</time>
      </trkpt>
      <trkpt lat="45.02504" lon="5.41076">
        <ele>1158</ele>
        <time>2019-06-15T10:07:44.080Z</time>
      </trkpt>
      <trkpt lat="45.02503" lon="5.4108">
        <ele>1158</ele>
        <time>2019-06-15T10:07:45.080Z</time>
      </trkpt>
      <trkpt lat="45.02502" lon="5.41084">
        <ele>1158</ele>
        <time>2019-06-15T10:07:46.080Z</time>
      </trkpt>
      <trkpt lat="45.02502" lon="5.41088">
        <ele>1159</ele>
        <time>2019-06-15T10:07:47.080Z</time>
      </trkpt>
      <trkpt lat="45.02501" lon="5.41091">
        <ele>1158</ele>
        <time>2019-06-15T10:07:48.080Z</time>
      </trkpt>
      <trkpt lat="45.02501" lon="5.41095">
        <ele>1157</ele>
        <time>2019-06-15T10:07:49.080Z</time>
      </trkpt>
      <trkpt lat="45.02501" lon="5.41099">
        <ele>1156</ele>
        <time>2019-06-15T10:07:50.080Z</time>
      </trkpt>
      <trkpt lat="45.02501" lon="5.41102">
        <ele>1156</ele>
        <time>2019-06-15T10:07:51.080Z</time>
      </trkpt>
      <trkpt lat="45.02502" lon="5.41106">
        <ele>1155</ele>
        <time>2019-06-15T10:07:52.080Z</time>
      </trkpt>
      <trkpt lat="45.02503" lon="5.4111">
        <ele>1155</ele>
        <time>2019-06-15T10:07:53.080Z</time>
      </trkpt>
      <trkpt lat="45.02504" lon="5.41113">
        <ele>1154</ele>
        <time>2019-06-15T10:07:54.080Z</time>
      </trkpt>
      <trkpt lat="45.02504" lon="5.41117">
        <ele>1154</ele>
        <time>2019-06-15T10:07:55.080Z</time>
      </trkpt>
      <trkpt lat="45.02504" lon="5.41121">
        <ele>1153</ele>
        <time>2019-06-15T10:07:56.080Z</time>
      </trkpt>
      <trkpt lat="45.02504" lon="5.41124">
        <ele>1152</ele>
        <time>2019-06-15T10:07:57.080Z</time>
      </trkpt>
      <trkpt lat="45.02504" lon="5.41127">
        <ele>1151</ele>
        <time>2019-06-15T10:07:58.080Z</time>
      </trkpt>
      <trkpt lat="45.02504" lon="5.4113">
        <ele>1151</ele>
        <time>2019-06-15T10:07:59.080Z</time>
      </trkpt>
      <trkpt lat="45.02504" lon="5.41133">
        <ele>1150</ele>
        <time>2019-06-15T10:08:00.080Z</time>
      </trkpt>
      <trkpt lat="45.02504" lon="5.41137">
        <ele>1150</ele>
        <time>2019-06-15T10:08:01.080Z</time>
      </trkpt>
      <trkpt lat="45.02504" lon="5.4114">
        <ele>1150</ele>
        <time>2019-06-15T10:08:02.080Z</time>
      </trkpt>
      <trkpt lat="45.02504" lon="5.41144">
        <ele>1149</ele>
        <time>2019-06-15T10:08:03.080Z</time>
      </trkpt>
      <trkpt lat="45.02505" lon="5.41147">
        <ele>1148</ele>
        <time>2019-06-15T10:08:04.080Z</time>
      </trkpt>
      <trkpt lat="45.02505" lon="5.41151">
        <ele>1147</ele>
        <time>2019-06-15T10:08:05.080Z</time>
      </trkpt>
      <trkpt lat="45.02506" lon="5.41154">
        <ele>1147</ele>
        <time>2019-06-15T10:08:06.080Z</time>
      </trkpt>
      <trkpt lat="45.02506" lon="5.41157">
        <ele>1146</ele>
        <time>2019-06-15T10:08:07.080Z</time>
      </trkpt>
      <trkpt lat="45.02506" lon="5.41159">
        <ele>1145</ele>
        <time>2019-06-15T10:08:08.080Z</time>
      </trkpt>
      <trkpt lat="45.02507" lon="5.41162">
        <ele>1145</ele>
        <time>2019-06-15T10:08:09.080Z</time>
      </trkpt>
      <trkpt lat="45.02507" lon="5.41165">
        <ele>1145</ele>
        <time>2019-06-15T10:08:10.080Z</time>
      </trkpt>
      <trkpt lat="45.02508" lon="5.41167">
        <ele>1144</ele>
        <time>2019-06-15T10:08:11.080Z</time>
      </trkpt>
      <trkpt lat="45.02509" lon="5.4117">
        <ele>1143</ele>
        <time>2019-06-15T10:08:12.080Z</time>
      </trkpt>
      <trkpt lat="45.02509" lon="5.41173">
        <ele>1142</ele>
        <time>2019-06-15T10:08:13.080Z</time>
      </trkpt>
      <trkpt lat="45.0251" lon="5.41175">
        <ele>1142</ele>
        <time>2019-06-15T10:08:14.080Z</time>
      </trkpt>
      <trkpt lat="45.0251" lon="5.41179">
        <ele>1142</ele>
        <time>2019-06-15T10:08:15.080Z</time>
      </trkpt>
      <trkpt lat="45.02511" lon="5.41182">
        <ele>1140</ele>
        <time>2019-06-15T10:08:16.080Z</time>
      </trkpt>
      <trkpt lat="45.02511" lon="5.41187">
        <ele>1138</ele>
        <time>2019-06-15T10:08:17.080Z</time>
      </trkpt>
      <trkpt lat="45.0251" lon="5.41191">
        <ele>1137</ele>
        <time>2019-06-15T10:08:18.080Z</time>
      </trkpt>
      <trkpt lat="45.0251" lon="5.41195">
        <ele>1136</ele>
        <time>2019-06-15T10:08:19.080Z</time>
      </trkpt>
      <trkpt lat="45.02509" lon="5.41198">
        <ele>1136</ele>
        <time>2019-06-15T10:08:20.080Z</time>
      </trkpt>
      <trkpt lat="45.02508" lon="5.41201">
        <ele>1135</ele>
        <time>2019-06-15T10:08:21.080Z</time>
      </trkpt>
      <trkpt lat="45.02507" lon="5.41204">
        <ele>1134</ele>
        <time>2019-06-15T10:08:22.080Z</time>
      </trkpt>
      <trkpt lat="45.02506" lon="5.41207">
        <ele>1134</ele>
        <time>2019-06-15T10:08:23.080Z</time>
      </trkpt>
      <trkpt lat="45.02505" lon="5.41209">
        <ele>1134</ele>
        <time>2019-06-15T10:08:24.080Z</time>
      </trkpt>
      <trkpt lat="45.02504" lon="5.41212">
        <ele>1133</ele>
        <time>2019-06-15T10:08:25.080Z</time>
      </trkpt>
      <trkpt lat="45.02504" lon="5.41215">
        <ele>1133</ele>
        <time>2019-06-15T10:08:26.080Z</time>
      </trkpt>
      <trkpt lat="45.02504" lon="5.41218">
        <ele>1132</ele>
        <time>2019-06-15T10:08:27.080Z</time>
      </trkpt>
      <trkpt lat="45.02503" lon="5.4122">
        <ele>1131</ele>
        <time>2019-06-15T10:08:28.080Z</time>
      </trkpt>
      <trkpt lat="45.02502" lon="5.41222">
        <ele>1130</ele>
        <time>2019-06-15T10:08:29.080Z</time>
      </trkpt>
      <trkpt lat="45.02501" lon="5.41224">
        <ele>1129</ele>
        <time>2019-06-15T10:08:30.080Z</time>
      </trkpt>
      <trkpt lat="45.02501" lon="5.41226">
        <ele>1128</ele>
        <time>2019-06-15T10:08:31.080Z</time>
      </trkpt>
      <trkpt lat="45.02499" lon="5.41228">
        <ele>1129</ele>
        <time>2019-06-15T10:08:32.080Z</time>
      </trkpt>
      <trkpt lat="45.02498" lon="5.41231">
        <ele>1129</ele>
        <time>2019-06-15T10:08:33.080Z</time>
      </trkpt>
      <trkpt lat="45.02496" lon="5.41234">
        <ele>1130</ele>
        <time>2019-06-15T10:08:34.080Z</time>
      </trkpt>
      <trkpt lat="45.02494" lon="5.41236">
        <ele>1129</ele>
        <time>2019-06-15T10:08:35.080Z</time>
      </trkpt>
      <trkpt lat="45.02492" lon="5.41239">
        <ele>1129</ele>
        <time>2019-06-15T10:08:36.080Z</time>
      </trkpt>
      <trkpt lat="45.02491" lon="5.41242">
        <ele>1129</ele>
        <time>2019-06-15T10:08:37.080Z</time>
      </trkpt>
      <trkpt lat="45.0249" lon="5.41244">
        <ele>1129</ele>
        <time>2019-06-15T10:08:38.080Z</time>
      </trkpt>
      <trkpt lat="45.02489" lon="5.41247">
        <ele>1129</ele>
        <time>2019-06-15T10:08:39.080Z</time>
      </trkpt>
      <trkpt lat="45.02488" lon="5.41249">
        <ele>1128</ele>
        <time>2019-06-15T10:08:40.080Z</time>
      </trkpt>
      <trkpt lat="45.02487" lon="5.41251">
        <ele>1128</ele>
        <time>2019-06-15T10:08:41.080Z</time>
      </trkpt>
      <trkpt lat="45.02485" lon="5.41253">
        <ele>1128</ele>
        <time>2019-06-15T10:08:42.080Z</time>
      </trkpt>
      <trkpt lat="45.02484" lon="5.41254">
        <ele>1129</ele>
        <time>2019-06-15T10:08:43.080Z</time>
      </trkpt>
      <trkpt lat="45.02483" lon="5.41257">
        <ele>1128</ele>
        <time>2019-06-15T10:08:44.080Z</time>
      </trkpt>
      <trkpt lat="45.02482" lon="5.41259">
        <ele>1127</ele>
        <time>2019-06-15T10:08:45.080Z</time>
      </trkpt>
      <trkpt lat="45.02481" lon="5.41261">
        <ele>1126</ele>
        <time>2019-06-15T10:08:46.080Z</time>
      </trkpt>
      <trkpt lat="45.02481" lon="5.41262">
        <ele>1126</ele>
        <time>2019-06-15T10:08:47.080Z</time>
      </trkpt>
      <trkpt lat="45.0248" lon="5.41264">
        <ele>1125</ele>
        <time>2019-06-15T10:08:48.080Z</time>
      </trkpt>
      <trkpt lat="45.02478" lon="5.41266">
        <ele>1125</ele>
        <time>2019-06-15T10:08:49.080Z</time>
      </trkpt>
      <trkpt lat="45.02477" lon="5.41269">
        <ele>1125</ele>
        <time>2019-06-15T10:08:50.080Z</time>
      </trkpt>
      <trkpt lat="45.02476" lon="5.41272">
        <ele>1124</ele>
        <time>2019-06-15T10:08:51.080Z</time>
      </trkpt>
      <trkpt lat="45.02474" lon="5.41274">
        <ele>1124</ele>
        <time>2019-06-15T10:08:52.080Z</time>
      </trkpt>
      <trkpt lat="45.02472" lon="5.41277">
        <ele>1123</ele>
        <time>2019-06-15T10:08:53.080Z</time>
      </trkpt>
      <trkpt lat="45.0247" lon="5.4128">
        <ele>1124</ele>
        <time>2019-06-15T10:08:54.080Z</time>
      </trkpt>
      <trkpt lat="45.02469" lon="5.41284">
        <ele>1124</ele>
        <time>2019-06-15T10:08:55.080Z</time>
      </trkpt>
      <trkpt lat="45.02468" lon="5.41288">
        <ele>1124</ele>
        <time>2019-06-15T10:08:56.080Z</time>
      </trkpt>
      <trkpt lat="45.02467" lon="5.4129">
        <ele>1123</ele>
        <time>2019-06-15T10:08:57.080Z</time>
      </trkpt>
      <trkpt lat="45.02465" lon="5.41293">
        <ele>1122</ele>
        <time>2019-06-15T10:08:58.080Z</time>
      </trkpt>
      <trkpt lat="45.02464" lon="5.41295">
        <ele>1122</ele>
        <time>2019-06-15T10:08:59.080Z</time>
      </trkpt>
      <trkpt lat="45.02463" lon="5.41296">
        <ele>1121</ele>
        <time>2019-06-15T10:09:00.080Z</time>
      </trkpt>
      <trkpt lat="45.02461" lon="5.41298">
        <ele>1121</ele>
        <time>2019-06-15T10:09:01.080Z</time>
      </trkpt>
      <trkpt lat="45.0246" lon="5.41301">
        <ele>1122</ele>
        <time>2019-06-15T10:09:02.080Z</time>
      </trkpt>
      <trkpt lat="45.02459" lon="5.41303">
        <ele>1121</ele>
        <time>2019-06-15T10:09:03.080Z</time>
      </trkpt>
      <trkpt lat="45.02459" lon="5.41306">
        <ele>1121</ele>
        <time>2019-06-15T10:09:04.080Z</time>
      </trkpt>
      <trkpt lat="45.02457" lon="5.41308">
        <ele>1120</ele>
        <time>2019-06-15T10:09:05.080Z</time>
      </trkpt>
      <trkpt lat="45.02456" lon="5.4131">
        <ele>1120</ele>
        <time>2019-06-15T10:09:06.080Z</time>
      </trkpt>
      <trkpt lat="45.02454" lon="5.41312">
        <ele>1120</ele>
        <time>2019-06-15T10:09:07.080Z</time>
      </trkpt>
      <trkpt lat="45.02452" lon="5.41313">
        <ele>1119</ele>
        <time>2019-06-15T10:09:08.080Z</time>
      </trkpt>
      <trkpt lat="45.0245" lon="5.41315">
        <ele>1119</ele>
        <time>2019-06-15T10:09:09.080Z</time>
      </trkpt>
      <trkpt lat="45.02448" lon="5.41316">
        <ele>1120</ele>
        <time>2019-06-15T10:09:10.080Z</time>
      </trkpt>
      <trkpt lat="45.02446" lon="5.41318">
        <ele>1119</ele>
        <time>2019-06-15T10:09:11.080Z</time>
      </trkpt>
      <trkpt lat="45.02444" lon="5.41321">
        <ele>1118</ele>
        <time>2019-06-15T10:09:12.080Z</time>
      </trkpt>
      <trkpt lat="45.02443" lon="5.41323">
        <ele>1118</ele>
        <time>2019-06-15T10:09:13.080Z</time>
      </trkpt>
      <trkpt lat="45.02441" lon="5.41324">
        <ele>1117</ele>
        <time>2019-06-15T10:09:14.080Z</time>
      </trkpt>
      <trkpt lat="45.0244" lon="5.41326">
        <ele>1117</ele>
        <time>2019-06-15T10:09:15.080Z</time>
      </trkpt>
      <trkpt lat="45.02438" lon="5.41327">
        <ele>1116</ele>
        <time>2019-06-15T10:09:16.080Z</time>
      </trkpt>
      <trkpt lat="45.02436" lon="5.41329">
        <ele>1115</ele>
        <time>2019-06-15T10:09:17.080Z</time>
      </trkpt>
      <trkpt lat="45.02435" lon="5.4133">
        <ele>1115</ele>
        <time>2019-06-15T10:09:18.080Z</time>
      </trkpt>
      <trkpt lat="45.02433" lon="5.41331">
        <ele>1114</ele>
        <time>2019-06-15T10:09:19.080Z</time>
      </trkpt>
      <trkpt lat="45.02432" lon="5.41333">
        <ele>1115</ele>
        <time>2019-06-15T10:09:20.080Z</time>
      </trkpt>
      <trkpt lat="45.02431" lon="5.41335">
        <ele>1115</ele>
        <time>2019-06-15T10:09:21.080Z</time>
      </trkpt>
      <trkpt lat="45.0243" lon="5.41338">
        <ele>1114</ele>
        <time>2019-06-15T10:09:22.080Z</time>
      </trkpt>
      <trkpt lat="45.02429" lon="5.4134">
        <ele>1113</ele>
        <time>2019-06-15T10:09:23.080Z</time>
      </trkpt>
      <trkpt lat="45.02428" lon="5.41341">
        <ele>1112</ele>
        <time>2019-06-15T10:09:24.080Z</time>
      </trkpt>
      <trkpt lat="45.02426" lon="5.41343">
        <ele>1111</ele>
        <time>2019-06-15T10:09:25.080Z</time>
      </trkpt>
      <trkpt lat="45.02425" lon="5.41345">
        <ele>1110</ele>
        <time>2019-06-15T10:09:26.080Z</time>
      </trkpt>
      <trkpt lat="45.02423" lon="5.41346">
        <ele>1110</ele>
        <time>2019-06-15T10:09:27.080Z</time>
      </trkpt>
      <trkpt lat="45.02422" lon="5.41348">
        <ele>1109</ele>
        <time>2019-06-15T10:09:28.080Z</time>
      </trkpt>
      <trkpt lat="45.0242" lon="5.41349">
        <ele>1108</ele>
        <time>2019-06-15T10:09:29.080Z</time>
      </trkpt>
      <trkpt lat="45.02418" lon="5.41351">
        <ele>1107</ele>
        <time>2019-06-15T10:09:30.080Z</time>
      </trkpt>
      <trkpt lat="45.02417" lon="5.41353">
        <ele>1107</ele>
        <time>2019-06-15T10:09:31.080Z</time>
      </trkpt>
      <trkpt lat="45.02416" lon="5.41355">
        <ele>1106</ele>
        <time>2019-06-15T10:09:32.080Z</time>
      </trkpt>
      <trkpt lat="45.02414" lon="5.41358">
        <ele>1105</ele>
        <time>2019-06-15T10:09:33.080Z</time>
      </trkpt>
      <trkpt lat="45.02413" lon="5.41362">
        <ele>1105</ele>
        <time>2019-06-15T10:09:34.080Z</time>
      </trkpt>
      <trkpt lat="45.02411" lon="5.41366">
        <ele>1104</ele>
        <time>2019-06-15T10:09:35.080Z</time>
      </trkpt>
      <trkpt lat="45.0241" lon="5.41369">
        <ele>1103</ele>
        <time>2019-06-15T10:09:36.080Z</time>
      </trkpt>
      <trkpt lat="45.02409" lon="5.41372">
        <ele>1103</ele>
        <time>2019-06-15T10:09:37.080Z</time>
      </trkpt>
      <trkpt lat="45.02408" lon="5.41374">
        <ele>1102</ele>
        <time>2019-06-15T10:09:38.080Z</time>
      </trkpt>
      <trkpt lat="45.02406" lon="5.41376">
        <ele>1101</ele>
        <time>2019-06-15T10:09:39.080Z</time>
      </trkpt>
      <trkpt lat="45.02405" lon="5.41379">
        <ele>1101</ele>
        <time>2019-06-15T10:09:40.080Z</time>
      </trkpt>
      <trkpt lat="45.02403" lon="5.41381">
        <ele>1101</ele>
        <time>2019-06-15T10:09:41.080Z</time>
      </trkpt>
      <trkpt lat="45.02402" lon="5.41384">
        <ele>1100</ele>
        <time>2019-06-15T10:09:42.080Z</time>
      </trkpt>
      <trkpt lat="45.024" lon="5.41387">
        <ele>1100</ele>
        <time>2019-06-15T10:09:43.080Z</time>
      </trkpt>
      <trkpt lat="45.02399" lon="5.4139">
        <ele>1099</ele>
        <time>2019-06-15T10:09:44.080Z</time>
      </trkpt>
      <trkpt lat="45.02398" lon="5.41393">
        <ele>1099</ele>
        <time>2019-06-15T10:09:45.080Z</time>
      </trkpt>
      <trkpt lat="45.02397" lon="5.41395">
        <ele>1100</ele>
        <time>2019-06-15T10:09:46.080Z</time>
      </trkpt>
      <trkpt lat="45.02396" lon="5.41398">
        <ele>1099</ele>
        <time>2019-06-15T10:09:47.080Z</time>
      </trkpt>
      <trkpt lat="45.02395" lon="5.41401">
        <ele>1099</ele>
        <time>2019-06-15T10:09:48.080Z</time>
      </trkpt>
      <trkpt lat="45.02393" lon="5.41403">
        <ele>1098</ele>
        <time>2019-06-15T10:09:49.080Z</time>
      </trkpt>
      <trkpt lat="45.02392" lon="5.41406">
        <ele>1098</ele>
        <time>2019-06-15T10:09:50.080Z</time>
      </trkpt>
      <trkpt lat="45.02391" lon="5.41409">
        <ele>1097</ele>
        <time>2019-06-15T10:09:51.080Z</time>
      </trkpt>
      <trkpt lat="45.0239" lon="5.41412">
        <ele>1096</ele>
        <time>2019-06-15T10:09:52.080Z</time>
      </trkpt>
      <trkpt lat="45.0239" lon="5.41415">
        <ele>1096</ele>
        <time>2019-06-15T10:09:53.080Z</time>
      </trkpt>
      <trkpt lat="45.02389" lon="5.41418">
        <ele>1096</ele>
        <time>2019-06-15T10:09:54.080Z</time>
      </trkpt>
      <trkpt lat="45.02388" lon="5.41422">
        <ele>1095</ele>
        <time>2019-06-15T10:09:55.080Z</time>
      </trkpt>
      <trkpt lat="45.02388" lon="5.41425">
        <ele>1095</ele>
        <time>2019-06-15T10:09:56.080Z</time>
      </trkpt>
      <trkpt lat="45.02387" lon="5.41428">
        <ele>1094</ele>
        <time>2019-06-15T10:09:57.080Z</time>
      </trkpt>
      <trkpt lat="45.02386" lon="5.41431">
        <ele>1094</ele>
        <time>2019-06-15T10:09:58.080Z</time>
      </trkpt>
      <trkpt lat="45.02386" lon="5.41435">
        <ele>1095</ele>
        <time>2019-06-15T10:09:59.080Z</time>
      </trkpt>
      <trkpt lat="45.02385" lon="5.41438">
        <ele>1094</ele>
        <time>2019-06-15T10:10:00.080Z</time>
      </trkpt>
      <trkpt lat="45.02385" lon="5.41442">
        <ele>1093</ele>
        <time>2019-06-15T10:10:01.080Z</time>
      </trkpt>
      <trkpt lat="45.02385" lon="5.41445">
        <ele>1092</ele>
        <time>2019-06-15T10:10:02.080Z</time>
      </trkpt>
      <trkpt lat="45.02384" lon="5.41448">
        <ele>1091</ele>
        <time>2019-06-15T10:10:03.080Z</time>
      </trkpt>
      <trkpt lat="45.02384" lon="5.41451">
        <ele>1091</ele>
        <time>2019-06-15T10:10:04.080Z</time>
      </trkpt>
      <trkpt lat="45.02384" lon="5.41454">
        <ele>1091</ele>
        <time>2019-06-15T10:10:05.080Z</time>
      </trkpt>
      <trkpt lat="45.02383" lon="5.41458">
        <ele>1090</ele>
        <time>2019-06-15T10:10:06.080Z</time>
      </trkpt>
      <trkpt lat="45.02383" lon="5.41461">
        <ele>1090</ele>
        <time>2019-06-15T10:10:07.080Z</time>
      </trkpt>
      <trkpt lat="45.02382" lon="5.41464">
        <ele>1089</ele>
        <time>2019-06-15T10:10:08.080Z</time>
      </trkpt>
      <trkpt lat="45.02381" lon="5.41466">
        <ele>1089</ele>
        <time>2019-06-15T10:10:09.080Z</time>
      </trkpt>
      <trkpt lat="45.02381" lon="5.41469">
        <ele>1088</ele>
        <time>2019-06-15T10:10:10.080Z</time>
      </trkpt>
      <trkpt lat="45.0238" lon="5.41473">
        <ele>1088</ele>
        <time>2019-06-15T10:10:11.080Z</time>
      </trkpt>
      <trkpt lat="45.02379" lon="5.41476">
        <ele>1086</ele>
        <time>2019-06-15T10:10:12.080Z</time>
      </trkpt>
      <trkpt lat="45.02379" lon="5.41479">
        <ele>1086</ele>
        <time>2019-06-15T10:10:13.080Z</time>
      </trkpt>
      <trkpt lat="45.02378" lon="5.41482">
        <ele>1085</ele>
        <time>2019-06-15T10:10:14.080Z</time>
      </trkpt>
      <trkpt lat="45.02377" lon="5.41485">
        <ele>1084</ele>
        <time>2019-06-15T10:10:15.080Z</time>
      </trkpt>
      <trkpt lat="45.02377" lon="5.41489">
        <ele>1084</ele>
        <time>2019-06-15T10:10:16.080Z</time>
      </trkpt>
      <trkpt lat="45.02377" lon="5.41492">
        <ele>1083</ele>
        <time>2019-06-15T10:10:17.080Z</time>
      </trkpt>
      <trkpt lat="45.02376" lon="5.41495">
        <ele>1082</ele>
        <time>2019-06-15T10:10:18.080Z</time>
      </trkpt>
      <trkpt lat="45.02375" lon="5.41499">
        <ele>1082</ele>
        <time>2019-06-15T10:10:19.080Z</time>
      </trkpt>
      <trkpt lat="45.02374" lon="5.41502">
        <ele>1081</ele>
        <time>2019-06-15T10:10:20.080Z</time>
      </trkpt>
      <trkpt lat="45.02374" lon="5.41505">
        <ele>1080</ele>
        <time>2019-06-15T10:10:21.080Z</time>
      </trkpt>
      <trkpt lat="45.02373" lon="5.41508">
        <ele>1080</ele>
        <time>2019-06-15T10:10:22.080Z</time>
      </trkpt>
      <trkpt lat="45.02372" lon="5.41512">
        <ele>1080</ele>
        <time>2019-06-15T10:10:23.080Z</time>
      </trkpt>
      <trkpt lat="45.02371" lon="5.41515">
        <ele>1080</ele>
        <time>2019-06-15T10:10:24.080Z</time>
      </trkpt>
      <trkpt lat="45.02371" lon="5.41519">
        <ele>1080</ele>
        <time>2019-06-15T10:10:25.080Z</time>
      </trkpt>
      <trkpt lat="45.0237" lon="5.41522">
        <ele>1079</ele>
        <time>2019-06-15T10:10:26.080Z</time>
      </trkpt>
      <trkpt lat="45.02369" lon="5.41525">
        <ele>1080</ele>
        <time>2019-06-15T10:10:27.080Z</time>
      </trkpt>
      <trkpt lat="45.02368" lon="5.41528">
        <ele>1080</ele>
        <time>2019-06-15T10:10:28.080Z</time>
      </trkpt>
      <trkpt lat="45.02367" lon="5.41532">
        <ele>1080</ele>
        <time>2019-06-15T10:10:29.080Z</time>
      </trkpt>
      <trkpt lat="45.02366" lon="5.41535">
        <ele>1080</ele>
        <time>2019-06-15T10:10:30.080Z</time>
      </trkpt>
      <trkpt lat="45.02366" lon="5.41539">
        <ele>1080</ele>
        <time>2019-06-15T10:10:31.080Z</time>
      </trkpt>
      <trkpt lat="45.02366" lon="5.41543">
        <ele>1079</ele>
        <time>2019-06-15T10:10:32.080Z</time>
      </trkpt>
      <trkpt lat="45.02365" lon="5.41546">
        <ele>1079</ele>
        <time>2019-06-15T10:10:33.080Z</time>
      </trkpt>
      <trkpt lat="45.02365" lon="5.41549">
        <ele>1078</ele>
        <time>2019-06-15T10:10:34.080Z</time>
      </trkpt>
      <trkpt lat="45.02365" lon="5.41552">
        <ele>1078</ele>
        <time>2019-06-15T10:10:35.080Z</time>
      </trkpt>
      <trkpt lat="45.02365" lon="5.41555">
        <ele>1079</ele>
        <time>2019-06-15T10:10:36.080Z</time>
      </trkpt>
      <trkpt lat="45.02365" lon="5.41558">
        <ele>1078</ele>
        <time>2019-06-15T10:10:37.080Z</time>
      </trkpt>
      <trkpt lat="45.02366" lon="5.41561">
        <ele>1078</ele>
        <time>2019-06-15T10:10:38.080Z</time>
      </trkpt>
      <trkpt lat="45.02367" lon="5.41564">
        <ele>1079</ele>
        <time>2019-06-15T10:10:39.080Z</time>
      </trkpt>
      <trkpt lat="45.02368" lon="5.41567">
        <ele>1079</ele>
        <time>2019-06-15T10:10:40.080Z</time>
      </trkpt>
      <trkpt lat="45.02369" lon="5.4157">
        <ele>1078</ele>
        <time>2019-06-15T10:10:41.080Z</time>
      </trkpt>
      <trkpt lat="45.0237" lon="5.41574">
        <ele>1079</ele>
        <time>2019-06-15T10:10:42.080Z</time>
      </trkpt>
      <trkpt lat="45.0237" lon="5.41578">
        <ele>1078</ele>
        <time>2019-06-15T10:10:43.080Z</time>
      </trkpt>
      <trkpt lat="45.0237" lon="5.41581">
        <ele>1079</ele>
        <time>2019-06-15T10:10:44.080Z</time>
      </trkpt>
      <trkpt lat="45.0237" lon="5.41585">
        <ele>1078</ele>
        <time>2019-06-15T10:10:45.080Z</time>
      </trkpt>
      <trkpt lat="45.02371" lon="5.41589">
        <ele>1078</ele>
        <time>2019-06-15T10:10:46.080Z</time>
      </trkpt>
      <trkpt lat="45.02371" lon="5.41593">
        <ele>1078</ele>
        <time>2019-06-15T10:10:47.080Z</time>
      </trkpt>
      <trkpt lat="45.02372" lon="5.41596">
        <ele>1077</ele>
        <time>2019-06-15T10:10:48.080Z</time>
      </trkpt>
      <trkpt lat="45.02372" lon="5.416">
        <ele>1077</ele>
        <time>2019-06-15T10:10:49.080Z</time>
      </trkpt>
      <trkpt lat="45.02373" lon="5.41604">
        <ele>1078</ele>
        <time>2019-06-15T10:10:50.080Z</time>
      </trkpt>
      <trkpt lat="45.02374" lon="5.41607">
        <ele>1078</ele>
        <time>2019-06-15T10:10:51.080Z</time>
      </trkpt>
      <trkpt lat="45.02375" lon="5.41611">
        <ele>1077</ele>
        <time>2019-06-15T10:10:52.080Z</time>
      </trkpt>
      <trkpt lat="45.02376" lon="5.41614">
        <ele>1077</ele>
        <time>2019-06-15T10:10:53.080Z</time>
      </trkpt>
      <trkpt lat="45.02376" lon="5.41617">
        <ele>1076</ele>
        <time>2019-06-15T10:10:54.080Z</time>
      </trkpt>
      <trkpt lat="45.02377" lon="5.41621">
        <ele>1075</ele>
        <time>2019-06-15T10:10:55.080Z</time>
      </trkpt>
      <trkpt lat="45.02377" lon="5.41625">
        <ele>1075</ele>
        <time>2019-06-15T10:10:56.080Z</time>
      </trkpt>
      <trkpt lat="45.02378" lon="5.41628">
        <ele>1074</ele>
        <time>2019-06-15T10:10:57.080Z</time>
      </trkpt>
      <trkpt lat="45.02379" lon="5.41632">
        <ele>1073</ele>
        <time>2019-06-15T10:10:58.080Z</time>
      </trkpt>
      <trkpt lat="45.0238" lon="5.41637">
        <ele>1074</ele>
        <time>2019-06-15T10:10:59.080Z</time>
      </trkpt>
      <trkpt lat="45.02381" lon="5.41641">
        <ele>1074</ele>
        <time>2019-06-15T10:11:00.080Z</time>
      </trkpt>
      <trkpt lat="45.02381" lon="5.41645">
        <ele>1074</ele>
        <time>2019-06-15T10:11:01.080Z</time>
      </trkpt>
      <trkpt lat="45.02381" lon="5.4165">
        <ele>1074</ele>
        <time>2019-06-15T10:11:02.080Z</time>
      </trkpt>
      <trkpt lat="45.0238" lon="5.41654">
        <ele>1074</ele>
        <time>2019-06-15T10:11:03.080Z</time>
      </trkpt>
      <trkpt lat="45.0238" lon="5.41658">
        <ele>1073</ele>
        <time>2019-06-15T10:11:04.080Z</time>
      </trkpt>
      <trkpt lat="45.0238" lon="5.41662">
        <ele>1072</ele>
        <time>2019-06-15T10:11:05.080Z</time>
      </trkpt>
      <trkpt lat="45.0238" lon="5.41666">
        <ele>1071</ele>
        <time>2019-06-15T10:11:06.080Z</time>
      </trkpt>
      <trkpt lat="45.0238" lon="5.41669">
        <ele>1071</ele>
        <time>2019-06-15T10:11:07.080Z</time>
      </trkpt>
      <trkpt lat="45.02379" lon="5.41673">
        <ele>1070</ele>
        <time>2019-06-15T10:11:08.080Z</time>
      </trkpt>
      <trkpt lat="45.0238" lon="5.41677">
        <ele>1070</ele>
        <time>2019-06-15T10:11:09.080Z</time>
      </trkpt>
      <trkpt lat="45.0238" lon="5.41681">
        <ele>1070</ele>
        <time>2019-06-15T10:11:10.080Z</time>
      </trkpt>
      <trkpt lat="45.0238" lon="5.41686">
        <ele>1071</ele>
        <time>2019-06-15T10:11:11.080Z</time>
      </trkpt>
      <trkpt lat="45.02381" lon="5.4169">
        <ele>1070</ele>
        <time>2019-06-15T10:11:12.080Z</time>
      </trkpt>
      <trkpt lat="45.02381" lon="5.41694">
        <ele>1071</ele>
        <time>2019-06-15T10:11:13.080Z</time>
      </trkpt>
      <trkpt lat="45.02381" lon="5.41698">
        <ele>1071</ele>
        <time>2019-06-15T10:11:14.080Z</time>
      </trkpt>
      <trkpt lat="45.02381" lon="5.41702">
        <ele>1071</ele>
        <time>2019-06-15T10:11:15.080Z</time>
      </trkpt>
      <trkpt lat="45.02381" lon="5.41707">
        <ele>1071</ele>
        <time>2019-06-15T10:11:16.080Z</time>
      </trkpt>
      <trkpt lat="45.02381" lon="5.41712">
        <ele>1071</ele>
        <time>2019-06-15T10:11:17.080Z</time>
      </trkpt>
      <trkpt lat="45.02381" lon="5.41716">
        <ele>1071</ele>
        <time>2019-06-15T10:11:18.080Z</time>
      </trkpt>
      <trkpt lat="45.02381" lon="5.4172">
        <ele>1071</ele>
        <time>2019-06-15T10:11:19.080Z</time>
      </trkpt>
      <trkpt lat="45.02381" lon="5.41725">
        <ele>1071</ele>
        <time>2019-06-15T10:11:20.080Z</time>
      </trkpt>
      <trkpt lat="45.02382" lon="5.41729">
        <ele>1071</ele>
        <time>2019-06-15T10:11:21.080Z</time>
      </trkpt>
      <trkpt lat="45.02383" lon="5.41732">
        <ele>1070</ele>
        <time>2019-06-15T10:11:22.080Z</time>
      </trkpt>
      <trkpt lat="45.02385" lon="5.41736">
        <ele>1070</ele>
        <time>2019-06-15T10:11:23.080Z</time>
      </trkpt>
      <trkpt lat="45.02386" lon="5.41741">
        <ele>1070</ele>
        <time>2019-06-15T10:11:24.080Z</time>
      </trkpt>
      <trkpt lat="45.02387" lon="5.41745">
        <ele>1069</ele>
        <time>2019-06-15T10:11:25.080Z</time>
      </trkpt>
      <trkpt lat="45.02387" lon="5.4175">
        <ele>1066</ele>
        <time>2019-06-15T10:11:26.080Z</time>
      </trkpt>
      <trkpt lat="45.02387" lon="5.41755">
        <ele>1066</ele>
        <time>2019-06-15T10:11:27.080Z</time>
      </trkpt>
      <trkpt lat="45.02388" lon="5.41759">
        <ele>1066</ele>
        <time>2019-06-15T10:11:28.080Z</time>
      </trkpt>
      <trkpt lat="45.02389" lon="5.41764">
        <ele>1066</ele>
        <time>2019-06-15T10:11:29.080Z</time>
      </trkpt>
      <trkpt lat="45.0239" lon="5.41768">
        <ele>1065</ele>
        <time>2019-06-15T10:11:30.080Z</time>
      </trkpt>
      <trkpt lat="45.02391" lon="5.41773">
        <ele>1064</ele>
        <time>2019-06-15T10:11:31.080Z</time>
      </trkpt>
      <trkpt lat="45.02392" lon="5.41777">
        <ele>1063</ele>
        <time>2019-06-15T10:11:32.080Z</time>
      </trkpt>
      <trkpt lat="45.02393" lon="5.41781">
        <ele>1063</ele>
        <time>2019-06-15T10:11:33.080Z</time>
      </trkpt>
      <trkpt lat="45.02394" lon="5.41785">
        <ele>1063</ele>
        <time>2019-06-15T10:11:34.080Z</time>
      </trkpt>
      <trkpt lat="45.02395" lon="5.41789">
        <ele>1062</ele>
        <time>2019-06-15T10:11:35.080Z</time>
      </trkpt>
      <trkpt lat="45.02395" lon="5.41793">
        <ele>1062</ele>
        <time>2019-06-15T10:11:36.080Z</time>
      </trkpt>
      <trkpt lat="45.02395" lon="5.41797">
        <ele>1062</ele>
        <time>2019-06-15T10:11:37.080Z</time>
      </trkpt>
      <trkpt lat="45.02394" lon="5.418">
        <ele>1061</ele>
        <time>2019-06-15T10:11:38.080Z</time>
      </trkpt>
      <trkpt lat="45.02394" lon="5.41803">
        <ele>1060</ele>
        <time>2019-06-15T10:11:39.080Z</time>
      </trkpt>
      <trkpt lat="45.02393" lon="5.41806">
        <ele>1060</ele>
        <time>2019-06-15T10:11:40.080Z</time>
      </trkpt>
      <trkpt lat="45.02393" lon="5.41809">
        <ele>1060</ele>
        <time>2019-06-15T10:11:41.080Z</time>
      </trkpt>
      <trkpt lat="45.02393" lon="5.41812">
        <ele>1060</ele>
        <time>2019-06-15T10:11:42.080Z</time>
      </trkpt>
      <trkpt lat="45.02393" lon="5.41815">
        <ele>1060</ele>
        <time>2019-06-15T10:11:43.080Z</time>
      </trkpt>
      <trkpt lat="45.02392" lon="5.41818">
        <ele>1059</ele>
        <time>2019-06-15T10:11:44.080Z</time>
      </trkpt>
      <trkpt lat="45.02392" lon="5.41821">
        <ele>1059</ele>
        <time>2019-06-15T10:11:45.080Z</time>
      </trkpt>
      <trkpt lat="45.02391" lon="5.41823">
        <ele>1059</ele>
        <time>2019-06-15T10:11:46.080Z</time>
      </trkpt>
      <trkpt lat="45.0239" lon="5.41826">
        <ele>1058</ele>
        <time>2019-06-15T10:11:47.080Z</time>
      </trkpt>
      <trkpt lat="45.0239" lon="5.41828">
        <ele>1058</ele>
        <time>2019-06-15T10:11:48.080Z</time>
      </trkpt>
      <trkpt lat="45.02389" lon="5.41831">
        <ele>1057</ele>
        <time>2019-06-15T10:11:49.080Z</time>
      </trkpt>
      <trkpt lat="45.02388" lon="5.41834">
        <ele>1057</ele>
        <time>2019-06-15T10:11:50.080Z</time>
      </trkpt>
      <trkpt lat="45.02386" lon="5.41836">
        <ele>1056</ele>
        <time>2019-06-15T10:11:51.080Z</time>
      </trkpt>
      <trkpt lat="45.02385" lon="5.41839">
        <ele>1055</ele>
        <time>2019-06-15T10:11:52.080Z</time>
      </trkpt>
      <trkpt lat="45.02384" lon="5.41842">
        <ele>1054</ele>
        <time>2019-06-15T10:11:53.080Z</time>
      </trkpt>
      <trkpt lat="45.02382" lon="5.41844">
        <ele>1054</ele>
        <time>2019-06-15T10:11:54.080Z</time>
      </trkpt>
      <trkpt lat="45.02381" lon="5.41847">
        <ele>1053</ele>
        <time>2019-06-15T10:11:55.080Z</time>
      </trkpt>
      <trkpt lat="45.0238" lon="5.41849">
        <ele>1052</ele>
        <time>2019-06-15T10:11:56.080Z</time>
      </trkpt>
      <trkpt lat="45.02379" lon="5.41852">
        <ele>1052</ele>
        <time>2019-06-15T10:11:57.080Z</time>
      </trkpt>
      <trkpt lat="45.02378" lon="5.41854">
        <ele>1051</ele>
        <time>2019-06-15T10:11:58.080Z</time>
      </trkpt>
      <trkpt lat="45.02377" lon="5.41857">
        <ele>1051</ele>
        <time>2019-06-15T10:11:59.080Z</time>
      </trkpt>
      <trkpt lat="45.02376" lon="5.4186">
        <ele>1050</ele>
        <time>2019-06-15T10:12:00.080Z</time>
      </trkpt>
      <trkpt lat="45.02375" lon="5.41864">
        <ele>1049</ele>
        <time>2019-06-15T10:12:01.080Z</time>
      </trkpt>
      <trkpt lat="45.02374" lon="5.41867">
        <ele>1049</ele>
        <time>2019-06-15T10:12:02.080Z</time>
      </trkpt>
      <trkpt lat="45.02372" lon="5.4187">
        <ele>1049</ele>
        <time>2019-06-15T10:12:03.080Z</time>
      </trkpt>
      <trkpt lat="45.02371" lon="5.41874">
        <ele>1049</ele>
        <time>2019-06-15T10:12:04.080Z</time>
      </trkpt>
      <trkpt lat="45.0237" lon="5.41877">
        <ele>1048</ele>
        <time>2019-06-15T10:12:05.080Z</time>
      </trkpt>
      <trkpt lat="45.02369" lon="5.41881">
        <ele>1048</ele>
        <time>2019-06-15T10:12:06.080Z</time>
      </trkpt>
      <trkpt lat="45.02368" lon="5.41884">
        <ele>1048</ele>
        <time>2019-06-15T10:12:07.080Z</time>
      </trkpt>
      <trkpt lat="45.02366" lon="5.41888">
        <ele>1048</ele>
        <time>2019-06-15T10:12:08.080Z</time>
      </trkpt>
      <trkpt lat="45.02365" lon="5.41891">
        <ele>1048</ele>
        <time>2019-06-15T10:12:09.080Z</time>
      </trkpt>
      <trkpt lat="45.02363" lon="5.41894">
        <ele>1047</ele>
        <time>2019-06-15T10:12:10.080Z</time>
      </trkpt>
      <trkpt lat="45.02362" lon="5.41898">
        <ele>1047</ele>
        <time>2019-06-15T10:12:11.080Z</time>
      </trkpt>
      <trkpt lat="45.02361" lon="5.41901">
        <ele>1046</ele>
        <time>2019-06-15T10:12:12.080Z</time>
      </trkpt>
      <trkpt lat="45.0236" lon="5.41904">
        <ele>1045</ele>
        <time>2019-06-15T10:12:13.080Z</time>
      </trkpt>
      <trkpt lat="45.02358" lon="5.41906">
        <ele>1043</ele>
        <time>2019-06-15T10:12:14.080Z</time>
      </trkpt>
      <trkpt lat="45.02356" lon="5.41908">
        <ele>1042</ele>
        <time>2019-06-15T10:12:15.080Z</time>
      </trkpt>
      <trkpt lat="45.02355" lon="5.4191">
        <ele>1041</ele>
        <time>2019-06-15T10:12:16.080Z</time>
      </trkpt>
      <trkpt lat="45.02353" lon="5.41912">
        <ele>1041</ele>
        <time>2019-06-15T10:12:17.080Z</time>
      </trkpt>
      <trkpt lat="45.02352" lon="5.41913">
        <ele>1041</ele>
        <time>2019-06-15T10:12:18.080Z</time>
      </trkpt>
      <trkpt lat="45.02351" lon="5.41915">
        <ele>1040</ele>
        <time>2019-06-15T10:12:19.080Z</time>
      </trkpt>
      <trkpt lat="45.02349" lon="5.41917">
        <ele>1040</ele>
        <time>2019-06-15T10:12:20.080Z</time>
      </trkpt>
      <trkpt lat="45.02347" lon="5.41919">
        <ele>1040</ele>
        <time>2019-06-15T10:12:21.080Z</time>
      </trkpt>
      <trkpt lat="45.02345" lon="5.41921">
        <ele>1039</ele>
        <time>2019-06-15T10:12:22.080Z</time>
      </trkpt>
      <trkpt lat="45.02343" lon="5.41923">
        <ele>1038</ele>
        <time>2019-06-15T10:12:23.080Z</time>
      </trkpt>
      <trkpt lat="45.02341" lon="5.41924">
        <ele>1037</ele>
        <time>2019-06-15T10:12:24.080Z</time>
      </trkpt>
      <trkpt lat="45.0234" lon="5.41926">
        <ele>1036</ele>
        <time>2019-06-15T10:12:25.080Z</time>
      </trkpt>
      <trkpt lat="45.02339" lon="5.41927">
        <ele>1037</ele>
        <time>2019-06-15T10:12:26.080Z</time>
      </trkpt>
      <trkpt lat="45.02337" lon="5.41929">
        <ele>1036</ele>
        <time>2019-06-15T10:12:27.080Z</time>
      </trkpt>
      <trkpt lat="45.02335" lon="5.4193">
        <ele>1036</ele>
        <time>2019-06-15T10:12:28.080Z</time>
      </trkpt>
      <trkpt lat="45.02333" lon="5.41931">
        <ele>1036</ele>
        <time>2019-06-15T10:12:29.080Z</time>
      </trkpt>
      <trkpt lat="45.0233" lon="5.41933">
        <ele>1035</ele>
        <time>2019-06-15T10:12:30.080Z</time>
      </trkpt>
      <trkpt lat="45.02328" lon="5.41934">
        <ele>1035</ele>
        <time>2019-06-15T10:12:31.080Z</time>
      </trkpt>
      <trkpt lat="45.02327" lon="5.41936">
        <ele>1034</ele>
        <time>2019-06-15T10:12:32.080Z</time>
      </trkpt>
      <trkpt lat="45.02325" lon="5.41938">
        <ele>1034</ele>
        <time>2019-06-15T10:12:33.080Z</time>
      </trkpt>
      <trkpt lat="45.02324" lon="5.4194">
        <ele>1035</ele>
        <time>2019-06-15T10:12:34.080Z</time>
      </trkpt>
      <trkpt lat="45.02322" lon="5.41942">
        <ele>1034</ele>
        <time>2019-06-15T10:12:35.080Z</time>
      </trkpt>
      <trkpt lat="45.02321" lon="5.41945">
        <ele>1034</ele>
        <time>2019-06-15T10:12:36.080Z</time>
      </trkpt>
      <trkpt lat="45.02319" lon="5.41947">
        <ele>1033</ele>
        <time>2019-06-15T10:12:37.080Z</time>
      </trkpt>
      <trkpt lat="45.02317" lon="5.41948">
        <ele>1032</ele>
        <time>2019-06-15T10:12:38.080Z</time>
      </trkpt>
      <trkpt lat="45.02315" lon="5.4195">
        <ele>1032</ele>
        <time>2019-06-15T10:12:39.080Z</time>
      </trkpt>
      <trkpt lat="45.02313" lon="5.41951">
        <ele>1032</ele>
        <time>2019-06-15T10:12:40.080Z</time>
      </trkpt>
      <trkpt lat="45.02311" lon="5.41953">
        <ele>1032</ele>
        <time>2019-06-15T10:12:41.080Z</time>
      </trkpt>
      <trkpt lat="45.02308" lon="5.41955">
        <ele>1032</ele>
        <time>2019-06-15T10:12:42.080Z</time>
      </trkpt>
      <trkpt lat="45.02305" lon="5.41957">
        <ele>1031</ele>
        <time>2019-06-15T10:12:43.080Z</time>
      </trkpt>
      <trkpt lat="45.02302" lon="5.41958">
        <ele>1030</ele>
        <time>2019-06-15T10:12:44.080Z</time>
      </trkpt>
      <trkpt lat="45.02299" lon="5.41959">
        <ele>1030</ele>
        <time>2019-06-15T10:12:45.080Z</time>
      </trkpt>
      <trkpt lat="45.02297" lon="5.4196">
        <ele>1030</ele>
        <time>2019-06-15T10:12:46.080Z</time>
      </trkpt>
      <trkpt lat="45.02294" lon="5.41961">
        <ele>1030</ele>
        <time>2019-06-15T10:12:47.080Z</time>
      </trkpt>
      <trkpt lat="45.02292" lon="5.41962">
        <ele>1029</ele>
        <time>2019-06-15T10:12:48.080Z</time>
      </trkpt>
      <trkpt lat="45.0229" lon="5.41962">
        <ele>1028</ele>
        <time>2019-06-15T10:12:49.080Z</time>
      </trkpt>
      <trkpt lat="45.02288" lon="5.41963">
        <ele>1027</ele>
        <time>2019-06-15T10:12:50.080Z</time>
      </trkpt>
      <trkpt lat="45.02286" lon="5.41964">
        <ele>1026</ele>
        <time>2019-06-15T10:12:51.080Z</time>
      </trkpt>
      <trkpt lat="45.02284" lon="5.41965">
        <ele>1025</ele>
        <time>2019-06-15T10:12:52.080Z</time>
      </trkpt>
      <trkpt lat="45.02282" lon="5.41966">
        <ele>1023</ele>
        <time>2019-06-15T10:12:53.080Z</time>
      </trkpt>
      <trkpt lat="45.02279" lon="5.41967">
        <ele>1023</ele>
        <time>2019-06-15T10:12:54.080Z</time>
      </trkpt>
      <trkpt lat="45.02277" lon="5.41969">
        <ele>1024</ele>
        <time>2019-06-15T10:12:55.080Z</time>
      </trkpt>
      <trkpt lat="45.02274" lon="5.4197">
        <ele>1023</ele>
        <time>2019-06-15T10:12:56.080Z</time>
      </trkpt>
      <trkpt lat="45.0227" lon="5.41971">
        <ele>1022</ele>
        <time>2019-06-15T10:12:57.080Z</time>
      </trkpt>
      <trkpt lat="45.02268" lon="5.41972">
        <ele>1021</ele>
        <time>2019-06-15T10:12:58.080Z</time>
      </trkpt>
      <trkpt lat="45.02265" lon="5.41973">
        <ele>1021</ele>
        <time>2019-06-15T10:12:59.080Z</time>
      </trkpt>
      <trkpt lat="45.02262" lon="5.41974">
        <ele>1020</ele>
        <time>2019-06-15T10:13:00.080Z</time>
      </trkpt>
      <trkpt lat="45.02259" lon="5.41975">
        <ele>1020</ele>
        <time>2019-06-15T10:13:01.080Z</time>
      </trkpt>
      <trkpt lat="45.02256" lon="5.41976">
        <ele>1020</ele>
        <time>2019-06-15T10:13:02.080Z</time>
      </trkpt>
      <trkpt lat="45.02253" lon="5.41977">
        <ele>1019</ele>
        <time>2019-06-15T10:13:03.080Z</time>
      </trkpt>
      <trkpt lat="45.0225" lon="5.41978">
        <ele>1019</ele>
        <time>2019-06-15T10:13:04.080Z</time>
      </trkpt>
      <trkpt lat="45.02246" lon="5.41979">
        <ele>1019</ele>
        <time>2019-06-15T10:13:05.080Z</time>
      </trkpt>
      <trkpt lat="45.02243" lon="5.4198">
        <ele>1019</ele>
        <time>2019-06-15T10:13:06.080Z</time>
      </trkpt>
      <trkpt lat="45.02241" lon="5.41981">
        <ele>1018</ele>
        <time>2019-06-15T10:13:07.080Z</time>
      </trkpt>
      <trkpt lat="45.02238" lon="5.41982">
        <ele>1017</ele>
        <time>2019-06-15T10:13:08.080Z</time>
      </trkpt>
      <trkpt lat="45.02235" lon="5.41983">
        <ele>1018</ele>
        <time>2019-06-15T10:13:09.080Z</time>
      </trkpt>
      <trkpt lat="45.02232" lon="5.41985">
        <ele>1018</ele>
        <time>2019-06-15T10:13:10.080Z</time>
      </trkpt>
      <trkpt lat="45.0223" lon="5.41986">
        <ele>1017</ele>
        <time>2019-06-15T10:13:11.080Z</time>
      </trkpt>
      <trkpt lat="45.02227" lon="5.41988">
        <ele>1017</ele>
        <time>2019-06-15T10:13:12.080Z</time>
      </trkpt>
      <trkpt lat="45.02225" lon="5.4199">
        <ele>1017</ele>
        <time>2019-06-15T10:13:13.080Z</time>
      </trkpt>
      <trkpt lat="45.02223" lon="5.41992">
        <ele>1017</ele>
        <time>2019-06-15T10:13:14.080Z</time>
      </trkpt>
      <trkpt lat="45.02221" lon="5.41994">
        <ele>1018</ele>
        <time>2019-06-15T10:13:15.080Z</time>
      </trkpt>
      <trkpt lat="45.02218" lon="5.41997">
        <ele>1017</ele>
        <time>2019-06-15T10:13:16.080Z</time>
      </trkpt>
      <trkpt lat="45.02215" lon="5.41999">
        <ele>1016</ele>
        <time>2019-06-15T10:13:17.080Z</time>
      </trkpt>
      <trkpt lat="45.02213" lon="5.42001">
        <ele>1015</ele>
        <time>2019-06-15T10:13:18.080Z</time>
      </trkpt>
      <trkpt lat="45.0221" lon="5.42002">
        <ele>1014</ele>
        <time>2019-06-15T10:13:19.080Z</time>
      </trkpt>
      <trkpt lat="45.02208" lon="5.42004">
        <ele>1014</ele>
        <time>2019-06-15T10:13:20.080Z</time>
      </trkpt>
      <trkpt lat="45.02206" lon="5.42006">
        <ele>1014</ele>
        <time>2019-06-15T10:13:21.080Z</time>
      </trkpt>
      <trkpt lat="45.02204" lon="5.42008">
        <ele>1014</ele>
        <time>2019-06-15T10:13:22.080Z</time>
      </trkpt>
      <trkpt lat="45.02202" lon="5.4201">
        <ele>1014</ele>
        <time>2019-06-15T10:13:23.080Z</time>
      </trkpt>
      <trkpt lat="45.02199" lon="5.42012">
        <ele>1014</ele>
        <time>2019-06-15T10:13:24.080Z</time>
      </trkpt>
      <trkpt lat="45.02197" lon="5.42015">
        <ele>1014</ele>
        <time>2019-06-15T10:13:25.080Z</time>
      </trkpt>
      <trkpt lat="45.02195" lon="5.42018">
        <ele>1015</ele>
        <time>2019-06-15T10:13:26.080Z</time>
      </trkpt>
      <trkpt lat="45.02194" lon="5.42021">
        <ele>1015</ele>
        <time>2019-06-15T10:13:27.080Z</time>
      </trkpt>
      <trkpt lat="45.02192" lon="5.42023">
        <ele>1016</ele>
        <time>2019-06-15T10:13:28.080Z</time>
      </trkpt>
      <trkpt lat="45.0219" lon="5.42026">
        <ele>1015</ele>
        <time>2019-06-15T10:13:29.080Z</time>
      </trkpt>
      <trkpt lat="45.02188" lon="5.42029">
        <ele>1015</ele>
        <time>2019-06-15T10:13:30.080Z</time>
      </trkpt>
      <trkpt lat="45.02186" lon="5.42033">
        <ele>1014</ele>
        <time>2019-06-15T10:13:31.080Z</time>
      </trkpt>
      <trkpt lat="45.02184" lon="5.42036">
        <ele>1014</ele>
        <time>2019-06-15T10:13:32.080Z</time>
      </trkpt>
      <trkpt lat="45.02183" lon="5.4204">
        <ele>1013</ele>
        <time>2019-06-15T10:13:33.080Z</time>
      </trkpt>
      <trkpt lat="45.02181" lon="5.42044">
        <ele>1013</ele>
        <time>2019-06-15T10:13:34.080Z</time>
      </trkpt>
      <trkpt lat="45.0218" lon="5.42047">
        <ele>1013</ele>
        <time>2019-06-15T10:13:35.080Z</time>
      </trkpt>
      <trkpt lat="45.02179" lon="5.42051">
        <ele>1013</ele>
        <time>2019-06-15T10:13:36.080Z</time>
      </trkpt>
      <trkpt lat="45.02177" lon="5.42055">
        <ele>1013</ele>
        <time>2019-06-15T10:13:37.080Z</time>
      </trkpt>
      <trkpt lat="45.02176" lon="5.42059">
        <ele>1013</ele>
        <time>2019-06-15T10:13:38.080Z</time>
      </trkpt>
      <trkpt lat="45.02175" lon="5.42063">
        <ele>1013</ele>
        <time>2019-06-15T10:13:39.080Z</time>
      </trkpt>
      <trkpt lat="45.02174" lon="5.42067">
        <ele>1013</ele>
        <time>2019-06-15T10:13:40.080Z</time>
      </trkpt>
      <trkpt lat="45.02174" lon="5.42071">
        <ele>1013</ele>
        <time>2019-06-15T10:13:41.080Z</time>
      </trkpt>
      <trkpt lat="45.02173" lon="5.42074">
        <ele>1013</ele>
        <time>2019-06-15T10:13:42.080Z</time>
      </trkpt>
      <trkpt lat="45.02172" lon="5.42078">
        <ele>1013</ele>
        <time>2019-06-15T10:13:43.080Z</time>
      </trkpt>
      <trkpt lat="45.02171" lon="5.42082">
        <ele>1013</ele>
        <time>2019-06-15T10:13:44.080Z</time>
      </trkpt>
      <trkpt lat="45.0217" lon="5.42087">
        <ele>1013</ele>
        <time>2019-06-15T10:13:45.080Z</time>
      </trkpt>
      <trkpt lat="45.02169" lon="5.42091">
        <ele>1014</ele>
        <time>2019-06-15T10:13:46.080Z</time>
      </trkpt>
      <trkpt lat="45.02168" lon="5.42096">
        <ele>1014</ele>
        <time>2019-06-15T10:13:47.080Z</time>
      </trkpt>
      <trkpt lat="45.02166" lon="5.421">
        <ele>1015</ele>
        <time>2019-06-15T10:13:48.080Z</time>
      </trkpt>
      <trkpt lat="45.02165" lon="5.42104">
        <ele>1016</ele>
        <time>2019-06-15T10:13:49.080Z</time>
      </trkpt>
      <trkpt lat="45.02163" lon="5.42109">
        <ele>1017</ele>
        <time>2019-06-15T10:13:50.080Z</time>
      </trkpt>
      <trkpt lat="45.02162" lon="5.42113">
        <ele>1018</ele>
        <time>2019-06-15T10:13:51.080Z</time>
      </trkpt>
      <trkpt lat="45.02161" lon="5.42117">
        <ele>1019</ele>
        <time>2019-06-15T10:13:52.080Z</time>
      </trkpt>
      <trkpt lat="45.0216" lon="5.42119">
        <ele>1020</ele>
        <time>2019-06-15T10:13:53.080Z</time>
      </trkpt>
      <trkpt lat="45.0216" lon="5.42121">
        <ele>1020</ele>
        <time>2019-06-15T10:13:54.080Z</time>
      </trkpt>
      <trkpt lat="45.02161" lon="5.42122">
        <ele>1020</ele>
        <time>2019-06-15T10:13:55.080Z</time>
      </trkpt>
      <trkpt lat="45.02161" lon="5.42123">
        <ele>1020</ele>
        <time>2019-06-15T10:13:56.080Z</time>
      </trkpt>
      <trkpt lat="45.02162" lon="5.42124">
        <ele>1021</ele>
        <time>2019-06-15T10:13:57.080Z</time>
      </trkpt>
      <trkpt lat="45.02162" lon="5.42124">
        <ele>1021</ele>
        <time>2019-06-15T10:13:58.080Z</time>
      </trkpt>
      <trkpt lat="45.02162" lon="5.42125">
        <ele>1022</ele>
        <time>2019-06-15T10:13:59.080Z</time>
      </trkpt>
      <trkpt lat="45.02161" lon="5.42125">
        <ele>1023</ele>
        <time>2019-06-15T10:14:00.080Z</time>
      </trkpt>
      <trkpt lat="45.02161" lon="5.42126">
        <ele>1022</ele>
        <time>2019-06-15T10:14:01.080Z</time>
      </trkpt>
      <trkpt lat="45.02161" lon="5.42126">
        <ele>1022</ele>
        <time>2019-06-15T10:14:02.080Z</time>
      </trkpt>
      <trkpt lat="45.02161" lon="5.42127">
        <ele>1022</ele>
        <time>2019-06-15T10:14:03.080Z</time>
      </trkpt>
      <trkpt lat="45.02161" lon="5.42127">
        <ele>1022</ele>
        <time>2019-06-15T10:14:04.080Z</time>
      </trkpt>
      <trkpt lat="45.0216" lon="5.42129">
        <ele>1021</ele>
        <time>2019-06-15T10:14:05.092Z</time>
      </trkpt>
      <trkpt lat="45.0216" lon="5.42129">
        <ele>1021</ele>
        <time>2019-06-15T10:14:06.092Z</time>
      </trkpt>
      <trkpt lat="45.0216" lon="5.42129">
        <ele>1021</ele>
        <time>2019-06-15T10:14:07.092Z</time>
      </trkpt>
      <trkpt lat="45.0216" lon="5.42129">
        <ele>1021</ele>
        <time>2019-06-15T10:14:08.092Z</time>
      </trkpt>
      <trkpt lat="45.0216" lon="5.42129">
        <ele>1021</ele>
        <time>2019-06-15T10:14:09.092Z</time>
      </trkpt>
      <trkpt lat="45.02159" lon="5.4213">
        <ele>1024</ele>
        <time>2019-06-15T10:14:10.100Z</time>
      </trkpt>
      <trkpt lat="45.02158" lon="5.4213">
        <ele>1023</ele>
        <time>2019-06-15T10:14:11.100Z</time>
      </trkpt>
      <trkpt lat="45.02157" lon="5.4213">
        <ele>1023</ele>
        <time>2019-06-15T10:14:12.100Z</time>
      </trkpt>
      <trkpt lat="45.02156" lon="5.4213">
        <ele>1023</ele>
        <time>2019-06-15T10:14:13.100Z</time>
      </trkpt>
      <trkpt lat="45.02155" lon="5.4213">
        <ele>1023</ele>
        <time>2019-06-15T10:14:14.100Z</time>
      </trkpt>
      <trkpt lat="45.02154" lon="5.42131">
        <ele>1022</ele>
        <time>2019-06-15T10:14:15.100Z</time>
      </trkpt>
      <trkpt lat="45.02153" lon="5.42131">
        <ele>1022</ele>
        <time>2019-06-15T10:14:16.100Z</time>
      </trkpt>
      <trkpt lat="45.02151" lon="5.42132">
        <ele>1021</ele>
        <time>2019-06-15T10:14:17.100Z</time>
      </trkpt>
      <trkpt lat="45.0215" lon="5.42132">
        <ele>1021</ele>
        <time>2019-06-15T10:14:18.100Z</time>
      </trkpt>
      <trkpt lat="45.02149" lon="5.42132">
        <ele>1021</ele>
        <time>2019-06-15T10:14:19.100Z</time>
      </trkpt>
      <trkpt lat="45.02147" lon="5.42132">
        <ele>1021</ele>
        <time>2019-06-15T10:14:20.100Z</time>
      </trkpt>
      <trkpt lat="45.02146" lon="5.42131">
        <ele>1020</ele>
        <time>2019-06-15T10:14:21.100Z</time>
      </trkpt>
      <trkpt lat="45.02144" lon="5.4213">
        <ele>1020</ele>
        <time>2019-06-15T10:14:22.100Z</time>
      </trkpt>
      <trkpt lat="45.02141" lon="5.42128">
        <ele>1020</ele>
        <time>2019-06-15T10:14:23.100Z</time>
      </trkpt>
      <trkpt lat="45.02138" lon="5.42126">
        <ele>1019</ele>
        <time>2019-06-15T10:14:24.100Z</time>
      </trkpt>
      <trkpt lat="45.02135" lon="5.42125">
        <ele>1019</ele>
        <time>2019-06-15T10:14:25.100Z</time>
      </trkpt>
      <trkpt lat="45.02132" lon="5.42123">
        <ele>1018</ele>
        <time>2019-06-15T10:14:26.100Z</time>
      </trkpt>
      <trkpt lat="45.02128" lon="5.42122">
        <ele>1018</ele>
        <time>2019-06-15T10:14:27.100Z</time>
      </trkpt>
      <trkpt lat="45.02125" lon="5.4212">
        <ele>1018</ele>
        <time>2019-06-15T10:14:28.100Z</time>
      </trkpt>
      <trkpt lat="45.02122" lon="5.42119">
        <ele>1017</ele>
        <time>2019-06-15T10:14:29.100Z</time>
      </trkpt>
      <trkpt lat="45.02119" lon="5.42118">
        <ele>1017</ele>
        <time>2019-06-15T10:14:30.100Z</time>
      </trkpt>
      <trkpt lat="45.02116" lon="5.42118">
        <ele>1017</ele>
        <time>2019-06-15T10:14:31.100Z</time>
      </trkpt>
      <trkpt lat="45.02112" lon="5.42117">
        <ele>1017</ele>
        <time>2019-06-15T10:14:32.100Z</time>
      </trkpt>
      <trkpt lat="45.02109" lon="5.42116">
        <ele>1016</ele>
        <time>2019-06-15T10:14:33.100Z</time>
      </trkpt>
      <trkpt lat="45.02105" lon="5.42116">
        <ele>1016</ele>
        <time>2019-06-15T10:14:34.100Z</time>
      </trkpt>
      <trkpt lat="45.02102" lon="5.42115">
        <ele>1015</ele>
        <time>2019-06-15T10:14:35.100Z</time>
      </trkpt>
      <trkpt lat="45.02098" lon="5.42115">
        <ele>1015</ele>
        <time>2019-06-15T10:14:36.100Z</time>
      </trkpt>
      <trkpt lat="45.02095" lon="5.42114">
        <ele>1014</ele>
        <time>2019-06-15T10:14:37.100Z</time>
      </trkpt>
      <trkpt lat="45.02091" lon="5.42114">
        <ele>1014</ele>
        <time>2019-06-15T10:14:38.100Z</time>
      </trkpt>
      <trkpt lat="45.02087" lon="5.42114">
        <ele>1013</ele>
        <time>2019-06-15T10:14:39.100Z</time>
      </trkpt>
      <trkpt lat="45.02084" lon="5.42114">
        <ele>1012</ele>
        <time>2019-06-15T10:14:40.100Z</time>
      </trkpt>
      <trkpt lat="45.02081" lon="5.42114">
        <ele>1012</ele>
        <time>2019-06-15T10:14:41.100Z</time>
      </trkpt>
      <trkpt lat="45.02077" lon="5.42114">
        <ele>1012</ele>
        <time>2019-06-15T10:14:42.100Z</time>
      </trkpt>
      <trkpt lat="45.02074" lon="5.42114">
        <ele>1011</ele>
        <time>2019-06-15T10:14:43.100Z</time>
      </trkpt>
      <trkpt lat="45.02071" lon="5.42114">
        <ele>1011</ele>
        <time>2019-06-15T10:14:44.100Z</time>
      </trkpt>
      <trkpt lat="45.02068" lon="5.42114">
        <ele>1010</ele>
        <time>2019-06-15T10:14:45.100Z</time>
      </trkpt>
      <trkpt lat="45.02064" lon="5.42114">
        <ele>1010</ele>
        <time>2019-06-15T10:14:46.100Z</time>
      </trkpt>
      <trkpt lat="45.02061" lon="5.42114">
        <ele>1009</ele>
        <time>2019-06-15T10:14:47.100Z</time>
      </trkpt>
      <trkpt lat="45.02058" lon="5.42114">
        <ele>1009</ele>
        <time>2019-06-15T10:14:48.100Z</time>
      </trkpt>
      <trkpt lat="45.02055" lon="5.42114">
        <ele>1008</ele>
        <time>2019-06-15T10:14:49.100Z</time>
      </trkpt>
      <trkpt lat="45.02052" lon="5.42115">
        <ele>1008</ele>
        <time>2019-06-15T10:14:50.100Z</time>
      </trkpt>
      <trkpt lat="45.02049" lon="5.42115">
        <ele>1007</ele>
        <time>2019-06-15T10:14:51.100Z</time>
      </trkpt>
      <trkpt lat="45.02046" lon="5.42115">
        <ele>1007</ele>
        <time>2019-06-15T10:14:52.100Z</time>
      </trkpt>
      <trkpt lat="45.02043" lon="5.42115">
        <ele>1006</ele>
        <time>2019-06-15T10:14:53.100Z</time>
      </trkpt>
      <trkpt lat="45.0204" lon="5.42115">
        <ele>1005</ele>
        <time>2019-06-15T10:14:54.100Z</time>
      </trkpt>
      <trkpt lat="45.02037" lon="5.42115">
        <ele>1005</ele>
        <time>2019-06-15T10:14:55.100Z</time>
      </trkpt>
      <trkpt lat="45.02034" lon="5.42115">
        <ele>1004</ele>
        <time>2019-06-15T10:14:56.100Z</time>
      </trkpt>
      <trkpt lat="45.02031" lon="5.42115">
        <ele>1003</ele>
        <time>2019-06-15T10:14:57.100Z</time>
      </trkpt>
      <trkpt lat="45.02028" lon="5.42114">
        <ele>1003</ele>
        <time>2019-06-15T10:14:58.100Z</time>
      </trkpt>
      <trkpt lat="45.02026" lon="5.42114">
        <ele>1002</ele>
        <time>2019-06-15T10:14:59.100Z</time>
      </trkpt>
      <trkpt lat="45.02023" lon="5.42114">
        <ele>1002</ele>
        <time>2019-06-15T10:15:00.100Z</time>
      </trkpt>
      <trkpt lat="45.0202" lon="5.42113">
        <ele>1001</ele>
        <time>2019-06-15T10:15:01.100Z</time>
      </trkpt>
      <trkpt lat="45.02018" lon="5.42113">
        <ele>1001</ele>
        <time>2019-06-15T10:15:02.100Z</time>
      </trkpt>
      <trkpt lat="45.02015" lon="5.42113">
        <ele>1000</ele>
        <time>2019-06-15T10:15:03.100Z</time>
      </trkpt>
      <trkpt lat="45.02012" lon="5.42112">
        <ele>1000</ele>
        <time>2019-06-15T10:15:04.100Z</time>
      </trkpt>
      <trkpt lat="45.0201" lon="5.42112">
        <ele>999</ele>
        <time>2019-06-15T10:15:05.100Z</time>
      </trkpt>
      <trkpt lat="45.02007" lon="5.42112">
        <ele>999</ele>
        <time>2019-06-15T10:15:06.100Z</time>
      </trkpt>
      <trkpt lat="45.02005" lon="5.42112">
        <ele>999</ele>
        <time>2019-06-15T10:15:07.100Z</time>
      </trkpt>
      <trkpt lat="45.02003" lon="5.42111">
        <ele>999</ele>
        <time>2019-06-15T10:15:08.100Z</time>
      </trkpt>
      <trkpt lat="45.02" lon="5.42112">
        <ele>998</ele>
        <time>2019-06-15T10:15:09.100Z</time>
      </trkpt>
      <trkpt lat="45.01998" lon="5.42112">
        <ele>998</ele>
        <time>2019-06-15T10:15:10.100Z</time>
      </trkpt>
      <trkpt lat="45.01995" lon="5.42112">
        <ele>998</ele>
        <time>2019-06-15T10:15:11.100Z</time>
      </trkpt>
      <trkpt lat="45.01993" lon="5.42112">
        <ele>999</ele>
        <time>2019-06-15T10:15:12.100Z</time>
      </trkpt>
      <trkpt lat="45.0199" lon="5.42111">
        <ele>999</ele>
        <time>2019-06-15T10:15:13.100Z</time>
      </trkpt>
      <trkpt lat="45.01987" lon="5.4211">
        <ele>999</ele>
        <time>2019-06-15T10:15:14.100Z</time>
      </trkpt>
      <trkpt lat="45.01985" lon="5.42109">
        <ele>999</ele>
        <time>2019-06-15T10:15:15.100Z</time>
      </trkpt>
      <trkpt lat="45.01983" lon="5.42108">
        <ele>999</ele>
        <time>2019-06-15T10:15:16.100Z</time>
      </trkpt>
      <trkpt lat="45.0198" lon="5.42107">
        <ele>999</ele>
        <time>2019-06-15T10:15:17.100Z</time>
      </trkpt>
      <trkpt lat="45.01978" lon="5.42106">
        <ele>999</ele>
        <time>2019-06-15T10:15:18.100Z</time>
      </trkpt>
      <trkpt lat="45.01975" lon="5.42105">
        <ele>999</ele>
        <time>2019-06-15T10:15:19.100Z</time>
      </trkpt>
      <trkpt lat="45.01973" lon="5.42103">
        <ele>999</ele>
        <time>2019-06-15T10:15:20.100Z</time>
      </trkpt>
      <trkpt lat="45.01971" lon="5.42102">
        <ele>999</ele>
        <time>2019-06-15T10:15:21.100Z</time>
      </trkpt>
      <trkpt lat="45.01968" lon="5.421">
        <ele>999</ele>
        <time>2019-06-15T10:15:22.100Z</time>
      </trkpt>
      <trkpt lat="45.01966" lon="5.42099">
        <ele>999</ele>
        <time>2019-06-15T10:15:23.100Z</time>
      </trkpt>
      <trkpt lat="45.01963" lon="5.42097">
        <ele>999</ele>
        <time>2019-06-15T10:15:24.100Z</time>
      </trkpt>
      <trkpt lat="45.01961" lon="5.42095">
        <ele>998</ele>
        <time>2019-06-15T10:15:25.100Z</time>
      </trkpt>
      <trkpt lat="45.01959" lon="5.42094">
        <ele>998</ele>
        <time>2019-06-15T10:15:26.100Z</time>
      </trkpt>
      <trkpt lat="45.01956" lon="5.42092">
        <ele>998</ele>
        <time>2019-06-15T10:15:27.100Z</time>
      </trkpt>
      <trkpt lat="45.01954" lon="5.42091">
        <ele>998</ele>
        <time>2019-06-15T10:15:28.100Z</time>
      </trkpt>
      <trkpt lat="45.01952" lon="5.42089">
        <ele>998</ele>
        <time>2019-06-15T10:15:29.100Z</time>
      </trkpt>
      <trkpt lat="45.0195" lon="5.42087">
        <ele>998</ele>
        <time>2019-06-15T10:15:30.100Z</time>
      </trkpt>
      <trkpt lat="45.01948" lon="5.42084">
        <ele>998</ele>
        <time>2019-06-15T10:15:31.100Z</time>
      </trkpt>
      <trkpt lat="45.01946" lon="5.42082">
        <ele>997</ele>
        <time>2019-06-15T10:15:32.100Z</time>
      </trkpt>
      <trkpt lat="45.01944" lon="5.42079">
        <ele>997</ele>
        <time>2019-06-15T10:15:33.100Z</time>
      </trkpt>
      <trkpt lat="45.01943" lon="5.42076">
        <ele>997</ele>
        <time>2019-06-15T10:15:34.100Z</time>
      </trkpt>
      <trkpt lat="45.01941" lon="5.42073">
        <ele>996</ele>
        <time>2019-06-15T10:15:35.100Z</time>
      </trkpt>
      <trkpt lat="45.0194" lon="5.4207">
        <ele>997</ele>
        <time>2019-06-15T10:15:36.100Z</time>
      </trkpt>
      <trkpt lat="45.01938" lon="5.42067">
        <ele>996</ele>
        <time>2019-06-15T10:15:37.100Z</time>
      </trkpt>
      <trkpt lat="45.01937" lon="5.42064">
        <ele>996</ele>
        <time>2019-06-15T10:15:38.100Z</time>
      </trkpt>
      <trkpt lat="45.01935" lon="5.42061">
        <ele>996</ele>
        <time>2019-06-15T10:15:39.100Z</time>
      </trkpt>
      <trkpt lat="45.01934" lon="5.42058">
        <ele>996</ele>
        <time>2019-06-15T10:15:40.100Z</time>
      </trkpt>
      <trkpt lat="45.01933" lon="5.42055">
        <ele>996</ele>
        <time>2019-06-15T10:15:41.100Z</time>
      </trkpt>
      <trkpt lat="45.01931" lon="5.42052">
        <ele>996</ele>
        <time>2019-06-15T10:15:42.100Z</time>
      </trkpt>
      <trkpt lat="45.0193" lon="5.42049">
        <ele>996</ele>
        <time>2019-06-15T10:15:43.100Z</time>
      </trkpt>
      <trkpt lat="45.01928" lon="5.42046">
        <ele>995</ele>
        <time>2019-06-15T10:15:44.100Z</time>
      </trkpt>
      <trkpt lat="45.01927" lon="5.42043">
        <ele>995</ele>
        <time>2019-06-15T10:15:45.100Z</time>
      </trkpt>
      <trkpt lat="45.01925" lon="5.4204">
        <ele>996</ele>
        <time>2019-06-15T10:15:46.100Z</time>
      </trkpt>
      <trkpt lat="45.01924" lon="5.42038">
        <ele>996</ele>
        <time>2019-06-15T10:15:47.100Z</time>
      </trkpt>
      <trkpt lat="45.01922" lon="5.42035">
        <ele>997</ele>
        <time>2019-06-15T10:15:48.100Z</time>
      </trkpt>
      <trkpt lat="45.0192" lon="5.42032">
        <ele>996</ele>
        <time>2019-06-15T10:15:49.100Z</time>
      </trkpt>
      <trkpt lat="45.01919" lon="5.42029">
        <ele>996</ele>
        <time>2019-06-15T10:15:50.100Z</time>
      </trkpt>
      <trkpt lat="45.01917" lon="5.42027">
        <ele>996</ele>
        <time>2019-06-15T10:15:51.100Z</time>
      </trkpt>
      <trkpt lat="45.01915" lon="5.42024">
        <ele>996</ele>
        <time>2019-06-15T10:15:52.100Z</time>
      </trkpt>
      <trkpt lat="45.01913" lon="5.42022">
        <ele>996</ele>
        <time>2019-06-15T10:15:53.100Z</time>
      </trkpt>
      <trkpt lat="45.01911" lon="5.42019">
        <ele>996</ele>
        <time>2019-06-15T10:15:54.100Z</time>
      </trkpt>
      <trkpt lat="45.01909" lon="5.42017">
        <ele>995</ele>
        <time>2019-06-15T10:15:55.100Z</time>
      </trkpt>
      <trkpt lat="45.01907" lon="5.42015">
        <ele>995</ele>
        <time>2019-06-15T10:15:56.100Z</time>
      </trkpt>
      <trkpt lat="45.01905" lon="5.42014">
        <ele>994</ele>
        <time>2019-06-15T10:15:57.100Z</time>
      </trkpt>
      <trkpt lat="45.01903" lon="5.42012">
        <ele>994</ele>
        <time>2019-06-15T10:15:58.100Z</time>
      </trkpt>
      <trkpt lat="45.019" lon="5.42011">
        <ele>993</ele>
        <time>2019-06-15T10:15:59.100Z</time>
      </trkpt>
      <trkpt lat="45.01898" lon="5.4201">
        <ele>993</ele>
        <time>2019-06-15T10:16:00.100Z</time>
      </trkpt>
      <trkpt lat="45.01896" lon="5.42008">
        <ele>992</ele>
        <time>2019-06-15T10:16:01.100Z</time>
      </trkpt>
      <trkpt lat="45.01894" lon="5.42007">
        <ele>991</ele>
        <time>2019-06-15T10:16:02.100Z</time>
      </trkpt>
      <trkpt lat="45.01893" lon="5.42005">
        <ele>990</ele>
        <time>2019-06-15T10:16:03.100Z</time>
      </trkpt>
      <trkpt lat="45.01891" lon="5.42004">
        <ele>989</ele>
        <time>2019-06-15T10:16:04.100Z</time>
      </trkpt>
      <trkpt lat="45.01889" lon="5.42003">
        <ele>988</ele>
        <time>2019-06-15T10:16:05.100Z</time>
      </trkpt>
      <trkpt lat="45.01888" lon="5.42001">
        <ele>987</ele>
        <time>2019-06-15T10:16:06.100Z</time>
      </trkpt>
      <trkpt lat="45.01886" lon="5.42">
        <ele>986</ele>
        <time>2019-06-15T10:16:07.100Z</time>
      </trkpt>
      <trkpt lat="45.01885" lon="5.41998">
        <ele>986</ele>
        <time>2019-06-15T10:16:08.100Z</time>
      </trkpt>
      <trkpt lat="45.01883" lon="5.41997">
        <ele>985</ele>
        <time>2019-06-15T10:16:09.100Z</time>
      </trkpt>
      <trkpt lat="45.01882" lon="5.41996">
        <ele>984</ele>
        <time>2019-06-15T10:16:10.100Z</time>
      </trkpt>
      <trkpt lat="45.0188" lon="5.41995">
        <ele>983</ele>
        <time>2019-06-15T10:16:11.100Z</time>
      </trkpt>
      <trkpt lat="45.01877" lon="5.41993">
        <ele>983</ele>
        <time>2019-06-15T10:16:12.100Z</time>
      </trkpt>
      <trkpt lat="45.01875" lon="5.41992">
        <ele>983</ele>
        <time>2019-06-15T10:16:13.100Z</time>
      </trkpt>
      <trkpt lat="45.01873" lon="5.41991">
        <ele>982</ele>
        <time>2019-06-15T10:16:14.100Z</time>
      </trkpt>
      <trkpt lat="45.0187" lon="5.41991">
        <ele>981</ele>
        <time>2019-06-15T10:16:15.100Z</time>
      </trkpt>
      <trkpt lat="45.01868" lon="5.4199">
        <ele>981</ele>
        <time>2019-06-15T10:16:16.100Z</time>
      </trkpt>
      <trkpt lat="45.01865" lon="5.41989">
        <ele>980</ele>
        <time>2019-06-15T10:16:17.100Z</time>
      </trkpt>
      <trkpt lat="45.01862" lon="5.41989">
        <ele>979</ele>
        <time>2019-06-15T10:16:18.100Z</time>
      </trkpt>
      <trkpt lat="45.01859" lon="5.41988">
        <ele>979</ele>
        <time>2019-06-15T10:16:19.100Z</time>
      </trkpt>
      <trkpt lat="45.01856" lon="5.41988">
        <ele>979</ele>
        <time>2019-06-15T10:16:20.100Z</time>
      </trkpt>
      <trkpt lat="45.01853" lon="5.41988">
        <ele>978</ele>
        <time>2019-06-15T10:16:21.100Z</time>
      </trkpt>
      <trkpt lat="45.0185" lon="5.41989">
        <ele>976</ele>
        <time>2019-06-15T10:16:22.100Z</time>
      </trkpt>
      <trkpt lat="45.01847" lon="5.41989">
        <ele>977</ele>
        <time>2019-06-15T10:16:23.100Z</time>
      </trkpt>
      <trkpt lat="45.01844" lon="5.41989">
        <ele>977</ele>
        <time>2019-06-15T10:16:24.100Z</time>
      </trkpt>
      <trkpt lat="45.01841" lon="5.41989">
        <ele>977</ele>
        <time>2019-06-15T10:16:25.100Z</time>
      </trkpt>
      <trkpt lat="45.01839" lon="5.41989">
        <ele>977</ele>
        <time>2019-06-15T10:16:26.100Z</time>
      </trkpt>
      <trkpt lat="45.01836" lon="5.41988">
        <ele>976</ele>
        <time>2019-06-15T10:16:27.100Z</time>
      </trkpt>
      <trkpt lat="45.01833" lon="5.41988">
        <ele>977</ele>
        <time>2019-06-15T10:16:28.100Z</time>
      </trkpt>
      <trkpt lat="45.0183" lon="5.41988">
        <ele>979</ele>
        <time>2019-06-15T10:16:29.100Z</time>
      </trkpt>
      <trkpt lat="45.01826" lon="5.41987">
        <ele>983</ele>
        <time>2019-06-15T10:16:30.100Z</time>
      </trkpt>
      <trkpt lat="45.01822" lon="5.41987">
        <ele>983</ele>
        <time>2019-06-15T10:16:31.100Z</time>
      </trkpt>
      <trkpt lat="45.01818" lon="5.41986">
        <ele>983</ele>
        <time>2019-06-15T10:16:32.100Z</time>
      </trkpt>
      <trkpt lat="45.01815" lon="5.41986">
        <ele>983</ele>
        <time>2019-06-15T10:16:33.100Z</time>
      </trkpt>
      <trkpt lat="45.01812" lon="5.41986">
        <ele>982</ele>
        <time>2019-06-15T10:16:34.100Z</time>
      </trkpt>
      <trkpt lat="45.0181" lon="5.41987">
        <ele>982</ele>
        <time>2019-06-15T10:16:35.100Z</time>
      </trkpt>
      <trkpt lat="45.01807" lon="5.41986">
        <ele>982</ele>
        <time>2019-06-15T10:16:36.100Z</time>
      </trkpt>
      <trkpt lat="45.01804" lon="5.41987">
        <ele>982</ele>
        <time>2019-06-15T10:16:37.100Z</time>
      </trkpt>
      <trkpt lat="45.01802" lon="5.41987">
        <ele>982</ele>
        <time>2019-06-15T10:16:38.100Z</time>
      </trkpt>
      <trkpt lat="45.01799" lon="5.41987">
        <ele>982</ele>
        <time>2019-06-15T10:16:39.100Z</time>
      </trkpt>
      <trkpt lat="45.01797" lon="5.41987">
        <ele>982</ele>
        <time>2019-06-15T10:16:40.100Z</time>
      </trkpt>
      <trkpt lat="45.01794" lon="5.41987">
        <ele>982</ele>
        <time>2019-06-15T10:16:41.100Z</time>
      </trkpt>
      <trkpt lat="45.01792" lon="5.41987">
        <ele>982</ele>
        <time>2019-06-15T10:16:42.100Z</time>
      </trkpt>
      <trkpt lat="45.0179" lon="5.41987">
        <ele>981</ele>
        <time>2019-06-15T10:16:43.100Z</time>
      </trkpt>
      <trkpt lat="45.01787" lon="5.41987">
        <ele>980</ele>
        <time>2019-06-15T10:16:44.100Z</time>
      </trkpt>
      <trkpt lat="45.01785" lon="5.41986">
        <ele>979</ele>
        <time>2019-06-15T10:16:45.100Z</time>
      </trkpt>
      <trkpt lat="45.01783" lon="5.41986">
        <ele>978</ele>
        <time>2019-06-15T10:16:46.100Z</time>
      </trkpt>
      <trkpt lat="45.0178" lon="5.41985">
        <ele>977</ele>
        <time>2019-06-15T10:16:47.100Z</time>
      </trkpt>
      <trkpt lat="45.01777" lon="5.41985">
        <ele>976</ele>
        <time>2019-06-15T10:16:48.100Z</time>
      </trkpt>
      <trkpt lat="45.01775" lon="5.41984">
        <ele>976</ele>
        <time>2019-06-15T10:16:49.100Z</time>
      </trkpt>
      <trkpt lat="45.01772" lon="5.41983">
        <ele>976</ele>
        <time>2019-06-15T10:16:50.100Z</time>
      </trkpt>
      <trkpt lat="45.0177" lon="5.41982">
        <ele>976</ele>
        <time>2019-06-15T10:16:51.100Z</time>
      </trkpt>
      <trkpt lat="45.01767" lon="5.41981">
        <ele>975</ele>
        <time>2019-06-15T10:16:52.100Z</time>
      </trkpt>
      <trkpt lat="45.01765" lon="5.41979">
        <ele>975</ele>
        <time>2019-06-15T10:16:53.100Z</time>
      </trkpt>
      <trkpt lat="45.01762" lon="5.41978">
        <ele>974</ele>
        <time>2019-06-15T10:16:54.100Z</time>
      </trkpt>
      <trkpt lat="45.0176" lon="5.41975">
        <ele>974</ele>
        <time>2019-06-15T10:16:55.100Z</time>
      </trkpt>
      <trkpt lat="45.01758" lon="5.41973">
        <ele>973</ele>
        <time>2019-06-15T10:16:56.100Z</time>
      </trkpt>
      <trkpt lat="45.01755" lon="5.41971">
        <ele>973</ele>
        <time>2019-06-15T10:16:57.100Z</time>
      </trkpt>
      <trkpt lat="45.01753" lon="5.41969">
        <ele>972</ele>
        <time>2019-06-15T10:16:58.100Z</time>
      </trkpt>
      <trkpt lat="45.01751" lon="5.41967">
        <ele>972</ele>
        <time>2019-06-15T10:16:59.100Z</time>
      </trkpt>
      <trkpt lat="45.01749" lon="5.41966">
        <ele>971</ele>
        <time>2019-06-15T10:17:00.100Z</time>
      </trkpt>
      <trkpt lat="45.01746" lon="5.41964">
        <ele>972</ele>
        <time>2019-06-15T10:17:01.100Z</time>
      </trkpt>
      <trkpt lat="45.01744" lon="5.41962">
        <ele>972</ele>
        <time>2019-06-15T10:17:02.100Z</time>
      </trkpt>
      <trkpt lat="45.01741" lon="5.4196">
        <ele>971</ele>
        <time>2019-06-15T10:17:03.100Z</time>
      </trkpt>
      <trkpt lat="45.01739" lon="5.41958">
        <ele>972</ele>
        <time>2019-06-15T10:17:04.100Z</time>
      </trkpt>
      <trkpt lat="45.01737" lon="5.41956">
        <ele>972</ele>
        <time>2019-06-15T10:17:05.100Z</time>
      </trkpt>
      <trkpt lat="45.01734" lon="5.41953">
        <ele>973</ele>
        <time>2019-06-15T10:17:06.100Z</time>
      </trkpt>
      <trkpt lat="45.01732" lon="5.4195">
        <ele>974</ele>
        <time>2019-06-15T10:17:07.100Z</time>
      </trkpt>
      <trkpt lat="45.01729" lon="5.41947">
        <ele>974</ele>
        <time>2019-06-15T10:17:08.100Z</time>
      </trkpt>
      <trkpt lat="45.01726" lon="5.41945">
        <ele>974</ele>
        <time>2019-06-15T10:17:09.100Z</time>
      </trkpt>
      <trkpt lat="45.01724" lon="5.41943">
        <ele>975</ele>
        <time>2019-06-15T10:17:10.100Z</time>
      </trkpt>
      <trkpt lat="45.01721" lon="5.41941">
        <ele>975</ele>
        <time>2019-06-15T10:17:11.100Z</time>
      </trkpt>
      <trkpt lat="45.01719" lon="5.41939">
        <ele>975</ele>
        <time>2019-06-15T10:17:12.100Z</time>
      </trkpt>
      <trkpt lat="45.01717" lon="5.41936">
        <ele>974</ele>
        <time>2019-06-15T10:17:13.100Z</time>
      </trkpt>
      <trkpt lat="45.01714" lon="5.41934">
        <ele>976</ele>
        <time>2019-06-15T10:17:14.100Z</time>
      </trkpt>
      <trkpt lat="45.01711" lon="5.41932">
        <ele>977</ele>
        <time>2019-06-15T10:17:15.100Z</time>
      </trkpt>
      <trkpt lat="45.01709" lon="5.41928">
        <ele>978</ele>
        <time>2019-06-15T10:17:16.100Z</time>
      </trkpt>
      <trkpt lat="45.01706" lon="5.41925">
        <ele>979</ele>
        <time>2019-06-15T10:17:17.100Z</time>
      </trkpt>
      <trkpt lat="45.01703" lon="5.41921">
        <ele>980</ele>
        <time>2019-06-15T10:17:18.100Z</time>
      </trkpt>
      <trkpt lat="45.01701" lon="5.41918">
        <ele>980</ele>
        <time>2019-06-15T10:17:19.100Z</time>
      </trkpt>
      <trkpt lat="45.01699" lon="5.41915">
        <ele>981</ele>
        <time>2019-06-15T10:17:20.100Z</time>
      </trkpt>
      <trkpt lat="45.01696" lon="5.41912">
        <ele>982</ele>
        <time>2019-06-15T10:17:21.100Z</time>
      </trkpt>
      <trkpt lat="45.01694" lon="5.41909">
        <ele>983</ele>
        <time>2019-06-15T10:17:22.100Z</time>
      </trkpt>
      <trkpt lat="45.01692" lon="5.41906">
        <ele>983</ele>
        <time>2019-06-15T10:17:23.100Z</time>
      </trkpt>
      <trkpt lat="45.01689" lon="5.41904">
        <ele>983</ele>
        <time>2019-06-15T10:17:24.100Z</time>
      </trkpt>
      <trkpt lat="45.01687" lon="5.41902">
        <ele>982</ele>
        <time>2019-06-15T10:17:25.100Z</time>
      </trkpt>
      <trkpt lat="45.01685" lon="5.419">
        <ele>982</ele>
        <time>2019-06-15T10:17:26.100Z</time>
      </trkpt>
      <trkpt lat="45.01683" lon="5.41898">
        <ele>982</ele>
        <time>2019-06-15T10:17:27.100Z</time>
      </trkpt>
      <trkpt lat="45.0168" lon="5.41896">
        <ele>982</ele>
        <time>2019-06-15T10:17:28.100Z</time>
      </trkpt>
      <trkpt lat="45.01678" lon="5.41893">
        <ele>981</ele>
        <time>2019-06-15T10:17:29.100Z</time>
      </trkpt>
      <trkpt lat="45.01675" lon="5.41891">
        <ele>981</ele>
        <time>2019-06-15T10:17:30.100Z</time>
      </trkpt>
      <trkpt lat="45.01673" lon="5.41889">
        <ele>981</ele>
        <time>2019-06-15T10:17:31.100Z</time>
      </trkpt>
      <trkpt lat="45.0167" lon="5.41887">
        <ele>980</ele>
        <time>2019-06-15T10:17:32.100Z</time>
      </trkpt>
      <trkpt lat="45.01668" lon="5.41885">
        <ele>979</ele>
        <time>2019-06-15T10:17:33.100Z</time>
      </trkpt>
      <trkpt lat="45.01666" lon="5.41883">
        <ele>979</ele>
        <time>2019-06-15T10:17:34.100Z</time>
      </trkpt>
      <trkpt lat="45.01664" lon="5.41881">
        <ele>978</ele>
        <time>2019-06-15T10:17:35.100Z</time>
      </trkpt>
      <trkpt lat="45.01662" lon="5.41879">
        <ele>978</ele>
        <time>2019-06-15T10:17:36.100Z</time>
      </trkpt>
      <trkpt lat="45.0166" lon="5.41877">
        <ele>978</ele>
        <time>2019-06-15T10:17:37.100Z</time>
      </trkpt>
      <trkpt lat="45.01658" lon="5.41874">
        <ele>977</ele>
        <time>2019-06-15T10:17:38.100Z</time>
      </trkpt>
      <trkpt lat="45.01655" lon="5.41872">
        <ele>977</ele>
        <time>2019-06-15T10:17:39.100Z</time>
      </trkpt>
      <trkpt lat="45.01653" lon="5.4187">
        <ele>975</ele>
        <time>2019-06-15T10:17:40.100Z</time>
      </trkpt>
      <trkpt lat="45.01651" lon="5.41869">
        <ele>975</ele>
        <time>2019-06-15T10:17:41.100Z</time>
      </trkpt>
      <trkpt lat="45.01649" lon="5.41867">
        <ele>974</ele>
        <time>2019-06-15T10:17:42.100Z</time>
      </trkpt>
      <trkpt lat="45.01646" lon="5.41866">
        <ele>974</ele>
        <time>2019-06-15T10:17:43.100Z</time>
      </trkpt>
      <trkpt lat="45.01643" lon="5.41865">
        <ele>973</ele>
        <time>2019-06-15T10:17:44.100Z</time>
      </trkpt>
      <trkpt lat="45.01641" lon="5.41864">
        <ele>972</ele>
        <time>2019-06-15T10:17:45.100Z</time>
      </trkpt>
      <trkpt lat="45.01638" lon="5.41863">
        <ele>972</ele>
        <time>2019-06-15T10:17:46.100Z</time>
      </trkpt>
      <trkpt lat="45.01635" lon="5.41862">
        <ele>972</ele>
        <time>2019-06-15T10:17:47.100Z</time>
      </trkpt>
      <trkpt lat="45.01632" lon="5.41861">
        <ele>972</ele>
        <time>2019-06-15T10:17:48.100Z</time>
      </trkpt>
      <trkpt lat="45.01629" lon="5.4186">
        <ele>971</ele>
        <time>2019-06-15T10:17:49.100Z</time>
      </trkpt>
      <trkpt lat="45.01625" lon="5.41859">
        <ele>971</ele>
        <time>2019-06-15T10:17:50.100Z</time>
      </trkpt>
      <trkpt lat="45.01622" lon="5.41858">
        <ele>970</ele>
        <time>2019-06-15T10:17:51.100Z</time>
      </trkpt>
      <trkpt lat="45.01619" lon="5.41857">
        <ele>970</ele>
        <time>2019-06-15T10:17:52.100Z</time>
      </trkpt>
      <trkpt lat="45.01616" lon="5.41856">
        <ele>970</ele>
        <time>2019-06-15T10:17:53.100Z</time>
      </trkpt>
      <trkpt lat="45.01613" lon="5.41855">
        <ele>970</ele>
        <time>2019-06-15T10:17:54.100Z</time>
      </trkpt>
      <trkpt lat="45.01609" lon="5.41853">
        <ele>970</ele>
        <time>2019-06-15T10:17:55.100Z</time>
      </trkpt>
      <trkpt lat="45.01607" lon="5.41851">
        <ele>970</ele>
        <time>2019-06-15T10:17:56.100Z</time>
      </trkpt>
      <trkpt lat="45.01604" lon="5.41849">
        <ele>970</ele>
        <time>2019-06-15T10:17:57.100Z</time>
      </trkpt>
      <trkpt lat="45.01601" lon="5.41846">
        <ele>970</ele>
        <time>2019-06-15T10:17:58.100Z</time>
      </trkpt>
      <trkpt lat="45.01598" lon="5.41843">
        <ele>970</ele>
        <time>2019-06-15T10:17:59.100Z</time>
      </trkpt>
      <trkpt lat="45.01595" lon="5.41841">
        <ele>971</ele>
        <time>2019-06-15T10:18:00.100Z</time>
      </trkpt>
      <trkpt lat="45.01593" lon="5.41838">
        <ele>971</ele>
        <time>2019-06-15T10:18:01.100Z</time>
      </trkpt>
      <trkpt lat="45.0159" lon="5.41836">
        <ele>970</ele>
        <time>2019-06-15T10:18:02.100Z</time>
      </trkpt>
      <trkpt lat="45.01587" lon="5.41834">
        <ele>969</ele>
        <time>2019-06-15T10:18:03.100Z</time>
      </trkpt>
      <trkpt lat="45.01585" lon="5.41832">
        <ele>969</ele>
        <time>2019-06-15T10:18:04.100Z</time>
      </trkpt>
      <trkpt lat="45.01583" lon="5.41831">
        <ele>968</ele>
        <time>2019-06-15T10:18:05.100Z</time>
      </trkpt>
      <trkpt lat="45.0158" lon="5.41829">
        <ele>968</ele>
        <time>2019-06-15T10:18:06.100Z</time>
      </trkpt>
      <trkpt lat="45.01578" lon="5.41828">
        <ele>968</ele>
        <time>2019-06-15T10:18:07.100Z</time>
      </trkpt>
      <trkpt lat="45.01575" lon="5.41827">
        <ele>967</ele>
        <time>2019-06-15T10:18:08.100Z</time>
      </trkpt>
      <trkpt lat="45.01572" lon="5.41826">
        <ele>968</ele>
        <time>2019-06-15T10:18:09.100Z</time>
      </trkpt>
      <trkpt lat="45.0157" lon="5.41823">
        <ele>969</ele>
        <time>2019-06-15T10:18:10.100Z</time>
      </trkpt>
      <trkpt lat="45.01567" lon="5.41821">
        <ele>969</ele>
        <time>2019-06-15T10:18:11.100Z</time>
      </trkpt>
      <trkpt lat="45.01564" lon="5.41818">
        <ele>970</ele>
        <time>2019-06-15T10:18:12.100Z</time>
      </trkpt>
      <trkpt lat="45.01561" lon="5.41815">
        <ele>970</ele>
        <time>2019-06-15T10:18:13.100Z</time>
      </trkpt>
      <trkpt lat="45.01559" lon="5.41813">
        <ele>970</ele>
        <time>2019-06-15T10:18:14.100Z</time>
      </trkpt>
      <trkpt lat="45.01556" lon="5.41811">
        <ele>970</ele>
        <time>2019-06-15T10:18:15.100Z</time>
      </trkpt>
      <trkpt lat="45.01553" lon="5.41809">
        <ele>971</ele>
        <time>2019-06-15T10:18:16.100Z</time>
      </trkpt>
      <trkpt lat="45.0155" lon="5.41807">
        <ele>972</ele>
        <time>2019-06-15T10:18:17.100Z</time>
      </trkpt>
      <trkpt lat="45.01547" lon="5.41804">
        <ele>973</ele>
        <time>2019-06-15T10:18:18.100Z</time>
      </trkpt>
      <trkpt lat="45.01544" lon="5.41802">
        <ele>973</ele>
        <time>2019-06-15T10:18:19.100Z</time>
      </trkpt>
      <trkpt lat="45.01541" lon="5.418">
        <ele>972</ele>
        <time>2019-06-15T10:18:20.100Z</time>
      </trkpt>
      <trkpt lat="45.01539" lon="5.41799">
        <ele>972</ele>
        <time>2019-06-15T10:18:21.100Z</time>
      </trkpt>
      <trkpt lat="45.01536" lon="5.41797">
        <ele>971</ele>
        <time>2019-06-15T10:18:22.100Z</time>
      </trkpt>
      <trkpt lat="45.01534" lon="5.41796">
        <ele>971</ele>
        <time>2019-06-15T10:18:23.100Z</time>
      </trkpt>
      <trkpt lat="45.01531" lon="5.41795">
        <ele>970</ele>
        <time>2019-06-15T10:18:24.100Z</time>
      </trkpt>
      <trkpt lat="45.01529" lon="5.41794">
        <ele>970</ele>
        <time>2019-06-15T10:18:25.100Z</time>
      </trkpt>
      <trkpt lat="45.01526" lon="5.41792">
        <ele>969</ele>
        <time>2019-06-15T10:18:26.100Z</time>
      </trkpt>
      <trkpt lat="45.01524" lon="5.41791">
        <ele>969</ele>
        <time>2019-06-15T10:18:27.100Z</time>
      </trkpt>
      <trkpt lat="45.01522" lon="5.41789">
        <ele>968</ele>
        <time>2019-06-15T10:18:28.100Z</time>
      </trkpt>
      <trkpt lat="45.0152" lon="5.41788">
        <ele>967</ele>
        <time>2019-06-15T10:18:29.100Z</time>
      </trkpt>
      <trkpt lat="45.01518" lon="5.41786">
        <ele>968</ele>
        <time>2019-06-15T10:18:30.100Z</time>
      </trkpt>
      <trkpt lat="45.01516" lon="5.41784">
        <ele>967</ele>
        <time>2019-06-15T10:18:31.100Z</time>
      </trkpt>
      <trkpt lat="45.01513" lon="5.41782">
        <ele>967</ele>
        <time>2019-06-15T10:18:32.100Z</time>
      </trkpt>
      <trkpt lat="45.0151" lon="5.4178">
        <ele>967</ele>
        <time>2019-06-15T10:18:33.100Z</time>
      </trkpt>
      <trkpt lat="45.01508" lon="5.41778">
        <ele>967</ele>
        <time>2019-06-15T10:18:34.100Z</time>
      </trkpt>
      <trkpt lat="45.01506" lon="5.41776">
        <ele>967</ele>
        <time>2019-06-15T10:18:35.100Z</time>
      </trkpt>
      <trkpt lat="45.01504" lon="5.41773">
        <ele>965</ele>
        <time>2019-06-15T10:18:36.100Z</time>
      </trkpt>
      <trkpt lat="45.01503" lon="5.41771">
        <ele>966</ele>
        <time>2019-06-15T10:18:37.100Z</time>
      </trkpt>
      <trkpt lat="45.01501" lon="5.41769">
        <ele>967</ele>
        <time>2019-06-15T10:18:38.100Z</time>
      </trkpt>
      <trkpt lat="45.01499" lon="5.41766">
        <ele>967</ele>
        <time>2019-06-15T10:18:39.100Z</time>
      </trkpt>
      <trkpt lat="45.01497" lon="5.41764">
        <ele>967</ele>
        <time>2019-06-15T10:18:40.100Z</time>
      </trkpt>
      <trkpt lat="45.01495" lon="5.41762">
        <ele>966</ele>
        <time>2019-06-15T10:18:41.100Z</time>
      </trkpt>
      <trkpt lat="45.01493" lon="5.41759">
        <ele>967</ele>
        <time>2019-06-15T10:18:42.100Z</time>
      </trkpt>
      <trkpt lat="45.0149" lon="5.41756">
        <ele>968</ele>
        <time>2019-06-15T10:18:43.100Z</time>
      </trkpt>
      <trkpt lat="45.01488" lon="5.41754">
        <ele>969</ele>
        <time>2019-06-15T10:18:44.100Z</time>
      </trkpt>
      <trkpt lat="45.01485" lon="5.41751">
        <ele>969</ele>
        <time>2019-06-15T10:18:45.100Z</time>
      </trkpt>
      <trkpt lat="45.01483" lon="5.41749">
        <ele>969</ele>
        <time>2019-06-15T10:18:46.100Z</time>
      </trkpt>
      <trkpt lat="45.0148" lon="5.41747">
        <ele>968</ele>
        <time>2019-06-15T10:18:47.100Z</time>
      </trkpt>
      <trkpt lat="45.01478" lon="5.41745">
        <ele>968</ele>
        <time>2019-06-15T10:18:48.100Z</time>
      </trkpt>
      <trkpt lat="45.01475" lon="5.41743">
        <ele>968</ele>
        <time>2019-06-15T10:18:49.100Z</time>
      </trkpt>
      <trkpt lat="45.01472" lon="5.41741">
        <ele>967</ele>
        <time>2019-06-15T10:18:50.100Z</time>
      </trkpt>
      <trkpt lat="45.01469" lon="5.41739">
        <ele>966</ele>
        <time>2019-06-15T10:18:51.100Z</time>
      </trkpt>
      <trkpt lat="45.01467" lon="5.41738">
        <ele>966</ele>
        <time>2019-06-15T10:18:52.100Z</time>
      </trkpt>
      <trkpt lat="45.01464" lon="5.41736">
        <ele>965</ele>
        <time>2019-06-15T10:18:53.100Z</time>
      </trkpt>
      <trkpt lat="45.01462" lon="5.41734">
        <ele>965</ele>
        <time>2019-06-15T10:18:54.100Z</time>
      </trkpt>
      <trkpt lat="45.01459" lon="5.41732">
        <ele>965</ele>
        <time>2019-06-15T10:18:55.100Z</time>
      </trkpt>
      <trkpt lat="45.01457" lon="5.4173">
        <ele>964</ele>
        <time>2019-06-15T10:18:56.100Z</time>
      </trkpt>
      <trkpt lat="45.01455" lon="5.41729">
        <ele>964</ele>
        <time>2019-06-15T10:18:57.100Z</time>
      </trkpt>
      <trkpt lat="45.01452" lon="5.41727">
        <ele>964</ele>
        <time>2019-06-15T10:18:58.100Z</time>
      </trkpt>
      <trkpt lat="45.0145" lon="5.41726">
        <ele>964</ele>
        <time>2019-06-15T10:18:59.100Z</time>
      </trkpt>
      <trkpt lat="45.01447" lon="5.41725">
        <ele>964</ele>
        <time>2019-06-15T10:19:00.100Z</time>
      </trkpt>
      <trkpt lat="45.01444" lon="5.41723">
        <ele>963</ele>
        <time>2019-06-15T10:19:01.100Z</time>
      </trkpt>
      <trkpt lat="45.01441" lon="5.41721">
        <ele>963</ele>
        <time>2019-06-15T10:19:02.100Z</time>
      </trkpt>
      <trkpt lat="45.01439" lon="5.4172">
        <ele>962</ele>
        <time>2019-06-15T10:19:03.100Z</time>
      </trkpt>
      <trkpt lat="45.01436" lon="5.41718">
        <ele>963</ele>
        <time>2019-06-15T10:19:04.100Z</time>
      </trkpt>
      <trkpt lat="45.01433" lon="5.41716">
        <ele>963</ele>
        <time>2019-06-15T10:19:05.100Z</time>
      </trkpt>
      <trkpt lat="45.0143" lon="5.41715">
        <ele>963</ele>
        <time>2019-06-15T10:19:06.100Z</time>
      </trkpt>
      <trkpt lat="45.01426" lon="5.41714">
        <ele>962</ele>
        <time>2019-06-15T10:19:07.100Z</time>
      </trkpt>
      <trkpt lat="45.01423" lon="5.41713">
        <ele>961</ele>
        <time>2019-06-15T10:19:08.100Z</time>
      </trkpt>
      <trkpt lat="45.01419" lon="5.41712">
        <ele>961</ele>
        <time>2019-06-15T10:19:09.100Z</time>
      </trkpt>
      <trkpt lat="45.01416" lon="5.41712">
        <ele>960</ele>
        <time>2019-06-15T10:19:10.100Z</time>
      </trkpt>
      <trkpt lat="45.01413" lon="5.41711">
        <ele>960</ele>
        <time>2019-06-15T10:19:11.100Z</time>
      </trkpt>
      <trkpt lat="45.01409" lon="5.41711">
        <ele>960</ele>
        <time>2019-06-15T10:19:12.100Z</time>
      </trkpt>
      <trkpt lat="45.01406" lon="5.41709">
        <ele>959</ele>
        <time>2019-06-15T10:19:13.100Z</time>
      </trkpt>
      <trkpt lat="45.01403" lon="5.41708">
        <ele>959</ele>
        <time>2019-06-15T10:19:14.100Z</time>
      </trkpt>
      <trkpt lat="45.014" lon="5.41707">
        <ele>957</ele>
        <time>2019-06-15T10:19:15.100Z</time>
      </trkpt>
      <trkpt lat="45.01397" lon="5.41707">
        <ele>956</ele>
        <time>2019-06-15T10:19:16.100Z</time>
      </trkpt>
      <trkpt lat="45.01394" lon="5.41706">
        <ele>955</ele>
        <time>2019-06-15T10:19:17.100Z</time>
      </trkpt>
      <trkpt lat="45.01392" lon="5.41705">
        <ele>954</ele>
        <time>2019-06-15T10:19:18.100Z</time>
      </trkpt>
      <trkpt lat="45.01389" lon="5.41704">
        <ele>954</ele>
        <time>2019-06-15T10:19:19.100Z</time>
      </trkpt>
      <trkpt lat="45.01386" lon="5.41703">
        <ele>954</ele>
        <time>2019-06-15T10:19:20.100Z</time>
      </trkpt>
      <trkpt lat="45.01383" lon="5.41702">
        <ele>953</ele>
        <time>2019-06-15T10:19:21.100Z</time>
      </trkpt>
      <trkpt lat="45.0138" lon="5.41702">
        <ele>951</ele>
        <time>2019-06-15T10:19:22.100Z</time>
      </trkpt>
      <trkpt lat="45.01377" lon="5.41701">
        <ele>951</ele>
        <time>2019-06-15T10:19:23.100Z</time>
      </trkpt>
      <trkpt lat="45.01374" lon="5.417">
        <ele>951</ele>
        <time>2019-06-15T10:19:24.100Z</time>
      </trkpt>
      <trkpt lat="45.01371" lon="5.41699">
        <ele>950</ele>
        <time>2019-06-15T10:19:25.100Z</time>
      </trkpt>
      <trkpt lat="45.01369" lon="5.41698">
        <ele>949</ele>
        <time>2019-06-15T10:19:26.100Z</time>
      </trkpt>
      <trkpt lat="45.01366" lon="5.41696">
        <ele>948</ele>
        <time>2019-06-15T10:19:27.100Z</time>
      </trkpt>
      <trkpt lat="45.01364" lon="5.41695">
        <ele>947</ele>
        <time>2019-06-15T10:19:28.100Z</time>
      </trkpt>
      <trkpt lat="45.01362" lon="5.41694">
        <ele>946</ele>
        <time>2019-06-15T10:19:29.100Z</time>
      </trkpt>
      <trkpt lat="45.0136" lon="5.41694">
        <ele>945</ele>
        <time>2019-06-15T10:19:30.100Z</time>
      </trkpt>
      <trkpt lat="45.01357" lon="5.41693">
        <ele>945</ele>
        <time>2019-06-15T10:19:31.100Z</time>
      </trkpt>
      <trkpt lat="45.01354" lon="5.41693">
        <ele>946</ele>
        <time>2019-06-15T10:19:32.100Z</time>
      </trkpt>
      <trkpt lat="45.01351" lon="5.41693">
        <ele>946</ele>
        <time>2019-06-15T10:19:33.100Z</time>
      </trkpt>
      <trkpt lat="45.01348" lon="5.41693">
        <ele>945</ele>
        <time>2019-06-15T10:19:34.100Z</time>
      </trkpt>
      <trkpt lat="45.01344" lon="5.41693">
        <ele>943</ele>
        <time>2019-06-15T10:19:35.100Z</time>
      </trkpt>
      <trkpt lat="45.01342" lon="5.41693">
        <ele>942</ele>
        <time>2019-06-15T10:19:36.100Z</time>
      </trkpt>
      <trkpt lat="45.01339" lon="5.41693">
        <ele>940</ele>
        <time>2019-06-15T10:19:37.100Z</time>
      </trkpt>
      <trkpt lat="45.01337" lon="5.41693">
        <ele>939</ele>
        <time>2019-06-15T10:19:38.100Z</time>
      </trkpt>
      <trkpt lat="45.01334" lon="5.41692">
        <ele>939</ele>
        <time>2019-06-15T10:19:39.100Z</time>
      </trkpt>
      <trkpt lat="45.01331" lon="5.41692">
        <ele>939</ele>
        <time>2019-06-15T10:19:40.100Z</time>
      </trkpt>
      <trkpt lat="45.01328" lon="5.41691">
        <ele>938</ele>
        <time>2019-06-15T10:19:41.100Z</time>
      </trkpt>
      <trkpt lat="45.01326" lon="5.4169">
        <ele>938</ele>
        <time>2019-06-15T10:19:42.100Z</time>
      </trkpt>
      <trkpt lat="45.01323" lon="5.41689">
        <ele>937</ele>
        <time>2019-06-15T10:19:43.100Z</time>
      </trkpt>
      <trkpt lat="45.0132" lon="5.41688">
        <ele>936</ele>
        <time>2019-06-15T10:19:44.100Z</time>
      </trkpt>
      <trkpt lat="45.01318" lon="5.41688">
        <ele>934</ele>
        <time>2019-06-15T10:19:45.100Z</time>
      </trkpt>
      <trkpt lat="45.01315" lon="5.41687">
        <ele>933</ele>
        <time>2019-06-15T10:19:46.100Z</time>
      </trkpt>
      <trkpt lat="45.01312" lon="5.41687">
        <ele>932</ele>
        <time>2019-06-15T10:19:47.100Z</time>
      </trkpt>
      <trkpt lat="45.0131" lon="5.41688">
        <ele>931</ele>
        <time>2019-06-15T10:19:48.100Z</time>
      </trkpt>
      <trkpt lat="45.01307" lon="5.41688">
        <ele>930</ele>
        <time>2019-06-15T10:19:49.100Z</time>
      </trkpt>
      <trkpt lat="45.01305" lon="5.41688">
        <ele>929</ele>
        <time>2019-06-15T10:19:50.100Z</time>
      </trkpt>
      <trkpt lat="45.01302" lon="5.41687">
        <ele>929</ele>
        <time>2019-06-15T10:19:51.100Z</time>
      </trkpt>
      <trkpt lat="45.013" lon="5.41687">
        <ele>929</ele>
        <time>2019-06-15T10:19:52.100Z</time>
      </trkpt>
      <trkpt lat="45.01297" lon="5.41687">
        <ele>929</ele>
        <time>2019-06-15T10:19:53.100Z</time>
      </trkpt>
      <trkpt lat="45.01294" lon="5.41687">
        <ele>929</ele>
        <time>2019-06-15T10:19:54.100Z</time>
      </trkpt>
      <trkpt lat="45.01291" lon="5.41687">
        <ele>929</ele>
        <time>2019-06-15T10:19:55.100Z</time>
      </trkpt>
      <trkpt lat="45.01287" lon="5.41686">
        <ele>928</ele>
        <time>2019-06-15T10:19:56.100Z</time>
      </trkpt>
      <trkpt lat="45.01283" lon="5.41685">
        <ele>927</ele>
        <time>2019-06-15T10:19:57.100Z</time>
      </trkpt>
      <trkpt lat="45.0128" lon="5.41685">
        <ele>927</ele>
        <time>2019-06-15T10:19:58.100Z</time>
      </trkpt>
      <trkpt lat="45.01276" lon="5.41684">
        <ele>925</ele>
        <time>2019-06-15T10:19:59.100Z</time>
      </trkpt>
      <trkpt lat="45.01274" lon="5.41684">
        <ele>926</ele>
        <time>2019-06-15T10:20:00.100Z</time>
      </trkpt>
      <trkpt lat="45.01271" lon="5.41683">
        <ele>925</ele>
        <time>2019-06-15T10:20:01.100Z</time>
      </trkpt>
      <trkpt lat="45.01268" lon="5.41682">
        <ele>923</ele>
        <time>2019-06-15T10:20:02.100Z</time>
      </trkpt>
      <trkpt lat="45.01265" lon="5.41682">
        <ele>922</ele>
        <time>2019-06-15T10:20:03.100Z</time>
      </trkpt>
      <trkpt lat="45.01263" lon="5.4168">
        <ele>921</ele>
        <time>2019-06-15T10:20:04.100Z</time>
      </trkpt>
      <trkpt lat="45.0126" lon="5.41679">
        <ele>920</ele>
        <time>2019-06-15T10:20:05.100Z</time>
      </trkpt>
      <trkpt lat="45.01257" lon="5.41678">
        <ele>919</ele>
        <time>2019-06-15T10:20:06.100Z</time>
      </trkpt>
      <trkpt lat="45.01255" lon="5.41677">
        <ele>918</ele>
        <time>2019-06-15T10:20:07.100Z</time>
      </trkpt>
      <trkpt lat="45.01252" lon="5.41676">
        <ele>918</ele>
        <time>2019-06-15T10:20:08.100Z</time>
      </trkpt>
      <trkpt lat="45.01249" lon="5.41676">
        <ele>918</ele>
        <time>2019-06-15T10:20:09.100Z</time>
      </trkpt>
      <trkpt lat="45.01246" lon="5.41675">
        <ele>919</ele>
        <time>2019-06-15T10:20:10.100Z</time>
      </trkpt>
      <trkpt lat="45.01243" lon="5.41675">
        <ele>920</ele>
        <time>2019-06-15T10:20:11.100Z</time>
      </trkpt>
      <trkpt lat="45.01239" lon="5.41673">
        <ele>920</ele>
        <time>2019-06-15T10:20:12.100Z</time>
      </trkpt>
      <trkpt lat="45.01237" lon="5.41672">
        <ele>918</ele>
        <time>2019-06-15T10:20:13.100Z</time>
      </trkpt>
      <trkpt lat="45.01234" lon="5.41671">
        <ele>919</ele>
        <time>2019-06-15T10:20:14.100Z</time>
      </trkpt>
      <trkpt lat="45.01232" lon="5.4167">
        <ele>920</ele>
        <time>2019-06-15T10:20:15.100Z</time>
      </trkpt>
      <trkpt lat="45.01229" lon="5.41669">
        <ele>920</ele>
        <time>2019-06-15T10:20:16.100Z</time>
      </trkpt>
      <trkpt lat="45.01226" lon="5.41668">
        <ele>918</ele>
        <time>2019-06-15T10:20:17.100Z</time>
      </trkpt>
      <trkpt lat="45.01223" lon="5.41668">
        <ele>919</ele>
        <time>2019-06-15T10:20:18.100Z</time>
      </trkpt>
      <trkpt lat="45.01221" lon="5.41667">
        <ele>919</ele>
        <time>2019-06-15T10:20:19.100Z</time>
      </trkpt>
      <trkpt lat="45.01218" lon="5.41667">
        <ele>917</ele>
        <time>2019-06-15T10:20:20.100Z</time>
      </trkpt>
      <trkpt lat="45.01215" lon="5.41666">
        <ele>918</ele>
        <time>2019-06-15T10:20:21.100Z</time>
      </trkpt>
      <trkpt lat="45.01211" lon="5.41664">
        <ele>918</ele>
        <time>2019-06-15T10:20:22.100Z</time>
      </trkpt>
      <trkpt lat="45.01208" lon="5.41662">
        <ele>918</ele>
        <time>2019-06-15T10:20:23.100Z</time>
      </trkpt>
      <trkpt lat="45.01204" lon="5.4166">
        <ele>917</ele>
        <time>2019-06-15T10:20:24.100Z</time>
      </trkpt>
      <trkpt lat="45.012" lon="5.41659">
        <ele>916</ele>
        <time>2019-06-15T10:20:25.100Z</time>
      </trkpt>
      <trkpt lat="45.01196" lon="5.41657">
        <ele>916</ele>
        <time>2019-06-15T10:20:26.100Z</time>
      </trkpt>
      <trkpt lat="45.01192" lon="5.41656">
        <ele>915</ele>
        <time>2019-06-15T10:20:27.100Z</time>
      </trkpt>
      <trkpt lat="45.01189" lon="5.41656">
        <ele>914</ele>
        <time>2019-06-15T10:20:28.100Z</time>
      </trkpt>
      <trkpt lat="45.01187" lon="5.41655">
        <ele>912</ele>
        <time>2019-06-15T10:20:29.100Z</time>
      </trkpt>
      <trkpt lat="45.01184" lon="5.41654">
        <ele>911</ele>
        <time>2019-06-15T10:20:30.100Z</time>
      </trkpt>
      <trkpt lat="45.01181" lon="5.41654">
        <ele>911</ele>
        <time>2019-06-15T10:20:31.100Z</time>
      </trkpt>
      <trkpt lat="45.01178" lon="5.41654">
        <ele>909</ele>
        <time>2019-06-15T10:20:32.100Z</time>
      </trkpt>
      <trkpt lat="45.01175" lon="5.41654">
        <ele>909</ele>
        <time>2019-06-15T10:20:33.100Z</time>
      </trkpt>
      <trkpt lat="45.01172" lon="5.41654">
        <ele>908</ele>
        <time>2019-06-15T10:20:34.100Z</time>
      </trkpt>
      <trkpt lat="45.01169" lon="5.41653">
        <ele>907</ele>
        <time>2019-06-15T10:20:35.100Z</time>
      </trkpt>
      <trkpt lat="45.01166" lon="5.41653">
        <ele>906</ele>
        <time>2019-06-15T10:20:36.100Z</time>
      </trkpt>
      <trkpt lat="45.01163" lon="5.41652">
        <ele>906</ele>
        <time>2019-06-15T10:20:37.100Z</time>
      </trkpt>
      <trkpt lat="45.0116" lon="5.41651">
        <ele>905</ele>
        <time>2019-06-15T10:20:38.100Z</time>
      </trkpt>
      <trkpt lat="45.01157" lon="5.4165">
        <ele>905</ele>
        <time>2019-06-15T10:20:39.100Z</time>
      </trkpt>
      <trkpt lat="45.01154" lon="5.41649">
        <ele>904</ele>
        <time>2019-06-15T10:20:40.100Z</time>
      </trkpt>
      <trkpt lat="45.01151" lon="5.41648">
        <ele>903</ele>
        <time>2019-06-15T10:20:41.100Z</time>
      </trkpt>
      <trkpt lat="45.01148" lon="5.41648">
        <ele>903</ele>
        <time>2019-06-15T10:20:42.100Z</time>
      </trkpt>
      <trkpt lat="45.01145" lon="5.41647">
        <ele>903</ele>
        <time>2019-06-15T10:20:43.100Z</time>
      </trkpt>
      <trkpt lat="45.01142" lon="5.41645">
        <ele>903</ele>
        <time>2019-06-15T10:20:44.100Z</time>
      </trkpt>
      <trkpt lat="45.01139" lon="5.41644">
        <ele>902</ele>
        <time>2019-06-15T10:20:45.100Z</time>
      </trkpt>
      <trkpt lat="45.01136" lon="5.41643">
        <ele>901</ele>
        <time>2019-06-15T10:20:46.100Z</time>
      </trkpt>
      <trkpt lat="45.01133" lon="5.41643">
        <ele>901</ele>
        <time>2019-06-15T10:20:47.100Z</time>
      </trkpt>
      <trkpt lat="45.0113" lon="5.41642">
        <ele>901</ele>
        <time>2019-06-15T10:20:48.100Z</time>
      </trkpt>
      <trkpt lat="45.01127" lon="5.41642">
        <ele>901</ele>
        <time>2019-06-15T10:20:49.100Z</time>
      </trkpt>
      <trkpt lat="45.01124" lon="5.41641">
        <ele>899</ele>
        <time>2019-06-15T10:20:50.100Z</time>
      </trkpt>
      <trkpt lat="45.01122" lon="5.4164">
        <ele>898</ele>
        <time>2019-06-15T10:20:51.100Z</time>
      </trkpt>
      <trkpt lat="45.01119" lon="5.4164">
        <ele>898</ele>
        <time>2019-06-15T10:20:52.100Z</time>
      </trkpt>
      <trkpt lat="45.01116" lon="5.41639">
        <ele>898</ele>
        <time>2019-06-15T10:20:53.100Z</time>
      </trkpt>
      <trkpt lat="45.01113" lon="5.41639">
        <ele>898</ele>
        <time>2019-06-15T10:20:54.100Z</time>
      </trkpt>
      <trkpt lat="45.0111" lon="5.41638">
        <ele>897</ele>
        <time>2019-06-15T10:20:55.100Z</time>
      </trkpt>
      <trkpt lat="45.01107" lon="5.41637">
        <ele>897</ele>
        <time>2019-06-15T10:20:56.100Z</time>
      </trkpt>
      <trkpt lat="45.01104" lon="5.41637">
        <ele>896</ele>
        <time>2019-06-15T10:20:57.100Z</time>
      </trkpt>
      <trkpt lat="45.01102" lon="5.41636">
        <ele>895</ele>
        <time>2019-06-15T10:20:58.100Z</time>
      </trkpt>
      <trkpt lat="45.01099" lon="5.41636">
        <ele>894</ele>
        <time>2019-06-15T10:20:59.100Z</time>
      </trkpt>
      <trkpt lat="45.01097" lon="5.41635">
        <ele>893</ele>
        <time>2019-06-15T10:21:00.100Z</time>
      </trkpt>
      <trkpt lat="45.01095" lon="5.41634">
        <ele>892</ele>
        <time>2019-06-15T10:21:01.100Z</time>
      </trkpt>
      <trkpt lat="45.01093" lon="5.41633">
        <ele>892</ele>
        <time>2019-06-15T10:21:02.100Z</time>
      </trkpt>
      <trkpt lat="45.0109" lon="5.41633">
        <ele>893</ele>
        <time>2019-06-15T10:21:03.100Z</time>
      </trkpt>
      <trkpt lat="45.01087" lon="5.41632">
        <ele>893</ele>
        <time>2019-06-15T10:21:04.100Z</time>
      </trkpt>
      <trkpt lat="45.01085" lon="5.41632">
        <ele>893</ele>
        <time>2019-06-15T10:21:05.100Z</time>
      </trkpt>
      <trkpt lat="45.01083" lon="5.41631">
        <ele>894</ele>
        <time>2019-06-15T10:21:06.100Z</time>
      </trkpt>
      <trkpt lat="45.01081" lon="5.41629">
        <ele>893</ele>
        <time>2019-06-15T10:21:07.100Z</time>
      </trkpt>
      <trkpt lat="45.0108" lon="5.41628">
        <ele>893</ele>
        <time>2019-06-15T10:21:08.100Z</time>
      </trkpt>
      <trkpt lat="45.01078" lon="5.41627">
        <ele>891</ele>
        <time>2019-06-15T10:21:09.100Z</time>
      </trkpt>
      <trkpt lat="45.01077" lon="5.41625">
        <ele>890</ele>
        <time>2019-06-15T10:21:10.100Z</time>
      </trkpt>
      <trkpt lat="45.01075" lon="5.41624">
        <ele>889</ele>
        <time>2019-06-15T10:21:11.100Z</time>
      </trkpt>
      <trkpt lat="45.01073" lon="5.41623">
        <ele>887</ele>
        <time>2019-06-15T10:21:12.100Z</time>
      </trkpt>
      <trkpt lat="45.01072" lon="5.41622">
        <ele>886</ele>
        <time>2019-06-15T10:21:13.100Z</time>
      </trkpt>
      <trkpt lat="45.0107" lon="5.41621">
        <ele>886</ele>
        <time>2019-06-15T10:21:14.100Z</time>
      </trkpt>
      <trkpt lat="45.01068" lon="5.4162">
        <ele>886</ele>
        <time>2019-06-15T10:21:15.100Z</time>
      </trkpt>
      <trkpt lat="45.01065" lon="5.41618">
        <ele>885</ele>
        <time>2019-06-15T10:21:16.100Z</time>
      </trkpt>
      <trkpt lat="45.01063" lon="5.41616">
        <ele>885</ele>
        <time>2019-06-15T10:21:17.100Z</time>
      </trkpt>
      <trkpt lat="45.01061" lon="5.41615">
        <ele>884</ele>
        <time>2019-06-15T10:21:18.100Z</time>
      </trkpt>
      <trkpt lat="45.01058" lon="5.41613">
        <ele>885</ele>
        <time>2019-06-15T10:21:19.100Z</time>
      </trkpt>
      <trkpt lat="45.01056" lon="5.41612">
        <ele>885</ele>
        <time>2019-06-15T10:21:20.100Z</time>
      </trkpt>
      <trkpt lat="45.01054" lon="5.41611">
        <ele>884</ele>
        <time>2019-06-15T10:21:21.100Z</time>
      </trkpt>
      <trkpt lat="45.01051" lon="5.4161">
        <ele>884</ele>
        <time>2019-06-15T10:21:22.100Z</time>
      </trkpt>
      <trkpt lat="45.01049" lon="5.41609">
        <ele>883</ele>
        <time>2019-06-15T10:21:23.100Z</time>
      </trkpt>
      <trkpt lat="45.01046" lon="5.41609">
        <ele>883</ele>
        <time>2019-06-15T10:21:24.100Z</time>
      </trkpt>
      <trkpt lat="45.01044" lon="5.41609">
        <ele>882</ele>
        <time>2019-06-15T10:21:25.100Z</time>
      </trkpt>
      <trkpt lat="45.01042" lon="5.41609">
        <ele>882</ele>
        <time>2019-06-15T10:21:26.100Z</time>
      </trkpt>
      <trkpt lat="45.01039" lon="5.41608">
        <ele>881</ele>
        <time>2019-06-15T10:21:27.100Z</time>
      </trkpt>
      <trkpt lat="45.01037" lon="5.41608">
        <ele>881</ele>
        <time>2019-06-15T10:21:28.100Z</time>
      </trkpt>
      <trkpt lat="45.01035" lon="5.41609">
        <ele>880</ele>
        <time>2019-06-15T10:21:29.100Z</time>
      </trkpt>
      <trkpt lat="45.01034" lon="5.4161">
        <ele>879</ele>
        <time>2019-06-15T10:21:30.100Z</time>
      </trkpt>
      <trkpt lat="45.01032" lon="5.41611">
        <ele>878</ele>
        <time>2019-06-15T10:21:31.100Z</time>
      </trkpt>
      <trkpt lat="45.0103" lon="5.41612">
        <ele>878</ele>
        <time>2019-06-15T10:21:32.100Z</time>
      </trkpt>
      <trkpt lat="45.01027" lon="5.41613">
        <ele>877</ele>
        <time>2019-06-15T10:21:33.100Z</time>
      </trkpt>
      <trkpt lat="45.01025" lon="5.41613">
        <ele>877</ele>
        <time>2019-06-15T10:21:34.100Z</time>
      </trkpt>
      <trkpt lat="45.01023" lon="5.41613">
        <ele>876</ele>
        <time>2019-06-15T10:21:35.100Z</time>
      </trkpt>
      <trkpt lat="45.01022" lon="5.41614">
        <ele>876</ele>
        <time>2019-06-15T10:21:36.100Z</time>
      </trkpt>
      <trkpt lat="45.01021" lon="5.41614">
        <ele>875</ele>
        <time>2019-06-15T10:21:37.100Z</time>
      </trkpt>
      <trkpt lat="45.01019" lon="5.41615">
        <ele>874</ele>
        <time>2019-06-15T10:21:38.100Z</time>
      </trkpt>
      <trkpt lat="45.01018" lon="5.41616">
        <ele>874</ele>
        <time>2019-06-15T10:21:39.100Z</time>
      </trkpt>
      <trkpt lat="45.01017" lon="5.41617">
        <ele>873</ele>
        <time>2019-06-15T10:21:40.100Z</time>
      </trkpt>
      <trkpt lat="45.01015" lon="5.41618">
        <ele>872</ele>
        <time>2019-06-15T10:21:41.100Z</time>
      </trkpt>
      <trkpt lat="45.01014" lon="5.4162">
        <ele>870</ele>
        <time>2019-06-15T10:21:42.100Z</time>
      </trkpt>
      <trkpt lat="45.01012" lon="5.41621">
        <ele>870</ele>
        <time>2019-06-15T10:21:43.100Z</time>
      </trkpt>
      <trkpt lat="45.0101" lon="5.41623">
        <ele>869</ele>
        <time>2019-06-15T10:21:44.100Z</time>
      </trkpt>
      <trkpt lat="45.01009" lon="5.41624">
        <ele>868</ele>
        <time>2019-06-15T10:21:45.100Z</time>
      </trkpt>
      <trkpt lat="45.01007" lon="5.41625">
        <ele>867</ele>
        <time>2019-06-15T10:21:46.100Z</time>
      </trkpt>
      <trkpt lat="45.01005" lon="5.41626">
        <ele>866</ele>
        <time>2019-06-15T10:21:47.100Z</time>
      </trkpt>
      <trkpt lat="45.01003" lon="5.41627">
        <ele>864</ele>
        <time>2019-06-15T10:21:48.100Z</time>
      </trkpt>
      <trkpt lat="45.01001" lon="5.41627">
        <ele>865</ele>
        <time>2019-06-15T10:21:49.100Z</time>
      </trkpt>
      <trkpt lat="45.00999" lon="5.41627">
        <ele>863</ele>
        <time>2019-06-15T10:21:50.100Z</time>
      </trkpt>
      <trkpt lat="45.00998" lon="5.41627">
        <ele>862</ele>
        <time>2019-06-15T10:21:51.100Z</time>
      </trkpt>
      <trkpt lat="45.00996" lon="5.41627">
        <ele>860</ele>
        <time>2019-06-15T10:21:52.100Z</time>
      </trkpt>
      <trkpt lat="45.00995" lon="5.41626">
        <ele>859</ele>
        <time>2019-06-15T10:21:53.100Z</time>
      </trkpt>
      <trkpt lat="45.00993" lon="5.41627">
        <ele>859</ele>
        <time>2019-06-15T10:21:54.100Z</time>
      </trkpt>
      <trkpt lat="45.00991" lon="5.41626">
        <ele>859</ele>
        <time>2019-06-15T10:21:55.100Z</time>
      </trkpt>
      <trkpt lat="45.00989" lon="5.41626">
        <ele>860</ele>
        <time>2019-06-15T10:21:56.100Z</time>
      </trkpt>
      <trkpt lat="45.00987" lon="5.41624">
        <ele>860</ele>
        <time>2019-06-15T10:21:57.100Z</time>
      </trkpt>
      <trkpt lat="45.00985" lon="5.41623">
        <ele>859</ele>
        <time>2019-06-15T10:21:58.100Z</time>
      </trkpt>
      <trkpt lat="45.00983" lon="5.41623">
        <ele>859</ele>
        <time>2019-06-15T10:21:59.100Z</time>
      </trkpt>
      <trkpt lat="45.00981" lon="5.41622">
        <ele>859</ele>
        <time>2019-06-15T10:22:00.100Z</time>
      </trkpt>
      <trkpt lat="45.00979" lon="5.41622">
        <ele>857</ele>
        <time>2019-06-15T10:22:01.100Z</time>
      </trkpt>
      <trkpt lat="45.00977" lon="5.41622">
        <ele>856</ele>
        <time>2019-06-15T10:22:02.100Z</time>
      </trkpt>
      <trkpt lat="45.00974" lon="5.41621">
        <ele>855</ele>
        <time>2019-06-15T10:22:03.100Z</time>
      </trkpt>
      <trkpt lat="45.00971" lon="5.4162">
        <ele>855</ele>
        <time>2019-06-15T10:22:04.100Z</time>
      </trkpt>
      <trkpt lat="45.00967" lon="5.4162">
        <ele>856</ele>
        <time>2019-06-15T10:22:05.100Z</time>
      </trkpt>
      <trkpt lat="45.00964" lon="5.41619">
        <ele>856</ele>
        <time>2019-06-15T10:22:06.100Z</time>
      </trkpt>
      <trkpt lat="45.00961" lon="5.41619">
        <ele>856</ele>
        <time>2019-06-15T10:22:07.100Z</time>
      </trkpt>
      <trkpt lat="45.00958" lon="5.4162">
        <ele>855</ele>
        <time>2019-06-15T10:22:08.100Z</time>
      </trkpt>
      <trkpt lat="45.00955" lon="5.41622">
        <ele>854</ele>
        <time>2019-06-15T10:22:09.100Z</time>
      </trkpt>
      <trkpt lat="45.00952" lon="5.41624">
        <ele>854</ele>
        <time>2019-06-15T10:22:10.100Z</time>
      </trkpt>
      <trkpt lat="45.00949" lon="5.41625">
        <ele>854</ele>
        <time>2019-06-15T10:22:11.100Z</time>
      </trkpt>
      <trkpt lat="45.00946" lon="5.41625">
        <ele>854</ele>
        <time>2019-06-15T10:22:12.100Z</time>
      </trkpt>
      <trkpt lat="45.00943" lon="5.41624">
        <ele>855</ele>
        <time>2019-06-15T10:22:13.100Z</time>
      </trkpt>
      <trkpt lat="45.00939" lon="5.41624">
        <ele>854</ele>
        <time>2019-06-15T10:22:14.100Z</time>
      </trkpt>
      <trkpt lat="45.00936" lon="5.41624">
        <ele>854</ele>
        <time>2019-06-15T10:22:15.100Z</time>
      </trkpt>
      <trkpt lat="45.00934" lon="5.41624">
        <ele>853</ele>
        <time>2019-06-15T10:22:16.100Z</time>
      </trkpt>
      <trkpt lat="45.00931" lon="5.41624">
        <ele>851</ele>
        <time>2019-06-15T10:22:17.100Z</time>
      </trkpt>
      <trkpt lat="45.00928" lon="5.41625">
        <ele>852</ele>
        <time>2019-06-15T10:22:18.100Z</time>
      </trkpt>
      <trkpt lat="45.00925" lon="5.41626">
        <ele>851</ele>
        <time>2019-06-15T10:22:19.100Z</time>
      </trkpt>
      <trkpt lat="45.00922" lon="5.41627">
        <ele>851</ele>
        <time>2019-06-15T10:22:20.100Z</time>
      </trkpt>
      <trkpt lat="45.00919" lon="5.41629">
        <ele>850</ele>
        <time>2019-06-15T10:22:21.100Z</time>
      </trkpt>
      <trkpt lat="45.00917" lon="5.4163">
        <ele>850</ele>
        <time>2019-06-15T10:22:22.100Z</time>
      </trkpt>
      <trkpt lat="45.00914" lon="5.41632">
        <ele>849</ele>
        <time>2019-06-15T10:22:23.100Z</time>
      </trkpt>
      <trkpt lat="45.00911" lon="5.41634">
        <ele>848</ele>
        <time>2019-06-15T10:22:24.100Z</time>
      </trkpt>
      <trkpt lat="45.00909" lon="5.41636">
        <ele>846</ele>
        <time>2019-06-15T10:22:25.100Z</time>
      </trkpt>
      <trkpt lat="45.00907" lon="5.41639">
        <ele>845</ele>
        <time>2019-06-15T10:22:26.100Z</time>
      </trkpt>
      <trkpt lat="45.00905" lon="5.41643">
        <ele>845</ele>
        <time>2019-06-15T10:22:27.100Z</time>
      </trkpt>
      <trkpt lat="45.00903" lon="5.41646">
        <ele>844</ele>
        <time>2019-06-15T10:22:28.100Z</time>
      </trkpt>
      <trkpt lat="45.00901" lon="5.41649">
        <ele>844</ele>
        <time>2019-06-15T10:22:29.100Z</time>
      </trkpt>
      <trkpt lat="45.00899" lon="5.41652">
        <ele>843</ele>
        <time>2019-06-15T10:22:30.100Z</time>
      </trkpt>
      <trkpt lat="45.00897" lon="5.41655">
        <ele>841</ele>
        <time>2019-06-15T10:22:31.100Z</time>
      </trkpt>
      <trkpt lat="45.00895" lon="5.41658">
        <ele>840</ele>
        <time>2019-06-15T10:22:32.100Z</time>
      </trkpt>
      <trkpt lat="45.00893" lon="5.41661">
        <ele>840</ele>
        <time>2019-06-15T10:22:33.100Z</time>
      </trkpt>
      <trkpt lat="45.00891" lon="5.41663">
        <ele>840</ele>
        <time>2019-06-15T10:22:34.100Z</time>
      </trkpt>
      <trkpt lat="45.00888" lon="5.41666">
        <ele>839</ele>
        <time>2019-06-15T10:22:35.100Z</time>
      </trkpt>
      <trkpt lat="45.00886" lon="5.4167">
        <ele>839</ele>
        <time>2019-06-15T10:22:36.100Z</time>
      </trkpt>
      <trkpt lat="45.00884" lon="5.41673">
        <ele>838</ele>
        <time>2019-06-15T10:22:37.100Z</time>
      </trkpt>
      <trkpt lat="45.00882" lon="5.41677">
        <ele>837</ele>
        <time>2019-06-15T10:22:38.100Z</time>
      </trkpt>
      <trkpt lat="45.00879" lon="5.4168">
        <ele>837</ele>
        <time>2019-06-15T10:22:39.100Z</time>
      </trkpt>
      <trkpt lat="45.00877" lon="5.41682">
        <ele>836</ele>
        <time>2019-06-15T10:22:40.100Z</time>
      </trkpt>
      <trkpt lat="45.00874" lon="5.41684">
        <ele>835</ele>
        <time>2019-06-15T10:22:41.100Z</time>
      </trkpt>
      <trkpt lat="45.00872" lon="5.41686">
        <ele>834</ele>
        <time>2019-06-15T10:22:42.100Z</time>
      </trkpt>
      <trkpt lat="45.00869" lon="5.41688">
        <ele>833</ele>
        <time>2019-06-15T10:22:43.100Z</time>
      </trkpt>
      <trkpt lat="45.00867" lon="5.41689">
        <ele>834</ele>
        <time>2019-06-15T10:22:44.100Z</time>
      </trkpt>
      <trkpt lat="45.00864" lon="5.4169">
        <ele>833</ele>
        <time>2019-06-15T10:22:45.100Z</time>
      </trkpt>
      <trkpt lat="45.00862" lon="5.41692">
        <ele>832</ele>
        <time>2019-06-15T10:22:46.100Z</time>
      </trkpt>
      <trkpt lat="45.00859" lon="5.41694">
        <ele>832</ele>
        <time>2019-06-15T10:22:47.100Z</time>
      </trkpt>
      <trkpt lat="45.00857" lon="5.41697">
        <ele>831</ele>
        <time>2019-06-15T10:22:48.100Z</time>
      </trkpt>
      <trkpt lat="45.00854" lon="5.41699">
        <ele>831</ele>
        <time>2019-06-15T10:22:49.100Z</time>
      </trkpt>
      <trkpt lat="45.00852" lon="5.41702">
        <ele>830</ele>
        <time>2019-06-15T10:22:50.100Z</time>
      </trkpt>
      <trkpt lat="45.0085" lon="5.41704">
        <ele>830</ele>
        <time>2019-06-15T10:22:51.100Z</time>
      </trkpt>
      <trkpt lat="45.00847" lon="5.41707">
        <ele>831</ele>
        <time>2019-06-15T10:22:52.100Z</time>
      </trkpt>
      <trkpt lat="45.00845" lon="5.4171">
        <ele>830</ele>
        <time>2019-06-15T10:22:53.100Z</time>
      </trkpt>
      <trkpt lat="45.00844" lon="5.41714">
        <ele>829</ele>
        <time>2019-06-15T10:22:54.100Z</time>
      </trkpt>
      <trkpt lat="45.00842" lon="5.41717">
        <ele>829</ele>
        <time>2019-06-15T10:22:55.100Z</time>
      </trkpt>
      <trkpt lat="45.0084" lon="5.4172">
        <ele>828</ele>
        <time>2019-06-15T10:22:56.100Z</time>
      </trkpt>
      <trkpt lat="45.00837" lon="5.41722">
        <ele>828</ele>
        <time>2019-06-15T10:22:57.100Z</time>
      </trkpt>
      <trkpt lat="45.00834" lon="5.41724">
        <ele>827</ele>
        <time>2019-06-15T10:22:58.100Z</time>
      </trkpt>
      <trkpt lat="45.00832" lon="5.41726">
        <ele>826</ele>
        <time>2019-06-15T10:22:59.100Z</time>
      </trkpt>
      <trkpt lat="45.00829" lon="5.41728">
        <ele>825</ele>
        <time>2019-06-15T10:23:00.100Z</time>
      </trkpt>
      <trkpt lat="45.00827" lon="5.41729">
        <ele>823</ele>
        <time>2019-06-15T10:23:01.100Z</time>
      </trkpt>
      <trkpt lat="45.00825" lon="5.41729">
        <ele>823</ele>
        <time>2019-06-15T10:23:02.100Z</time>
      </trkpt>
      <trkpt lat="45.00822" lon="5.41729">
        <ele>821</ele>
        <time>2019-06-15T10:23:03.100Z</time>
      </trkpt>
      <trkpt lat="45.0082" lon="5.41729">
        <ele>819</ele>
        <time>2019-06-15T10:23:04.100Z</time>
      </trkpt>
      <trkpt lat="45.00818" lon="5.41728">
        <ele>818</ele>
        <time>2019-06-15T10:23:05.100Z</time>
      </trkpt>
      <trkpt lat="45.00816" lon="5.41727">
        <ele>818</ele>
        <time>2019-06-15T10:23:06.100Z</time>
      </trkpt>
      <trkpt lat="45.00814" lon="5.41726">
        <ele>817</ele>
        <time>2019-06-15T10:23:07.100Z</time>
      </trkpt>
      <trkpt lat="45.00811" lon="5.41725">
        <ele>817</ele>
        <time>2019-06-15T10:23:08.100Z</time>
      </trkpt>
      <trkpt lat="45.00809" lon="5.41722">
        <ele>819</ele>
        <time>2019-06-15T10:23:09.100Z</time>
      </trkpt>
      <trkpt lat="45.00806" lon="5.41719">
        <ele>817</ele>
        <time>2019-06-15T10:23:10.100Z</time>
      </trkpt>
      <trkpt lat="45.00804" lon="5.41715">
        <ele>817</ele>
        <time>2019-06-15T10:23:11.100Z</time>
      </trkpt>
      <trkpt lat="45.00802" lon="5.41712">
        <ele>818</ele>
        <time>2019-06-15T10:23:12.100Z</time>
      </trkpt>
      <trkpt lat="45.008" lon="5.4171">
        <ele>816</ele>
        <time>2019-06-15T10:23:13.100Z</time>
      </trkpt>
      <trkpt lat="45.00799" lon="5.41708">
        <ele>816</ele>
        <time>2019-06-15T10:23:14.100Z</time>
      </trkpt>
      <trkpt lat="45.00797" lon="5.41706">
        <ele>815</ele>
        <time>2019-06-15T10:23:15.100Z</time>
      </trkpt>
      <trkpt lat="45.00795" lon="5.41705">
        <ele>814</ele>
        <time>2019-06-15T10:23:16.100Z</time>
      </trkpt>
      <trkpt lat="45.00793" lon="5.41704">
        <ele>813</ele>
        <time>2019-06-15T10:23:17.100Z</time>
      </trkpt>
      <trkpt lat="45.00791" lon="5.41703">
        <ele>813</ele>
        <time>2019-06-15T10:23:18.100Z</time>
      </trkpt>
      <trkpt lat="45.00789" lon="5.41704">
        <ele>811</ele>
        <time>2019-06-15T10:23:19.100Z</time>
      </trkpt>
      <trkpt lat="45.00787" lon="5.41705">
        <ele>811</ele>
        <time>2019-06-15T10:23:20.100Z</time>
      </trkpt>
      <trkpt lat="45.00785" lon="5.41707">
        <ele>810</ele>
        <time>2019-06-15T10:23:21.100Z</time>
      </trkpt>
      <trkpt lat="45.00783" lon="5.41709">
        <ele>809</ele>
        <time>2019-06-15T10:23:22.100Z</time>
      </trkpt>
      <trkpt lat="45.00782" lon="5.41712">
        <ele>808</ele>
        <time>2019-06-15T10:23:23.100Z</time>
      </trkpt>
      <trkpt lat="45.00779" lon="5.41715">
        <ele>808</ele>
        <time>2019-06-15T10:23:24.100Z</time>
      </trkpt>
      <trkpt lat="45.00777" lon="5.41719">
        <ele>808</ele>
        <time>2019-06-15T10:23:25.100Z</time>
      </trkpt>
      <trkpt lat="45.00775" lon="5.41723">
        <ele>807</ele>
        <time>2019-06-15T10:23:26.100Z</time>
      </trkpt>
      <trkpt lat="45.00772" lon="5.41726">
        <ele>806</ele>
        <time>2019-06-15T10:23:27.100Z</time>
      </trkpt>
      <trkpt lat="45.0077" lon="5.41728">
        <ele>808</ele>
        <time>2019-06-15T10:23:28.100Z</time>
      </trkpt>
      <trkpt lat="45.00766" lon="5.41731">
        <ele>809</ele>
        <time>2019-06-15T10:23:29.100Z</time>
      </trkpt>
      <trkpt lat="45.00763" lon="5.41733">
        <ele>809</ele>
        <time>2019-06-15T10:23:30.100Z</time>
      </trkpt>
      <trkpt lat="45.00761" lon="5.41735">
        <ele>808</ele>
        <time>2019-06-15T10:23:31.100Z</time>
      </trkpt>
      <trkpt lat="45.00758" lon="5.41737">
        <ele>808</ele>
        <time>2019-06-15T10:23:32.100Z</time>
      </trkpt>
      <trkpt lat="45.00756" lon="5.41739">
        <ele>807</ele>
        <time>2019-06-15T10:23:33.100Z</time>
      </trkpt>
      <trkpt lat="45.00753" lon="5.41742">
        <ele>807</ele>
        <time>2019-06-15T10:23:34.100Z</time>
      </trkpt>
      <trkpt lat="45.00751" lon="5.41744">
        <ele>807</ele>
        <time>2019-06-15T10:23:35.100Z</time>
      </trkpt>
      <trkpt lat="45.00749" lon="5.41747">
        <ele>807</ele>
        <time>2019-06-15T10:23:36.100Z</time>
      </trkpt>
      <trkpt lat="45.00746" lon="5.4175">
        <ele>807</ele>
        <time>2019-06-15T10:23:37.100Z</time>
      </trkpt>
      <trkpt lat="45.00743" lon="5.41754">
        <ele>807</ele>
        <time>2019-06-15T10:23:38.100Z</time>
      </trkpt>
      <trkpt lat="45.00741" lon="5.41757">
        <ele>806</ele>
        <time>2019-06-15T10:23:39.100Z</time>
      </trkpt>
      <trkpt lat="45.00739" lon="5.4176">
        <ele>806</ele>
        <time>2019-06-15T10:23:40.100Z</time>
      </trkpt>
      <trkpt lat="45.00737" lon="5.41764">
        <ele>807</ele>
        <time>2019-06-15T10:23:41.100Z</time>
      </trkpt>
      <trkpt lat="45.00734" lon="5.41767">
        <ele>807</ele>
        <time>2019-06-15T10:23:42.100Z</time>
      </trkpt>
      <trkpt lat="45.00732" lon="5.4177">
        <ele>806</ele>
        <time>2019-06-15T10:23:43.100Z</time>
      </trkpt>
      <trkpt lat="45.00729" lon="5.41773">
        <ele>806</ele>
        <time>2019-06-15T10:23:44.100Z</time>
      </trkpt>
      <trkpt lat="45.00727" lon="5.41776">
        <ele>806</ele>
        <time>2019-06-15T10:23:45.100Z</time>
      </trkpt>
      <trkpt lat="45.00725" lon="5.41779">
        <ele>805</ele>
        <time>2019-06-15T10:23:46.100Z</time>
      </trkpt>
      <trkpt lat="45.00723" lon="5.41782">
        <ele>805</ele>
        <time>2019-06-15T10:23:47.100Z</time>
      </trkpt>
      <trkpt lat="45.00721" lon="5.41785">
        <ele>805</ele>
        <time>2019-06-15T10:23:48.100Z</time>
      </trkpt>
      <trkpt lat="45.00719" lon="5.41788">
        <ele>805</ele>
        <time>2019-06-15T10:23:49.100Z</time>
      </trkpt>
      <trkpt lat="45.00717" lon="5.41792">
        <ele>804</ele>
        <time>2019-06-15T10:23:50.100Z</time>
      </trkpt>
      <trkpt lat="45.00715" lon="5.41795">
        <ele>805</ele>
        <time>2019-06-15T10:23:51.100Z</time>
      </trkpt>
      <trkpt lat="45.00713" lon="5.41799">
        <ele>804</ele>
        <time>2019-06-15T10:23:52.100Z</time>
      </trkpt>
      <trkpt lat="45.0071" lon="5.41802">
        <ele>804</ele>
        <time>2019-06-15T10:23:53.100Z</time>
      </trkpt>
      <trkpt lat="45.00708" lon="5.41806">
        <ele>804</ele>
        <time>2019-06-15T10:23:54.100Z</time>
      </trkpt>
      <trkpt lat="45.00705" lon="5.41808">
        <ele>804</ele>
        <time>2019-06-15T10:23:55.100Z</time>
      </trkpt>
      <trkpt lat="45.00702" lon="5.4181">
        <ele>803</ele>
        <time>2019-06-15T10:23:56.100Z</time>
      </trkpt>
      <trkpt lat="45.007" lon="5.4181">
        <ele>800</ele>
        <time>2019-06-15T10:23:57.100Z</time>
      </trkpt>
      <trkpt lat="45.00697" lon="5.41809">
        <ele>800</ele>
        <time>2019-06-15T10:23:58.100Z</time>
      </trkpt>
      <trkpt lat="45.00696" lon="5.41805">
        <ele>800</ele>
        <time>2019-06-15T10:23:59.100Z</time>
      </trkpt>
      <trkpt lat="45.00694" lon="5.41801">
        <ele>800</ele>
        <time>2019-06-15T10:24:00.100Z</time>
      </trkpt>
      <trkpt lat="45.00694" lon="5.41798">
        <ele>800</ele>
        <time>2019-06-15T10:24:01.100Z</time>
      </trkpt>
      <trkpt lat="45.00693" lon="5.41794">
        <ele>799</ele>
        <time>2019-06-15T10:24:02.100Z</time>
      </trkpt>
      <trkpt lat="45.00692" lon="5.4179">
        <ele>799</ele>
        <time>2019-06-15T10:24:03.100Z</time>
      </trkpt>
      <trkpt lat="45.00692" lon="5.41785">
        <ele>799</ele>
        <time>2019-06-15T10:24:04.100Z</time>
      </trkpt>
      <trkpt lat="45.00692" lon="5.41781">
        <ele>799</ele>
        <time>2019-06-15T10:24:05.100Z</time>
      </trkpt>
      <trkpt lat="45.00692" lon="5.41777">
        <ele>798</ele>
        <time>2019-06-15T10:24:06.100Z</time>
      </trkpt>
      <trkpt lat="45.00693" lon="5.41773">
        <ele>797</ele>
        <time>2019-06-15T10:24:07.100Z</time>
      </trkpt>
      <trkpt lat="45.00694" lon="5.4177">
        <ele>797</ele>
        <time>2019-06-15T10:24:08.100Z</time>
      </trkpt>
      <trkpt lat="45.00694" lon="5.41766">
        <ele>797</ele>
        <time>2019-06-15T10:24:09.100Z</time>
      </trkpt>
      <trkpt lat="45.00696" lon="5.41762">
        <ele>797</ele>
        <time>2019-06-15T10:24:10.100Z</time>
      </trkpt>
      <trkpt lat="45.00697" lon="5.41759">
        <ele>797</ele>
        <time>2019-06-15T10:24:11.100Z</time>
      </trkpt>
      <trkpt lat="45.00699" lon="5.41755">
        <ele>796</ele>
        <time>2019-06-15T10:24:12.100Z</time>
      </trkpt>
      <trkpt lat="45.007" lon="5.41751">
        <ele>796</ele>
        <time>2019-06-15T10:24:13.100Z</time>
      </trkpt>
      <trkpt lat="45.00702" lon="5.41747">
        <ele>795</ele>
        <time>2019-06-15T10:24:14.100Z</time>
      </trkpt>
      <trkpt lat="45.00703" lon="5.41744">
        <ele>794</ele>
        <time>2019-06-15T10:24:15.100Z</time>
      </trkpt>
      <trkpt lat="45.00704" lon="5.4174">
        <ele>793</ele>
        <time>2019-06-15T10:24:16.100Z</time>
      </trkpt>
      <trkpt lat="45.00705" lon="5.41736">
        <ele>793</ele>
        <time>2019-06-15T10:24:17.100Z</time>
      </trkpt>
      <trkpt lat="45.00706" lon="5.41731">
        <ele>793</ele>
        <time>2019-06-15T10:24:18.100Z</time>
      </trkpt>
      <trkpt lat="45.00707" lon="5.41727">
        <ele>792</ele>
        <time>2019-06-15T10:24:19.100Z</time>
      </trkpt>
      <trkpt lat="45.00707" lon="5.41723">
        <ele>792</ele>
        <time>2019-06-15T10:24:20.100Z</time>
      </trkpt>
      <trkpt lat="45.00707" lon="5.41719">
        <ele>792</ele>
        <time>2019-06-15T10:24:21.100Z</time>
      </trkpt>
      <trkpt lat="45.00708" lon="5.41714">
        <ele>791</ele>
        <time>2019-06-15T10:24:22.100Z</time>
      </trkpt>
      <trkpt lat="45.00708" lon="5.4171">
        <ele>790</ele>
        <time>2019-06-15T10:24:23.100Z</time>
      </trkpt>
      <trkpt lat="45.00709" lon="5.41706">
        <ele>789</ele>
        <time>2019-06-15T10:24:24.100Z</time>
      </trkpt>
      <trkpt lat="45.00709" lon="5.41702">
        <ele>789</ele>
        <time>2019-06-15T10:24:25.100Z</time>
      </trkpt>
      <trkpt lat="45.0071" lon="5.41698">
        <ele>789</ele>
        <time>2019-06-15T10:24:26.100Z</time>
      </trkpt>
      <trkpt lat="45.0071" lon="5.41694">
        <ele>789</ele>
        <time>2019-06-15T10:24:27.100Z</time>
      </trkpt>
      <trkpt lat="45.00711" lon="5.4169">
        <ele>789</ele>
        <time>2019-06-15T10:24:28.100Z</time>
      </trkpt>
      <trkpt lat="45.00711" lon="5.41687">
        <ele>788</ele>
        <time>2019-06-15T10:24:29.100Z</time>
      </trkpt>
      <trkpt lat="45.00712" lon="5.41683">
        <ele>788</ele>
        <time>2019-06-15T10:24:30.100Z</time>
      </trkpt>
      <trkpt lat="45.00712" lon="5.4168">
        <ele>786</ele>
        <time>2019-06-15T10:24:31.100Z</time>
      </trkpt>
      <trkpt lat="45.00712" lon="5.41677">
        <ele>785</ele>
        <time>2019-06-15T10:24:32.100Z</time>
      </trkpt>
      <trkpt lat="45.00711" lon="5.41675">
        <ele>782</ele>
        <time>2019-06-15T10:24:33.100Z</time>
      </trkpt>
      <trkpt lat="45.0071" lon="5.41674">
        <ele>781</ele>
        <time>2019-06-15T10:24:34.100Z</time>
      </trkpt>
      <trkpt lat="45.00709" lon="5.41674">
        <ele>780</ele>
        <time>2019-06-15T10:24:35.100Z</time>
      </trkpt>
      <trkpt lat="45.00708" lon="5.41674">
        <ele>779</ele>
        <time>2019-06-15T10:24:36.100Z</time>
      </trkpt>
      <trkpt lat="45.00707" lon="5.41675">
        <ele>779</ele>
        <time>2019-06-15T10:24:37.100Z</time>
      </trkpt>
      <trkpt lat="45.00706" lon="5.41676">
        <ele>778</ele>
        <time>2019-06-15T10:24:38.100Z</time>
      </trkpt>
      <trkpt lat="45.00705" lon="5.41678">
        <ele>775</ele>
        <time>2019-06-15T10:24:39.100Z</time>
      </trkpt>
      <trkpt lat="45.00704" lon="5.4168">
        <ele>773</ele>
        <time>2019-06-15T10:24:40.100Z</time>
      </trkpt>
      <trkpt lat="45.00703" lon="5.41683">
        <ele>770</ele>
        <time>2019-06-15T10:24:41.100Z</time>
      </trkpt>
      <trkpt lat="45.00701" lon="5.41685">
        <ele>770</ele>
        <time>2019-06-15T10:24:42.100Z</time>
      </trkpt>
      <trkpt lat="45.007" lon="5.41687">
        <ele>769</ele>
        <time>2019-06-15T10:24:43.100Z</time>
      </trkpt>
      <trkpt lat="45.00698" lon="5.41689">
        <ele>768</ele>
        <time>2019-06-15T10:24:44.100Z</time>
      </trkpt>
      <trkpt lat="45.00696" lon="5.41692">
        <ele>767</ele>
        <time>2019-06-15T10:24:45.100Z</time>
      </trkpt>
      <trkpt lat="45.00694" lon="5.41695">
        <ele>766</ele>
        <time>2019-06-15T10:24:46.100Z</time>
      </trkpt>
      <trkpt lat="45.00692" lon="5.41697">
        <ele>764</ele>
        <time>2019-06-15T10:24:47.100Z</time>
      </trkpt>
      <trkpt lat="45.0069" lon="5.417">
        <ele>762</ele>
        <time>2019-06-15T10:24:48.100Z</time>
      </trkpt>
      <trkpt lat="45.00689" lon="5.41703">
        <ele>761</ele>
        <time>2019-06-15T10:24:49.100Z</time>
      </trkpt>
      <trkpt lat="45.00687" lon="5.41706">
        <ele>760</ele>
        <time>2019-06-15T10:24:50.100Z</time>
      </trkpt>
      <trkpt lat="45.00685" lon="5.41708">
        <ele>759</ele>
        <time>2019-06-15T10:24:51.100Z</time>
      </trkpt>
      <trkpt lat="45.00683" lon="5.41711">
        <ele>760</ele>
        <time>2019-06-15T10:24:52.100Z</time>
      </trkpt>
      <trkpt lat="45.00681" lon="5.41713">
        <ele>761</ele>
        <time>2019-06-15T10:24:53.100Z</time>
      </trkpt>
      <trkpt lat="45.00678" lon="5.41717">
        <ele>760</ele>
        <time>2019-06-15T10:24:54.100Z</time>
      </trkpt>
      <trkpt lat="45.00676" lon="5.4172">
        <ele>761</ele>
        <time>2019-06-15T10:24:55.100Z</time>
      </trkpt>
      <trkpt lat="45.00674" lon="5.41724">
        <ele>761</ele>
        <time>2019-06-15T10:24:56.100Z</time>
      </trkpt>
      <trkpt lat="45.00672" lon="5.41728">
        <ele>761</ele>
        <time>2019-06-15T10:24:57.100Z</time>
      </trkpt>
      <trkpt lat="45.00669" lon="5.41731">
        <ele>761</ele>
        <time>2019-06-15T10:24:58.100Z</time>
      </trkpt>
      <trkpt lat="45.00667" lon="5.41735">
        <ele>761</ele>
        <time>2019-06-15T10:24:59.100Z</time>
      </trkpt>
      <trkpt lat="45.00665" lon="5.41739">
        <ele>762</ele>
        <time>2019-06-15T10:25:00.100Z</time>
      </trkpt>
      <trkpt lat="45.00662" lon="5.41743">
        <ele>763</ele>
        <time>2019-06-15T10:25:01.100Z</time>
      </trkpt>
      <trkpt lat="45.00661" lon="5.41748">
        <ele>763</ele>
        <time>2019-06-15T10:25:02.100Z</time>
      </trkpt>
      <trkpt lat="45.00659" lon="5.41752">
        <ele>764</ele>
        <time>2019-06-15T10:25:03.100Z</time>
      </trkpt>
      <trkpt lat="45.00657" lon="5.41756">
        <ele>764</ele>
        <time>2019-06-15T10:25:04.100Z</time>
      </trkpt>
      <trkpt lat="45.00655" lon="5.41761">
        <ele>765</ele>
        <time>2019-06-15T10:25:05.100Z</time>
      </trkpt>
      <trkpt lat="45.00653" lon="5.41766">
        <ele>766</ele>
        <time>2019-06-15T10:25:06.100Z</time>
      </trkpt>
      <trkpt lat="45.00651" lon="5.41771">
        <ele>767</ele>
        <time>2019-06-15T10:25:07.100Z</time>
      </trkpt>
      <trkpt lat="45.00649" lon="5.41775">
        <ele>768</ele>
        <time>2019-06-15T10:25:08.100Z</time>
      </trkpt>
      <trkpt lat="45.00647" lon="5.41779">
        <ele>768</ele>
        <time>2019-06-15T10:25:09.100Z</time>
      </trkpt>
      <trkpt lat="45.00645" lon="5.41783">
        <ele>768</ele>
        <time>2019-06-15T10:25:10.100Z</time>
      </trkpt>
      <trkpt lat="45.00643" lon="5.41787">
        <ele>769</ele>
        <time>2019-06-15T10:25:11.100Z</time>
      </trkpt>
      <trkpt lat="45.00642" lon="5.4179">
        <ele>768</ele>
        <time>2019-06-15T10:25:12.100Z</time>
      </trkpt>
      <trkpt lat="45.0064" lon="5.41794">
        <ele>768</ele>
        <time>2019-06-15T10:25:13.100Z</time>
      </trkpt>
      <trkpt lat="45.00639" lon="5.41796">
        <ele>768</ele>
        <time>2019-06-15T10:25:14.100Z</time>
      </trkpt>
      <trkpt lat="45.00637" lon="5.41799">
        <ele>767</ele>
        <time>2019-06-15T10:25:15.100Z</time>
      </trkpt>
      <trkpt lat="45.00635" lon="5.41802">
        <ele>766</ele>
        <time>2019-06-15T10:25:16.100Z</time>
      </trkpt>
      <trkpt lat="45.00633" lon="5.41805">
        <ele>765</ele>
        <time>2019-06-15T10:25:17.100Z</time>
      </trkpt>
      <trkpt lat="45.00631" lon="5.41808">
        <ele>764</ele>
        <time>2019-06-15T10:25:18.100Z</time>
      </trkpt>
      <trkpt lat="45.00629" lon="5.41811">
        <ele>763</ele>
        <time>2019-06-15T10:25:19.100Z</time>
      </trkpt>
      <trkpt lat="45.00627" lon="5.41814">
        <ele>763</ele>
        <time>2019-06-15T10:25:20.100Z</time>
      </trkpt>
      <trkpt lat="45.00626" lon="5.41817">
        <ele>763</ele>
        <time>2019-06-15T10:25:21.100Z</time>
      </trkpt>
      <trkpt lat="45.00625" lon="5.41822">
        <ele>763</ele>
        <time>2019-06-15T10:25:22.100Z</time>
      </trkpt>
      <trkpt lat="45.00624" lon="5.41826">
        <ele>764</ele>
        <time>2019-06-15T10:25:23.100Z</time>
      </trkpt>
      <trkpt lat="45.00623" lon="5.4183">
        <ele>764</ele>
        <time>2019-06-15T10:25:24.100Z</time>
      </trkpt>
      <trkpt lat="45.00622" lon="5.41833">
        <ele>763</ele>
        <time>2019-06-15T10:25:25.100Z</time>
      </trkpt>
      <trkpt lat="45.00621" lon="5.41836">
        <ele>763</ele>
        <time>2019-06-15T10:25:26.100Z</time>
      </trkpt>
      <trkpt lat="45.0062" lon="5.41839">
        <ele>762</ele>
        <time>2019-06-15T10:25:27.100Z</time>
      </trkpt>
      <trkpt lat="45.00619" lon="5.41842">
        <ele>762</ele>
        <time>2019-06-15T10:25:28.100Z</time>
      </trkpt>
      <trkpt lat="45.00618" lon="5.41845">
        <ele>762</ele>
        <time>2019-06-15T10:25:29.100Z</time>
      </trkpt>
      <trkpt lat="45.00616" lon="5.41849">
        <ele>762</ele>
        <time>2019-06-15T10:25:30.100Z</time>
      </trkpt>
      <trkpt lat="45.00615" lon="5.41852">
        <ele>762</ele>
        <time>2019-06-15T10:25:31.100Z</time>
      </trkpt>
      <trkpt lat="45.00613" lon="5.41855">
        <ele>761</ele>
        <time>2019-06-15T10:25:32.100Z</time>
      </trkpt>
      <trkpt lat="45.00611" lon="5.41858">
        <ele>761</ele>
        <time>2019-06-15T10:25:33.100Z</time>
      </trkpt>
      <trkpt lat="45.00609" lon="5.41862">
        <ele>760</ele>
        <time>2019-06-15T10:25:34.100Z</time>
      </trkpt>
      <trkpt lat="45.00607" lon="5.41865">
        <ele>758</ele>
        <time>2019-06-15T10:25:35.100Z</time>
      </trkpt>
      <trkpt lat="45.00604" lon="5.41868">
        <ele>758</ele>
        <time>2019-06-15T10:25:36.100Z</time>
      </trkpt>
      <trkpt lat="45.00602" lon="5.41871">
        <ele>758</ele>
        <time>2019-06-15T10:25:37.100Z</time>
      </trkpt>
      <trkpt lat="45.006" lon="5.41874">
        <ele>757</ele>
        <time>2019-06-15T10:25:38.100Z</time>
      </trkpt>
      <trkpt lat="45.00598" lon="5.41877">
        <ele>758</ele>
        <time>2019-06-15T10:25:39.100Z</time>
      </trkpt>
      <trkpt lat="45.00595" lon="5.41881">
        <ele>757</ele>
        <time>2019-06-15T10:25:40.100Z</time>
      </trkpt>
      <trkpt lat="45.00593" lon="5.41884">
        <ele>757</ele>
        <time>2019-06-15T10:25:41.100Z</time>
      </trkpt>
      <trkpt lat="45.0059" lon="5.41887">
        <ele>756</ele>
        <time>2019-06-15T10:25:42.100Z</time>
      </trkpt>
      <trkpt lat="45.00588" lon="5.41891">
        <ele>756</ele>
        <time>2019-06-15T10:25:43.100Z</time>
      </trkpt>
      <trkpt lat="45.00585" lon="5.41894">
        <ele>755</ele>
        <time>2019-06-15T10:25:44.100Z</time>
      </trkpt>
      <trkpt lat="45.00583" lon="5.41897">
        <ele>755</ele>
        <time>2019-06-15T10:25:45.100Z</time>
      </trkpt>
      <trkpt lat="45.00581" lon="5.419">
        <ele>755</ele>
        <time>2019-06-15T10:25:46.100Z</time>
      </trkpt>
      <trkpt lat="45.00579" lon="5.41903">
        <ele>757</ele>
        <time>2019-06-15T10:25:47.100Z</time>
      </trkpt>
      <trkpt lat="45.00576" lon="5.41906">
        <ele>758</ele>
        <time>2019-06-15T10:25:48.100Z</time>
      </trkpt>
      <trkpt lat="45.00574" lon="5.4191">
        <ele>757</ele>
        <time>2019-06-15T10:25:49.100Z</time>
      </trkpt>
      <trkpt lat="45.00571" lon="5.41914">
        <ele>756</ele>
        <time>2019-06-15T10:25:50.100Z</time>
      </trkpt>
      <trkpt lat="45.00569" lon="5.41918">
        <ele>757</ele>
        <time>2019-06-15T10:25:51.100Z</time>
      </trkpt>
      <trkpt lat="45.00567" lon="5.41922">
        <ele>756</ele>
        <time>2019-06-15T10:25:52.100Z</time>
      </trkpt>
      <trkpt lat="45.00565" lon="5.41925">
        <ele>755</ele>
        <time>2019-06-15T10:25:53.100Z</time>
      </trkpt>
      <trkpt lat="45.00564" lon="5.41928">
        <ele>755</ele>
        <time>2019-06-15T10:25:54.100Z</time>
      </trkpt>
      <trkpt lat="45.00562" lon="5.41931">
        <ele>755</ele>
        <time>2019-06-15T10:25:55.100Z</time>
      </trkpt>
      <trkpt lat="45.0056" lon="5.41934">
        <ele>757</ele>
        <time>2019-06-15T10:25:56.100Z</time>
      </trkpt>
      <trkpt lat="45.00557" lon="5.41938">
        <ele>758</ele>
        <time>2019-06-15T10:25:57.100Z</time>
      </trkpt>
      <trkpt lat="45.00555" lon="5.41941">
        <ele>757</ele>
        <time>2019-06-15T10:25:58.100Z</time>
      </trkpt>
      <trkpt lat="45.00554" lon="5.41944">
        <ele>756</ele>
        <time>2019-06-15T10:25:59.100Z</time>
      </trkpt>
      <trkpt lat="45.00553" lon="5.41948">
        <ele>756</ele>
        <time>2019-06-15T10:26:00.100Z</time>
      </trkpt>
      <trkpt lat="45.00551" lon="5.4195">
        <ele>756</ele>
        <time>2019-06-15T10:26:01.100Z</time>
      </trkpt>
      <trkpt lat="45.00548" lon="5.41954">
        <ele>755</ele>
        <time>2019-06-15T10:26:02.100Z</time>
      </trkpt>
      <trkpt lat="45.00546" lon="5.41957">
        <ele>753</ele>
        <time>2019-06-15T10:26:03.100Z</time>
      </trkpt>
      <trkpt lat="45.00544" lon="5.41959">
        <ele>753</ele>
        <time>2019-06-15T10:26:04.100Z</time>
      </trkpt>
      <trkpt lat="45.00542" lon="5.41961">
        <ele>753</ele>
        <time>2019-06-15T10:26:05.100Z</time>
      </trkpt>
      <trkpt lat="45.0054" lon="5.41964">
        <ele>753</ele>
        <time>2019-06-15T10:26:06.100Z</time>
      </trkpt>
      <trkpt lat="45.00538" lon="5.41966">
        <ele>753</ele>
        <time>2019-06-15T10:26:07.100Z</time>
      </trkpt>
      <trkpt lat="45.00536" lon="5.41969">
        <ele>754</ele>
        <time>2019-06-15T10:26:08.100Z</time>
      </trkpt>
      <trkpt lat="45.00534" lon="5.41971">
        <ele>753</ele>
        <time>2019-06-15T10:26:09.100Z</time>
      </trkpt>
      <trkpt lat="45.00532" lon="5.41974">
        <ele>753</ele>
        <time>2019-06-15T10:26:10.100Z</time>
      </trkpt>
      <trkpt lat="45.00529" lon="5.41976">
        <ele>753</ele>
        <time>2019-06-15T10:26:11.100Z</time>
      </trkpt>
      <trkpt lat="45.00525" lon="5.41979">
        <ele>751</ele>
        <time>2019-06-15T10:26:12.100Z</time>
      </trkpt>
      <trkpt lat="45.00522" lon="5.41982">
        <ele>749</ele>
        <time>2019-06-15T10:26:13.100Z</time>
      </trkpt>
      <trkpt lat="45.00518" lon="5.41985">
        <ele>748</ele>
        <time>2019-06-15T10:26:14.100Z</time>
      </trkpt>
      <trkpt lat="45.00516" lon="5.41988">
        <ele>747</ele>
        <time>2019-06-15T10:26:15.100Z</time>
      </trkpt>
      <trkpt lat="45.00513" lon="5.41991">
        <ele>747</ele>
        <time>2019-06-15T10:26:16.100Z</time>
      </trkpt>
      <trkpt lat="45.00511" lon="5.41994">
        <ele>750</ele>
        <time>2019-06-15T10:26:17.100Z</time>
      </trkpt>
      <trkpt lat="45.00508" lon="5.41998">
        <ele>751</ele>
        <time>2019-06-15T10:26:18.100Z</time>
      </trkpt>
      <trkpt lat="45.00506" lon="5.42001">
        <ele>751</ele>
        <time>2019-06-15T10:26:19.100Z</time>
      </trkpt>
      <trkpt lat="45.00504" lon="5.42004">
        <ele>751</ele>
        <time>2019-06-15T10:26:20.100Z</time>
      </trkpt>
      <trkpt lat="45.00502" lon="5.42008">
        <ele>750</ele>
        <time>2019-06-15T10:26:21.100Z</time>
      </trkpt>
      <trkpt lat="45.005" lon="5.42012">
        <ele>749</ele>
        <time>2019-06-15T10:26:22.100Z</time>
      </trkpt>
      <trkpt lat="45.00499" lon="5.42016">
        <ele>749</ele>
        <time>2019-06-15T10:26:23.100Z</time>
      </trkpt>
      <trkpt lat="45.00497" lon="5.42021">
        <ele>749</ele>
        <time>2019-06-15T10:26:24.100Z</time>
      </trkpt>
      <trkpt lat="45.00495" lon="5.42024">
        <ele>748</ele>
        <time>2019-06-15T10:26:25.100Z</time>
      </trkpt>
      <trkpt lat="45.00494" lon="5.42028">
        <ele>749</ele>
        <time>2019-06-15T10:26:26.100Z</time>
      </trkpt>
      <trkpt lat="45.00492" lon="5.42031">
        <ele>749</ele>
        <time>2019-06-15T10:26:27.100Z</time>
      </trkpt>
      <trkpt lat="45.00491" lon="5.42034">
        <ele>747</ele>
        <time>2019-06-15T10:26:28.100Z</time>
      </trkpt>
      <trkpt lat="45.00489" lon="5.42038">
        <ele>746</ele>
        <time>2019-06-15T10:26:29.100Z</time>
      </trkpt>
      <trkpt lat="45.00488" lon="5.42043">
        <ele>744</ele>
        <time>2019-06-15T10:26:30.100Z</time>
      </trkpt>
      <trkpt lat="45.00487" lon="5.42047">
        <ele>743</ele>
        <time>2019-06-15T10:26:31.100Z</time>
      </trkpt>
      <trkpt lat="45.00485" lon="5.42051">
        <ele>740</ele>
        <time>2019-06-15T10:26:32.100Z</time>
      </trkpt>
      <trkpt lat="45.00483" lon="5.42056">
        <ele>737</ele>
        <time>2019-06-15T10:26:33.100Z</time>
      </trkpt>
      <trkpt lat="45.00482" lon="5.4206">
        <ele>735</ele>
        <time>2019-06-15T10:26:34.100Z</time>
      </trkpt>
      <trkpt lat="45.0048" lon="5.42065">
        <ele>734</ele>
        <time>2019-06-15T10:26:35.100Z</time>
      </trkpt>
      <trkpt lat="45.00479" lon="5.4207">
        <ele>733</ele>
        <time>2019-06-15T10:26:36.100Z</time>
      </trkpt>
      <trkpt lat="45.00477" lon="5.42075">
        <ele>733</ele>
        <time>2019-06-15T10:26:37.100Z</time>
      </trkpt>
      <trkpt lat="45.00475" lon="5.42079">
        <ele>733</ele>
        <time>2019-06-15T10:26:38.100Z</time>
      </trkpt>
      <trkpt lat="45.00473" lon="5.42083">
        <ele>733</ele>
        <time>2019-06-15T10:26:39.100Z</time>
      </trkpt>
      <trkpt lat="45.00472" lon="5.42088">
        <ele>732</ele>
        <time>2019-06-15T10:26:40.100Z</time>
      </trkpt>
      <trkpt lat="45.0047" lon="5.42092">
        <ele>733</ele>
        <time>2019-06-15T10:26:41.100Z</time>
      </trkpt>
      <trkpt lat="45.00469" lon="5.42096">
        <ele>733</ele>
        <time>2019-06-15T10:26:42.100Z</time>
      </trkpt>
      <trkpt lat="45.00468" lon="5.42099">
        <ele>733</ele>
        <time>2019-06-15T10:26:43.100Z</time>
      </trkpt>
      <trkpt lat="45.00466" lon="5.42103">
        <ele>733</ele>
        <time>2019-06-15T10:26:44.100Z</time>
      </trkpt>
      <trkpt lat="45.00465" lon="5.42106">
        <ele>732</ele>
        <time>2019-06-15T10:26:45.100Z</time>
      </trkpt>
      <trkpt lat="45.00463" lon="5.42109">
        <ele>729</ele>
        <time>2019-06-15T10:26:46.100Z</time>
      </trkpt>
      <trkpt lat="45.00461" lon="5.42112">
        <ele>728</ele>
        <time>2019-06-15T10:26:47.100Z</time>
      </trkpt>
      <trkpt lat="45.0046" lon="5.42115">
        <ele>727</ele>
        <time>2019-06-15T10:26:48.100Z</time>
      </trkpt>
      <trkpt lat="45.00458" lon="5.42118">
        <ele>725</ele>
        <time>2019-06-15T10:26:49.100Z</time>
      </trkpt>
      <trkpt lat="45.00456" lon="5.42121">
        <ele>724</ele>
        <time>2019-06-15T10:26:50.100Z</time>
      </trkpt>
      <trkpt lat="45.00454" lon="5.42123">
        <ele>723</ele>
        <time>2019-06-15T10:26:51.100Z</time>
      </trkpt>
      <trkpt lat="45.00451" lon="5.42126">
        <ele>722</ele>
        <time>2019-06-15T10:26:52.100Z</time>
      </trkpt>
      <trkpt lat="45.00449" lon="5.42128">
        <ele>721</ele>
        <time>2019-06-15T10:26:53.100Z</time>
      </trkpt>
      <trkpt lat="45.00447" lon="5.4213">
        <ele>720</ele>
        <time>2019-06-15T10:26:54.100Z</time>
      </trkpt>
      <trkpt lat="45.00444" lon="5.42133">
        <ele>720</ele>
        <time>2019-06-15T10:26:55.100Z</time>
      </trkpt>
      <trkpt lat="45.00441" lon="5.42136">
        <ele>720</ele>
        <time>2019-06-15T10:26:56.100Z</time>
      </trkpt>
      <trkpt lat="45.00438" lon="5.42138">
        <ele>721</ele>
        <time>2019-06-15T10:26:57.100Z</time>
      </trkpt>
      <trkpt lat="45.00435" lon="5.42141">
        <ele>719</ele>
        <time>2019-06-15T10:26:58.100Z</time>
      </trkpt>
      <trkpt lat="45.00433" lon="5.42144">
        <ele>719</ele>
        <time>2019-06-15T10:26:59.100Z</time>
      </trkpt>
      <trkpt lat="45.00431" lon="5.42146">
        <ele>718</ele>
        <time>2019-06-15T10:27:00.100Z</time>
      </trkpt>
      <trkpt lat="45.00429" lon="5.42148">
        <ele>716</ele>
        <time>2019-06-15T10:27:01.100Z</time>
      </trkpt>
      <trkpt lat="45.00427" lon="5.4215">
        <ele>715</ele>
        <time>2019-06-15T10:27:02.100Z</time>
      </trkpt>
      <trkpt lat="45.00425" lon="5.42152">
        <ele>711</ele>
        <time>2019-06-15T10:27:03.100Z</time>
      </trkpt>
      <trkpt lat="45.00422" lon="5.42155">
        <ele>710</ele>
        <time>2019-06-15T10:27:04.100Z</time>
      </trkpt>
      <trkpt lat="45.0042" lon="5.42157">
        <ele>710</ele>
        <time>2019-06-15T10:27:05.100Z</time>
      </trkpt>
      <trkpt lat="45.00417" lon="5.4216">
        <ele>710</ele>
        <time>2019-06-15T10:27:06.100Z</time>
      </trkpt>
      <trkpt lat="45.00414" lon="5.42162">
        <ele>710</ele>
        <time>2019-06-15T10:27:07.100Z</time>
      </trkpt>
      <trkpt lat="45.00412" lon="5.42165">
        <ele>710</ele>
        <time>2019-06-15T10:27:08.100Z</time>
      </trkpt>
      <trkpt lat="45.0041" lon="5.42168">
        <ele>709</ele>
        <time>2019-06-15T10:27:09.100Z</time>
      </trkpt>
      <trkpt lat="45.00408" lon="5.42171">
        <ele>709</ele>
        <time>2019-06-15T10:27:10.100Z</time>
      </trkpt>
      <trkpt lat="45.00406" lon="5.42174">
        <ele>709</ele>
        <time>2019-06-15T10:27:11.100Z</time>
      </trkpt>
      <trkpt lat="45.00404" lon="5.42178">
        <ele>708</ele>
        <time>2019-06-15T10:27:12.100Z</time>
      </trkpt>
      <trkpt lat="45.00402" lon="5.42181">
        <ele>707</ele>
        <time>2019-06-15T10:27:13.100Z</time>
      </trkpt>
      <trkpt lat="45.004" lon="5.42184">
        <ele>706</ele>
        <time>2019-06-15T10:27:14.100Z</time>
      </trkpt>
      <trkpt lat="45.00399" lon="5.42186">
        <ele>704</ele>
        <time>2019-06-15T10:27:15.100Z</time>
      </trkpt>
      <trkpt lat="45.00398" lon="5.42189">
        <ele>703</ele>
        <time>2019-06-15T10:27:16.100Z</time>
      </trkpt>
      <trkpt lat="45.00396" lon="5.42191">
        <ele>700</ele>
        <time>2019-06-15T10:27:17.100Z</time>
      </trkpt>
      <trkpt lat="45.00394" lon="5.42193">
        <ele>699</ele>
        <time>2019-06-15T10:27:18.100Z</time>
      </trkpt>
      <trkpt lat="45.00392" lon="5.42195">
        <ele>698</ele>
        <time>2019-06-15T10:27:19.100Z</time>
      </trkpt>
      <trkpt lat="45.00388" lon="5.42196">
        <ele>698</ele>
        <time>2019-06-15T10:27:20.100Z</time>
      </trkpt>
      <trkpt lat="45.00385" lon="5.42196">
        <ele>700</ele>
        <time>2019-06-15T10:27:21.100Z</time>
      </trkpt>
      <trkpt lat="45.00382" lon="5.42197">
        <ele>700</ele>
        <time>2019-06-15T10:27:22.100Z</time>
      </trkpt>
      <trkpt lat="45.00378" lon="5.42196">
        <ele>701</ele>
        <time>2019-06-15T10:27:23.100Z</time>
      </trkpt>
      <trkpt lat="45.00374" lon="5.42197">
        <ele>702</ele>
        <time>2019-06-15T10:27:24.100Z</time>
      </trkpt>
      <trkpt lat="45.00369" lon="5.42198">
        <ele>702</ele>
        <time>2019-06-15T10:27:25.100Z</time>
      </trkpt>
      <trkpt lat="45.00366" lon="5.42199">
        <ele>701</ele>
        <time>2019-06-15T10:27:26.100Z</time>
      </trkpt>
      <trkpt lat="45.00364" lon="5.422">
        <ele>702</ele>
        <time>2019-06-15T10:27:27.100Z</time>
      </trkpt>
      <trkpt lat="45.00361" lon="5.422">
        <ele>703</ele>
        <time>2019-06-15T10:27:28.100Z</time>
      </trkpt>
      <trkpt lat="45.00358" lon="5.42199">
        <ele>703</ele>
        <time>2019-06-15T10:27:29.100Z</time>
      </trkpt>
      <trkpt lat="45.00354" lon="5.422">
        <ele>704</ele>
        <time>2019-06-15T10:27:30.100Z</time>
      </trkpt>
      <trkpt lat="45.00351" lon="5.42201">
        <ele>704</ele>
        <time>2019-06-15T10:27:31.100Z</time>
      </trkpt>
      <trkpt lat="45.00348" lon="5.42202">
        <ele>705</ele>
        <time>2019-06-15T10:27:32.100Z</time>
      </trkpt>
      <trkpt lat="45.00345" lon="5.42204">
        <ele>707</ele>
        <time>2019-06-15T10:27:33.100Z</time>
      </trkpt>
      <trkpt lat="45.00341" lon="5.42205">
        <ele>708</ele>
        <time>2019-06-15T10:27:34.100Z</time>
      </trkpt>
      <trkpt lat="45.00338" lon="5.42207">
        <ele>709</ele>
        <time>2019-06-15T10:27:35.100Z</time>
      </trkpt>
      <trkpt lat="45.00335" lon="5.42209">
        <ele>710</ele>
        <time>2019-06-15T10:27:36.100Z</time>
      </trkpt>
      <trkpt lat="45.00332" lon="5.42211">
        <ele>712</ele>
        <time>2019-06-15T10:27:37.100Z</time>
      </trkpt>
      <trkpt lat="45.00328" lon="5.42213">
        <ele>713</ele>
        <time>2019-06-15T10:27:38.100Z</time>
      </trkpt>
      <trkpt lat="45.00325" lon="5.42214">
        <ele>713</ele>
        <time>2019-06-15T10:27:39.100Z</time>
      </trkpt>
      <trkpt lat="45.00321" lon="5.42215">
        <ele>713</ele>
        <time>2019-06-15T10:27:40.100Z</time>
      </trkpt>
      <trkpt lat="45.00319" lon="5.42215">
        <ele>712</ele>
        <time>2019-06-15T10:27:41.100Z</time>
      </trkpt>
      <trkpt lat="45.00316" lon="5.42216">
        <ele>713</ele>
        <time>2019-06-15T10:27:42.100Z</time>
      </trkpt>
      <trkpt lat="45.00313" lon="5.42216">
        <ele>712</ele>
        <time>2019-06-15T10:27:43.100Z</time>
      </trkpt>
      <trkpt lat="45.00309" lon="5.42217">
        <ele>712</ele>
        <time>2019-06-15T10:27:44.100Z</time>
      </trkpt>
      <trkpt lat="45.00306" lon="5.42217">
        <ele>713</ele>
        <time>2019-06-15T10:27:45.100Z</time>
      </trkpt>
      <trkpt lat="45.00303" lon="5.42218">
        <ele>715</ele>
        <time>2019-06-15T10:27:46.100Z</time>
      </trkpt>
      <trkpt lat="45.003" lon="5.4222">
        <ele>715</ele>
        <time>2019-06-15T10:27:47.100Z</time>
      </trkpt>
      <trkpt lat="45.00298" lon="5.42221">
        <ele>715</ele>
        <time>2019-06-15T10:27:48.100Z</time>
      </trkpt>
      <trkpt lat="45.00295" lon="5.42223">
        <ele>714</ele>
        <time>2019-06-15T10:27:49.100Z</time>
      </trkpt>
      <trkpt lat="45.00292" lon="5.42224">
        <ele>714</ele>
        <time>2019-06-15T10:27:50.100Z</time>
      </trkpt>
      <trkpt lat="45.00289" lon="5.42226">
        <ele>713</ele>
        <time>2019-06-15T10:27:51.100Z</time>
      </trkpt>
      <trkpt lat="45.00286" lon="5.42227">
        <ele>712</ele>
        <time>2019-06-15T10:27:52.100Z</time>
      </trkpt>
      <trkpt lat="45.00284" lon="5.42229">
        <ele>710</ele>
        <time>2019-06-15T10:27:53.100Z</time>
      </trkpt>
      <trkpt lat="45.00281" lon="5.42229">
        <ele>710</ele>
        <time>2019-06-15T10:27:54.100Z</time>
      </trkpt>
      <trkpt lat="45.00278" lon="5.42229">
        <ele>711</ele>
        <time>2019-06-15T10:27:55.100Z</time>
      </trkpt>
      <trkpt lat="45.00275" lon="5.42229">
        <ele>710</ele>
        <time>2019-06-15T10:27:56.100Z</time>
      </trkpt>
      <trkpt lat="45.00272" lon="5.42229">
        <ele>710</ele>
        <time>2019-06-15T10:27:57.100Z</time>
      </trkpt>
      <trkpt lat="45.00269" lon="5.4223">
        <ele>710</ele>
        <time>2019-06-15T10:27:58.100Z</time>
      </trkpt>
      <trkpt lat="45.00266" lon="5.42231">
        <ele>709</ele>
        <time>2019-06-15T10:27:59.100Z</time>
      </trkpt>
      <trkpt lat="45.00263" lon="5.42232">
        <ele>708</ele>
        <time>2019-06-15T10:28:00.100Z</time>
      </trkpt>
      <trkpt lat="45.00261" lon="5.42234">
        <ele>706</ele>
        <time>2019-06-15T10:28:01.100Z</time>
      </trkpt>
      <trkpt lat="45.00259" lon="5.42236">
        <ele>706</ele>
        <time>2019-06-15T10:28:02.100Z</time>
      </trkpt>
      <trkpt lat="45.00257" lon="5.42239">
        <ele>706</ele>
        <time>2019-06-15T10:28:03.100Z</time>
      </trkpt>
      <trkpt lat="45.00254" lon="5.42241">
        <ele>705</ele>
        <time>2019-06-15T10:28:04.100Z</time>
      </trkpt>
      <trkpt lat="45.00251" lon="5.42245">
        <ele>705</ele>
        <time>2019-06-15T10:28:05.100Z</time>
      </trkpt>
      <trkpt lat="45.00249" lon="5.42248">
        <ele>705</ele>
        <time>2019-06-15T10:28:06.100Z</time>
      </trkpt>
      <trkpt lat="45.00246" lon="5.42251">
        <ele>705</ele>
        <time>2019-06-15T10:28:07.100Z</time>
      </trkpt>
      <trkpt lat="45.00244" lon="5.42255">
        <ele>705</ele>
        <time>2019-06-15T10:28:08.100Z</time>
      </trkpt>
      <trkpt lat="45.00242" lon="5.42259">
        <ele>705</ele>
        <time>2019-06-15T10:28:09.100Z</time>
      </trkpt>
      <trkpt lat="45.00241" lon="5.42263">
        <ele>705</ele>
        <time>2019-06-15T10:28:10.100Z</time>
      </trkpt>
      <trkpt lat="45.00239" lon="5.42266">
        <ele>704</ele>
        <time>2019-06-15T10:28:11.100Z</time>
      </trkpt>
      <trkpt lat="45.00238" lon="5.42269">
        <ele>704</ele>
        <time>2019-06-15T10:28:12.100Z</time>
      </trkpt>
      <trkpt lat="45.00236" lon="5.42273">
        <ele>704</ele>
        <time>2019-06-15T10:28:13.100Z</time>
      </trkpt>
      <trkpt lat="45.00235" lon="5.42276">
        <ele>703</ele>
        <time>2019-06-15T10:28:14.100Z</time>
      </trkpt>
      <trkpt lat="45.00233" lon="5.42279">
        <ele>702</ele>
        <time>2019-06-15T10:28:15.100Z</time>
      </trkpt>
      <trkpt lat="45.00232" lon="5.42282">
        <ele>701</ele>
        <time>2019-06-15T10:28:16.100Z</time>
      </trkpt>
      <trkpt lat="45.0023" lon="5.42284">
        <ele>701</ele>
        <time>2019-06-15T10:28:17.100Z</time>
      </trkpt>
      <trkpt lat="45.00228" lon="5.42286">
        <ele>700</ele>
        <time>2019-06-15T10:28:18.100Z</time>
      </trkpt>
      <trkpt lat="45.00226" lon="5.42288">
        <ele>699</ele>
        <time>2019-06-15T10:28:19.100Z</time>
      </trkpt>
      <trkpt lat="45.00224" lon="5.42289">
        <ele>698</ele>
        <time>2019-06-15T10:28:20.100Z</time>
      </trkpt>
      <trkpt lat="45.00222" lon="5.4229">
        <ele>697</ele>
        <time>2019-06-15T10:28:21.100Z</time>
      </trkpt>
      <trkpt lat="45.0022" lon="5.42291">
        <ele>696</ele>
        <time>2019-06-15T10:28:22.100Z</time>
      </trkpt>
      <trkpt lat="45.00218" lon="5.42292">
        <ele>695</ele>
        <time>2019-06-15T10:28:23.100Z</time>
      </trkpt>
      <trkpt lat="45.00215" lon="5.42294">
        <ele>694</ele>
        <time>2019-06-15T10:28:24.100Z</time>
      </trkpt>
      <trkpt lat="45.00213" lon="5.42296">
        <ele>694</ele>
        <time>2019-06-15T10:28:25.100Z</time>
      </trkpt>
      <trkpt lat="45.00211" lon="5.42298">
        <ele>693</ele>
        <time>2019-06-15T10:28:26.100Z</time>
      </trkpt>
      <trkpt lat="45.0021" lon="5.423">
        <ele>691</ele>
        <time>2019-06-15T10:28:27.100Z</time>
      </trkpt>
      <trkpt lat="45.00208" lon="5.42302">
        <ele>691</ele>
        <time>2019-06-15T10:28:28.100Z</time>
      </trkpt>
      <trkpt lat="45.00206" lon="5.42305">
        <ele>690</ele>
        <time>2019-06-15T10:28:29.100Z</time>
      </trkpt>
      <trkpt lat="45.00204" lon="5.42307">
        <ele>690</ele>
        <time>2019-06-15T10:28:30.100Z</time>
      </trkpt>
      <trkpt lat="45.00202" lon="5.4231">
        <ele>689</ele>
        <time>2019-06-15T10:28:31.100Z</time>
      </trkpt>
      <trkpt lat="45.002" lon="5.42313">
        <ele>688</ele>
        <time>2019-06-15T10:28:32.100Z</time>
      </trkpt>
      <trkpt lat="45.00198" lon="5.42316">
        <ele>687</ele>
        <time>2019-06-15T10:28:33.100Z</time>
      </trkpt>
      <trkpt lat="45.00197" lon="5.4232">
        <ele>686</ele>
        <time>2019-06-15T10:28:34.100Z</time>
      </trkpt>
      <trkpt lat="45.00195" lon="5.42324">
        <ele>686</ele>
        <time>2019-06-15T10:28:35.100Z</time>
      </trkpt>
      <trkpt lat="45.00194" lon="5.42328">
        <ele>685</ele>
        <time>2019-06-15T10:28:36.100Z</time>
      </trkpt>
      <trkpt lat="45.00193" lon="5.42332">
        <ele>685</ele>
        <time>2019-06-15T10:28:37.100Z</time>
      </trkpt>
      <trkpt lat="45.00192" lon="5.42337">
        <ele>685</ele>
        <time>2019-06-15T10:28:38.100Z</time>
      </trkpt>
      <trkpt lat="45.0019" lon="5.4234">
        <ele>683</ele>
        <time>2019-06-15T10:28:39.100Z</time>
      </trkpt>
      <trkpt lat="45.00188" lon="5.42343">
        <ele>682</ele>
        <time>2019-06-15T10:28:40.100Z</time>
      </trkpt>
      <trkpt lat="45.00186" lon="5.42343">
        <ele>680</ele>
        <time>2019-06-15T10:28:41.100Z</time>
      </trkpt>
      <trkpt lat="45.00185" lon="5.42341">
        <ele>681</ele>
        <time>2019-06-15T10:28:42.100Z</time>
      </trkpt>
      <trkpt lat="45.00184" lon="5.42337">
        <ele>683</ele>
        <time>2019-06-15T10:28:43.100Z</time>
      </trkpt>
      <trkpt lat="45.00184" lon="5.42333">
        <ele>682</ele>
        <time>2019-06-15T10:28:44.100Z</time>
      </trkpt>
      <trkpt lat="45.00183" lon="5.42329">
        <ele>682</ele>
        <time>2019-06-15T10:28:45.100Z</time>
      </trkpt>
      <trkpt lat="45.00182" lon="5.42325">
        <ele>682</ele>
        <time>2019-06-15T10:28:46.100Z</time>
      </trkpt>
      <trkpt lat="45.00181" lon="5.42322">
        <ele>682</ele>
        <time>2019-06-15T10:28:47.100Z</time>
      </trkpt>
      <trkpt lat="45.00181" lon="5.42319">
        <ele>681</ele>
        <time>2019-06-15T10:28:48.100Z</time>
      </trkpt>
      <trkpt lat="45.00181" lon="5.42316">
        <ele>680</ele>
        <time>2019-06-15T10:28:49.100Z</time>
      </trkpt>
      <trkpt lat="45.0018" lon="5.42313">
        <ele>679</ele>
        <time>2019-06-15T10:28:50.100Z</time>
      </trkpt>
      <trkpt lat="45.00179" lon="5.4231">
        <ele>677</ele>
        <time>2019-06-15T10:28:51.100Z</time>
      </trkpt>
      <trkpt lat="45.00177" lon="5.42308">
        <ele>677</ele>
        <time>2019-06-15T10:28:52.100Z</time>
      </trkpt>
      <trkpt lat="45.00175" lon="5.42306">
        <ele>676</ele>
        <time>2019-06-15T10:28:53.100Z</time>
      </trkpt>
      <trkpt lat="45.00172" lon="5.42305">
        <ele>675</ele>
        <time>2019-06-15T10:28:54.100Z</time>
      </trkpt>
      <trkpt lat="45.0017" lon="5.42304">
        <ele>675</ele>
        <time>2019-06-15T10:28:55.100Z</time>
      </trkpt>
      <trkpt lat="45.00167" lon="5.42303">
        <ele>674</ele>
        <time>2019-06-15T10:28:56.100Z</time>
      </trkpt>
      <trkpt lat="45.00164" lon="5.42301">
        <ele>673</ele>
        <time>2019-06-15T10:28:57.100Z</time>
      </trkpt>
      <trkpt lat="45.00162" lon="5.423">
        <ele>673</ele>
        <time>2019-06-15T10:28:58.100Z</time>
      </trkpt>
      <trkpt lat="45.00159" lon="5.42297">
        <ele>673</ele>
        <time>2019-06-15T10:28:59.100Z</time>
      </trkpt>
      <trkpt lat="45.00156" lon="5.42295">
        <ele>672</ele>
        <time>2019-06-15T10:29:00.100Z</time>
      </trkpt>
      <trkpt lat="45.00154" lon="5.42292">
        <ele>672</ele>
        <time>2019-06-15T10:29:01.100Z</time>
      </trkpt>
      <trkpt lat="45.00151" lon="5.4229">
        <ele>672</ele>
        <time>2019-06-15T10:29:02.100Z</time>
      </trkpt>
      <trkpt lat="45.00149" lon="5.42287">
        <ele>672</ele>
        <time>2019-06-15T10:29:03.100Z</time>
      </trkpt>
      <trkpt lat="45.00148" lon="5.42285">
        <ele>672</ele>
        <time>2019-06-15T10:29:04.100Z</time>
      </trkpt>
      <trkpt lat="45.00147" lon="5.42282">
        <ele>670</ele>
        <time>2019-06-15T10:29:05.100Z</time>
      </trkpt>
      <trkpt lat="45.00146" lon="5.42278">
        <ele>670</ele>
        <time>2019-06-15T10:29:06.100Z</time>
      </trkpt>
      <trkpt lat="45.00147" lon="5.42274">
        <ele>670</ele>
        <time>2019-06-15T10:29:07.100Z</time>
      </trkpt>
      <trkpt lat="45.00147" lon="5.42271">
        <ele>671</ele>
        <time>2019-06-15T10:29:08.100Z</time>
      </trkpt>
      <trkpt lat="45.00147" lon="5.42268">
        <ele>670</ele>
        <time>2019-06-15T10:29:09.100Z</time>
      </trkpt>
      <trkpt lat="45.00146" lon="5.42264">
        <ele>669</ele>
        <time>2019-06-15T10:29:10.100Z</time>
      </trkpt>
      <trkpt lat="45.00146" lon="5.42261">
        <ele>667</ele>
        <time>2019-06-15T10:29:11.100Z</time>
      </trkpt>
      <trkpt lat="45.00145" lon="5.42258">
        <ele>667</ele>
        <time>2019-06-15T10:29:12.100Z</time>
      </trkpt>
      <trkpt lat="45.00143" lon="5.42256">
        <ele>666</ele>
        <time>2019-06-15T10:29:13.100Z</time>
      </trkpt>
      <trkpt lat="45.00141" lon="5.42254">
        <ele>665</ele>
        <time>2019-06-15T10:29:14.100Z</time>
      </trkpt>
      <trkpt lat="45.00138" lon="5.42252">
        <ele>665</ele>
        <time>2019-06-15T10:29:15.100Z</time>
      </trkpt>
      <trkpt lat="45.00136" lon="5.42251">
        <ele>665</ele>
        <time>2019-06-15T10:29:16.100Z</time>
      </trkpt>
      <trkpt lat="45.00134" lon="5.4225">
        <ele>664</ele>
        <time>2019-06-15T10:29:17.100Z</time>
      </trkpt>
      <trkpt lat="45.00131" lon="5.42249">
        <ele>665</ele>
        <time>2019-06-15T10:29:18.100Z</time>
      </trkpt>
      <trkpt lat="45.0013" lon="5.42249">
        <ele>664</ele>
        <time>2019-06-15T10:29:19.100Z</time>
      </trkpt>
      <trkpt lat="45.00128" lon="5.42249">
        <ele>664</ele>
        <time>2019-06-15T10:29:20.100Z</time>
      </trkpt>
      <trkpt lat="45.00127" lon="5.42249">
        <ele>664</ele>
        <time>2019-06-15T10:29:21.100Z</time>
      </trkpt>
      <trkpt lat="45.00125" lon="5.42249">
        <ele>664</ele>
        <time>2019-06-15T10:29:22.100Z</time>
      </trkpt>
      <trkpt lat="45.00123" lon="5.42248">
        <ele>663</ele>
        <time>2019-06-15T10:29:23.100Z</time>
      </trkpt>
      <trkpt lat="45.00122" lon="5.42247">
        <ele>663</ele>
        <time>2019-06-15T10:29:24.100Z</time>
      </trkpt>
      <trkpt lat="45.00122" lon="5.42247">
        <ele>663</ele>
        <time>2019-06-15T10:29:25.100Z</time>
      </trkpt>
      <trkpt lat="45.00121" lon="5.42247">
        <ele>663</ele>
        <time>2019-06-15T10:29:26.100Z</time>
      </trkpt>
      <trkpt lat="45.0012" lon="5.42248">
        <ele>663</ele>
        <time>2019-06-15T10:29:27.100Z</time>
      </trkpt>
      <trkpt lat="45.00119" lon="5.42248">
        <ele>663</ele>
        <time>2019-06-15T10:29:28.100Z</time>
      </trkpt>
      <trkpt lat="45.00117" lon="5.42249">
        <ele>663</ele>
        <time>2019-06-15T10:29:29.100Z</time>
      </trkpt>
      <trkpt lat="45.00116" lon="5.4225">
        <ele>663</ele>
        <time>2019-06-15T10:29:30.100Z</time>
      </trkpt>
      <trkpt lat="45.00114" lon="5.42252">
        <ele>662</ele>
        <time>2019-06-15T10:29:31.100Z</time>
      </trkpt>
      <trkpt lat="45.00113" lon="5.42254">
        <ele>663</ele>
        <time>2019-06-15T10:29:32.100Z</time>
      </trkpt>
      <trkpt lat="45.00112" lon="5.42256">
        <ele>662</ele>
        <time>2019-06-15T10:29:33.100Z</time>
      </trkpt>
      <trkpt lat="45.00111" lon="5.42257">
        <ele>663</ele>
        <time>2019-06-15T10:29:34.100Z</time>
      </trkpt>
      <trkpt lat="45.00109" lon="5.42259">
        <ele>663</ele>
        <time>2019-06-15T10:29:35.100Z</time>
      </trkpt>
      <trkpt lat="45.00108" lon="5.42261">
        <ele>663</ele>
        <time>2019-06-15T10:29:36.100Z</time>
      </trkpt>
      <trkpt lat="45.00106" lon="5.42263">
        <ele>663</ele>
        <time>2019-06-15T10:29:37.100Z</time>
      </trkpt>
      <trkpt lat="45.00104" lon="5.42265">
        <ele>663</ele>
        <time>2019-06-15T10:29:38.100Z</time>
      </trkpt>
      <trkpt lat="45.00104" lon="5.42268">
        <ele>663</ele>
        <time>2019-06-15T10:29:39.100Z</time>
      </trkpt>
      <trkpt lat="45.00103" lon="5.4227">
        <ele>662</ele>
        <time>2019-06-15T10:29:40.100Z</time>
      </trkpt>
      <trkpt lat="45.00102" lon="5.42272">
        <ele>663</ele>
        <time>2019-06-15T10:29:41.100Z</time>
      </trkpt>
      <trkpt lat="45.00101" lon="5.42275">
        <ele>663</ele>
        <time>2019-06-15T10:29:42.100Z</time>
      </trkpt>
      <trkpt lat="45.001" lon="5.42279">
        <ele>663</ele>
        <time>2019-06-15T10:29:43.100Z</time>
      </trkpt>
      <trkpt lat="45.00099" lon="5.42282">
        <ele>663</ele>
        <time>2019-06-15T10:29:44.100Z</time>
      </trkpt>
      <trkpt lat="45.00098" lon="5.42285">
        <ele>665</ele>
        <time>2019-06-15T10:29:45.100Z</time>
      </trkpt>
      <trkpt lat="45.00096" lon="5.42289">
        <ele>669</ele>
        <time>2019-06-15T10:29:46.100Z</time>
      </trkpt>
      <trkpt lat="45.00094" lon="5.42294">
        <ele>671</ele>
        <time>2019-06-15T10:29:47.100Z</time>
      </trkpt>
      <trkpt lat="45.00093" lon="5.42299">
        <ele>672</ele>
        <time>2019-06-15T10:29:48.100Z</time>
      </trkpt>
      <trkpt lat="45.00092" lon="5.42302">
        <ele>672</ele>
        <time>2019-06-15T10:29:49.100Z</time>
      </trkpt>
      <trkpt lat="45.00092" lon="5.42307">
        <ele>673</ele>
        <time>2019-06-15T10:29:50.100Z</time>
      </trkpt>
      <trkpt lat="45.00093" lon="5.42311">
        <ele>673</ele>
        <time>2019-06-15T10:29:51.100Z</time>
      </trkpt>
      <trkpt lat="45.00093" lon="5.42315">
        <ele>673</ele>
        <time>2019-06-15T10:29:52.100Z</time>
      </trkpt>
      <trkpt lat="45.00093" lon="5.42319">
        <ele>674</ele>
        <time>2019-06-15T10:29:53.100Z</time>
      </trkpt>
      <trkpt lat="45.00092" lon="5.42323">
        <ele>675</ele>
        <time>2019-06-15T10:29:54.100Z</time>
      </trkpt>
      <trkpt lat="45.00091" lon="5.42326">
        <ele>676</ele>
        <time>2019-06-15T10:29:55.100Z</time>
      </trkpt>
      <trkpt lat="45.0009" lon="5.42329">
        <ele>675</ele>
        <time>2019-06-15T10:29:56.100Z</time>
      </trkpt>
      <trkpt lat="45.00089" lon="5.42332">
        <ele>676</ele>
        <time>2019-06-15T10:29:57.100Z</time>
      </trkpt>
      <trkpt lat="45.00088" lon="5.42335">
        <ele>676</ele>
        <time>2019-06-15T10:29:58.100Z</time>
      </trkpt>
      <trkpt lat="45.00087" lon="5.42338">
        <ele>676</ele>
        <time>2019-06-15T10:29:59.100Z</time>
      </trkpt>
      <trkpt lat="45.00087" lon="5.4234">
        <ele>676</ele>
        <time>2019-06-15T10:30:00.100Z</time>
      </trkpt>
      <trkpt lat="45.00086" lon="5.42341">
        <ele>677</ele>
        <time>2019-06-15T10:30:01.100Z</time>
      </trkpt>
      <trkpt lat="45.00085" lon="5.42342">
        <ele>677</ele>
        <time>2019-06-15T10:30:02.100Z</time>
      </trkpt>
      <trkpt lat="45.00084" lon="5.42342">
        <ele>677</ele>
        <time>2019-06-15T10:30:03.100Z</time>
      </trkpt>
      <trkpt lat="45.00084" lon="5.42342">
        <ele>677</ele>
        <time>2019-06-15T10:30:04.100Z</time>
      </trkpt>
      <trkpt lat="45.00083" lon="5.42341">
        <ele>677</ele>
        <time>2019-06-15T10:30:05.100Z</time>
      </trkpt>
      <trkpt lat="45.00082" lon="5.4234">
        <ele>677</ele>
        <time>2019-06-15T10:30:06.100Z</time>
      </trkpt>
      <trkpt lat="45.00081" lon="5.4234">
        <ele>677</ele>
        <time>2019-06-15T10:30:07.100Z</time>
      </trkpt>
      <trkpt lat="45.0008" lon="5.4234">
        <ele>677</ele>
        <time>2019-06-15T10:30:08.100Z</time>
      </trkpt>
      <trkpt lat="45.00079" lon="5.4234">
        <ele>676</ele>
        <time>2019-06-15T10:30:09.100Z</time>
      </trkpt>
      <trkpt lat="45.00077" lon="5.4234">
        <ele>677</ele>
        <time>2019-06-15T10:30:10.100Z</time>
      </trkpt>
      <trkpt lat="45.00076" lon="5.4234">
        <ele>677</ele>
        <time>2019-06-15T10:30:11.100Z</time>
      </trkpt>
      <trkpt lat="45.00075" lon="5.4234">
        <ele>677</ele>
        <time>2019-06-15T10:30:12.100Z</time>
      </trkpt>
      <trkpt lat="45.00073" lon="5.42341">
        <ele>676</ele>
        <time>2019-06-15T10:30:13.100Z</time>
      </trkpt>
      <trkpt lat="45.00072" lon="5.42341">
        <ele>677</ele>
        <time>2019-06-15T10:30:14.100Z</time>
      </trkpt>
      <trkpt lat="45.0007" lon="5.42341">
        <ele>676</ele>
        <time>2019-06-15T10:30:15.100Z</time>
      </trkpt>
      <trkpt lat="45.00069" lon="5.42341">
        <ele>675</ele>
        <time>2019-06-15T10:30:16.100Z</time>
      </trkpt>
      <trkpt lat="45.00067" lon="5.42341">
        <ele>675</ele>
        <time>2019-06-15T10:30:17.100Z</time>
      </trkpt>
      <trkpt lat="45.00065" lon="5.42341">
        <ele>675</ele>
        <time>2019-06-15T10:30:18.100Z</time>
      </trkpt>
      <trkpt lat="45.00063" lon="5.42341">
        <ele>675</ele>
        <time>2019-06-15T10:30:19.100Z</time>
      </trkpt>
      <trkpt lat="45.00061" lon="5.42341">
        <ele>675</ele>
        <time>2019-06-15T10:30:20.100Z</time>
      </trkpt>
      <trkpt lat="45.00059" lon="5.42341">
        <ele>675</ele>
        <time>2019-06-15T10:30:21.100Z</time>
      </trkpt>
      <trkpt lat="45.00057" lon="5.4234">
        <ele>675</ele>
        <time>2019-06-15T10:30:22.100Z</time>
      </trkpt>
      <trkpt lat="45.00055" lon="5.4234">
        <ele>675</ele>
        <time>2019-06-15T10:30:23.100Z</time>
      </trkpt>
      <trkpt lat="45.00053" lon="5.4234">
        <ele>675</ele>
        <time>2019-06-15T10:30:24.100Z</time>
      </trkpt>
      <trkpt lat="45.00051" lon="5.42341">
        <ele>675</ele>
        <time>2019-06-15T10:30:25.100Z</time>
      </trkpt>
      <trkpt lat="45.00049" lon="5.42342">
        <ele>674</ele>
        <time>2019-06-15T10:30:26.100Z</time>
      </trkpt>
      <trkpt lat="45.00047" lon="5.42343">
        <ele>675</ele>
        <time>2019-06-15T10:30:27.100Z</time>
      </trkpt>
      <trkpt lat="45.00044" lon="5.42343">
        <ele>676</ele>
        <time>2019-06-15T10:30:28.100Z</time>
      </trkpt>
      <trkpt lat="45.00042" lon="5.42344">
        <ele>675</ele>
        <time>2019-06-15T10:30:29.100Z</time>
      </trkpt>
      <trkpt lat="45.0004" lon="5.42345">
        <ele>675</ele>
        <time>2019-06-15T10:30:30.100Z</time>
      </trkpt>
      <trkpt lat="45.00038" lon="5.42346">
        <ele>675</ele>
        <time>2019-06-15T10:30:31.100Z</time>
      </trkpt>
      <trkpt lat="45.00036" lon="5.42346">
        <ele>675</ele>
        <time>2019-06-15T10:30:32.100Z</time>
      </trkpt>
      <trkpt lat="45.00034" lon="5.42347">
        <ele>676</ele>
        <time>2019-06-15T10:30:33.100Z</time>
      </trkpt>
      <trkpt lat="45.00031" lon="5.42349">
        <ele>676</ele>
        <time>2019-06-15T10:30:34.100Z</time>
      </trkpt>
      <trkpt lat="45.00029" lon="5.4235">
        <ele>676</ele>
        <time>2019-06-15T10:30:35.100Z</time>
      </trkpt>
      <trkpt lat="45.00027" lon="5.4235">
        <ele>676</ele>
        <time>2019-06-15T10:30:36.100Z</time>
      </trkpt>
      <trkpt lat="45.00025" lon="5.42351">
        <ele>676</ele>
        <time>2019-06-15T10:30:37.100Z</time>
      </trkpt>
      <trkpt lat="45.00023" lon="5.42351">
        <ele>676</ele>
        <time>2019-06-15T10:30:38.100Z</time>
      </trkpt>
      <trkpt lat="45.00021" lon="5.42352">
        <ele>677</ele>
        <time>2019-06-15T10:30:39.100Z</time>
      </trkpt>
      <trkpt lat="45.00019" lon="5.42352">
        <ele>676</ele>
        <time>2019-06-15T10:30:40.100Z</time>
      </trkpt>
      <trkpt lat="45.00017" lon="5.42352">
        <ele>676</ele>
        <time>2019-06-15T10:30:41.100Z</time>
      </trkpt>
      <trkpt lat="45.00015" lon="5.42352">
        <ele>676</ele>
        <time>2019-06-15T10:30:42.100Z</time>
      </trkpt>
      <trkpt lat="45.00013" lon="5.42353">
        <ele>677</ele>
        <time>2019-06-15T10:30:43.100Z</time>
      </trkpt>
      <trkpt lat="45.00011" lon="5.42353">
        <ele>677</ele>
        <time>2019-06-15T10:30:44.100Z</time>
      </trkpt>
      <trkpt lat="45.00009" lon="5.42353">
        <ele>677</ele>
        <time>2019-06-15T10:30:45.100Z</time>
      </trkpt>
      <trkpt lat="45.00007" lon="5.42353">
        <ele>678</ele>
        <time>2019-06-15T10:30:46.100Z</time>
      </trkpt>
      <trkpt lat="45.00005" lon="5.42353">
        <ele>678</ele>
        <time>2019-06-15T10:30:47.100Z</time>
      </trkpt>
      <trkpt lat="45.00003" lon="5.42354">
        <ele>678</ele>
        <time>2019-06-15T10:30:48.100Z</time>
      </trkpt>
      <trkpt lat="45.00002" lon="5.42354">
        <ele>678</ele>
        <time>2019-06-15T10:30:49.100Z</time>
      </trkpt>
      <trkpt lat="45.00001" lon="5.42354">
        <ele>678</ele>
        <time>2019-06-15T10:30:50.100Z</time>
      </trkpt>
      <trkpt lat="44.99999" lon="5.42355">
        <ele>678</ele>
        <time>2019-06-15T10:30:51.100Z</time>
      </trkpt>
      <trkpt lat="44.99998" lon="5.42356">
        <ele>679</ele>
        <time>2019-06-15T10:30:52.100Z</time>
      </trkpt>
      <trkpt lat="44.99996" lon="5.42357">
        <ele>679</ele>
        <time>2019-06-15T10:30:53.100Z</time>
      </trkpt>
      <trkpt lat="44.99994" lon="5.42358">
        <ele>679</ele>
        <time>2019-06-15T10:30:54.100Z</time>
      </trkpt>
      <trkpt lat="44.99992" lon="5.42358">
        <ele>678</ele>
        <time>2019-06-15T10:30:55.100Z</time>
      </trkpt>
      <trkpt lat="44.9999" lon="5.42359">
        <ele>679</ele>
        <time>2019-06-15T10:30:56.100Z</time>
      </trkpt>
      <trkpt lat="44.99989" lon="5.4236">
        <ele>678</ele>
        <time>2019-06-15T10:30:57.100Z</time>
      </trkpt>
      <trkpt lat="44.99987" lon="5.42361">
        <ele>678</ele>
        <time>2019-06-15T10:30:58.100Z</time>
      </trkpt>
      <trkpt lat="44.99985" lon="5.42361">
        <ele>678</ele>
        <time>2019-06-15T10:30:59.100Z</time>
      </trkpt>
      <trkpt lat="44.99983" lon="5.42361">
        <ele>678</ele>
        <time>2019-06-15T10:31:00.100Z</time>
      </trkpt>
      <trkpt lat="44.9998" lon="5.42362">
        <ele>678</ele>
        <time>2019-06-15T10:31:01.100Z</time>
      </trkpt>
      <trkpt lat="44.99979" lon="5.42362">
        <ele>678</ele>
        <time>2019-06-15T10:31:02.100Z</time>
      </trkpt>
      <trkpt lat="44.99976" lon="5.42363">
        <ele>679</ele>
        <time>2019-06-15T10:31:03.100Z</time>
      </trkpt>
      <trkpt lat="44.99974" lon="5.42363">
        <ele>679</ele>
        <time>2019-06-15T10:31:04.100Z</time>
      </trkpt>
      <trkpt lat="44.99972" lon="5.42364">
        <ele>680</ele>
        <time>2019-06-15T10:31:05.100Z</time>
      </trkpt>
      <trkpt lat="44.99969" lon="5.42365">
        <ele>680</ele>
        <time>2019-06-15T10:31:06.100Z</time>
      </trkpt>
      <trkpt lat="44.99967" lon="5.42365">
        <ele>680</ele>
        <time>2019-06-15T10:31:07.100Z</time>
      </trkpt>
      <trkpt lat="44.99965" lon="5.42365">
        <ele>680</ele>
        <time>2019-06-15T10:31:08.100Z</time>
      </trkpt>
      <trkpt lat="44.99963" lon="5.42366">
        <ele>681</ele>
        <time>2019-06-15T10:31:09.100Z</time>
      </trkpt>
      <trkpt lat="44.99961" lon="5.42366">
        <ele>681</ele>
        <time>2019-06-15T10:31:10.100Z</time>
      </trkpt>
      <trkpt lat="44.99959" lon="5.42366">
        <ele>682</ele>
        <time>2019-06-15T10:31:11.100Z</time>
      </trkpt>
      <trkpt lat="44.99957" lon="5.42366">
        <ele>682</ele>
        <time>2019-06-15T10:31:12.100Z</time>
      </trkpt>
      <trkpt lat="44.99955" lon="5.42366">
        <ele>683</ele>
        <time>2019-06-15T10:31:13.100Z</time>
      </trkpt>
      <trkpt lat="44.99953" lon="5.42367">
        <ele>683</ele>
        <time>2019-06-15T10:31:14.100Z</time>
      </trkpt>
      <trkpt lat="44.99951" lon="5.42367">
        <ele>683</ele>
        <time>2019-06-15T10:31:15.100Z</time>
      </trkpt>
      <trkpt lat="44.99949" lon="5.42367">
        <ele>684</ele>
        <time>2019-06-15T10:31:16.100Z</time>
      </trkpt>
      <trkpt lat="44.99947" lon="5.42366">
        <ele>684</ele>
        <time>2019-06-15T10:31:17.100Z</time>
      </trkpt>
      <trkpt lat="44.99945" lon="5.42366">
        <ele>685</ele>
        <time>2019-06-15T10:31:18.100Z</time>
      </trkpt>
      <trkpt lat="44.99944" lon="5.42366">
        <ele>685</ele>
        <time>2019-06-15T10:31:19.100Z</time>
      </trkpt>
      <trkpt lat="44.99942" lon="5.42366">
        <ele>685</ele>
        <time>2019-06-15T10:31:20.100Z</time>
      </trkpt>
      <trkpt lat="44.9994" lon="5.42366">
        <ele>685</ele>
        <time>2019-06-15T10:31:21.100Z</time>
      </trkpt>
      <trkpt lat="44.99939" lon="5.42365">
        <ele>685</ele>
        <time>2019-06-15T10:31:22.100Z</time>
      </trkpt>
      <trkpt lat="44.99938" lon="5.42365">
        <ele>685</ele>
        <time>2019-06-15T10:31:23.100Z</time>
      </trkpt>
      <trkpt lat="44.99936" lon="5.42364">
        <ele>686</ele>
        <time>2019-06-15T10:31:24.100Z</time>
      </trkpt>
      <trkpt lat="44.99935" lon="5.42363">
        <ele>686</ele>
        <time>2019-06-15T10:31:25.100Z</time>
      </trkpt>
      <trkpt lat="44.99933" lon="5.42362">
        <ele>686</ele>
        <time>2019-06-15T10:31:26.100Z</time>
      </trkpt>
      <trkpt lat="44.99932" lon="5.42361">
        <ele>687</ele>
        <time>2019-06-15T10:31:27.100Z</time>
      </trkpt>
      <trkpt lat="44.99931" lon="5.42359">
        <ele>687</ele>
        <time>2019-06-15T10:31:28.100Z</time>
      </trkpt>
      <trkpt lat="44.99929" lon="5.42357">
        <ele>688</ele>
        <time>2019-06-15T10:31:29.100Z</time>
      </trkpt>
      <trkpt lat="44.99929" lon="5.42355">
        <ele>687</ele>
        <time>2019-06-15T10:31:30.100Z</time>
      </trkpt>
      <trkpt lat="44.9993" lon="5.42353">
        <ele>688</ele>
        <time>2019-06-15T10:31:31.100Z</time>
      </trkpt>
      <trkpt lat="44.9993" lon="5.42351">
        <ele>688</ele>
        <time>2019-06-15T10:31:32.100Z</time>
      </trkpt>
      <trkpt lat="44.99929" lon="5.42349">
        <ele>688</ele>
        <time>2019-06-15T10:31:33.100Z</time>
      </trkpt>
      <trkpt lat="44.99929" lon="5.42347">
        <ele>688</ele>
        <time>2019-06-15T10:31:34.100Z</time>
      </trkpt>
      <trkpt lat="44.99928" lon="5.42346">
        <ele>689</ele>
        <time>2019-06-15T10:31:35.100Z</time>
      </trkpt>
      <trkpt lat="44.99927" lon="5.42344">
        <ele>689</ele>
        <time>2019-06-15T10:31:36.100Z</time>
      </trkpt>
      <trkpt lat="44.99926" lon="5.42342">
        <ele>689</ele>
        <time>2019-06-15T10:31:37.100Z</time>
      </trkpt>
      <trkpt lat="44.99926" lon="5.42341">
        <ele>690</ele>
        <time>2019-06-15T10:31:38.100Z</time>
      </trkpt>
      <trkpt lat="44.99925" lon="5.42339">
        <ele>690</ele>
        <time>2019-06-15T10:31:39.100Z</time>
      </trkpt>
      <trkpt lat="44.99925" lon="5.42337">
        <ele>690</ele>
        <time>2019-06-15T10:31:40.100Z</time>
      </trkpt>
      <trkpt lat="44.99924" lon="5.42335">
        <ele>691</ele>
        <time>2019-06-15T10:31:41.100Z</time>
      </trkpt>
      <trkpt lat="44.99924" lon="5.42333">
        <ele>691</ele>
        <time>2019-06-15T10:31:42.100Z</time>
      </trkpt>
      <trkpt lat="44.99924" lon="5.42332">
        <ele>692</ele>
        <time>2019-06-15T10:31:43.100Z</time>
      </trkpt>
      <trkpt lat="44.99924" lon="5.4233">
        <ele>692</ele>
        <time>2019-06-15T10:31:44.100Z</time>
      </trkpt>
      <trkpt lat="44.99923" lon="5.42329">
        <ele>693</ele>
        <time>2019-06-15T10:31:45.100Z</time>
      </trkpt>
      <trkpt lat="44.99923" lon="5.42327">
        <ele>694</ele>
        <time>2019-06-15T10:31:46.100Z</time>
      </trkpt>
      <trkpt lat="44.99923" lon="5.42326">
        <ele>694</ele>
        <time>2019-06-15T10:31:47.100Z</time>
      </trkpt>
      <trkpt lat="44.99922" lon="5.42325">
        <ele>693</ele>
        <time>2019-06-15T10:31:48.100Z</time>
      </trkpt>
      <trkpt lat="44.99921" lon="5.42324">
        <ele>692</ele>
        <time>2019-06-15T10:31:49.100Z</time>
      </trkpt>
      <trkpt lat="44.9992" lon="5.42324">
        <ele>692</ele>
        <time>2019-06-15T10:31:50.100Z</time>
      </trkpt>
      <trkpt lat="44.99919" lon="5.42324">
        <ele>691</ele>
        <time>2019-06-15T10:31:51.100Z</time>
      </trkpt>
      <trkpt lat="44.99917" lon="5.42325">
        <ele>690</ele>
        <time>2019-06-15T10:31:52.100Z</time>
      </trkpt>
      <trkpt lat="44.99915" lon="5.42325">
        <ele>689</ele>
        <time>2019-06-15T10:31:53.100Z</time>
      </trkpt>
      <trkpt lat="44.99912" lon="5.42325">
        <ele>688</ele>
        <time>2019-06-15T10:31:54.100Z</time>
      </trkpt>
      <trkpt lat="44.99909" lon="5.42326">
        <ele>688</ele>
        <time>2019-06-15T10:31:55.100Z</time>
      </trkpt>
      <trkpt lat="44.99907" lon="5.42326">
        <ele>687</ele>
        <time>2019-06-15T10:31:56.100Z</time>
      </trkpt>
      <trkpt lat="44.99904" lon="5.42327">
        <ele>688</ele>
        <time>2019-06-15T10:31:57.100Z</time>
      </trkpt>
      <trkpt lat="44.99901" lon="5.42327">
        <ele>688</ele>
        <time>2019-06-15T10:31:58.100Z</time>
      </trkpt>
      <trkpt lat="44.99898" lon="5.42327">
        <ele>687</ele>
        <time>2019-06-15T10:31:59.100Z</time>
      </trkpt>
      <trkpt lat="44.99895" lon="5.42327">
        <ele>687</ele>
        <time>2019-06-15T10:32:00.100Z</time>
      </trkpt>
      <trkpt lat="44.99893" lon="5.42327">
        <ele>687</ele>
        <time>2019-06-15T10:32:01.100Z</time>
      </trkpt>
      <trkpt lat="44.9989" lon="5.42327">
        <ele>686</ele>
        <time>2019-06-15T10:32:02.100Z</time>
      </trkpt>
      <trkpt lat="44.99887" lon="5.42326">
        <ele>686</ele>
        <time>2019-06-15T10:32:03.100Z</time>
      </trkpt>
      <trkpt lat="44.99884" lon="5.42326">
        <ele>685</ele>
        <time>2019-06-15T10:32:04.100Z</time>
      </trkpt>
      <trkpt lat="44.99881" lon="5.42326">
        <ele>685</ele>
        <time>2019-06-15T10:32:05.100Z</time>
      </trkpt>
      <trkpt lat="44.99878" lon="5.42326">
        <ele>685</ele>
        <time>2019-06-15T10:32:06.100Z</time>
      </trkpt>
      <trkpt lat="44.99874" lon="5.42327">
        <ele>683</ele>
        <time>2019-06-15T10:32:07.100Z</time>
      </trkpt>
      <trkpt lat="44.99871" lon="5.42327">
        <ele>683</ele>
        <time>2019-06-15T10:32:08.100Z</time>
      </trkpt>
      <trkpt lat="44.99868" lon="5.42327">
        <ele>683</ele>
        <time>2019-06-15T10:32:09.100Z</time>
      </trkpt>
      <trkpt lat="44.99865" lon="5.42327">
        <ele>683</ele>
        <time>2019-06-15T10:32:10.100Z</time>
      </trkpt>
      <trkpt lat="44.99862" lon="5.42326">
        <ele>685</ele>
        <time>2019-06-15T10:32:11.100Z</time>
      </trkpt>
      <trkpt lat="44.99859" lon="5.42326">
        <ele>684</ele>
        <time>2019-06-15T10:32:12.100Z</time>
      </trkpt>
      <trkpt lat="44.99855" lon="5.42326">
        <ele>684</ele>
        <time>2019-06-15T10:32:13.100Z</time>
      </trkpt>
      <trkpt lat="44.99852" lon="5.42326">
        <ele>684</ele>
        <time>2019-06-15T10:32:14.100Z</time>
      </trkpt>
      <trkpt lat="44.99849" lon="5.42326">
        <ele>684</ele>
        <time>2019-06-15T10:32:15.100Z</time>
      </trkpt>
      <trkpt lat="44.99846" lon="5.42326">
        <ele>684</ele>
        <time>2019-06-15T10:32:16.100Z</time>
      </trkpt>
      <trkpt lat="44.99843" lon="5.42327">
        <ele>684</ele>
        <time>2019-06-15T10:32:17.100Z</time>
      </trkpt>
      <trkpt lat="44.9984" lon="5.42327">
        <ele>684</ele>
        <time>2019-06-15T10:32:18.100Z</time>
      </trkpt>
      <trkpt lat="44.99836" lon="5.42327">
        <ele>684</ele>
        <time>2019-06-15T10:32:19.100Z</time>
      </trkpt>
      <trkpt lat="44.99834" lon="5.42326">
        <ele>684</ele>
        <time>2019-06-15T10:32:20.100Z</time>
      </trkpt>
      <trkpt lat="44.99831" lon="5.42326">
        <ele>684</ele>
        <time>2019-06-15T10:32:21.100Z</time>
      </trkpt>
      <trkpt lat="44.99828" lon="5.42326">
        <ele>684</ele>
        <time>2019-06-15T10:32:22.100Z</time>
      </trkpt>
      <trkpt lat="44.99825" lon="5.42325">
        <ele>683</ele>
        <time>2019-06-15T10:32:23.100Z</time>
      </trkpt>
      <trkpt lat="44.99822" lon="5.42324">
        <ele>683</ele>
        <time>2019-06-15T10:32:24.100Z</time>
      </trkpt>
      <trkpt lat="44.9982" lon="5.42323">
        <ele>683</ele>
        <time>2019-06-15T10:32:25.100Z</time>
      </trkpt>
      <trkpt lat="44.99817" lon="5.42323">
        <ele>682</ele>
        <time>2019-06-15T10:32:26.100Z</time>
      </trkpt>
      <trkpt lat="44.99814" lon="5.42322">
        <ele>682</ele>
        <time>2019-06-15T10:32:27.100Z</time>
      </trkpt>
      <trkpt lat="44.99812" lon="5.42321">
        <ele>682</ele>
        <time>2019-06-15T10:32:28.100Z</time>
      </trkpt>
      <trkpt lat="44.99809" lon="5.42321">
        <ele>681</ele>
        <time>2019-06-15T10:32:29.100Z</time>
      </trkpt>
      <trkpt lat="44.99807" lon="5.4232">
        <ele>681</ele>
        <time>2019-06-15T10:32:30.100Z</time>
      </trkpt>
      <trkpt lat="44.99804" lon="5.4232">
        <ele>681</ele>
        <time>2019-06-15T10:32:31.100Z</time>
      </trkpt>
      <trkpt lat="44.99802" lon="5.42319">
        <ele>681</ele>
        <time>2019-06-15T10:32:32.100Z</time>
      </trkpt>
      <trkpt lat="44.99799" lon="5.42319">
        <ele>681</ele>
        <time>2019-06-15T10:32:33.100Z</time>
      </trkpt>
      <trkpt lat="44.99796" lon="5.42318">
        <ele>681</ele>
        <time>2019-06-15T10:32:34.100Z</time>
      </trkpt>
      <trkpt lat="44.99794" lon="5.42318">
        <ele>683</ele>
        <time>2019-06-15T10:32:35.100Z</time>
      </trkpt>
      <trkpt lat="44.99791" lon="5.42317">
        <ele>683</ele>
        <time>2019-06-15T10:32:36.100Z</time>
      </trkpt>
      <trkpt lat="44.99789" lon="5.42317">
        <ele>683</ele>
        <time>2019-06-15T10:32:37.100Z</time>
      </trkpt>
      <trkpt lat="44.99786" lon="5.42318">
        <ele>684</ele>
        <time>2019-06-15T10:32:38.100Z</time>
      </trkpt>
      <trkpt lat="44.99783" lon="5.42318">
        <ele>684</ele>
        <time>2019-06-15T10:32:39.100Z</time>
      </trkpt>
      <trkpt lat="44.99781" lon="5.42319">
        <ele>684</ele>
        <time>2019-06-15T10:32:40.100Z</time>
      </trkpt>
      <trkpt lat="44.99778" lon="5.42319">
        <ele>685</ele>
        <time>2019-06-15T10:32:41.100Z</time>
      </trkpt>
      <trkpt lat="44.99775" lon="5.4232">
        <ele>685</ele>
        <time>2019-06-15T10:32:42.100Z</time>
      </trkpt>
      <trkpt lat="44.99773" lon="5.42322">
        <ele>685</ele>
        <time>2019-06-15T10:32:43.100Z</time>
      </trkpt>
      <trkpt lat="44.9977" lon="5.42324">
        <ele>685</ele>
        <time>2019-06-15T10:32:44.100Z</time>
      </trkpt>
      <trkpt lat="44.99767" lon="5.42326">
        <ele>684</ele>
        <time>2019-06-15T10:32:45.100Z</time>
      </trkpt>
      <trkpt lat="44.99765" lon="5.42327">
        <ele>683</ele>
        <time>2019-06-15T10:32:46.100Z</time>
      </trkpt>
      <trkpt lat="44.99762" lon="5.42327">
        <ele>683</ele>
        <time>2019-06-15T10:32:47.100Z</time>
      </trkpt>
      <trkpt lat="44.9976" lon="5.42326">
        <ele>683</ele>
        <time>2019-06-15T10:32:48.100Z</time>
      </trkpt>
      <trkpt lat="44.99758" lon="5.42326">
        <ele>683</ele>
        <time>2019-06-15T10:32:49.100Z</time>
      </trkpt>
      <trkpt lat="44.99757" lon="5.42325">
        <ele>683</ele>
        <time>2019-06-15T10:32:50.100Z</time>
      </trkpt>
      <trkpt lat="44.99755" lon="5.42323">
        <ele>682</ele>
        <time>2019-06-15T10:32:51.100Z</time>
      </trkpt>
      <trkpt lat="44.99754" lon="5.42321">
        <ele>682</ele>
        <time>2019-06-15T10:32:52.100Z</time>
      </trkpt>
      <trkpt lat="44.99752" lon="5.42319">
        <ele>682</ele>
        <time>2019-06-15T10:32:53.100Z</time>
      </trkpt>
      <trkpt lat="44.9975" lon="5.42317">
        <ele>682</ele>
        <time>2019-06-15T10:32:54.100Z</time>
      </trkpt>
      <trkpt lat="44.99749" lon="5.42315">
        <ele>683</ele>
        <time>2019-06-15T10:32:55.100Z</time>
      </trkpt>
      <trkpt lat="44.99748" lon="5.42313">
        <ele>683</ele>
        <time>2019-06-15T10:32:56.100Z</time>
      </trkpt>
      <trkpt lat="44.99747" lon="5.42311">
        <ele>684</ele>
        <time>2019-06-15T10:32:57.100Z</time>
      </trkpt>
      <trkpt lat="44.99746" lon="5.42309">
        <ele>684</ele>
        <time>2019-06-15T10:32:58.100Z</time>
      </trkpt>
      <trkpt lat="44.99745" lon="5.42306">
        <ele>682</ele>
        <time>2019-06-15T10:32:59.100Z</time>
      </trkpt>
      <trkpt lat="44.99744" lon="5.42304">
        <ele>683</ele>
        <time>2019-06-15T10:33:00.100Z</time>
      </trkpt>
      <trkpt lat="44.99743" lon="5.42301">
        <ele>683</ele>
        <time>2019-06-15T10:33:01.100Z</time>
      </trkpt>
      <trkpt lat="44.99742" lon="5.42298">
        <ele>684</ele>
        <time>2019-06-15T10:33:02.100Z</time>
      </trkpt>
      <trkpt lat="44.99742" lon="5.42295">
        <ele>684</ele>
        <time>2019-06-15T10:33:03.100Z</time>
      </trkpt>
      <trkpt lat="44.99741" lon="5.42291">
        <ele>684</ele>
        <time>2019-06-15T10:33:04.100Z</time>
      </trkpt>
      <trkpt lat="44.99741" lon="5.42289">
        <ele>682</ele>
        <time>2019-06-15T10:33:05.100Z</time>
      </trkpt>
      <trkpt lat="44.9974" lon="5.42287">
        <ele>681</ele>
        <time>2019-06-15T10:33:06.100Z</time>
      </trkpt>
      <trkpt lat="44.99739" lon="5.42285">
        <ele>681</ele>
        <time>2019-06-15T10:33:07.100Z</time>
      </trkpt>
      <trkpt lat="44.99739" lon="5.42283">
        <ele>681</ele>
        <time>2019-06-15T10:33:08.100Z</time>
      </trkpt>
      <trkpt lat="44.99738" lon="5.42281">
        <ele>682</ele>
        <time>2019-06-15T10:33:09.100Z</time>
      </trkpt>
      <trkpt lat="44.99737" lon="5.42278">
        <ele>683</ele>
        <time>2019-06-15T10:33:10.100Z</time>
      </trkpt>
      <trkpt lat="44.99736" lon="5.42276">
        <ele>683</ele>
        <time>2019-06-15T10:33:11.100Z</time>
      </trkpt>
      <trkpt lat="44.99736" lon="5.42274">
        <ele>683</ele>
        <time>2019-06-15T10:33:12.100Z</time>
      </trkpt>
      <trkpt lat="44.99735" lon="5.42272">
        <ele>684</ele>
        <time>2019-06-15T10:33:13.100Z</time>
      </trkpt>
      <trkpt lat="44.99734" lon="5.4227">
        <ele>685</ele>
        <time>2019-06-15T10:33:14.100Z</time>
      </trkpt>
      <trkpt lat="44.99733" lon="5.42268">
        <ele>685</ele>
        <time>2019-06-15T10:33:15.100Z</time>
      </trkpt>
      <trkpt lat="44.99731" lon="5.42266">
        <ele>686</ele>
        <time>2019-06-15T10:33:16.100Z</time>
      </trkpt>
      <trkpt lat="44.9973" lon="5.42264">
        <ele>687</ele>
        <time>2019-06-15T10:33:17.100Z</time>
      </trkpt>
      <trkpt lat="44.99728" lon="5.42263">
        <ele>687</ele>
        <time>2019-06-15T10:33:18.100Z</time>
      </trkpt>
      <trkpt lat="44.99727" lon="5.42261">
        <ele>687</ele>
        <time>2019-06-15T10:33:19.100Z</time>
      </trkpt>
      <trkpt lat="44.99725" lon="5.42259">
        <ele>687</ele>
        <time>2019-06-15T10:33:20.100Z</time>
      </trkpt>
      <trkpt lat="44.99724" lon="5.42257">
        <ele>687</ele>
        <time>2019-06-15T10:33:21.100Z</time>
      </trkpt>
      <trkpt lat="44.99722" lon="5.42255">
        <ele>687</ele>
        <time>2019-06-15T10:33:22.100Z</time>
      </trkpt>
      <trkpt lat="44.99721" lon="5.42253">
        <ele>689</ele>
        <time>2019-06-15T10:33:23.100Z</time>
      </trkpt>
      <trkpt lat="44.99719" lon="5.42251">
        <ele>690</ele>
        <time>2019-06-15T10:33:24.100Z</time>
      </trkpt>
      <trkpt lat="44.99717" lon="5.42249">
        <ele>691</ele>
        <time>2019-06-15T10:33:25.100Z</time>
      </trkpt>
      <trkpt lat="44.99716" lon="5.42247">
        <ele>692</ele>
        <time>2019-06-15T10:33:26.100Z</time>
      </trkpt>
      <trkpt lat="44.99715" lon="5.42246">
        <ele>693</ele>
        <time>2019-06-15T10:33:27.100Z</time>
      </trkpt>
      <trkpt lat="44.99714" lon="5.42244">
        <ele>694</ele>
        <time>2019-06-15T10:33:28.100Z</time>
      </trkpt>
      <trkpt lat="44.99713" lon="5.42243">
        <ele>695</ele>
        <time>2019-06-15T10:33:29.100Z</time>
      </trkpt>
      <trkpt lat="44.99712" lon="5.42242">
        <ele>696</ele>
        <time>2019-06-15T10:33:30.100Z</time>
      </trkpt>
      <trkpt lat="44.99711" lon="5.4224">
        <ele>696</ele>
        <time>2019-06-15T10:33:31.100Z</time>
      </trkpt>
      <trkpt lat="44.9971" lon="5.4224">
        <ele>696</ele>
        <time>2019-06-15T10:33:32.100Z</time>
      </trkpt>
      <trkpt lat="44.99709" lon="5.42239">
        <ele>696</ele>
        <time>2019-06-15T10:33:33.100Z</time>
      </trkpt>
      <trkpt lat="44.99707" lon="5.42237">
        <ele>699</ele>
        <time>2019-06-15T10:33:34.100Z</time>
      </trkpt>
      <trkpt lat="44.99705" lon="5.42236">
        <ele>699</ele>
        <time>2019-06-15T10:33:35.100Z</time>
      </trkpt>
      <trkpt lat="44.99703" lon="5.42234">
        <ele>700</ele>
        <time>2019-06-15T10:33:36.100Z</time>
      </trkpt>
      <trkpt lat="44.99702" lon="5.42233">
        <ele>701</ele>
        <time>2019-06-15T10:33:37.100Z</time>
      </trkpt>
      <trkpt lat="44.997" lon="5.42231">
        <ele>701</ele>
        <time>2019-06-15T10:33:38.100Z</time>
      </trkpt>
      <trkpt lat="44.99699" lon="5.4223">
        <ele>702</ele>
        <time>2019-06-15T10:33:39.100Z</time>
      </trkpt>
      <trkpt lat="44.99697" lon="5.42229">
        <ele>702</ele>
        <time>2019-06-15T10:33:40.100Z</time>
      </trkpt>
      <trkpt lat="44.99694" lon="5.42227">
        <ele>703</ele>
        <time>2019-06-15T10:33:41.100Z</time>
      </trkpt>
      <trkpt lat="44.99692" lon="5.42226">
        <ele>702</ele>
        <time>2019-06-15T10:33:42.100Z</time>
      </trkpt>
      <trkpt lat="44.99689" lon="5.42224">
        <ele>702</ele>
        <time>2019-06-15T10:33:43.100Z</time>
      </trkpt>
      <trkpt lat="44.99687" lon="5.42222">
        <ele>703</ele>
        <time>2019-06-15T10:33:44.100Z</time>
      </trkpt>
      <trkpt lat="44.99685" lon="5.4222">
        <ele>703</ele>
        <time>2019-06-15T10:33:45.100Z</time>
      </trkpt>
      <trkpt lat="44.99683" lon="5.42218">
        <ele>703</ele>
        <time>2019-06-15T10:33:46.100Z</time>
      </trkpt>
      <trkpt lat="44.99682" lon="5.42217">
        <ele>704</ele>
        <time>2019-06-15T10:33:47.100Z</time>
      </trkpt>
      <trkpt lat="44.9968" lon="5.42216">
        <ele>703</ele>
        <time>2019-06-15T10:33:48.100Z</time>
      </trkpt>
      <trkpt lat="44.99677" lon="5.42214">
        <ele>704</ele>
        <time>2019-06-15T10:33:49.100Z</time>
      </trkpt>
      <trkpt lat="44.99675" lon="5.42214">
        <ele>704</ele>
        <time>2019-06-15T10:33:50.100Z</time>
      </trkpt>
      <trkpt lat="44.99672" lon="5.42212">
        <ele>704</ele>
        <time>2019-06-15T10:33:51.100Z</time>
      </trkpt>
      <trkpt lat="44.99671" lon="5.42211">
        <ele>703</ele>
        <time>2019-06-15T10:33:52.100Z</time>
      </trkpt>
      <trkpt lat="44.99669" lon="5.4221">
        <ele>702</ele>
        <time>2019-06-15T10:33:53.100Z</time>
      </trkpt>
      <trkpt lat="44.99668" lon="5.42208">
        <ele>701</ele>
        <time>2019-06-15T10:33:54.100Z</time>
      </trkpt>
      <trkpt lat="44.99667" lon="5.42206">
        <ele>700</ele>
        <time>2019-06-15T10:33:55.100Z</time>
      </trkpt>
      <trkpt lat="44.99665" lon="5.42204">
        <ele>700</ele>
        <time>2019-06-15T10:33:56.100Z</time>
      </trkpt>
      <trkpt lat="44.99663" lon="5.42201">
        <ele>702</ele>
        <time>2019-06-15T10:33:57.100Z</time>
      </trkpt>
      <trkpt lat="44.99661" lon="5.42198">
        <ele>703</ele>
        <time>2019-06-15T10:33:58.100Z</time>
      </trkpt>
      <trkpt lat="44.99659" lon="5.42195">
        <ele>703</ele>
        <time>2019-06-15T10:33:59.100Z</time>
      </trkpt>
      <trkpt lat="44.99656" lon="5.42192">
        <ele>703</ele>
        <time>2019-06-15T10:34:00.100Z</time>
      </trkpt>
      <trkpt lat="44.99654" lon="5.4219">
        <ele>703</ele>
        <time>2019-06-15T10:34:01.100Z</time>
      </trkpt>
      <trkpt lat="44.99652" lon="5.42188">
        <ele>705</ele>
        <time>2019-06-15T10:34:02.100Z</time>
      </trkpt>
      <trkpt lat="44.99651" lon="5.42186">
        <ele>705</ele>
        <time>2019-06-15T10:34:03.100Z</time>
      </trkpt>
      <trkpt lat="44.99649" lon="5.42183">
        <ele>705</ele>
        <time>2019-06-15T10:34:04.100Z</time>
      </trkpt>
      <trkpt lat="44.99648" lon="5.42181">
        <ele>706</ele>
        <time>2019-06-15T10:34:05.100Z</time>
      </trkpt>
      <trkpt lat="44.99646" lon="5.42179">
        <ele>707</ele>
        <time>2019-06-15T10:34:06.100Z</time>
      </trkpt>
      <trkpt lat="44.99645" lon="5.42177">
        <ele>708</ele>
        <time>2019-06-15T10:34:07.100Z</time>
      </trkpt>
      <trkpt lat="44.99644" lon="5.42176">
        <ele>709</ele>
        <time>2019-06-15T10:34:08.100Z</time>
      </trkpt>
      <trkpt lat="44.99643" lon="5.42174">
        <ele>711</ele>
        <time>2019-06-15T10:34:09.100Z</time>
      </trkpt>
      <trkpt lat="44.99641" lon="5.42172">
        <ele>712</ele>
        <time>2019-06-15T10:34:10.100Z</time>
      </trkpt>
      <trkpt lat="44.9964" lon="5.4217">
        <ele>712</ele>
        <time>2019-06-15T10:34:11.100Z</time>
      </trkpt>
      <trkpt lat="44.99638" lon="5.42168">
        <ele>713</ele>
        <time>2019-06-15T10:34:12.100Z</time>
      </trkpt>
      <trkpt lat="44.99637" lon="5.42167">
        <ele>713</ele>
        <time>2019-06-15T10:34:13.100Z</time>
      </trkpt>
      <trkpt lat="44.99635" lon="5.42165">
        <ele>713</ele>
        <time>2019-06-15T10:34:14.100Z</time>
      </trkpt>
      <trkpt lat="44.99634" lon="5.42164">
        <ele>713</ele>
        <time>2019-06-15T10:34:15.100Z</time>
      </trkpt>
      <trkpt lat="44.99633" lon="5.42163">
        <ele>714</ele>
        <time>2019-06-15T10:34:16.100Z</time>
      </trkpt>
      <trkpt lat="44.99632" lon="5.42161">
        <ele>713</ele>
        <time>2019-06-15T10:34:17.100Z</time>
      </trkpt>
      <trkpt lat="44.9963" lon="5.42159">
        <ele>712</ele>
        <time>2019-06-15T10:34:18.100Z</time>
      </trkpt>
      <trkpt lat="44.99629" lon="5.42158">
        <ele>711</ele>
        <time>2019-06-15T10:34:19.100Z</time>
      </trkpt>
      <trkpt lat="44.99627" lon="5.42156">
        <ele>711</ele>
        <time>2019-06-15T10:34:20.100Z</time>
      </trkpt>
      <trkpt lat="44.99626" lon="5.42156">
        <ele>710</ele>
        <time>2019-06-15T10:34:21.100Z</time>
      </trkpt>
      <trkpt lat="44.99624" lon="5.42155">
        <ele>709</ele>
        <time>2019-06-15T10:34:22.100Z</time>
      </trkpt>
      <trkpt lat="44.99622" lon="5.42155">
        <ele>709</ele>
        <time>2019-06-15T10:34:23.100Z</time>
      </trkpt>
      <trkpt lat="44.9962" lon="5.42155">
        <ele>709</ele>
        <time>2019-06-15T10:34:24.100Z</time>
      </trkpt>
      <trkpt lat="44.99619" lon="5.42154">
        <ele>708</ele>
        <time>2019-06-15T10:34:25.100Z</time>
      </trkpt>
      <trkpt lat="44.99617" lon="5.42154">
        <ele>708</ele>
        <time>2019-06-15T10:34:26.100Z</time>
      </trkpt>
      <trkpt lat="44.99616" lon="5.42155">
        <ele>709</ele>
        <time>2019-06-15T10:34:27.100Z</time>
      </trkpt>
      <trkpt lat="44.99614" lon="5.42155">
        <ele>709</ele>
        <time>2019-06-15T10:34:28.100Z</time>
      </trkpt>
      <trkpt lat="44.99611" lon="5.42155">
        <ele>705</ele>
        <time>2019-06-15T10:34:29.100Z</time>
      </trkpt>
      <trkpt lat="44.99608" lon="5.42155">
        <ele>703</ele>
        <time>2019-06-15T10:34:30.100Z</time>
      </trkpt>
      <trkpt lat="44.99606" lon="5.42154">
        <ele>702</ele>
        <time>2019-06-15T10:34:31.100Z</time>
      </trkpt>
      <trkpt lat="44.99603" lon="5.42154">
        <ele>703</ele>
        <time>2019-06-15T10:34:32.100Z</time>
      </trkpt>
      <trkpt lat="44.99601" lon="5.42153">
        <ele>703</ele>
        <time>2019-06-15T10:34:33.100Z</time>
      </trkpt>
      <trkpt lat="44.99599" lon="5.42153">
        <ele>703</ele>
        <time>2019-06-15T10:34:34.100Z</time>
      </trkpt>
      <trkpt lat="44.99597" lon="5.42153">
        <ele>703</ele>
        <time>2019-06-15T10:34:35.100Z</time>
      </trkpt>
      <trkpt lat="44.99594" lon="5.42152">
        <ele>704</ele>
        <time>2019-06-15T10:34:36.100Z</time>
      </trkpt>
      <trkpt lat="44.99592" lon="5.42152">
        <ele>703</ele>
        <time>2019-06-15T10:34:37.100Z</time>
      </trkpt>
      <trkpt lat="44.99589" lon="5.42152">
        <ele>704</ele>
        <time>2019-06-15T10:34:38.100Z</time>
      </trkpt>
      <trkpt lat="44.99587" lon="5.42152">
        <ele>704</ele>
        <time>2019-06-15T10:34:39.100Z</time>
      </trkpt>
      <trkpt lat="44.99585" lon="5.42152">
        <ele>703</ele>
        <time>2019-06-15T10:34:40.100Z</time>
      </trkpt>
      <trkpt lat="44.99582" lon="5.42153">
        <ele>702</ele>
        <time>2019-06-15T10:34:41.100Z</time>
      </trkpt>
      <trkpt lat="44.9958" lon="5.42153">
        <ele>702</ele>
        <time>2019-06-15T10:34:42.100Z</time>
      </trkpt>
      <trkpt lat="44.99578" lon="5.42153">
        <ele>702</ele>
        <time>2019-06-15T10:34:43.100Z</time>
      </trkpt>
      <trkpt lat="44.99576" lon="5.42153">
        <ele>703</ele>
        <time>2019-06-15T10:34:44.100Z</time>
      </trkpt>
      <trkpt lat="44.99573" lon="5.42153">
        <ele>702</ele>
        <time>2019-06-15T10:34:45.100Z</time>
      </trkpt>
      <trkpt lat="44.99571" lon="5.42154">
        <ele>701</ele>
        <time>2019-06-15T10:34:46.100Z</time>
      </trkpt>
      <trkpt lat="44.99569" lon="5.42154">
        <ele>700</ele>
        <time>2019-06-15T10:34:47.100Z</time>
      </trkpt>
      <trkpt lat="44.99566" lon="5.42154">
        <ele>700</ele>
        <time>2019-06-15T10:34:48.100Z</time>
      </trkpt>
      <trkpt lat="44.99564" lon="5.42155">
        <ele>699</ele>
        <time>2019-06-15T10:34:49.100Z</time>
      </trkpt>
      <trkpt lat="44.99562" lon="5.42154">
        <ele>699</ele>
        <time>2019-06-15T10:34:50.100Z</time>
      </trkpt>
      <trkpt lat="44.99559" lon="5.42154">
        <ele>702</ele>
        <time>2019-06-15T10:34:51.100Z</time>
      </trkpt>
      <trkpt lat="44.99556" lon="5.42154">
        <ele>703</ele>
        <time>2019-06-15T10:34:52.100Z</time>
      </trkpt>
      <trkpt lat="44.99553" lon="5.42153">
        <ele>703</ele>
        <time>2019-06-15T10:34:53.100Z</time>
      </trkpt>
      <trkpt lat="44.99551" lon="5.42153">
        <ele>704</ele>
        <time>2019-06-15T10:34:54.100Z</time>
      </trkpt>
      <trkpt lat="44.99548" lon="5.42152">
        <ele>705</ele>
        <time>2019-06-15T10:34:55.100Z</time>
      </trkpt>
      <trkpt lat="44.99546" lon="5.42152">
        <ele>706</ele>
        <time>2019-06-15T10:34:56.100Z</time>
      </trkpt>
      <trkpt lat="44.99544" lon="5.42151">
        <ele>706</ele>
        <time>2019-06-15T10:34:57.100Z</time>
      </trkpt>
      <trkpt lat="44.99541" lon="5.4215">
        <ele>706</ele>
        <time>2019-06-15T10:34:58.100Z</time>
      </trkpt>
      <trkpt lat="44.99539" lon="5.4215">
        <ele>706</ele>
        <time>2019-06-15T10:34:59.100Z</time>
      </trkpt>
      <trkpt lat="44.99537" lon="5.4215">
        <ele>707</ele>
        <time>2019-06-15T10:35:00.100Z</time>
      </trkpt>
      <trkpt lat="44.99535" lon="5.4215">
        <ele>708</ele>
        <time>2019-06-15T10:35:01.100Z</time>
      </trkpt>
      <trkpt lat="44.99533" lon="5.4215">
        <ele>708</ele>
        <time>2019-06-15T10:35:02.100Z</time>
      </trkpt>
      <trkpt lat="44.99531" lon="5.42151">
        <ele>710</ele>
        <time>2019-06-15T10:35:03.100Z</time>
      </trkpt>
      <trkpt lat="44.99529" lon="5.42151">
        <ele>710</ele>
        <time>2019-06-15T10:35:04.100Z</time>
      </trkpt>
      <trkpt lat="44.99527" lon="5.42152">
        <ele>710</ele>
        <time>2019-06-15T10:35:05.100Z</time>
      </trkpt>
      <trkpt lat="44.99525" lon="5.42153">
        <ele>712</ele>
        <time>2019-06-15T10:35:06.100Z</time>
      </trkpt>
      <trkpt lat="44.99524" lon="5.42155">
        <ele>711</ele>
        <time>2019-06-15T10:35:07.100Z</time>
      </trkpt>
      <trkpt lat="44.99522" lon="5.42157">
        <ele>712</ele>
        <time>2019-06-15T10:35:08.100Z</time>
      </trkpt>
      <trkpt lat="44.9952" lon="5.42158">
        <ele>712</ele>
        <time>2019-06-15T10:35:09.100Z</time>
      </trkpt>
      <trkpt lat="44.99518" lon="5.42158">
        <ele>712</ele>
        <time>2019-06-15T10:35:10.100Z</time>
      </trkpt>
      <trkpt lat="44.99517" lon="5.42158">
        <ele>712</ele>
        <time>2019-06-15T10:35:11.100Z</time>
      </trkpt>
      <trkpt lat="44.99515" lon="5.42157">
        <ele>712</ele>
        <time>2019-06-15T10:35:12.100Z</time>
      </trkpt>
      <trkpt lat="44.99514" lon="5.42155">
        <ele>713</ele>
        <time>2019-06-15T10:35:13.100Z</time>
      </trkpt>
      <trkpt lat="44.99513" lon="5.42153">
        <ele>713</ele>
        <time>2019-06-15T10:35:14.100Z</time>
      </trkpt>
      <trkpt lat="44.99512" lon="5.4215">
        <ele>713</ele>
        <time>2019-06-15T10:35:15.100Z</time>
      </trkpt>
      <trkpt lat="44.99512" lon="5.42147">
        <ele>714</ele>
        <time>2019-06-15T10:35:16.100Z</time>
      </trkpt>
      <trkpt lat="44.99512" lon="5.42144">
        <ele>714</ele>
        <time>2019-06-15T10:35:17.100Z</time>
      </trkpt>
      <trkpt lat="44.99512" lon="5.42142">
        <ele>714</ele>
        <time>2019-06-15T10:35:18.100Z</time>
      </trkpt>
      <trkpt lat="44.99513" lon="5.4214">
        <ele>714</ele>
        <time>2019-06-15T10:35:19.100Z</time>
      </trkpt>
      <trkpt lat="44.99514" lon="5.42138">
        <ele>714</ele>
        <time>2019-06-15T10:35:20.100Z</time>
      </trkpt>
      <trkpt lat="44.99515" lon="5.42136">
        <ele>715</ele>
        <time>2019-06-15T10:35:21.100Z</time>
      </trkpt>
      <trkpt lat="44.99517" lon="5.42134">
        <ele>714</ele>
        <time>2019-06-15T10:35:22.100Z</time>
      </trkpt>
      <trkpt lat="44.99519" lon="5.42132">
        <ele>714</ele>
        <time>2019-06-15T10:35:23.100Z</time>
      </trkpt>
      <trkpt lat="44.9952" lon="5.42131">
        <ele>714</ele>
        <time>2019-06-15T10:35:24.100Z</time>
      </trkpt>
      <trkpt lat="44.99522" lon="5.4213">
        <ele>713</ele>
        <time>2019-06-15T10:35:25.100Z</time>
      </trkpt>
      <trkpt lat="44.99524" lon="5.42129">
        <ele>714</ele>
        <time>2019-06-15T10:35:26.100Z</time>
      </trkpt>
      <trkpt lat="44.99525" lon="5.42128">
        <ele>714</ele>
        <time>2019-06-15T10:35:27.100Z</time>
      </trkpt>
      <trkpt lat="44.99527" lon="5.42127">
        <ele>714</ele>
        <time>2019-06-15T10:35:28.100Z</time>
      </trkpt>
      <trkpt lat="44.99528" lon="5.42125">
        <ele>715</ele>
        <time>2019-06-15T10:35:29.100Z</time>
      </trkpt>
      <trkpt lat="44.99529" lon="5.42124">
        <ele>716</ele>
        <time>2019-06-15T10:35:30.100Z</time>
      </trkpt>
      <trkpt lat="44.99529" lon="5.42122">
        <ele>716</ele>
        <time>2019-06-15T10:35:31.100Z</time>
      </trkpt>
      <trkpt lat="44.99529" lon="5.42119">
        <ele>714</ele>
        <time>2019-06-15T10:35:32.100Z</time>
      </trkpt>
      <trkpt lat="44.99528" lon="5.42117">
        <ele>713</ele>
        <time>2019-06-15T10:35:33.100Z</time>
      </trkpt>
      <trkpt lat="44.99526" lon="5.42114">
        <ele>713</ele>
        <time>2019-06-15T10:35:34.100Z</time>
      </trkpt>
      <trkpt lat="44.99525" lon="5.42112">
        <ele>712</ele>
        <time>2019-06-15T10:35:35.100Z</time>
      </trkpt>
      <trkpt lat="44.99524" lon="5.4211">
        <ele>712</ele>
        <time>2019-06-15T10:35:36.100Z</time>
      </trkpt>
      <trkpt lat="44.99522" lon="5.42109">
        <ele>711</ele>
        <time>2019-06-15T10:35:37.100Z</time>
      </trkpt>
      <trkpt lat="44.99521" lon="5.42107">
        <ele>710</ele>
        <time>2019-06-15T10:35:38.100Z</time>
      </trkpt>
      <trkpt lat="44.9952" lon="5.42106">
        <ele>710</ele>
        <time>2019-06-15T10:35:39.100Z</time>
      </trkpt>
      <trkpt lat="44.99518" lon="5.42104">
        <ele>709</ele>
        <time>2019-06-15T10:35:40.100Z</time>
      </trkpt>
      <trkpt lat="44.99517" lon="5.42103">
        <ele>708</ele>
        <time>2019-06-15T10:35:41.100Z</time>
      </trkpt>
      <trkpt lat="44.99515" lon="5.42102">
        <ele>707</ele>
        <time>2019-06-15T10:35:42.100Z</time>
      </trkpt>
      <trkpt lat="44.99514" lon="5.42101">
        <ele>706</ele>
        <time>2019-06-15T10:35:43.100Z</time>
      </trkpt>
      <trkpt lat="44.99512" lon="5.421">
        <ele>706</ele>
        <time>2019-06-15T10:35:44.100Z</time>
      </trkpt>
      <trkpt lat="44.99511" lon="5.42099">
        <ele>707</ele>
        <time>2019-06-15T10:35:45.100Z</time>
      </trkpt>
      <trkpt lat="44.9951" lon="5.42098">
        <ele>706</ele>
        <time>2019-06-15T10:35:46.100Z</time>
      </trkpt>
      <trkpt lat="44.99508" lon="5.42097">
        <ele>706</ele>
        <time>2019-06-15T10:35:47.100Z</time>
      </trkpt>
      <trkpt lat="44.99507" lon="5.42095">
        <ele>705</ele>
        <time>2019-06-15T10:35:48.100Z</time>
      </trkpt>
      <trkpt lat="44.99506" lon="5.42094">
        <ele>706</ele>
        <time>2019-06-15T10:35:49.100Z</time>
      </trkpt>
      <trkpt lat="44.99505" lon="5.42094">
        <ele>707</ele>
        <time>2019-06-15T10:35:50.100Z</time>
      </trkpt>
      <trkpt lat="44.99504" lon="5.42093">
        <ele>708</ele>
        <time>2019-06-15T10:35:51.100Z</time>
      </trkpt>
      <trkpt lat="44.99502" lon="5.42092">
        <ele>709</ele>
        <time>2019-06-15T10:35:52.100Z</time>
      </trkpt>
      <trkpt lat="44.99501" lon="5.4209">
        <ele>710</ele>
        <time>2019-06-15T10:35:53.100Z</time>
      </trkpt>
      <trkpt lat="44.99499" lon="5.4209">
        <ele>712</ele>
        <time>2019-06-15T10:35:54.100Z</time>
      </trkpt>
      <trkpt lat="44.99497" lon="5.42089">
        <ele>713</ele>
        <time>2019-06-15T10:35:55.100Z</time>
      </trkpt>
      <trkpt lat="44.99496" lon="5.42088">
        <ele>714</ele>
        <time>2019-06-15T10:35:56.100Z</time>
      </trkpt>
      <trkpt lat="44.99495" lon="5.42087">
        <ele>714</ele>
        <time>2019-06-15T10:35:57.100Z</time>
      </trkpt>
      <trkpt lat="44.99495" lon="5.42086">
        <ele>714</ele>
        <time>2019-06-15T10:35:58.100Z</time>
      </trkpt>
      <trkpt lat="44.99494" lon="5.42085">
        <ele>715</ele>
        <time>2019-06-15T10:35:59.100Z</time>
      </trkpt>
      <trkpt lat="44.99493" lon="5.42083">
        <ele>715</ele>
        <time>2019-06-15T10:36:00.100Z</time>
      </trkpt>
      <trkpt lat="44.99492" lon="5.42082">
        <ele>715</ele>
        <time>2019-06-15T10:36:01.100Z</time>
      </trkpt>
      <trkpt lat="44.9949" lon="5.42081">
        <ele>714</ele>
        <time>2019-06-15T10:36:02.100Z</time>
      </trkpt>
      <trkpt lat="44.99488" lon="5.4208">
        <ele>714</ele>
        <time>2019-06-15T10:36:03.100Z</time>
      </trkpt>
      <trkpt lat="44.99487" lon="5.4208">
        <ele>715</ele>
        <time>2019-06-15T10:36:04.100Z</time>
      </trkpt>
      <trkpt lat="44.99485" lon="5.42079">
        <ele>716</ele>
        <time>2019-06-15T10:36:05.100Z</time>
      </trkpt>
      <trkpt lat="44.99484" lon="5.42079">
        <ele>717</ele>
        <time>2019-06-15T10:36:06.100Z</time>
      </trkpt>
      <trkpt lat="44.99483" lon="5.42078">
        <ele>717</ele>
        <time>2019-06-15T10:36:07.100Z</time>
      </trkpt>
      <trkpt lat="44.99481" lon="5.42078">
        <ele>717</ele>
        <time>2019-06-15T10:36:08.100Z</time>
      </trkpt>
      <trkpt lat="44.9948" lon="5.42077">
        <ele>717</ele>
        <time>2019-06-15T10:36:09.100Z</time>
      </trkpt>
      <trkpt lat="44.99479" lon="5.42077">
        <ele>717</ele>
        <time>2019-06-15T10:36:10.100Z</time>
      </trkpt>
      <trkpt lat="44.99478" lon="5.42077">
        <ele>718</ele>
        <time>2019-06-15T10:36:11.100Z</time>
      </trkpt>
      <trkpt lat="44.99477" lon="5.42076">
        <ele>718</ele>
        <time>2019-06-15T10:36:12.100Z</time>
      </trkpt>
      <trkpt lat="44.99476" lon="5.42076">
        <ele>719</ele>
        <time>2019-06-15T10:36:13.100Z</time>
      </trkpt>
      <trkpt lat="44.99474" lon="5.42075">
        <ele>719</ele>
        <time>2019-06-15T10:36:14.100Z</time>
      </trkpt>
      <trkpt lat="44.99473" lon="5.42073">
        <ele>719</ele>
        <time>2019-06-15T10:36:15.100Z</time>
      </trkpt>
      <trkpt lat="44.99472" lon="5.42073">
        <ele>720</ele>
        <time>2019-06-15T10:36:16.100Z</time>
      </trkpt>
      <trkpt lat="44.99471" lon="5.42072">
        <ele>719</ele>
        <time>2019-06-15T10:36:17.100Z</time>
      </trkpt>
      <trkpt lat="44.9947" lon="5.42071">
        <ele>719</ele>
        <time>2019-06-15T10:36:18.100Z</time>
      </trkpt>
      <trkpt lat="44.99469" lon="5.42071">
        <ele>719</ele>
        <time>2019-06-15T10:36:19.100Z</time>
      </trkpt>
      <trkpt lat="44.99468" lon="5.42071">
        <ele>719</ele>
        <time>2019-06-15T10:36:20.100Z</time>
      </trkpt>
      <trkpt lat="44.99466" lon="5.42072">
        <ele>716</ele>
        <time>2019-06-15T10:36:21.100Z</time>
      </trkpt>
      <trkpt lat="44.99464" lon="5.42071">
        <ele>715</ele>
        <time>2019-06-15T10:36:22.100Z</time>
      </trkpt>
      <trkpt lat="44.99463" lon="5.42071">
        <ele>715</ele>
        <time>2019-06-15T10:36:23.100Z</time>
      </trkpt>
      <trkpt lat="44.99461" lon="5.42071">
        <ele>715</ele>
        <time>2019-06-15T10:36:24.100Z</time>
      </trkpt>
      <trkpt lat="44.99459" lon="5.42071">
        <ele>716</ele>
        <time>2019-06-15T10:36:25.100Z</time>
      </trkpt>
      <trkpt lat="44.99458" lon="5.42071">
        <ele>716</ele>
        <time>2019-06-15T10:36:26.100Z</time>
      </trkpt>
      <trkpt lat="44.99456" lon="5.4207">
        <ele>715</ele>
        <time>2019-06-15T10:36:27.100Z</time>
      </trkpt>
      <trkpt lat="44.99454" lon="5.4207">
        <ele>716</ele>
        <time>2019-06-15T10:36:28.100Z</time>
      </trkpt>
      <trkpt lat="44.99453" lon="5.42069">
        <ele>716</ele>
        <time>2019-06-15T10:36:29.100Z</time>
      </trkpt>
      <trkpt lat="44.99451" lon="5.42068">
        <ele>716</ele>
        <time>2019-06-15T10:36:30.100Z</time>
      </trkpt>
      <trkpt lat="44.9945" lon="5.42068">
        <ele>716</ele>
        <time>2019-06-15T10:36:31.100Z</time>
      </trkpt>
      <trkpt lat="44.99449" lon="5.42067">
        <ele>718</ele>
        <time>2019-06-15T10:36:32.100Z</time>
      </trkpt>
      <trkpt lat="44.99448" lon="5.42067">
        <ele>718</ele>
        <time>2019-06-15T10:36:33.100Z</time>
      </trkpt>
      <trkpt lat="44.99446" lon="5.42067">
        <ele>718</ele>
        <time>2019-06-15T10:36:34.100Z</time>
      </trkpt>
      <trkpt lat="44.99445" lon="5.42066">
        <ele>719</ele>
        <time>2019-06-15T10:36:35.100Z</time>
      </trkpt>
      <trkpt lat="44.99443" lon="5.42066">
        <ele>720</ele>
        <time>2019-06-15T10:36:36.100Z</time>
      </trkpt>
      <trkpt lat="44.99442" lon="5.42066">
        <ele>721</ele>
        <time>2019-06-15T10:36:37.100Z</time>
      </trkpt>
      <trkpt lat="44.99441" lon="5.42065">
        <ele>722</ele>
        <time>2019-06-15T10:36:38.100Z</time>
      </trkpt>
      <trkpt lat="44.99439" lon="5.42064">
        <ele>722</ele>
        <time>2019-06-15T10:36:39.100Z</time>
      </trkpt>
      <trkpt lat="44.99438" lon="5.42064">
        <ele>723</ele>
        <time>2019-06-15T10:36:40.100Z</time>
      </trkpt>
      <trkpt lat="44.99437" lon="5.42063">
        <ele>724</ele>
        <time>2019-06-15T10:36:41.100Z</time>
      </trkpt>
      <trkpt lat="44.99436" lon="5.42063">
        <ele>724</ele>
        <time>2019-06-15T10:36:42.100Z</time>
      </trkpt>
      <trkpt lat="44.99435" lon="5.42062">
        <ele>724</ele>
        <time>2019-06-15T10:36:43.100Z</time>
      </trkpt>
      <trkpt lat="44.99434" lon="5.42061">
        <ele>724</ele>
        <time>2019-06-15T10:36:44.100Z</time>
      </trkpt>
      <trkpt lat="44.99432" lon="5.4206">
        <ele>724</ele>
        <time>2019-06-15T10:36:45.100Z</time>
      </trkpt>
      <trkpt lat="44.99431" lon="5.42059">
        <ele>725</ele>
        <time>2019-06-15T10:36:46.100Z</time>
      </trkpt>
      <trkpt lat="44.99429" lon="5.42057">
        <ele>725</ele>
        <time>2019-06-15T10:36:47.100Z</time>
      </trkpt>
      <trkpt lat="44.99428" lon="5.42056">
        <ele>726</ele>
        <time>2019-06-15T10:36:48.100Z</time>
      </trkpt>
      <trkpt lat="44.99427" lon="5.42056">
        <ele>727</ele>
        <time>2019-06-15T10:36:49.100Z</time>
      </trkpt>
      <trkpt lat="44.99426" lon="5.42055">
        <ele>727</ele>
        <time>2019-06-15T10:36:50.100Z</time>
      </trkpt>
      <trkpt lat="44.99424" lon="5.42055">
        <ele>727</ele>
        <time>2019-06-15T10:36:51.100Z</time>
      </trkpt>
      <trkpt lat="44.99423" lon="5.42054">
        <ele>727</ele>
        <time>2019-06-15T10:36:52.100Z</time>
      </trkpt>
      <trkpt lat="44.99422" lon="5.42052">
        <ele>727</ele>
        <time>2019-06-15T10:36:53.100Z</time>
      </trkpt>
      <trkpt lat="44.9942" lon="5.42051">
        <ele>728</ele>
        <time>2019-06-15T10:36:54.100Z</time>
      </trkpt>
      <trkpt lat="44.99419" lon="5.42049">
        <ele>729</ele>
        <time>2019-06-15T10:36:55.100Z</time>
      </trkpt>
      <trkpt lat="44.99418" lon="5.42048">
        <ele>729</ele>
        <time>2019-06-15T10:36:56.100Z</time>
      </trkpt>
      <trkpt lat="44.99417" lon="5.42047">
        <ele>729</ele>
        <time>2019-06-15T10:36:57.100Z</time>
      </trkpt>
      <trkpt lat="44.99416" lon="5.42046">
        <ele>729</ele>
        <time>2019-06-15T10:36:58.100Z</time>
      </trkpt>
      <trkpt lat="44.99415" lon="5.42044">
        <ele>730</ele>
        <time>2019-06-15T10:36:59.100Z</time>
      </trkpt>
      <trkpt lat="44.99413" lon="5.42043">
        <ele>730</ele>
        <time>2019-06-15T10:37:00.100Z</time>
      </trkpt>
      <trkpt lat="44.99412" lon="5.42042">
        <ele>731</ele>
        <time>2019-06-15T10:37:01.100Z</time>
      </trkpt>
      <trkpt lat="44.9941" lon="5.4204">
        <ele>730</ele>
        <time>2019-06-15T10:37:02.100Z</time>
      </trkpt>
      <trkpt lat="44.99409" lon="5.42039">
        <ele>730</ele>
        <time>2019-06-15T10:37:03.100Z</time>
      </trkpt>
      <trkpt lat="44.99408" lon="5.42037">
        <ele>730</ele>
        <time>2019-06-15T10:37:04.100Z</time>
      </trkpt>
      <trkpt lat="44.99407" lon="5.42036">
        <ele>728</ele>
        <time>2019-06-15T10:37:05.100Z</time>
      </trkpt>
      <trkpt lat="44.99406" lon="5.42035">
        <ele>728</ele>
        <time>2019-06-15T10:37:06.100Z</time>
      </trkpt>
      <trkpt lat="44.99405" lon="5.42034">
        <ele>727</ele>
        <time>2019-06-15T10:37:07.100Z</time>
      </trkpt>
      <trkpt lat="44.99403" lon="5.42033">
        <ele>727</ele>
        <time>2019-06-15T10:37:08.100Z</time>
      </trkpt>
      <trkpt lat="44.99401" lon="5.42031">
        <ele>728</ele>
        <time>2019-06-15T10:37:09.100Z</time>
      </trkpt>
      <trkpt lat="44.99399" lon="5.4203">
        <ele>731</ele>
        <time>2019-06-15T10:37:10.100Z</time>
      </trkpt>
      <trkpt lat="44.99396" lon="5.42028">
        <ele>732</ele>
        <time>2019-06-15T10:37:11.100Z</time>
      </trkpt>
      <trkpt lat="44.99394" lon="5.42026">
        <ele>732</ele>
        <time>2019-06-15T10:37:12.100Z</time>
      </trkpt>
      <trkpt lat="44.99392" lon="5.42025">
        <ele>733</ele>
        <time>2019-06-15T10:37:13.100Z</time>
      </trkpt>
      <trkpt lat="44.9939" lon="5.42023">
        <ele>733</ele>
        <time>2019-06-15T10:37:14.100Z</time>
      </trkpt>
      <trkpt lat="44.99388" lon="5.42022">
        <ele>735</ele>
        <time>2019-06-15T10:37:15.100Z</time>
      </trkpt>
      <trkpt lat="44.99386" lon="5.4202">
        <ele>735</ele>
        <time>2019-06-15T10:37:16.100Z</time>
      </trkpt>
      <trkpt lat="44.99384" lon="5.42018">
        <ele>736</ele>
        <time>2019-06-15T10:37:17.100Z</time>
      </trkpt>
      <trkpt lat="44.99382" lon="5.42016">
        <ele>736</ele>
        <time>2019-06-15T10:37:18.100Z</time>
      </trkpt>
      <trkpt lat="44.9938" lon="5.42014">
        <ele>736</ele>
        <time>2019-06-15T10:37:19.100Z</time>
      </trkpt>
      <trkpt lat="44.99379" lon="5.42013">
        <ele>736</ele>
        <time>2019-06-15T10:37:20.100Z</time>
      </trkpt>
      <trkpt lat="44.99377" lon="5.42011">
        <ele>737</ele>
        <time>2019-06-15T10:37:21.100Z</time>
      </trkpt>
      <trkpt lat="44.99375" lon="5.42009">
        <ele>738</ele>
        <time>2019-06-15T10:37:22.100Z</time>
      </trkpt>
      <trkpt lat="44.99373" lon="5.42007">
        <ele>738</ele>
        <time>2019-06-15T10:37:23.100Z</time>
      </trkpt>
      <trkpt lat="44.99372" lon="5.42005">
        <ele>738</ele>
        <time>2019-06-15T10:37:24.100Z</time>
      </trkpt>
      <trkpt lat="44.9937" lon="5.42003">
        <ele>738</ele>
        <time>2019-06-15T10:37:25.100Z</time>
      </trkpt>
      <trkpt lat="44.99369" lon="5.42002">
        <ele>738</ele>
        <time>2019-06-15T10:37:26.100Z</time>
      </trkpt>
      <trkpt lat="44.99367" lon="5.42">
        <ele>739</ele>
        <time>2019-06-15T10:37:27.100Z</time>
      </trkpt>
      <trkpt lat="44.99366" lon="5.41998">
        <ele>739</ele>
        <time>2019-06-15T10:37:28.100Z</time>
      </trkpt>
      <trkpt lat="44.99365" lon="5.41996">
        <ele>739</ele>
        <time>2019-06-15T10:37:29.100Z</time>
      </trkpt>
      <trkpt lat="44.99364" lon="5.41994">
        <ele>739</ele>
        <time>2019-06-15T10:37:30.100Z</time>
      </trkpt>
      <trkpt lat="44.99363" lon="5.41992">
        <ele>739</ele>
        <time>2019-06-15T10:37:31.100Z</time>
      </trkpt>
      <trkpt lat="44.99362" lon="5.4199">
        <ele>739</ele>
        <time>2019-06-15T10:37:32.100Z</time>
      </trkpt>
      <trkpt lat="44.99361" lon="5.41988">
        <ele>738</ele>
        <time>2019-06-15T10:37:33.100Z</time>
      </trkpt>
      <trkpt lat="44.9936" lon="5.41986">
        <ele>738</ele>
        <time>2019-06-15T10:37:34.100Z</time>
      </trkpt>
      <trkpt lat="44.99359" lon="5.41984">
        <ele>738</ele>
        <time>2019-06-15T10:37:35.100Z</time>
      </trkpt>
      <trkpt lat="44.99358" lon="5.41982">
        <ele>737</ele>
        <time>2019-06-15T10:37:36.100Z</time>
      </trkpt>
      <trkpt lat="44.99356" lon="5.4198">
        <ele>736</ele>
        <time>2019-06-15T10:37:37.100Z</time>
      </trkpt>
      <trkpt lat="44.99355" lon="5.41978">
        <ele>736</ele>
        <time>2019-06-15T10:37:38.100Z</time>
      </trkpt>
      <trkpt lat="44.99354" lon="5.41976">
        <ele>738</ele>
        <time>2019-06-15T10:37:39.100Z</time>
      </trkpt>
      <trkpt lat="44.99352" lon="5.41973">
        <ele>737</ele>
        <time>2019-06-15T10:37:40.100Z</time>
      </trkpt>
      <trkpt lat="44.99351" lon="5.4197">
        <ele>738</ele>
        <time>2019-06-15T10:37:41.100Z</time>
      </trkpt>
      <trkpt lat="44.9935" lon="5.41967">
        <ele>738</ele>
        <time>2019-06-15T10:37:42.100Z</time>
      </trkpt>
      <trkpt lat="44.99349" lon="5.41965">
        <ele>737</ele>
        <time>2019-06-15T10:37:43.100Z</time>
      </trkpt>
      <trkpt lat="44.99348" lon="5.41962">
        <ele>738</ele>
        <time>2019-06-15T10:37:44.100Z</time>
      </trkpt>
      <trkpt lat="44.99346" lon="5.4196">
        <ele>738</ele>
        <time>2019-06-15T10:37:45.100Z</time>
      </trkpt>
      <trkpt lat="44.99344" lon="5.41958">
        <ele>738</ele>
        <time>2019-06-15T10:37:46.100Z</time>
      </trkpt>
      <trkpt lat="44.99343" lon="5.41955">
        <ele>739</ele>
        <time>2019-06-15T10:37:47.100Z</time>
      </trkpt>
      <trkpt lat="44.99341" lon="5.41953">
        <ele>739</ele>
        <time>2019-06-15T10:37:48.100Z</time>
      </trkpt>
      <trkpt lat="44.9934" lon="5.41951">
        <ele>739</ele>
        <time>2019-06-15T10:37:49.100Z</time>
      </trkpt>
      <trkpt lat="44.99338" lon="5.41949">
        <ele>739</ele>
        <time>2019-06-15T10:37:50.100Z</time>
      </trkpt>
      <trkpt lat="44.99337" lon="5.41946">
        <ele>739</ele>
        <time>2019-06-15T10:37:51.100Z</time>
      </trkpt>
      <trkpt lat="44.99336" lon="5.41944">
        <ele>739</ele>
        <time>2019-06-15T10:37:52.100Z</time>
      </trkpt>
      <trkpt lat="44.99335" lon="5.41942">
        <ele>739</ele>
        <time>2019-06-15T10:37:53.100Z</time>
      </trkpt>
      <trkpt lat="44.99334" lon="5.41939">
        <ele>739</ele>
        <time>2019-06-15T10:37:54.100Z</time>
      </trkpt>
      <trkpt lat="44.99333" lon="5.41936">
        <ele>740</ele>
        <time>2019-06-15T10:37:55.100Z</time>
      </trkpt>
      <trkpt lat="44.99331" lon="5.41933">
        <ele>740</ele>
        <time>2019-06-15T10:37:56.100Z</time>
      </trkpt>
      <trkpt lat="44.9933" lon="5.41931">
        <ele>740</ele>
        <time>2019-06-15T10:37:57.100Z</time>
      </trkpt>
      <trkpt lat="44.99328" lon="5.41929">
        <ele>741</ele>
        <time>2019-06-15T10:37:58.100Z</time>
      </trkpt>
      <trkpt lat="44.99327" lon="5.41927">
        <ele>742</ele>
        <time>2019-06-15T10:37:59.100Z</time>
      </trkpt>
      <trkpt lat="44.99326" lon="5.41925">
        <ele>742</ele>
        <time>2019-06-15T10:38:00.100Z</time>
      </trkpt>
      <trkpt lat="44.99324" lon="5.41924">
        <ele>742</ele>
        <time>2019-06-15T10:38:01.100Z</time>
      </trkpt>
      <trkpt lat="44.99323" lon="5.41923">
        <ele>742</ele>
        <time>2019-06-15T10:38:02.100Z</time>
      </trkpt>
      <trkpt lat="44.99322" lon="5.41921">
        <ele>743</ele>
        <time>2019-06-15T10:38:03.100Z</time>
      </trkpt>
      <trkpt lat="44.9932" lon="5.41919">
        <ele>742</ele>
        <time>2019-06-15T10:38:04.100Z</time>
      </trkpt>
      <trkpt lat="44.99319" lon="5.41918">
        <ele>742</ele>
        <time>2019-06-15T10:38:05.100Z</time>
      </trkpt>
      <trkpt lat="44.99317" lon="5.41916">
        <ele>743</ele>
        <time>2019-06-15T10:38:06.100Z</time>
      </trkpt>
      <trkpt lat="44.99316" lon="5.41914">
        <ele>742</ele>
        <time>2019-06-15T10:38:07.100Z</time>
      </trkpt>
      <trkpt lat="44.99314" lon="5.41913">
        <ele>742</ele>
        <time>2019-06-15T10:38:08.100Z</time>
      </trkpt>
      <trkpt lat="44.99312" lon="5.41912">
        <ele>741</ele>
        <time>2019-06-15T10:38:09.100Z</time>
      </trkpt>
      <trkpt lat="44.99311" lon="5.41911">
        <ele>741</ele>
        <time>2019-06-15T10:38:10.100Z</time>
      </trkpt>
      <trkpt lat="44.99309" lon="5.4191">
        <ele>741</ele>
        <time>2019-06-15T10:38:11.100Z</time>
      </trkpt>
      <trkpt lat="44.99307" lon="5.41909">
        <ele>741</ele>
        <time>2019-06-15T10:38:12.100Z</time>
      </trkpt>
      <trkpt lat="44.99305" lon="5.41908">
        <ele>741</ele>
        <time>2019-06-15T10:38:13.100Z</time>
      </trkpt>
      <trkpt lat="44.99304" lon="5.41907">
        <ele>741</ele>
        <time>2019-06-15T10:38:14.100Z</time>
      </trkpt>
      <trkpt lat="44.99302" lon="5.41906">
        <ele>741</ele>
        <time>2019-06-15T10:38:15.100Z</time>
      </trkpt>
      <trkpt lat="44.993" lon="5.41905">
        <ele>741</ele>
        <time>2019-06-15T10:38:16.100Z</time>
      </trkpt>
      <trkpt lat="44.99298" lon="5.41904">
        <ele>741</ele>
        <time>2019-06-15T10:38:17.100Z</time>
      </trkpt>
      <trkpt lat="44.99296" lon="5.41903">
        <ele>742</ele>
        <time>2019-06-15T10:38:18.100Z</time>
      </trkpt>
      <trkpt lat="44.99294" lon="5.41902">
        <ele>742</ele>
        <time>2019-06-15T10:38:19.100Z</time>
      </trkpt>
      <trkpt lat="44.99291" lon="5.41901">
        <ele>742</ele>
        <time>2019-06-15T10:38:20.100Z</time>
      </trkpt>
      <trkpt lat="44.99289" lon="5.419">
        <ele>742</ele>
        <time>2019-06-15T10:38:21.100Z</time>
      </trkpt>
      <trkpt lat="44.99287" lon="5.419">
        <ele>742</ele>
        <time>2019-06-15T10:38:22.100Z</time>
      </trkpt>
      <trkpt lat="44.99284" lon="5.41899">
        <ele>742</ele>
        <time>2019-06-15T10:38:23.100Z</time>
      </trkpt>
      <trkpt lat="44.99282" lon="5.41899">
        <ele>743</ele>
        <time>2019-06-15T10:38:24.100Z</time>
      </trkpt>
      <trkpt lat="44.9928" lon="5.41899">
        <ele>742</ele>
        <time>2019-06-15T10:38:25.100Z</time>
      </trkpt>
      <trkpt lat="44.99278" lon="5.41899">
        <ele>743</ele>
        <time>2019-06-15T10:38:26.100Z</time>
      </trkpt>
      <trkpt lat="44.99276" lon="5.41899">
        <ele>743</ele>
        <time>2019-06-15T10:38:27.100Z</time>
      </trkpt>
      <trkpt lat="44.99274" lon="5.419">
        <ele>742</ele>
        <time>2019-06-15T10:38:28.100Z</time>
      </trkpt>
      <trkpt lat="44.99272" lon="5.41901">
        <ele>741</ele>
        <time>2019-06-15T10:38:29.100Z</time>
      </trkpt>
      <trkpt lat="44.9927" lon="5.41901">
        <ele>742</ele>
        <time>2019-06-15T10:38:30.100Z</time>
      </trkpt>
      <trkpt lat="44.99268" lon="5.41902">
        <ele>742</ele>
        <time>2019-06-15T10:38:31.100Z</time>
      </trkpt>
      <trkpt lat="44.99266" lon="5.41902">
        <ele>742</ele>
        <time>2019-06-15T10:38:32.100Z</time>
      </trkpt>
      <trkpt lat="44.99264" lon="5.41902">
        <ele>742</ele>
        <time>2019-06-15T10:38:33.100Z</time>
      </trkpt>
      <trkpt lat="44.99262" lon="5.41902">
        <ele>742</ele>
        <time>2019-06-15T10:38:34.100Z</time>
      </trkpt>
      <trkpt lat="44.99261" lon="5.41902">
        <ele>742</ele>
        <time>2019-06-15T10:38:35.100Z</time>
      </trkpt>
      <trkpt lat="44.99259" lon="5.41902">
        <ele>742</ele>
        <time>2019-06-15T10:38:36.100Z</time>
      </trkpt>
      <trkpt lat="44.99257" lon="5.41902">
        <ele>743</ele>
        <time>2019-06-15T10:38:37.100Z</time>
      </trkpt>
      <trkpt lat="44.99255" lon="5.41903">
        <ele>743</ele>
        <time>2019-06-15T10:38:38.100Z</time>
      </trkpt>
      <trkpt lat="44.99254" lon="5.41903">
        <ele>743</ele>
        <time>2019-06-15T10:38:39.100Z</time>
      </trkpt>
      <trkpt lat="44.99252" lon="5.41904">
        <ele>743</ele>
        <time>2019-06-15T10:38:40.100Z</time>
      </trkpt>
      <trkpt lat="44.99251" lon="5.41904">
        <ele>743</ele>
        <time>2019-06-15T10:38:41.100Z</time>
      </trkpt>
      <trkpt lat="44.99249" lon="5.41905">
        <ele>743</ele>
        <time>2019-06-15T10:38:42.100Z</time>
      </trkpt>
      <trkpt lat="44.99247" lon="5.41906">
        <ele>743</ele>
        <time>2019-06-15T10:38:43.100Z</time>
      </trkpt>
      <trkpt lat="44.99245" lon="5.41906">
        <ele>744</ele>
        <time>2019-06-15T10:38:44.100Z</time>
      </trkpt>
      <trkpt lat="44.99243" lon="5.41906">
        <ele>744</ele>
        <time>2019-06-15T10:38:45.100Z</time>
      </trkpt>
      <trkpt lat="44.99241" lon="5.41906">
        <ele>744</ele>
        <time>2019-06-15T10:38:46.100Z</time>
      </trkpt>
      <trkpt lat="44.9924" lon="5.41906">
        <ele>745</ele>
        <time>2019-06-15T10:38:47.100Z</time>
      </trkpt>
      <trkpt lat="44.99238" lon="5.41906">
        <ele>745</ele>
        <time>2019-06-15T10:38:48.100Z</time>
      </trkpt>
      <trkpt lat="44.99236" lon="5.41906">
        <ele>745</ele>
        <time>2019-06-15T10:38:49.100Z</time>
      </trkpt>
      <trkpt lat="44.99234" lon="5.41906">
        <ele>745</ele>
        <time>2019-06-15T10:38:50.100Z</time>
      </trkpt>
      <trkpt lat="44.99232" lon="5.41906">
        <ele>745</ele>
        <time>2019-06-15T10:38:51.100Z</time>
      </trkpt>
      <trkpt lat="44.9923" lon="5.41906">
        <ele>746</ele>
        <time>2019-06-15T10:38:52.100Z</time>
      </trkpt>
      <trkpt lat="44.99227" lon="5.41905">
        <ele>746</ele>
        <time>2019-06-15T10:38:53.100Z</time>
      </trkpt>
      <trkpt lat="44.99225" lon="5.41905">
        <ele>746</ele>
        <time>2019-06-15T10:38:54.100Z</time>
      </trkpt>
      <trkpt lat="44.99223" lon="5.41904">
        <ele>748</ele>
        <time>2019-06-15T10:38:55.100Z</time>
      </trkpt>
      <trkpt lat="44.99221" lon="5.41903">
        <ele>749</ele>
        <time>2019-06-15T10:38:56.100Z</time>
      </trkpt>
      <trkpt lat="44.99219" lon="5.41902">
        <ele>749</ele>
        <time>2019-06-15T10:38:57.100Z</time>
      </trkpt>
      <trkpt lat="44.99217" lon="5.419">
        <ele>749</ele>
        <time>2019-06-15T10:38:58.100Z</time>
      </trkpt>
      <trkpt lat="44.99215" lon="5.41899">
        <ele>749</ele>
        <time>2019-06-15T10:38:59.100Z</time>
      </trkpt>
      <trkpt lat="44.99214" lon="5.41897">
        <ele>750</ele>
        <time>2019-06-15T10:39:00.100Z</time>
      </trkpt>
      <trkpt lat="44.99212" lon="5.41896">
        <ele>749</ele>
        <time>2019-06-15T10:39:01.100Z</time>
      </trkpt>
      <trkpt lat="44.9921" lon="5.41894">
        <ele>749</ele>
        <time>2019-06-15T10:39:02.100Z</time>
      </trkpt>
      <trkpt lat="44.99209" lon="5.41892">
        <ele>750</ele>
        <time>2019-06-15T10:39:03.100Z</time>
      </trkpt>
      <trkpt lat="44.99207" lon="5.41891">
        <ele>750</ele>
        <time>2019-06-15T10:39:04.100Z</time>
      </trkpt>
      <trkpt lat="44.99206" lon="5.41889">
        <ele>750</ele>
        <time>2019-06-15T10:39:05.100Z</time>
      </trkpt>
      <trkpt lat="44.99205" lon="5.41887">
        <ele>751</ele>
        <time>2019-06-15T10:39:06.100Z</time>
      </trkpt>
      <trkpt lat="44.99204" lon="5.41884">
        <ele>751</ele>
        <time>2019-06-15T10:39:07.100Z</time>
      </trkpt>
      <trkpt lat="44.99203" lon="5.41882">
        <ele>751</ele>
        <time>2019-06-15T10:39:08.100Z</time>
      </trkpt>
      <trkpt lat="44.99202" lon="5.4188">
        <ele>752</ele>
        <time>2019-06-15T10:39:09.100Z</time>
      </trkpt>
      <trkpt lat="44.99201" lon="5.41878">
        <ele>752</ele>
        <time>2019-06-15T10:39:10.100Z</time>
      </trkpt>
      <trkpt lat="44.992" lon="5.41875">
        <ele>752</ele>
        <time>2019-06-15T10:39:11.100Z</time>
      </trkpt>
      <trkpt lat="44.99199" lon="5.41873">
        <ele>752</ele>
        <time>2019-06-15T10:39:12.100Z</time>
      </trkpt>
      <trkpt lat="44.99199" lon="5.4187">
        <ele>752</ele>
        <time>2019-06-15T10:39:13.100Z</time>
      </trkpt>
      <trkpt lat="44.99198" lon="5.41868">
        <ele>752</ele>
        <time>2019-06-15T10:39:14.100Z</time>
      </trkpt>
      <trkpt lat="44.99197" lon="5.41866">
        <ele>752</ele>
        <time>2019-06-15T10:39:15.100Z</time>
      </trkpt>
      <trkpt lat="44.99195" lon="5.41864">
        <ele>753</ele>
        <time>2019-06-15T10:39:16.100Z</time>
      </trkpt>
      <trkpt lat="44.99194" lon="5.41862">
        <ele>753</ele>
        <time>2019-06-15T10:39:17.100Z</time>
      </trkpt>
      <trkpt lat="44.99192" lon="5.4186">
        <ele>754</ele>
        <time>2019-06-15T10:39:18.100Z</time>
      </trkpt>
      <trkpt lat="44.99191" lon="5.41858">
        <ele>754</ele>
        <time>2019-06-15T10:39:19.100Z</time>
      </trkpt>
      <trkpt lat="44.9919" lon="5.41856">
        <ele>754</ele>
        <time>2019-06-15T10:39:20.100Z</time>
      </trkpt>
      <trkpt lat="44.99188" lon="5.41855">
        <ele>754</ele>
        <time>2019-06-15T10:39:21.100Z</time>
      </trkpt>
      <trkpt lat="44.99187" lon="5.41853">
        <ele>755</ele>
        <time>2019-06-15T10:39:22.100Z</time>
      </trkpt>
      <trkpt lat="44.99185" lon="5.41851">
        <ele>754</ele>
        <time>2019-06-15T10:39:23.100Z</time>
      </trkpt>
      <trkpt lat="44.99184" lon="5.4185">
        <ele>755</ele>
        <time>2019-06-15T10:39:24.100Z</time>
      </trkpt>
      <trkpt lat="44.99182" lon="5.41848">
        <ele>755</ele>
        <time>2019-06-15T10:39:25.100Z</time>
      </trkpt>
      <trkpt lat="44.99181" lon="5.41847">
        <ele>754</ele>
        <time>2019-06-15T10:39:26.100Z</time>
      </trkpt>
      <trkpt lat="44.99179" lon="5.41845">
        <ele>755</ele>
        <time>2019-06-15T10:39:27.100Z</time>
      </trkpt>
      <trkpt lat="44.99177" lon="5.41844">
        <ele>756</ele>
        <time>2019-06-15T10:39:28.100Z</time>
      </trkpt>
      <trkpt lat="44.99176" lon="5.41843">
        <ele>756</ele>
        <time>2019-06-15T10:39:29.100Z</time>
      </trkpt>
      <trkpt lat="44.99174" lon="5.41842">
        <ele>756</ele>
        <time>2019-06-15T10:39:30.100Z</time>
      </trkpt>
      <trkpt lat="44.99172" lon="5.4184">
        <ele>755</ele>
        <time>2019-06-15T10:39:31.100Z</time>
      </trkpt>
      <trkpt lat="44.9917" lon="5.41839">
        <ele>756</ele>
        <time>2019-06-15T10:39:32.100Z</time>
      </trkpt>
      <trkpt lat="44.99169" lon="5.41837">
        <ele>756</ele>
        <time>2019-06-15T10:39:33.100Z</time>
      </trkpt>
      <trkpt lat="44.99167" lon="5.41836">
        <ele>756</ele>
        <time>2019-06-15T10:39:34.100Z</time>
      </trkpt>
      <trkpt lat="44.99165" lon="5.41835">
        <ele>756</ele>
        <time>2019-06-15T10:39:35.100Z</time>
      </trkpt>
      <trkpt lat="44.99164" lon="5.41834">
        <ele>756</ele>
        <time>2019-06-15T10:39:36.100Z</time>
      </trkpt>
      <trkpt lat="44.99162" lon="5.41832">
        <ele>756</ele>
        <time>2019-06-15T10:39:37.100Z</time>
      </trkpt>
      <trkpt lat="44.9916" lon="5.41831">
        <ele>757</ele>
        <time>2019-06-15T10:39:38.100Z</time>
      </trkpt>
      <trkpt lat="44.99159" lon="5.41829">
        <ele>756</ele>
        <time>2019-06-15T10:39:39.100Z</time>
      </trkpt>
      <trkpt lat="44.99157" lon="5.41828">
        <ele>756</ele>
        <time>2019-06-15T10:39:40.100Z</time>
      </trkpt>
      <trkpt lat="44.99156" lon="5.41826">
        <ele>756</ele>
        <time>2019-06-15T10:39:41.100Z</time>
      </trkpt>
      <trkpt lat="44.99154" lon="5.41825">
        <ele>755</ele>
        <time>2019-06-15T10:39:42.100Z</time>
      </trkpt>
      <trkpt lat="44.99153" lon="5.41823">
        <ele>755</ele>
        <time>2019-06-15T10:39:43.100Z</time>
      </trkpt>
      <trkpt lat="44.99151" lon="5.41822">
        <ele>755</ele>
        <time>2019-06-15T10:39:44.100Z</time>
      </trkpt>
      <trkpt lat="44.9915" lon="5.4182">
        <ele>756</ele>
        <time>2019-06-15T10:39:45.100Z</time>
      </trkpt>
      <trkpt lat="44.99148" lon="5.41819">
        <ele>756</ele>
        <time>2019-06-15T10:39:46.100Z</time>
      </trkpt>
      <trkpt lat="44.99147" lon="5.41818">
        <ele>757</ele>
        <time>2019-06-15T10:39:47.100Z</time>
      </trkpt>
      <trkpt lat="44.99145" lon="5.41816">
        <ele>756</ele>
        <time>2019-06-15T10:39:48.100Z</time>
      </trkpt>
      <trkpt lat="44.99144" lon="5.41815">
        <ele>757</ele>
        <time>2019-06-15T10:39:49.100Z</time>
      </trkpt>
      <trkpt lat="44.99142" lon="5.41813">
        <ele>758</ele>
        <time>2019-06-15T10:39:50.100Z</time>
      </trkpt>
      <trkpt lat="44.99141" lon="5.41812">
        <ele>758</ele>
        <time>2019-06-15T10:39:51.100Z</time>
      </trkpt>
      <trkpt lat="44.99139" lon="5.41811">
        <ele>760</ele>
        <time>2019-06-15T10:39:52.100Z</time>
      </trkpt>
      <trkpt lat="44.99138" lon="5.41809">
        <ele>760</ele>
        <time>2019-06-15T10:39:53.100Z</time>
      </trkpt>
      <trkpt lat="44.99136" lon="5.41808">
        <ele>761</ele>
        <time>2019-06-15T10:39:54.100Z</time>
      </trkpt>
      <trkpt lat="44.99135" lon="5.41807">
        <ele>762</ele>
        <time>2019-06-15T10:39:55.100Z</time>
      </trkpt>
      <trkpt lat="44.99133" lon="5.41805">
        <ele>762</ele>
        <time>2019-06-15T10:39:56.100Z</time>
      </trkpt>
      <trkpt lat="44.99132" lon="5.41804">
        <ele>763</ele>
        <time>2019-06-15T10:39:57.100Z</time>
      </trkpt>
      <trkpt lat="44.99131" lon="5.41802">
        <ele>764</ele>
        <time>2019-06-15T10:39:58.100Z</time>
      </trkpt>
      <trkpt lat="44.99129" lon="5.41801">
        <ele>764</ele>
        <time>2019-06-15T10:39:59.100Z</time>
      </trkpt>
      <trkpt lat="44.99128" lon="5.418">
        <ele>764</ele>
        <time>2019-06-15T10:40:00.100Z</time>
      </trkpt>
      <trkpt lat="44.99127" lon="5.41798">
        <ele>765</ele>
        <time>2019-06-15T10:40:01.100Z</time>
      </trkpt>
      <trkpt lat="44.99125" lon="5.41796">
        <ele>765</ele>
        <time>2019-06-15T10:40:02.100Z</time>
      </trkpt>
      <trkpt lat="44.99124" lon="5.41795">
        <ele>765</ele>
        <time>2019-06-15T10:40:03.100Z</time>
      </trkpt>
      <trkpt lat="44.99123" lon="5.41794">
        <ele>766</ele>
        <time>2019-06-15T10:40:04.100Z</time>
      </trkpt>
      <trkpt lat="44.99121" lon="5.41792">
        <ele>766</ele>
        <time>2019-06-15T10:40:05.100Z</time>
      </trkpt>
      <trkpt lat="44.9912" lon="5.41791">
        <ele>766</ele>
        <time>2019-06-15T10:40:06.100Z</time>
      </trkpt>
      <trkpt lat="44.99119" lon="5.41789">
        <ele>766</ele>
        <time>2019-06-15T10:40:07.100Z</time>
      </trkpt>
      <trkpt lat="44.99117" lon="5.41788">
        <ele>766</ele>
        <time>2019-06-15T10:40:08.100Z</time>
      </trkpt>
      <trkpt lat="44.99116" lon="5.41786">
        <ele>766</ele>
        <time>2019-06-15T10:40:09.100Z</time>
      </trkpt>
      <trkpt lat="44.99115" lon="5.41785">
        <ele>767</ele>
        <time>2019-06-15T10:40:10.100Z</time>
      </trkpt>
      <trkpt lat="44.99113" lon="5.41783">
        <ele>767</ele>
        <time>2019-06-15T10:40:11.100Z</time>
      </trkpt>
      <trkpt lat="44.99112" lon="5.41781">
        <ele>767</ele>
        <time>2019-06-15T10:40:12.100Z</time>
      </trkpt>
      <trkpt lat="44.9911" lon="5.4178">
        <ele>767</ele>
        <time>2019-06-15T10:40:13.100Z</time>
      </trkpt>
      <trkpt lat="44.99109" lon="5.41779">
        <ele>767</ele>
        <time>2019-06-15T10:40:14.100Z</time>
      </trkpt>
      <trkpt lat="44.99107" lon="5.41778">
        <ele>768</ele>
        <time>2019-06-15T10:40:15.100Z</time>
      </trkpt>
      <trkpt lat="44.99106" lon="5.41777">
        <ele>768</ele>
        <time>2019-06-15T10:40:16.100Z</time>
      </trkpt>
      <trkpt lat="44.99104" lon="5.41776">
        <ele>768</ele>
        <time>2019-06-15T10:40:17.100Z</time>
      </trkpt>
      <trkpt lat="44.99103" lon="5.41775">
        <ele>768</ele>
        <time>2019-06-15T10:40:18.100Z</time>
      </trkpt>
      <trkpt lat="44.99101" lon="5.41773">
        <ele>768</ele>
        <time>2019-06-15T10:40:19.100Z</time>
      </trkpt>
      <trkpt lat="44.991" lon="5.41772">
        <ele>767</ele>
        <time>2019-06-15T10:40:20.100Z</time>
      </trkpt>
      <trkpt lat="44.99098" lon="5.41771">
        <ele>768</ele>
        <time>2019-06-15T10:40:21.100Z</time>
      </trkpt>
      <trkpt lat="44.99097" lon="5.4177">
        <ele>768</ele>
        <time>2019-06-15T10:40:22.100Z</time>
      </trkpt>
      <trkpt lat="44.99096" lon="5.41769">
        <ele>768</ele>
        <time>2019-06-15T10:40:23.100Z</time>
      </trkpt>
      <trkpt lat="44.99094" lon="5.41768">
        <ele>768</ele>
        <time>2019-06-15T10:40:24.100Z</time>
      </trkpt>
      <trkpt lat="44.99092" lon="5.41767">
        <ele>768</ele>
        <time>2019-06-15T10:40:25.100Z</time>
      </trkpt>
      <trkpt lat="44.99091" lon="5.41766">
        <ele>768</ele>
        <time>2019-06-15T10:40:26.100Z</time>
      </trkpt>
      <trkpt lat="44.99089" lon="5.41765">
        <ele>769</ele>
        <time>2019-06-15T10:40:27.100Z</time>
      </trkpt>
      <trkpt lat="44.99088" lon="5.41763">
        <ele>769</ele>
        <time>2019-06-15T10:40:28.100Z</time>
      </trkpt>
      <trkpt lat="44.99087" lon="5.41762">
        <ele>769</ele>
        <time>2019-06-15T10:40:29.100Z</time>
      </trkpt>
      <trkpt lat="44.99085" lon="5.41761">
        <ele>769</ele>
        <time>2019-06-15T10:40:30.100Z</time>
      </trkpt>
      <trkpt lat="44.99083" lon="5.4176">
        <ele>770</ele>
        <time>2019-06-15T10:40:31.100Z</time>
      </trkpt>
      <trkpt lat="44.99082" lon="5.4176">
        <ele>770</ele>
        <time>2019-06-15T10:40:32.100Z</time>
      </trkpt>
      <trkpt lat="44.9908" lon="5.4176">
        <ele>770</ele>
        <time>2019-06-15T10:40:33.100Z</time>
      </trkpt>
      <trkpt lat="44.99078" lon="5.4176">
        <ele>770</ele>
        <time>2019-06-15T10:40:34.100Z</time>
      </trkpt>
      <trkpt lat="44.99077" lon="5.41759">
        <ele>770</ele>
        <time>2019-06-15T10:40:35.100Z</time>
      </trkpt>
      <trkpt lat="44.99075" lon="5.41759">
        <ele>770</ele>
        <time>2019-06-15T10:40:36.100Z</time>
      </trkpt>
      <trkpt lat="44.99074" lon="5.41759">
        <ele>771</ele>
        <time>2019-06-15T10:40:37.100Z</time>
      </trkpt>
      <trkpt lat="44.99072" lon="5.41759">
        <ele>771</ele>
        <time>2019-06-15T10:40:38.100Z</time>
      </trkpt>
      <trkpt lat="44.99071" lon="5.41759">
        <ele>771</ele>
        <time>2019-06-15T10:40:39.100Z</time>
      </trkpt>
      <trkpt lat="44.99069" lon="5.41758">
        <ele>772</ele>
        <time>2019-06-15T10:40:40.100Z</time>
      </trkpt>
      <trkpt lat="44.99068" lon="5.41758">
        <ele>773</ele>
        <time>2019-06-15T10:40:41.100Z</time>
      </trkpt>
      <trkpt lat="44.99066" lon="5.41758">
        <ele>773</ele>
        <time>2019-06-15T10:40:42.100Z</time>
      </trkpt>
      <trkpt lat="44.99065" lon="5.41758">
        <ele>773</ele>
        <time>2019-06-15T10:40:43.100Z</time>
      </trkpt>
      <trkpt lat="44.99064" lon="5.41757">
        <ele>774</ele>
        <time>2019-06-15T10:40:44.100Z</time>
      </trkpt>
      <trkpt lat="44.99062" lon="5.41757">
        <ele>774</ele>
        <time>2019-06-15T10:40:45.100Z</time>
      </trkpt>
      <trkpt lat="44.99061" lon="5.41757">
        <ele>774</ele>
        <time>2019-06-15T10:40:46.100Z</time>
      </trkpt>
      <trkpt lat="44.9906" lon="5.41756">
        <ele>774</ele>
        <time>2019-06-15T10:40:47.100Z</time>
      </trkpt>
      <trkpt lat="44.99059" lon="5.41756">
        <ele>774</ele>
        <time>2019-06-15T10:40:48.100Z</time>
      </trkpt>
      <trkpt lat="44.99057" lon="5.41756">
        <ele>775</ele>
        <time>2019-06-15T10:40:49.100Z</time>
      </trkpt>
      <trkpt lat="44.99056" lon="5.41755">
        <ele>775</ele>
        <time>2019-06-15T10:40:50.100Z</time>
      </trkpt>
      <trkpt lat="44.99054" lon="5.41754">
        <ele>775</ele>
        <time>2019-06-15T10:40:51.100Z</time>
      </trkpt>
      <trkpt lat="44.99053" lon="5.41754">
        <ele>775</ele>
        <time>2019-06-15T10:40:52.100Z</time>
      </trkpt>
      <trkpt lat="44.99051" lon="5.41754">
        <ele>775</ele>
        <time>2019-06-15T10:40:53.100Z</time>
      </trkpt>
      <trkpt lat="44.9905" lon="5.41754">
        <ele>775</ele>
        <time>2019-06-15T10:40:54.100Z</time>
      </trkpt>
      <trkpt lat="44.99049" lon="5.41753">
        <ele>775</ele>
        <time>2019-06-15T10:40:55.100Z</time>
      </trkpt>
      <trkpt lat="44.99047" lon="5.41753">
        <ele>774</ele>
        <time>2019-06-15T10:40:56.100Z</time>
      </trkpt>
      <trkpt lat="44.99046" lon="5.41752">
        <ele>775</ele>
        <time>2019-06-15T10:40:57.100Z</time>
      </trkpt>
      <trkpt lat="44.99045" lon="5.41751">
        <ele>775</ele>
        <time>2019-06-15T10:40:58.100Z</time>
      </trkpt>
      <trkpt lat="44.99043" lon="5.4175">
        <ele>775</ele>
        <time>2019-06-15T10:40:59.100Z</time>
      </trkpt>
      <trkpt lat="44.99042" lon="5.41749">
        <ele>775</ele>
        <time>2019-06-15T10:41:00.100Z</time>
      </trkpt>
      <trkpt lat="44.9904" lon="5.41748">
        <ele>776</ele>
        <time>2019-06-15T10:41:01.100Z</time>
      </trkpt>
      <trkpt lat="44.99039" lon="5.41748">
        <ele>776</ele>
        <time>2019-06-15T10:41:02.100Z</time>
      </trkpt>
      <trkpt lat="44.99037" lon="5.41747">
        <ele>776</ele>
        <time>2019-06-15T10:41:03.100Z</time>
      </trkpt>
      <trkpt lat="44.99036" lon="5.41747">
        <ele>777</ele>
        <time>2019-06-15T10:41:04.100Z</time>
      </trkpt>
      <trkpt lat="44.99034" lon="5.41746">
        <ele>777</ele>
        <time>2019-06-15T10:41:05.100Z</time>
      </trkpt>
      <trkpt lat="44.99033" lon="5.41745">
        <ele>777</ele>
        <time>2019-06-15T10:41:06.100Z</time>
      </trkpt>
      <trkpt lat="44.99032" lon="5.41745">
        <ele>777</ele>
        <time>2019-06-15T10:41:07.100Z</time>
      </trkpt>
      <trkpt lat="44.9903" lon="5.41744">
        <ele>777</ele>
        <time>2019-06-15T10:41:08.100Z</time>
      </trkpt>
      <trkpt lat="44.99029" lon="5.41744">
        <ele>777</ele>
        <time>2019-06-15T10:41:09.100Z</time>
      </trkpt>
      <trkpt lat="44.99028" lon="5.41744">
        <ele>778</ele>
        <time>2019-06-15T10:41:10.100Z</time>
      </trkpt>
      <trkpt lat="44.99027" lon="5.41744">
        <ele>778</ele>
        <time>2019-06-15T10:41:11.100Z</time>
      </trkpt>
      <trkpt lat="44.99025" lon="5.41743">
        <ele>778</ele>
        <time>2019-06-15T10:41:12.100Z</time>
      </trkpt>
      <trkpt lat="44.99024" lon="5.41742">
        <ele>779</ele>
        <time>2019-06-15T10:41:13.100Z</time>
      </trkpt>
      <trkpt lat="44.99023" lon="5.41742">
        <ele>778</ele>
        <time>2019-06-15T10:41:14.100Z</time>
      </trkpt>
      <trkpt lat="44.99022" lon="5.41741">
        <ele>778</ele>
        <time>2019-06-15T10:41:15.100Z</time>
      </trkpt>
      <trkpt lat="44.99021" lon="5.41741">
        <ele>778</ele>
        <time>2019-06-15T10:41:16.100Z</time>
      </trkpt>
      <trkpt lat="44.99019" lon="5.41741">
        <ele>778</ele>
        <time>2019-06-15T10:41:17.100Z</time>
      </trkpt>
      <trkpt lat="44.99017" lon="5.4174">
        <ele>778</ele>
        <time>2019-06-15T10:41:18.100Z</time>
      </trkpt>
      <trkpt lat="44.99016" lon="5.4174">
        <ele>778</ele>
        <time>2019-06-15T10:41:19.100Z</time>
      </trkpt>
      <trkpt lat="44.99014" lon="5.41739">
        <ele>778</ele>
        <time>2019-06-15T10:41:20.100Z</time>
      </trkpt>
      <trkpt lat="44.99013" lon="5.41739">
        <ele>778</ele>
        <time>2019-06-15T10:41:21.100Z</time>
      </trkpt>
      <trkpt lat="44.99011" lon="5.41738">
        <ele>779</ele>
        <time>2019-06-15T10:41:22.100Z</time>
      </trkpt>
      <trkpt lat="44.9901" lon="5.41738">
        <ele>779</ele>
        <time>2019-06-15T10:41:23.100Z</time>
      </trkpt>
      <trkpt lat="44.99008" lon="5.41737">
        <ele>779</ele>
        <time>2019-06-15T10:41:24.100Z</time>
      </trkpt>
      <trkpt lat="44.99007" lon="5.41737">
        <ele>779</ele>
        <time>2019-06-15T10:41:25.100Z</time>
      </trkpt>
      <trkpt lat="44.99006" lon="5.41736">
        <ele>779</ele>
        <time>2019-06-15T10:41:26.100Z</time>
      </trkpt>
      <trkpt lat="44.99004" lon="5.41736">
        <ele>780</ele>
        <time>2019-06-15T10:41:27.100Z</time>
      </trkpt>
      <trkpt lat="44.99003" lon="5.41735">
        <ele>779</ele>
        <time>2019-06-15T10:41:28.100Z</time>
      </trkpt>
      <trkpt lat="44.99001" lon="5.41734">
        <ele>780</ele>
        <time>2019-06-15T10:41:29.100Z</time>
      </trkpt>
      <trkpt lat="44.99" lon="5.41734">
        <ele>780</ele>
        <time>2019-06-15T10:41:30.100Z</time>
      </trkpt>
      <trkpt lat="44.98998" lon="5.41733">
        <ele>780</ele>
        <time>2019-06-15T10:41:31.100Z</time>
      </trkpt>
      <trkpt lat="44.98997" lon="5.41732">
        <ele>780</ele>
        <time>2019-06-15T10:41:32.100Z</time>
      </trkpt>
      <trkpt lat="44.98995" lon="5.41731">
        <ele>780</ele>
        <time>2019-06-15T10:41:33.100Z</time>
      </trkpt>
      <trkpt lat="44.98994" lon="5.41731">
        <ele>781</ele>
        <time>2019-06-15T10:41:34.100Z</time>
      </trkpt>
      <trkpt lat="44.98993" lon="5.41731">
        <ele>781</ele>
        <time>2019-06-15T10:41:35.100Z</time>
      </trkpt>
      <trkpt lat="44.98991" lon="5.4173">
        <ele>781</ele>
        <time>2019-06-15T10:41:36.100Z</time>
      </trkpt>
      <trkpt lat="44.9899" lon="5.4173">
        <ele>782</ele>
        <time>2019-06-15T10:41:37.100Z</time>
      </trkpt>
      <trkpt lat="44.98988" lon="5.4173">
        <ele>782</ele>
        <time>2019-06-15T10:41:38.100Z</time>
      </trkpt>
      <trkpt lat="44.98987" lon="5.4173">
        <ele>782</ele>
        <time>2019-06-15T10:41:39.100Z</time>
      </trkpt>
      <trkpt lat="44.98985" lon="5.41729">
        <ele>782</ele>
        <time>2019-06-15T10:41:40.100Z</time>
      </trkpt>
      <trkpt lat="44.98984" lon="5.41729">
        <ele>782</ele>
        <time>2019-06-15T10:41:41.100Z</time>
      </trkpt>
      <trkpt lat="44.98982" lon="5.41729">
        <ele>782</ele>
        <time>2019-06-15T10:41:42.100Z</time>
      </trkpt>
      <trkpt lat="44.98981" lon="5.41728">
        <ele>782</ele>
        <time>2019-06-15T10:41:43.100Z</time>
      </trkpt>
      <trkpt lat="44.98979" lon="5.41728">
        <ele>783</ele>
        <time>2019-06-15T10:41:44.100Z</time>
      </trkpt>
      <trkpt lat="44.98978" lon="5.41728">
        <ele>783</ele>
        <time>2019-06-15T10:41:45.100Z</time>
      </trkpt>
      <trkpt lat="44.98977" lon="5.41727">
        <ele>783</ele>
        <time>2019-06-15T10:41:46.100Z</time>
      </trkpt>
      <trkpt lat="44.98976" lon="5.41727">
        <ele>783</ele>
        <time>2019-06-15T10:41:47.100Z</time>
      </trkpt>
      <trkpt lat="44.98974" lon="5.41727">
        <ele>783</ele>
        <time>2019-06-15T10:41:48.100Z</time>
      </trkpt>
      <trkpt lat="44.98972" lon="5.41727">
        <ele>784</ele>
        <time>2019-06-15T10:41:49.100Z</time>
      </trkpt>
      <trkpt lat="44.98971" lon="5.41726">
        <ele>784</ele>
        <time>2019-06-15T10:41:50.100Z</time>
      </trkpt>
      <trkpt lat="44.9897" lon="5.41726">
        <ele>784</ele>
        <time>2019-06-15T10:41:51.100Z</time>
      </trkpt>
      <trkpt lat="44.98968" lon="5.41726">
        <ele>784</ele>
        <time>2019-06-15T10:41:52.100Z</time>
      </trkpt>
      <trkpt lat="44.98967" lon="5.41726">
        <ele>784</ele>
        <time>2019-06-15T10:41:53.100Z</time>
      </trkpt>
      <trkpt lat="44.98965" lon="5.41726">
        <ele>784</ele>
        <time>2019-06-15T10:41:54.100Z</time>
      </trkpt>
      <trkpt lat="44.98964" lon="5.41726">
        <ele>784</ele>
        <time>2019-06-15T10:41:55.100Z</time>
      </trkpt>
      <trkpt lat="44.98963" lon="5.41725">
        <ele>784</ele>
        <time>2019-06-15T10:41:56.100Z</time>
      </trkpt>
      <trkpt lat="44.98961" lon="5.41725">
        <ele>784</ele>
        <time>2019-06-15T10:41:57.100Z</time>
      </trkpt>
      <trkpt lat="44.9896" lon="5.41725">
        <ele>785</ele>
        <time>2019-06-15T10:41:58.100Z</time>
      </trkpt>
      <trkpt lat="44.98958" lon="5.41725">
        <ele>785</ele>
        <time>2019-06-15T10:41:59.100Z</time>
      </trkpt>
      <trkpt lat="44.98957" lon="5.41725">
        <ele>785</ele>
        <time>2019-06-15T10:42:00.100Z</time>
      </trkpt>
      <trkpt lat="44.98955" lon="5.41725">
        <ele>785</ele>
        <time>2019-06-15T10:42:01.100Z</time>
      </trkpt>
      <trkpt lat="44.98954" lon="5.41724">
        <ele>785</ele>
        <time>2019-06-15T10:42:02.100Z</time>
      </trkpt>
      <trkpt lat="44.98953" lon="5.41724">
        <ele>786</ele>
        <time>2019-06-15T10:42:03.100Z</time>
      </trkpt>
      <trkpt lat="44.98951" lon="5.41724">
        <ele>786</ele>
        <time>2019-06-15T10:42:04.100Z</time>
      </trkpt>
      <trkpt lat="44.9895" lon="5.41724">
        <ele>786</ele>
        <time>2019-06-15T10:42:05.100Z</time>
      </trkpt>
      <trkpt lat="44.98949" lon="5.41724">
        <ele>785</ele>
        <time>2019-06-15T10:42:06.100Z</time>
      </trkpt>
      <trkpt lat="44.98947" lon="5.41724">
        <ele>785</ele>
        <time>2019-06-15T10:42:07.100Z</time>
      </trkpt>
      <trkpt lat="44.98946" lon="5.41724">
        <ele>785</ele>
        <time>2019-06-15T10:42:08.100Z</time>
      </trkpt>
      <trkpt lat="44.98944" lon="5.41724">
        <ele>786</ele>
        <time>2019-06-15T10:42:09.100Z</time>
      </trkpt>
      <trkpt lat="44.98943" lon="5.41724">
        <ele>786</ele>
        <time>2019-06-15T10:42:10.100Z</time>
      </trkpt>
      <trkpt lat="44.98942" lon="5.41724">
        <ele>786</ele>
        <time>2019-06-15T10:42:11.100Z</time>
      </trkpt>
      <trkpt lat="44.9894" lon="5.41724">
        <ele>786</ele>
        <time>2019-06-15T10:42:12.100Z</time>
      </trkpt>
      <trkpt lat="44.98939" lon="5.41724">
        <ele>785</ele>
        <time>2019-06-15T10:42:13.100Z</time>
      </trkpt>
      <trkpt lat="44.98938" lon="5.41724">
        <ele>785</ele>
        <time>2019-06-15T10:42:14.100Z</time>
      </trkpt>
      <trkpt lat="44.98937" lon="5.41724">
        <ele>786</ele>
        <time>2019-06-15T10:42:15.100Z</time>
      </trkpt>
      <trkpt lat="44.98935" lon="5.41724">
        <ele>785</ele>
        <time>2019-06-15T10:42:16.100Z</time>
      </trkpt>
      <trkpt lat="44.98934" lon="5.41724">
        <ele>785</ele>
        <time>2019-06-15T10:42:17.100Z</time>
      </trkpt>
      <trkpt lat="44.98933" lon="5.41724">
        <ele>784</ele>
        <time>2019-06-15T10:42:18.100Z</time>
      </trkpt>
      <trkpt lat="44.98932" lon="5.41724">
        <ele>785</ele>
        <time>2019-06-15T10:42:19.100Z</time>
      </trkpt>
      <trkpt lat="44.9893" lon="5.41724">
        <ele>785</ele>
        <time>2019-06-15T10:42:20.100Z</time>
      </trkpt>
      <trkpt lat="44.98929" lon="5.41724">
        <ele>786</ele>
        <time>2019-06-15T10:42:21.100Z</time>
      </trkpt>
      <trkpt lat="44.98927" lon="5.41724">
        <ele>787</ele>
        <time>2019-06-15T10:42:22.100Z</time>
      </trkpt>
      <trkpt lat="44.98926" lon="5.41724">
        <ele>788</ele>
        <time>2019-06-15T10:42:23.100Z</time>
      </trkpt>
      <trkpt lat="44.98925" lon="5.41723">
        <ele>787</ele>
        <time>2019-06-15T10:42:24.100Z</time>
      </trkpt>
      <trkpt lat="44.98923" lon="5.41723">
        <ele>787</ele>
        <time>2019-06-15T10:42:25.100Z</time>
      </trkpt>
      <trkpt lat="44.98922" lon="5.41722">
        <ele>788</ele>
        <time>2019-06-15T10:42:26.100Z</time>
      </trkpt>
      <trkpt lat="44.98921" lon="5.41722">
        <ele>788</ele>
        <time>2019-06-15T10:42:27.100Z</time>
      </trkpt>
      <trkpt lat="44.98919" lon="5.41721">
        <ele>788</ele>
        <time>2019-06-15T10:42:28.100Z</time>
      </trkpt>
      <trkpt lat="44.98918" lon="5.41721">
        <ele>789</ele>
        <time>2019-06-15T10:42:29.100Z</time>
      </trkpt>
      <trkpt lat="44.98917" lon="5.41721">
        <ele>789</ele>
        <time>2019-06-15T10:42:30.100Z</time>
      </trkpt>
      <trkpt lat="44.98915" lon="5.4172">
        <ele>789</ele>
        <time>2019-06-15T10:42:31.100Z</time>
      </trkpt>
      <trkpt lat="44.98914" lon="5.4172">
        <ele>790</ele>
        <time>2019-06-15T10:42:32.100Z</time>
      </trkpt>
      <trkpt lat="44.98912" lon="5.4172">
        <ele>790</ele>
        <time>2019-06-15T10:42:33.100Z</time>
      </trkpt>
      <trkpt lat="44.98911" lon="5.4172">
        <ele>791</ele>
        <time>2019-06-15T10:42:34.100Z</time>
      </trkpt>
      <trkpt lat="44.9891" lon="5.41721">
        <ele>791</ele>
        <time>2019-06-15T10:42:35.100Z</time>
      </trkpt>
      <trkpt lat="44.98908" lon="5.41721">
        <ele>792</ele>
        <time>2019-06-15T10:42:36.100Z</time>
      </trkpt>
      <trkpt lat="44.98907" lon="5.41721">
        <ele>792</ele>
        <time>2019-06-15T10:42:37.100Z</time>
      </trkpt>
      <trkpt lat="44.98906" lon="5.4172">
        <ele>792</ele>
        <time>2019-06-15T10:42:38.100Z</time>
      </trkpt>
      <trkpt lat="44.98904" lon="5.41719">
        <ele>792</ele>
        <time>2019-06-15T10:42:39.100Z</time>
      </trkpt>
      <trkpt lat="44.98903" lon="5.41718">
        <ele>792</ele>
        <time>2019-06-15T10:42:40.100Z</time>
      </trkpt>
      <trkpt lat="44.98902" lon="5.41717">
        <ele>792</ele>
        <time>2019-06-15T10:42:41.100Z</time>
      </trkpt>
      <trkpt lat="44.98902" lon="5.41716">
        <ele>792</ele>
        <time>2019-06-15T10:42:42.100Z</time>
      </trkpt>
      <trkpt lat="44.98901" lon="5.41716">
        <ele>792</ele>
        <time>2019-06-15T10:42:43.100Z</time>
      </trkpt>
      <trkpt lat="44.98901" lon="5.41715">
        <ele>792</ele>
        <time>2019-06-15T10:42:44.100Z</time>
      </trkpt>
      <trkpt lat="44.98901" lon="5.41715">
        <ele>792</ele>
        <time>2019-06-15T10:42:45.100Z</time>
      </trkpt>
      <trkpt lat="44.98901" lon="5.41715">
        <ele>792</ele>
        <time>2019-06-15T10:42:46.100Z</time>
      </trkpt>
      <trkpt lat="44.98901" lon="5.41715">
        <ele>793</ele>
        <time>2019-06-15T10:42:47.100Z</time>
      </trkpt>
      <trkpt lat="44.98901" lon="5.41715">
        <ele>793</ele>
        <time>2019-06-15T10:42:48.100Z</time>
      </trkpt>
      <trkpt lat="44.98901" lon="5.41715">
        <ele>793</ele>
        <time>2019-06-15T10:42:49.100Z</time>
      </trkpt>
      <trkpt lat="44.98901" lon="5.41715">
        <ele>793</ele>
        <time>2019-06-15T10:42:50.100Z</time>
      </trkpt>
      <trkpt lat="44.98899" lon="5.41709">
        <ele>791</ele>
        <time>2019-06-15T10:42:51.100Z</time>
      </trkpt>
      <trkpt lat="44.98898" lon="5.41708">
        <ele>792</ele>
        <time>2019-06-15T10:42:52.100Z</time>
      </trkpt>
      <trkpt lat="44.98897" lon="5.41706">
        <ele>791</ele>
        <time>2019-06-15T10:42:53.100Z</time>
      </trkpt>
      <trkpt lat="44.98896" lon="5.41705">
        <ele>791</ele>
        <time>2019-06-15T10:42:54.100Z</time>
      </trkpt>
      <trkpt lat="44.98895" lon="5.41704">
        <ele>791</ele>
        <time>2019-06-15T10:42:55.100Z</time>
      </trkpt>
      <trkpt lat="44.98894" lon="5.41703">
        <ele>791</ele>
        <time>2019-06-15T10:42:56.100Z</time>
      </trkpt>
      <trkpt lat="44.98893" lon="5.41702">
        <ele>791</ele>
        <time>2019-06-15T10:42:57.100Z</time>
      </trkpt>
      <trkpt lat="44.98891" lon="5.41701">
        <ele>792</ele>
        <time>2019-06-15T10:42:58.100Z</time>
      </trkpt>
      <trkpt lat="44.9889" lon="5.417">
        <ele>792</ele>
        <time>2019-06-15T10:42:59.100Z</time>
      </trkpt>
      <trkpt lat="44.98889" lon="5.41699">
        <ele>792</ele>
        <time>2019-06-15T10:43:00.100Z</time>
      </trkpt>
      <trkpt lat="44.98887" lon="5.41699">
        <ele>792</ele>
        <time>2019-06-15T10:43:01.100Z</time>
      </trkpt>
      <trkpt lat="44.98886" lon="5.41698">
        <ele>793</ele>
        <time>2019-06-15T10:43:02.100Z</time>
      </trkpt>
      <trkpt lat="44.98884" lon="5.41698">
        <ele>792</ele>
        <time>2019-06-15T10:43:03.100Z</time>
      </trkpt>
      <trkpt lat="44.98883" lon="5.41698">
        <ele>792</ele>
        <time>2019-06-15T10:43:04.100Z</time>
      </trkpt>
      <trkpt lat="44.98881" lon="5.41698">
        <ele>792</ele>
        <time>2019-06-15T10:43:05.100Z</time>
      </trkpt>
      <trkpt lat="44.9888" lon="5.41698">
        <ele>791</ele>
        <time>2019-06-15T10:43:06.100Z</time>
      </trkpt>
      <trkpt lat="44.98879" lon="5.41697">
        <ele>790</ele>
        <time>2019-06-15T10:43:07.100Z</time>
      </trkpt>
      <trkpt lat="44.98877" lon="5.41697">
        <ele>790</ele>
        <time>2019-06-15T10:43:08.100Z</time>
      </trkpt>
      <trkpt lat="44.98875" lon="5.41697">
        <ele>789</ele>
        <time>2019-06-15T10:43:09.100Z</time>
      </trkpt>
      <trkpt lat="44.98873" lon="5.41697">
        <ele>789</ele>
        <time>2019-06-15T10:43:10.100Z</time>
      </trkpt>
      <trkpt lat="44.98872" lon="5.41697">
        <ele>789</ele>
        <time>2019-06-15T10:43:11.100Z</time>
      </trkpt>
      <trkpt lat="44.9887" lon="5.41698">
        <ele>789</ele>
        <time>2019-06-15T10:43:12.100Z</time>
      </trkpt>
      <trkpt lat="44.98869" lon="5.41698">
        <ele>788</ele>
        <time>2019-06-15T10:43:13.100Z</time>
      </trkpt>
      <trkpt lat="44.98867" lon="5.41698">
        <ele>787</ele>
        <time>2019-06-15T10:43:14.100Z</time>
      </trkpt>
      <trkpt lat="44.98866" lon="5.41699">
        <ele>787</ele>
        <time>2019-06-15T10:43:15.100Z</time>
      </trkpt>
      <trkpt lat="44.98864" lon="5.41699">
        <ele>786</ele>
        <time>2019-06-15T10:43:16.100Z</time>
      </trkpt>
      <trkpt lat="44.98862" lon="5.41699">
        <ele>785</ele>
        <time>2019-06-15T10:43:17.100Z</time>
      </trkpt>
      <trkpt lat="44.9886" lon="5.417">
        <ele>786</ele>
        <time>2019-06-15T10:43:18.100Z</time>
      </trkpt>
      <trkpt lat="44.98858" lon="5.417">
        <ele>789</ele>
        <time>2019-06-15T10:43:19.100Z</time>
      </trkpt>
      <trkpt lat="44.98856" lon="5.41701">
        <ele>789</ele>
        <time>2019-06-15T10:43:20.100Z</time>
      </trkpt>
      <trkpt lat="44.98853" lon="5.41701">
        <ele>790</ele>
        <time>2019-06-15T10:43:21.100Z</time>
      </trkpt>
      <trkpt lat="44.98851" lon="5.41702">
        <ele>791</ele>
        <time>2019-06-15T10:43:22.100Z</time>
      </trkpt>
      <trkpt lat="44.98849" lon="5.41702">
        <ele>792</ele>
        <time>2019-06-15T10:43:23.100Z</time>
      </trkpt>
      <trkpt lat="44.98846" lon="5.41702">
        <ele>793</ele>
        <time>2019-06-15T10:43:24.100Z</time>
      </trkpt>
      <trkpt lat="44.98844" lon="5.41702">
        <ele>794</ele>
        <time>2019-06-15T10:43:25.100Z</time>
      </trkpt>
      <trkpt lat="44.98842" lon="5.41703">
        <ele>795</ele>
        <time>2019-06-15T10:43:26.100Z</time>
      </trkpt>
      <trkpt lat="44.9884" lon="5.41703">
        <ele>795</ele>
        <time>2019-06-15T10:43:27.100Z</time>
      </trkpt>
      <trkpt lat="44.98838" lon="5.41703">
        <ele>796</ele>
        <time>2019-06-15T10:43:28.100Z</time>
      </trkpt>
      <trkpt lat="44.98836" lon="5.41702">
        <ele>796</ele>
        <time>2019-06-15T10:43:29.100Z</time>
      </trkpt>
      <trkpt lat="44.98834" lon="5.41702">
        <ele>796</ele>
        <time>2019-06-15T10:43:30.100Z</time>
      </trkpt>
      <trkpt lat="44.98831" lon="5.41702">
        <ele>796</ele>
        <time>2019-06-15T10:43:31.100Z</time>
      </trkpt>
      <trkpt lat="44.98829" lon="5.41702">
        <ele>797</ele>
        <time>2019-06-15T10:43:32.100Z</time>
      </trkpt>
      <trkpt lat="44.98827" lon="5.41701">
        <ele>797</ele>
        <time>2019-06-15T10:43:33.100Z</time>
      </trkpt>
      <trkpt lat="44.98825" lon="5.41701">
        <ele>797</ele>
        <time>2019-06-15T10:43:34.100Z</time>
      </trkpt>
      <trkpt lat="44.98823" lon="5.41701">
        <ele>798</ele>
        <time>2019-06-15T10:43:35.100Z</time>
      </trkpt>
      <trkpt lat="44.98821" lon="5.41701">
        <ele>798</ele>
        <time>2019-06-15T10:43:36.100Z</time>
      </trkpt>
      <trkpt lat="44.98819" lon="5.41702">
        <ele>798</ele>
        <time>2019-06-15T10:43:37.100Z</time>
      </trkpt>
      <trkpt lat="44.98817" lon="5.41702">
        <ele>799</ele>
        <time>2019-06-15T10:43:38.100Z</time>
      </trkpt>
      <trkpt lat="44.98815" lon="5.41703">
        <ele>799</ele>
        <time>2019-06-15T10:43:39.100Z</time>
      </trkpt>
      <trkpt lat="44.98813" lon="5.41703">
        <ele>799</ele>
        <time>2019-06-15T10:43:40.100Z</time>
      </trkpt>
      <trkpt lat="44.98811" lon="5.41704">
        <ele>799</ele>
        <time>2019-06-15T10:43:41.100Z</time>
      </trkpt>
      <trkpt lat="44.98809" lon="5.41705">
        <ele>799</ele>
        <time>2019-06-15T10:43:42.100Z</time>
      </trkpt>
      <trkpt lat="44.98807" lon="5.41707">
        <ele>799</ele>
        <time>2019-06-15T10:43:43.100Z</time>
      </trkpt>
      <trkpt lat="44.98805" lon="5.41709">
        <ele>799</ele>
        <time>2019-06-15T10:43:44.100Z</time>
      </trkpt>
      <trkpt lat="44.98804" lon="5.41711">
        <ele>799</ele>
        <time>2019-06-15T10:43:45.100Z</time>
      </trkpt>
      <trkpt lat="44.98802" lon="5.41713">
        <ele>799</ele>
        <time>2019-06-15T10:43:46.100Z</time>
      </trkpt>
      <trkpt lat="44.988" lon="5.41716">
        <ele>798</ele>
        <time>2019-06-15T10:43:47.100Z</time>
      </trkpt>
      <trkpt lat="44.98799" lon="5.41719">
        <ele>798</ele>
        <time>2019-06-15T10:43:48.100Z</time>
      </trkpt>
      <trkpt lat="44.98797" lon="5.41722">
        <ele>798</ele>
        <time>2019-06-15T10:43:49.100Z</time>
      </trkpt>
      <trkpt lat="44.98796" lon="5.41725">
        <ele>798</ele>
        <time>2019-06-15T10:43:50.100Z</time>
      </trkpt>
      <trkpt lat="44.98794" lon="5.41729">
        <ele>798</ele>
        <time>2019-06-15T10:43:51.100Z</time>
      </trkpt>
      <trkpt lat="44.98792" lon="5.41733">
        <ele>798</ele>
        <time>2019-06-15T10:43:52.100Z</time>
      </trkpt>
      <trkpt lat="44.98791" lon="5.41737">
        <ele>797</ele>
        <time>2019-06-15T10:43:53.100Z</time>
      </trkpt>
      <trkpt lat="44.98788" lon="5.4174">
        <ele>797</ele>
        <time>2019-06-15T10:43:54.100Z</time>
      </trkpt>
      <trkpt lat="44.98786" lon="5.41744">
        <ele>797</ele>
        <time>2019-06-15T10:43:55.100Z</time>
      </trkpt>
      <trkpt lat="44.98784" lon="5.41747">
        <ele>797</ele>
        <time>2019-06-15T10:43:56.100Z</time>
      </trkpt>
      <trkpt lat="44.98782" lon="5.4175">
        <ele>797</ele>
        <time>2019-06-15T10:43:57.100Z</time>
      </trkpt>
      <trkpt lat="44.9878" lon="5.41753">
        <ele>796</ele>
        <time>2019-06-15T10:43:58.100Z</time>
      </trkpt>
      <trkpt lat="44.98778" lon="5.41756">
        <ele>796</ele>
        <time>2019-06-15T10:43:59.100Z</time>
      </trkpt>
      <trkpt lat="44.98775" lon="5.41759">
        <ele>796</ele>
        <time>2019-06-15T10:44:00.100Z</time>
      </trkpt>
      <trkpt lat="44.98773" lon="5.41762">
        <ele>796</ele>
        <time>2019-06-15T10:44:01.100Z</time>
      </trkpt>
      <trkpt lat="44.98771" lon="5.41765">
        <ele>796</ele>
        <time>2019-06-15T10:44:02.100Z</time>
      </trkpt>
      <trkpt lat="44.98768" lon="5.41767">
        <ele>796</ele>
        <time>2019-06-15T10:44:03.100Z</time>
      </trkpt>
      <trkpt lat="44.98766" lon="5.41769">
        <ele>796</ele>
        <time>2019-06-15T10:44:04.100Z</time>
      </trkpt>
      <trkpt lat="44.98764" lon="5.41772">
        <ele>796</ele>
        <time>2019-06-15T10:44:05.100Z</time>
      </trkpt>
      <trkpt lat="44.98762" lon="5.41774">
        <ele>796</ele>
        <time>2019-06-15T10:44:06.100Z</time>
      </trkpt>
      <trkpt lat="44.98759" lon="5.41775">
        <ele>796</ele>
        <time>2019-06-15T10:44:07.100Z</time>
      </trkpt>
      <trkpt lat="44.98756" lon="5.41777">
        <ele>795</ele>
        <time>2019-06-15T10:44:08.100Z</time>
      </trkpt>
      <trkpt lat="44.98754" lon="5.41778">
        <ele>796</ele>
        <time>2019-06-15T10:44:09.100Z</time>
      </trkpt>
      <trkpt lat="44.98751" lon="5.4178">
        <ele>796</ele>
        <time>2019-06-15T10:44:10.100Z</time>
      </trkpt>
      <trkpt lat="44.98748" lon="5.41781">
        <ele>796</ele>
        <time>2019-06-15T10:44:11.100Z</time>
      </trkpt>
      <trkpt lat="44.98745" lon="5.41782">
        <ele>796</ele>
        <time>2019-06-15T10:44:12.100Z</time>
      </trkpt>
      <trkpt lat="44.98742" lon="5.41783">
        <ele>796</ele>
        <time>2019-06-15T10:44:13.100Z</time>
      </trkpt>
      <trkpt lat="44.98739" lon="5.41784">
        <ele>797</ele>
        <time>2019-06-15T10:44:14.100Z</time>
      </trkpt>
      <trkpt lat="44.98736" lon="5.41786">
        <ele>797</ele>
        <time>2019-06-15T10:44:15.100Z</time>
      </trkpt>
      <trkpt lat="44.98734" lon="5.41787">
        <ele>797</ele>
        <time>2019-06-15T10:44:16.100Z</time>
      </trkpt>
      <trkpt lat="44.98732" lon="5.41788">
        <ele>797</ele>
        <time>2019-06-15T10:44:17.100Z</time>
      </trkpt>
      <trkpt lat="44.98729" lon="5.41789">
        <ele>798</ele>
        <time>2019-06-15T10:44:18.100Z</time>
      </trkpt>
      <trkpt lat="44.98727" lon="5.4179">
        <ele>798</ele>
        <time>2019-06-15T10:44:19.100Z</time>
      </trkpt>
      <trkpt lat="44.98724" lon="5.41791">
        <ele>798</ele>
        <time>2019-06-15T10:44:20.100Z</time>
      </trkpt>
      <trkpt lat="44.98722" lon="5.41791">
        <ele>797</ele>
        <time>2019-06-15T10:44:21.100Z</time>
      </trkpt>
      <trkpt lat="44.9872" lon="5.41791">
        <ele>797</ele>
        <time>2019-06-15T10:44:22.100Z</time>
      </trkpt>
      <trkpt lat="44.98718" lon="5.41791">
        <ele>797</ele>
        <time>2019-06-15T10:44:23.100Z</time>
      </trkpt>
      <trkpt lat="44.98716" lon="5.41793">
        <ele>797</ele>
        <time>2019-06-15T10:44:24.100Z</time>
      </trkpt>
      <trkpt lat="44.98714" lon="5.41794">
        <ele>797</ele>
        <time>2019-06-15T10:44:25.100Z</time>
      </trkpt>
      <trkpt lat="44.98712" lon="5.41797">
        <ele>797</ele>
        <time>2019-06-15T10:44:26.100Z</time>
      </trkpt>
      <trkpt lat="44.98711" lon="5.418">
        <ele>798</ele>
        <time>2019-06-15T10:44:27.100Z</time>
      </trkpt>
      <trkpt lat="44.98708" lon="5.41803">
        <ele>798</ele>
        <time>2019-06-15T10:44:28.100Z</time>
      </trkpt>
      <trkpt lat="44.98707" lon="5.41806">
        <ele>798</ele>
        <time>2019-06-15T10:44:29.100Z</time>
      </trkpt>
      <trkpt lat="44.98705" lon="5.41809">
        <ele>799</ele>
        <time>2019-06-15T10:44:30.100Z</time>
      </trkpt>
      <trkpt lat="44.98703" lon="5.41811">
        <ele>799</ele>
        <time>2019-06-15T10:44:31.100Z</time>
      </trkpt>
      <trkpt lat="44.98701" lon="5.41814">
        <ele>799</ele>
        <time>2019-06-15T10:44:32.100Z</time>
      </trkpt>
      <trkpt lat="44.98699" lon="5.41816">
        <ele>800</ele>
        <time>2019-06-15T10:44:33.100Z</time>
      </trkpt>
      <trkpt lat="44.98697" lon="5.41819">
        <ele>800</ele>
        <time>2019-06-15T10:44:34.100Z</time>
      </trkpt>
      <trkpt lat="44.98696" lon="5.41822">
        <ele>801</ele>
        <time>2019-06-15T10:44:35.100Z</time>
      </trkpt>
      <trkpt lat="44.98694" lon="5.41825">
        <ele>802</ele>
        <time>2019-06-15T10:44:36.100Z</time>
      </trkpt>
      <trkpt lat="44.98693" lon="5.41829">
        <ele>803</ele>
        <time>2019-06-15T10:44:37.100Z</time>
      </trkpt>
      <trkpt lat="44.98691" lon="5.41832">
        <ele>804</ele>
        <time>2019-06-15T10:44:38.100Z</time>
      </trkpt>
      <trkpt lat="44.9869" lon="5.41836">
        <ele>806</ele>
        <time>2019-06-15T10:44:39.100Z</time>
      </trkpt>
      <trkpt lat="44.9869" lon="5.41839">
        <ele>806</ele>
        <time>2019-06-15T10:44:40.100Z</time>
      </trkpt>
      <trkpt lat="44.9869" lon="5.41843">
        <ele>806</ele>
        <time>2019-06-15T10:44:41.100Z</time>
      </trkpt>
      <trkpt lat="44.98691" lon="5.41846">
        <ele>808</ele>
        <time>2019-06-15T10:44:42.100Z</time>
      </trkpt>
      <trkpt lat="44.98692" lon="5.4185">
        <ele>810</ele>
        <time>2019-06-15T10:44:43.100Z</time>
      </trkpt>
      <trkpt lat="44.98693" lon="5.41853">
        <ele>811</ele>
        <time>2019-06-15T10:44:44.100Z</time>
      </trkpt>
      <trkpt lat="44.98694" lon="5.41856">
        <ele>812</ele>
        <time>2019-06-15T10:44:45.100Z</time>
      </trkpt>
      <trkpt lat="44.98695" lon="5.41858">
        <ele>812</ele>
        <time>2019-06-15T10:44:46.100Z</time>
      </trkpt>
      <trkpt lat="44.98697" lon="5.4186">
        <ele>812</ele>
        <time>2019-06-15T10:44:47.100Z</time>
      </trkpt>
      <trkpt lat="44.98698" lon="5.41862">
        <ele>814</ele>
        <time>2019-06-15T10:44:48.100Z</time>
      </trkpt>
      <trkpt lat="44.987" lon="5.41864">
        <ele>816</ele>
        <time>2019-06-15T10:44:49.100Z</time>
      </trkpt>
      <trkpt lat="44.98701" lon="5.41866">
        <ele>818</ele>
        <time>2019-06-15T10:44:50.100Z</time>
      </trkpt>
      <trkpt lat="44.98702" lon="5.41868">
        <ele>820</ele>
        <time>2019-06-15T10:44:51.100Z</time>
      </trkpt>
      <trkpt lat="44.98704" lon="5.41869">
        <ele>820</ele>
        <time>2019-06-15T10:44:52.100Z</time>
      </trkpt>
      <trkpt lat="44.98707" lon="5.41871">
        <ele>822</ele>
        <time>2019-06-15T10:44:53.100Z</time>
      </trkpt>
      <trkpt lat="44.98709" lon="5.41873">
        <ele>822</ele>
        <time>2019-06-15T10:44:54.100Z</time>
      </trkpt>
      <trkpt lat="44.98712" lon="5.41876">
        <ele>821</ele>
        <time>2019-06-15T10:44:55.100Z</time>
      </trkpt>
      <trkpt lat="44.98714" lon="5.41877">
        <ele>822</ele>
        <time>2019-06-15T10:44:56.100Z</time>
      </trkpt>
      <trkpt lat="44.98716" lon="5.41878">
        <ele>822</ele>
        <time>2019-06-15T10:44:57.100Z</time>
      </trkpt>
      <trkpt lat="44.98718" lon="5.4188">
        <ele>822</ele>
        <time>2019-06-15T10:44:58.100Z</time>
      </trkpt>
      <trkpt lat="44.98719" lon="5.41881">
        <ele>822</ele>
        <time>2019-06-15T10:44:59.100Z</time>
      </trkpt>
      <trkpt lat="44.98721" lon="5.41882">
        <ele>821</ele>
        <time>2019-06-15T10:45:00.100Z</time>
      </trkpt>
      <trkpt lat="44.98723" lon="5.41884">
        <ele>820</ele>
        <time>2019-06-15T10:45:01.100Z</time>
      </trkpt>
      <trkpt lat="44.98726" lon="5.41887">
        <ele>819</ele>
        <time>2019-06-15T10:45:02.100Z</time>
      </trkpt>
      <trkpt lat="44.98728" lon="5.4189">
        <ele>818</ele>
        <time>2019-06-15T10:45:03.100Z</time>
      </trkpt>
      <trkpt lat="44.98729" lon="5.41893">
        <ele>817</ele>
        <time>2019-06-15T10:45:04.100Z</time>
      </trkpt>
      <trkpt lat="44.9873" lon="5.41896">
        <ele>817</ele>
        <time>2019-06-15T10:45:05.100Z</time>
      </trkpt>
      <trkpt lat="44.98732" lon="5.419">
        <ele>816</ele>
        <time>2019-06-15T10:45:06.100Z</time>
      </trkpt>
      <trkpt lat="44.98733" lon="5.41902">
        <ele>815</ele>
        <time>2019-06-15T10:45:07.100Z</time>
      </trkpt>
      <trkpt lat="44.98734" lon="5.41905">
        <ele>814</ele>
        <time>2019-06-15T10:45:08.100Z</time>
      </trkpt>
      <trkpt lat="44.98734" lon="5.41907">
        <ele>814</ele>
        <time>2019-06-15T10:45:09.100Z</time>
      </trkpt>
      <trkpt lat="44.98735" lon="5.41909">
        <ele>814</ele>
        <time>2019-06-15T10:45:10.100Z</time>
      </trkpt>
      <trkpt lat="44.98736" lon="5.41912">
        <ele>814</ele>
        <time>2019-06-15T10:45:11.100Z</time>
      </trkpt>
      <trkpt lat="44.98736" lon="5.41914">
        <ele>814</ele>
        <time>2019-06-15T10:45:12.100Z</time>
      </trkpt>
      <trkpt lat="44.98737" lon="5.41916">
        <ele>813</ele>
        <time>2019-06-15T10:45:13.100Z</time>
      </trkpt>
      <trkpt lat="44.98739" lon="5.41918">
        <ele>814</ele>
        <time>2019-06-15T10:45:14.100Z</time>
      </trkpt>
      <trkpt lat="44.9874" lon="5.41921">
        <ele>814</ele>
        <time>2019-06-15T10:45:15.100Z</time>
      </trkpt>
      <trkpt lat="44.98742" lon="5.41923">
        <ele>816</ele>
        <time>2019-06-15T10:45:16.100Z</time>
      </trkpt>
      <trkpt lat="44.98744" lon="5.41927">
        <ele>815</ele>
        <time>2019-06-15T10:45:17.100Z</time>
      </trkpt>
      <trkpt lat="44.98746" lon="5.4193">
        <ele>815</ele>
        <time>2019-06-15T10:45:18.100Z</time>
      </trkpt>
      <trkpt lat="44.98749" lon="5.41933">
        <ele>815</ele>
        <time>2019-06-15T10:45:19.100Z</time>
      </trkpt>
      <trkpt lat="44.9875" lon="5.41935">
        <ele>815</ele>
        <time>2019-06-15T10:45:20.100Z</time>
      </trkpt>
      <trkpt lat="44.98752" lon="5.41938">
        <ele>816</ele>
        <time>2019-06-15T10:45:21.100Z</time>
      </trkpt>
      <trkpt lat="44.98754" lon="5.4194">
        <ele>816</ele>
        <time>2019-06-15T10:45:22.100Z</time>
      </trkpt>
      <trkpt lat="44.98755" lon="5.41942">
        <ele>816</ele>
        <time>2019-06-15T10:45:23.100Z</time>
      </trkpt>
      <trkpt lat="44.98757" lon="5.41944">
        <ele>817</ele>
        <time>2019-06-15T10:45:24.100Z</time>
      </trkpt>
      <trkpt lat="44.98758" lon="5.41946">
        <ele>818</ele>
        <time>2019-06-15T10:45:25.100Z</time>
      </trkpt>
      <trkpt lat="44.9876" lon="5.41948">
        <ele>818</ele>
        <time>2019-06-15T10:45:26.100Z</time>
      </trkpt>
      <trkpt lat="44.98762" lon="5.41951">
        <ele>818</ele>
        <time>2019-06-15T10:45:27.100Z</time>
      </trkpt>
      <trkpt lat="44.98764" lon="5.41953">
        <ele>820</ele>
        <time>2019-06-15T10:45:28.100Z</time>
      </trkpt>
      <trkpt lat="44.98765" lon="5.41955">
        <ele>821</ele>
        <time>2019-06-15T10:45:29.100Z</time>
      </trkpt>
      <trkpt lat="44.98767" lon="5.41957">
        <ele>822</ele>
        <time>2019-06-15T10:45:30.100Z</time>
      </trkpt>
      <trkpt lat="44.98769" lon="5.4196">
        <ele>821</ele>
        <time>2019-06-15T10:45:31.100Z</time>
      </trkpt>
      <trkpt lat="44.9877" lon="5.41964">
        <ele>821</ele>
        <time>2019-06-15T10:45:32.100Z</time>
      </trkpt>
      <trkpt lat="44.98771" lon="5.41967">
        <ele>820</ele>
        <time>2019-06-15T10:45:33.100Z</time>
      </trkpt>
      <trkpt lat="44.98773" lon="5.4197">
        <ele>818</ele>
        <time>2019-06-15T10:45:34.100Z</time>
      </trkpt>
      <trkpt lat="44.98774" lon="5.41974">
        <ele>818</ele>
        <time>2019-06-15T10:45:35.100Z</time>
      </trkpt>
      <trkpt lat="44.98775" lon="5.41978">
        <ele>817</ele>
        <time>2019-06-15T10:45:36.100Z</time>
      </trkpt>
      <trkpt lat="44.98776" lon="5.41981">
        <ele>815</ele>
        <time>2019-06-15T10:45:37.100Z</time>
      </trkpt>
      <trkpt lat="44.98776" lon="5.41985">
        <ele>814</ele>
        <time>2019-06-15T10:45:38.100Z</time>
      </trkpt>
      <trkpt lat="44.98777" lon="5.41989">
        <ele>815</ele>
        <time>2019-06-15T10:45:39.100Z</time>
      </trkpt>
      <trkpt lat="44.98777" lon="5.41992">
        <ele>816</ele>
        <time>2019-06-15T10:45:40.100Z</time>
      </trkpt>
      <trkpt lat="44.98777" lon="5.41996">
        <ele>816</ele>
        <time>2019-06-15T10:45:41.100Z</time>
      </trkpt>
      <trkpt lat="44.98778" lon="5.41999">
        <ele>816</ele>
        <time>2019-06-15T10:45:42.100Z</time>
      </trkpt>
      <trkpt lat="44.98778" lon="5.42001">
        <ele>816</ele>
        <time>2019-06-15T10:45:43.100Z</time>
      </trkpt>
      <trkpt lat="44.98778" lon="5.42005">
        <ele>816</ele>
        <time>2019-06-15T10:45:44.100Z</time>
      </trkpt>
      <trkpt lat="44.98779" lon="5.42008">
        <ele>815</ele>
        <time>2019-06-15T10:45:45.100Z</time>
      </trkpt>
      <trkpt lat="44.98779" lon="5.42011">
        <ele>815</ele>
        <time>2019-06-15T10:45:46.100Z</time>
      </trkpt>
      <trkpt lat="44.98779" lon="5.42014">
        <ele>815</ele>
        <time>2019-06-15T10:45:47.100Z</time>
      </trkpt>
      <trkpt lat="44.9878" lon="5.42017">
        <ele>815</ele>
        <time>2019-06-15T10:45:48.100Z</time>
      </trkpt>
      <trkpt lat="44.9878" lon="5.4202">
        <ele>816</ele>
        <time>2019-06-15T10:45:49.100Z</time>
      </trkpt>
      <trkpt lat="44.9878" lon="5.42022">
        <ele>815</ele>
        <time>2019-06-15T10:45:50.100Z</time>
      </trkpt>
      <trkpt lat="44.98781" lon="5.42025">
        <ele>815</ele>
        <time>2019-06-15T10:45:51.100Z</time>
      </trkpt>
      <trkpt lat="44.98781" lon="5.42028">
        <ele>815</ele>
        <time>2019-06-15T10:45:52.100Z</time>
      </trkpt>
      <trkpt lat="44.98782" lon="5.4203">
        <ele>815</ele>
        <time>2019-06-15T10:45:53.100Z</time>
      </trkpt>
      <trkpt lat="44.98783" lon="5.42033">
        <ele>815</ele>
        <time>2019-06-15T10:45:54.100Z</time>
      </trkpt>
      <trkpt lat="44.98783" lon="5.42036">
        <ele>814</ele>
        <time>2019-06-15T10:45:55.100Z</time>
      </trkpt>
      <trkpt lat="44.98784" lon="5.42039">
        <ele>814</ele>
        <time>2019-06-15T10:45:56.100Z</time>
      </trkpt>
      <trkpt lat="44.98785" lon="5.42042">
        <ele>814</ele>
        <time>2019-06-15T10:45:57.100Z</time>
      </trkpt>
      <trkpt lat="44.98786" lon="5.42044">
        <ele>813</ele>
        <time>2019-06-15T10:45:58.100Z</time>
      </trkpt>
      <trkpt lat="44.98787" lon="5.42046">
        <ele>814</ele>
        <time>2019-06-15T10:45:59.100Z</time>
      </trkpt>
      <trkpt lat="44.98789" lon="5.42048">
        <ele>814</ele>
        <time>2019-06-15T10:46:00.100Z</time>
      </trkpt>
      <trkpt lat="44.9879" lon="5.42051">
        <ele>814</ele>
        <time>2019-06-15T10:46:01.100Z</time>
      </trkpt>
      <trkpt lat="44.98791" lon="5.42053">
        <ele>813</ele>
        <time>2019-06-15T10:46:02.100Z</time>
      </trkpt>
      <trkpt lat="44.98792" lon="5.42055">
        <ele>813</ele>
        <time>2019-06-15T10:46:03.100Z</time>
      </trkpt>
      <trkpt lat="44.98794" lon="5.42058">
        <ele>813</ele>
        <time>2019-06-15T10:46:04.100Z</time>
      </trkpt>
      <trkpt lat="44.98795" lon="5.4206">
        <ele>813</ele>
        <time>2019-06-15T10:46:05.100Z</time>
      </trkpt>
      <trkpt lat="44.98796" lon="5.42063">
        <ele>812</ele>
        <time>2019-06-15T10:46:06.100Z</time>
      </trkpt>
      <trkpt lat="44.98797" lon="5.42065">
        <ele>812</ele>
        <time>2019-06-15T10:46:07.100Z</time>
      </trkpt>
      <trkpt lat="44.98798" lon="5.42067">
        <ele>813</ele>
        <time>2019-06-15T10:46:08.100Z</time>
      </trkpt>
      <trkpt lat="44.988" lon="5.42069">
        <ele>814</ele>
        <time>2019-06-15T10:46:09.100Z</time>
      </trkpt>
      <trkpt lat="44.98802" lon="5.42071">
        <ele>814</ele>
        <time>2019-06-15T10:46:10.100Z</time>
      </trkpt>
      <trkpt lat="44.98803" lon="5.42073">
        <ele>814</ele>
        <time>2019-06-15T10:46:11.100Z</time>
      </trkpt>
      <trkpt lat="44.98805" lon="5.42075">
        <ele>814</ele>
        <time>2019-06-15T10:46:12.100Z</time>
      </trkpt>
      <trkpt lat="44.98807" lon="5.42077">
        <ele>814</ele>
        <time>2019-06-15T10:46:13.100Z</time>
      </trkpt>
      <trkpt lat="44.98809" lon="5.4208">
        <ele>814</ele>
        <time>2019-06-15T10:46:14.100Z</time>
      </trkpt>
      <trkpt lat="44.98811" lon="5.42083">
        <ele>815</ele>
        <time>2019-06-15T10:46:15.100Z</time>
      </trkpt>
      <trkpt lat="44.98813" lon="5.42085">
        <ele>815</ele>
        <time>2019-06-15T10:46:16.100Z</time>
      </trkpt>
      <trkpt lat="44.98815" lon="5.42088">
        <ele>815</ele>
        <time>2019-06-15T10:46:17.100Z</time>
      </trkpt>
      <trkpt lat="44.98816" lon="5.4209">
        <ele>815</ele>
        <time>2019-06-15T10:46:18.100Z</time>
      </trkpt>
      <trkpt lat="44.98818" lon="5.42092">
        <ele>816</ele>
        <time>2019-06-15T10:46:19.100Z</time>
      </trkpt>
      <trkpt lat="44.9882" lon="5.42094">
        <ele>817</ele>
        <time>2019-06-15T10:46:20.100Z</time>
      </trkpt>
      <trkpt lat="44.98822" lon="5.42096">
        <ele>817</ele>
        <time>2019-06-15T10:46:21.100Z</time>
      </trkpt>
      <trkpt lat="44.98823" lon="5.42099">
        <ele>818</ele>
        <time>2019-06-15T10:46:22.100Z</time>
      </trkpt>
      <trkpt lat="44.98825" lon="5.42101">
        <ele>818</ele>
        <time>2019-06-15T10:46:23.100Z</time>
      </trkpt>
      <trkpt lat="44.98827" lon="5.42102">
        <ele>819</ele>
        <time>2019-06-15T10:46:24.100Z</time>
      </trkpt>
      <trkpt lat="44.98829" lon="5.42104">
        <ele>820</ele>
        <time>2019-06-15T10:46:25.100Z</time>
      </trkpt>
      <trkpt lat="44.98831" lon="5.42106">
        <ele>820</ele>
        <time>2019-06-15T10:46:26.100Z</time>
      </trkpt>
      <trkpt lat="44.98833" lon="5.42107">
        <ele>820</ele>
        <time>2019-06-15T10:46:27.100Z</time>
      </trkpt>
      <trkpt lat="44.98835" lon="5.42109">
        <ele>821</ele>
        <time>2019-06-15T10:46:28.100Z</time>
      </trkpt>
      <trkpt lat="44.98837" lon="5.42111">
        <ele>821</ele>
        <time>2019-06-15T10:46:29.100Z</time>
      </trkpt>
      <trkpt lat="44.98838" lon="5.42113">
        <ele>821</ele>
        <time>2019-06-15T10:46:30.100Z</time>
      </trkpt>
      <trkpt lat="44.98839" lon="5.42116">
        <ele>820</ele>
        <time>2019-06-15T10:46:31.100Z</time>
      </trkpt>
      <trkpt lat="44.9884" lon="5.42118">
        <ele>820</ele>
        <time>2019-06-15T10:46:32.100Z</time>
      </trkpt>
      <trkpt lat="44.98841" lon="5.42121">
        <ele>819</ele>
        <time>2019-06-15T10:46:33.100Z</time>
      </trkpt>
      <trkpt lat="44.98841" lon="5.42125">
        <ele>818</ele>
        <time>2019-06-15T10:46:34.100Z</time>
      </trkpt>
      <trkpt lat="44.9884" lon="5.42128">
        <ele>817</ele>
        <time>2019-06-15T10:46:35.100Z</time>
      </trkpt>
      <trkpt lat="44.9884" lon="5.4213">
        <ele>816</ele>
        <time>2019-06-15T10:46:36.100Z</time>
      </trkpt>
      <trkpt lat="44.9884" lon="5.42133">
        <ele>816</ele>
        <time>2019-06-15T10:46:37.100Z</time>
      </trkpt>
      <trkpt lat="44.98839" lon="5.42136">
        <ele>817</ele>
        <time>2019-06-15T10:46:38.100Z</time>
      </trkpt>
      <trkpt lat="44.98838" lon="5.42138">
        <ele>816</ele>
        <time>2019-06-15T10:46:39.100Z</time>
      </trkpt>
      <trkpt lat="44.98838" lon="5.42141">
        <ele>816</ele>
        <time>2019-06-15T10:46:40.100Z</time>
      </trkpt>
      <trkpt lat="44.98837" lon="5.42143">
        <ele>816</ele>
        <time>2019-06-15T10:46:41.100Z</time>
      </trkpt>
      <trkpt lat="44.98835" lon="5.42144">
        <ele>815</ele>
        <time>2019-06-15T10:46:42.100Z</time>
      </trkpt>
      <trkpt lat="44.98834" lon="5.42146">
        <ele>815</ele>
        <time>2019-06-15T10:46:43.100Z</time>
      </trkpt>
      <trkpt lat="44.98832" lon="5.42147">
        <ele>814</ele>
        <time>2019-06-15T10:46:44.100Z</time>
      </trkpt>
      <trkpt lat="44.9883" lon="5.42148">
        <ele>814</ele>
        <time>2019-06-15T10:46:45.100Z</time>
      </trkpt>
      <trkpt lat="44.98829" lon="5.42149">
        <ele>814</ele>
        <time>2019-06-15T10:46:46.100Z</time>
      </trkpt>
      <trkpt lat="44.98827" lon="5.42151">
        <ele>813</ele>
        <time>2019-06-15T10:46:47.100Z</time>
      </trkpt>
      <trkpt lat="44.98825" lon="5.42152">
        <ele>812</ele>
        <time>2019-06-15T10:46:48.100Z</time>
      </trkpt>
      <trkpt lat="44.98823" lon="5.42152">
        <ele>811</ele>
        <time>2019-06-15T10:46:49.100Z</time>
      </trkpt>
      <trkpt lat="44.98821" lon="5.42153">
        <ele>811</ele>
        <time>2019-06-15T10:46:50.100Z</time>
      </trkpt>
      <trkpt lat="44.98819" lon="5.42154">
        <ele>810</ele>
        <time>2019-06-15T10:46:51.100Z</time>
      </trkpt>
      <trkpt lat="44.98817" lon="5.42154">
        <ele>811</ele>
        <time>2019-06-15T10:46:52.100Z</time>
      </trkpt>
      <trkpt lat="44.98815" lon="5.42154">
        <ele>810</ele>
        <time>2019-06-15T10:46:53.100Z</time>
      </trkpt>
      <trkpt lat="44.98814" lon="5.42154">
        <ele>810</ele>
        <time>2019-06-15T10:46:54.100Z</time>
      </trkpt>
      <trkpt lat="44.98812" lon="5.42154">
        <ele>810</ele>
        <time>2019-06-15T10:46:55.100Z</time>
      </trkpt>
      <trkpt lat="44.9881" lon="5.42153">
        <ele>809</ele>
        <time>2019-06-15T10:46:56.100Z</time>
      </trkpt>
      <trkpt lat="44.98808" lon="5.42152">
        <ele>809</ele>
        <time>2019-06-15T10:46:57.100Z</time>
      </trkpt>
      <trkpt lat="44.98807" lon="5.42151">
        <ele>808</ele>
        <time>2019-06-15T10:46:58.100Z</time>
      </trkpt>
      <trkpt lat="44.98806" lon="5.42149">
        <ele>808</ele>
        <time>2019-06-15T10:46:59.100Z</time>
      </trkpt>
      <trkpt lat="44.98804" lon="5.42147">
        <ele>807</ele>
        <time>2019-06-15T10:47:00.100Z</time>
      </trkpt>
      <trkpt lat="44.98803" lon="5.42145">
        <ele>808</ele>
        <time>2019-06-15T10:47:01.100Z</time>
      </trkpt>
      <trkpt lat="44.98802" lon="5.42143">
        <ele>807</ele>
        <time>2019-06-15T10:47:02.100Z</time>
      </trkpt>
      <trkpt lat="44.98801" lon="5.42141">
        <ele>807</ele>
        <time>2019-06-15T10:47:03.100Z</time>
      </trkpt>
      <trkpt lat="44.988" lon="5.42139">
        <ele>808</ele>
        <time>2019-06-15T10:47:04.100Z</time>
      </trkpt>
      <trkpt lat="44.98799" lon="5.42137">
        <ele>809</ele>
        <time>2019-06-15T10:47:05.100Z</time>
      </trkpt>
      <trkpt lat="44.98798" lon="5.42135">
        <ele>810</ele>
        <time>2019-06-15T10:47:06.100Z</time>
      </trkpt>
      <trkpt lat="44.98797" lon="5.42133">
        <ele>810</ele>
        <time>2019-06-15T10:47:07.100Z</time>
      </trkpt>
      <trkpt lat="44.98796" lon="5.42131">
        <ele>810</ele>
        <time>2019-06-15T10:47:08.100Z</time>
      </trkpt>
      <trkpt lat="44.98795" lon="5.42129">
        <ele>812</ele>
        <time>2019-06-15T10:47:09.100Z</time>
      </trkpt>
      <trkpt lat="44.98794" lon="5.42128">
        <ele>812</ele>
        <time>2019-06-15T10:47:10.100Z</time>
      </trkpt>
      <trkpt lat="44.98793" lon="5.42127">
        <ele>812</ele>
        <time>2019-06-15T10:47:11.100Z</time>
      </trkpt>
      <trkpt lat="44.98793" lon="5.42125">
        <ele>813</ele>
        <time>2019-06-15T10:47:12.100Z</time>
      </trkpt>
      <trkpt lat="44.98792" lon="5.42124">
        <ele>814</ele>
        <time>2019-06-15T10:47:13.100Z</time>
      </trkpt>
      <trkpt lat="44.98792" lon="5.42124">
        <ele>815</ele>
        <time>2019-06-15T10:47:14.100Z</time>
      </trkpt>
      <trkpt lat="44.98791" lon="5.42123">
        <ele>815</ele>
        <time>2019-06-15T10:47:15.100Z</time>
      </trkpt>
      <trkpt lat="44.9879" lon="5.42122">
        <ele>816</ele>
        <time>2019-06-15T10:47:16.100Z</time>
      </trkpt>
      <trkpt lat="44.98789" lon="5.42121">
        <ele>816</ele>
        <time>2019-06-15T10:47:17.100Z</time>
      </trkpt>
      <trkpt lat="44.98788" lon="5.4212">
        <ele>817</ele>
        <time>2019-06-15T10:47:18.100Z</time>
      </trkpt>
      <trkpt lat="44.98787" lon="5.4212">
        <ele>817</ele>
        <time>2019-06-15T10:47:19.100Z</time>
      </trkpt>
      <trkpt lat="44.98786" lon="5.42119">
        <ele>817</ele>
        <time>2019-06-15T10:47:20.100Z</time>
      </trkpt>
      <trkpt lat="44.98785" lon="5.42119">
        <ele>817</ele>
        <time>2019-06-15T10:47:21.100Z</time>
      </trkpt>
      <trkpt lat="44.98784" lon="5.42118">
        <ele>818</ele>
        <time>2019-06-15T10:47:22.100Z</time>
      </trkpt>
      <trkpt lat="44.98783" lon="5.42118">
        <ele>818</ele>
        <time>2019-06-15T10:47:23.100Z</time>
      </trkpt>
      <trkpt lat="44.98782" lon="5.42118">
        <ele>819</ele>
        <time>2019-06-15T10:47:24.100Z</time>
      </trkpt>
      <trkpt lat="44.98781" lon="5.42118">
        <ele>819</ele>
        <time>2019-06-15T10:47:25.100Z</time>
      </trkpt>
      <trkpt lat="44.9878" lon="5.42118">
        <ele>819</ele>
        <time>2019-06-15T10:47:26.100Z</time>
      </trkpt>
      <trkpt lat="44.98779" lon="5.42117">
        <ele>820</ele>
        <time>2019-06-15T10:47:27.100Z</time>
      </trkpt>
      <trkpt lat="44.98777" lon="5.42117">
        <ele>821</ele>
        <time>2019-06-15T10:47:28.100Z</time>
      </trkpt>
      <trkpt lat="44.98776" lon="5.42116">
        <ele>822</ele>
        <time>2019-06-15T10:47:29.100Z</time>
      </trkpt>
      <trkpt lat="44.98775" lon="5.42116">
        <ele>822</ele>
        <time>2019-06-15T10:47:30.100Z</time>
      </trkpt>
      <trkpt lat="44.98774" lon="5.42116">
        <ele>822</ele>
        <time>2019-06-15T10:47:31.100Z</time>
      </trkpt>
      <trkpt lat="44.98772" lon="5.42116">
        <ele>822</ele>
        <time>2019-06-15T10:47:32.100Z</time>
      </trkpt>
      <trkpt lat="44.98771" lon="5.42116">
        <ele>823</ele>
        <time>2019-06-15T10:47:33.100Z</time>
      </trkpt>
      <trkpt lat="44.98769" lon="5.42116">
        <ele>823</ele>
        <time>2019-06-15T10:47:34.100Z</time>
      </trkpt>
      <trkpt lat="44.98768" lon="5.42115">
        <ele>823</ele>
        <time>2019-06-15T10:47:35.100Z</time>
      </trkpt>
      <trkpt lat="44.98766" lon="5.42115">
        <ele>824</ele>
        <time>2019-06-15T10:47:36.100Z</time>
      </trkpt>
      <trkpt lat="44.98764" lon="5.42115">
        <ele>824</ele>
        <time>2019-06-15T10:47:37.100Z</time>
      </trkpt>
      <trkpt lat="44.98763" lon="5.42115">
        <ele>824</ele>
        <time>2019-06-15T10:47:38.100Z</time>
      </trkpt>
      <trkpt lat="44.98762" lon="5.42114">
        <ele>824</ele>
        <time>2019-06-15T10:47:39.100Z</time>
      </trkpt>
      <trkpt lat="44.9876" lon="5.42114">
        <ele>825</ele>
        <time>2019-06-15T10:47:40.100Z</time>
      </trkpt>
      <trkpt lat="44.98759" lon="5.42113">
        <ele>825</ele>
        <time>2019-06-15T10:47:41.100Z</time>
      </trkpt>
      <trkpt lat="44.98758" lon="5.42113">
        <ele>825</ele>
        <time>2019-06-15T10:47:42.100Z</time>
      </trkpt>
      <trkpt lat="44.98757" lon="5.42112">
        <ele>826</ele>
        <time>2019-06-15T10:47:43.100Z</time>
      </trkpt>
      <trkpt lat="44.98756" lon="5.42111">
        <ele>825</ele>
        <time>2019-06-15T10:47:44.100Z</time>
      </trkpt>
      <trkpt lat="44.98754" lon="5.4211">
        <ele>825</ele>
        <time>2019-06-15T10:47:45.100Z</time>
      </trkpt>
      <trkpt lat="44.98753" lon="5.4211">
        <ele>824</ele>
        <time>2019-06-15T10:47:46.100Z</time>
      </trkpt>
      <trkpt lat="44.98752" lon="5.42109">
        <ele>824</ele>
        <time>2019-06-15T10:47:47.100Z</time>
      </trkpt>
      <trkpt lat="44.98751" lon="5.42107">
        <ele>823</ele>
        <time>2019-06-15T10:47:48.100Z</time>
      </trkpt>
      <trkpt lat="44.9875" lon="5.42106">
        <ele>823</ele>
        <time>2019-06-15T10:47:49.100Z</time>
      </trkpt>
      <trkpt lat="44.98749" lon="5.42104">
        <ele>822</ele>
        <time>2019-06-15T10:47:50.100Z</time>
      </trkpt>
      <trkpt lat="44.98748" lon="5.42103">
        <ele>822</ele>
        <time>2019-06-15T10:47:51.100Z</time>
      </trkpt>
      <trkpt lat="44.98747" lon="5.42102">
        <ele>821</ele>
        <time>2019-06-15T10:47:52.100Z</time>
      </trkpt>
      <trkpt lat="44.98746" lon="5.421">
        <ele>820</ele>
        <time>2019-06-15T10:47:53.100Z</time>
      </trkpt>
      <trkpt lat="44.98745" lon="5.42099">
        <ele>820</ele>
        <time>2019-06-15T10:47:54.100Z</time>
      </trkpt>
      <trkpt lat="44.98744" lon="5.42097">
        <ele>820</ele>
        <time>2019-06-15T10:47:55.100Z</time>
      </trkpt>
      <trkpt lat="44.98743" lon="5.42095">
        <ele>821</ele>
        <time>2019-06-15T10:47:56.100Z</time>
      </trkpt>
      <trkpt lat="44.98742" lon="5.42093">
        <ele>821</ele>
        <time>2019-06-15T10:47:57.100Z</time>
      </trkpt>
      <trkpt lat="44.98741" lon="5.42092">
        <ele>821</ele>
        <time>2019-06-15T10:47:58.100Z</time>
      </trkpt>
      <trkpt lat="44.98739" lon="5.42091">
        <ele>821</ele>
        <time>2019-06-15T10:47:59.100Z</time>
      </trkpt>
      <trkpt lat="44.98738" lon="5.4209">
        <ele>822</ele>
        <time>2019-06-15T10:48:00.100Z</time>
      </trkpt>
      <trkpt lat="44.98737" lon="5.42089">
        <ele>823</ele>
        <time>2019-06-15T10:48:01.100Z</time>
      </trkpt>
      <trkpt lat="44.98736" lon="5.42089">
        <ele>824</ele>
        <time>2019-06-15T10:48:02.100Z</time>
      </trkpt>
      <trkpt lat="44.98735" lon="5.42088">
        <ele>824</ele>
        <time>2019-06-15T10:48:03.100Z</time>
      </trkpt>
      <trkpt lat="44.98734" lon="5.42088">
        <ele>824</ele>
        <time>2019-06-15T10:48:04.100Z</time>
      </trkpt>
      <trkpt lat="44.98733" lon="5.42087">
        <ele>824</ele>
        <time>2019-06-15T10:48:05.100Z</time>
      </trkpt>
      <trkpt lat="44.98731" lon="5.42087">
        <ele>824</ele>
        <time>2019-06-15T10:48:06.100Z</time>
      </trkpt>
      <trkpt lat="44.9873" lon="5.42086">
        <ele>825</ele>
        <time>2019-06-15T10:48:07.100Z</time>
      </trkpt>
      <trkpt lat="44.98729" lon="5.42086">
        <ele>826</ele>
        <time>2019-06-15T10:48:08.100Z</time>
      </trkpt>
      <trkpt lat="44.98728" lon="5.42086">
        <ele>827</ele>
        <time>2019-06-15T10:48:09.100Z</time>
      </trkpt>
      <trkpt lat="44.98727" lon="5.42085">
        <ele>827</ele>
        <time>2019-06-15T10:48:10.100Z</time>
      </trkpt>
      <trkpt lat="44.98726" lon="5.42085">
        <ele>828</ele>
        <time>2019-06-15T10:48:11.100Z</time>
      </trkpt>
      <trkpt lat="44.98725" lon="5.42084">
        <ele>827</ele>
        <time>2019-06-15T10:48:12.100Z</time>
      </trkpt>
      <trkpt lat="44.98724" lon="5.42083">
        <ele>828</ele>
        <time>2019-06-15T10:48:13.100Z</time>
      </trkpt>
      <trkpt lat="44.98723" lon="5.42082">
        <ele>828</ele>
        <time>2019-06-15T10:48:14.100Z</time>
      </trkpt>
      <trkpt lat="44.98722" lon="5.42082">
        <ele>829</ele>
        <time>2019-06-15T10:48:15.100Z</time>
      </trkpt>
      <trkpt lat="44.98721" lon="5.42081">
        <ele>827</ele>
        <time>2019-06-15T10:48:16.100Z</time>
      </trkpt>
      <trkpt lat="44.98719" lon="5.4208">
        <ele>827</ele>
        <time>2019-06-15T10:48:17.100Z</time>
      </trkpt>
      <trkpt lat="44.98718" lon="5.42078">
        <ele>826</ele>
        <time>2019-06-15T10:48:18.100Z</time>
      </trkpt>
      <trkpt lat="44.98717" lon="5.42078">
        <ele>827</ele>
        <time>2019-06-15T10:48:19.100Z</time>
      </trkpt>
      <trkpt lat="44.98716" lon="5.42076">
        <ele>828</ele>
        <time>2019-06-15T10:48:20.100Z</time>
      </trkpt>
      <trkpt lat="44.98715" lon="5.42075">
        <ele>828</ele>
        <time>2019-06-15T10:48:21.100Z</time>
      </trkpt>
      <trkpt lat="44.98714" lon="5.42074">
        <ele>828</ele>
        <time>2019-06-15T10:48:22.100Z</time>
      </trkpt>
      <trkpt lat="44.98713" lon="5.42073">
        <ele>827</ele>
        <time>2019-06-15T10:48:23.100Z</time>
      </trkpt>
      <trkpt lat="44.98712" lon="5.42072">
        <ele>828</ele>
        <time>2019-06-15T10:48:24.100Z</time>
      </trkpt>
      <trkpt lat="44.98711" lon="5.4207">
        <ele>828</ele>
        <time>2019-06-15T10:48:25.100Z</time>
      </trkpt>
      <trkpt lat="44.9871" lon="5.42069">
        <ele>828</ele>
        <time>2019-06-15T10:48:26.100Z</time>
      </trkpt>
      <trkpt lat="44.98709" lon="5.42067">
        <ele>829</ele>
        <time>2019-06-15T10:48:27.100Z</time>
      </trkpt>
      <trkpt lat="44.98708" lon="5.42066">
        <ele>829</ele>
        <time>2019-06-15T10:48:28.100Z</time>
      </trkpt>
      <trkpt lat="44.98707" lon="5.42065">
        <ele>829</ele>
        <time>2019-06-15T10:48:29.100Z</time>
      </trkpt>
      <trkpt lat="44.98706" lon="5.42064">
        <ele>829</ele>
        <time>2019-06-15T10:48:30.100Z</time>
      </trkpt>
      <trkpt lat="44.98704" lon="5.42063">
        <ele>830</ele>
        <time>2019-06-15T10:48:31.100Z</time>
      </trkpt>
      <trkpt lat="44.98703" lon="5.42063">
        <ele>830</ele>
        <time>2019-06-15T10:48:32.100Z</time>
      </trkpt>
      <trkpt lat="44.98702" lon="5.42062">
        <ele>830</ele>
        <time>2019-06-15T10:48:33.100Z</time>
      </trkpt>
      <trkpt lat="44.98701" lon="5.42061">
        <ele>830</ele>
        <time>2019-06-15T10:48:34.100Z</time>
      </trkpt>
      <trkpt lat="44.98699" lon="5.4206">
        <ele>830</ele>
        <time>2019-06-15T10:48:35.100Z</time>
      </trkpt>
      <trkpt lat="44.98698" lon="5.42059">
        <ele>830</ele>
        <time>2019-06-15T10:48:36.100Z</time>
      </trkpt>
      <trkpt lat="44.98697" lon="5.42058">
        <ele>830</ele>
        <time>2019-06-15T10:48:37.100Z</time>
      </trkpt>
      <trkpt lat="44.98696" lon="5.42058">
        <ele>831</ele>
        <time>2019-06-15T10:48:38.100Z</time>
      </trkpt>
      <trkpt lat="44.98694" lon="5.42057">
        <ele>831</ele>
        <time>2019-06-15T10:48:39.100Z</time>
      </trkpt>
      <trkpt lat="44.98693" lon="5.42057">
        <ele>832</ele>
        <time>2019-06-15T10:48:40.100Z</time>
      </trkpt>
      <trkpt lat="44.98692" lon="5.42056">
        <ele>832</ele>
        <time>2019-06-15T10:48:41.100Z</time>
      </trkpt>
      <trkpt lat="44.9869" lon="5.42055">
        <ele>832</ele>
        <time>2019-06-15T10:48:42.100Z</time>
      </trkpt>
      <trkpt lat="44.98689" lon="5.42054">
        <ele>832</ele>
        <time>2019-06-15T10:48:43.100Z</time>
      </trkpt>
      <trkpt lat="44.98687" lon="5.42052">
        <ele>831</ele>
        <time>2019-06-15T10:48:44.100Z</time>
      </trkpt>
      <trkpt lat="44.98686" lon="5.42051">
        <ele>831</ele>
        <time>2019-06-15T10:48:45.100Z</time>
      </trkpt>
      <trkpt lat="44.98685" lon="5.4205">
        <ele>833</ele>
        <time>2019-06-15T10:48:46.100Z</time>
      </trkpt>
      <trkpt lat="44.98684" lon="5.42048">
        <ele>834</ele>
        <time>2019-06-15T10:48:47.100Z</time>
      </trkpt>
      <trkpt lat="44.98683" lon="5.42046">
        <ele>833</ele>
        <time>2019-06-15T10:48:48.100Z</time>
      </trkpt>
      <trkpt lat="44.98682" lon="5.42045">
        <ele>834</ele>
        <time>2019-06-15T10:48:49.100Z</time>
      </trkpt>
      <trkpt lat="44.98681" lon="5.42044">
        <ele>835</ele>
        <time>2019-06-15T10:48:50.100Z</time>
      </trkpt>
      <trkpt lat="44.9868" lon="5.42043">
        <ele>835</ele>
        <time>2019-06-15T10:48:51.100Z</time>
      </trkpt>
      <trkpt lat="44.98679" lon="5.42042">
        <ele>836</ele>
        <time>2019-06-15T10:48:52.100Z</time>
      </trkpt>
      <trkpt lat="44.98678" lon="5.42041">
        <ele>836</ele>
        <time>2019-06-15T10:48:53.100Z</time>
      </trkpt>
      <trkpt lat="44.98676" lon="5.4204">
        <ele>837</ele>
        <time>2019-06-15T10:48:54.100Z</time>
      </trkpt>
      <trkpt lat="44.98675" lon="5.42039">
        <ele>838</ele>
        <time>2019-06-15T10:48:55.100Z</time>
      </trkpt>
      <trkpt lat="44.98674" lon="5.42038">
        <ele>838</ele>
        <time>2019-06-15T10:48:56.100Z</time>
      </trkpt>
      <trkpt lat="44.98673" lon="5.42037">
        <ele>839</ele>
        <time>2019-06-15T10:48:57.100Z</time>
      </trkpt>
      <trkpt lat="44.98672" lon="5.42036">
        <ele>839</ele>
        <time>2019-06-15T10:48:58.100Z</time>
      </trkpt>
      <trkpt lat="44.98671" lon="5.42035">
        <ele>840</ele>
        <time>2019-06-15T10:48:59.100Z</time>
      </trkpt>
      <trkpt lat="44.9867" lon="5.42034">
        <ele>841</ele>
        <time>2019-06-15T10:49:00.100Z</time>
      </trkpt>
      <trkpt lat="44.98668" lon="5.42033">
        <ele>841</ele>
        <time>2019-06-15T10:49:01.100Z</time>
      </trkpt>
      <trkpt lat="44.98668" lon="5.42032">
        <ele>842</ele>
        <time>2019-06-15T10:49:02.100Z</time>
      </trkpt>
      <trkpt lat="44.98667" lon="5.42031">
        <ele>843</ele>
        <time>2019-06-15T10:49:03.100Z</time>
      </trkpt>
      <trkpt lat="44.98665" lon="5.4203">
        <ele>844</ele>
        <time>2019-06-15T10:49:04.100Z</time>
      </trkpt>
      <trkpt lat="44.98664" lon="5.42029">
        <ele>844</ele>
        <time>2019-06-15T10:49:05.100Z</time>
      </trkpt>
      <trkpt lat="44.98662" lon="5.42028">
        <ele>844</ele>
        <time>2019-06-15T10:49:06.100Z</time>
      </trkpt>
      <trkpt lat="44.98661" lon="5.42027">
        <ele>844</ele>
        <time>2019-06-15T10:49:07.100Z</time>
      </trkpt>
      <trkpt lat="44.9866" lon="5.42027">
        <ele>844</ele>
        <time>2019-06-15T10:49:08.100Z</time>
      </trkpt>
      <trkpt lat="44.98658" lon="5.42026">
        <ele>844</ele>
        <time>2019-06-15T10:49:09.100Z</time>
      </trkpt>
      <trkpt lat="44.98657" lon="5.42025">
        <ele>845</ele>
        <time>2019-06-15T10:49:10.100Z</time>
      </trkpt>
      <trkpt lat="44.98656" lon="5.42024">
        <ele>845</ele>
        <time>2019-06-15T10:49:11.100Z</time>
      </trkpt>
      <trkpt lat="44.98655" lon="5.42023">
        <ele>845</ele>
        <time>2019-06-15T10:49:12.100Z</time>
      </trkpt>
      <trkpt lat="44.98653" lon="5.42023">
        <ele>845</ele>
        <time>2019-06-15T10:49:13.100Z</time>
      </trkpt>
      <trkpt lat="44.98652" lon="5.42023">
        <ele>846</ele>
        <time>2019-06-15T10:49:14.100Z</time>
      </trkpt>
      <trkpt lat="44.98651" lon="5.42022">
        <ele>846</ele>
        <time>2019-06-15T10:49:15.100Z</time>
      </trkpt>
      <trkpt lat="44.98649" lon="5.42022">
        <ele>846</ele>
        <time>2019-06-15T10:49:16.100Z</time>
      </trkpt>
      <trkpt lat="44.98647" lon="5.42022">
        <ele>846</ele>
        <time>2019-06-15T10:49:17.100Z</time>
      </trkpt>
      <trkpt lat="44.98645" lon="5.42021">
        <ele>846</ele>
        <time>2019-06-15T10:49:18.100Z</time>
      </trkpt>
      <trkpt lat="44.98644" lon="5.4202">
        <ele>846</ele>
        <time>2019-06-15T10:49:19.100Z</time>
      </trkpt>
      <trkpt lat="44.98642" lon="5.4202">
        <ele>846</ele>
        <time>2019-06-15T10:49:20.100Z</time>
      </trkpt>
      <trkpt lat="44.9864" lon="5.4202">
        <ele>846</ele>
        <time>2019-06-15T10:49:21.100Z</time>
      </trkpt>
      <trkpt lat="44.98638" lon="5.4202">
        <ele>846</ele>
        <time>2019-06-15T10:49:22.100Z</time>
      </trkpt>
      <trkpt lat="44.98637" lon="5.42021">
        <ele>847</ele>
        <time>2019-06-15T10:49:23.100Z</time>
      </trkpt>
      <trkpt lat="44.98635" lon="5.42021">
        <ele>847</ele>
        <time>2019-06-15T10:49:24.100Z</time>
      </trkpt>
      <trkpt lat="44.98634" lon="5.42023">
        <ele>847</ele>
        <time>2019-06-15T10:49:25.100Z</time>
      </trkpt>
      <trkpt lat="44.98633" lon="5.42025">
        <ele>848</ele>
        <time>2019-06-15T10:49:26.100Z</time>
      </trkpt>
      <trkpt lat="44.98632" lon="5.42026">
        <ele>848</ele>
        <time>2019-06-15T10:49:27.100Z</time>
      </trkpt>
      <trkpt lat="44.9863" lon="5.42028">
        <ele>849</ele>
        <time>2019-06-15T10:49:28.100Z</time>
      </trkpt>
      <trkpt lat="44.98629" lon="5.4203">
        <ele>850</ele>
        <time>2019-06-15T10:49:29.100Z</time>
      </trkpt>
      <trkpt lat="44.98628" lon="5.42032">
        <ele>850</ele>
        <time>2019-06-15T10:49:30.100Z</time>
      </trkpt>
      <trkpt lat="44.98627" lon="5.42034">
        <ele>850</ele>
        <time>2019-06-15T10:49:31.100Z</time>
      </trkpt>
      <trkpt lat="44.98626" lon="5.42036">
        <ele>851</ele>
        <time>2019-06-15T10:49:32.100Z</time>
      </trkpt>
      <trkpt lat="44.98625" lon="5.42037">
        <ele>851</ele>
        <time>2019-06-15T10:49:33.100Z</time>
      </trkpt>
      <trkpt lat="44.98624" lon="5.42039">
        <ele>851</ele>
        <time>2019-06-15T10:49:34.100Z</time>
      </trkpt>
      <trkpt lat="44.98624" lon="5.4204">
        <ele>852</ele>
        <time>2019-06-15T10:49:35.100Z</time>
      </trkpt>
      <trkpt lat="44.98623" lon="5.42041">
        <ele>853</ele>
        <time>2019-06-15T10:49:36.100Z</time>
      </trkpt>
      <trkpt lat="44.98622" lon="5.42042">
        <ele>853</ele>
        <time>2019-06-15T10:49:37.100Z</time>
      </trkpt>
      <trkpt lat="44.98621" lon="5.42043">
        <ele>854</ele>
        <time>2019-06-15T10:49:38.100Z</time>
      </trkpt>
      <trkpt lat="44.98621" lon="5.42044">
        <ele>854</ele>
        <time>2019-06-15T10:49:39.100Z</time>
      </trkpt>
      <trkpt lat="44.9862" lon="5.42045">
        <ele>855</ele>
        <time>2019-06-15T10:49:40.100Z</time>
      </trkpt>
      <trkpt lat="44.98619" lon="5.42046">
        <ele>855</ele>
        <time>2019-06-15T10:49:41.100Z</time>
      </trkpt>
      <trkpt lat="44.98619" lon="5.42047">
        <ele>856</ele>
        <time>2019-06-15T10:49:42.100Z</time>
      </trkpt>
      <trkpt lat="44.98618" lon="5.42047">
        <ele>856</ele>
        <time>2019-06-15T10:49:43.100Z</time>
      </trkpt>
      <trkpt lat="44.98618" lon="5.42048">
        <ele>856</ele>
        <time>2019-06-15T10:49:44.100Z</time>
      </trkpt>
      <trkpt lat="44.98617" lon="5.42048">
        <ele>857</ele>
        <time>2019-06-15T10:49:45.100Z</time>
      </trkpt>
      <trkpt lat="44.98616" lon="5.42049">
        <ele>857</ele>
        <time>2019-06-15T10:49:46.100Z</time>
      </trkpt>
      <trkpt lat="44.98616" lon="5.4205">
        <ele>858</ele>
        <time>2019-06-15T10:49:47.100Z</time>
      </trkpt>
      <trkpt lat="44.98615" lon="5.4205">
        <ele>859</ele>
        <time>2019-06-15T10:49:48.100Z</time>
      </trkpt>
      <trkpt lat="44.98614" lon="5.42051">
        <ele>859</ele>
        <time>2019-06-15T10:49:49.100Z</time>
      </trkpt>
      <trkpt lat="44.98613" lon="5.42051">
        <ele>860</ele>
        <time>2019-06-15T10:49:50.100Z</time>
      </trkpt>
      <trkpt lat="44.98613" lon="5.42052">
        <ele>860</ele>
        <time>2019-06-15T10:49:51.100Z</time>
      </trkpt>
      <trkpt lat="44.98612" lon="5.42053">
        <ele>860</ele>
        <time>2019-06-15T10:49:52.100Z</time>
      </trkpt>
      <trkpt lat="44.98611" lon="5.42054">
        <ele>859</ele>
        <time>2019-06-15T10:49:53.100Z</time>
      </trkpt>
      <trkpt lat="44.9861" lon="5.42055">
        <ele>859</ele>
        <time>2019-06-15T10:49:54.100Z</time>
      </trkpt>
      <trkpt lat="44.98608" lon="5.42056">
        <ele>859</ele>
        <time>2019-06-15T10:49:55.100Z</time>
      </trkpt>
      <trkpt lat="44.98607" lon="5.42057">
        <ele>860</ele>
        <time>2019-06-15T10:49:56.100Z</time>
      </trkpt>
      <trkpt lat="44.98606" lon="5.42058">
        <ele>860</ele>
        <time>2019-06-15T10:49:57.100Z</time>
      </trkpt>
      <trkpt lat="44.98606" lon="5.42059">
        <ele>860</ele>
        <time>2019-06-15T10:49:58.100Z</time>
      </trkpt>
      <trkpt lat="44.98605" lon="5.4206">
        <ele>860</ele>
        <time>2019-06-15T10:49:59.100Z</time>
      </trkpt>
      <trkpt lat="44.98604" lon="5.42061">
        <ele>861</ele>
        <time>2019-06-15T10:50:00.100Z</time>
      </trkpt>
      <trkpt lat="44.98604" lon="5.42062">
        <ele>862</ele>
        <time>2019-06-15T10:50:01.100Z</time>
      </trkpt>
      <trkpt lat="44.98603" lon="5.42063">
        <ele>861</ele>
        <time>2019-06-15T10:50:02.100Z</time>
      </trkpt>
      <trkpt lat="44.98602" lon="5.42064">
        <ele>861</ele>
        <time>2019-06-15T10:50:03.100Z</time>
      </trkpt>
      <trkpt lat="44.98601" lon="5.42065">
        <ele>862</ele>
        <time>2019-06-15T10:50:04.100Z</time>
      </trkpt>
      <trkpt lat="44.986" lon="5.42066">
        <ele>862</ele>
        <time>2019-06-15T10:50:05.100Z</time>
      </trkpt>
      <trkpt lat="44.98599" lon="5.42066">
        <ele>863</ele>
        <time>2019-06-15T10:50:06.100Z</time>
      </trkpt>
      <trkpt lat="44.98599" lon="5.42067">
        <ele>864</ele>
        <time>2019-06-15T10:50:07.100Z</time>
      </trkpt>
      <trkpt lat="44.98598" lon="5.42068">
        <ele>865</ele>
        <time>2019-06-15T10:50:08.100Z</time>
      </trkpt>
      <trkpt lat="44.98597" lon="5.42069">
        <ele>866</ele>
        <time>2019-06-15T10:50:09.100Z</time>
      </trkpt>
      <trkpt lat="44.98596" lon="5.42069">
        <ele>866</ele>
        <time>2019-06-15T10:50:10.100Z</time>
      </trkpt>
      <trkpt lat="44.98596" lon="5.42069">
        <ele>866</ele>
        <time>2019-06-15T10:50:11.100Z</time>
      </trkpt>
      <trkpt lat="44.98595" lon="5.4207">
        <ele>866</ele>
        <time>2019-06-15T10:50:12.100Z</time>
      </trkpt>
      <trkpt lat="44.98595" lon="5.4207">
        <ele>867</ele>
        <time>2019-06-15T10:50:13.100Z</time>
      </trkpt>
      <trkpt lat="44.98595" lon="5.4207">
        <ele>868</ele>
        <time>2019-06-15T10:50:14.100Z</time>
      </trkpt>
      <trkpt lat="44.98594" lon="5.42071">
        <ele>869</ele>
        <time>2019-06-15T10:50:15.100Z</time>
      </trkpt>
      <trkpt lat="44.98594" lon="5.42072">
        <ele>869</ele>
        <time>2019-06-15T10:50:16.100Z</time>
      </trkpt>
      <trkpt lat="44.98594" lon="5.42072">
        <ele>870</ele>
        <time>2019-06-15T10:50:17.100Z</time>
      </trkpt>
      <trkpt lat="44.98593" lon="5.42073">
        <ele>871</ele>
        <time>2019-06-15T10:50:18.100Z</time>
      </trkpt>
      <trkpt lat="44.98593" lon="5.42074">
        <ele>871</ele>
        <time>2019-06-15T10:50:19.100Z</time>
      </trkpt>
      <trkpt lat="44.98593" lon="5.42075">
        <ele>872</ele>
        <time>2019-06-15T10:50:20.100Z</time>
      </trkpt>
      <trkpt lat="44.98593" lon="5.42076">
        <ele>872</ele>
        <time>2019-06-15T10:50:21.100Z</time>
      </trkpt>
      <trkpt lat="44.98593" lon="5.42077">
        <ele>873</ele>
        <time>2019-06-15T10:50:22.100Z</time>
      </trkpt>
      <trkpt lat="44.98593" lon="5.42078">
        <ele>872</ele>
        <time>2019-06-15T10:50:23.100Z</time>
      </trkpt>
      <trkpt lat="44.98593" lon="5.42079">
        <ele>872</ele>
        <time>2019-06-15T10:50:24.100Z</time>
      </trkpt>
      <trkpt lat="44.98593" lon="5.4208">
        <ele>871</ele>
        <time>2019-06-15T10:50:25.100Z</time>
      </trkpt>
      <trkpt lat="44.98592" lon="5.42081">
        <ele>871</ele>
        <time>2019-06-15T10:50:26.100Z</time>
      </trkpt>
      <trkpt lat="44.98592" lon="5.42082">
        <ele>872</ele>
        <time>2019-06-15T10:50:27.100Z</time>
      </trkpt>
      <trkpt lat="44.98592" lon="5.42083">
        <ele>871</ele>
        <time>2019-06-15T10:50:28.100Z</time>
      </trkpt>
      <trkpt lat="44.98592" lon="5.42084">
        <ele>870</ele>
        <time>2019-06-15T10:50:29.100Z</time>
      </trkpt>
      <trkpt lat="44.98592" lon="5.42085">
        <ele>870</ele>
        <time>2019-06-15T10:50:30.100Z</time>
      </trkpt>
      <trkpt lat="44.98592" lon="5.42086">
        <ele>869</ele>
        <time>2019-06-15T10:50:31.100Z</time>
      </trkpt>
      <trkpt lat="44.98592" lon="5.42087">
        <ele>871</ele>
        <time>2019-06-15T10:50:32.100Z</time>
      </trkpt>
      <trkpt lat="44.98592" lon="5.42087">
        <ele>871</ele>
        <time>2019-06-15T10:50:33.100Z</time>
      </trkpt>
      <trkpt lat="44.98591" lon="5.42088">
        <ele>871</ele>
        <time>2019-06-15T10:50:34.100Z</time>
      </trkpt>
      <trkpt lat="44.98591" lon="5.42089">
        <ele>872</ele>
        <time>2019-06-15T10:50:35.100Z</time>
      </trkpt>
      <trkpt lat="44.98591" lon="5.42089">
        <ele>872</ele>
        <time>2019-06-15T10:50:36.100Z</time>
      </trkpt>
      <trkpt lat="44.98591" lon="5.4209">
        <ele>873</ele>
        <time>2019-06-15T10:50:37.100Z</time>
      </trkpt>
      <trkpt lat="44.98591" lon="5.4209">
        <ele>873</ele>
        <time>2019-06-15T10:50:38.100Z</time>
      </trkpt>
      <trkpt lat="44.98591" lon="5.42091">
        <ele>873</ele>
        <time>2019-06-15T10:50:39.100Z</time>
      </trkpt>
      <trkpt lat="44.98591" lon="5.42092">
        <ele>873</ele>
        <time>2019-06-15T10:50:40.100Z</time>
      </trkpt>
      <trkpt lat="44.98591" lon="5.42094">
        <ele>872</ele>
        <time>2019-06-15T10:50:41.100Z</time>
      </trkpt>
      <trkpt lat="44.98591" lon="5.42095">
        <ele>872</ele>
        <time>2019-06-15T10:50:42.100Z</time>
      </trkpt>
      <trkpt lat="44.98591" lon="5.42096">
        <ele>873</ele>
        <time>2019-06-15T10:50:43.100Z</time>
      </trkpt>
      <trkpt lat="44.98591" lon="5.42098">
        <ele>874</ele>
        <time>2019-06-15T10:50:44.100Z</time>
      </trkpt>
      <trkpt lat="44.98591" lon="5.421">
        <ele>873</ele>
        <time>2019-06-15T10:50:45.100Z</time>
      </trkpt>
      <trkpt lat="44.98592" lon="5.42103">
        <ele>874</ele>
        <time>2019-06-15T10:50:46.100Z</time>
      </trkpt>
      <trkpt lat="44.98592" lon="5.42105">
        <ele>874</ele>
        <time>2019-06-15T10:50:47.100Z</time>
      </trkpt>
      <trkpt lat="44.98592" lon="5.42107">
        <ele>874</ele>
        <time>2019-06-15T10:50:48.100Z</time>
      </trkpt>
      <trkpt lat="44.98592" lon="5.42108">
        <ele>874</ele>
        <time>2019-06-15T10:50:49.100Z</time>
      </trkpt>
      <trkpt lat="44.98593" lon="5.42109">
        <ele>874</ele>
        <time>2019-06-15T10:50:50.100Z</time>
      </trkpt>
      <trkpt lat="44.98593" lon="5.42111">
        <ele>874</ele>
        <time>2019-06-15T10:50:51.100Z</time>
      </trkpt>
      <trkpt lat="44.98593" lon="5.42112">
        <ele>875</ele>
        <time>2019-06-15T10:50:52.100Z</time>
      </trkpt>
      <trkpt lat="44.98593" lon="5.42114">
        <ele>875</ele>
        <time>2019-06-15T10:50:53.100Z</time>
      </trkpt>
      <trkpt lat="44.98593" lon="5.42115">
        <ele>874</ele>
        <time>2019-06-15T10:50:54.100Z</time>
      </trkpt>
      <trkpt lat="44.98594" lon="5.42116">
        <ele>874</ele>
        <time>2019-06-15T10:50:55.100Z</time>
      </trkpt>
      <trkpt lat="44.98594" lon="5.42117">
        <ele>873</ele>
        <time>2019-06-15T10:50:56.100Z</time>
      </trkpt>
      <trkpt lat="44.98594" lon="5.42118">
        <ele>873</ele>
        <time>2019-06-15T10:50:57.100Z</time>
      </trkpt>
      <trkpt lat="44.98594" lon="5.42119">
        <ele>873</ele>
        <time>2019-06-15T10:50:58.100Z</time>
      </trkpt>
      <trkpt lat="44.98594" lon="5.4212">
        <ele>874</ele>
        <time>2019-06-15T10:50:59.100Z</time>
      </trkpt>
      <trkpt lat="44.98594" lon="5.42121">
        <ele>875</ele>
        <time>2019-06-15T10:51:00.100Z</time>
      </trkpt>
      <trkpt lat="44.98595" lon="5.42123">
        <ele>876</ele>
        <time>2019-06-15T10:51:01.100Z</time>
      </trkpt>
      <trkpt lat="44.98595" lon="5.42125">
        <ele>876</ele>
        <time>2019-06-15T10:51:02.100Z</time>
      </trkpt>
      <trkpt lat="44.98595" lon="5.42126">
        <ele>877</ele>
        <time>2019-06-15T10:51:03.100Z</time>
      </trkpt>
      <trkpt lat="44.98595" lon="5.42127">
        <ele>878</ele>
        <time>2019-06-15T10:51:04.100Z</time>
      </trkpt>
      <trkpt lat="44.98595" lon="5.42129">
        <ele>878</ele>
        <time>2019-06-15T10:51:05.100Z</time>
      </trkpt>
      <trkpt lat="44.98596" lon="5.4213">
        <ele>878</ele>
        <time>2019-06-15T10:51:06.100Z</time>
      </trkpt>
      <trkpt lat="44.98596" lon="5.42131">
        <ele>879</ele>
        <time>2019-06-15T10:51:07.100Z</time>
      </trkpt>
      <trkpt lat="44.98596" lon="5.42132">
        <ele>879</ele>
        <time>2019-06-15T10:51:08.100Z</time>
      </trkpt>
      <trkpt lat="44.98597" lon="5.42134">
        <ele>879</ele>
        <time>2019-06-15T10:51:09.100Z</time>
      </trkpt>
      <trkpt lat="44.98597" lon="5.42135">
        <ele>880</ele>
        <time>2019-06-15T10:51:10.100Z</time>
      </trkpt>
      <trkpt lat="44.98598" lon="5.42137">
        <ele>881</ele>
        <time>2019-06-15T10:51:11.100Z</time>
      </trkpt>
      <trkpt lat="44.98598" lon="5.42138">
        <ele>881</ele>
        <time>2019-06-15T10:51:12.100Z</time>
      </trkpt>
      <trkpt lat="44.98599" lon="5.4214">
        <ele>881</ele>
        <time>2019-06-15T10:51:13.100Z</time>
      </trkpt>
      <trkpt lat="44.98599" lon="5.42141">
        <ele>882</ele>
        <time>2019-06-15T10:51:14.100Z</time>
      </trkpt>
      <trkpt lat="44.98599" lon="5.42142">
        <ele>882</ele>
        <time>2019-06-15T10:51:15.100Z</time>
      </trkpt>
      <trkpt lat="44.98599" lon="5.42144">
        <ele>882</ele>
        <time>2019-06-15T10:51:16.100Z</time>
      </trkpt>
      <trkpt lat="44.986" lon="5.42146">
        <ele>883</ele>
        <time>2019-06-15T10:51:17.100Z</time>
      </trkpt>
      <trkpt lat="44.986" lon="5.42147">
        <ele>883</ele>
        <time>2019-06-15T10:51:18.100Z</time>
      </trkpt>
      <trkpt lat="44.986" lon="5.42149">
        <ele>882</ele>
        <time>2019-06-15T10:51:19.100Z</time>
      </trkpt>
      <trkpt lat="44.986" lon="5.4215">
        <ele>884</ele>
        <time>2019-06-15T10:51:20.100Z</time>
      </trkpt>
      <trkpt lat="44.986" lon="5.42153">
        <ele>885</ele>
        <time>2019-06-15T10:51:21.100Z</time>
      </trkpt>
      <trkpt lat="44.98601" lon="5.42155">
        <ele>885</ele>
        <time>2019-06-15T10:51:22.100Z</time>
      </trkpt>
      <trkpt lat="44.98601" lon="5.42157">
        <ele>885</ele>
        <time>2019-06-15T10:51:23.100Z</time>
      </trkpt>
      <trkpt lat="44.98601" lon="5.42158">
        <ele>886</ele>
        <time>2019-06-15T10:51:24.100Z</time>
      </trkpt>
      <trkpt lat="44.98601" lon="5.4216">
        <ele>886</ele>
        <time>2019-06-15T10:51:25.100Z</time>
      </trkpt>
      <trkpt lat="44.98602" lon="5.42162">
        <ele>887</ele>
        <time>2019-06-15T10:51:26.100Z</time>
      </trkpt>
      <trkpt lat="44.98602" lon="5.42163">
        <ele>886</ele>
        <time>2019-06-15T10:51:27.100Z</time>
      </trkpt>
      <trkpt lat="44.98602" lon="5.42165">
        <ele>886</ele>
        <time>2019-06-15T10:51:28.100Z</time>
      </trkpt>
      <trkpt lat="44.98602" lon="5.42167">
        <ele>885</ele>
        <time>2019-06-15T10:51:29.100Z</time>
      </trkpt>
      <trkpt lat="44.98601" lon="5.42169">
        <ele>885</ele>
        <time>2019-06-15T10:51:30.100Z</time>
      </trkpt>
      <trkpt lat="44.98601" lon="5.42171">
        <ele>886</ele>
        <time>2019-06-15T10:51:31.100Z</time>
      </trkpt>
      <trkpt lat="44.98601" lon="5.42174">
        <ele>886</ele>
        <time>2019-06-15T10:51:32.100Z</time>
      </trkpt>
      <trkpt lat="44.98601" lon="5.42175">
        <ele>885</ele>
        <time>2019-06-15T10:51:33.100Z</time>
      </trkpt>
      <trkpt lat="44.986" lon="5.42178">
        <ele>885</ele>
        <time>2019-06-15T10:51:34.100Z</time>
      </trkpt>
      <trkpt lat="44.986" lon="5.4218">
        <ele>884</ele>
        <time>2019-06-15T10:51:35.100Z</time>
      </trkpt>
      <trkpt lat="44.98599" lon="5.42183">
        <ele>885</ele>
        <time>2019-06-15T10:51:36.100Z</time>
      </trkpt>
      <trkpt lat="44.98598" lon="5.42186">
        <ele>884</ele>
        <time>2019-06-15T10:51:37.100Z</time>
      </trkpt>
      <trkpt lat="44.98597" lon="5.42189">
        <ele>884</ele>
        <time>2019-06-15T10:51:38.100Z</time>
      </trkpt>
      <trkpt lat="44.98596" lon="5.42192">
        <ele>884</ele>
        <time>2019-06-15T10:51:39.100Z</time>
      </trkpt>
      <trkpt lat="44.98596" lon="5.42194">
        <ele>884</ele>
        <time>2019-06-15T10:51:40.100Z</time>
      </trkpt>
      <trkpt lat="44.98595" lon="5.42196">
        <ele>884</ele>
        <time>2019-06-15T10:51:41.100Z</time>
      </trkpt>
      <trkpt lat="44.98595" lon="5.42198">
        <ele>884</ele>
        <time>2019-06-15T10:51:42.100Z</time>
      </trkpt>
      <trkpt lat="44.98594" lon="5.42201">
        <ele>884</ele>
        <time>2019-06-15T10:51:43.100Z</time>
      </trkpt>
      <trkpt lat="44.98594" lon="5.42203">
        <ele>884</ele>
        <time>2019-06-15T10:51:44.100Z</time>
      </trkpt>
      <trkpt lat="44.98593" lon="5.42205">
        <ele>884</ele>
        <time>2019-06-15T10:51:45.100Z</time>
      </trkpt>
      <trkpt lat="44.98592" lon="5.42207">
        <ele>885</ele>
        <time>2019-06-15T10:51:46.100Z</time>
      </trkpt>
      <trkpt lat="44.98592" lon="5.42209">
        <ele>885</ele>
        <time>2019-06-15T10:51:47.100Z</time>
      </trkpt>
      <trkpt lat="44.98592" lon="5.42211">
        <ele>885</ele>
        <time>2019-06-15T10:51:48.100Z</time>
      </trkpt>
      <trkpt lat="44.98591" lon="5.42213">
        <ele>884</ele>
        <time>2019-06-15T10:51:49.100Z</time>
      </trkpt>
      <trkpt lat="44.9859" lon="5.42215">
        <ele>884</ele>
        <time>2019-06-15T10:51:50.100Z</time>
      </trkpt>
      <trkpt lat="44.98589" lon="5.42217">
        <ele>884</ele>
        <time>2019-06-15T10:51:51.100Z</time>
      </trkpt>
      <trkpt lat="44.98589" lon="5.42219">
        <ele>884</ele>
        <time>2019-06-15T10:51:52.100Z</time>
      </trkpt>
      <trkpt lat="44.98588" lon="5.42221">
        <ele>884</ele>
        <time>2019-06-15T10:51:53.100Z</time>
      </trkpt>
      <trkpt lat="44.98587" lon="5.42224">
        <ele>884</ele>
        <time>2019-06-15T10:51:54.100Z</time>
      </trkpt>
      <trkpt lat="44.98585" lon="5.42226">
        <ele>885</ele>
        <time>2019-06-15T10:51:55.100Z</time>
      </trkpt>
      <trkpt lat="44.98584" lon="5.42229">
        <ele>885</ele>
        <time>2019-06-15T10:51:56.100Z</time>
      </trkpt>
      <trkpt lat="44.98584" lon="5.42232">
        <ele>885</ele>
        <time>2019-06-15T10:51:57.100Z</time>
      </trkpt>
      <trkpt lat="44.98583" lon="5.42234">
        <ele>886</ele>
        <time>2019-06-15T10:51:58.100Z</time>
      </trkpt>
      <trkpt lat="44.98582" lon="5.42237">
        <ele>885</ele>
        <time>2019-06-15T10:51:59.100Z</time>
      </trkpt>
      <trkpt lat="44.98581" lon="5.42239">
        <ele>884</ele>
        <time>2019-06-15T10:52:00.100Z</time>
      </trkpt>
      <trkpt lat="44.9858" lon="5.42242">
        <ele>885</ele>
        <time>2019-06-15T10:52:01.100Z</time>
      </trkpt>
      <trkpt lat="44.98579" lon="5.42245">
        <ele>885</ele>
        <time>2019-06-15T10:52:02.100Z</time>
      </trkpt>
      <trkpt lat="44.98578" lon="5.42248">
        <ele>885</ele>
        <time>2019-06-15T10:52:03.100Z</time>
      </trkpt>
      <trkpt lat="44.98577" lon="5.42251">
        <ele>885</ele>
        <time>2019-06-15T10:52:04.100Z</time>
      </trkpt>
      <trkpt lat="44.98576" lon="5.42255">
        <ele>885</ele>
        <time>2019-06-15T10:52:05.100Z</time>
      </trkpt>
      <trkpt lat="44.98575" lon="5.42257">
        <ele>885</ele>
        <time>2019-06-15T10:52:06.100Z</time>
      </trkpt>
      <trkpt lat="44.98574" lon="5.42259">
        <ele>884</ele>
        <time>2019-06-15T10:52:07.100Z</time>
      </trkpt>
      <trkpt lat="44.98572" lon="5.4226">
        <ele>884</ele>
        <time>2019-06-15T10:52:08.100Z</time>
      </trkpt>
      <trkpt lat="44.9857" lon="5.42261">
        <ele>883</ele>
        <time>2019-06-15T10:52:09.100Z</time>
      </trkpt>
      <trkpt lat="44.98569" lon="5.42262">
        <ele>883</ele>
        <time>2019-06-15T10:52:10.100Z</time>
      </trkpt>
      <trkpt lat="44.98568" lon="5.42263">
        <ele>882</ele>
        <time>2019-06-15T10:52:11.100Z</time>
      </trkpt>
      <trkpt lat="44.98567" lon="5.42263">
        <ele>883</ele>
        <time>2019-06-15T10:52:12.100Z</time>
      </trkpt>
      <trkpt lat="44.98566" lon="5.42262">
        <ele>883</ele>
        <time>2019-06-15T10:52:13.100Z</time>
      </trkpt>
      <trkpt lat="44.98565" lon="5.42261">
        <ele>883</ele>
        <time>2019-06-15T10:52:14.100Z</time>
      </trkpt>
      <trkpt lat="44.98564" lon="5.4226">
        <ele>882</ele>
        <time>2019-06-15T10:52:15.100Z</time>
      </trkpt>
      <trkpt lat="44.98563" lon="5.42259">
        <ele>883</ele>
        <time>2019-06-15T10:52:16.100Z</time>
      </trkpt>
      <trkpt lat="44.98562" lon="5.42257">
        <ele>884</ele>
        <time>2019-06-15T10:52:17.100Z</time>
      </trkpt>
      <trkpt lat="44.98561" lon="5.42255">
        <ele>885</ele>
        <time>2019-06-15T10:52:18.100Z</time>
      </trkpt>
      <trkpt lat="44.9856" lon="5.42254">
        <ele>885</ele>
        <time>2019-06-15T10:52:19.100Z</time>
      </trkpt>
      <trkpt lat="44.98559" lon="5.42252">
        <ele>885</ele>
        <time>2019-06-15T10:52:20.100Z</time>
      </trkpt>
      <trkpt lat="44.98558" lon="5.42251">
        <ele>885</ele>
        <time>2019-06-15T10:52:21.100Z</time>
      </trkpt>
      <trkpt lat="44.98557" lon="5.42249">
        <ele>886</ele>
        <time>2019-06-15T10:52:22.100Z</time>
      </trkpt>
      <trkpt lat="44.98556" lon="5.42248">
        <ele>886</ele>
        <time>2019-06-15T10:52:23.100Z</time>
      </trkpt>
      <trkpt lat="44.98555" lon="5.42246">
        <ele>886</ele>
        <time>2019-06-15T10:52:24.100Z</time>
      </trkpt>
      <trkpt lat="44.98555" lon="5.42244">
        <ele>887</ele>
        <time>2019-06-15T10:52:25.100Z</time>
      </trkpt>
      <trkpt lat="44.98554" lon="5.42242">
        <ele>887</ele>
        <time>2019-06-15T10:52:26.100Z</time>
      </trkpt>
      <trkpt lat="44.98553" lon="5.4224">
        <ele>888</ele>
        <time>2019-06-15T10:52:27.100Z</time>
      </trkpt>
      <trkpt lat="44.98553" lon="5.42239">
        <ele>889</ele>
        <time>2019-06-15T10:52:28.100Z</time>
      </trkpt>
      <trkpt lat="44.98552" lon="5.42237">
        <ele>889</ele>
        <time>2019-06-15T10:52:29.100Z</time>
      </trkpt>
      <trkpt lat="44.98552" lon="5.42236">
        <ele>890</ele>
        <time>2019-06-15T10:52:30.100Z</time>
      </trkpt>
      <trkpt lat="44.98551" lon="5.42234">
        <ele>890</ele>
        <time>2019-06-15T10:52:31.100Z</time>
      </trkpt>
      <trkpt lat="44.98551" lon="5.42232">
        <ele>890</ele>
        <time>2019-06-15T10:52:32.100Z</time>
      </trkpt>
      <trkpt lat="44.98551" lon="5.4223">
        <ele>890</ele>
        <time>2019-06-15T10:52:33.100Z</time>
      </trkpt>
      <trkpt lat="44.9855" lon="5.42229">
        <ele>889</ele>
        <time>2019-06-15T10:52:34.100Z</time>
      </trkpt>
      <trkpt lat="44.9855" lon="5.42227">
        <ele>889</ele>
        <time>2019-06-15T10:52:35.100Z</time>
      </trkpt>
      <trkpt lat="44.98549" lon="5.42225">
        <ele>889</ele>
        <time>2019-06-15T10:52:36.100Z</time>
      </trkpt>
      <trkpt lat="44.98549" lon="5.42223">
        <ele>890</ele>
        <time>2019-06-15T10:52:37.100Z</time>
      </trkpt>
      <trkpt lat="44.98548" lon="5.42221">
        <ele>890</ele>
        <time>2019-06-15T10:52:38.100Z</time>
      </trkpt>
      <trkpt lat="44.98548" lon="5.42219">
        <ele>889</ele>
        <time>2019-06-15T10:52:39.100Z</time>
      </trkpt>
      <trkpt lat="44.98547" lon="5.42218">
        <ele>890</ele>
        <time>2019-06-15T10:52:40.100Z</time>
      </trkpt>
      <trkpt lat="44.98547" lon="5.42216">
        <ele>890</ele>
        <time>2019-06-15T10:52:41.100Z</time>
      </trkpt>
      <trkpt lat="44.98546" lon="5.42214">
        <ele>892</ele>
        <time>2019-06-15T10:52:42.100Z</time>
      </trkpt>
      <trkpt lat="44.98546" lon="5.42213">
        <ele>891</ele>
        <time>2019-06-15T10:52:43.100Z</time>
      </trkpt>
      <trkpt lat="44.98545" lon="5.42211">
        <ele>891</ele>
        <time>2019-06-15T10:52:44.100Z</time>
      </trkpt>
      <trkpt lat="44.98544" lon="5.4221">
        <ele>889</ele>
        <time>2019-06-15T10:52:45.100Z</time>
      </trkpt>
      <trkpt lat="44.98543" lon="5.42208">
        <ele>889</ele>
        <time>2019-06-15T10:52:46.100Z</time>
      </trkpt>
      <trkpt lat="44.98541" lon="5.42207">
        <ele>888</ele>
        <time>2019-06-15T10:52:47.100Z</time>
      </trkpt>
      <trkpt lat="44.9854" lon="5.42206">
        <ele>888</ele>
        <time>2019-06-15T10:52:48.100Z</time>
      </trkpt>
      <trkpt lat="44.9854" lon="5.42205">
        <ele>888</ele>
        <time>2019-06-15T10:52:49.100Z</time>
      </trkpt>
      <trkpt lat="44.98539" lon="5.42205">
        <ele>889</ele>
        <time>2019-06-15T10:52:50.100Z</time>
      </trkpt>
      <trkpt lat="44.98538" lon="5.42205">
        <ele>889</ele>
        <time>2019-06-15T10:52:51.100Z</time>
      </trkpt>
      <trkpt lat="44.98537" lon="5.42205">
        <ele>889</ele>
        <time>2019-06-15T10:52:52.100Z</time>
      </trkpt>
      <trkpt lat="44.98536" lon="5.42205">
        <ele>888</ele>
        <time>2019-06-15T10:52:53.100Z</time>
      </trkpt>
      <trkpt lat="44.98535" lon="5.42205">
        <ele>889</ele>
        <time>2019-06-15T10:52:54.100Z</time>
      </trkpt>
      <trkpt lat="44.98534" lon="5.42206">
        <ele>890</ele>
        <time>2019-06-15T10:52:55.100Z</time>
      </trkpt>
      <trkpt lat="44.98533" lon="5.42207">
        <ele>890</ele>
        <time>2019-06-15T10:52:56.100Z</time>
      </trkpt>
      <trkpt lat="44.98532" lon="5.42208">
        <ele>890</ele>
        <time>2019-06-15T10:52:57.100Z</time>
      </trkpt>
      <trkpt lat="44.98531" lon="5.42209">
        <ele>890</ele>
        <time>2019-06-15T10:52:58.100Z</time>
      </trkpt>
      <trkpt lat="44.98531" lon="5.4221">
        <ele>890</ele>
        <time>2019-06-15T10:52:59.100Z</time>
      </trkpt>
      <trkpt lat="44.9853" lon="5.42211">
        <ele>890</ele>
        <time>2019-06-15T10:53:00.100Z</time>
      </trkpt>
      <trkpt lat="44.98528" lon="5.42212">
        <ele>891</ele>
        <time>2019-06-15T10:53:01.100Z</time>
      </trkpt>
      <trkpt lat="44.98527" lon="5.42213">
        <ele>891</ele>
        <time>2019-06-15T10:53:02.100Z</time>
      </trkpt>
      <trkpt lat="44.98526" lon="5.42214">
        <ele>890</ele>
        <time>2019-06-15T10:53:03.100Z</time>
      </trkpt>
      <trkpt lat="44.98524" lon="5.42215">
        <ele>890</ele>
        <time>2019-06-15T10:53:04.100Z</time>
      </trkpt>
      <trkpt lat="44.98523" lon="5.42216">
        <ele>889</ele>
        <time>2019-06-15T10:53:05.100Z</time>
      </trkpt>
      <trkpt lat="44.98522" lon="5.42217">
        <ele>889</ele>
        <time>2019-06-15T10:53:06.100Z</time>
      </trkpt>
      <trkpt lat="44.98521" lon="5.42218">
        <ele>889</ele>
        <time>2019-06-15T10:53:07.100Z</time>
      </trkpt>
      <trkpt lat="44.9852" lon="5.42219">
        <ele>888</ele>
        <time>2019-06-15T10:53:08.100Z</time>
      </trkpt>
      <trkpt lat="44.98518" lon="5.42221">
        <ele>888</ele>
        <time>2019-06-15T10:53:09.100Z</time>
      </trkpt>
      <trkpt lat="44.98516" lon="5.42224">
        <ele>888</ele>
        <time>2019-06-15T10:53:10.100Z</time>
      </trkpt>
      <trkpt lat="44.98515" lon="5.42226">
        <ele>887</ele>
        <time>2019-06-15T10:53:11.100Z</time>
      </trkpt>
      <trkpt lat="44.98513" lon="5.42228">
        <ele>887</ele>
        <time>2019-06-15T10:53:12.100Z</time>
      </trkpt>
      <trkpt lat="44.98511" lon="5.42229">
        <ele>886</ele>
        <time>2019-06-15T10:53:13.100Z</time>
      </trkpt>
      <trkpt lat="44.9851" lon="5.4223">
        <ele>886</ele>
        <time>2019-06-15T10:53:14.100Z</time>
      </trkpt>
      <trkpt lat="44.98508" lon="5.4223">
        <ele>886</ele>
        <time>2019-06-15T10:53:15.100Z</time>
      </trkpt>
      <trkpt lat="44.98506" lon="5.42231">
        <ele>886</ele>
        <time>2019-06-15T10:53:16.100Z</time>
      </trkpt>
      <trkpt lat="44.98504" lon="5.42232">
        <ele>887</ele>
        <time>2019-06-15T10:53:17.100Z</time>
      </trkpt>
      <trkpt lat="44.98502" lon="5.42234">
        <ele>886</ele>
        <time>2019-06-15T10:53:18.100Z</time>
      </trkpt>
      <trkpt lat="44.985" lon="5.42235">
        <ele>886</ele>
        <time>2019-06-15T10:53:19.100Z</time>
      </trkpt>
      <trkpt lat="44.98498" lon="5.42236">
        <ele>886</ele>
        <time>2019-06-15T10:53:20.100Z</time>
      </trkpt>
      <trkpt lat="44.98497" lon="5.42238">
        <ele>887</ele>
        <time>2019-06-15T10:53:21.100Z</time>
      </trkpt>
      <trkpt lat="44.98496" lon="5.42239">
        <ele>886</ele>
        <time>2019-06-15T10:53:22.100Z</time>
      </trkpt>
      <trkpt lat="44.98495" lon="5.42241">
        <ele>887</ele>
        <time>2019-06-15T10:53:23.100Z</time>
      </trkpt>
      <trkpt lat="44.98493" lon="5.42243">
        <ele>887</ele>
        <time>2019-06-15T10:53:24.100Z</time>
      </trkpt>
      <trkpt lat="44.98492" lon="5.42246">
        <ele>887</ele>
        <time>2019-06-15T10:53:25.100Z</time>
      </trkpt>
      <trkpt lat="44.98491" lon="5.42248">
        <ele>887</ele>
        <time>2019-06-15T10:53:26.100Z</time>
      </trkpt>
      <trkpt lat="44.98489" lon="5.42249">
        <ele>887</ele>
        <time>2019-06-15T10:53:27.100Z</time>
      </trkpt>
      <trkpt lat="44.98488" lon="5.42251">
        <ele>888</ele>
        <time>2019-06-15T10:53:28.100Z</time>
      </trkpt>
      <trkpt lat="44.98486" lon="5.42253">
        <ele>887</ele>
        <time>2019-06-15T10:53:29.100Z</time>
      </trkpt>
      <trkpt lat="44.98485" lon="5.42255">
        <ele>887</ele>
        <time>2019-06-15T10:53:30.100Z</time>
      </trkpt>
      <trkpt lat="44.98483" lon="5.42257">
        <ele>887</ele>
        <time>2019-06-15T10:53:31.100Z</time>
      </trkpt>
      <trkpt lat="44.98481" lon="5.4226">
        <ele>887</ele>
        <time>2019-06-15T10:53:32.100Z</time>
      </trkpt>
      <trkpt lat="44.9848" lon="5.42262">
        <ele>888</ele>
        <time>2019-06-15T10:53:33.100Z</time>
      </trkpt>
      <trkpt lat="44.98478" lon="5.42264">
        <ele>888</ele>
        <time>2019-06-15T10:53:34.100Z</time>
      </trkpt>
      <trkpt lat="44.98477" lon="5.42265">
        <ele>888</ele>
        <time>2019-06-15T10:53:35.100Z</time>
      </trkpt>
      <trkpt lat="44.98475" lon="5.42267">
        <ele>888</ele>
        <time>2019-06-15T10:53:36.100Z</time>
      </trkpt>
      <trkpt lat="44.98474" lon="5.42269">
        <ele>888</ele>
        <time>2019-06-15T10:53:37.100Z</time>
      </trkpt>
      <trkpt lat="44.98472" lon="5.42271">
        <ele>888</ele>
        <time>2019-06-15T10:53:38.100Z</time>
      </trkpt>
      <trkpt lat="44.9847" lon="5.42274">
        <ele>889</ele>
        <time>2019-06-15T10:53:39.100Z</time>
      </trkpt>
      <trkpt lat="44.98469" lon="5.42276">
        <ele>889</ele>
        <time>2019-06-15T10:53:40.100Z</time>
      </trkpt>
      <trkpt lat="44.98467" lon="5.42279">
        <ele>889</ele>
        <time>2019-06-15T10:53:41.100Z</time>
      </trkpt>
      <trkpt lat="44.98466" lon="5.42281">
        <ele>889</ele>
        <time>2019-06-15T10:53:42.100Z</time>
      </trkpt>
      <trkpt lat="44.98464" lon="5.42285">
        <ele>889</ele>
        <time>2019-06-15T10:53:43.100Z</time>
      </trkpt>
      <trkpt lat="44.98463" lon="5.42287">
        <ele>889</ele>
        <time>2019-06-15T10:53:44.100Z</time>
      </trkpt>
      <trkpt lat="44.98462" lon="5.4229">
        <ele>890</ele>
        <time>2019-06-15T10:53:45.100Z</time>
      </trkpt>
      <trkpt lat="44.9846" lon="5.42292">
        <ele>890</ele>
        <time>2019-06-15T10:53:46.100Z</time>
      </trkpt>
      <trkpt lat="44.98459" lon="5.42294">
        <ele>891</ele>
        <time>2019-06-15T10:53:47.100Z</time>
      </trkpt>
      <trkpt lat="44.98458" lon="5.42297">
        <ele>892</ele>
        <time>2019-06-15T10:53:48.100Z</time>
      </trkpt>
      <trkpt lat="44.98456" lon="5.42301">
        <ele>890</ele>
        <time>2019-06-15T10:53:49.100Z</time>
      </trkpt>
      <trkpt lat="44.98455" lon="5.42304">
        <ele>889</ele>
        <time>2019-06-15T10:53:50.100Z</time>
      </trkpt>
      <trkpt lat="44.98453" lon="5.42307">
        <ele>889</ele>
        <time>2019-06-15T10:53:51.100Z</time>
      </trkpt>
      <trkpt lat="44.98452" lon="5.42311">
        <ele>889</ele>
        <time>2019-06-15T10:53:52.100Z</time>
      </trkpt>
      <trkpt lat="44.98451" lon="5.42314">
        <ele>890</ele>
        <time>2019-06-15T10:53:53.100Z</time>
      </trkpt>
      <trkpt lat="44.9845" lon="5.42318">
        <ele>890</ele>
        <time>2019-06-15T10:53:54.100Z</time>
      </trkpt>
      <trkpt lat="44.9845" lon="5.42322">
        <ele>889</ele>
        <time>2019-06-15T10:53:55.100Z</time>
      </trkpt>
      <trkpt lat="44.9845" lon="5.42325">
        <ele>888</ele>
        <time>2019-06-15T10:53:56.100Z</time>
      </trkpt>
      <trkpt lat="44.9845" lon="5.4233">
        <ele>888</ele>
        <time>2019-06-15T10:53:57.100Z</time>
      </trkpt>
      <trkpt lat="44.9845" lon="5.42334">
        <ele>887</ele>
        <time>2019-06-15T10:53:58.100Z</time>
      </trkpt>
      <trkpt lat="44.9845" lon="5.42338">
        <ele>888</ele>
        <time>2019-06-15T10:53:59.100Z</time>
      </trkpt>
      <trkpt lat="44.98449" lon="5.42341">
        <ele>887</ele>
        <time>2019-06-15T10:54:00.100Z</time>
      </trkpt>
      <trkpt lat="44.98449" lon="5.42345">
        <ele>887</ele>
        <time>2019-06-15T10:54:01.100Z</time>
      </trkpt>
      <trkpt lat="44.98449" lon="5.42349">
        <ele>887</ele>
        <time>2019-06-15T10:54:02.100Z</time>
      </trkpt>
      <trkpt lat="44.98448" lon="5.42352">
        <ele>886</ele>
        <time>2019-06-15T10:54:03.100Z</time>
      </trkpt>
      <trkpt lat="44.98447" lon="5.42355">
        <ele>884</ele>
        <time>2019-06-15T10:54:04.100Z</time>
      </trkpt>
      <trkpt lat="44.98445" lon="5.42358">
        <ele>883</ele>
        <time>2019-06-15T10:54:05.100Z</time>
      </trkpt>
      <trkpt lat="44.98443" lon="5.42361">
        <ele>882</ele>
        <time>2019-06-15T10:54:06.100Z</time>
      </trkpt>
      <trkpt lat="44.98441" lon="5.42363">
        <ele>883</ele>
        <time>2019-06-15T10:54:07.100Z</time>
      </trkpt>
      <trkpt lat="44.98439" lon="5.42365">
        <ele>883</ele>
        <time>2019-06-15T10:54:08.100Z</time>
      </trkpt>
      <trkpt lat="44.98437" lon="5.42366">
        <ele>882</ele>
        <time>2019-06-15T10:54:09.100Z</time>
      </trkpt>
      <trkpt lat="44.98436" lon="5.42368">
        <ele>883</ele>
        <time>2019-06-15T10:54:10.100Z</time>
      </trkpt>
      <trkpt lat="44.98434" lon="5.42369">
        <ele>883</ele>
        <time>2019-06-15T10:54:11.100Z</time>
      </trkpt>
      <trkpt lat="44.98432" lon="5.42371">
        <ele>881</ele>
        <time>2019-06-15T10:54:12.100Z</time>
      </trkpt>
      <trkpt lat="44.9843" lon="5.42371">
        <ele>880</ele>
        <time>2019-06-15T10:54:13.100Z</time>
      </trkpt>
      <trkpt lat="44.98427" lon="5.42372">
        <ele>880</ele>
        <time>2019-06-15T10:54:14.100Z</time>
      </trkpt>
      <trkpt lat="44.98425" lon="5.42373">
        <ele>880</ele>
        <time>2019-06-15T10:54:15.100Z</time>
      </trkpt>
      <trkpt lat="44.98423" lon="5.42375">
        <ele>880</ele>
        <time>2019-06-15T10:54:16.100Z</time>
      </trkpt>
      <trkpt lat="44.98422" lon="5.42376">
        <ele>880</ele>
        <time>2019-06-15T10:54:17.100Z</time>
      </trkpt>
      <trkpt lat="44.9842" lon="5.42377">
        <ele>879</ele>
        <time>2019-06-15T10:54:18.100Z</time>
      </trkpt>
      <trkpt lat="44.98419" lon="5.42379">
        <ele>879</ele>
        <time>2019-06-15T10:54:19.100Z</time>
      </trkpt>
      <trkpt lat="44.98417" lon="5.4238">
        <ele>879</ele>
        <time>2019-06-15T10:54:20.100Z</time>
      </trkpt>
      <trkpt lat="44.98416" lon="5.42381">
        <ele>880</ele>
        <time>2019-06-15T10:54:21.100Z</time>
      </trkpt>
      <trkpt lat="44.98414" lon="5.42382">
        <ele>880</ele>
        <time>2019-06-15T10:54:22.100Z</time>
      </trkpt>
      <trkpt lat="44.98413" lon="5.42382">
        <ele>879</ele>
        <time>2019-06-15T10:54:23.100Z</time>
      </trkpt>
      <trkpt lat="44.98411" lon="5.42383">
        <ele>880</ele>
        <time>2019-06-15T10:54:24.100Z</time>
      </trkpt>
      <trkpt lat="44.98409" lon="5.42384">
        <ele>880</ele>
        <time>2019-06-15T10:54:25.100Z</time>
      </trkpt>
      <trkpt lat="44.98407" lon="5.42385">
        <ele>879</ele>
        <time>2019-06-15T10:54:26.100Z</time>
      </trkpt>
      <trkpt lat="44.98405" lon="5.42385">
        <ele>879</ele>
        <time>2019-06-15T10:54:27.100Z</time>
      </trkpt>
      <trkpt lat="44.98403" lon="5.42385">
        <ele>879</ele>
        <time>2019-06-15T10:54:28.100Z</time>
      </trkpt>
      <trkpt lat="44.98401" lon="5.42385">
        <ele>879</ele>
        <time>2019-06-15T10:54:29.100Z</time>
      </trkpt>
      <trkpt lat="44.98399" lon="5.42385">
        <ele>878</ele>
        <time>2019-06-15T10:54:30.100Z</time>
      </trkpt>
      <trkpt lat="44.98397" lon="5.42385">
        <ele>878</ele>
        <time>2019-06-15T10:54:31.100Z</time>
      </trkpt>
      <trkpt lat="44.98395" lon="5.42385">
        <ele>878</ele>
        <time>2019-06-15T10:54:32.100Z</time>
      </trkpt>
      <trkpt lat="44.98392" lon="5.42384">
        <ele>878</ele>
        <time>2019-06-15T10:54:33.100Z</time>
      </trkpt>
      <trkpt lat="44.9839" lon="5.42384">
        <ele>878</ele>
        <time>2019-06-15T10:54:34.100Z</time>
      </trkpt>
      <trkpt lat="44.98388" lon="5.42383">
        <ele>879</ele>
        <time>2019-06-15T10:54:35.100Z</time>
      </trkpt>
      <trkpt lat="44.98385" lon="5.42383">
        <ele>879</ele>
        <time>2019-06-15T10:54:36.100Z</time>
      </trkpt>
      <trkpt lat="44.98383" lon="5.42384">
        <ele>882</ele>
        <time>2019-06-15T10:54:37.100Z</time>
      </trkpt>
      <trkpt lat="44.98382" lon="5.42384">
        <ele>883</ele>
        <time>2019-06-15T10:54:38.100Z</time>
      </trkpt>
      <trkpt lat="44.98379" lon="5.42385">
        <ele>883</ele>
        <time>2019-06-15T10:54:39.100Z</time>
      </trkpt>
      <trkpt lat="44.98377" lon="5.42386">
        <ele>882</ele>
        <time>2019-06-15T10:54:40.100Z</time>
      </trkpt>
      <trkpt lat="44.98375" lon="5.42386">
        <ele>883</ele>
        <time>2019-06-15T10:54:41.100Z</time>
      </trkpt>
      <trkpt lat="44.98374" lon="5.42385">
        <ele>885</ele>
        <time>2019-06-15T10:54:42.100Z</time>
      </trkpt>
      <trkpt lat="44.98373" lon="5.42385">
        <ele>886</ele>
        <time>2019-06-15T10:54:43.100Z</time>
      </trkpt>
      <trkpt lat="44.98372" lon="5.42383">
        <ele>885</ele>
        <time>2019-06-15T10:54:44.100Z</time>
      </trkpt>
      <trkpt lat="44.98371" lon="5.42382">
        <ele>884</ele>
        <time>2019-06-15T10:54:45.100Z</time>
      </trkpt>
      <trkpt lat="44.9837" lon="5.42381">
        <ele>884</ele>
        <time>2019-06-15T10:54:46.100Z</time>
      </trkpt>
      <trkpt lat="44.98369" lon="5.4238">
        <ele>884</ele>
        <time>2019-06-15T10:54:47.100Z</time>
      </trkpt>
      <trkpt lat="44.98368" lon="5.42379">
        <ele>884</ele>
        <time>2019-06-15T10:54:48.100Z</time>
      </trkpt>
      <trkpt lat="44.98367" lon="5.42378">
        <ele>884</ele>
        <time>2019-06-15T10:54:49.100Z</time>
      </trkpt>
      <trkpt lat="44.98366" lon="5.42377">
        <ele>884</ele>
        <time>2019-06-15T10:54:50.100Z</time>
      </trkpt>
      <trkpt lat="44.98365" lon="5.42376">
        <ele>884</ele>
        <time>2019-06-15T10:54:51.100Z</time>
      </trkpt>
      <trkpt lat="44.98364" lon="5.42375">
        <ele>884</ele>
        <time>2019-06-15T10:54:52.100Z</time>
      </trkpt>
      <trkpt lat="44.98363" lon="5.42374">
        <ele>884</ele>
        <time>2019-06-15T10:54:53.100Z</time>
      </trkpt>
      <trkpt lat="44.98362" lon="5.42374">
        <ele>885</ele>
        <time>2019-06-15T10:54:54.100Z</time>
      </trkpt>
      <trkpt lat="44.98361" lon="5.42373">
        <ele>884</ele>
        <time>2019-06-15T10:54:55.100Z</time>
      </trkpt>
      <trkpt lat="44.9836" lon="5.42372">
        <ele>885</ele>
        <time>2019-06-15T10:54:56.100Z</time>
      </trkpt>
      <trkpt lat="44.98359" lon="5.42372">
        <ele>885</ele>
        <time>2019-06-15T10:54:57.100Z</time>
      </trkpt>
      <trkpt lat="44.98358" lon="5.42371">
        <ele>886</ele>
        <time>2019-06-15T10:54:58.100Z</time>
      </trkpt>
      <trkpt lat="44.98357" lon="5.42371">
        <ele>887</ele>
        <time>2019-06-15T10:54:59.100Z</time>
      </trkpt>
      <trkpt lat="44.98356" lon="5.4237">
        <ele>887</ele>
        <time>2019-06-15T10:55:00.100Z</time>
      </trkpt>
      <trkpt lat="44.98355" lon="5.4237">
        <ele>888</ele>
        <time>2019-06-15T10:55:01.100Z</time>
      </trkpt>
      <trkpt lat="44.98354" lon="5.42369">
        <ele>889</ele>
        <time>2019-06-15T10:55:02.100Z</time>
      </trkpt>
      <trkpt lat="44.98353" lon="5.42369">
        <ele>890</ele>
        <time>2019-06-15T10:55:03.100Z</time>
      </trkpt>
      <trkpt lat="44.98352" lon="5.42368">
        <ele>888</ele>
        <time>2019-06-15T10:55:04.100Z</time>
      </trkpt>
      <trkpt lat="44.98351" lon="5.42367">
        <ele>888</ele>
        <time>2019-06-15T10:55:05.100Z</time>
      </trkpt>
      <trkpt lat="44.98349" lon="5.42366">
        <ele>889</ele>
        <time>2019-06-15T10:55:06.100Z</time>
      </trkpt>
      <trkpt lat="44.98348" lon="5.42365">
        <ele>889</ele>
        <time>2019-06-15T10:55:07.100Z</time>
      </trkpt>
      <trkpt lat="44.98347" lon="5.42364">
        <ele>890</ele>
        <time>2019-06-15T10:55:08.100Z</time>
      </trkpt>
      <trkpt lat="44.98346" lon="5.42364">
        <ele>889</ele>
        <time>2019-06-15T10:55:09.100Z</time>
      </trkpt>
      <trkpt lat="44.98344" lon="5.42363">
        <ele>888</ele>
        <time>2019-06-15T10:55:10.100Z</time>
      </trkpt>
      <trkpt lat="44.98342" lon="5.42362">
        <ele>888</ele>
        <time>2019-06-15T10:55:11.100Z</time>
      </trkpt>
      <trkpt lat="44.98341" lon="5.42361">
        <ele>888</ele>
        <time>2019-06-15T10:55:12.100Z</time>
      </trkpt>
      <trkpt lat="44.9834" lon="5.42361">
        <ele>887</ele>
        <time>2019-06-15T10:55:13.100Z</time>
      </trkpt>
      <trkpt lat="44.98338" lon="5.4236">
        <ele>887</ele>
        <time>2019-06-15T10:55:14.100Z</time>
      </trkpt>
      <trkpt lat="44.98337" lon="5.42359">
        <ele>888</ele>
        <time>2019-06-15T10:55:15.100Z</time>
      </trkpt>
      <trkpt lat="44.98336" lon="5.42358">
        <ele>889</ele>
        <time>2019-06-15T10:55:16.100Z</time>
      </trkpt>
      <trkpt lat="44.98335" lon="5.42357">
        <ele>889</ele>
        <time>2019-06-15T10:55:17.100Z</time>
      </trkpt>
      <trkpt lat="44.98334" lon="5.42355">
        <ele>890</ele>
        <time>2019-06-15T10:55:18.100Z</time>
      </trkpt>
      <trkpt lat="44.98334" lon="5.42353">
        <ele>889</ele>
        <time>2019-06-15T10:55:19.100Z</time>
      </trkpt>
      <trkpt lat="44.98333" lon="5.42352">
        <ele>890</ele>
        <time>2019-06-15T10:55:20.100Z</time>
      </trkpt>
      <trkpt lat="44.98332" lon="5.4235">
        <ele>890</ele>
        <time>2019-06-15T10:55:21.100Z</time>
      </trkpt>
      <trkpt lat="44.98332" lon="5.42349">
        <ele>891</ele>
        <time>2019-06-15T10:55:22.100Z</time>
      </trkpt>
      <trkpt lat="44.98331" lon="5.42347">
        <ele>892</ele>
        <time>2019-06-15T10:55:23.100Z</time>
      </trkpt>
      <trkpt lat="44.98331" lon="5.42346">
        <ele>893</ele>
        <time>2019-06-15T10:55:24.100Z</time>
      </trkpt>
      <trkpt lat="44.9833" lon="5.42344">
        <ele>895</ele>
        <time>2019-06-15T10:55:25.100Z</time>
      </trkpt>
      <trkpt lat="44.98329" lon="5.42343">
        <ele>895</ele>
        <time>2019-06-15T10:55:26.100Z</time>
      </trkpt>
      <trkpt lat="44.98329" lon="5.42342">
        <ele>896</ele>
        <time>2019-06-15T10:55:27.100Z</time>
      </trkpt>
      <trkpt lat="44.98328" lon="5.42341">
        <ele>897</ele>
        <time>2019-06-15T10:55:28.100Z</time>
      </trkpt>
      <trkpt lat="44.98328" lon="5.42339">
        <ele>898</ele>
        <time>2019-06-15T10:55:29.100Z</time>
      </trkpt>
      <trkpt lat="44.98327" lon="5.42338">
        <ele>898</ele>
        <time>2019-06-15T10:55:30.100Z</time>
      </trkpt>
      <trkpt lat="44.98327" lon="5.42336">
        <ele>898</ele>
        <time>2019-06-15T10:55:31.100Z</time>
      </trkpt>
      <trkpt lat="44.98326" lon="5.42334">
        <ele>898</ele>
        <time>2019-06-15T10:55:32.100Z</time>
      </trkpt>
      <trkpt lat="44.98326" lon="5.42332">
        <ele>898</ele>
        <time>2019-06-15T10:55:33.100Z</time>
      </trkpt>
      <trkpt lat="44.98326" lon="5.42331">
        <ele>898</ele>
        <time>2019-06-15T10:55:34.100Z</time>
      </trkpt>
      <trkpt lat="44.98325" lon="5.42329">
        <ele>898</ele>
        <time>2019-06-15T10:55:35.100Z</time>
      </trkpt>
      <trkpt lat="44.98323" lon="5.42328">
        <ele>899</ele>
        <time>2019-06-15T10:55:36.100Z</time>
      </trkpt>
      <trkpt lat="44.98321" lon="5.42326">
        <ele>899</ele>
        <time>2019-06-15T10:55:37.100Z</time>
      </trkpt>
      <trkpt lat="44.9832" lon="5.42324">
        <ele>898</ele>
        <time>2019-06-15T10:55:38.100Z</time>
      </trkpt>
      <trkpt lat="44.98318" lon="5.42321">
        <ele>898</ele>
        <time>2019-06-15T10:55:39.100Z</time>
      </trkpt>
      <trkpt lat="44.98317" lon="5.42319">
        <ele>897</ele>
        <time>2019-06-15T10:55:40.100Z</time>
      </trkpt>
      <trkpt lat="44.98316" lon="5.42316">
        <ele>897</ele>
        <time>2019-06-15T10:55:41.100Z</time>
      </trkpt>
      <trkpt lat="44.98315" lon="5.42314">
        <ele>897</ele>
        <time>2019-06-15T10:55:42.100Z</time>
      </trkpt>
      <trkpt lat="44.98314" lon="5.42312">
        <ele>898</ele>
        <time>2019-06-15T10:55:43.100Z</time>
      </trkpt>
      <trkpt lat="44.98313" lon="5.4231">
        <ele>898</ele>
        <time>2019-06-15T10:55:44.100Z</time>
      </trkpt>
      <trkpt lat="44.98312" lon="5.42308">
        <ele>899</ele>
        <time>2019-06-15T10:55:45.100Z</time>
      </trkpt>
      <trkpt lat="44.98311" lon="5.42305">
        <ele>900</ele>
        <time>2019-06-15T10:55:46.100Z</time>
      </trkpt>
      <trkpt lat="44.9831" lon="5.42303">
        <ele>901</ele>
        <time>2019-06-15T10:55:47.100Z</time>
      </trkpt>
      <trkpt lat="44.98309" lon="5.42302">
        <ele>901</ele>
        <time>2019-06-15T10:55:48.100Z</time>
      </trkpt>
      <trkpt lat="44.98308" lon="5.423">
        <ele>901</ele>
        <time>2019-06-15T10:55:49.100Z</time>
      </trkpt>
      <trkpt lat="44.98307" lon="5.42299">
        <ele>901</ele>
        <time>2019-06-15T10:55:50.100Z</time>
      </trkpt>
      <trkpt lat="44.98306" lon="5.42297">
        <ele>901</ele>
        <time>2019-06-15T10:55:51.100Z</time>
      </trkpt>
      <trkpt lat="44.98304" lon="5.42296">
        <ele>901</ele>
        <time>2019-06-15T10:55:52.100Z</time>
      </trkpt>
      <trkpt lat="44.98303" lon="5.42295">
        <ele>900</ele>
        <time>2019-06-15T10:55:53.100Z</time>
      </trkpt>
      <trkpt lat="44.98301" lon="5.42294">
        <ele>899</ele>
        <time>2019-06-15T10:55:54.100Z</time>
      </trkpt>
      <trkpt lat="44.983" lon="5.42294">
        <ele>899</ele>
        <time>2019-06-15T10:55:55.100Z</time>
      </trkpt>
      <trkpt lat="44.98298" lon="5.42293">
        <ele>899</ele>
        <time>2019-06-15T10:55:56.100Z</time>
      </trkpt>
      <trkpt lat="44.98296" lon="5.42293">
        <ele>900</ele>
        <time>2019-06-15T10:55:57.100Z</time>
      </trkpt>
      <trkpt lat="44.98294" lon="5.42293">
        <ele>900</ele>
        <time>2019-06-15T10:55:58.100Z</time>
      </trkpt>
      <trkpt lat="44.98292" lon="5.42293">
        <ele>900</ele>
        <time>2019-06-15T10:55:59.100Z</time>
      </trkpt>
      <trkpt lat="44.9829" lon="5.42293">
        <ele>900</ele>
        <time>2019-06-15T10:56:00.100Z</time>
      </trkpt>
      <trkpt lat="44.98288" lon="5.42292">
        <ele>900</ele>
        <time>2019-06-15T10:56:01.100Z</time>
      </trkpt>
      <trkpt lat="44.98286" lon="5.42292">
        <ele>900</ele>
        <time>2019-06-15T10:56:02.100Z</time>
      </trkpt>
      <trkpt lat="44.98284" lon="5.42292">
        <ele>899</ele>
        <time>2019-06-15T10:56:03.100Z</time>
      </trkpt>
      <trkpt lat="44.98282" lon="5.42293">
        <ele>900</ele>
        <time>2019-06-15T10:56:04.100Z</time>
      </trkpt>
      <trkpt lat="44.9828" lon="5.42292">
        <ele>900</ele>
        <time>2019-06-15T10:56:05.100Z</time>
      </trkpt>
      <trkpt lat="44.98279" lon="5.42292">
        <ele>900</ele>
        <time>2019-06-15T10:56:06.100Z</time>
      </trkpt>
      <trkpt lat="44.98277" lon="5.42291">
        <ele>899</ele>
        <time>2019-06-15T10:56:07.100Z</time>
      </trkpt>
      <trkpt lat="44.98275" lon="5.42292">
        <ele>899</ele>
        <time>2019-06-15T10:56:08.100Z</time>
      </trkpt>
      <trkpt lat="44.98273" lon="5.42292">
        <ele>899</ele>
        <time>2019-06-15T10:56:09.100Z</time>
      </trkpt>
      <trkpt lat="44.98271" lon="5.42292">
        <ele>898</ele>
        <time>2019-06-15T10:56:10.100Z</time>
      </trkpt>
      <trkpt lat="44.9827" lon="5.42292">
        <ele>898</ele>
        <time>2019-06-15T10:56:11.100Z</time>
      </trkpt>
      <trkpt lat="44.98268" lon="5.42292">
        <ele>896</ele>
        <time>2019-06-15T10:56:12.100Z</time>
      </trkpt>
      <trkpt lat="44.98266" lon="5.42293">
        <ele>897</ele>
        <time>2019-06-15T10:56:13.100Z</time>
      </trkpt>
      <trkpt lat="44.98264" lon="5.42292">
        <ele>894</ele>
        <time>2019-06-15T10:56:14.100Z</time>
      </trkpt>
      <trkpt lat="44.98262" lon="5.42292">
        <ele>895</ele>
        <time>2019-06-15T10:56:15.100Z</time>
      </trkpt>
      <trkpt lat="44.9826" lon="5.42292">
        <ele>895</ele>
        <time>2019-06-15T10:56:16.100Z</time>
      </trkpt>
      <trkpt lat="44.98258" lon="5.42293">
        <ele>896</ele>
        <time>2019-06-15T10:56:17.100Z</time>
      </trkpt>
      <trkpt lat="44.98257" lon="5.42293">
        <ele>897</ele>
        <time>2019-06-15T10:56:18.100Z</time>
      </trkpt>
      <trkpt lat="44.98256" lon="5.42293">
        <ele>896</ele>
        <time>2019-06-15T10:56:19.100Z</time>
      </trkpt>
      <trkpt lat="44.98255" lon="5.42293">
        <ele>897</ele>
        <time>2019-06-15T10:56:20.100Z</time>
      </trkpt>
      <trkpt lat="44.98253" lon="5.42294">
        <ele>899</ele>
        <time>2019-06-15T10:56:21.100Z</time>
      </trkpt>
      <trkpt lat="44.98252" lon="5.42295">
        <ele>901</ele>
        <time>2019-06-15T10:56:22.100Z</time>
      </trkpt>
      <trkpt lat="44.9825" lon="5.42296">
        <ele>901</ele>
        <time>2019-06-15T10:56:23.100Z</time>
      </trkpt>
      <trkpt lat="44.98249" lon="5.42296">
        <ele>902</ele>
        <time>2019-06-15T10:56:24.100Z</time>
      </trkpt>
      <trkpt lat="44.98248" lon="5.42296">
        <ele>904</ele>
        <time>2019-06-15T10:56:25.100Z</time>
      </trkpt>
      <trkpt lat="44.98247" lon="5.42296">
        <ele>904</ele>
        <time>2019-06-15T10:56:26.100Z</time>
      </trkpt>
      <trkpt lat="44.98246" lon="5.42296">
        <ele>904</ele>
        <time>2019-06-15T10:56:27.100Z</time>
      </trkpt>
      <trkpt lat="44.98244" lon="5.42296">
        <ele>904</ele>
        <time>2019-06-15T10:56:28.100Z</time>
      </trkpt>
      <trkpt lat="44.98243" lon="5.42297">
        <ele>905</ele>
        <time>2019-06-15T10:56:29.100Z</time>
      </trkpt>
      <trkpt lat="44.98242" lon="5.42297">
        <ele>905</ele>
        <time>2019-06-15T10:56:30.100Z</time>
      </trkpt>
      <trkpt lat="44.98241" lon="5.42298">
        <ele>905</ele>
        <time>2019-06-15T10:56:31.100Z</time>
      </trkpt>
      <trkpt lat="44.9824" lon="5.42298">
        <ele>905</ele>
        <time>2019-06-15T10:56:32.100Z</time>
      </trkpt>
      <trkpt lat="44.98239" lon="5.42298">
        <ele>905</ele>
        <time>2019-06-15T10:56:33.100Z</time>
      </trkpt>
      <trkpt lat="44.98238" lon="5.42298">
        <ele>905</ele>
        <time>2019-06-15T10:56:34.100Z</time>
      </trkpt>
      <trkpt lat="44.98238" lon="5.42299">
        <ele>905</ele>
        <time>2019-06-15T10:56:35.100Z</time>
      </trkpt>
      <trkpt lat="44.98237" lon="5.42299">
        <ele>906</ele>
        <time>2019-06-15T10:56:36.100Z</time>
      </trkpt>
      <trkpt lat="44.98236" lon="5.42299">
        <ele>906</ele>
        <time>2019-06-15T10:56:37.100Z</time>
      </trkpt>
      <trkpt lat="44.98235" lon="5.42299">
        <ele>907</ele>
        <time>2019-06-15T10:56:38.100Z</time>
      </trkpt>
      <trkpt lat="44.98234" lon="5.42299">
        <ele>907</ele>
        <time>2019-06-15T10:56:39.100Z</time>
      </trkpt>
      <trkpt lat="44.98233" lon="5.423">
        <ele>907</ele>
        <time>2019-06-15T10:56:40.100Z</time>
      </trkpt>
      <trkpt lat="44.98232" lon="5.423">
        <ele>906</ele>
        <time>2019-06-15T10:56:41.100Z</time>
      </trkpt>
      <trkpt lat="44.9823" lon="5.423">
        <ele>905</ele>
        <time>2019-06-15T10:56:42.100Z</time>
      </trkpt>
      <trkpt lat="44.98229" lon="5.42301">
        <ele>906</ele>
        <time>2019-06-15T10:56:43.100Z</time>
      </trkpt>
      <trkpt lat="44.98227" lon="5.42301">
        <ele>905</ele>
        <time>2019-06-15T10:56:44.100Z</time>
      </trkpt>
      <trkpt lat="44.98225" lon="5.42302">
        <ele>905</ele>
        <time>2019-06-15T10:56:45.100Z</time>
      </trkpt>
      <trkpt lat="44.98224" lon="5.42302">
        <ele>906</ele>
        <time>2019-06-15T10:56:46.100Z</time>
      </trkpt>
      <trkpt lat="44.98222" lon="5.42301">
        <ele>905</ele>
        <time>2019-06-15T10:56:47.100Z</time>
      </trkpt>
      <trkpt lat="44.98221" lon="5.42301">
        <ele>904</ele>
        <time>2019-06-15T10:56:48.100Z</time>
      </trkpt>
      <trkpt lat="44.9822" lon="5.42301">
        <ele>905</ele>
        <time>2019-06-15T10:56:49.100Z</time>
      </trkpt>
      <trkpt lat="44.98218" lon="5.42301">
        <ele>905</ele>
        <time>2019-06-15T10:56:50.100Z</time>
      </trkpt>
      <trkpt lat="44.98217" lon="5.423">
        <ele>905</ele>
        <time>2019-06-15T10:56:51.100Z</time>
      </trkpt>
      <trkpt lat="44.98216" lon="5.42301">
        <ele>905</ele>
        <time>2019-06-15T10:56:52.100Z</time>
      </trkpt>
      <trkpt lat="44.98215" lon="5.42302">
        <ele>905</ele>
        <time>2019-06-15T10:56:53.100Z</time>
      </trkpt>
      <trkpt lat="44.98214" lon="5.42302">
        <ele>905</ele>
        <time>2019-06-15T10:56:54.100Z</time>
      </trkpt>
      <trkpt lat="44.98213" lon="5.42302">
        <ele>905</ele>
        <time>2019-06-15T10:56:55.100Z</time>
      </trkpt>
      <trkpt lat="44.98212" lon="5.42303">
        <ele>906</ele>
        <time>2019-06-15T10:56:56.100Z</time>
      </trkpt>
      <trkpt lat="44.9821" lon="5.42303">
        <ele>906</ele>
        <time>2019-06-15T10:56:57.100Z</time>
      </trkpt>
      <trkpt lat="44.98209" lon="5.42303">
        <ele>907</ele>
        <time>2019-06-15T10:56:58.100Z</time>
      </trkpt>
      <trkpt lat="44.98208" lon="5.42303">
        <ele>908</ele>
        <time>2019-06-15T10:56:59.100Z</time>
      </trkpt>
      <trkpt lat="44.98207" lon="5.42303">
        <ele>908</ele>
        <time>2019-06-15T10:57:00.100Z</time>
      </trkpt>
      <trkpt lat="44.98206" lon="5.42304">
        <ele>908</ele>
        <time>2019-06-15T10:57:01.100Z</time>
      </trkpt>
      <trkpt lat="44.98205" lon="5.42305">
        <ele>909</ele>
        <time>2019-06-15T10:57:02.100Z</time>
      </trkpt>
      <trkpt lat="44.98204" lon="5.42306">
        <ele>910</ele>
        <time>2019-06-15T10:57:03.100Z</time>
      </trkpt>
      <trkpt lat="44.98203" lon="5.42306">
        <ele>911</ele>
        <time>2019-06-15T10:57:04.100Z</time>
      </trkpt>
      <trkpt lat="44.98202" lon="5.42307">
        <ele>911</ele>
        <time>2019-06-15T10:57:05.100Z</time>
      </trkpt>
      <trkpt lat="44.98201" lon="5.42307">
        <ele>910</ele>
        <time>2019-06-15T10:57:06.100Z</time>
      </trkpt>
      <trkpt lat="44.98199" lon="5.42308">
        <ele>909</ele>
        <time>2019-06-15T10:57:07.100Z</time>
      </trkpt>
      <trkpt lat="44.98198" lon="5.42308">
        <ele>910</ele>
        <time>2019-06-15T10:57:08.100Z</time>
      </trkpt>
      <trkpt lat="44.98196" lon="5.42308">
        <ele>911</ele>
        <time>2019-06-15T10:57:09.100Z</time>
      </trkpt>
      <trkpt lat="44.98194" lon="5.42308">
        <ele>911</ele>
        <time>2019-06-15T10:57:10.100Z</time>
      </trkpt>
      <trkpt lat="44.98192" lon="5.42308">
        <ele>911</ele>
        <time>2019-06-15T10:57:11.100Z</time>
      </trkpt>
      <trkpt lat="44.9819" lon="5.42308">
        <ele>911</ele>
        <time>2019-06-15T10:57:12.100Z</time>
      </trkpt>
      <trkpt lat="44.98188" lon="5.42308">
        <ele>912</ele>
        <time>2019-06-15T10:57:13.100Z</time>
      </trkpt>
      <trkpt lat="44.98186" lon="5.42308">
        <ele>912</ele>
        <time>2019-06-15T10:57:14.100Z</time>
      </trkpt>
      <trkpt lat="44.98183" lon="5.42308">
        <ele>912</ele>
        <time>2019-06-15T10:57:15.100Z</time>
      </trkpt>
      <trkpt lat="44.98181" lon="5.42308">
        <ele>913</ele>
        <time>2019-06-15T10:57:16.100Z</time>
      </trkpt>
      <trkpt lat="44.98179" lon="5.42309">
        <ele>914</ele>
        <time>2019-06-15T10:57:17.100Z</time>
      </trkpt>
      <trkpt lat="44.98177" lon="5.42309">
        <ele>914</ele>
        <time>2019-06-15T10:57:18.100Z</time>
      </trkpt>
      <trkpt lat="44.98175" lon="5.42309">
        <ele>914</ele>
        <time>2019-06-15T10:57:19.100Z</time>
      </trkpt>
      <trkpt lat="44.98173" lon="5.42308">
        <ele>914</ele>
        <time>2019-06-15T10:57:20.100Z</time>
      </trkpt>
      <trkpt lat="44.9817" lon="5.42307">
        <ele>912</ele>
        <time>2019-06-15T10:57:21.100Z</time>
      </trkpt>
      <trkpt lat="44.98167" lon="5.42307">
        <ele>910</ele>
        <time>2019-06-15T10:57:22.100Z</time>
      </trkpt>
      <trkpt lat="44.98165" lon="5.42307">
        <ele>910</ele>
        <time>2019-06-15T10:57:23.100Z</time>
      </trkpt>
      <trkpt lat="44.98162" lon="5.42306">
        <ele>911</ele>
        <time>2019-06-15T10:57:24.100Z</time>
      </trkpt>
      <trkpt lat="44.9816" lon="5.42305">
        <ele>910</ele>
        <time>2019-06-15T10:57:25.100Z</time>
      </trkpt>
      <trkpt lat="44.98158" lon="5.42304">
        <ele>910</ele>
        <time>2019-06-15T10:57:26.100Z</time>
      </trkpt>
      <trkpt lat="44.98156" lon="5.42304">
        <ele>910</ele>
        <time>2019-06-15T10:57:27.100Z</time>
      </trkpt>
      <trkpt lat="44.98154" lon="5.42303">
        <ele>910</ele>
        <time>2019-06-15T10:57:28.100Z</time>
      </trkpt>
      <trkpt lat="44.98152" lon="5.42302">
        <ele>909</ele>
        <time>2019-06-15T10:57:29.100Z</time>
      </trkpt>
      <trkpt lat="44.9815" lon="5.42301">
        <ele>909</ele>
        <time>2019-06-15T10:57:30.100Z</time>
      </trkpt>
      <trkpt lat="44.98148" lon="5.423">
        <ele>907</ele>
        <time>2019-06-15T10:57:31.100Z</time>
      </trkpt>
      <trkpt lat="44.98146" lon="5.42299">
        <ele>906</ele>
        <time>2019-06-15T10:57:32.100Z</time>
      </trkpt>
      <trkpt lat="44.98143" lon="5.42297">
        <ele>905</ele>
        <time>2019-06-15T10:57:33.100Z</time>
      </trkpt>
      <trkpt lat="44.98141" lon="5.42297">
        <ele>906</ele>
        <time>2019-06-15T10:57:34.100Z</time>
      </trkpt>
      <trkpt lat="44.98139" lon="5.42295">
        <ele>905</ele>
        <time>2019-06-15T10:57:35.100Z</time>
      </trkpt>
      <trkpt lat="44.98137" lon="5.42293">
        <ele>903</ele>
        <time>2019-06-15T10:57:36.100Z</time>
      </trkpt>
      <trkpt lat="44.98135" lon="5.42291">
        <ele>902</ele>
        <time>2019-06-15T10:57:37.100Z</time>
      </trkpt>
      <trkpt lat="44.98134" lon="5.42288">
        <ele>901</ele>
        <time>2019-06-15T10:57:38.100Z</time>
      </trkpt>
      <trkpt lat="44.98132" lon="5.42285">
        <ele>903</ele>
        <time>2019-06-15T10:57:39.100Z</time>
      </trkpt>
      <trkpt lat="44.98131" lon="5.42283">
        <ele>903</ele>
        <time>2019-06-15T10:57:40.100Z</time>
      </trkpt>
      <trkpt lat="44.98129" lon="5.4228">
        <ele>903</ele>
        <time>2019-06-15T10:57:41.100Z</time>
      </trkpt>
      <trkpt lat="44.98127" lon="5.42278">
        <ele>904</ele>
        <time>2019-06-15T10:57:42.100Z</time>
      </trkpt>
      <trkpt lat="44.98125" lon="5.42276">
        <ele>904</ele>
        <time>2019-06-15T10:57:43.100Z</time>
      </trkpt>
      <trkpt lat="44.98124" lon="5.42275">
        <ele>905</ele>
        <time>2019-06-15T10:57:44.100Z</time>
      </trkpt>
      <trkpt lat="44.98122" lon="5.42274">
        <ele>905</ele>
        <time>2019-06-15T10:57:45.100Z</time>
      </trkpt>
      <trkpt lat="44.9812" lon="5.42273">
        <ele>905</ele>
        <time>2019-06-15T10:57:46.100Z</time>
      </trkpt>
      <trkpt lat="44.98118" lon="5.42273">
        <ele>905</ele>
        <time>2019-06-15T10:57:47.100Z</time>
      </trkpt>
      <trkpt lat="44.98116" lon="5.42272">
        <ele>905</ele>
        <time>2019-06-15T10:57:48.100Z</time>
      </trkpt>
      <trkpt lat="44.98114" lon="5.42271">
        <ele>905</ele>
        <time>2019-06-15T10:57:49.100Z</time>
      </trkpt>
      <trkpt lat="44.98112" lon="5.42271">
        <ele>906</ele>
        <time>2019-06-15T10:57:50.100Z</time>
      </trkpt>
      <trkpt lat="44.9811" lon="5.42271">
        <ele>906</ele>
        <time>2019-06-15T10:57:51.100Z</time>
      </trkpt>
      <trkpt lat="44.98108" lon="5.42271">
        <ele>906</ele>
        <time>2019-06-15T10:57:52.100Z</time>
      </trkpt>
      <trkpt lat="44.98106" lon="5.4227">
        <ele>907</ele>
        <time>2019-06-15T10:57:53.100Z</time>
      </trkpt>
      <trkpt lat="44.98104" lon="5.42269">
        <ele>907</ele>
        <time>2019-06-15T10:57:54.100Z</time>
      </trkpt>
      <trkpt lat="44.98102" lon="5.42267">
        <ele>906</ele>
        <time>2019-06-15T10:57:55.100Z</time>
      </trkpt>
      <trkpt lat="44.98101" lon="5.42266">
        <ele>907</ele>
        <time>2019-06-15T10:57:56.100Z</time>
      </trkpt>
      <trkpt lat="44.98099" lon="5.42265">
        <ele>907</ele>
        <time>2019-06-15T10:57:57.100Z</time>
      </trkpt>
      <trkpt lat="44.98098" lon="5.42264">
        <ele>907</ele>
        <time>2019-06-15T10:57:58.100Z</time>
      </trkpt>
      <trkpt lat="44.98096" lon="5.42263">
        <ele>908</ele>
        <time>2019-06-15T10:57:59.100Z</time>
      </trkpt>
      <trkpt lat="44.98094" lon="5.42262">
        <ele>908</ele>
        <time>2019-06-15T10:58:00.100Z</time>
      </trkpt>
      <trkpt lat="44.98092" lon="5.42261">
        <ele>908</ele>
        <time>2019-06-15T10:58:01.100Z</time>
      </trkpt>
      <trkpt lat="44.9809" lon="5.4226">
        <ele>908</ele>
        <time>2019-06-15T10:58:02.100Z</time>
      </trkpt>
      <trkpt lat="44.98087" lon="5.4226">
        <ele>907</ele>
        <time>2019-06-15T10:58:03.100Z</time>
      </trkpt>
      <trkpt lat="44.98085" lon="5.42259">
        <ele>908</ele>
        <time>2019-06-15T10:58:04.100Z</time>
      </trkpt>
      <trkpt lat="44.98084" lon="5.42259">
        <ele>908</ele>
        <time>2019-06-15T10:58:05.100Z</time>
      </trkpt>
      <trkpt lat="44.98082" lon="5.42259">
        <ele>908</ele>
        <time>2019-06-15T10:58:06.100Z</time>
      </trkpt>
      <trkpt lat="44.9808" lon="5.42259">
        <ele>908</ele>
        <time>2019-06-15T10:58:07.100Z</time>
      </trkpt>
      <trkpt lat="44.98078" lon="5.42259">
        <ele>909</ele>
        <time>2019-06-15T10:58:08.100Z</time>
      </trkpt>
      <trkpt lat="44.98076" lon="5.42261">
        <ele>910</ele>
        <time>2019-06-15T10:58:09.100Z</time>
      </trkpt>
      <trkpt lat="44.98074" lon="5.42264">
        <ele>912</ele>
        <time>2019-06-15T10:58:10.100Z</time>
      </trkpt>
      <trkpt lat="44.98072" lon="5.42266">
        <ele>912</ele>
        <time>2019-06-15T10:58:11.100Z</time>
      </trkpt>
      <trkpt lat="44.9807" lon="5.42268">
        <ele>913</ele>
        <time>2019-06-15T10:58:12.100Z</time>
      </trkpt>
      <trkpt lat="44.98067" lon="5.4227">
        <ele>917</ele>
        <time>2019-06-15T10:58:13.100Z</time>
      </trkpt>
      <trkpt lat="44.98065" lon="5.42271">
        <ele>918</ele>
        <time>2019-06-15T10:58:14.100Z</time>
      </trkpt>
      <trkpt lat="44.98063" lon="5.42273">
        <ele>921</ele>
        <time>2019-06-15T10:58:15.100Z</time>
      </trkpt>
      <trkpt lat="44.98061" lon="5.42275">
        <ele>922</ele>
        <time>2019-06-15T10:58:16.100Z</time>
      </trkpt>
      <trkpt lat="44.98059" lon="5.42276">
        <ele>922</ele>
        <time>2019-06-15T10:58:17.100Z</time>
      </trkpt>
      <trkpt lat="44.98056" lon="5.42277">
        <ele>922</ele>
        <time>2019-06-15T10:58:18.100Z</time>
      </trkpt>
      <trkpt lat="44.98054" lon="5.42278">
        <ele>923</ele>
        <time>2019-06-15T10:58:19.100Z</time>
      </trkpt>
      <trkpt lat="44.98052" lon="5.42279">
        <ele>923</ele>
        <time>2019-06-15T10:58:20.100Z</time>
      </trkpt>
      <trkpt lat="44.9805" lon="5.4228">
        <ele>923</ele>
        <time>2019-06-15T10:58:21.100Z</time>
      </trkpt>
      <trkpt lat="44.98048" lon="5.42281">
        <ele>923</ele>
        <time>2019-06-15T10:58:22.100Z</time>
      </trkpt>
      <trkpt lat="44.98046" lon="5.42282">
        <ele>925</ele>
        <time>2019-06-15T10:58:23.100Z</time>
      </trkpt>
      <trkpt lat="44.98043" lon="5.42283">
        <ele>924</ele>
        <time>2019-06-15T10:58:24.100Z</time>
      </trkpt>
      <trkpt lat="44.9804" lon="5.42282">
        <ele>925</ele>
        <time>2019-06-15T10:58:25.100Z</time>
      </trkpt>
      <trkpt lat="44.98038" lon="5.42282">
        <ele>925</ele>
        <time>2019-06-15T10:58:26.100Z</time>
      </trkpt>
      <trkpt lat="44.98036" lon="5.42281">
        <ele>926</ele>
        <time>2019-06-15T10:58:27.100Z</time>
      </trkpt>
      <trkpt lat="44.98034" lon="5.42281">
        <ele>926</ele>
        <time>2019-06-15T10:58:28.100Z</time>
      </trkpt>
      <trkpt lat="44.98032" lon="5.42281">
        <ele>927</ele>
        <time>2019-06-15T10:58:29.100Z</time>
      </trkpt>
      <trkpt lat="44.9803" lon="5.42281">
        <ele>928</ele>
        <time>2019-06-15T10:58:30.100Z</time>
      </trkpt>
      <trkpt lat="44.98029" lon="5.42281">
        <ele>929</ele>
        <time>2019-06-15T10:58:31.100Z</time>
      </trkpt>
      <trkpt lat="44.98027" lon="5.42281">
        <ele>929</ele>
        <time>2019-06-15T10:58:32.100Z</time>
      </trkpt>
      <trkpt lat="44.98026" lon="5.4228">
        <ele>930</ele>
        <time>2019-06-15T10:58:33.100Z</time>
      </trkpt>
      <trkpt lat="44.98024" lon="5.42279">
        <ele>930</ele>
        <time>2019-06-15T10:58:34.100Z</time>
      </trkpt>
      <trkpt lat="44.98022" lon="5.42279">
        <ele>929</ele>
        <time>2019-06-15T10:58:35.100Z</time>
      </trkpt>
      <trkpt lat="44.9802" lon="5.42278">
        <ele>929</ele>
        <time>2019-06-15T10:58:36.100Z</time>
      </trkpt>
      <trkpt lat="44.98018" lon="5.42277">
        <ele>930</ele>
        <time>2019-06-15T10:58:37.100Z</time>
      </trkpt>
      <trkpt lat="44.98016" lon="5.42277">
        <ele>930</ele>
        <time>2019-06-15T10:58:38.100Z</time>
      </trkpt>
      <trkpt lat="44.98014" lon="5.42276">
        <ele>930</ele>
        <time>2019-06-15T10:58:39.100Z</time>
      </trkpt>
      <trkpt lat="44.98013" lon="5.42276">
        <ele>929</ele>
        <time>2019-06-15T10:58:40.100Z</time>
      </trkpt>
      <trkpt lat="44.98011" lon="5.42275">
        <ele>930</ele>
        <time>2019-06-15T10:58:41.100Z</time>
      </trkpt>
      <trkpt lat="44.98009" lon="5.42275">
        <ele>930</ele>
        <time>2019-06-15T10:58:42.100Z</time>
      </trkpt>
      <trkpt lat="44.98007" lon="5.42275">
        <ele>931</ele>
        <time>2019-06-15T10:58:43.100Z</time>
      </trkpt>
      <trkpt lat="44.98005" lon="5.42275">
        <ele>932</ele>
        <time>2019-06-15T10:58:44.100Z</time>
      </trkpt>
      <trkpt lat="44.98003" lon="5.42275">
        <ele>931</ele>
        <time>2019-06-15T10:58:45.100Z</time>
      </trkpt>
      <trkpt lat="44.98001" lon="5.42275">
        <ele>930</ele>
        <time>2019-06-15T10:58:46.100Z</time>
      </trkpt>
      <trkpt lat="44.97998" lon="5.42275">
        <ele>928</ele>
        <time>2019-06-15T10:58:47.100Z</time>
      </trkpt>
      <trkpt lat="44.97995" lon="5.42275">
        <ele>928</ele>
        <time>2019-06-15T10:58:48.100Z</time>
      </trkpt>
      <trkpt lat="44.97992" lon="5.42275">
        <ele>928</ele>
        <time>2019-06-15T10:58:49.100Z</time>
      </trkpt>
      <trkpt lat="44.97989" lon="5.42275">
        <ele>928</ele>
        <time>2019-06-15T10:58:50.100Z</time>
      </trkpt>
      <trkpt lat="44.97987" lon="5.42274">
        <ele>929</ele>
        <time>2019-06-15T10:58:51.100Z</time>
      </trkpt>
      <trkpt lat="44.97985" lon="5.42274">
        <ele>929</ele>
        <time>2019-06-15T10:58:52.100Z</time>
      </trkpt>
      <trkpt lat="44.97983" lon="5.42273">
        <ele>929</ele>
        <time>2019-06-15T10:58:53.100Z</time>
      </trkpt>
      <trkpt lat="44.97981" lon="5.42273">
        <ele>928</ele>
        <time>2019-06-15T10:58:54.100Z</time>
      </trkpt>
      <trkpt lat="44.97979" lon="5.42272">
        <ele>927</ele>
        <time>2019-06-15T10:58:55.100Z</time>
      </trkpt>
      <trkpt lat="44.97978" lon="5.42271">
        <ele>928</ele>
        <time>2019-06-15T10:58:56.100Z</time>
      </trkpt>
      <trkpt lat="44.97976" lon="5.42271">
        <ele>927</ele>
        <time>2019-06-15T10:58:57.100Z</time>
      </trkpt>
      <trkpt lat="44.97975" lon="5.4227">
        <ele>927</ele>
        <time>2019-06-15T10:58:58.100Z</time>
      </trkpt>
      <trkpt lat="44.97973" lon="5.4227">
        <ele>926</ele>
        <time>2019-06-15T10:58:59.100Z</time>
      </trkpt>
      <trkpt lat="44.97971" lon="5.42269">
        <ele>926</ele>
        <time>2019-06-15T10:59:00.100Z</time>
      </trkpt>
      <trkpt lat="44.97969" lon="5.42269">
        <ele>926</ele>
        <time>2019-06-15T10:59:01.100Z</time>
      </trkpt>
      <trkpt lat="44.97967" lon="5.42268">
        <ele>927</ele>
        <time>2019-06-15T10:59:02.100Z</time>
      </trkpt>
      <trkpt lat="44.97965" lon="5.42268">
        <ele>927</ele>
        <time>2019-06-15T10:59:03.100Z</time>
      </trkpt>
      <trkpt lat="44.97963" lon="5.42267">
        <ele>927</ele>
        <time>2019-06-15T10:59:04.100Z</time>
      </trkpt>
      <trkpt lat="44.97961" lon="5.42266">
        <ele>927</ele>
        <time>2019-06-15T10:59:05.100Z</time>
      </trkpt>
      <trkpt lat="44.97959" lon="5.42265">
        <ele>926</ele>
        <time>2019-06-15T10:59:06.100Z</time>
      </trkpt>
      <trkpt lat="44.97957" lon="5.42265">
        <ele>926</ele>
        <time>2019-06-15T10:59:07.100Z</time>
      </trkpt>
      <trkpt lat="44.97954" lon="5.42264">
        <ele>925</ele>
        <time>2019-06-15T10:59:08.100Z</time>
      </trkpt>
      <trkpt lat="44.9795" lon="5.42263">
        <ele>925</ele>
        <time>2019-06-15T10:59:09.100Z</time>
      </trkpt>
      <trkpt lat="44.97947" lon="5.42262">
        <ele>925</ele>
        <time>2019-06-15T10:59:10.100Z</time>
      </trkpt>
      <trkpt lat="44.97944" lon="5.42261">
        <ele>925</ele>
        <time>2019-06-15T10:59:11.100Z</time>
      </trkpt>
      <trkpt lat="44.97941" lon="5.4226">
        <ele>925</ele>
        <time>2019-06-15T10:59:12.100Z</time>
      </trkpt>
      <trkpt lat="44.97939" lon="5.42259">
        <ele>925</ele>
        <time>2019-06-15T10:59:13.100Z</time>
      </trkpt>
      <trkpt lat="44.97937" lon="5.42258">
        <ele>926</ele>
        <time>2019-06-15T10:59:14.100Z</time>
      </trkpt>
      <trkpt lat="44.97935" lon="5.42257">
        <ele>926</ele>
        <time>2019-06-15T10:59:15.100Z</time>
      </trkpt>
      <trkpt lat="44.97933" lon="5.42256">
        <ele>926</ele>
        <time>2019-06-15T10:59:16.100Z</time>
      </trkpt>
      <trkpt lat="44.97931" lon="5.42255">
        <ele>927</ele>
        <time>2019-06-15T10:59:17.100Z</time>
      </trkpt>
      <trkpt lat="44.97929" lon="5.42255">
        <ele>926</ele>
        <time>2019-06-15T10:59:18.100Z</time>
      </trkpt>
      <trkpt lat="44.97927" lon="5.42254">
        <ele>925</ele>
        <time>2019-06-15T10:59:19.100Z</time>
      </trkpt>
      <trkpt lat="44.97925" lon="5.42253">
        <ele>926</ele>
        <time>2019-06-15T10:59:20.100Z</time>
      </trkpt>
      <trkpt lat="44.97923" lon="5.42253">
        <ele>925</ele>
        <time>2019-06-15T10:59:21.100Z</time>
      </trkpt>
      <trkpt lat="44.97921" lon="5.42252">
        <ele>923</ele>
        <time>2019-06-15T10:59:22.100Z</time>
      </trkpt>
      <trkpt lat="44.97919" lon="5.42252">
        <ele>922</ele>
        <time>2019-06-15T10:59:23.100Z</time>
      </trkpt>
      <trkpt lat="44.97916" lon="5.42251">
        <ele>922</ele>
        <time>2019-06-15T10:59:24.100Z</time>
      </trkpt>
      <trkpt lat="44.97914" lon="5.42251">
        <ele>922</ele>
        <time>2019-06-15T10:59:25.100Z</time>
      </trkpt>
      <trkpt lat="44.97912" lon="5.42251">
        <ele>921</ele>
        <time>2019-06-15T10:59:26.100Z</time>
      </trkpt>
      <trkpt lat="44.9791" lon="5.4225">
        <ele>921</ele>
        <time>2019-06-15T10:59:27.100Z</time>
      </trkpt>
      <trkpt lat="44.97908" lon="5.4225">
        <ele>919</ele>
        <time>2019-06-15T10:59:28.100Z</time>
      </trkpt>
      <trkpt lat="44.97906" lon="5.42249">
        <ele>919</ele>
        <time>2019-06-15T10:59:29.100Z</time>
      </trkpt>
      <trkpt lat="44.97903" lon="5.42248">
        <ele>918</ele>
        <time>2019-06-15T10:59:30.100Z</time>
      </trkpt>
      <trkpt lat="44.97901" lon="5.42247">
        <ele>917</ele>
        <time>2019-06-15T10:59:31.100Z</time>
      </trkpt>
      <trkpt lat="44.97899" lon="5.42246">
        <ele>917</ele>
        <time>2019-06-15T10:59:32.100Z</time>
      </trkpt>
      <trkpt lat="44.97897" lon="5.42244">
        <ele>917</ele>
        <time>2019-06-15T10:59:33.100Z</time>
      </trkpt>
      <trkpt lat="44.97895" lon="5.42243">
        <ele>918</ele>
        <time>2019-06-15T10:59:34.100Z</time>
      </trkpt>
      <trkpt lat="44.97894" lon="5.42242">
        <ele>917</ele>
        <time>2019-06-15T10:59:35.100Z</time>
      </trkpt>
      <trkpt lat="44.97892" lon="5.4224">
        <ele>919</ele>
        <time>2019-06-15T10:59:36.100Z</time>
      </trkpt>
      <trkpt lat="44.9789" lon="5.42239">
        <ele>922</ele>
        <time>2019-06-15T10:59:37.100Z</time>
      </trkpt>
      <trkpt lat="44.97888" lon="5.42239">
        <ele>924</ele>
        <time>2019-06-15T10:59:38.100Z</time>
      </trkpt>
      <trkpt lat="44.97886" lon="5.42238">
        <ele>924</ele>
        <time>2019-06-15T10:59:39.100Z</time>
      </trkpt>
      <trkpt lat="44.97884" lon="5.42237">
        <ele>926</ele>
        <time>2019-06-15T10:59:40.100Z</time>
      </trkpt>
      <trkpt lat="44.97882" lon="5.42237">
        <ele>926</ele>
        <time>2019-06-15T10:59:41.100Z</time>
      </trkpt>
      <trkpt lat="44.97881" lon="5.42236">
        <ele>928</ele>
        <time>2019-06-15T10:59:42.100Z</time>
      </trkpt>
      <trkpt lat="44.9788" lon="5.42235">
        <ele>928</ele>
        <time>2019-06-15T10:59:43.100Z</time>
      </trkpt>
      <trkpt lat="44.97879" lon="5.42235">
        <ele>929</ele>
        <time>2019-06-15T10:59:44.100Z</time>
      </trkpt>
      <trkpt lat="44.97878" lon="5.42234">
        <ele>929</ele>
        <time>2019-06-15T10:59:45.100Z</time>
      </trkpt>
      <trkpt lat="44.97878" lon="5.42233">
        <ele>930</ele>
        <time>2019-06-15T10:59:46.100Z</time>
      </trkpt>
      <trkpt lat="44.97877" lon="5.42232">
        <ele>930</ele>
        <time>2019-06-15T10:59:47.100Z</time>
      </trkpt>
      <trkpt lat="44.97875" lon="5.42232">
        <ele>931</ele>
        <time>2019-06-15T10:59:48.100Z</time>
      </trkpt>
      <trkpt lat="44.97874" lon="5.42231">
        <ele>932</ele>
        <time>2019-06-15T10:59:49.100Z</time>
      </trkpt>
      <trkpt lat="44.97873" lon="5.42231">
        <ele>932</ele>
        <time>2019-06-15T10:59:50.100Z</time>
      </trkpt>
      <trkpt lat="44.97872" lon="5.42231">
        <ele>932</ele>
        <time>2019-06-15T10:59:51.100Z</time>
      </trkpt>
      <trkpt lat="44.97871" lon="5.42231">
        <ele>933</ele>
        <time>2019-06-15T10:59:52.100Z</time>
      </trkpt>
      <trkpt lat="44.9787" lon="5.42231">
        <ele>933</ele>
        <time>2019-06-15T10:59:53.100Z</time>
      </trkpt>
      <trkpt lat="44.97869" lon="5.42231">
        <ele>933</ele>
        <time>2019-06-15T10:59:54.100Z</time>
      </trkpt>
      <trkpt lat="44.97868" lon="5.42231">
        <ele>934</ele>
        <time>2019-06-15T10:59:55.100Z</time>
      </trkpt>
      <trkpt lat="44.97867" lon="5.42231">
        <ele>936</ele>
        <time>2019-06-15T10:59:56.100Z</time>
      </trkpt>
      <trkpt lat="44.97866" lon="5.42232">
        <ele>937</ele>
        <time>2019-06-15T10:59:57.100Z</time>
      </trkpt>
      <trkpt lat="44.97865" lon="5.42233">
        <ele>938</ele>
        <time>2019-06-15T10:59:58.100Z</time>
      </trkpt>
      <trkpt lat="44.97864" lon="5.42233">
        <ele>939</ele>
        <time>2019-06-15T10:59:59.100Z</time>
      </trkpt>
      <trkpt lat="44.97863" lon="5.42234">
        <ele>939</ele>
        <time>2019-06-15T11:00:00.100Z</time>
      </trkpt>
      <trkpt lat="44.97861" lon="5.42234">
        <ele>937</ele>
        <time>2019-06-15T11:00:01.100Z</time>
      </trkpt>
      <trkpt lat="44.9786" lon="5.42234">
        <ele>937</ele>
        <time>2019-06-15T11:00:02.100Z</time>
      </trkpt>
      <trkpt lat="44.97859" lon="5.42234">
        <ele>937</ele>
        <time>2019-06-15T11:00:03.100Z</time>
      </trkpt>
      <trkpt lat="44.97858" lon="5.42235">
        <ele>938</ele>
        <time>2019-06-15T11:00:04.100Z</time>
      </trkpt>
      <trkpt lat="44.97857" lon="5.42235">
        <ele>938</ele>
        <time>2019-06-15T11:00:05.100Z</time>
      </trkpt>
      <trkpt lat="44.97855" lon="5.42235">
        <ele>938</ele>
        <time>2019-06-15T11:00:06.100Z</time>
      </trkpt>
      <trkpt lat="44.97854" lon="5.42235">
        <ele>938</ele>
        <time>2019-06-15T11:00:07.100Z</time>
      </trkpt>
      <trkpt lat="44.97852" lon="5.42235">
        <ele>938</ele>
        <time>2019-06-15T11:00:08.100Z</time>
      </trkpt>
      <trkpt lat="44.97851" lon="5.42235">
        <ele>938</ele>
        <time>2019-06-15T11:00:09.100Z</time>
      </trkpt>
      <trkpt lat="44.9785" lon="5.42234">
        <ele>938</ele>
        <time>2019-06-15T11:00:10.100Z</time>
      </trkpt>
      <trkpt lat="44.97849" lon="5.42234">
        <ele>938</ele>
        <time>2019-06-15T11:00:11.100Z</time>
      </trkpt>
      <trkpt lat="44.97847" lon="5.42234">
        <ele>939</ele>
        <time>2019-06-15T11:00:12.100Z</time>
      </trkpt>
      <trkpt lat="44.97846" lon="5.42234">
        <ele>939</ele>
        <time>2019-06-15T11:00:13.100Z</time>
      </trkpt>
      <trkpt lat="44.97845" lon="5.42234">
        <ele>939</ele>
        <time>2019-06-15T11:00:14.100Z</time>
      </trkpt>
      <trkpt lat="44.97844" lon="5.42233">
        <ele>940</ele>
        <time>2019-06-15T11:00:15.100Z</time>
      </trkpt>
      <trkpt lat="44.97843" lon="5.42233">
        <ele>940</ele>
        <time>2019-06-15T11:00:16.100Z</time>
      </trkpt>
      <trkpt lat="44.97842" lon="5.42233">
        <ele>940</ele>
        <time>2019-06-15T11:00:17.100Z</time>
      </trkpt>
      <trkpt lat="44.97841" lon="5.42233">
        <ele>940</ele>
        <time>2019-06-15T11:00:18.100Z</time>
      </trkpt>
      <trkpt lat="44.9784" lon="5.42233">
        <ele>940</ele>
        <time>2019-06-15T11:00:19.100Z</time>
      </trkpt>
      <trkpt lat="44.97838" lon="5.42234">
        <ele>940</ele>
        <time>2019-06-15T11:00:20.100Z</time>
      </trkpt>
      <trkpt lat="44.97837" lon="5.42234">
        <ele>940</ele>
        <time>2019-06-15T11:00:21.100Z</time>
      </trkpt>
      <trkpt lat="44.97835" lon="5.42234">
        <ele>939</ele>
        <time>2019-06-15T11:00:22.100Z</time>
      </trkpt>
      <trkpt lat="44.97834" lon="5.42234">
        <ele>940</ele>
        <time>2019-06-15T11:00:23.100Z</time>
      </trkpt>
      <trkpt lat="44.97833" lon="5.42234">
        <ele>940</ele>
        <time>2019-06-15T11:00:24.100Z</time>
      </trkpt>
      <trkpt lat="44.97832" lon="5.42234">
        <ele>940</ele>
        <time>2019-06-15T11:00:25.100Z</time>
      </trkpt>
      <trkpt lat="44.97831" lon="5.42234">
        <ele>941</ele>
        <time>2019-06-15T11:00:26.100Z</time>
      </trkpt>
      <trkpt lat="44.9783" lon="5.42234">
        <ele>941</ele>
        <time>2019-06-15T11:00:27.100Z</time>
      </trkpt>
      <trkpt lat="44.97829" lon="5.42234">
        <ele>942</ele>
        <time>2019-06-15T11:00:28.100Z</time>
      </trkpt>
      <trkpt lat="44.97828" lon="5.42234">
        <ele>942</ele>
        <time>2019-06-15T11:00:29.100Z</time>
      </trkpt>
      <trkpt lat="44.97827" lon="5.42233">
        <ele>942</ele>
        <time>2019-06-15T11:00:30.100Z</time>
      </trkpt>
      <trkpt lat="44.97826" lon="5.42233">
        <ele>943</ele>
        <time>2019-06-15T11:00:31.100Z</time>
      </trkpt>
      <trkpt lat="44.97825" lon="5.42233">
        <ele>943</ele>
        <time>2019-06-15T11:00:32.100Z</time>
      </trkpt>
      <trkpt lat="44.97824" lon="5.42232">
        <ele>943</ele>
        <time>2019-06-15T11:00:33.100Z</time>
      </trkpt>
      <trkpt lat="44.97822" lon="5.42231">
        <ele>943</ele>
        <time>2019-06-15T11:00:34.100Z</time>
      </trkpt>
      <trkpt lat="44.97821" lon="5.4223">
        <ele>943</ele>
        <time>2019-06-15T11:00:35.100Z</time>
      </trkpt>
      <trkpt lat="44.97821" lon="5.4223">
        <ele>944</ele>
        <time>2019-06-15T11:00:36.100Z</time>
      </trkpt>
      <trkpt lat="44.9782" lon="5.42229">
        <ele>945</ele>
        <time>2019-06-15T11:00:37.100Z</time>
      </trkpt>
      <trkpt lat="44.97819" lon="5.42229">
        <ele>945</ele>
        <time>2019-06-15T11:00:38.100Z</time>
      </trkpt>
      <trkpt lat="44.97818" lon="5.42228">
        <ele>946</ele>
        <time>2019-06-15T11:00:39.100Z</time>
      </trkpt>
      <trkpt lat="44.97818" lon="5.42228">
        <ele>945</ele>
        <time>2019-06-15T11:00:40.100Z</time>
      </trkpt>
      <trkpt lat="44.97817" lon="5.42229">
        <ele>946</ele>
        <time>2019-06-15T11:00:41.100Z</time>
      </trkpt>
      <trkpt lat="44.97817" lon="5.42229">
        <ele>946</ele>
        <time>2019-06-15T11:00:42.100Z</time>
      </trkpt>
      <trkpt lat="44.97816" lon="5.4223">
        <ele>947</ele>
        <time>2019-06-15T11:00:43.100Z</time>
      </trkpt>
      <trkpt lat="44.97816" lon="5.4223">
        <ele>947</ele>
        <time>2019-06-15T11:00:44.100Z</time>
      </trkpt>
      <trkpt lat="44.97815" lon="5.42231">
        <ele>948</ele>
        <time>2019-06-15T11:00:45.100Z</time>
      </trkpt>
      <trkpt lat="44.97815" lon="5.42232">
        <ele>948</ele>
        <time>2019-06-15T11:00:46.100Z</time>
      </trkpt>
      <trkpt lat="44.97814" lon="5.42232">
        <ele>948</ele>
        <time>2019-06-15T11:00:47.100Z</time>
      </trkpt>
      <trkpt lat="44.97814" lon="5.42233">
        <ele>949</ele>
        <time>2019-06-15T11:00:48.100Z</time>
      </trkpt>
      <trkpt lat="44.97813" lon="5.42233">
        <ele>949</ele>
        <time>2019-06-15T11:00:49.100Z</time>
      </trkpt>
      <trkpt lat="44.97811" lon="5.42234">
        <ele>949</ele>
        <time>2019-06-15T11:00:50.100Z</time>
      </trkpt>
      <trkpt lat="44.97809" lon="5.42235">
        <ele>949</ele>
        <time>2019-06-15T11:00:51.100Z</time>
      </trkpt>
      <trkpt lat="44.97808" lon="5.42235">
        <ele>949</ele>
        <time>2019-06-15T11:00:52.100Z</time>
      </trkpt>
      <trkpt lat="44.97806" lon="5.42235">
        <ele>950</ele>
        <time>2019-06-15T11:00:53.100Z</time>
      </trkpt>
      <trkpt lat="44.97805" lon="5.42236">
        <ele>950</ele>
        <time>2019-06-15T11:00:54.100Z</time>
      </trkpt>
      <trkpt lat="44.97803" lon="5.42237">
        <ele>950</ele>
        <time>2019-06-15T11:00:55.100Z</time>
      </trkpt>
      <trkpt lat="44.97802" lon="5.42238">
        <ele>951</ele>
        <time>2019-06-15T11:00:56.100Z</time>
      </trkpt>
      <trkpt lat="44.978" lon="5.42238">
        <ele>951</ele>
        <time>2019-06-15T11:00:57.100Z</time>
      </trkpt>
      <trkpt lat="44.97798" lon="5.42238">
        <ele>952</ele>
        <time>2019-06-15T11:00:58.100Z</time>
      </trkpt>
      <trkpt lat="44.97796" lon="5.42238">
        <ele>953</ele>
        <time>2019-06-15T11:00:59.100Z</time>
      </trkpt>
      <trkpt lat="44.97794" lon="5.42239">
        <ele>952</ele>
        <time>2019-06-15T11:01:00.100Z</time>
      </trkpt>
      <trkpt lat="44.97791" lon="5.4224">
        <ele>952</ele>
        <time>2019-06-15T11:01:01.100Z</time>
      </trkpt>
      <trkpt lat="44.97789" lon="5.4224">
        <ele>951</ele>
        <time>2019-06-15T11:01:02.100Z</time>
      </trkpt>
      <trkpt lat="44.97786" lon="5.4224">
        <ele>949</ele>
        <time>2019-06-15T11:01:03.100Z</time>
      </trkpt>
      <trkpt lat="44.97783" lon="5.4224">
        <ele>947</ele>
        <time>2019-06-15T11:01:04.100Z</time>
      </trkpt>
      <trkpt lat="44.97781" lon="5.42239">
        <ele>946</ele>
        <time>2019-06-15T11:01:05.100Z</time>
      </trkpt>
      <trkpt lat="44.97778" lon="5.42239">
        <ele>945</ele>
        <time>2019-06-15T11:01:06.100Z</time>
      </trkpt>
      <trkpt lat="44.97776" lon="5.42239">
        <ele>945</ele>
        <time>2019-06-15T11:01:07.100Z</time>
      </trkpt>
      <trkpt lat="44.97774" lon="5.42238">
        <ele>944</ele>
        <time>2019-06-15T11:01:08.100Z</time>
      </trkpt>
      <trkpt lat="44.97772" lon="5.42237">
        <ele>944</ele>
        <time>2019-06-15T11:01:09.100Z</time>
      </trkpt>
      <trkpt lat="44.97771" lon="5.42236">
        <ele>944</ele>
        <time>2019-06-15T11:01:10.100Z</time>
      </trkpt>
      <trkpt lat="44.97769" lon="5.42235">
        <ele>944</ele>
        <time>2019-06-15T11:01:11.100Z</time>
      </trkpt>
      <trkpt lat="44.97767" lon="5.42234">
        <ele>945</ele>
        <time>2019-06-15T11:01:12.100Z</time>
      </trkpt>
      <trkpt lat="44.97764" lon="5.42233">
        <ele>945</ele>
        <time>2019-06-15T11:01:13.100Z</time>
      </trkpt>
      <trkpt lat="44.97762" lon="5.42232">
        <ele>945</ele>
        <time>2019-06-15T11:01:14.100Z</time>
      </trkpt>
      <trkpt lat="44.9776" lon="5.4223">
        <ele>945</ele>
        <time>2019-06-15T11:01:15.100Z</time>
      </trkpt>
      <trkpt lat="44.97758" lon="5.42229">
        <ele>946</ele>
        <time>2019-06-15T11:01:16.100Z</time>
      </trkpt>
      <trkpt lat="44.97757" lon="5.42228">
        <ele>947</ele>
        <time>2019-06-15T11:01:17.100Z</time>
      </trkpt>
      <trkpt lat="44.97755" lon="5.42226">
        <ele>948</ele>
        <time>2019-06-15T11:01:18.100Z</time>
      </trkpt>
      <trkpt lat="44.97753" lon="5.42225">
        <ele>949</ele>
        <time>2019-06-15T11:01:19.100Z</time>
      </trkpt>
      <trkpt lat="44.97752" lon="5.42224">
        <ele>950</ele>
        <time>2019-06-15T11:01:20.100Z</time>
      </trkpt>
      <trkpt lat="44.9775" lon="5.42223">
        <ele>951</ele>
        <time>2019-06-15T11:01:21.100Z</time>
      </trkpt>
      <trkpt lat="44.97748" lon="5.42222">
        <ele>951</ele>
        <time>2019-06-15T11:01:22.100Z</time>
      </trkpt>
      <trkpt lat="44.97746" lon="5.42221">
        <ele>952</ele>
        <time>2019-06-15T11:01:23.100Z</time>
      </trkpt>
      <trkpt lat="44.97745" lon="5.4222">
        <ele>955</ele>
        <time>2019-06-15T11:01:24.100Z</time>
      </trkpt>
      <trkpt lat="44.97743" lon="5.42219">
        <ele>954</ele>
        <time>2019-06-15T11:01:25.100Z</time>
      </trkpt>
      <trkpt lat="44.97741" lon="5.42218">
        <ele>954</ele>
        <time>2019-06-15T11:01:26.100Z</time>
      </trkpt>
      <trkpt lat="44.97739" lon="5.42217">
        <ele>954</ele>
        <time>2019-06-15T11:01:27.100Z</time>
      </trkpt>
      <trkpt lat="44.97737" lon="5.42216">
        <ele>953</ele>
        <time>2019-06-15T11:01:28.100Z</time>
      </trkpt>
      <trkpt lat="44.97735" lon="5.42214">
        <ele>953</ele>
        <time>2019-06-15T11:01:29.100Z</time>
      </trkpt>
      <trkpt lat="44.97734" lon="5.42213">
        <ele>953</ele>
        <time>2019-06-15T11:01:30.100Z</time>
      </trkpt>
      <trkpt lat="44.97732" lon="5.42212">
        <ele>954</ele>
        <time>2019-06-15T11:01:31.100Z</time>
      </trkpt>
      <trkpt lat="44.97731" lon="5.42211">
        <ele>956</ele>
        <time>2019-06-15T11:01:32.100Z</time>
      </trkpt>
      <trkpt lat="44.97729" lon="5.42209">
        <ele>956</ele>
        <time>2019-06-15T11:01:33.100Z</time>
      </trkpt>
      <trkpt lat="44.97727" lon="5.42207">
        <ele>959</ele>
        <time>2019-06-15T11:01:34.100Z</time>
      </trkpt>
      <trkpt lat="44.97725" lon="5.42206">
        <ele>958</ele>
        <time>2019-06-15T11:01:35.100Z</time>
      </trkpt>
      <trkpt lat="44.97723" lon="5.42204">
        <ele>960</ele>
        <time>2019-06-15T11:01:36.100Z</time>
      </trkpt>
      <trkpt lat="44.97721" lon="5.42203">
        <ele>960</ele>
        <time>2019-06-15T11:01:37.100Z</time>
      </trkpt>
      <trkpt lat="44.9772" lon="5.42201">
        <ele>960</ele>
        <time>2019-06-15T11:01:38.100Z</time>
      </trkpt>
      <trkpt lat="44.97718" lon="5.422">
        <ele>960</ele>
        <time>2019-06-15T11:01:39.100Z</time>
      </trkpt>
      <trkpt lat="44.97716" lon="5.42199">
        <ele>961</ele>
        <time>2019-06-15T11:01:40.100Z</time>
      </trkpt>
      <trkpt lat="44.97715" lon="5.42198">
        <ele>961</ele>
        <time>2019-06-15T11:01:41.100Z</time>
      </trkpt>
      <trkpt lat="44.97714" lon="5.42197">
        <ele>962</ele>
        <time>2019-06-15T11:01:42.100Z</time>
      </trkpt>
      <trkpt lat="44.97712" lon="5.42196">
        <ele>962</ele>
        <time>2019-06-15T11:01:43.100Z</time>
      </trkpt>
      <trkpt lat="44.97711" lon="5.42195">
        <ele>962</ele>
        <time>2019-06-15T11:01:44.100Z</time>
      </trkpt>
      <trkpt lat="44.97709" lon="5.42194">
        <ele>962</ele>
        <time>2019-06-15T11:01:45.100Z</time>
      </trkpt>
      <trkpt lat="44.97708" lon="5.42193">
        <ele>961</ele>
        <time>2019-06-15T11:01:46.100Z</time>
      </trkpt>
      <trkpt lat="44.97706" lon="5.42192">
        <ele>960</ele>
        <time>2019-06-15T11:01:47.100Z</time>
      </trkpt>
      <trkpt lat="44.97704" lon="5.42191">
        <ele>960</ele>
        <time>2019-06-15T11:01:48.100Z</time>
      </trkpt>
      <trkpt lat="44.97703" lon="5.4219">
        <ele>960</ele>
        <time>2019-06-15T11:01:49.100Z</time>
      </trkpt>
      <trkpt lat="44.97701" lon="5.42189">
        <ele>959</ele>
        <time>2019-06-15T11:01:50.100Z</time>
      </trkpt>
      <trkpt lat="44.97699" lon="5.42188">
        <ele>959</ele>
        <time>2019-06-15T11:01:51.100Z</time>
      </trkpt>
      <trkpt lat="44.97697" lon="5.42186">
        <ele>959</ele>
        <time>2019-06-15T11:01:52.100Z</time>
      </trkpt>
      <trkpt lat="44.97695" lon="5.42185">
        <ele>959</ele>
        <time>2019-06-15T11:01:53.100Z</time>
      </trkpt>
      <trkpt lat="44.97693" lon="5.42184">
        <ele>959</ele>
        <time>2019-06-15T11:01:54.100Z</time>
      </trkpt>
      <trkpt lat="44.97692" lon="5.42183">
        <ele>959</ele>
        <time>2019-06-15T11:01:55.100Z</time>
      </trkpt>
      <trkpt lat="44.9769" lon="5.42183">
        <ele>960</ele>
        <time>2019-06-15T11:01:56.100Z</time>
      </trkpt>
      <trkpt lat="44.97688" lon="5.42182">
        <ele>961</ele>
        <time>2019-06-15T11:01:57.100Z</time>
      </trkpt>
      <trkpt lat="44.97687" lon="5.42182">
        <ele>961</ele>
        <time>2019-06-15T11:01:58.100Z</time>
      </trkpt>
      <trkpt lat="44.97685" lon="5.42181">
        <ele>960</ele>
        <time>2019-06-15T11:01:59.100Z</time>
      </trkpt>
      <trkpt lat="44.97683" lon="5.4218">
        <ele>960</ele>
        <time>2019-06-15T11:02:00.100Z</time>
      </trkpt>
      <trkpt lat="44.97681" lon="5.42179">
        <ele>960</ele>
        <time>2019-06-15T11:02:01.100Z</time>
      </trkpt>
      <trkpt lat="44.97679" lon="5.42179">
        <ele>960</ele>
        <time>2019-06-15T11:02:02.100Z</time>
      </trkpt>
      <trkpt lat="44.97677" lon="5.42178">
        <ele>960</ele>
        <time>2019-06-15T11:02:03.100Z</time>
      </trkpt>
      <trkpt lat="44.97675" lon="5.42178">
        <ele>960</ele>
        <time>2019-06-15T11:02:04.100Z</time>
      </trkpt>
      <trkpt lat="44.97673" lon="5.42176">
        <ele>960</ele>
        <time>2019-06-15T11:02:05.100Z</time>
      </trkpt>
      <trkpt lat="44.97671" lon="5.42175">
        <ele>960</ele>
        <time>2019-06-15T11:02:06.100Z</time>
      </trkpt>
      <trkpt lat="44.97669" lon="5.42174">
        <ele>961</ele>
        <time>2019-06-15T11:02:07.100Z</time>
      </trkpt>
      <trkpt lat="44.97667" lon="5.42173">
        <ele>962</ele>
        <time>2019-06-15T11:02:08.100Z</time>
      </trkpt>
      <trkpt lat="44.97666" lon="5.42173">
        <ele>963</ele>
        <time>2019-06-15T11:02:09.100Z</time>
      </trkpt>
      <trkpt lat="44.97664" lon="5.42172">
        <ele>964</ele>
        <time>2019-06-15T11:02:10.100Z</time>
      </trkpt>
      <trkpt lat="44.97662" lon="5.42172">
        <ele>964</ele>
        <time>2019-06-15T11:02:11.100Z</time>
      </trkpt>
      <trkpt lat="44.9766" lon="5.42171">
        <ele>966</ele>
        <time>2019-06-15T11:02:12.100Z</time>
      </trkpt>
      <trkpt lat="44.97657" lon="5.4217">
        <ele>967</ele>
        <time>2019-06-15T11:02:13.100Z</time>
      </trkpt>
      <trkpt lat="44.97655" lon="5.42169">
        <ele>967</ele>
        <time>2019-06-15T11:02:14.100Z</time>
      </trkpt>
      <trkpt lat="44.97654" lon="5.42168">
        <ele>968</ele>
        <time>2019-06-15T11:02:15.100Z</time>
      </trkpt>
      <trkpt lat="44.97652" lon="5.42167">
        <ele>968</ele>
        <time>2019-06-15T11:02:16.100Z</time>
      </trkpt>
      <trkpt lat="44.9765" lon="5.42167">
        <ele>968</ele>
        <time>2019-06-15T11:02:17.100Z</time>
      </trkpt>
      <trkpt lat="44.97648" lon="5.42166">
        <ele>968</ele>
        <time>2019-06-15T11:02:18.100Z</time>
      </trkpt>
      <trkpt lat="44.97646" lon="5.42166">
        <ele>967</ele>
        <time>2019-06-15T11:02:19.100Z</time>
      </trkpt>
      <trkpt lat="44.97644" lon="5.42165">
        <ele>966</ele>
        <time>2019-06-15T11:02:20.100Z</time>
      </trkpt>
      <trkpt lat="44.97642" lon="5.42165">
        <ele>967</ele>
        <time>2019-06-15T11:02:21.100Z</time>
      </trkpt>
      <trkpt lat="44.9764" lon="5.42164">
        <ele>966</ele>
        <time>2019-06-15T11:02:22.100Z</time>
      </trkpt>
      <trkpt lat="44.97638" lon="5.42164">
        <ele>965</ele>
        <time>2019-06-15T11:02:23.100Z</time>
      </trkpt>
      <trkpt lat="44.97636" lon="5.42163">
        <ele>965</ele>
        <time>2019-06-15T11:02:24.100Z</time>
      </trkpt>
      <trkpt lat="44.97634" lon="5.42163">
        <ele>964</ele>
        <time>2019-06-15T11:02:25.100Z</time>
      </trkpt>
      <trkpt lat="44.97632" lon="5.42162">
        <ele>965</ele>
        <time>2019-06-15T11:02:26.100Z</time>
      </trkpt>
      <trkpt lat="44.9763" lon="5.42162">
        <ele>964</ele>
        <time>2019-06-15T11:02:27.100Z</time>
      </trkpt>
      <trkpt lat="44.97628" lon="5.42161">
        <ele>967</ele>
        <time>2019-06-15T11:02:28.100Z</time>
      </trkpt>
      <trkpt lat="44.97625" lon="5.42161">
        <ele>967</ele>
        <time>2019-06-15T11:02:29.100Z</time>
      </trkpt>
      <trkpt lat="44.97623" lon="5.4216">
        <ele>967</ele>
        <time>2019-06-15T11:02:30.100Z</time>
      </trkpt>
      <trkpt lat="44.97621" lon="5.4216">
        <ele>968</ele>
        <time>2019-06-15T11:02:31.100Z</time>
      </trkpt>
      <trkpt lat="44.97619" lon="5.42159">
        <ele>968</ele>
        <time>2019-06-15T11:02:32.100Z</time>
      </trkpt>
      <trkpt lat="44.97617" lon="5.42158">
        <ele>969</ele>
        <time>2019-06-15T11:02:33.100Z</time>
      </trkpt>
      <trkpt lat="44.97615" lon="5.42157">
        <ele>968</ele>
        <time>2019-06-15T11:02:34.100Z</time>
      </trkpt>
      <trkpt lat="44.97613" lon="5.42157">
        <ele>968</ele>
        <time>2019-06-15T11:02:35.100Z</time>
      </trkpt>
      <trkpt lat="44.9761" lon="5.42156">
        <ele>968</ele>
        <time>2019-06-15T11:02:36.100Z</time>
      </trkpt>
      <trkpt lat="44.97608" lon="5.42156">
        <ele>969</ele>
        <time>2019-06-15T11:02:37.100Z</time>
      </trkpt>
      <trkpt lat="44.97606" lon="5.42156">
        <ele>970</ele>
        <time>2019-06-15T11:02:38.100Z</time>
      </trkpt>
      <trkpt lat="44.97604" lon="5.42155">
        <ele>971</ele>
        <time>2019-06-15T11:02:39.100Z</time>
      </trkpt>
      <trkpt lat="44.97601" lon="5.42155">
        <ele>972</ele>
        <time>2019-06-15T11:02:40.100Z</time>
      </trkpt>
      <trkpt lat="44.97599" lon="5.42155">
        <ele>973</ele>
        <time>2019-06-15T11:02:41.100Z</time>
      </trkpt>
      <trkpt lat="44.97597" lon="5.42154">
        <ele>973</ele>
        <time>2019-06-15T11:02:42.100Z</time>
      </trkpt>
      <trkpt lat="44.97595" lon="5.42153">
        <ele>973</ele>
        <time>2019-06-15T11:02:43.100Z</time>
      </trkpt>
      <trkpt lat="44.97593" lon="5.42151">
        <ele>974</ele>
        <time>2019-06-15T11:02:44.100Z</time>
      </trkpt>
      <trkpt lat="44.97591" lon="5.42151">
        <ele>974</ele>
        <time>2019-06-15T11:02:45.100Z</time>
      </trkpt>
      <trkpt lat="44.97589" lon="5.4215">
        <ele>974</ele>
        <time>2019-06-15T11:02:46.100Z</time>
      </trkpt>
      <trkpt lat="44.97587" lon="5.42149">
        <ele>974</ele>
        <time>2019-06-15T11:02:47.100Z</time>
      </trkpt>
      <trkpt lat="44.97585" lon="5.42149">
        <ele>974</ele>
        <time>2019-06-15T11:02:48.100Z</time>
      </trkpt>
      <trkpt lat="44.97583" lon="5.42148">
        <ele>975</ele>
        <time>2019-06-15T11:02:49.100Z</time>
      </trkpt>
      <trkpt lat="44.97581" lon="5.42147">
        <ele>975</ele>
        <time>2019-06-15T11:02:50.100Z</time>
      </trkpt>
      <trkpt lat="44.9758" lon="5.42147">
        <ele>975</ele>
        <time>2019-06-15T11:02:51.100Z</time>
      </trkpt>
      <trkpt lat="44.97577" lon="5.42146">
        <ele>975</ele>
        <time>2019-06-15T11:02:52.100Z</time>
      </trkpt>
      <trkpt lat="44.97575" lon="5.42146">
        <ele>976</ele>
        <time>2019-06-15T11:02:53.100Z</time>
      </trkpt>
      <trkpt lat="44.97573" lon="5.42145">
        <ele>975</ele>
        <time>2019-06-15T11:02:54.100Z</time>
      </trkpt>
      <trkpt lat="44.97571" lon="5.42143">
        <ele>975</ele>
        <time>2019-06-15T11:02:55.100Z</time>
      </trkpt>
      <trkpt lat="44.97569" lon="5.42142">
        <ele>975</ele>
        <time>2019-06-15T11:02:56.100Z</time>
      </trkpt>
      <trkpt lat="44.97566" lon="5.42141">
        <ele>974</ele>
        <time>2019-06-15T11:02:57.100Z</time>
      </trkpt>
      <trkpt lat="44.97565" lon="5.4214">
        <ele>974</ele>
        <time>2019-06-15T11:02:58.100Z</time>
      </trkpt>
      <trkpt lat="44.97563" lon="5.42139">
        <ele>975</ele>
        <time>2019-06-15T11:02:59.100Z</time>
      </trkpt>
      <trkpt lat="44.97561" lon="5.42137">
        <ele>975</ele>
        <time>2019-06-15T11:03:00.100Z</time>
      </trkpt>
      <trkpt lat="44.97559" lon="5.42136">
        <ele>974</ele>
        <time>2019-06-15T11:03:01.100Z</time>
      </trkpt>
      <trkpt lat="44.97556" lon="5.42135">
        <ele>974</ele>
        <time>2019-06-15T11:03:02.100Z</time>
      </trkpt>
      <trkpt lat="44.97553" lon="5.42134">
        <ele>973</ele>
        <time>2019-06-15T11:03:03.100Z</time>
      </trkpt>
      <trkpt lat="44.97551" lon="5.42132">
        <ele>972</ele>
        <time>2019-06-15T11:03:04.100Z</time>
      </trkpt>
      <trkpt lat="44.97548" lon="5.42131">
        <ele>970</ele>
        <time>2019-06-15T11:03:05.100Z</time>
      </trkpt>
      <trkpt lat="44.97546" lon="5.42129">
        <ele>969</ele>
        <time>2019-06-15T11:03:06.100Z</time>
      </trkpt>
      <trkpt lat="44.97543" lon="5.42127">
        <ele>968</ele>
        <time>2019-06-15T11:03:07.100Z</time>
      </trkpt>
      <trkpt lat="44.97541" lon="5.42126">
        <ele>968</ele>
        <time>2019-06-15T11:03:08.100Z</time>
      </trkpt>
      <trkpt lat="44.97539" lon="5.42125">
        <ele>967</ele>
        <time>2019-06-15T11:03:09.100Z</time>
      </trkpt>
      <trkpt lat="44.97536" lon="5.42123">
        <ele>965</ele>
        <time>2019-06-15T11:03:10.100Z</time>
      </trkpt>
      <trkpt lat="44.97534" lon="5.42121">
        <ele>964</ele>
        <time>2019-06-15T11:03:11.100Z</time>
      </trkpt>
      <trkpt lat="44.97531" lon="5.42119">
        <ele>963</ele>
        <time>2019-06-15T11:03:12.100Z</time>
      </trkpt>
      <trkpt lat="44.97529" lon="5.42117">
        <ele>963</ele>
        <time>2019-06-15T11:03:13.100Z</time>
      </trkpt>
      <trkpt lat="44.97526" lon="5.42115">
        <ele>964</ele>
        <time>2019-06-15T11:03:14.100Z</time>
      </trkpt>
      <trkpt lat="44.97524" lon="5.42113">
        <ele>963</ele>
        <time>2019-06-15T11:03:15.100Z</time>
      </trkpt>
      <trkpt lat="44.97521" lon="5.42111">
        <ele>963</ele>
        <time>2019-06-15T11:03:16.100Z</time>
      </trkpt>
      <trkpt lat="44.97518" lon="5.4211">
        <ele>964</ele>
        <time>2019-06-15T11:03:17.100Z</time>
      </trkpt>
      <trkpt lat="44.97515" lon="5.42108">
        <ele>962</ele>
        <time>2019-06-15T11:03:18.100Z</time>
      </trkpt>
      <trkpt lat="44.97513" lon="5.42106">
        <ele>962</ele>
        <time>2019-06-15T11:03:19.100Z</time>
      </trkpt>
      <trkpt lat="44.9751" lon="5.42104">
        <ele>961</ele>
        <time>2019-06-15T11:03:20.100Z</time>
      </trkpt>
      <trkpt lat="44.97508" lon="5.42102">
        <ele>961</ele>
        <time>2019-06-15T11:03:21.100Z</time>
      </trkpt>
      <trkpt lat="44.97505" lon="5.42101">
        <ele>961</ele>
        <time>2019-06-15T11:03:22.100Z</time>
      </trkpt>
      <trkpt lat="44.97503" lon="5.42099">
        <ele>961</ele>
        <time>2019-06-15T11:03:23.100Z</time>
      </trkpt>
      <trkpt lat="44.97501" lon="5.42098">
        <ele>960</ele>
        <time>2019-06-15T11:03:24.100Z</time>
      </trkpt>
      <trkpt lat="44.97498" lon="5.42096">
        <ele>960</ele>
        <time>2019-06-15T11:03:25.100Z</time>
      </trkpt>
      <trkpt lat="44.97495" lon="5.42094">
        <ele>960</ele>
        <time>2019-06-15T11:03:26.100Z</time>
      </trkpt>
      <trkpt lat="44.97493" lon="5.42092">
        <ele>961</ele>
        <time>2019-06-15T11:03:27.100Z</time>
      </trkpt>
      <trkpt lat="44.9749" lon="5.4209">
        <ele>961</ele>
        <time>2019-06-15T11:03:28.100Z</time>
      </trkpt>
      <trkpt lat="44.97488" lon="5.42088">
        <ele>961</ele>
        <time>2019-06-15T11:03:29.100Z</time>
      </trkpt>
      <trkpt lat="44.97486" lon="5.42087">
        <ele>961</ele>
        <time>2019-06-15T11:03:30.100Z</time>
      </trkpt>
      <trkpt lat="44.97483" lon="5.42085">
        <ele>962</ele>
        <time>2019-06-15T11:03:31.100Z</time>
      </trkpt>
      <trkpt lat="44.9748" lon="5.42084">
        <ele>965</ele>
        <time>2019-06-15T11:03:32.100Z</time>
      </trkpt>
      <trkpt lat="44.97477" lon="5.42083">
        <ele>965</ele>
        <time>2019-06-15T11:03:33.100Z</time>
      </trkpt>
      <trkpt lat="44.97475" lon="5.42082">
        <ele>966</ele>
        <time>2019-06-15T11:03:34.100Z</time>
      </trkpt>
      <trkpt lat="44.97472" lon="5.42081">
        <ele>964</ele>
        <time>2019-06-15T11:03:35.100Z</time>
      </trkpt>
      <trkpt lat="44.97469" lon="5.42079">
        <ele>963</ele>
        <time>2019-06-15T11:03:36.100Z</time>
      </trkpt>
      <trkpt lat="44.97466" lon="5.42077">
        <ele>966</ele>
        <time>2019-06-15T11:03:37.100Z</time>
      </trkpt>
      <trkpt lat="44.97462" lon="5.42076">
        <ele>966</ele>
        <time>2019-06-15T11:03:38.100Z</time>
      </trkpt>
      <trkpt lat="44.97459" lon="5.42074">
        <ele>967</ele>
        <time>2019-06-15T11:03:39.100Z</time>
      </trkpt>
      <trkpt lat="44.97456" lon="5.42073">
        <ele>967</ele>
        <time>2019-06-15T11:03:40.100Z</time>
      </trkpt>
      <trkpt lat="44.97453" lon="5.42072">
        <ele>967</ele>
        <time>2019-06-15T11:03:41.100Z</time>
      </trkpt>
      <trkpt lat="44.97451" lon="5.42071">
        <ele>966</ele>
        <time>2019-06-15T11:03:42.100Z</time>
      </trkpt>
      <trkpt lat="44.97448" lon="5.4207">
        <ele>965</ele>
        <time>2019-06-15T11:03:43.100Z</time>
      </trkpt>
      <trkpt lat="44.97445" lon="5.4207">
        <ele>964</ele>
        <time>2019-06-15T11:03:44.100Z</time>
      </trkpt>
      <trkpt lat="44.97442" lon="5.42069">
        <ele>964</ele>
        <time>2019-06-15T11:03:45.100Z</time>
      </trkpt>
      <trkpt lat="44.97439" lon="5.42068">
        <ele>965</ele>
        <time>2019-06-15T11:03:46.100Z</time>
      </trkpt>
      <trkpt lat="44.97437" lon="5.42068">
        <ele>965</ele>
        <time>2019-06-15T11:03:47.100Z</time>
      </trkpt>
      <trkpt lat="44.97434" lon="5.42068">
        <ele>966</ele>
        <time>2019-06-15T11:03:48.100Z</time>
      </trkpt>
      <trkpt lat="44.97432" lon="5.42068">
        <ele>965</ele>
        <time>2019-06-15T11:03:49.100Z</time>
      </trkpt>
      <trkpt lat="44.97429" lon="5.42069">
        <ele>964</ele>
        <time>2019-06-15T11:03:50.100Z</time>
      </trkpt>
      <trkpt lat="44.97426" lon="5.4207">
        <ele>964</ele>
        <time>2019-06-15T11:03:51.100Z</time>
      </trkpt>
      <trkpt lat="44.97423" lon="5.42071">
        <ele>964</ele>
        <time>2019-06-15T11:03:52.100Z</time>
      </trkpt>
      <trkpt lat="44.9742" lon="5.42072">
        <ele>964</ele>
        <time>2019-06-15T11:03:53.100Z</time>
      </trkpt>
      <trkpt lat="44.97417" lon="5.42072">
        <ele>962</ele>
        <time>2019-06-15T11:03:54.100Z</time>
      </trkpt>
      <trkpt lat="44.97414" lon="5.42072">
        <ele>961</ele>
        <time>2019-06-15T11:03:55.100Z</time>
      </trkpt>
      <trkpt lat="44.97411" lon="5.42072">
        <ele>960</ele>
        <time>2019-06-15T11:03:56.100Z</time>
      </trkpt>
      <trkpt lat="44.97408" lon="5.42072">
        <ele>959</ele>
        <time>2019-06-15T11:03:57.100Z</time>
      </trkpt>
      <trkpt lat="44.97405" lon="5.42072">
        <ele>959</ele>
        <time>2019-06-15T11:03:58.100Z</time>
      </trkpt>
      <trkpt lat="44.97402" lon="5.42072">
        <ele>959</ele>
        <time>2019-06-15T11:03:59.100Z</time>
      </trkpt>
      <trkpt lat="44.97399" lon="5.42073">
        <ele>959</ele>
        <time>2019-06-15T11:04:00.100Z</time>
      </trkpt>
      <trkpt lat="44.97397" lon="5.42073">
        <ele>960</ele>
        <time>2019-06-15T11:04:01.100Z</time>
      </trkpt>
      <trkpt lat="44.97394" lon="5.42073">
        <ele>959</ele>
        <time>2019-06-15T11:04:02.100Z</time>
      </trkpt>
      <trkpt lat="44.9739" lon="5.42073">
        <ele>958</ele>
        <time>2019-06-15T11:04:03.100Z</time>
      </trkpt>
      <trkpt lat="44.97387" lon="5.42072">
        <ele>959</ele>
        <time>2019-06-15T11:04:04.100Z</time>
      </trkpt>
      <trkpt lat="44.97383" lon="5.42071">
        <ele>959</ele>
        <time>2019-06-15T11:04:05.100Z</time>
      </trkpt>
      <trkpt lat="44.97381" lon="5.4207">
        <ele>957</ele>
        <time>2019-06-15T11:04:06.100Z</time>
      </trkpt>
      <trkpt lat="44.97378" lon="5.42068">
        <ele>957</ele>
        <time>2019-06-15T11:04:07.100Z</time>
      </trkpt>
      <trkpt lat="44.97374" lon="5.42067">
        <ele>957</ele>
        <time>2019-06-15T11:04:08.100Z</time>
      </trkpt>
      <trkpt lat="44.97371" lon="5.42066">
        <ele>957</ele>
        <time>2019-06-15T11:04:09.100Z</time>
      </trkpt>
      <trkpt lat="44.97368" lon="5.42066">
        <ele>957</ele>
        <time>2019-06-15T11:04:10.100Z</time>
      </trkpt>
      <trkpt lat="44.97365" lon="5.42067">
        <ele>960</ele>
        <time>2019-06-15T11:04:11.100Z</time>
      </trkpt>
      <trkpt lat="44.97362" lon="5.42069">
        <ele>959</ele>
        <time>2019-06-15T11:04:12.100Z</time>
      </trkpt>
      <trkpt lat="44.97358" lon="5.42069">
        <ele>957</ele>
        <time>2019-06-15T11:04:13.100Z</time>
      </trkpt>
      <trkpt lat="44.97355" lon="5.42069">
        <ele>955</ele>
        <time>2019-06-15T11:04:14.100Z</time>
      </trkpt>
      <trkpt lat="44.97351" lon="5.42068">
        <ele>953</ele>
        <time>2019-06-15T11:04:15.100Z</time>
      </trkpt>
      <trkpt lat="44.97348" lon="5.42068">
        <ele>952</ele>
        <time>2019-06-15T11:04:16.100Z</time>
      </trkpt>
      <trkpt lat="44.97344" lon="5.4207">
        <ele>951</ele>
        <time>2019-06-15T11:04:17.100Z</time>
      </trkpt>
      <trkpt lat="44.9734" lon="5.42071">
        <ele>952</ele>
        <time>2019-06-15T11:04:18.100Z</time>
      </trkpt>
      <trkpt lat="44.97336" lon="5.42072">
        <ele>952</ele>
        <time>2019-06-15T11:04:19.100Z</time>
      </trkpt>
      <trkpt lat="44.97332" lon="5.42073">
        <ele>951</ele>
        <time>2019-06-15T11:04:20.100Z</time>
      </trkpt>
      <trkpt lat="44.97329" lon="5.42073">
        <ele>950</ele>
        <time>2019-06-15T11:04:21.100Z</time>
      </trkpt>
      <trkpt lat="44.97325" lon="5.42074">
        <ele>949</ele>
        <time>2019-06-15T11:04:22.100Z</time>
      </trkpt>
      <trkpt lat="44.97322" lon="5.42074">
        <ele>947</ele>
        <time>2019-06-15T11:04:23.100Z</time>
      </trkpt>
      <trkpt lat="44.97319" lon="5.42075">
        <ele>947</ele>
        <time>2019-06-15T11:04:24.100Z</time>
      </trkpt>
      <trkpt lat="44.97316" lon="5.42076">
        <ele>945</ele>
        <time>2019-06-15T11:04:25.100Z</time>
      </trkpt>
      <trkpt lat="44.97314" lon="5.42077">
        <ele>944</ele>
        <time>2019-06-15T11:04:26.100Z</time>
      </trkpt>
      <trkpt lat="44.97311" lon="5.42078">
        <ele>943</ele>
        <time>2019-06-15T11:04:27.100Z</time>
      </trkpt>
      <trkpt lat="44.97308" lon="5.42079">
        <ele>942</ele>
        <time>2019-06-15T11:04:28.100Z</time>
      </trkpt>
      <trkpt lat="44.97305" lon="5.42079">
        <ele>940</ele>
        <time>2019-06-15T11:04:29.100Z</time>
      </trkpt>
      <trkpt lat="44.97302" lon="5.42079">
        <ele>939</ele>
        <time>2019-06-15T11:04:30.100Z</time>
      </trkpt>
      <trkpt lat="44.97299" lon="5.42079">
        <ele>940</ele>
        <time>2019-06-15T11:04:31.100Z</time>
      </trkpt>
      <trkpt lat="44.97295" lon="5.4208">
        <ele>941</ele>
        <time>2019-06-15T11:04:32.100Z</time>
      </trkpt>
      <trkpt lat="44.97292" lon="5.42081">
        <ele>941</ele>
        <time>2019-06-15T11:04:33.100Z</time>
      </trkpt>
      <trkpt lat="44.97288" lon="5.42082">
        <ele>944</ele>
        <time>2019-06-15T11:04:34.100Z</time>
      </trkpt>
      <trkpt lat="44.97285" lon="5.42082">
        <ele>944</ele>
        <time>2019-06-15T11:04:35.100Z</time>
      </trkpt>
      <trkpt lat="44.97282" lon="5.42083">
        <ele>943</ele>
        <time>2019-06-15T11:04:36.100Z</time>
      </trkpt>
      <trkpt lat="44.97279" lon="5.42084">
        <ele>943</ele>
        <time>2019-06-15T11:04:37.100Z</time>
      </trkpt>
      <trkpt lat="44.97275" lon="5.42086">
        <ele>943</ele>
        <time>2019-06-15T11:04:38.100Z</time>
      </trkpt>
      <trkpt lat="44.97273" lon="5.42089">
        <ele>944</ele>
        <time>2019-06-15T11:04:39.100Z</time>
      </trkpt>
      <trkpt lat="44.9727" lon="5.42091">
        <ele>943</ele>
        <time>2019-06-15T11:04:40.100Z</time>
      </trkpt>
      <trkpt lat="44.97268" lon="5.42093">
        <ele>943</ele>
        <time>2019-06-15T11:04:41.100Z</time>
      </trkpt>
      <trkpt lat="44.97266" lon="5.42094">
        <ele>943</ele>
        <time>2019-06-15T11:04:42.100Z</time>
      </trkpt>
      <trkpt lat="44.97263" lon="5.42095">
        <ele>942</ele>
        <time>2019-06-15T11:04:43.100Z</time>
      </trkpt>
      <trkpt lat="44.97261" lon="5.42096">
        <ele>941</ele>
        <time>2019-06-15T11:04:44.100Z</time>
      </trkpt>
      <trkpt lat="44.97259" lon="5.42096">
        <ele>940</ele>
        <time>2019-06-15T11:04:45.100Z</time>
      </trkpt>
      <trkpt lat="44.97256" lon="5.42095">
        <ele>938</ele>
        <time>2019-06-15T11:04:46.100Z</time>
      </trkpt>
      <trkpt lat="44.97253" lon="5.42094">
        <ele>936</ele>
        <time>2019-06-15T11:04:47.100Z</time>
      </trkpt>
      <trkpt lat="44.9725" lon="5.42094">
        <ele>936</ele>
        <time>2019-06-15T11:04:48.100Z</time>
      </trkpt>
      <trkpt lat="44.97248" lon="5.42093">
        <ele>934</ele>
        <time>2019-06-15T11:04:49.100Z</time>
      </trkpt>
      <trkpt lat="44.97245" lon="5.42093">
        <ele>934</ele>
        <time>2019-06-15T11:04:50.100Z</time>
      </trkpt>
      <trkpt lat="44.97243" lon="5.42092">
        <ele>932</ele>
        <time>2019-06-15T11:04:51.100Z</time>
      </trkpt>
      <trkpt lat="44.9724" lon="5.42092">
        <ele>931</ele>
        <time>2019-06-15T11:04:52.100Z</time>
      </trkpt>
      <trkpt lat="44.97238" lon="5.42092">
        <ele>931</ele>
        <time>2019-06-15T11:04:53.100Z</time>
      </trkpt>
      <trkpt lat="44.97235" lon="5.42092">
        <ele>933</ele>
        <time>2019-06-15T11:04:54.100Z</time>
      </trkpt>
      <trkpt lat="44.97232" lon="5.42092">
        <ele>932</ele>
        <time>2019-06-15T11:04:55.100Z</time>
      </trkpt>
      <trkpt lat="44.97228" lon="5.42092">
        <ele>929</ele>
        <time>2019-06-15T11:04:56.100Z</time>
      </trkpt>
      <trkpt lat="44.97225" lon="5.42091">
        <ele>929</ele>
        <time>2019-06-15T11:04:57.100Z</time>
      </trkpt>
      <trkpt lat="44.97222" lon="5.4209">
        <ele>929</ele>
        <time>2019-06-15T11:04:58.100Z</time>
      </trkpt>
      <trkpt lat="44.97218" lon="5.42088">
        <ele>929</ele>
        <time>2019-06-15T11:04:59.100Z</time>
      </trkpt>
      <trkpt lat="44.97215" lon="5.42087">
        <ele>930</ele>
        <time>2019-06-15T11:05:00.100Z</time>
      </trkpt>
      <trkpt lat="44.97211" lon="5.42086">
        <ele>930</ele>
        <time>2019-06-15T11:05:01.100Z</time>
      </trkpt>
      <trkpt lat="44.97209" lon="5.42084">
        <ele>930</ele>
        <time>2019-06-15T11:05:02.100Z</time>
      </trkpt>
      <trkpt lat="44.97206" lon="5.42083">
        <ele>929</ele>
        <time>2019-06-15T11:05:03.100Z</time>
      </trkpt>
      <trkpt lat="44.97203" lon="5.42082">
        <ele>928</ele>
        <time>2019-06-15T11:05:04.100Z</time>
      </trkpt>
      <trkpt lat="44.97201" lon="5.4208">
        <ele>928</ele>
        <time>2019-06-15T11:05:05.100Z</time>
      </trkpt>
      <trkpt lat="44.97199" lon="5.42078">
        <ele>930</ele>
        <time>2019-06-15T11:05:06.100Z</time>
      </trkpt>
      <trkpt lat="44.97196" lon="5.42076">
        <ele>931</ele>
        <time>2019-06-15T11:05:07.100Z</time>
      </trkpt>
      <trkpt lat="44.97194" lon="5.42075">
        <ele>932</ele>
        <time>2019-06-15T11:05:08.100Z</time>
      </trkpt>
      <trkpt lat="44.97191" lon="5.42073">
        <ele>932</ele>
        <time>2019-06-15T11:05:09.100Z</time>
      </trkpt>
      <trkpt lat="44.97189" lon="5.42071">
        <ele>932</ele>
        <time>2019-06-15T11:05:10.100Z</time>
      </trkpt>
      <trkpt lat="44.97187" lon="5.4207">
        <ele>932</ele>
        <time>2019-06-15T11:05:11.100Z</time>
      </trkpt>
      <trkpt lat="44.97185" lon="5.42068">
        <ele>932</ele>
        <time>2019-06-15T11:05:12.100Z</time>
      </trkpt>
      <trkpt lat="44.97183" lon="5.42066">
        <ele>931</ele>
        <time>2019-06-15T11:05:13.100Z</time>
      </trkpt>
      <trkpt lat="44.97182" lon="5.42064">
        <ele>931</ele>
        <time>2019-06-15T11:05:14.100Z</time>
      </trkpt>
      <trkpt lat="44.9718" lon="5.42063">
        <ele>930</ele>
        <time>2019-06-15T11:05:15.100Z</time>
      </trkpt>
      <trkpt lat="44.97178" lon="5.42062">
        <ele>932</ele>
        <time>2019-06-15T11:05:16.100Z</time>
      </trkpt>
      <trkpt lat="44.97176" lon="5.42061">
        <ele>932</ele>
        <time>2019-06-15T11:05:17.100Z</time>
      </trkpt>
      <trkpt lat="44.97175" lon="5.42059">
        <ele>932</ele>
        <time>2019-06-15T11:05:18.100Z</time>
      </trkpt>
      <trkpt lat="44.97173" lon="5.42058">
        <ele>929</ele>
        <time>2019-06-15T11:05:19.100Z</time>
      </trkpt>
      <trkpt lat="44.97171" lon="5.42057">
        <ele>930</ele>
        <time>2019-06-15T11:05:20.100Z</time>
      </trkpt>
      <trkpt lat="44.97169" lon="5.42055">
        <ele>930</ele>
        <time>2019-06-15T11:05:21.100Z</time>
      </trkpt>
      <trkpt lat="44.97168" lon="5.42054">
        <ele>930</ele>
        <time>2019-06-15T11:05:22.100Z</time>
      </trkpt>
      <trkpt lat="44.97166" lon="5.42052">
        <ele>930</ele>
        <time>2019-06-15T11:05:23.100Z</time>
      </trkpt>
      <trkpt lat="44.97164" lon="5.42051">
        <ele>931</ele>
        <time>2019-06-15T11:05:24.100Z</time>
      </trkpt>
      <trkpt lat="44.97162" lon="5.42049">
        <ele>932</ele>
        <time>2019-06-15T11:05:25.100Z</time>
      </trkpt>
      <trkpt lat="44.9716" lon="5.42048">
        <ele>933</ele>
        <time>2019-06-15T11:05:26.100Z</time>
      </trkpt>
      <trkpt lat="44.97158" lon="5.42048">
        <ele>934</ele>
        <time>2019-06-15T11:05:27.100Z</time>
      </trkpt>
      <trkpt lat="44.97156" lon="5.42047">
        <ele>934</ele>
        <time>2019-06-15T11:05:28.100Z</time>
      </trkpt>
      <trkpt lat="44.97154" lon="5.42046">
        <ele>935</ele>
        <time>2019-06-15T11:05:29.100Z</time>
      </trkpt>
      <trkpt lat="44.97152" lon="5.42045">
        <ele>936</ele>
        <time>2019-06-15T11:05:30.100Z</time>
      </trkpt>
      <trkpt lat="44.9715" lon="5.42045">
        <ele>935</ele>
        <time>2019-06-15T11:05:31.100Z</time>
      </trkpt>
      <trkpt lat="44.97148" lon="5.42045">
        <ele>935</ele>
        <time>2019-06-15T11:05:32.100Z</time>
      </trkpt>
      <trkpt lat="44.97146" lon="5.42046">
        <ele>935</ele>
        <time>2019-06-15T11:05:33.100Z</time>
      </trkpt>
      <trkpt lat="44.97143" lon="5.42046">
        <ele>935</ele>
        <time>2019-06-15T11:05:34.100Z</time>
      </trkpt>
      <trkpt lat="44.97141" lon="5.42045">
        <ele>939</ele>
        <time>2019-06-15T11:05:35.100Z</time>
      </trkpt>
      <trkpt lat="44.97138" lon="5.42045">
        <ele>942</ele>
        <time>2019-06-15T11:05:36.100Z</time>
      </trkpt>
      <trkpt lat="44.97135" lon="5.42044">
        <ele>943</ele>
        <time>2019-06-15T11:05:37.100Z</time>
      </trkpt>
      <trkpt lat="44.97132" lon="5.42044">
        <ele>944</ele>
        <time>2019-06-15T11:05:38.100Z</time>
      </trkpt>
      <trkpt lat="44.9713" lon="5.42043">
        <ele>944</ele>
        <time>2019-06-15T11:05:39.100Z</time>
      </trkpt>
      <trkpt lat="44.97127" lon="5.42042">
        <ele>945</ele>
        <time>2019-06-15T11:05:40.100Z</time>
      </trkpt>
      <trkpt lat="44.97124" lon="5.42041">
        <ele>945</ele>
        <time>2019-06-15T11:05:41.100Z</time>
      </trkpt>
      <trkpt lat="44.97122" lon="5.4204">
        <ele>945</ele>
        <time>2019-06-15T11:05:42.100Z</time>
      </trkpt>
      <trkpt lat="44.97119" lon="5.42039">
        <ele>945</ele>
        <time>2019-06-15T11:05:43.100Z</time>
      </trkpt>
      <trkpt lat="44.97117" lon="5.42038">
        <ele>945</ele>
        <time>2019-06-15T11:05:44.100Z</time>
      </trkpt>
      <trkpt lat="44.97114" lon="5.42037">
        <ele>946</ele>
        <time>2019-06-15T11:05:45.100Z</time>
      </trkpt>
      <trkpt lat="44.97111" lon="5.42036">
        <ele>946</ele>
        <time>2019-06-15T11:05:46.100Z</time>
      </trkpt>
      <trkpt lat="44.97109" lon="5.42035">
        <ele>947</ele>
        <time>2019-06-15T11:05:47.100Z</time>
      </trkpt>
      <trkpt lat="44.97106" lon="5.42035">
        <ele>947</ele>
        <time>2019-06-15T11:05:48.100Z</time>
      </trkpt>
      <trkpt lat="44.97103" lon="5.42034">
        <ele>948</ele>
        <time>2019-06-15T11:05:49.100Z</time>
      </trkpt>
      <trkpt lat="44.97101" lon="5.42034">
        <ele>947</ele>
        <time>2019-06-15T11:05:50.100Z</time>
      </trkpt>
      <trkpt lat="44.97098" lon="5.42033">
        <ele>948</ele>
        <time>2019-06-15T11:05:51.100Z</time>
      </trkpt>
      <trkpt lat="44.97096" lon="5.42033">
        <ele>949</ele>
        <time>2019-06-15T11:05:52.100Z</time>
      </trkpt>
      <trkpt lat="44.97093" lon="5.42032">
        <ele>950</ele>
        <time>2019-06-15T11:05:53.100Z</time>
      </trkpt>
      <trkpt lat="44.97091" lon="5.42032">
        <ele>951</ele>
        <time>2019-06-15T11:05:54.100Z</time>
      </trkpt>
      <trkpt lat="44.97088" lon="5.42031">
        <ele>951</ele>
        <time>2019-06-15T11:05:55.100Z</time>
      </trkpt>
      <trkpt lat="44.97085" lon="5.42031">
        <ele>951</ele>
        <time>2019-06-15T11:05:56.100Z</time>
      </trkpt>
      <trkpt lat="44.97083" lon="5.42031">
        <ele>952</ele>
        <time>2019-06-15T11:05:57.100Z</time>
      </trkpt>
      <trkpt lat="44.9708" lon="5.42031">
        <ele>952</ele>
        <time>2019-06-15T11:05:58.100Z</time>
      </trkpt>
      <trkpt lat="44.97077" lon="5.4203">
        <ele>952</ele>
        <time>2019-06-15T11:05:59.100Z</time>
      </trkpt>
      <trkpt lat="44.97074" lon="5.4203">
        <ele>952</ele>
        <time>2019-06-15T11:06:00.100Z</time>
      </trkpt>
      <trkpt lat="44.97071" lon="5.4203">
        <ele>952</ele>
        <time>2019-06-15T11:06:01.100Z</time>
      </trkpt>
      <trkpt lat="44.97069" lon="5.4203">
        <ele>952</ele>
        <time>2019-06-15T11:06:02.100Z</time>
      </trkpt>
      <trkpt lat="44.97066" lon="5.4203">
        <ele>952</ele>
        <time>2019-06-15T11:06:03.100Z</time>
      </trkpt>
      <trkpt lat="44.97063" lon="5.42029">
        <ele>952</ele>
        <time>2019-06-15T11:06:04.100Z</time>
      </trkpt>
      <trkpt lat="44.97061" lon="5.42029">
        <ele>952</ele>
        <time>2019-06-15T11:06:05.100Z</time>
      </trkpt>
      <trkpt lat="44.97058" lon="5.42028">
        <ele>952</ele>
        <time>2019-06-15T11:06:06.100Z</time>
      </trkpt>
      <trkpt lat="44.97055" lon="5.42028">
        <ele>951</ele>
        <time>2019-06-15T11:06:07.100Z</time>
      </trkpt>
      <trkpt lat="44.97053" lon="5.42027">
        <ele>951</ele>
        <time>2019-06-15T11:06:08.100Z</time>
      </trkpt>
      <trkpt lat="44.9705" lon="5.42027">
        <ele>951</ele>
        <time>2019-06-15T11:06:09.100Z</time>
      </trkpt>
      <trkpt lat="44.97047" lon="5.42027">
        <ele>951</ele>
        <time>2019-06-15T11:06:10.100Z</time>
      </trkpt>
      <trkpt lat="44.97044" lon="5.42027">
        <ele>951</ele>
        <time>2019-06-15T11:06:11.100Z</time>
      </trkpt>
      <trkpt lat="44.97042" lon="5.42026">
        <ele>951</ele>
        <time>2019-06-15T11:06:12.100Z</time>
      </trkpt>
      <trkpt lat="44.97039" lon="5.42026">
        <ele>951</ele>
        <time>2019-06-15T11:06:13.100Z</time>
      </trkpt>
      <trkpt lat="44.97036" lon="5.42027">
        <ele>951</ele>
        <time>2019-06-15T11:06:14.100Z</time>
      </trkpt>
      <trkpt lat="44.97034" lon="5.42027">
        <ele>951</ele>
        <time>2019-06-15T11:06:15.100Z</time>
      </trkpt>
      <trkpt lat="44.97031" lon="5.42027">
        <ele>950</ele>
        <time>2019-06-15T11:06:16.100Z</time>
      </trkpt>
      <trkpt lat="44.97028" lon="5.42028">
        <ele>950</ele>
        <time>2019-06-15T11:06:17.100Z</time>
      </trkpt>
      <trkpt lat="44.97026" lon="5.42028">
        <ele>951</ele>
        <time>2019-06-15T11:06:18.100Z</time>
      </trkpt>
      <trkpt lat="44.97023" lon="5.42028">
        <ele>950</ele>
        <time>2019-06-15T11:06:19.100Z</time>
      </trkpt>
      <trkpt lat="44.9702" lon="5.42028">
        <ele>949</ele>
        <time>2019-06-15T11:06:20.100Z</time>
      </trkpt>
      <trkpt lat="44.97017" lon="5.42028">
        <ele>949</ele>
        <time>2019-06-15T11:06:21.100Z</time>
      </trkpt>
      <trkpt lat="44.97014" lon="5.42028">
        <ele>949</ele>
        <time>2019-06-15T11:06:22.100Z</time>
      </trkpt>
      <trkpt lat="44.97011" lon="5.42028">
        <ele>948</ele>
        <time>2019-06-15T11:06:23.100Z</time>
      </trkpt>
      <trkpt lat="44.97009" lon="5.42027">
        <ele>948</ele>
        <time>2019-06-15T11:06:24.100Z</time>
      </trkpt>
      <trkpt lat="44.97006" lon="5.42026">
        <ele>948</ele>
        <time>2019-06-15T11:06:25.100Z</time>
      </trkpt>
      <trkpt lat="44.97003" lon="5.42025">
        <ele>948</ele>
        <time>2019-06-15T11:06:26.100Z</time>
      </trkpt>
      <trkpt lat="44.97" lon="5.42024">
        <ele>948</ele>
        <time>2019-06-15T11:06:27.100Z</time>
      </trkpt>
      <trkpt lat="44.96998" lon="5.42024">
        <ele>948</ele>
        <time>2019-06-15T11:06:28.100Z</time>
      </trkpt>
      <trkpt lat="44.96995" lon="5.42023">
        <ele>949</ele>
        <time>2019-06-15T11:06:29.100Z</time>
      </trkpt>
      <trkpt lat="44.96992" lon="5.42023">
        <ele>949</ele>
        <time>2019-06-15T11:06:30.100Z</time>
      </trkpt>
      <trkpt lat="44.96989" lon="5.42022">
        <ele>949</ele>
        <time>2019-06-15T11:06:31.100Z</time>
      </trkpt>
      <trkpt lat="44.96986" lon="5.42022">
        <ele>949</ele>
        <time>2019-06-15T11:06:32.100Z</time>
      </trkpt>
      <trkpt lat="44.96983" lon="5.42022">
        <ele>949</ele>
        <time>2019-06-15T11:06:33.100Z</time>
      </trkpt>
      <trkpt lat="44.9698" lon="5.42021">
        <ele>948</ele>
        <time>2019-06-15T11:06:34.100Z</time>
      </trkpt>
      <trkpt lat="44.96978" lon="5.42021">
        <ele>948</ele>
        <time>2019-06-15T11:06:35.100Z</time>
      </trkpt>
      <trkpt lat="44.96975" lon="5.42021">
        <ele>948</ele>
        <time>2019-06-15T11:06:36.100Z</time>
      </trkpt>
      <trkpt lat="44.96972" lon="5.4202">
        <ele>948</ele>
        <time>2019-06-15T11:06:37.100Z</time>
      </trkpt>
      <trkpt lat="44.96969" lon="5.4202">
        <ele>948</ele>
        <time>2019-06-15T11:06:38.100Z</time>
      </trkpt>
      <trkpt lat="44.96966" lon="5.4202">
        <ele>947</ele>
        <time>2019-06-15T11:06:39.100Z</time>
      </trkpt>
      <trkpt lat="44.96963" lon="5.4202">
        <ele>948</ele>
        <time>2019-06-15T11:06:40.100Z</time>
      </trkpt>
      <trkpt lat="44.9696" lon="5.42021">
        <ele>948</ele>
        <time>2019-06-15T11:06:41.100Z</time>
      </trkpt>
      <trkpt lat="44.96958" lon="5.42021">
        <ele>948</ele>
        <time>2019-06-15T11:06:42.100Z</time>
      </trkpt>
      <trkpt lat="44.96955" lon="5.42021">
        <ele>947</ele>
        <time>2019-06-15T11:06:43.100Z</time>
      </trkpt>
      <trkpt lat="44.96952" lon="5.42021">
        <ele>947</ele>
        <time>2019-06-15T11:06:44.100Z</time>
      </trkpt>
      <trkpt lat="44.96949" lon="5.42021">
        <ele>947</ele>
        <time>2019-06-15T11:06:45.100Z</time>
      </trkpt>
      <trkpt lat="44.96946" lon="5.42022">
        <ele>947</ele>
        <time>2019-06-15T11:06:46.100Z</time>
      </trkpt>
      <trkpt lat="44.96942" lon="5.42022">
        <ele>947</ele>
        <time>2019-06-15T11:06:47.100Z</time>
      </trkpt>
      <trkpt lat="44.96939" lon="5.42022">
        <ele>947</ele>
        <time>2019-06-15T11:06:48.100Z</time>
      </trkpt>
      <trkpt lat="44.96936" lon="5.42022">
        <ele>946</ele>
        <time>2019-06-15T11:06:49.100Z</time>
      </trkpt>
      <trkpt lat="44.96933" lon="5.42023">
        <ele>945</ele>
        <time>2019-06-15T11:06:50.100Z</time>
      </trkpt>
      <trkpt lat="44.96929" lon="5.42023">
        <ele>945</ele>
        <time>2019-06-15T11:06:51.100Z</time>
      </trkpt>
      <trkpt lat="44.96926" lon="5.42023">
        <ele>944</ele>
        <time>2019-06-15T11:06:52.100Z</time>
      </trkpt>
      <trkpt lat="44.96923" lon="5.42023">
        <ele>944</ele>
        <time>2019-06-15T11:06:53.100Z</time>
      </trkpt>
      <trkpt lat="44.96919" lon="5.42023">
        <ele>943</ele>
        <time>2019-06-15T11:06:54.100Z</time>
      </trkpt>
      <trkpt lat="44.96916" lon="5.42024">
        <ele>943</ele>
        <time>2019-06-15T11:06:55.100Z</time>
      </trkpt>
      <trkpt lat="44.96913" lon="5.42024">
        <ele>943</ele>
        <time>2019-06-15T11:06:56.100Z</time>
      </trkpt>
      <trkpt lat="44.9691" lon="5.42023">
        <ele>943</ele>
        <time>2019-06-15T11:06:57.100Z</time>
      </trkpt>
      <trkpt lat="44.96906" lon="5.42023">
        <ele>942</ele>
        <time>2019-06-15T11:06:58.100Z</time>
      </trkpt>
      <trkpt lat="44.96903" lon="5.42022">
        <ele>942</ele>
        <time>2019-06-15T11:06:59.100Z</time>
      </trkpt>
      <trkpt lat="44.969" lon="5.42021">
        <ele>941</ele>
        <time>2019-06-15T11:07:00.100Z</time>
      </trkpt>
      <trkpt lat="44.96897" lon="5.4202">
        <ele>941</ele>
        <time>2019-06-15T11:07:01.100Z</time>
      </trkpt>
      <trkpt lat="44.96894" lon="5.42019">
        <ele>941</ele>
        <time>2019-06-15T11:07:02.100Z</time>
      </trkpt>
      <trkpt lat="44.96891" lon="5.42018">
        <ele>941</ele>
        <time>2019-06-15T11:07:03.100Z</time>
      </trkpt>
      <trkpt lat="44.96888" lon="5.42017">
        <ele>941</ele>
        <time>2019-06-15T11:07:04.100Z</time>
      </trkpt>
      <trkpt lat="44.96885" lon="5.42016">
        <ele>941</ele>
        <time>2019-06-15T11:07:05.100Z</time>
      </trkpt>
      <trkpt lat="44.96882" lon="5.42015">
        <ele>941</ele>
        <time>2019-06-15T11:07:06.100Z</time>
      </trkpt>
      <trkpt lat="44.9688" lon="5.42015">
        <ele>941</ele>
        <time>2019-06-15T11:07:07.100Z</time>
      </trkpt>
      <trkpt lat="44.96877" lon="5.42016">
        <ele>941</ele>
        <time>2019-06-15T11:07:08.100Z</time>
      </trkpt>
      <trkpt lat="44.96876" lon="5.42017">
        <ele>941</ele>
        <time>2019-06-15T11:07:09.100Z</time>
      </trkpt>
      <trkpt lat="44.96874" lon="5.42019">
        <ele>941</ele>
        <time>2019-06-15T11:07:10.100Z</time>
      </trkpt>
      <trkpt lat="44.96872" lon="5.4202">
        <ele>941</ele>
        <time>2019-06-15T11:07:11.100Z</time>
      </trkpt>
      <trkpt lat="44.9687" lon="5.42021">
        <ele>941</ele>
        <time>2019-06-15T11:07:12.100Z</time>
      </trkpt>
      <trkpt lat="44.96868" lon="5.42021">
        <ele>940</ele>
        <time>2019-06-15T11:07:13.100Z</time>
      </trkpt>
      <trkpt lat="44.96866" lon="5.42021">
        <ele>939</ele>
        <time>2019-06-15T11:07:14.100Z</time>
      </trkpt>
      <trkpt lat="44.96863" lon="5.42021">
        <ele>939</ele>
        <time>2019-06-15T11:07:15.100Z</time>
      </trkpt>
      <trkpt lat="44.96861" lon="5.42022">
        <ele>939</ele>
        <time>2019-06-15T11:07:16.100Z</time>
      </trkpt>
      <trkpt lat="44.96859" lon="5.42022">
        <ele>939</ele>
        <time>2019-06-15T11:07:17.100Z</time>
      </trkpt>
      <trkpt lat="44.96856" lon="5.42022">
        <ele>938</ele>
        <time>2019-06-15T11:07:18.100Z</time>
      </trkpt>
      <trkpt lat="44.96853" lon="5.42024">
        <ele>938</ele>
        <time>2019-06-15T11:07:19.100Z</time>
      </trkpt>
      <trkpt lat="44.9685" lon="5.42025">
        <ele>937</ele>
        <time>2019-06-15T11:07:20.100Z</time>
      </trkpt>
      <trkpt lat="44.96847" lon="5.42026">
        <ele>937</ele>
        <time>2019-06-15T11:07:21.100Z</time>
      </trkpt>
      <trkpt lat="44.96845" lon="5.42027">
        <ele>937</ele>
        <time>2019-06-15T11:07:22.100Z</time>
      </trkpt>
      <trkpt lat="44.96842" lon="5.42029">
        <ele>938</ele>
        <time>2019-06-15T11:07:23.100Z</time>
      </trkpt>
      <trkpt lat="44.96839" lon="5.4203">
        <ele>937</ele>
        <time>2019-06-15T11:07:24.100Z</time>
      </trkpt>
      <trkpt lat="44.96836" lon="5.42032">
        <ele>937</ele>
        <time>2019-06-15T11:07:25.100Z</time>
      </trkpt>
      <trkpt lat="44.96834" lon="5.42033">
        <ele>937</ele>
        <time>2019-06-15T11:07:26.100Z</time>
      </trkpt>
      <trkpt lat="44.96831" lon="5.42033">
        <ele>937</ele>
        <time>2019-06-15T11:07:27.100Z</time>
      </trkpt>
      <trkpt lat="44.96828" lon="5.42033">
        <ele>937</ele>
        <time>2019-06-15T11:07:28.100Z</time>
      </trkpt>
      <trkpt lat="44.96825" lon="5.42034">
        <ele>937</ele>
        <time>2019-06-15T11:07:29.100Z</time>
      </trkpt>
      <trkpt lat="44.96822" lon="5.42035">
        <ele>937</ele>
        <time>2019-06-15T11:07:30.100Z</time>
      </trkpt>
      <trkpt lat="44.96819" lon="5.42037">
        <ele>936</ele>
        <time>2019-06-15T11:07:31.100Z</time>
      </trkpt>
      <trkpt lat="44.96817" lon="5.42038">
        <ele>936</ele>
        <time>2019-06-15T11:07:32.100Z</time>
      </trkpt>
      <trkpt lat="44.96815" lon="5.42039">
        <ele>936</ele>
        <time>2019-06-15T11:07:33.100Z</time>
      </trkpt>
      <trkpt lat="44.96812" lon="5.42042">
        <ele>935</ele>
        <time>2019-06-15T11:07:34.100Z</time>
      </trkpt>
      <trkpt lat="44.96809" lon="5.42043">
        <ele>934</ele>
        <time>2019-06-15T11:07:35.100Z</time>
      </trkpt>
      <trkpt lat="44.96807" lon="5.42044">
        <ele>935</ele>
        <time>2019-06-15T11:07:36.100Z</time>
      </trkpt>
      <trkpt lat="44.96804" lon="5.42045">
        <ele>935</ele>
        <time>2019-06-15T11:07:37.100Z</time>
      </trkpt>
      <trkpt lat="44.96802" lon="5.42046">
        <ele>935</ele>
        <time>2019-06-15T11:07:38.100Z</time>
      </trkpt>
      <trkpt lat="44.96799" lon="5.42048">
        <ele>935</ele>
        <time>2019-06-15T11:07:39.100Z</time>
      </trkpt>
      <trkpt lat="44.96797" lon="5.4205">
        <ele>936</ele>
        <time>2019-06-15T11:07:40.100Z</time>
      </trkpt>
      <trkpt lat="44.96794" lon="5.42052">
        <ele>935</ele>
        <time>2019-06-15T11:07:41.100Z</time>
      </trkpt>
      <trkpt lat="44.96792" lon="5.42053">
        <ele>935</ele>
        <time>2019-06-15T11:07:42.100Z</time>
      </trkpt>
      <trkpt lat="44.96789" lon="5.42053">
        <ele>934</ele>
        <time>2019-06-15T11:07:43.100Z</time>
      </trkpt>
      <trkpt lat="44.96786" lon="5.42053">
        <ele>934</ele>
        <time>2019-06-15T11:07:44.100Z</time>
      </trkpt>
      <trkpt lat="44.96784" lon="5.42053">
        <ele>933</ele>
        <time>2019-06-15T11:07:45.100Z</time>
      </trkpt>
      <trkpt lat="44.96781" lon="5.42054">
        <ele>934</ele>
        <time>2019-06-15T11:07:46.100Z</time>
      </trkpt>
      <trkpt lat="44.96779" lon="5.42055">
        <ele>933</ele>
        <time>2019-06-15T11:07:47.100Z</time>
      </trkpt>
      <trkpt lat="44.96776" lon="5.42056">
        <ele>933</ele>
        <time>2019-06-15T11:07:48.100Z</time>
      </trkpt>
      <trkpt lat="44.96774" lon="5.42057">
        <ele>932</ele>
        <time>2019-06-15T11:07:49.100Z</time>
      </trkpt>
      <trkpt lat="44.96772" lon="5.42058">
        <ele>932</ele>
        <time>2019-06-15T11:07:50.100Z</time>
      </trkpt>
      <trkpt lat="44.9677" lon="5.4206">
        <ele>932</ele>
        <time>2019-06-15T11:07:51.100Z</time>
      </trkpt>
      <trkpt lat="44.96768" lon="5.42062">
        <ele>932</ele>
        <time>2019-06-15T11:07:52.100Z</time>
      </trkpt>
      <trkpt lat="44.96767" lon="5.42063">
        <ele>931</ele>
        <time>2019-06-15T11:07:53.100Z</time>
      </trkpt>
      <trkpt lat="44.96765" lon="5.42066">
        <ele>931</ele>
        <time>2019-06-15T11:07:54.100Z</time>
      </trkpt>
      <trkpt lat="44.96763" lon="5.4207">
        <ele>930</ele>
        <time>2019-06-15T11:07:55.100Z</time>
      </trkpt>
      <trkpt lat="44.96761" lon="5.42073">
        <ele>930</ele>
        <time>2019-06-15T11:07:56.100Z</time>
      </trkpt>
      <trkpt lat="44.96759" lon="5.42076">
        <ele>930</ele>
        <time>2019-06-15T11:07:57.100Z</time>
      </trkpt>
      <trkpt lat="44.96756" lon="5.42078">
        <ele>929</ele>
        <time>2019-06-15T11:07:58.100Z</time>
      </trkpt>
      <trkpt lat="44.96753" lon="5.4208">
        <ele>929</ele>
        <time>2019-06-15T11:07:59.100Z</time>
      </trkpt>
      <trkpt lat="44.9675" lon="5.42082">
        <ele>928</ele>
        <time>2019-06-15T11:08:00.100Z</time>
      </trkpt>
      <trkpt lat="44.96748" lon="5.42084">
        <ele>928</ele>
        <time>2019-06-15T11:08:01.100Z</time>
      </trkpt>
      <trkpt lat="44.96745" lon="5.42086">
        <ele>928</ele>
        <time>2019-06-15T11:08:02.100Z</time>
      </trkpt>
      <trkpt lat="44.96742" lon="5.42088">
        <ele>928</ele>
        <time>2019-06-15T11:08:03.100Z</time>
      </trkpt>
      <trkpt lat="44.96739" lon="5.4209">
        <ele>929</ele>
        <time>2019-06-15T11:08:04.100Z</time>
      </trkpt>
      <trkpt lat="44.96736" lon="5.42091">
        <ele>929</ele>
        <time>2019-06-15T11:08:05.100Z</time>
      </trkpt>
      <trkpt lat="44.96734" lon="5.42091">
        <ele>929</ele>
        <time>2019-06-15T11:08:06.100Z</time>
      </trkpt>
      <trkpt lat="44.96731" lon="5.42092">
        <ele>929</ele>
        <time>2019-06-15T11:08:07.100Z</time>
      </trkpt>
      <trkpt lat="44.96729" lon="5.42093">
        <ele>927</ele>
        <time>2019-06-15T11:08:08.100Z</time>
      </trkpt>
      <trkpt lat="44.96727" lon="5.42095">
        <ele>927</ele>
        <time>2019-06-15T11:08:09.100Z</time>
      </trkpt>
      <trkpt lat="44.96726" lon="5.42098">
        <ele>927</ele>
        <time>2019-06-15T11:08:10.100Z</time>
      </trkpt>
      <trkpt lat="44.96725" lon="5.42101">
        <ele>926</ele>
        <time>2019-06-15T11:08:11.100Z</time>
      </trkpt>
      <trkpt lat="44.96724" lon="5.42104">
        <ele>925</ele>
        <time>2019-06-15T11:08:12.100Z</time>
      </trkpt>
      <trkpt lat="44.96722" lon="5.42108">
        <ele>924</ele>
        <time>2019-06-15T11:08:13.100Z</time>
      </trkpt>
      <trkpt lat="44.96722" lon="5.42111">
        <ele>924</ele>
        <time>2019-06-15T11:08:14.100Z</time>
      </trkpt>
      <trkpt lat="44.96722" lon="5.42115">
        <ele>923</ele>
        <time>2019-06-15T11:08:15.100Z</time>
      </trkpt>
      <trkpt lat="44.96722" lon="5.42119">
        <ele>922</ele>
        <time>2019-06-15T11:08:16.100Z</time>
      </trkpt>
      <trkpt lat="44.96722" lon="5.42123">
        <ele>921</ele>
        <time>2019-06-15T11:08:17.100Z</time>
      </trkpt>
      <trkpt lat="44.96721" lon="5.42126">
        <ele>920</ele>
        <time>2019-06-15T11:08:18.100Z</time>
      </trkpt>
      <trkpt lat="44.96721" lon="5.4213">
        <ele>919</ele>
        <time>2019-06-15T11:08:19.100Z</time>
      </trkpt>
      <trkpt lat="44.9672" lon="5.42133">
        <ele>918</ele>
        <time>2019-06-15T11:08:20.100Z</time>
      </trkpt>
      <trkpt lat="44.96719" lon="5.42137">
        <ele>917</ele>
        <time>2019-06-15T11:08:21.100Z</time>
      </trkpt>
      <trkpt lat="44.96717" lon="5.42139">
        <ele>917</ele>
        <time>2019-06-15T11:08:22.100Z</time>
      </trkpt>
      <trkpt lat="44.96715" lon="5.42141">
        <ele>916</ele>
        <time>2019-06-15T11:08:23.100Z</time>
      </trkpt>
      <trkpt lat="44.96712" lon="5.42142">
        <ele>914</ele>
        <time>2019-06-15T11:08:24.100Z</time>
      </trkpt>
      <trkpt lat="44.96709" lon="5.42143">
        <ele>913</ele>
        <time>2019-06-15T11:08:25.100Z</time>
      </trkpt>
      <trkpt lat="44.96706" lon="5.42144">
        <ele>912</ele>
        <time>2019-06-15T11:08:26.100Z</time>
      </trkpt>
      <trkpt lat="44.96704" lon="5.42144">
        <ele>911</ele>
        <time>2019-06-15T11:08:27.100Z</time>
      </trkpt>
      <trkpt lat="44.96701" lon="5.42144">
        <ele>910</ele>
        <time>2019-06-15T11:08:28.100Z</time>
      </trkpt>
      <trkpt lat="44.96699" lon="5.42145">
        <ele>909</ele>
        <time>2019-06-15T11:08:29.100Z</time>
      </trkpt>
      <trkpt lat="44.96696" lon="5.42145">
        <ele>909</ele>
        <time>2019-06-15T11:08:30.100Z</time>
      </trkpt>
      <trkpt lat="44.96694" lon="5.42146">
        <ele>907</ele>
        <time>2019-06-15T11:08:31.100Z</time>
      </trkpt>
      <trkpt lat="44.96691" lon="5.42146">
        <ele>907</ele>
        <time>2019-06-15T11:08:32.100Z</time>
      </trkpt>
      <trkpt lat="44.96689" lon="5.42147">
        <ele>905</ele>
        <time>2019-06-15T11:08:33.100Z</time>
      </trkpt>
      <trkpt lat="44.96687" lon="5.42148">
        <ele>904</ele>
        <time>2019-06-15T11:08:34.100Z</time>
      </trkpt>
      <trkpt lat="44.96684" lon="5.42149">
        <ele>903</ele>
        <time>2019-06-15T11:08:35.100Z</time>
      </trkpt>
      <trkpt lat="44.96681" lon="5.4215">
        <ele>901</ele>
        <time>2019-06-15T11:08:36.100Z</time>
      </trkpt>
      <trkpt lat="44.96678" lon="5.42152">
        <ele>900</ele>
        <time>2019-06-15T11:08:37.100Z</time>
      </trkpt>
      <trkpt lat="44.96676" lon="5.42153">
        <ele>899</ele>
        <time>2019-06-15T11:08:38.100Z</time>
      </trkpt>
      <trkpt lat="44.96673" lon="5.42155">
        <ele>898</ele>
        <time>2019-06-15T11:08:39.100Z</time>
      </trkpt>
      <trkpt lat="44.9667" lon="5.42156">
        <ele>897</ele>
        <time>2019-06-15T11:08:40.100Z</time>
      </trkpt>
      <trkpt lat="44.96667" lon="5.42158">
        <ele>899</ele>
        <time>2019-06-15T11:08:41.100Z</time>
      </trkpt>
      <trkpt lat="44.96663" lon="5.4216">
        <ele>899</ele>
        <time>2019-06-15T11:08:42.100Z</time>
      </trkpt>
      <trkpt lat="44.9666" lon="5.42162">
        <ele>900</ele>
        <time>2019-06-15T11:08:43.100Z</time>
      </trkpt>
      <trkpt lat="44.96657" lon="5.42164">
        <ele>900</ele>
        <time>2019-06-15T11:08:44.100Z</time>
      </trkpt>
      <trkpt lat="44.96655" lon="5.42166">
        <ele>900</ele>
        <time>2019-06-15T11:08:45.100Z</time>
      </trkpt>
      <trkpt lat="44.96652" lon="5.42168">
        <ele>899</ele>
        <time>2019-06-15T11:08:46.100Z</time>
      </trkpt>
      <trkpt lat="44.96649" lon="5.4217">
        <ele>899</ele>
        <time>2019-06-15T11:08:47.100Z</time>
      </trkpt>
      <trkpt lat="44.96647" lon="5.42172">
        <ele>900</ele>
        <time>2019-06-15T11:08:48.100Z</time>
      </trkpt>
      <trkpt lat="44.96644" lon="5.42175">
        <ele>900</ele>
        <time>2019-06-15T11:08:49.100Z</time>
      </trkpt>
      <trkpt lat="44.96641" lon="5.42178">
        <ele>901</ele>
        <time>2019-06-15T11:08:50.100Z</time>
      </trkpt>
      <trkpt lat="44.96637" lon="5.42181">
        <ele>903</ele>
        <time>2019-06-15T11:08:51.100Z</time>
      </trkpt>
      <trkpt lat="44.96634" lon="5.42183">
        <ele>903</ele>
        <time>2019-06-15T11:08:52.100Z</time>
      </trkpt>
      <trkpt lat="44.96631" lon="5.42186">
        <ele>903</ele>
        <time>2019-06-15T11:08:53.100Z</time>
      </trkpt>
      <trkpt lat="44.96628" lon="5.42188">
        <ele>903</ele>
        <time>2019-06-15T11:08:54.100Z</time>
      </trkpt>
      <trkpt lat="44.96625" lon="5.4219">
        <ele>903</ele>
        <time>2019-06-15T11:08:55.100Z</time>
      </trkpt>
      <trkpt lat="44.96622" lon="5.42192">
        <ele>903</ele>
        <time>2019-06-15T11:08:56.100Z</time>
      </trkpt>
      <trkpt lat="44.96619" lon="5.42195">
        <ele>904</ele>
        <time>2019-06-15T11:08:57.100Z</time>
      </trkpt>
      <trkpt lat="44.96616" lon="5.42197">
        <ele>903</ele>
        <time>2019-06-15T11:08:58.100Z</time>
      </trkpt>
      <trkpt lat="44.96613" lon="5.42198">
        <ele>902</ele>
        <time>2019-06-15T11:08:59.100Z</time>
      </trkpt>
      <trkpt lat="44.9661" lon="5.42199">
        <ele>902</ele>
        <time>2019-06-15T11:09:00.100Z</time>
      </trkpt>
      <trkpt lat="44.96607" lon="5.42199">
        <ele>902</ele>
        <time>2019-06-15T11:09:01.100Z</time>
      </trkpt>
      <trkpt lat="44.96604" lon="5.42199">
        <ele>901</ele>
        <time>2019-06-15T11:09:02.100Z</time>
      </trkpt>
      <trkpt lat="44.96601" lon="5.42199">
        <ele>901</ele>
        <time>2019-06-15T11:09:03.100Z</time>
      </trkpt>
      <trkpt lat="44.96598" lon="5.42198">
        <ele>900</ele>
        <time>2019-06-15T11:09:04.100Z</time>
      </trkpt>
      <trkpt lat="44.96595" lon="5.42198">
        <ele>900</ele>
        <time>2019-06-15T11:09:05.100Z</time>
      </trkpt>
      <trkpt lat="44.96592" lon="5.42197">
        <ele>899</ele>
        <time>2019-06-15T11:09:06.100Z</time>
      </trkpt>
      <trkpt lat="44.9659" lon="5.42196">
        <ele>899</ele>
        <time>2019-06-15T11:09:07.100Z</time>
      </trkpt>
      <trkpt lat="44.96587" lon="5.42194">
        <ele>899</ele>
        <time>2019-06-15T11:09:08.100Z</time>
      </trkpt>
      <trkpt lat="44.96584" lon="5.42193">
        <ele>899</ele>
        <time>2019-06-15T11:09:09.100Z</time>
      </trkpt>
      <trkpt lat="44.96581" lon="5.42191">
        <ele>899</ele>
        <time>2019-06-15T11:09:10.100Z</time>
      </trkpt>
      <trkpt lat="44.96578" lon="5.42189">
        <ele>899</ele>
        <time>2019-06-15T11:09:11.100Z</time>
      </trkpt>
      <trkpt lat="44.96575" lon="5.42187">
        <ele>898</ele>
        <time>2019-06-15T11:09:12.100Z</time>
      </trkpt>
      <trkpt lat="44.96572" lon="5.42185">
        <ele>900</ele>
        <time>2019-06-15T11:09:13.100Z</time>
      </trkpt>
      <trkpt lat="44.96569" lon="5.42184">
        <ele>902</ele>
        <time>2019-06-15T11:09:14.100Z</time>
      </trkpt>
      <trkpt lat="44.96566" lon="5.42183">
        <ele>902</ele>
        <time>2019-06-15T11:09:15.100Z</time>
      </trkpt>
      <trkpt lat="44.96563" lon="5.42182">
        <ele>903</ele>
        <time>2019-06-15T11:09:16.100Z</time>
      </trkpt>
      <trkpt lat="44.9656" lon="5.4218">
        <ele>903</ele>
        <time>2019-06-15T11:09:17.100Z</time>
      </trkpt>
      <trkpt lat="44.96557" lon="5.42179">
        <ele>903</ele>
        <time>2019-06-15T11:09:18.100Z</time>
      </trkpt>
      <trkpt lat="44.96555" lon="5.42177">
        <ele>903</ele>
        <time>2019-06-15T11:09:19.100Z</time>
      </trkpt>
      <trkpt lat="44.96552" lon="5.42176">
        <ele>903</ele>
        <time>2019-06-15T11:09:20.100Z</time>
      </trkpt>
      <trkpt lat="44.96549" lon="5.42174">
        <ele>902</ele>
        <time>2019-06-15T11:09:21.100Z</time>
      </trkpt>
      <trkpt lat="44.96547" lon="5.42172">
        <ele>902</ele>
        <time>2019-06-15T11:09:22.100Z</time>
      </trkpt>
      <trkpt lat="44.96544" lon="5.4217">
        <ele>903</ele>
        <time>2019-06-15T11:09:23.100Z</time>
      </trkpt>
      <trkpt lat="44.96542" lon="5.42168">
        <ele>904</ele>
        <time>2019-06-15T11:09:24.100Z</time>
      </trkpt>
      <trkpt lat="44.9654" lon="5.42165">
        <ele>904</ele>
        <time>2019-06-15T11:09:25.100Z</time>
      </trkpt>
      <trkpt lat="44.96539" lon="5.42163">
        <ele>905</ele>
        <time>2019-06-15T11:09:26.100Z</time>
      </trkpt>
      <trkpt lat="44.96538" lon="5.42161">
        <ele>907</ele>
        <time>2019-06-15T11:09:27.100Z</time>
      </trkpt>
      <trkpt lat="44.96537" lon="5.42161">
        <ele>906</ele>
        <time>2019-06-15T11:09:28.100Z</time>
      </trkpt>
      <trkpt lat="44.96536" lon="5.4216">
        <ele>907</ele>
        <time>2019-06-15T11:09:29.100Z</time>
      </trkpt>
      <trkpt lat="44.96535" lon="5.4216">
        <ele>907</ele>
        <time>2019-06-15T11:09:30.100Z</time>
      </trkpt>
      <trkpt lat="44.96535" lon="5.42159">
        <ele>907</ele>
        <time>2019-06-15T11:09:31.100Z</time>
      </trkpt>
      <trkpt lat="44.96534" lon="5.42159">
        <ele>907</ele>
        <time>2019-06-15T11:09:32.100Z</time>
      </trkpt>
      <trkpt lat="44.96534" lon="5.42158">
        <ele>907</ele>
        <time>2019-06-15T11:09:33.100Z</time>
      </trkpt>
      <trkpt lat="44.96533" lon="5.42157">
        <ele>907</ele>
        <time>2019-06-15T11:09:34.100Z</time>
      </trkpt>
      <trkpt lat="44.96533" lon="5.42156">
        <ele>907</ele>
        <time>2019-06-15T11:09:35.100Z</time>
      </trkpt>
      <trkpt lat="44.96532" lon="5.42154">
        <ele>907</ele>
        <time>2019-06-15T11:09:36.100Z</time>
      </trkpt>
      <trkpt lat="44.96532" lon="5.42153">
        <ele>908</ele>
        <time>2019-06-15T11:09:37.100Z</time>
      </trkpt>
      <trkpt lat="44.96531" lon="5.42152">
        <ele>908</ele>
        <time>2019-06-15T11:09:38.100Z</time>
      </trkpt>
      <trkpt lat="44.96531" lon="5.42151">
        <ele>909</ele>
        <time>2019-06-15T11:09:39.100Z</time>
      </trkpt>
      <trkpt lat="44.96531" lon="5.4215">
        <ele>909</ele>
        <time>2019-06-15T11:09:40.100Z</time>
      </trkpt>
      <trkpt lat="44.96532" lon="5.42148">
        <ele>909</ele>
        <time>2019-06-15T11:09:41.100Z</time>
      </trkpt>
      <trkpt lat="44.96532" lon="5.42147">
        <ele>909</ele>
        <time>2019-06-15T11:09:42.100Z</time>
      </trkpt>
      <trkpt lat="44.96531" lon="5.42146">
        <ele>909</ele>
        <time>2019-06-15T11:09:43.100Z</time>
      </trkpt>
      <trkpt lat="44.96531" lon="5.42145">
        <ele>909</ele>
        <time>2019-06-15T11:09:44.100Z</time>
      </trkpt>
      <trkpt lat="44.96531" lon="5.42144">
        <ele>910</ele>
        <time>2019-06-15T11:09:45.100Z</time>
      </trkpt>
      <trkpt lat="44.96531" lon="5.42143">
        <ele>910</ele>
        <time>2019-06-15T11:09:46.100Z</time>
      </trkpt>
      <trkpt lat="44.96531" lon="5.42142">
        <ele>911</ele>
        <time>2019-06-15T11:09:47.100Z</time>
      </trkpt>
      <trkpt lat="44.96531" lon="5.4214">
        <ele>912</ele>
        <time>2019-06-15T11:09:48.100Z</time>
      </trkpt>
      <trkpt lat="44.96531" lon="5.42139">
        <ele>912</ele>
        <time>2019-06-15T11:09:49.100Z</time>
      </trkpt>
      <trkpt lat="44.96531" lon="5.42138">
        <ele>912</ele>
        <time>2019-06-15T11:09:50.100Z</time>
      </trkpt>
      <trkpt lat="44.9653" lon="5.42137">
        <ele>912</ele>
        <time>2019-06-15T11:09:51.100Z</time>
      </trkpt>
      <trkpt lat="44.9653" lon="5.42136">
        <ele>912</ele>
        <time>2019-06-15T11:09:52.100Z</time>
      </trkpt>
      <trkpt lat="44.9653" lon="5.42135">
        <ele>913</ele>
        <time>2019-06-15T11:09:53.100Z</time>
      </trkpt>
      <trkpt lat="44.96529" lon="5.42135">
        <ele>913</ele>
        <time>2019-06-15T11:09:54.100Z</time>
      </trkpt>
      <trkpt lat="44.96529" lon="5.42134">
        <ele>913</ele>
        <time>2019-06-15T11:09:55.100Z</time>
      </trkpt>
      <trkpt lat="44.96529" lon="5.42133">
        <ele>913</ele>
        <time>2019-06-15T11:09:56.100Z</time>
      </trkpt>
      <trkpt lat="44.96529" lon="5.42133">
        <ele>914</ele>
        <time>2019-06-15T11:09:57.100Z</time>
      </trkpt>
      <trkpt lat="44.96529" lon="5.42132">
        <ele>913</ele>
        <time>2019-06-15T11:09:58.100Z</time>
      </trkpt>
      <trkpt lat="44.96529" lon="5.42132">
        <ele>914</ele>
        <time>2019-06-15T11:09:59.100Z</time>
      </trkpt>
      <trkpt lat="44.96529" lon="5.42131">
        <ele>915</ele>
        <time>2019-06-15T11:10:00.100Z</time>
      </trkpt>
      <trkpt lat="44.96529" lon="5.42131">
        <ele>915</ele>
        <time>2019-06-15T11:10:01.100Z</time>
      </trkpt>
      <trkpt lat="44.96528" lon="5.42131">
        <ele>915</ele>
        <time>2019-06-15T11:10:02.100Z</time>
      </trkpt>
      <trkpt lat="44.96528" lon="5.4213">
        <ele>915</ele>
        <time>2019-06-15T11:10:03.100Z</time>
      </trkpt>
      <trkpt lat="44.96527" lon="5.42129">
        <ele>916</ele>
        <time>2019-06-15T11:10:04.100Z</time>
      </trkpt>
      <trkpt lat="44.96527" lon="5.42129">
        <ele>915</ele>
        <time>2019-06-15T11:10:05.100Z</time>
      </trkpt>
      <trkpt lat="44.96527" lon="5.42128">
        <ele>916</ele>
        <time>2019-06-15T11:10:06.100Z</time>
      </trkpt>
      <trkpt lat="44.96527" lon="5.42128">
        <ele>916</ele>
        <time>2019-06-15T11:10:07.100Z</time>
      </trkpt>
      <trkpt lat="44.96526" lon="5.42128">
        <ele>916</ele>
        <time>2019-06-15T11:10:08.100Z</time>
      </trkpt>
      <trkpt lat="44.96526" lon="5.42128">
        <ele>916</ele>
        <time>2019-06-15T11:10:09.100Z</time>
      </trkpt>
      <trkpt lat="44.96526" lon="5.42128">
        <ele>917</ele>
        <time>2019-06-15T11:10:10.100Z</time>
      </trkpt>
      <trkpt lat="44.96524" lon="5.42125">
        <ele>915</ele>
        <time>2019-06-15T11:10:11.096Z</time>
      </trkpt>
      <trkpt lat="44.96524" lon="5.42125">
        <ele>915</ele>
        <time>2019-06-15T11:10:12.096Z</time>
      </trkpt>
      <trkpt lat="44.96523" lon="5.42124">
        <ele>916</ele>
        <time>2019-06-15T11:10:13.096Z</time>
      </trkpt>
      <trkpt lat="44.96522" lon="5.42123">
        <ele>915</ele>
        <time>2019-06-15T11:10:14.096Z</time>
      </trkpt>
      <trkpt lat="44.96522" lon="5.42123">
        <ele>915</ele>
        <time>2019-06-15T11:10:15.096Z</time>
      </trkpt>
      <trkpt lat="44.96521" lon="5.42122">
        <ele>915</ele>
        <time>2019-06-15T11:10:16.096Z</time>
      </trkpt>
      <trkpt lat="44.96521" lon="5.42122">
        <ele>915</ele>
        <time>2019-06-15T11:10:17.096Z</time>
      </trkpt>
      <trkpt lat="44.96521" lon="5.42123">
        <ele>915</ele>
        <time>2019-06-15T11:10:18.096Z</time>
      </trkpt>
      <trkpt lat="44.9652" lon="5.42125">
        <ele>918</ele>
        <time>2019-06-15T11:10:19.096Z</time>
      </trkpt>
      <trkpt lat="44.9652" lon="5.42129">
        <ele>918</ele>
        <time>2019-06-15T11:10:20.096Z</time>
      </trkpt>
      <trkpt lat="44.9652" lon="5.42133">
        <ele>917</ele>
        <time>2019-06-15T11:10:21.096Z</time>
      </trkpt>
      <trkpt lat="44.9652" lon="5.42137">
        <ele>917</ele>
        <time>2019-06-15T11:10:22.096Z</time>
      </trkpt>
      <trkpt lat="44.9652" lon="5.4214">
        <ele>916</ele>
        <time>2019-06-15T11:10:23.096Z</time>
      </trkpt>
      <trkpt lat="44.96519" lon="5.42143">
        <ele>916</ele>
        <time>2019-06-15T11:10:24.096Z</time>
      </trkpt>
      <trkpt lat="44.96519" lon="5.42147">
        <ele>915</ele>
        <time>2019-06-15T11:10:25.096Z</time>
      </trkpt>
      <trkpt lat="44.96519" lon="5.4215">
        <ele>914</ele>
        <time>2019-06-15T11:10:26.096Z</time>
      </trkpt>
      <trkpt lat="44.96519" lon="5.42153">
        <ele>914</ele>
        <time>2019-06-15T11:10:27.096Z</time>
      </trkpt>
      <trkpt lat="44.96519" lon="5.42157">
        <ele>913</ele>
        <time>2019-06-15T11:10:28.096Z</time>
      </trkpt>
      <trkpt lat="44.96519" lon="5.4216">
        <ele>913</ele>
        <time>2019-06-15T11:10:29.096Z</time>
      </trkpt>
      <trkpt lat="44.96519" lon="5.42165">
        <ele>912</ele>
        <time>2019-06-15T11:10:30.096Z</time>
      </trkpt>
      <trkpt lat="44.96518" lon="5.4217">
        <ele>913</ele>
        <time>2019-06-15T11:10:31.096Z</time>
      </trkpt>
      <trkpt lat="44.96517" lon="5.42174">
        <ele>913</ele>
        <time>2019-06-15T11:10:32.096Z</time>
      </trkpt>
      <trkpt lat="44.96516" lon="5.42178">
        <ele>913</ele>
        <time>2019-06-15T11:10:33.096Z</time>
      </trkpt>
      <trkpt lat="44.96514" lon="5.42182">
        <ele>912</ele>
        <time>2019-06-15T11:10:34.096Z</time>
      </trkpt>
      <trkpt lat="44.96513" lon="5.42185">
        <ele>912</ele>
        <time>2019-06-15T11:10:35.096Z</time>
      </trkpt>
      <trkpt lat="44.96511" lon="5.42188">
        <ele>911</ele>
        <time>2019-06-15T11:10:36.096Z</time>
      </trkpt>
      <trkpt lat="44.96509" lon="5.42191">
        <ele>911</ele>
        <time>2019-06-15T11:10:37.096Z</time>
      </trkpt>
      <trkpt lat="44.96506" lon="5.42193">
        <ele>911</ele>
        <time>2019-06-15T11:10:38.096Z</time>
      </trkpt>
      <trkpt lat="44.96503" lon="5.42194">
        <ele>911</ele>
        <time>2019-06-15T11:10:39.096Z</time>
      </trkpt>
      <trkpt lat="44.965" lon="5.42195">
        <ele>910</ele>
        <time>2019-06-15T11:10:40.096Z</time>
      </trkpt>
      <trkpt lat="44.96497" lon="5.42194">
        <ele>910</ele>
        <time>2019-06-15T11:10:41.096Z</time>
      </trkpt>
      <trkpt lat="44.96494" lon="5.42193">
        <ele>910</ele>
        <time>2019-06-15T11:10:42.096Z</time>
      </trkpt>
      <trkpt lat="44.96492" lon="5.42191">
        <ele>909</ele>
        <time>2019-06-15T11:10:43.096Z</time>
      </trkpt>
      <trkpt lat="44.9649" lon="5.42189">
        <ele>910</ele>
        <time>2019-06-15T11:10:44.096Z</time>
      </trkpt>
      <trkpt lat="44.96488" lon="5.42186">
        <ele>909</ele>
        <time>2019-06-15T11:10:45.096Z</time>
      </trkpt>
      <trkpt lat="44.96487" lon="5.42184">
        <ele>910</ele>
        <time>2019-06-15T11:10:46.096Z</time>
      </trkpt>
      <trkpt lat="44.96485" lon="5.42182">
        <ele>909</ele>
        <time>2019-06-15T11:10:47.096Z</time>
      </trkpt>
      <trkpt lat="44.96483" lon="5.4218">
        <ele>909</ele>
        <time>2019-06-15T11:10:48.096Z</time>
      </trkpt>
      <trkpt lat="44.96481" lon="5.42178">
        <ele>909</ele>
        <time>2019-06-15T11:10:49.096Z</time>
      </trkpt>
      <trkpt lat="44.96479" lon="5.42177">
        <ele>909</ele>
        <time>2019-06-15T11:10:50.096Z</time>
      </trkpt>
      <trkpt lat="44.96478" lon="5.42175">
        <ele>909</ele>
        <time>2019-06-15T11:10:51.096Z</time>
      </trkpt>
      <trkpt lat="44.96476" lon="5.42173">
        <ele>908</ele>
        <time>2019-06-15T11:10:52.096Z</time>
      </trkpt>
      <trkpt lat="44.96474" lon="5.42171">
        <ele>908</ele>
        <time>2019-06-15T11:10:53.096Z</time>
      </trkpt>
      <trkpt lat="44.96473" lon="5.42169">
        <ele>908</ele>
        <time>2019-06-15T11:10:54.096Z</time>
      </trkpt>
      <trkpt lat="44.96471" lon="5.42167">
        <ele>909</ele>
        <time>2019-06-15T11:10:55.096Z</time>
      </trkpt>
      <trkpt lat="44.96469" lon="5.42165">
        <ele>909</ele>
        <time>2019-06-15T11:10:56.096Z</time>
      </trkpt>
      <trkpt lat="44.96467" lon="5.42163">
        <ele>908</ele>
        <time>2019-06-15T11:10:57.096Z</time>
      </trkpt>
      <trkpt lat="44.96466" lon="5.42161">
        <ele>908</ele>
        <time>2019-06-15T11:10:58.096Z</time>
      </trkpt>
      <trkpt lat="44.96464" lon="5.42159">
        <ele>909</ele>
        <time>2019-06-15T11:10:59.096Z</time>
      </trkpt>
      <trkpt lat="44.96462" lon="5.42157">
        <ele>909</ele>
        <time>2019-06-15T11:11:00.096Z</time>
      </trkpt>
      <trkpt lat="44.9646" lon="5.42155">
        <ele>908</ele>
        <time>2019-06-15T11:11:01.096Z</time>
      </trkpt>
      <trkpt lat="44.96459" lon="5.42153">
        <ele>907</ele>
        <time>2019-06-15T11:11:02.096Z</time>
      </trkpt>
      <trkpt lat="44.96457" lon="5.42151">
        <ele>907</ele>
        <time>2019-06-15T11:11:03.096Z</time>
      </trkpt>
      <trkpt lat="44.96456" lon="5.42149">
        <ele>908</ele>
        <time>2019-06-15T11:11:04.096Z</time>
      </trkpt>
      <trkpt lat="44.96455" lon="5.42147">
        <ele>907</ele>
        <time>2019-06-15T11:11:05.096Z</time>
      </trkpt>
      <trkpt lat="44.96453" lon="5.42146">
        <ele>907</ele>
        <time>2019-06-15T11:11:06.096Z</time>
      </trkpt>
      <trkpt lat="44.96452" lon="5.42144">
        <ele>908</ele>
        <time>2019-06-15T11:11:07.096Z</time>
      </trkpt>
      <trkpt lat="44.96451" lon="5.42142">
        <ele>909</ele>
        <time>2019-06-15T11:11:08.096Z</time>
      </trkpt>
      <trkpt lat="44.9645" lon="5.4214">
        <ele>909</ele>
        <time>2019-06-15T11:11:09.096Z</time>
      </trkpt>
      <trkpt lat="44.96449" lon="5.42138">
        <ele>911</ele>
        <time>2019-06-15T11:11:10.096Z</time>
      </trkpt>
      <trkpt lat="44.96448" lon="5.42136">
        <ele>911</ele>
        <time>2019-06-15T11:11:11.096Z</time>
      </trkpt>
      <trkpt lat="44.96446" lon="5.42134">
        <ele>912</ele>
        <time>2019-06-15T11:11:12.096Z</time>
      </trkpt>
      <trkpt lat="44.96445" lon="5.42132">
        <ele>913</ele>
        <time>2019-06-15T11:11:13.096Z</time>
      </trkpt>
      <trkpt lat="44.96444" lon="5.4213">
        <ele>913</ele>
        <time>2019-06-15T11:11:14.096Z</time>
      </trkpt>
      <trkpt lat="44.96443" lon="5.42127">
        <ele>913</ele>
        <time>2019-06-15T11:11:15.096Z</time>
      </trkpt>
      <trkpt lat="44.96441" lon="5.42126">
        <ele>913</ele>
        <time>2019-06-15T11:11:16.096Z</time>
      </trkpt>
      <trkpt lat="44.9644" lon="5.42124">
        <ele>913</ele>
        <time>2019-06-15T11:11:17.096Z</time>
      </trkpt>
      <trkpt lat="44.96439" lon="5.42122">
        <ele>914</ele>
        <time>2019-06-15T11:11:18.096Z</time>
      </trkpt>
      <trkpt lat="44.96437" lon="5.4212">
        <ele>914</ele>
        <time>2019-06-15T11:11:19.096Z</time>
      </trkpt>
      <trkpt lat="44.96436" lon="5.42118">
        <ele>914</ele>
        <time>2019-06-15T11:11:20.096Z</time>
      </trkpt>
      <trkpt lat="44.96435" lon="5.42116">
        <ele>914</ele>
        <time>2019-06-15T11:11:21.096Z</time>
      </trkpt>
      <trkpt lat="44.96433" lon="5.42114">
        <ele>914</ele>
        <time>2019-06-15T11:11:22.096Z</time>
      </trkpt>
      <trkpt lat="44.96432" lon="5.42113">
        <ele>914</ele>
        <time>2019-06-15T11:11:23.096Z</time>
      </trkpt>
      <trkpt lat="44.9643" lon="5.42111">
        <ele>915</ele>
        <time>2019-06-15T11:11:24.096Z</time>
      </trkpt>
      <trkpt lat="44.96429" lon="5.4211">
        <ele>916</ele>
        <time>2019-06-15T11:11:25.096Z</time>
      </trkpt>
      <trkpt lat="44.96427" lon="5.42108">
        <ele>916</ele>
        <time>2019-06-15T11:11:26.096Z</time>
      </trkpt>
      <trkpt lat="44.96425" lon="5.42107">
        <ele>916</ele>
        <time>2019-06-15T11:11:27.096Z</time>
      </trkpt>
      <trkpt lat="44.96424" lon="5.42106">
        <ele>917</ele>
        <time>2019-06-15T11:11:28.096Z</time>
      </trkpt>
      <trkpt lat="44.96422" lon="5.42105">
        <ele>919</ele>
        <time>2019-06-15T11:11:29.096Z</time>
      </trkpt>
      <trkpt lat="44.96421" lon="5.42104">
        <ele>919</ele>
        <time>2019-06-15T11:11:30.096Z</time>
      </trkpt>
      <trkpt lat="44.96419" lon="5.42102">
        <ele>919</ele>
        <time>2019-06-15T11:11:31.096Z</time>
      </trkpt>
      <trkpt lat="44.96417" lon="5.42101">
        <ele>919</ele>
        <time>2019-06-15T11:11:32.096Z</time>
      </trkpt>
      <trkpt lat="44.96415" lon="5.42099">
        <ele>920</ele>
        <time>2019-06-15T11:11:33.096Z</time>
      </trkpt>
      <trkpt lat="44.96413" lon="5.42098">
        <ele>920</ele>
        <time>2019-06-15T11:11:34.096Z</time>
      </trkpt>
      <trkpt lat="44.96411" lon="5.42097">
        <ele>920</ele>
        <time>2019-06-15T11:11:35.096Z</time>
      </trkpt>
      <trkpt lat="44.96409" lon="5.42095">
        <ele>920</ele>
        <time>2019-06-15T11:11:36.096Z</time>
      </trkpt>
      <trkpt lat="44.96407" lon="5.42094">
        <ele>921</ele>
        <time>2019-06-15T11:11:37.096Z</time>
      </trkpt>
      <trkpt lat="44.96405" lon="5.42093">
        <ele>922</ele>
        <time>2019-06-15T11:11:38.096Z</time>
      </trkpt>
      <trkpt lat="44.96404" lon="5.42093">
        <ele>922</ele>
        <time>2019-06-15T11:11:39.096Z</time>
      </trkpt>
      <trkpt lat="44.96401" lon="5.42092">
        <ele>922</ele>
        <time>2019-06-15T11:11:40.096Z</time>
      </trkpt>
      <trkpt lat="44.96399" lon="5.42092">
        <ele>921</ele>
        <time>2019-06-15T11:11:41.096Z</time>
      </trkpt>
      <trkpt lat="44.96396" lon="5.42091">
        <ele>920</ele>
        <time>2019-06-15T11:11:42.096Z</time>
      </trkpt>
      <trkpt lat="44.96394" lon="5.42091">
        <ele>920</ele>
        <time>2019-06-15T11:11:43.096Z</time>
      </trkpt>
      <trkpt lat="44.96392" lon="5.4209">
        <ele>920</ele>
        <time>2019-06-15T11:11:44.096Z</time>
      </trkpt>
      <trkpt lat="44.96389" lon="5.4209">
        <ele>919</ele>
        <time>2019-06-15T11:11:45.096Z</time>
      </trkpt>
      <trkpt lat="44.96387" lon="5.4209">
        <ele>919</ele>
        <time>2019-06-15T11:11:46.096Z</time>
      </trkpt>
      <trkpt lat="44.96385" lon="5.42091">
        <ele>919</ele>
        <time>2019-06-15T11:11:47.096Z</time>
      </trkpt>
      <trkpt lat="44.96382" lon="5.42091">
        <ele>917</ele>
        <time>2019-06-15T11:11:48.096Z</time>
      </trkpt>
      <trkpt lat="44.9638" lon="5.42091">
        <ele>916</ele>
        <time>2019-06-15T11:11:49.096Z</time>
      </trkpt>
      <trkpt lat="44.96377" lon="5.42091">
        <ele>916</ele>
        <time>2019-06-15T11:11:50.096Z</time>
      </trkpt>
      <trkpt lat="44.96374" lon="5.42092">
        <ele>915</ele>
        <time>2019-06-15T11:11:51.096Z</time>
      </trkpt>
      <trkpt lat="44.96372" lon="5.42091">
        <ele>914</ele>
        <time>2019-06-15T11:11:52.096Z</time>
      </trkpt>
      <trkpt lat="44.96369" lon="5.42091">
        <ele>913</ele>
        <time>2019-06-15T11:11:53.096Z</time>
      </trkpt>
      <trkpt lat="44.96366" lon="5.42091">
        <ele>913</ele>
        <time>2019-06-15T11:11:54.096Z</time>
      </trkpt>
      <trkpt lat="44.96363" lon="5.42092">
        <ele>913</ele>
        <time>2019-06-15T11:11:55.096Z</time>
      </trkpt>
      <trkpt lat="44.9636" lon="5.42092">
        <ele>913</ele>
        <time>2019-06-15T11:11:56.096Z</time>
      </trkpt>
      <trkpt lat="44.96358" lon="5.42093">
        <ele>913</ele>
        <time>2019-06-15T11:11:57.096Z</time>
      </trkpt>
      <trkpt lat="44.96355" lon="5.42093">
        <ele>912</ele>
        <time>2019-06-15T11:11:58.096Z</time>
      </trkpt>
      <trkpt lat="44.96352" lon="5.42093">
        <ele>911</ele>
        <time>2019-06-15T11:11:59.096Z</time>
      </trkpt>
      <trkpt lat="44.96349" lon="5.42092">
        <ele>911</ele>
        <time>2019-06-15T11:12:00.096Z</time>
      </trkpt>
      <trkpt lat="44.96346" lon="5.42091">
        <ele>910</ele>
        <time>2019-06-15T11:12:01.096Z</time>
      </trkpt>
      <trkpt lat="44.96343" lon="5.4209">
        <ele>910</ele>
        <time>2019-06-15T11:12:02.096Z</time>
      </trkpt>
      <trkpt lat="44.9634" lon="5.4209">
        <ele>910</ele>
        <time>2019-06-15T11:12:03.096Z</time>
      </trkpt>
      <trkpt lat="44.96338" lon="5.42089">
        <ele>909</ele>
        <time>2019-06-15T11:12:04.096Z</time>
      </trkpt>
      <trkpt lat="44.96335" lon="5.42088">
        <ele>908</ele>
        <time>2019-06-15T11:12:05.096Z</time>
      </trkpt>
      <trkpt lat="44.96332" lon="5.42087">
        <ele>910</ele>
        <time>2019-06-15T11:12:06.096Z</time>
      </trkpt>
      <trkpt lat="44.96329" lon="5.42085">
        <ele>909</ele>
        <time>2019-06-15T11:12:07.096Z</time>
      </trkpt>
      <trkpt lat="44.96326" lon="5.42083">
        <ele>908</ele>
        <time>2019-06-15T11:12:08.096Z</time>
      </trkpt>
      <trkpt lat="44.96324" lon="5.42082">
        <ele>907</ele>
        <time>2019-06-15T11:12:09.096Z</time>
      </trkpt>
      <trkpt lat="44.96321" lon="5.4208">
        <ele>907</ele>
        <time>2019-06-15T11:12:10.096Z</time>
      </trkpt>
      <trkpt lat="44.96318" lon="5.42079">
        <ele>906</ele>
        <time>2019-06-15T11:12:11.096Z</time>
      </trkpt>
      <trkpt lat="44.96316" lon="5.42077">
        <ele>905</ele>
        <time>2019-06-15T11:12:12.096Z</time>
      </trkpt>
      <trkpt lat="44.96313" lon="5.42077">
        <ele>904</ele>
        <time>2019-06-15T11:12:13.096Z</time>
      </trkpt>
      <trkpt lat="44.9631" lon="5.42077">
        <ele>903</ele>
        <time>2019-06-15T11:12:14.096Z</time>
      </trkpt>
      <trkpt lat="44.96307" lon="5.42078">
        <ele>904</ele>
        <time>2019-06-15T11:12:15.096Z</time>
      </trkpt>
      <trkpt lat="44.96304" lon="5.42078">
        <ele>903</ele>
        <time>2019-06-15T11:12:16.096Z</time>
      </trkpt>
      <trkpt lat="44.96301" lon="5.42078">
        <ele>903</ele>
        <time>2019-06-15T11:12:17.096Z</time>
      </trkpt>
      <trkpt lat="44.96298" lon="5.42079">
        <ele>902</ele>
        <time>2019-06-15T11:12:18.096Z</time>
      </trkpt>
      <trkpt lat="44.96295" lon="5.42079">
        <ele>901</ele>
        <time>2019-06-15T11:12:19.096Z</time>
      </trkpt>
      <trkpt lat="44.96292" lon="5.42079">
        <ele>900</ele>
        <time>2019-06-15T11:12:20.096Z</time>
      </trkpt>
      <trkpt lat="44.9629" lon="5.42079">
        <ele>898</ele>
        <time>2019-06-15T11:12:21.096Z</time>
      </trkpt>
      <trkpt lat="44.96287" lon="5.4208">
        <ele>897</ele>
        <time>2019-06-15T11:12:22.096Z</time>
      </trkpt>
      <trkpt lat="44.96285" lon="5.4208">
        <ele>896</ele>
        <time>2019-06-15T11:12:23.096Z</time>
      </trkpt>
      <trkpt lat="44.96282" lon="5.42081">
        <ele>896</ele>
        <time>2019-06-15T11:12:24.096Z</time>
      </trkpt>
      <trkpt lat="44.9628" lon="5.42081">
        <ele>895</ele>
        <time>2019-06-15T11:12:25.096Z</time>
      </trkpt>
      <trkpt lat="44.96277" lon="5.42082">
        <ele>894</ele>
        <time>2019-06-15T11:12:26.096Z</time>
      </trkpt>
      <trkpt lat="44.96274" lon="5.42082">
        <ele>893</ele>
        <time>2019-06-15T11:12:27.096Z</time>
      </trkpt>
      <trkpt lat="44.96271" lon="5.42082">
        <ele>891</ele>
        <time>2019-06-15T11:12:28.096Z</time>
      </trkpt>
      <trkpt lat="44.96268" lon="5.42083">
        <ele>891</ele>
        <time>2019-06-15T11:12:29.096Z</time>
      </trkpt>
      <trkpt lat="44.96264" lon="5.42083">
        <ele>893</ele>
        <time>2019-06-15T11:12:30.096Z</time>
      </trkpt>
      <trkpt lat="44.96261" lon="5.42082">
        <ele>893</ele>
        <time>2019-06-15T11:12:31.096Z</time>
      </trkpt>
      <trkpt lat="44.96257" lon="5.42082">
        <ele>892</ele>
        <time>2019-06-15T11:12:32.096Z</time>
      </trkpt>
      <trkpt lat="44.96254" lon="5.42082">
        <ele>891</ele>
        <time>2019-06-15T11:12:33.096Z</time>
      </trkpt>
      <trkpt lat="44.96251" lon="5.42082">
        <ele>890</ele>
        <time>2019-06-15T11:12:34.096Z</time>
      </trkpt>
      <trkpt lat="44.96248" lon="5.42082">
        <ele>890</ele>
        <time>2019-06-15T11:12:35.096Z</time>
      </trkpt>
      <trkpt lat="44.96245" lon="5.42082">
        <ele>889</ele>
        <time>2019-06-15T11:12:36.096Z</time>
      </trkpt>
      <trkpt lat="44.96242" lon="5.42083">
        <ele>888</ele>
        <time>2019-06-15T11:12:37.096Z</time>
      </trkpt>
      <trkpt lat="44.96239" lon="5.42083">
        <ele>888</ele>
        <time>2019-06-15T11:12:38.096Z</time>
      </trkpt>
      <trkpt lat="44.96236" lon="5.42083">
        <ele>891</ele>
        <time>2019-06-15T11:12:39.096Z</time>
      </trkpt>
      <trkpt lat="44.96232" lon="5.42083">
        <ele>890</ele>
        <time>2019-06-15T11:12:40.096Z</time>
      </trkpt>
      <trkpt lat="44.96229" lon="5.42082">
        <ele>890</ele>
        <time>2019-06-15T11:12:41.096Z</time>
      </trkpt>
      <trkpt lat="44.96226" lon="5.42082">
        <ele>891</ele>
        <time>2019-06-15T11:12:42.096Z</time>
      </trkpt>
      <trkpt lat="44.96224" lon="5.42082">
        <ele>892</ele>
        <time>2019-06-15T11:12:43.096Z</time>
      </trkpt>
      <trkpt lat="44.96221" lon="5.42083">
        <ele>891</ele>
        <time>2019-06-15T11:12:44.096Z</time>
      </trkpt>
      <trkpt lat="44.96219" lon="5.42084">
        <ele>891</ele>
        <time>2019-06-15T11:12:45.096Z</time>
      </trkpt>
      <trkpt lat="44.96217" lon="5.42084">
        <ele>891</ele>
        <time>2019-06-15T11:12:46.096Z</time>
      </trkpt>
      <trkpt lat="44.96215" lon="5.42085">
        <ele>890</ele>
        <time>2019-06-15T11:12:47.096Z</time>
      </trkpt>
      <trkpt lat="44.96213" lon="5.42087">
        <ele>890</ele>
        <time>2019-06-15T11:12:48.096Z</time>
      </trkpt>
      <trkpt lat="44.96211" lon="5.42091">
        <ele>890</ele>
        <time>2019-06-15T11:12:49.096Z</time>
      </trkpt>
      <trkpt lat="44.96209" lon="5.42094">
        <ele>892</ele>
        <time>2019-06-15T11:12:50.096Z</time>
      </trkpt>
      <trkpt lat="44.96207" lon="5.42097">
        <ele>892</ele>
        <time>2019-06-15T11:12:51.096Z</time>
      </trkpt>
      <trkpt lat="44.96204" lon="5.42098">
        <ele>892</ele>
        <time>2019-06-15T11:12:52.096Z</time>
      </trkpt>
      <trkpt lat="44.96201" lon="5.42098">
        <ele>891</ele>
        <time>2019-06-15T11:12:53.096Z</time>
      </trkpt>
      <trkpt lat="44.96198" lon="5.42099">
        <ele>891</ele>
        <time>2019-06-15T11:12:54.096Z</time>
      </trkpt>
      <trkpt lat="44.96195" lon="5.42099">
        <ele>891</ele>
        <time>2019-06-15T11:12:55.096Z</time>
      </trkpt>
      <trkpt lat="44.96192" lon="5.421">
        <ele>890</ele>
        <time>2019-06-15T11:12:56.096Z</time>
      </trkpt>
      <trkpt lat="44.9619" lon="5.42102">
        <ele>890</ele>
        <time>2019-06-15T11:12:57.096Z</time>
      </trkpt>
      <trkpt lat="44.96188" lon="5.42104">
        <ele>889</ele>
        <time>2019-06-15T11:12:58.096Z</time>
      </trkpt>
      <trkpt lat="44.96185" lon="5.42106">
        <ele>888</ele>
        <time>2019-06-15T11:12:59.096Z</time>
      </trkpt>
      <trkpt lat="44.96183" lon="5.42107">
        <ele>888</ele>
        <time>2019-06-15T11:13:00.096Z</time>
      </trkpt>
      <trkpt lat="44.9618" lon="5.42107">
        <ele>887</ele>
        <time>2019-06-15T11:13:01.096Z</time>
      </trkpt>
      <trkpt lat="44.96178" lon="5.42107">
        <ele>887</ele>
        <time>2019-06-15T11:13:02.096Z</time>
      </trkpt>
      <trkpt lat="44.96175" lon="5.42107">
        <ele>886</ele>
        <time>2019-06-15T11:13:03.096Z</time>
      </trkpt>
      <trkpt lat="44.96172" lon="5.42107">
        <ele>885</ele>
        <time>2019-06-15T11:13:04.096Z</time>
      </trkpt>
      <trkpt lat="44.9617" lon="5.42106">
        <ele>885</ele>
        <time>2019-06-15T11:13:05.096Z</time>
      </trkpt>
      <trkpt lat="44.96167" lon="5.42105">
        <ele>885</ele>
        <time>2019-06-15T11:13:06.096Z</time>
      </trkpt>
      <trkpt lat="44.96165" lon="5.42104">
        <ele>884</ele>
        <time>2019-06-15T11:13:07.096Z</time>
      </trkpt>
      <trkpt lat="44.96163" lon="5.42102">
        <ele>883</ele>
        <time>2019-06-15T11:13:08.096Z</time>
      </trkpt>
      <trkpt lat="44.96161" lon="5.421">
        <ele>882</ele>
        <time>2019-06-15T11:13:09.096Z</time>
      </trkpt>
      <trkpt lat="44.96159" lon="5.42098">
        <ele>882</ele>
        <time>2019-06-15T11:13:10.096Z</time>
      </trkpt>
      <trkpt lat="44.96157" lon="5.42095">
        <ele>881</ele>
        <time>2019-06-15T11:13:11.096Z</time>
      </trkpt>
      <trkpt lat="44.96155" lon="5.42093">
        <ele>881</ele>
        <time>2019-06-15T11:13:12.096Z</time>
      </trkpt>
      <trkpt lat="44.96153" lon="5.42092">
        <ele>879</ele>
        <time>2019-06-15T11:13:13.096Z</time>
      </trkpt>
      <trkpt lat="44.96151" lon="5.4209">
        <ele>879</ele>
        <time>2019-06-15T11:13:14.096Z</time>
      </trkpt>
      <trkpt lat="44.96149" lon="5.42088">
        <ele>878</ele>
        <time>2019-06-15T11:13:15.096Z</time>
      </trkpt>
      <trkpt lat="44.96149" lon="5.42084">
        <ele>875</ele>
        <time>2019-06-15T11:13:16.096Z</time>
      </trkpt>
      <trkpt lat="44.96149" lon="5.4208">
        <ele>875</ele>
        <time>2019-06-15T11:13:17.096Z</time>
      </trkpt>
      <trkpt lat="44.9615" lon="5.42077">
        <ele>875</ele>
        <time>2019-06-15T11:13:18.096Z</time>
      </trkpt>
      <trkpt lat="44.9615" lon="5.42074">
        <ele>874</ele>
        <time>2019-06-15T11:13:19.096Z</time>
      </trkpt>
      <trkpt lat="44.96151" lon="5.42071">
        <ele>873</ele>
        <time>2019-06-15T11:13:20.096Z</time>
      </trkpt>
      <trkpt lat="44.96152" lon="5.42068">
        <ele>874</ele>
        <time>2019-06-15T11:13:21.096Z</time>
      </trkpt>
      <trkpt lat="44.96154" lon="5.42064">
        <ele>874</ele>
        <time>2019-06-15T11:13:22.096Z</time>
      </trkpt>
      <trkpt lat="44.96155" lon="5.42061">
        <ele>872</ele>
        <time>2019-06-15T11:13:23.096Z</time>
      </trkpt>
      <trkpt lat="44.96157" lon="5.42058">
        <ele>872</ele>
        <time>2019-06-15T11:13:24.096Z</time>
      </trkpt>
      <trkpt lat="44.96159" lon="5.42055">
        <ele>874</ele>
        <time>2019-06-15T11:13:25.096Z</time>
      </trkpt>
      <trkpt lat="44.9616" lon="5.42053">
        <ele>874</ele>
        <time>2019-06-15T11:13:26.096Z</time>
      </trkpt>
      <trkpt lat="44.96162" lon="5.4205">
        <ele>874</ele>
        <time>2019-06-15T11:13:27.096Z</time>
      </trkpt>
      <trkpt lat="44.96163" lon="5.42047">
        <ele>874</ele>
        <time>2019-06-15T11:13:28.096Z</time>
      </trkpt>
      <trkpt lat="44.96165" lon="5.42043">
        <ele>874</ele>
        <time>2019-06-15T11:13:29.096Z</time>
      </trkpt>
      <trkpt lat="44.96166" lon="5.4204">
        <ele>873</ele>
        <time>2019-06-15T11:13:30.096Z</time>
      </trkpt>
      <trkpt lat="44.96168" lon="5.42036">
        <ele>873</ele>
        <time>2019-06-15T11:13:31.096Z</time>
      </trkpt>
      <trkpt lat="44.96169" lon="5.42033">
        <ele>872</ele>
        <time>2019-06-15T11:13:32.096Z</time>
      </trkpt>
      <trkpt lat="44.96171" lon="5.42029">
        <ele>872</ele>
        <time>2019-06-15T11:13:33.096Z</time>
      </trkpt>
      <trkpt lat="44.96173" lon="5.42026">
        <ele>871</ele>
        <time>2019-06-15T11:13:34.096Z</time>
      </trkpt>
      <trkpt lat="44.96175" lon="5.42023">
        <ele>872</ele>
        <time>2019-06-15T11:13:35.096Z</time>
      </trkpt>
      <trkpt lat="44.96177" lon="5.4202">
        <ele>873</ele>
        <time>2019-06-15T11:13:36.096Z</time>
      </trkpt>
      <trkpt lat="44.96179" lon="5.42017">
        <ele>873</ele>
        <time>2019-06-15T11:13:37.096Z</time>
      </trkpt>
      <trkpt lat="44.9618" lon="5.42014">
        <ele>873</ele>
        <time>2019-06-15T11:13:38.096Z</time>
      </trkpt>
      <trkpt lat="44.96182" lon="5.42011">
        <ele>874</ele>
        <time>2019-06-15T11:13:39.096Z</time>
      </trkpt>
      <trkpt lat="44.96184" lon="5.42008">
        <ele>875</ele>
        <time>2019-06-15T11:13:40.096Z</time>
      </trkpt>
      <trkpt lat="44.96185" lon="5.42005">
        <ele>875</ele>
        <time>2019-06-15T11:13:41.096Z</time>
      </trkpt>
      <trkpt lat="44.96186" lon="5.42001">
        <ele>875</ele>
        <time>2019-06-15T11:13:42.096Z</time>
      </trkpt>
      <trkpt lat="44.96187" lon="5.41996">
        <ele>876</ele>
        <time>2019-06-15T11:13:43.096Z</time>
      </trkpt>
      <trkpt lat="44.96188" lon="5.41992">
        <ele>876</ele>
        <time>2019-06-15T11:13:44.096Z</time>
      </trkpt>
      <trkpt lat="44.96188" lon="5.41987">
        <ele>875</ele>
        <time>2019-06-15T11:13:45.096Z</time>
      </trkpt>
      <trkpt lat="44.96189" lon="5.41983">
        <ele>876</ele>
        <time>2019-06-15T11:13:46.096Z</time>
      </trkpt>
      <trkpt lat="44.96189" lon="5.41978">
        <ele>876</ele>
        <time>2019-06-15T11:13:47.096Z</time>
      </trkpt>
      <trkpt lat="44.96189" lon="5.41974">
        <ele>877</ele>
        <time>2019-06-15T11:13:48.096Z</time>
      </trkpt>
      <trkpt lat="44.96188" lon="5.41969">
        <ele>877</ele>
        <time>2019-06-15T11:13:49.096Z</time>
      </trkpt>
      <trkpt lat="44.96188" lon="5.41965">
        <ele>877</ele>
        <time>2019-06-15T11:13:50.096Z</time>
      </trkpt>
      <trkpt lat="44.96188" lon="5.41961">
        <ele>877</ele>
        <time>2019-06-15T11:13:51.096Z</time>
      </trkpt>
      <trkpt lat="44.96189" lon="5.41957">
        <ele>876</ele>
        <time>2019-06-15T11:13:52.096Z</time>
      </trkpt>
      <trkpt lat="44.9619" lon="5.41954">
        <ele>876</ele>
        <time>2019-06-15T11:13:53.096Z</time>
      </trkpt>
      <trkpt lat="44.96191" lon="5.41951">
        <ele>875</ele>
        <time>2019-06-15T11:13:54.096Z</time>
      </trkpt>
      <trkpt lat="44.96192" lon="5.41948">
        <ele>874</ele>
        <time>2019-06-15T11:13:55.096Z</time>
      </trkpt>
      <trkpt lat="44.96193" lon="5.41946">
        <ele>874</ele>
        <time>2019-06-15T11:13:56.096Z</time>
      </trkpt>
      <trkpt lat="44.96195" lon="5.41943">
        <ele>873</ele>
        <time>2019-06-15T11:13:57.096Z</time>
      </trkpt>
      <trkpt lat="44.96197" lon="5.41941">
        <ele>874</ele>
        <time>2019-06-15T11:13:58.096Z</time>
      </trkpt>
      <trkpt lat="44.96199" lon="5.41939">
        <ele>872</ele>
        <time>2019-06-15T11:13:59.096Z</time>
      </trkpt>
      <trkpt lat="44.96201" lon="5.41937">
        <ele>871</ele>
        <time>2019-06-15T11:14:00.096Z</time>
      </trkpt>
      <trkpt lat="44.96204" lon="5.41936">
        <ele>871</ele>
        <time>2019-06-15T11:14:01.096Z</time>
      </trkpt>
      <trkpt lat="44.96206" lon="5.41935">
        <ele>870</ele>
        <time>2019-06-15T11:14:02.096Z</time>
      </trkpt>
      <trkpt lat="44.96209" lon="5.41934">
        <ele>869</ele>
        <time>2019-06-15T11:14:03.096Z</time>
      </trkpt>
      <trkpt lat="44.96211" lon="5.41933">
        <ele>868</ele>
        <time>2019-06-15T11:14:04.096Z</time>
      </trkpt>
      <trkpt lat="44.96212" lon="5.41933">
        <ele>868</ele>
        <time>2019-06-15T11:14:05.096Z</time>
      </trkpt>
      <trkpt lat="44.96214" lon="5.41932">
        <ele>868</ele>
        <time>2019-06-15T11:14:06.096Z</time>
      </trkpt>
      <trkpt lat="44.96216" lon="5.41931">
        <ele>868</ele>
        <time>2019-06-15T11:14:07.096Z</time>
      </trkpt>
      <trkpt lat="44.96219" lon="5.4193">
        <ele>868</ele>
        <time>2019-06-15T11:14:08.096Z</time>
      </trkpt>
      <trkpt lat="44.96221" lon="5.41929">
        <ele>867</ele>
        <time>2019-06-15T11:14:09.096Z</time>
      </trkpt>
      <trkpt lat="44.96222" lon="5.41928">
        <ele>868</ele>
        <time>2019-06-15T11:14:10.096Z</time>
      </trkpt>
      <trkpt lat="44.96224" lon="5.41927">
        <ele>868</ele>
        <time>2019-06-15T11:14:11.096Z</time>
      </trkpt>
      <trkpt lat="44.96227" lon="5.41926">
        <ele>867</ele>
        <time>2019-06-15T11:14:12.096Z</time>
      </trkpt>
      <trkpt lat="44.96229" lon="5.41925">
        <ele>867</ele>
        <time>2019-06-15T11:14:13.096Z</time>
      </trkpt>
      <trkpt lat="44.96232" lon="5.41924">
        <ele>869</ele>
        <time>2019-06-15T11:14:14.096Z</time>
      </trkpt>
      <trkpt lat="44.96234" lon="5.41923">
        <ele>869</ele>
        <time>2019-06-15T11:14:15.096Z</time>
      </trkpt>
      <trkpt lat="44.96237" lon="5.41922">
        <ele>870</ele>
        <time>2019-06-15T11:14:16.096Z</time>
      </trkpt>
      <trkpt lat="44.9624" lon="5.41921">
        <ele>871</ele>
        <time>2019-06-15T11:14:17.096Z</time>
      </trkpt>
      <trkpt lat="44.96243" lon="5.4192">
        <ele>872</ele>
        <time>2019-06-15T11:14:18.096Z</time>
      </trkpt>
      <trkpt lat="44.96246" lon="5.41919">
        <ele>872</ele>
        <time>2019-06-15T11:14:19.096Z</time>
      </trkpt>
      <trkpt lat="44.96249" lon="5.41918">
        <ele>872</ele>
        <time>2019-06-15T11:14:20.096Z</time>
      </trkpt>
      <trkpt lat="44.96252" lon="5.41917">
        <ele>871</ele>
        <time>2019-06-15T11:14:21.096Z</time>
      </trkpt>
      <trkpt lat="44.96255" lon="5.41917">
        <ele>871</ele>
        <time>2019-06-15T11:14:22.096Z</time>
      </trkpt>
      <trkpt lat="44.96258" lon="5.41917">
        <ele>872</ele>
        <time>2019-06-15T11:14:23.096Z</time>
      </trkpt>
      <trkpt lat="44.9626" lon="5.41916">
        <ele>871</ele>
        <time>2019-06-15T11:14:24.096Z</time>
      </trkpt>
      <trkpt lat="44.96263" lon="5.41915">
        <ele>871</ele>
        <time>2019-06-15T11:14:25.096Z</time>
      </trkpt>
      <trkpt lat="44.96266" lon="5.41914">
        <ele>872</ele>
        <time>2019-06-15T11:14:26.096Z</time>
      </trkpt>
      <trkpt lat="44.96268" lon="5.41913">
        <ele>873</ele>
        <time>2019-06-15T11:14:27.096Z</time>
      </trkpt>
      <trkpt lat="44.9627" lon="5.41912">
        <ele>875</ele>
        <time>2019-06-15T11:14:28.096Z</time>
      </trkpt>
      <trkpt lat="44.96272" lon="5.4191">
        <ele>877</ele>
        <time>2019-06-15T11:14:29.096Z</time>
      </trkpt>
      <trkpt lat="44.96274" lon="5.41909">
        <ele>876</ele>
        <time>2019-06-15T11:14:30.096Z</time>
      </trkpt>
      <trkpt lat="44.96276" lon="5.41907">
        <ele>877</ele>
        <time>2019-06-15T11:14:31.096Z</time>
      </trkpt>
      <trkpt lat="44.96278" lon="5.41905">
        <ele>876</ele>
        <time>2019-06-15T11:14:32.096Z</time>
      </trkpt>
      <trkpt lat="44.96281" lon="5.41904">
        <ele>876</ele>
        <time>2019-06-15T11:14:33.096Z</time>
      </trkpt>
      <trkpt lat="44.96284" lon="5.41902">
        <ele>876</ele>
        <time>2019-06-15T11:14:34.096Z</time>
      </trkpt>
      <trkpt lat="44.96287" lon="5.41901">
        <ele>875</ele>
        <time>2019-06-15T11:14:35.096Z</time>
      </trkpt>
      <trkpt lat="44.9629" lon="5.419">
        <ele>877</ele>
        <time>2019-06-15T11:14:36.096Z</time>
      </trkpt>
      <trkpt lat="44.96292" lon="5.41899">
        <ele>877</ele>
        <time>2019-06-15T11:14:37.096Z</time>
      </trkpt>
      <trkpt lat="44.96295" lon="5.41898">
        <ele>878</ele>
        <time>2019-06-15T11:14:38.096Z</time>
      </trkpt>
      <trkpt lat="44.96297" lon="5.41897">
        <ele>878</ele>
        <time>2019-06-15T11:14:39.096Z</time>
      </trkpt>
      <trkpt lat="44.963" lon="5.41895">
        <ele>879</ele>
        <time>2019-06-15T11:14:40.096Z</time>
      </trkpt>
      <trkpt lat="44.96302" lon="5.41894">
        <ele>879</ele>
        <time>2019-06-15T11:14:41.096Z</time>
      </trkpt>
      <trkpt lat="44.96305" lon="5.41893">
        <ele>879</ele>
        <time>2019-06-15T11:14:42.096Z</time>
      </trkpt>
      <trkpt lat="44.96307" lon="5.41892">
        <ele>879</ele>
        <time>2019-06-15T11:14:43.096Z</time>
      </trkpt>
      <trkpt lat="44.96309" lon="5.41891">
        <ele>880</ele>
        <time>2019-06-15T11:14:44.096Z</time>
      </trkpt>
      <trkpt lat="44.96311" lon="5.41889">
        <ele>880</ele>
        <time>2019-06-15T11:14:45.096Z</time>
      </trkpt>
      <trkpt lat="44.96313" lon="5.41887">
        <ele>881</ele>
        <time>2019-06-15T11:14:46.096Z</time>
      </trkpt>
      <trkpt lat="44.96314" lon="5.41884">
        <ele>882</ele>
        <time>2019-06-15T11:14:47.096Z</time>
      </trkpt>
      <trkpt lat="44.96316" lon="5.41881">
        <ele>882</ele>
        <time>2019-06-15T11:14:48.096Z</time>
      </trkpt>
      <trkpt lat="44.96316" lon="5.41878">
        <ele>884</ele>
        <time>2019-06-15T11:14:49.096Z</time>
      </trkpt>
      <trkpt lat="44.96317" lon="5.41874">
        <ele>885</ele>
        <time>2019-06-15T11:14:50.096Z</time>
      </trkpt>
      <trkpt lat="44.96317" lon="5.41869">
        <ele>887</ele>
        <time>2019-06-15T11:14:51.096Z</time>
      </trkpt>
      <trkpt lat="44.96318" lon="5.41864">
        <ele>887</ele>
        <time>2019-06-15T11:14:52.096Z</time>
      </trkpt>
      <trkpt lat="44.96318" lon="5.4186">
        <ele>887</ele>
        <time>2019-06-15T11:14:53.096Z</time>
      </trkpt>
      <trkpt lat="44.96318" lon="5.41857">
        <ele>888</ele>
        <time>2019-06-15T11:14:54.096Z</time>
      </trkpt>
      <trkpt lat="44.96318" lon="5.41854">
        <ele>889</ele>
        <time>2019-06-15T11:14:55.096Z</time>
      </trkpt>
      <trkpt lat="44.96318" lon="5.4185">
        <ele>889</ele>
        <time>2019-06-15T11:14:56.096Z</time>
      </trkpt>
      <trkpt lat="44.96318" lon="5.41847">
        <ele>890</ele>
        <time>2019-06-15T11:14:57.096Z</time>
      </trkpt>
      <trkpt lat="44.96319" lon="5.41844">
        <ele>890</ele>
        <time>2019-06-15T11:14:58.096Z</time>
      </trkpt>
      <trkpt lat="44.96319" lon="5.41842">
        <ele>891</ele>
        <time>2019-06-15T11:14:59.096Z</time>
      </trkpt>
      <trkpt lat="44.9632" lon="5.41839">
        <ele>892</ele>
        <time>2019-06-15T11:15:00.096Z</time>
      </trkpt>
      <trkpt lat="44.96322" lon="5.41837">
        <ele>892</ele>
        <time>2019-06-15T11:15:01.096Z</time>
      </trkpt>
      <trkpt lat="44.96323" lon="5.41836">
        <ele>893</ele>
        <time>2019-06-15T11:15:02.096Z</time>
      </trkpt>
      <trkpt lat="44.96325" lon="5.41835">
        <ele>893</ele>
        <time>2019-06-15T11:15:03.096Z</time>
      </trkpt>
      <trkpt lat="44.96326" lon="5.41833">
        <ele>893</ele>
        <time>2019-06-15T11:15:04.096Z</time>
      </trkpt>
      <trkpt lat="44.96328" lon="5.41831">
        <ele>894</ele>
        <time>2019-06-15T11:15:05.096Z</time>
      </trkpt>
      <trkpt lat="44.9633" lon="5.4183">
        <ele>894</ele>
        <time>2019-06-15T11:15:06.096Z</time>
      </trkpt>
      <trkpt lat="44.96332" lon="5.41829">
        <ele>894</ele>
        <time>2019-06-15T11:15:07.096Z</time>
      </trkpt>
      <trkpt lat="44.96334" lon="5.41827">
        <ele>895</ele>
        <time>2019-06-15T11:15:08.096Z</time>
      </trkpt>
      <trkpt lat="44.96336" lon="5.41826">
        <ele>895</ele>
        <time>2019-06-15T11:15:09.096Z</time>
      </trkpt>
      <trkpt lat="44.96338" lon="5.41824">
        <ele>895</ele>
        <time>2019-06-15T11:15:10.096Z</time>
      </trkpt>
      <trkpt lat="44.96339" lon="5.41822">
        <ele>896</ele>
        <time>2019-06-15T11:15:11.096Z</time>
      </trkpt>
      <trkpt lat="44.9634" lon="5.4182">
        <ele>897</ele>
        <time>2019-06-15T11:15:12.096Z</time>
      </trkpt>
      <trkpt lat="44.96341" lon="5.41819">
        <ele>896</ele>
        <time>2019-06-15T11:15:13.096Z</time>
      </trkpt>
      <trkpt lat="44.96342" lon="5.41817">
        <ele>897</ele>
        <time>2019-06-15T11:15:14.096Z</time>
      </trkpt>
      <trkpt lat="44.96342" lon="5.41816">
        <ele>896</ele>
        <time>2019-06-15T11:15:15.096Z</time>
      </trkpt>
      <trkpt lat="44.96342" lon="5.41814">
        <ele>897</ele>
        <time>2019-06-15T11:15:16.096Z</time>
      </trkpt>
      <trkpt lat="44.96343" lon="5.41812">
        <ele>895</ele>
        <time>2019-06-15T11:15:17.096Z</time>
      </trkpt>
      <trkpt lat="44.96343" lon="5.4181">
        <ele>895</ele>
        <time>2019-06-15T11:15:18.096Z</time>
      </trkpt>
      <trkpt lat="44.96343" lon="5.41808">
        <ele>895</ele>
        <time>2019-06-15T11:15:19.096Z</time>
      </trkpt>
      <trkpt lat="44.96343" lon="5.41806">
        <ele>896</ele>
        <time>2019-06-15T11:15:20.096Z</time>
      </trkpt>
      <trkpt lat="44.96343" lon="5.41804">
        <ele>895</ele>
        <time>2019-06-15T11:15:21.096Z</time>
      </trkpt>
      <trkpt lat="44.96343" lon="5.41802">
        <ele>894</ele>
        <time>2019-06-15T11:15:22.096Z</time>
      </trkpt>
      <trkpt lat="44.96343" lon="5.41801">
        <ele>894</ele>
        <time>2019-06-15T11:15:23.096Z</time>
      </trkpt>
      <trkpt lat="44.96343" lon="5.41799">
        <ele>894</ele>
        <time>2019-06-15T11:15:24.096Z</time>
      </trkpt>
      <trkpt lat="44.96343" lon="5.41797">
        <ele>893</ele>
        <time>2019-06-15T11:15:25.096Z</time>
      </trkpt>
      <trkpt lat="44.96343" lon="5.41796">
        <ele>893</ele>
        <time>2019-06-15T11:15:26.096Z</time>
      </trkpt>
      <trkpt lat="44.96344" lon="5.41794">
        <ele>892</ele>
        <time>2019-06-15T11:15:27.096Z</time>
      </trkpt>
      <trkpt lat="44.96344" lon="5.41793">
        <ele>893</ele>
        <time>2019-06-15T11:15:28.096Z</time>
      </trkpt>
      <trkpt lat="44.96344" lon="5.41792">
        <ele>894</ele>
        <time>2019-06-15T11:15:29.096Z</time>
      </trkpt>
      <trkpt lat="44.96344" lon="5.41791">
        <ele>893</ele>
        <time>2019-06-15T11:15:30.096Z</time>
      </trkpt>
      <trkpt lat="44.96344" lon="5.41789">
        <ele>893</ele>
        <time>2019-06-15T11:15:31.096Z</time>
      </trkpt>
      <trkpt lat="44.96344" lon="5.41788">
        <ele>894</ele>
        <time>2019-06-15T11:15:32.096Z</time>
      </trkpt>
      <trkpt lat="44.96344" lon="5.41786">
        <ele>893</ele>
        <time>2019-06-15T11:15:33.096Z</time>
      </trkpt>
      <trkpt lat="44.96344" lon="5.41785">
        <ele>894</ele>
        <time>2019-06-15T11:15:34.096Z</time>
      </trkpt>
      <trkpt lat="44.96344" lon="5.41783">
        <ele>893</ele>
        <time>2019-06-15T11:15:35.096Z</time>
      </trkpt>
      <trkpt lat="44.96345" lon="5.41781">
        <ele>893</ele>
        <time>2019-06-15T11:15:36.096Z</time>
      </trkpt>
      <trkpt lat="44.96345" lon="5.41779">
        <ele>892</ele>
        <time>2019-06-15T11:15:37.096Z</time>
      </trkpt>
      <trkpt lat="44.96345" lon="5.41778">
        <ele>891</ele>
        <time>2019-06-15T11:15:38.096Z</time>
      </trkpt>
      <trkpt lat="44.96345" lon="5.41776">
        <ele>891</ele>
        <time>2019-06-15T11:15:39.096Z</time>
      </trkpt>
      <trkpt lat="44.96345" lon="5.41775">
        <ele>892</ele>
        <time>2019-06-15T11:15:40.096Z</time>
      </trkpt>
      <trkpt lat="44.96345" lon="5.41773">
        <ele>892</ele>
        <time>2019-06-15T11:15:41.096Z</time>
      </trkpt>
      <trkpt lat="44.96345" lon="5.4177">
        <ele>892</ele>
        <time>2019-06-15T11:15:42.096Z</time>
      </trkpt>
      <trkpt lat="44.96345" lon="5.41767">
        <ele>892</ele>
        <time>2019-06-15T11:15:43.096Z</time>
      </trkpt>
      <trkpt lat="44.96346" lon="5.41765">
        <ele>892</ele>
        <time>2019-06-15T11:15:44.096Z</time>
      </trkpt>
      <trkpt lat="44.96346" lon="5.41762">
        <ele>892</ele>
        <time>2019-06-15T11:15:45.096Z</time>
      </trkpt>
      <trkpt lat="44.96346" lon="5.41759">
        <ele>892</ele>
        <time>2019-06-15T11:15:46.096Z</time>
      </trkpt>
      <trkpt lat="44.96347" lon="5.41756">
        <ele>892</ele>
        <time>2019-06-15T11:15:47.096Z</time>
      </trkpt>
      <trkpt lat="44.96347" lon="5.41753">
        <ele>892</ele>
        <time>2019-06-15T11:15:48.096Z</time>
      </trkpt>
      <trkpt lat="44.96348" lon="5.4175">
        <ele>892</ele>
        <time>2019-06-15T11:15:49.096Z</time>
      </trkpt>
      <trkpt lat="44.96348" lon="5.41747">
        <ele>892</ele>
        <time>2019-06-15T11:15:50.096Z</time>
      </trkpt>
      <trkpt lat="44.96348" lon="5.41744">
        <ele>891</ele>
        <time>2019-06-15T11:15:51.096Z</time>
      </trkpt>
      <trkpt lat="44.96349" lon="5.41741">
        <ele>892</ele>
        <time>2019-06-15T11:15:52.096Z</time>
      </trkpt>
      <trkpt lat="44.9635" lon="5.41739">
        <ele>892</ele>
        <time>2019-06-15T11:15:53.096Z</time>
      </trkpt>
      <trkpt lat="44.9635" lon="5.41736">
        <ele>892</ele>
        <time>2019-06-15T11:15:54.096Z</time>
      </trkpt>
      <trkpt lat="44.9635" lon="5.41733">
        <ele>892</ele>
        <time>2019-06-15T11:15:55.096Z</time>
      </trkpt>
      <trkpt lat="44.96351" lon="5.41729">
        <ele>893</ele>
        <time>2019-06-15T11:15:56.096Z</time>
      </trkpt>
      <trkpt lat="44.96351" lon="5.41726">
        <ele>893</ele>
        <time>2019-06-15T11:15:57.096Z</time>
      </trkpt>
      <trkpt lat="44.96352" lon="5.41723">
        <ele>894</ele>
        <time>2019-06-15T11:15:58.096Z</time>
      </trkpt>
      <trkpt lat="44.96352" lon="5.4172">
        <ele>894</ele>
        <time>2019-06-15T11:15:59.096Z</time>
      </trkpt>
      <trkpt lat="44.96353" lon="5.41717">
        <ele>894</ele>
        <time>2019-06-15T11:16:00.096Z</time>
      </trkpt>
      <trkpt lat="44.96354" lon="5.41714">
        <ele>894</ele>
        <time>2019-06-15T11:16:01.096Z</time>
      </trkpt>
      <trkpt lat="44.96355" lon="5.41711">
        <ele>893</ele>
        <time>2019-06-15T11:16:02.096Z</time>
      </trkpt>
      <trkpt lat="44.96355" lon="5.41708">
        <ele>893</ele>
        <time>2019-06-15T11:16:03.096Z</time>
      </trkpt>
      <trkpt lat="44.96356" lon="5.41705">
        <ele>893</ele>
        <time>2019-06-15T11:16:04.096Z</time>
      </trkpt>
      <trkpt lat="44.96357" lon="5.41703">
        <ele>893</ele>
        <time>2019-06-15T11:16:05.096Z</time>
      </trkpt>
      <trkpt lat="44.96358" lon="5.417">
        <ele>892</ele>
        <time>2019-06-15T11:16:06.096Z</time>
      </trkpt>
      <trkpt lat="44.96358" lon="5.41698">
        <ele>893</ele>
        <time>2019-06-15T11:16:07.096Z</time>
      </trkpt>
      <trkpt lat="44.96359" lon="5.41695">
        <ele>892</ele>
        <time>2019-06-15T11:16:08.096Z</time>
      </trkpt>
      <trkpt lat="44.96359" lon="5.41693">
        <ele>892</ele>
        <time>2019-06-15T11:16:09.096Z</time>
      </trkpt>
      <trkpt lat="44.9636" lon="5.41691">
        <ele>893</ele>
        <time>2019-06-15T11:16:10.096Z</time>
      </trkpt>
      <trkpt lat="44.96361" lon="5.41689">
        <ele>894</ele>
        <time>2019-06-15T11:16:11.096Z</time>
      </trkpt>
      <trkpt lat="44.96362" lon="5.41687">
        <ele>894</ele>
        <time>2019-06-15T11:16:12.096Z</time>
      </trkpt>
      <trkpt lat="44.96363" lon="5.41685">
        <ele>895</ele>
        <time>2019-06-15T11:16:13.096Z</time>
      </trkpt>
      <trkpt lat="44.96363" lon="5.41683">
        <ele>896</ele>
        <time>2019-06-15T11:16:14.096Z</time>
      </trkpt>
      <trkpt lat="44.96364" lon="5.41681">
        <ele>895</ele>
        <time>2019-06-15T11:16:15.096Z</time>
      </trkpt>
      <trkpt lat="44.96364" lon="5.41679">
        <ele>895</ele>
        <time>2019-06-15T11:16:16.096Z</time>
      </trkpt>
      <trkpt lat="44.96365" lon="5.41676">
        <ele>895</ele>
        <time>2019-06-15T11:16:17.096Z</time>
      </trkpt>
      <trkpt lat="44.96365" lon="5.41674">
        <ele>895</ele>
        <time>2019-06-15T11:16:18.096Z</time>
      </trkpt>
      <trkpt lat="44.96366" lon="5.41671">
        <ele>895</ele>
        <time>2019-06-15T11:16:19.096Z</time>
      </trkpt>
      <trkpt lat="44.96366" lon="5.41668">
        <ele>894</ele>
        <time>2019-06-15T11:16:20.096Z</time>
      </trkpt>
      <trkpt lat="44.96367" lon="5.41665">
        <ele>894</ele>
        <time>2019-06-15T11:16:21.096Z</time>
      </trkpt>
      <trkpt lat="44.96368" lon="5.41663">
        <ele>893</ele>
        <time>2019-06-15T11:16:22.096Z</time>
      </trkpt>
      <trkpt lat="44.96369" lon="5.4166">
        <ele>893</ele>
        <time>2019-06-15T11:16:23.096Z</time>
      </trkpt>
      <trkpt lat="44.96371" lon="5.41658">
        <ele>894</ele>
        <time>2019-06-15T11:16:24.096Z</time>
      </trkpt>
      <trkpt lat="44.96372" lon="5.41656">
        <ele>895</ele>
        <time>2019-06-15T11:16:25.096Z</time>
      </trkpt>
      <trkpt lat="44.96374" lon="5.41653">
        <ele>896</ele>
        <time>2019-06-15T11:16:26.096Z</time>
      </trkpt>
      <trkpt lat="44.96376" lon="5.41651">
        <ele>896</ele>
        <time>2019-06-15T11:16:27.096Z</time>
      </trkpt>
      <trkpt lat="44.96378" lon="5.41648">
        <ele>896</ele>
        <time>2019-06-15T11:16:28.096Z</time>
      </trkpt>
      <trkpt lat="44.9638" lon="5.41646">
        <ele>896</ele>
        <time>2019-06-15T11:16:29.096Z</time>
      </trkpt>
      <trkpt lat="44.96381" lon="5.41643">
        <ele>897</ele>
        <time>2019-06-15T11:16:30.096Z</time>
      </trkpt>
      <trkpt lat="44.96383" lon="5.4164">
        <ele>897</ele>
        <time>2019-06-15T11:16:31.096Z</time>
      </trkpt>
      <trkpt lat="44.96385" lon="5.41638">
        <ele>898</ele>
        <time>2019-06-15T11:16:32.096Z</time>
      </trkpt>
      <trkpt lat="44.96387" lon="5.41635">
        <ele>899</ele>
        <time>2019-06-15T11:16:33.096Z</time>
      </trkpt>
      <trkpt lat="44.9639" lon="5.41632">
        <ele>899</ele>
        <time>2019-06-15T11:16:34.096Z</time>
      </trkpt>
      <trkpt lat="44.96392" lon="5.41629">
        <ele>900</ele>
        <time>2019-06-15T11:16:35.096Z</time>
      </trkpt>
      <trkpt lat="44.96393" lon="5.41626">
        <ele>901</ele>
        <time>2019-06-15T11:16:36.096Z</time>
      </trkpt>
      <trkpt lat="44.96395" lon="5.41623">
        <ele>901</ele>
        <time>2019-06-15T11:16:37.096Z</time>
      </trkpt>
      <trkpt lat="44.96397" lon="5.4162">
        <ele>901</ele>
        <time>2019-06-15T11:16:38.096Z</time>
      </trkpt>
      <trkpt lat="44.96399" lon="5.41618">
        <ele>901</ele>
        <time>2019-06-15T11:16:39.096Z</time>
      </trkpt>
      <trkpt lat="44.96401" lon="5.41616">
        <ele>901</ele>
        <time>2019-06-15T11:16:40.096Z</time>
      </trkpt>
      <trkpt lat="44.96404" lon="5.41614">
        <ele>901</ele>
        <time>2019-06-15T11:16:41.096Z</time>
      </trkpt>
      <trkpt lat="44.96406" lon="5.41612">
        <ele>901</ele>
        <time>2019-06-15T11:16:42.096Z</time>
      </trkpt>
      <trkpt lat="44.96408" lon="5.4161">
        <ele>901</ele>
        <time>2019-06-15T11:16:43.096Z</time>
      </trkpt>
      <trkpt lat="44.9641" lon="5.41609">
        <ele>901</ele>
        <time>2019-06-15T11:16:44.096Z</time>
      </trkpt>
      <trkpt lat="44.96412" lon="5.41607">
        <ele>900</ele>
        <time>2019-06-15T11:16:45.096Z</time>
      </trkpt>
      <trkpt lat="44.96414" lon="5.41606">
        <ele>901</ele>
        <time>2019-06-15T11:16:46.096Z</time>
      </trkpt>
      <trkpt lat="44.96416" lon="5.41605">
        <ele>900</ele>
        <time>2019-06-15T11:16:47.096Z</time>
      </trkpt>
      <trkpt lat="44.96419" lon="5.41605">
        <ele>899</ele>
        <time>2019-06-15T11:16:48.096Z</time>
      </trkpt>
      <trkpt lat="44.96421" lon="5.41604">
        <ele>899</ele>
        <time>2019-06-15T11:16:49.096Z</time>
      </trkpt>
      <trkpt lat="44.96424" lon="5.41604">
        <ele>898</ele>
        <time>2019-06-15T11:16:50.096Z</time>
      </trkpt>
      <trkpt lat="44.96427" lon="5.41604">
        <ele>898</ele>
        <time>2019-06-15T11:16:51.096Z</time>
      </trkpt>
      <trkpt lat="44.9643" lon="5.41604">
        <ele>898</ele>
        <time>2019-06-15T11:16:52.096Z</time>
      </trkpt>
      <trkpt lat="44.96432" lon="5.41603">
        <ele>898</ele>
        <time>2019-06-15T11:16:53.096Z</time>
      </trkpt>
      <trkpt lat="44.96435" lon="5.41603">
        <ele>898</ele>
        <time>2019-06-15T11:16:54.096Z</time>
      </trkpt>
      <trkpt lat="44.96437" lon="5.41602">
        <ele>897</ele>
        <time>2019-06-15T11:16:55.096Z</time>
      </trkpt>
      <trkpt lat="44.96439" lon="5.41601">
        <ele>897</ele>
        <time>2019-06-15T11:16:56.096Z</time>
      </trkpt>
      <trkpt lat="44.96442" lon="5.41599">
        <ele>896</ele>
        <time>2019-06-15T11:16:57.096Z</time>
      </trkpt>
      <trkpt lat="44.96444" lon="5.41595">
        <ele>894</ele>
        <time>2019-06-15T11:16:58.096Z</time>
      </trkpt>
      <trkpt lat="44.96445" lon="5.41592">
        <ele>894</ele>
        <time>2019-06-15T11:16:59.096Z</time>
      </trkpt>
      <trkpt lat="44.96446" lon="5.41587">
        <ele>894</ele>
        <time>2019-06-15T11:17:00.096Z</time>
      </trkpt>
      <trkpt lat="44.96447" lon="5.41583">
        <ele>894</ele>
        <time>2019-06-15T11:17:01.096Z</time>
      </trkpt>
      <trkpt lat="44.96448" lon="5.41579">
        <ele>894</ele>
        <time>2019-06-15T11:17:02.096Z</time>
      </trkpt>
      <trkpt lat="44.96449" lon="5.41575">
        <ele>893</ele>
        <time>2019-06-15T11:17:03.096Z</time>
      </trkpt>
      <trkpt lat="44.96451" lon="5.41571">
        <ele>893</ele>
        <time>2019-06-15T11:17:04.096Z</time>
      </trkpt>
      <trkpt lat="44.96452" lon="5.41567">
        <ele>893</ele>
        <time>2019-06-15T11:17:05.096Z</time>
      </trkpt>
      <trkpt lat="44.96453" lon="5.41563">
        <ele>893</ele>
        <time>2019-06-15T11:17:06.096Z</time>
      </trkpt>
      <trkpt lat="44.96455" lon="5.41558">
        <ele>892</ele>
        <time>2019-06-15T11:17:07.096Z</time>
      </trkpt>
      <trkpt lat="44.96456" lon="5.41554">
        <ele>892</ele>
        <time>2019-06-15T11:17:08.096Z</time>
      </trkpt>
      <trkpt lat="44.96457" lon="5.4155">
        <ele>892</ele>
        <time>2019-06-15T11:17:09.096Z</time>
      </trkpt>
      <trkpt lat="44.96459" lon="5.41546">
        <ele>892</ele>
        <time>2019-06-15T11:17:10.096Z</time>
      </trkpt>
      <trkpt lat="44.9646" lon="5.41542">
        <ele>891</ele>
        <time>2019-06-15T11:17:11.096Z</time>
      </trkpt>
      <trkpt lat="44.96462" lon="5.41539">
        <ele>891</ele>
        <time>2019-06-15T11:17:12.096Z</time>
      </trkpt>
      <trkpt lat="44.96463" lon="5.41535">
        <ele>892</ele>
        <time>2019-06-15T11:17:13.096Z</time>
      </trkpt>
      <trkpt lat="44.96465" lon="5.41531">
        <ele>892</ele>
        <time>2019-06-15T11:17:14.096Z</time>
      </trkpt>
      <trkpt lat="44.96466" lon="5.41526">
        <ele>892</ele>
        <time>2019-06-15T11:17:15.096Z</time>
      </trkpt>
      <trkpt lat="44.96468" lon="5.41522">
        <ele>892</ele>
        <time>2019-06-15T11:17:16.096Z</time>
      </trkpt>
      <trkpt lat="44.96469" lon="5.41518">
        <ele>892</ele>
        <time>2019-06-15T11:17:17.096Z</time>
      </trkpt>
      <trkpt lat="44.96471" lon="5.41513">
        <ele>892</ele>
        <time>2019-06-15T11:17:18.096Z</time>
      </trkpt>
      <trkpt lat="44.96472" lon="5.41509">
        <ele>891</ele>
        <time>2019-06-15T11:17:19.096Z</time>
      </trkpt>
      <trkpt lat="44.96473" lon="5.41505">
        <ele>891</ele>
        <time>2019-06-15T11:17:20.096Z</time>
      </trkpt>
      <trkpt lat="44.96474" lon="5.415">
        <ele>890</ele>
        <time>2019-06-15T11:17:21.096Z</time>
      </trkpt>
      <trkpt lat="44.96475" lon="5.41496">
        <ele>890</ele>
        <time>2019-06-15T11:17:22.096Z</time>
      </trkpt>
      <trkpt lat="44.96476" lon="5.41491">
        <ele>891</ele>
        <time>2019-06-15T11:17:23.096Z</time>
      </trkpt>
      <trkpt lat="44.96477" lon="5.41486">
        <ele>892</ele>
        <time>2019-06-15T11:17:24.096Z</time>
      </trkpt>
      <trkpt lat="44.96478" lon="5.41481">
        <ele>891</ele>
        <time>2019-06-15T11:17:25.096Z</time>
      </trkpt>
      <trkpt lat="44.9648" lon="5.41477">
        <ele>892</ele>
        <time>2019-06-15T11:17:26.096Z</time>
      </trkpt>
      <trkpt lat="44.96481" lon="5.41472">
        <ele>891</ele>
        <time>2019-06-15T11:17:27.096Z</time>
      </trkpt>
      <trkpt lat="44.96482" lon="5.41468">
        <ele>891</ele>
        <time>2019-06-15T11:17:28.096Z</time>
      </trkpt>
      <trkpt lat="44.96482" lon="5.41463">
        <ele>890</ele>
        <time>2019-06-15T11:17:29.096Z</time>
      </trkpt>
      <trkpt lat="44.96482" lon="5.4146">
        <ele>887</ele>
        <time>2019-06-15T11:17:30.096Z</time>
      </trkpt>
      <trkpt lat="44.9648" lon="5.41456">
        <ele>886</ele>
        <time>2019-06-15T11:17:31.096Z</time>
      </trkpt>
      <trkpt lat="44.96478" lon="5.41453">
        <ele>886</ele>
        <time>2019-06-15T11:17:32.096Z</time>
      </trkpt>
      <trkpt lat="44.96475" lon="5.4145">
        <ele>886</ele>
        <time>2019-06-15T11:17:33.096Z</time>
      </trkpt>
      <trkpt lat="44.96473" lon="5.41447">
        <ele>886</ele>
        <time>2019-06-15T11:17:34.096Z</time>
      </trkpt>
      <trkpt lat="44.96471" lon="5.41444">
        <ele>885</ele>
        <time>2019-06-15T11:17:35.096Z</time>
      </trkpt>
      <trkpt lat="44.96469" lon="5.41441">
        <ele>885</ele>
        <time>2019-06-15T11:17:36.096Z</time>
      </trkpt>
      <trkpt lat="44.96467" lon="5.41437">
        <ele>885</ele>
        <time>2019-06-15T11:17:37.096Z</time>
      </trkpt>
      <trkpt lat="44.96466" lon="5.41433">
        <ele>884</ele>
        <time>2019-06-15T11:17:38.096Z</time>
      </trkpt>
      <trkpt lat="44.96464" lon="5.41429">
        <ele>884</ele>
        <time>2019-06-15T11:17:39.096Z</time>
      </trkpt>
      <trkpt lat="44.96463" lon="5.41424">
        <ele>883</ele>
        <time>2019-06-15T11:17:40.096Z</time>
      </trkpt>
      <trkpt lat="44.96462" lon="5.41419">
        <ele>883</ele>
        <time>2019-06-15T11:17:41.096Z</time>
      </trkpt>
      <trkpt lat="44.96461" lon="5.41414">
        <ele>883</ele>
        <time>2019-06-15T11:17:42.096Z</time>
      </trkpt>
      <trkpt lat="44.96459" lon="5.4141">
        <ele>883</ele>
        <time>2019-06-15T11:17:43.096Z</time>
      </trkpt>
      <trkpt lat="44.96458" lon="5.41405">
        <ele>883</ele>
        <time>2019-06-15T11:17:44.096Z</time>
      </trkpt>
      <trkpt lat="44.96457" lon="5.41401">
        <ele>883</ele>
        <time>2019-06-15T11:17:45.096Z</time>
      </trkpt>
      <trkpt lat="44.96456" lon="5.41397">
        <ele>882</ele>
        <time>2019-06-15T11:17:46.096Z</time>
      </trkpt>
      <trkpt lat="44.96455" lon="5.41393">
        <ele>883</ele>
        <time>2019-06-15T11:17:47.096Z</time>
      </trkpt>
      <trkpt lat="44.96454" lon="5.4139">
        <ele>883</ele>
        <time>2019-06-15T11:17:48.096Z</time>
      </trkpt>
      <trkpt lat="44.96454" lon="5.41387">
        <ele>883</ele>
        <time>2019-06-15T11:17:49.096Z</time>
      </trkpt>
      <trkpt lat="44.96454" lon="5.41384">
        <ele>882</ele>
        <time>2019-06-15T11:17:50.096Z</time>
      </trkpt>
      <trkpt lat="44.96454" lon="5.41382">
        <ele>882</ele>
        <time>2019-06-15T11:17:51.096Z</time>
      </trkpt>
      <trkpt lat="44.96454" lon="5.41381">
        <ele>884</ele>
        <time>2019-06-15T11:17:52.096Z</time>
      </trkpt>
    </trkseg>
  </trk>
</gpx>